<?xml version='1.0' encoding='UTF-8'?><gpx version="1.1" creator="JPX - https://github.com/jenetics/jpx" xmlns="http://www.topografix.com/GPX/1/1"><trk><trkseg><trkpt lat="43.0256416" lon="11.6191622"><ele>249.0</ele><time>2026-04-30T13:07:09.237Z</time></trkpt><trkpt lat="43.0257133" lon="11.61946"><ele>248.99999999999997</ele><time>2026-04-30T13:07:13.342Z</time></trkpt><trkpt lat="43.02574" lon="11.61954"><ele>248.99999999999997</ele><time>2026-04-30T13:07:14.342Z</time></trkpt><trkpt lat="43.0257717" lon="11.6196217"><ele>249.0</ele><time>2026-04-30T13:07:15.342Z</time></trkpt><trkpt lat="43.025805" lon="11.6197017"><ele>249.0</ele><time>2026-04-30T13:07:16.342Z</time></trkpt><trkpt lat="43.02584" lon="11.6197833"><ele>249.7142857142857</ele><time>2026-04-30T13:07:17.342Z</time></trkpt><trkpt lat="43.02588" lon="11.6198633"><ele>250.4285714285714</ele><time>2026-04-30T13:07:18.341Z</time></trkpt><trkpt lat="43.025925" lon="11.619935"><ele>251.14285714285714</ele><time>2026-04-30T13:07:19.341Z</time></trkpt><trkpt lat="43.0259683" lon="11.62"><ele>251.85714285714283</ele><time>2026-04-30T13:07:20.341Z</time></trkpt><trkpt lat="43.0260117" lon="11.62007"><ele>252.57142857142856</ele><time>2026-04-30T13:07:21.342Z</time></trkpt><trkpt lat="43.0260883" lon="11.6201167"><ele>253.28571428571428</ele><time>2026-04-30T13:07:22.342Z</time></trkpt><trkpt lat="43.0261467" lon="11.6201517"><ele>254.0</ele><time>2026-04-30T13:07:23.341Z</time></trkpt><trkpt lat="43.0262433" lon="11.6201783"><ele>254.0</ele><time>2026-04-30T13:07:25.342Z</time></trkpt><trkpt lat="43.0263117" lon="11.62021"><ele>254.0</ele><time>2026-04-30T13:07:28.342Z</time></trkpt><trkpt lat="43.02638" lon="11.6202383"><ele>254.0</ele><time>2026-04-30T13:07:31.342Z</time></trkpt><trkpt lat="43.0264683" lon="11.6202683"><ele>254.0</ele><time>2026-04-30T13:07:34.342Z</time></trkpt><trkpt lat="43.0265283" lon="11.6203033"><ele>254.0</ele><time>2026-04-30T13:07:36.341Z</time></trkpt><trkpt lat="43.0265933" lon="11.62032"><ele>254.0</ele><time>2026-04-30T13:07:38.342Z</time></trkpt><trkpt lat="43.0266733" lon="11.6203417"><ele>254.0</ele><time>2026-04-30T13:07:40.341Z</time></trkpt><trkpt lat="43.026765" lon="11.620375"><ele>255.39999999999998</ele><time>2026-04-30T13:07:42.342Z</time></trkpt><trkpt lat="43.02686" lon="11.6204033"><ele>256.79999999999995</ele><time>2026-04-30T13:07:44.342Z</time></trkpt><trkpt lat="43.0269783" lon="11.620465"><ele>258.20000000000005</ele><time>2026-04-30T13:07:46.341Z</time></trkpt><trkpt lat="43.0270433" lon="11.6205067"><ele>259.6</ele><time>2026-04-30T13:07:47.341Z</time></trkpt><trkpt lat="43.02711" lon="11.6205567"><ele>261.0</ele><time>2026-04-30T13:07:48.341Z</time></trkpt><trkpt lat="43.0271917" lon="11.6206233"><ele>261.0</ele><time>2026-04-30T13:07:49.342Z</time></trkpt><trkpt lat="43.027265" lon="11.6206867"><ele>261.0</ele><time>2026-04-30T13:07:50.342Z</time></trkpt><trkpt lat="43.0273333" lon="11.6207583"><ele>261.0</ele><time>2026-04-30T13:07:51.342Z</time></trkpt><trkpt lat="43.0274083" lon="11.620835"><ele>261.0</ele><time>2026-04-30T13:07:52.342Z</time></trkpt><trkpt lat="43.0274767" lon="11.6209233"><ele>261.0</ele><time>2026-04-30T13:07:53.342Z</time></trkpt><trkpt lat="43.027535" lon="11.6210033"><ele>261.0</ele><time>2026-04-30T13:07:54.342Z</time></trkpt><trkpt lat="43.02759" lon="11.6210667"><ele>262.5</ele><time>2026-04-30T13:07:55.342Z</time></trkpt><trkpt lat="43.0276283" lon="11.621145"><ele>264.0</ele><time>2026-04-30T13:07:56.342Z</time></trkpt><trkpt lat="43.0276733" lon="11.6212083"><ele>265.5</ele><time>2026-04-30T13:07:57.341Z</time></trkpt><trkpt lat="43.02773" lon="11.6213383"><ele>267.0</ele><time>2026-04-30T13:07:59.342Z</time></trkpt><trkpt lat="43.0277367" lon="11.6214283"><ele>268.5</ele><time>2026-04-30T13:08:00.341Z</time></trkpt><trkpt lat="43.0277383" lon="11.6215367"><ele>270.0</ele><time>2026-04-30T13:08:01.342Z</time></trkpt><trkpt lat="43.0277517" lon="11.621635"><ele>270.0</ele><time>2026-04-30T13:08:02.342Z</time></trkpt><trkpt lat="43.0277633" lon="11.62174"><ele>270.0</ele><time>2026-04-30T13:08:03.341Z</time></trkpt><trkpt lat="43.0277817" lon="11.621845"><ele>270.0</ele><time>2026-04-30T13:08:04.341Z</time></trkpt><trkpt lat="43.0278017" lon="11.621965"><ele>270.0</ele><time>2026-04-30T13:08:05.342Z</time></trkpt><trkpt lat="43.0278217" lon="11.6220967"><ele>270.0</ele><time>2026-04-30T13:08:06.341Z</time></trkpt><trkpt lat="43.0278467" lon="11.6222283"><ele>270.0</ele><time>2026-04-30T13:08:07.341Z</time></trkpt><trkpt lat="43.02787" lon="11.6223433"><ele>269.0</ele><time>2026-04-30T13:08:08.342Z</time></trkpt><trkpt lat="43.0279" lon="11.62244"><ele>268.0</ele><time>2026-04-30T13:08:09.342Z</time></trkpt><trkpt lat="43.027925" lon="11.622525"><ele>267.0</ele><time>2026-04-30T13:08:10.341Z</time></trkpt><trkpt lat="43.02795" lon="11.622615"><ele>266.0</ele><time>2026-04-30T13:08:11.342Z</time></trkpt><trkpt lat="43.0279933" lon="11.6227517"><ele>265.0</ele><time>2026-04-30T13:08:13.341Z</time></trkpt><trkpt lat="43.0280233" lon="11.6228367"><ele>264.0</ele><time>2026-04-30T13:08:15.341Z</time></trkpt><trkpt lat="43.0280217" lon="11.62294"><ele>262.8</ele><time>2026-04-30T13:08:17.341Z</time></trkpt><trkpt lat="43.02801" lon="11.623025"><ele>261.59999999999997</ele><time>2026-04-30T13:08:18.342Z</time></trkpt><trkpt lat="43.0279917" lon="11.6231267"><ele>260.4</ele><time>2026-04-30T13:08:19.342Z</time></trkpt><trkpt lat="43.0279633" lon="11.6232583"><ele>259.2</ele><time>2026-04-30T13:08:20.341Z</time></trkpt><trkpt lat="43.0279467" lon="11.6234067"><ele>258.0</ele><time>2026-04-30T13:08:21.341Z</time></trkpt><trkpt lat="43.0279367" lon="11.62356"><ele>257.8</ele><time>2026-04-30T13:08:22.342Z</time></trkpt><trkpt lat="43.0279367" lon="11.6237017"><ele>257.6</ele><time>2026-04-30T13:08:23.342Z</time></trkpt><trkpt lat="43.0279483" lon="11.62384"><ele>257.4</ele><time>2026-04-30T13:08:24.341Z</time></trkpt><trkpt lat="43.027955" lon="11.62396"><ele>257.2</ele><time>2026-04-30T13:08:25.342Z</time></trkpt><trkpt lat="43.02797" lon="11.62407"><ele>257.0</ele><time>2026-04-30T13:08:26.342Z</time></trkpt><trkpt lat="43.027985" lon="11.6241733"><ele>257.0</ele><time>2026-04-30T13:08:27.341Z</time></trkpt><trkpt lat="43.0280033" lon="11.6242633"><ele>257.0</ele><time>2026-04-30T13:08:28.342Z</time></trkpt><trkpt lat="43.0280283" lon="11.6243633"><ele>257.0</ele><time>2026-04-30T13:08:29.342Z</time></trkpt><trkpt lat="43.0280567" lon="11.62446"><ele>257.0</ele><time>2026-04-30T13:08:30.341Z</time></trkpt><trkpt lat="43.0280883" lon="11.62456"><ele>257.0</ele><time>2026-04-30T13:08:31.342Z</time></trkpt><trkpt lat="43.02812" lon="11.6246583"><ele>257.0</ele><time>2026-04-30T13:08:32.342Z</time></trkpt><trkpt lat="43.0281517" lon="11.6247533"><ele>257.1666666666667</ele><time>2026-04-30T13:08:33.342Z</time></trkpt><trkpt lat="43.0281817" lon="11.6248433"><ele>257.33333333333337</ele><time>2026-04-30T13:08:34.341Z</time></trkpt><trkpt lat="43.02821" lon="11.624935"><ele>257.5</ele><time>2026-04-30T13:08:35.342Z</time></trkpt><trkpt lat="43.02824" lon="11.6250267"><ele>257.6666666666667</ele><time>2026-04-30T13:08:36.342Z</time></trkpt><trkpt lat="43.028285" lon="11.62515"><ele>257.8333333333333</ele><time>2026-04-30T13:08:38.342Z</time></trkpt><trkpt lat="43.028335" lon="11.62524"><ele>258.0</ele><time>2026-04-30T13:08:40.342Z</time></trkpt><trkpt lat="43.028435" lon="11.62536"><ele>258.5</ele><time>2026-04-30T13:08:42.341Z</time></trkpt><trkpt lat="43.0285167" lon="11.625445"><ele>259.0</ele><time>2026-04-30T13:08:43.342Z</time></trkpt><trkpt lat="43.0286083" lon="11.6255633"><ele>259.5</ele><time>2026-04-30T13:08:44.342Z</time></trkpt><trkpt lat="43.028685" lon="11.625665"><ele>260.0</ele><time>2026-04-30T13:08:45.342Z</time></trkpt><trkpt lat="43.028785" lon="11.6257633"><ele>260.0</ele><time>2026-04-30T13:08:46.342Z</time></trkpt><trkpt lat="43.0289083" lon="11.6258533"><ele>260.0</ele><time>2026-04-30T13:08:47.341Z</time></trkpt><trkpt lat="43.029035" lon="11.62591"><ele>260.0</ele><time>2026-04-30T13:08:48.341Z</time></trkpt><trkpt lat="43.0291717" lon="11.6259633"><ele>260.0</ele><time>2026-04-30T13:08:49.341Z</time></trkpt><trkpt lat="43.0293067" lon="11.6260217"><ele>258.6666666666667</ele><time>2026-04-30T13:08:50.341Z</time></trkpt><trkpt lat="43.0294633" lon="11.6260783"><ele>257.3333333333333</ele><time>2026-04-30T13:08:51.341Z</time></trkpt><trkpt lat="43.02961" lon="11.62616"><ele>256.0</ele><time>2026-04-30T13:08:52.342Z</time></trkpt><trkpt lat="43.02975" lon="11.6262517"><ele>256.0</ele><time>2026-04-30T13:08:53.342Z</time></trkpt><trkpt lat="43.0298833" lon="11.6263333"><ele>256.0</ele><time>2026-04-30T13:08:54.342Z</time></trkpt><trkpt lat="43.030025" lon="11.6264117"><ele>256.0</ele><time>2026-04-30T13:08:55.342Z</time></trkpt><trkpt lat="43.03017" lon="11.626455"><ele>256.0</ele><time>2026-04-30T13:08:56.342Z</time></trkpt><trkpt lat="43.0303217" lon="11.626495"><ele>257.0</ele><time>2026-04-30T13:08:57.342Z</time></trkpt><trkpt lat="43.0304717" lon="11.6265233"><ele>258.0</ele><time>2026-04-30T13:08:58.342Z</time></trkpt><trkpt lat="43.0306183" lon="11.62656"><ele>259.0</ele><time>2026-04-30T13:08:59.342Z</time></trkpt><trkpt lat="43.030765" lon="11.6266033"><ele>260.66666666666663</ele><time>2026-04-30T13:09:00.342Z</time></trkpt><trkpt lat="43.0309217" lon="11.6266567"><ele>262.3333333333333</ele><time>2026-04-30T13:09:01.341Z</time></trkpt><trkpt lat="43.031075" lon="11.6267017"><ele>264.0</ele><time>2026-04-30T13:09:02.342Z</time></trkpt><trkpt lat="43.0312267" lon="11.626745"><ele>264.0</ele><time>2026-04-30T13:09:03.342Z</time></trkpt><trkpt lat="43.0313817" lon="11.626795"><ele>264.0</ele><time>2026-04-30T13:09:04.342Z</time></trkpt><trkpt lat="43.0315483" lon="11.6268417"><ele>264.0</ele><time>2026-04-30T13:09:05.342Z</time></trkpt><trkpt lat="43.0317233" lon="11.6268967"><ele>263.3333333333333</ele><time>2026-04-30T13:09:06.341Z</time></trkpt><trkpt lat="43.0319067" lon="11.6269433"><ele>262.66666666666663</ele><time>2026-04-30T13:09:07.342Z</time></trkpt><trkpt lat="43.0320767" lon="11.6270033"><ele>262.0</ele><time>2026-04-30T13:09:08.341Z</time></trkpt><trkpt lat="43.0322533" lon="11.627055"><ele>260.3333333333333</ele><time>2026-04-30T13:09:09.342Z</time></trkpt><trkpt lat="43.0324233" lon="11.627115"><ele>258.6666666666667</ele><time>2026-04-30T13:09:10.341Z</time></trkpt><trkpt lat="43.0325967" lon="11.6271717"><ele>257.0</ele><time>2026-04-30T13:09:11.342Z</time></trkpt><trkpt lat="43.032775" lon="11.6272283"><ele>257.0</ele><time>2026-04-30T13:09:12.341Z</time></trkpt><trkpt lat="43.0329583" lon="11.6272867"><ele>257.0</ele><time>2026-04-30T13:09:13.341Z</time></trkpt><trkpt lat="43.0331333" lon="11.6273383"><ele>257.0</ele><time>2026-04-30T13:09:14.341Z</time></trkpt><trkpt lat="43.0333083" lon="11.6273967"><ele>258.33333333333337</ele><time>2026-04-30T13:09:15.342Z</time></trkpt><trkpt lat="43.0334883" lon="11.62746"><ele>259.6666666666667</ele><time>2026-04-30T13:09:16.341Z</time></trkpt><trkpt lat="43.0336683" lon="11.6275183"><ele>261.0</ele><time>2026-04-30T13:09:17.342Z</time></trkpt><trkpt lat="43.033835" lon="11.6275833"><ele>261.0</ele><time>2026-04-30T13:09:18.341Z</time></trkpt><trkpt lat="43.0339967" lon="11.62763"><ele>261.0</ele><time>2026-04-30T13:09:19.342Z</time></trkpt><trkpt lat="43.034155" lon="11.6276617"><ele>261.0</ele><time>2026-04-30T13:09:20.342Z</time></trkpt><trkpt lat="43.0343167" lon="11.62767"><ele>263.0</ele><time>2026-04-30T13:09:21.342Z</time></trkpt><trkpt lat="43.0344833" lon="11.627655"><ele>265.0</ele><time>2026-04-30T13:09:22.342Z</time></trkpt><trkpt lat="43.03466" lon="11.627625"><ele>267.0</ele><time>2026-04-30T13:09:23.342Z</time></trkpt><trkpt lat="43.0348417" lon="11.627585"><ele>267.6666666666667</ele><time>2026-04-30T13:09:24.342Z</time></trkpt><trkpt lat="43.0350217" lon="11.6275467"><ele>268.33333333333337</ele><time>2026-04-30T13:09:25.342Z</time></trkpt><trkpt lat="43.0352167" lon="11.627515"><ele>269.0</ele><time>2026-04-30T13:09:26.342Z</time></trkpt><trkpt lat="43.035415" lon="11.6274833"><ele>269.0</ele><time>2026-04-30T13:09:27.342Z</time></trkpt><trkpt lat="43.0356067" lon="11.6274517"><ele>269.0</ele><time>2026-04-30T13:09:28.342Z</time></trkpt><trkpt lat="43.0358117" lon="11.6274183"><ele>269.0</ele><time>2026-04-30T13:09:29.342Z</time></trkpt><trkpt lat="43.036015" lon="11.62739"><ele>269.6666666666667</ele><time>2026-04-30T13:09:30.342Z</time></trkpt><trkpt lat="43.036225" lon="11.6273567"><ele>270.3333333333333</ele><time>2026-04-30T13:09:31.341Z</time></trkpt><trkpt lat="43.036435" lon="11.6273217"><ele>271.0</ele><time>2026-04-30T13:09:32.341Z</time></trkpt><trkpt lat="43.0366467" lon="11.6272883"><ele>269.3333333333333</ele><time>2026-04-30T13:09:33.342Z</time></trkpt><trkpt lat="43.0368517" lon="11.6272533"><ele>267.6666666666667</ele><time>2026-04-30T13:09:34.342Z</time></trkpt><trkpt lat="43.03706" lon="11.6272117"><ele>266.0</ele><time>2026-04-30T13:09:35.342Z</time></trkpt><trkpt lat="43.03729" lon="11.6271783"><ele>265.6666666666667</ele><time>2026-04-30T13:09:36.342Z</time></trkpt><trkpt lat="43.0375117" lon="11.6271417"><ele>265.3333333333333</ele><time>2026-04-30T13:09:37.342Z</time></trkpt><trkpt lat="43.03773" lon="11.627105"><ele>265.0</ele><time>2026-04-30T13:09:38.342Z</time></trkpt><trkpt lat="43.0379433" lon="11.6270667"><ele>265.0</ele><time>2026-04-30T13:09:39.341Z</time></trkpt><trkpt lat="43.0381583" lon="11.62703"><ele>265.0</ele><time>2026-04-30T13:09:40.342Z</time></trkpt><trkpt lat="43.0383683" lon="11.626995"><ele>265.0</ele><time>2026-04-30T13:09:41.342Z</time></trkpt><trkpt lat="43.0385767" lon="11.6269633"><ele>267.66666666666663</ele><time>2026-04-30T13:09:42.342Z</time></trkpt><trkpt lat="43.038785" lon="11.6269367"><ele>270.3333333333333</ele><time>2026-04-30T13:09:43.342Z</time></trkpt><trkpt lat="43.0389933" lon="11.6269167"><ele>273.0</ele><time>2026-04-30T13:09:44.341Z</time></trkpt><trkpt lat="43.0392067" lon="11.62691"><ele>273.0</ele><time>2026-04-30T13:09:45.342Z</time></trkpt><trkpt lat="43.0394233" lon="11.626905"><ele>273.0</ele><time>2026-04-30T13:09:46.341Z</time></trkpt><trkpt lat="43.0396417" lon="11.626905"><ele>273.0</ele><time>2026-04-30T13:09:47.342Z</time></trkpt><trkpt lat="43.03986" lon="11.626905"><ele>272.3333333333333</ele><time>2026-04-30T13:09:48.342Z</time></trkpt><trkpt lat="43.0400833" lon="11.6268983"><ele>271.66666666666663</ele><time>2026-04-30T13:09:49.342Z</time></trkpt><trkpt lat="43.0402967" lon="11.6268767"><ele>271.0</ele><time>2026-04-30T13:09:50.341Z</time></trkpt><trkpt lat="43.0404933" lon="11.6268333"><ele>271.0</ele><time>2026-04-30T13:09:51.342Z</time></trkpt><trkpt lat="43.04071" lon="11.62678"><ele>271.0</ele><time>2026-04-30T13:09:52.341Z</time></trkpt><trkpt lat="43.040915" lon="11.6267367"><ele>271.0</ele><time>2026-04-30T13:09:53.342Z</time></trkpt><trkpt lat="43.0411033" lon="11.6266917"><ele>270.66666666666663</ele><time>2026-04-30T13:09:54.342Z</time></trkpt><trkpt lat="43.041295" lon="11.6266533"><ele>270.3333333333333</ele><time>2026-04-30T13:09:55.341Z</time></trkpt><trkpt lat="43.0414767" lon="11.6265967"><ele>270.0</ele><time>2026-04-30T13:09:56.342Z</time></trkpt><trkpt lat="43.0416583" lon="11.6265167"><ele>270.0</ele><time>2026-04-30T13:09:57.341Z</time></trkpt><trkpt lat="43.0418383" lon="11.6264217"><ele>270.0</ele><time>2026-04-30T13:09:58.342Z</time></trkpt><trkpt lat="43.042025" lon="11.62633"><ele>270.0</ele><time>2026-04-30T13:09:59.341Z</time></trkpt><trkpt lat="43.04222" lon="11.6262317"><ele>271.3333333333333</ele><time>2026-04-30T13:10:00.342Z</time></trkpt><trkpt lat="43.0424117" lon="11.6261383"><ele>272.66666666666663</ele><time>2026-04-30T13:10:01.342Z</time></trkpt><trkpt lat="43.0426" lon="11.6260367"><ele>274.0</ele><time>2026-04-30T13:10:02.341Z</time></trkpt><trkpt lat="43.04279" lon="11.6259283"><ele>274.0</ele><time>2026-04-30T13:10:03.342Z</time></trkpt><trkpt lat="43.0429733" lon="11.625835"><ele>274.0</ele><time>2026-04-30T13:10:04.342Z</time></trkpt><trkpt lat="43.043155" lon="11.62574"><ele>274.0</ele><time>2026-04-30T13:10:05.342Z</time></trkpt><trkpt lat="43.043325" lon="11.6256567"><ele>274.0</ele><time>2026-04-30T13:10:06.342Z</time></trkpt><trkpt lat="43.0434817" lon="11.6255783"><ele>274.0</ele><time>2026-04-30T13:10:07.341Z</time></trkpt><trkpt lat="43.0436333" lon="11.625495"><ele>274.0</ele><time>2026-04-30T13:10:08.341Z</time></trkpt><trkpt lat="43.0437833" lon="11.6254117"><ele>274.0</ele><time>2026-04-30T13:10:09.342Z</time></trkpt><trkpt lat="43.0439333" lon="11.625325"><ele>274.0</ele><time>2026-04-30T13:10:10.342Z</time></trkpt><trkpt lat="43.0440967" lon="11.6252483"><ele>274.0</ele><time>2026-04-30T13:10:11.342Z</time></trkpt><trkpt lat="43.0442633" lon="11.6251817"><ele>275.66666666666663</ele><time>2026-04-30T13:10:12.342Z</time></trkpt><trkpt lat="43.04444" lon="11.6251267"><ele>277.3333333333333</ele><time>2026-04-30T13:10:13.341Z</time></trkpt><trkpt lat="43.04462" lon="11.625095"><ele>279.0</ele><time>2026-04-30T13:10:14.342Z</time></trkpt><trkpt lat="43.0448" lon="11.625075"><ele>278.6666666666667</ele><time>2026-04-30T13:10:15.341Z</time></trkpt><trkpt lat="43.04499" lon="11.6250617"><ele>278.33333333333337</ele><time>2026-04-30T13:10:16.342Z</time></trkpt><trkpt lat="43.0451717" lon="11.6250567"><ele>278.0</ele><time>2026-04-30T13:10:17.341Z</time></trkpt><trkpt lat="43.0453617" lon="11.6250617"><ele>278.0</ele><time>2026-04-30T13:10:18.342Z</time></trkpt><trkpt lat="43.0455567" lon="11.6250783"><ele>278.0</ele><time>2026-04-30T13:10:19.342Z</time></trkpt><trkpt lat="43.045745" lon="11.6251117"><ele>278.0</ele><time>2026-04-30T13:10:20.341Z</time></trkpt><trkpt lat="43.0459233" lon="11.6251733"><ele>278.33333333333337</ele><time>2026-04-30T13:10:21.342Z</time></trkpt><trkpt lat="43.0461033" lon="11.6252717"><ele>278.6666666666667</ele><time>2026-04-30T13:10:22.342Z</time></trkpt><trkpt lat="43.04628" lon="11.625365"><ele>279.0</ele><time>2026-04-30T13:10:23.342Z</time></trkpt><trkpt lat="43.0464567" lon="11.6254333"><ele>278.3333333333333</ele><time>2026-04-30T13:10:24.342Z</time></trkpt><trkpt lat="43.0466433" lon="11.6254783"><ele>277.66666666666663</ele><time>2026-04-30T13:10:25.342Z</time></trkpt><trkpt lat="43.0468367" lon="11.625505"><ele>277.0</ele><time>2026-04-30T13:10:26.341Z</time></trkpt><trkpt lat="43.0470333" lon="11.6255183"><ele>277.0</ele><time>2026-04-30T13:10:27.342Z</time></trkpt><trkpt lat="43.0472217" lon="11.625525"><ele>277.0</ele><time>2026-04-30T13:10:28.341Z</time></trkpt><trkpt lat="43.0474067" lon="11.6255333"><ele>277.0</ele><time>2026-04-30T13:10:29.341Z</time></trkpt><trkpt lat="43.0475933" lon="11.6255383"><ele>277.66666666666663</ele><time>2026-04-30T13:10:30.342Z</time></trkpt><trkpt lat="43.0477583" lon="11.6255317"><ele>278.3333333333333</ele><time>2026-04-30T13:10:31.342Z</time></trkpt><trkpt lat="43.0479133" lon="11.6255017"><ele>279.0</ele><time>2026-04-30T13:10:32.342Z</time></trkpt><trkpt lat="43.0480417" lon="11.6254267"><ele>280.6666666666667</ele><time>2026-04-30T13:10:33.342Z</time></trkpt><trkpt lat="43.04816" lon="11.62531"><ele>282.33333333333337</ele><time>2026-04-30T13:10:34.342Z</time></trkpt><trkpt lat="43.048265" lon="11.625155"><ele>284.0</ele><time>2026-04-30T13:10:35.341Z</time></trkpt><trkpt lat="43.0483583" lon="11.624985"><ele>284.6666666666667</ele><time>2026-04-30T13:10:36.341Z</time></trkpt><trkpt lat="43.0484433" lon="11.624795"><ele>285.3333333333333</ele><time>2026-04-30T13:10:37.342Z</time></trkpt><trkpt lat="43.048525" lon="11.6246133"><ele>286.0</ele><time>2026-04-30T13:10:38.342Z</time></trkpt><trkpt lat="43.04862" lon="11.6244433"><ele>287.75</ele><time>2026-04-30T13:10:39.341Z</time></trkpt><trkpt lat="43.0487067" lon="11.6242817"><ele>289.5</ele><time>2026-04-30T13:10:40.341Z</time></trkpt><trkpt lat="43.0487783" lon="11.6241083"><ele>291.25</ele><time>2026-04-30T13:10:41.342Z</time></trkpt><trkpt lat="43.0488633" lon="11.62394"><ele>293.0</ele><time>2026-04-30T13:10:42.341Z</time></trkpt><trkpt lat="43.0489317" lon="11.6237683"><ele>292.25</ele><time>2026-04-30T13:10:43.341Z</time></trkpt><trkpt lat="43.0490067" lon="11.6236067"><ele>291.5</ele><time>2026-04-30T13:10:44.342Z</time></trkpt><trkpt lat="43.0490733" lon="11.6234367"><ele>290.75</ele><time>2026-04-30T13:10:45.342Z</time></trkpt><trkpt lat="43.04914" lon="11.6232767"><ele>290.0</ele><time>2026-04-30T13:10:46.342Z</time></trkpt><trkpt lat="43.0491967" lon="11.6231233"><ele>290.0</ele><time>2026-04-30T13:10:47.342Z</time></trkpt><trkpt lat="43.049245" lon="11.6229783"><ele>290.0</ele><time>2026-04-30T13:10:48.342Z</time></trkpt><trkpt lat="43.0492967" lon="11.6228367"><ele>290.0</ele><time>2026-04-30T13:10:49.342Z</time></trkpt><trkpt lat="43.0493433" lon="11.6226883"><ele>290.0</ele><time>2026-04-30T13:10:50.342Z</time></trkpt><trkpt lat="43.0493867" lon="11.62253"><ele>291.0</ele><time>2026-04-30T13:10:51.341Z</time></trkpt><trkpt lat="43.0494317" lon="11.62236"><ele>292.0</ele><time>2026-04-30T13:10:52.342Z</time></trkpt><trkpt lat="43.049475" lon="11.62218"><ele>293.0</ele><time>2026-04-30T13:10:53.342Z</time></trkpt><trkpt lat="43.0495133" lon="11.6219817"><ele>294.0</ele><time>2026-04-30T13:10:54.342Z</time></trkpt><trkpt lat="43.0495417" lon="11.62177"><ele>295.3333333333333</ele><time>2026-04-30T13:10:55.342Z</time></trkpt><trkpt lat="43.0495633" lon="11.6215567"><ele>296.66666666666663</ele><time>2026-04-30T13:10:56.342Z</time></trkpt><trkpt lat="43.0495783" lon="11.6213267"><ele>298.0</ele><time>2026-04-30T13:10:57.342Z</time></trkpt><trkpt lat="43.0495867" lon="11.62109"><ele>299.0</ele><time>2026-04-30T13:10:58.342Z</time></trkpt><trkpt lat="43.049575" lon="11.62082"><ele>300.0</ele><time>2026-04-30T13:10:59.341Z</time></trkpt><trkpt lat="43.0495517" lon="11.6205467"><ele>301.0</ele><time>2026-04-30T13:11:00.342Z</time></trkpt><trkpt lat="43.049525" lon="11.6202633"><ele>301.0</ele><time>2026-04-30T13:11:01.342Z</time></trkpt><trkpt lat="43.0494983" lon="11.61997"><ele>301.0</ele><time>2026-04-30T13:11:02.342Z</time></trkpt><trkpt lat="43.049475" lon="11.6196767"><ele>301.0</ele><time>2026-04-30T13:11:03.342Z</time></trkpt><trkpt lat="43.0494433" lon="11.6193867"><ele>301.66666666666663</ele><time>2026-04-30T13:11:04.342Z</time></trkpt><trkpt lat="43.0494183" lon="11.6191017"><ele>302.3333333333333</ele><time>2026-04-30T13:11:05.341Z</time></trkpt><trkpt lat="43.0493983" lon="11.61882"><ele>303.0</ele><time>2026-04-30T13:11:06.342Z</time></trkpt><trkpt lat="43.0493783" lon="11.6185333"><ele>304.0</ele><time>2026-04-30T13:11:07.342Z</time></trkpt><trkpt lat="43.0493533" lon="11.6182483"><ele>305.0</ele><time>2026-04-30T13:11:08.342Z</time></trkpt><trkpt lat="43.0493217" lon="11.6179633"><ele>306.0</ele><time>2026-04-30T13:11:09.342Z</time></trkpt><trkpt lat="43.0492967" lon="11.617685"><ele>307.3333333333333</ele><time>2026-04-30T13:11:10.342Z</time></trkpt><trkpt lat="43.04927" lon="11.6174183"><ele>308.66666666666663</ele><time>2026-04-30T13:11:11.342Z</time></trkpt><trkpt lat="43.0492433" lon="11.617155"><ele>310.0</ele><time>2026-04-30T13:11:12.341Z</time></trkpt><trkpt lat="43.0492217" lon="11.6168933"><ele>309.66666666666663</ele><time>2026-04-30T13:11:13.342Z</time></trkpt><trkpt lat="43.049205" lon="11.6166467"><ele>309.3333333333333</ele><time>2026-04-30T13:11:14.342Z</time></trkpt><trkpt lat="43.0491833" lon="11.616395"><ele>309.0</ele><time>2026-04-30T13:11:15.341Z</time></trkpt><trkpt lat="43.0491483" lon="11.6161417"><ele>312.3333333333333</ele><time>2026-04-30T13:11:16.342Z</time></trkpt><trkpt lat="43.0490933" lon="11.6158817"><ele>315.66666666666663</ele><time>2026-04-30T13:11:17.341Z</time></trkpt><trkpt lat="43.0490433" lon="11.6156317"><ele>319.0</ele><time>2026-04-30T13:11:18.341Z</time></trkpt><trkpt lat="43.0489717" lon="11.6153867"><ele>319.3333333333333</ele><time>2026-04-30T13:11:19.342Z</time></trkpt><trkpt lat="43.0488983" lon="11.6151267"><ele>319.6666666666667</ele><time>2026-04-30T13:11:20.342Z</time></trkpt><trkpt lat="43.0488083" lon="11.6148533"><ele>320.0</ele><time>2026-04-30T13:11:21.341Z</time></trkpt><trkpt lat="43.0487233" lon="11.614585"><ele>321.0</ele><time>2026-04-30T13:11:22.342Z</time></trkpt><trkpt lat="43.0486417" lon="11.614335"><ele>322.0</ele><time>2026-04-30T13:11:23.342Z</time></trkpt><trkpt lat="43.0485617" lon="11.614085"><ele>323.0</ele><time>2026-04-30T13:11:24.342Z</time></trkpt><trkpt lat="43.0484717" lon="11.6138283"><ele>323.6666666666667</ele><time>2026-04-30T13:11:25.342Z</time></trkpt><trkpt lat="43.0483917" lon="11.6135833"><ele>324.3333333333333</ele><time>2026-04-30T13:11:26.341Z</time></trkpt><trkpt lat="43.0483117" lon="11.613345"><ele>325.0</ele><time>2026-04-30T13:11:27.341Z</time></trkpt><trkpt lat="43.0482433" lon="11.6131183"><ele>327.3333333333333</ele><time>2026-04-30T13:11:28.342Z</time></trkpt><trkpt lat="43.0481833" lon="11.61288"><ele>329.6666666666667</ele><time>2026-04-30T13:11:29.342Z</time></trkpt><trkpt lat="43.04815" lon="11.6126383"><ele>332.0</ele><time>2026-04-30T13:11:30.342Z</time></trkpt><trkpt lat="43.048135" lon="11.612395"><ele>333.6666666666667</ele><time>2026-04-30T13:11:31.342Z</time></trkpt><trkpt lat="43.0481483" lon="11.6121533"><ele>335.3333333333333</ele><time>2026-04-30T13:11:32.342Z</time></trkpt><trkpt lat="43.0481833" lon="11.6119283"><ele>337.0</ele><time>2026-04-30T13:11:33.342Z</time></trkpt><trkpt lat="43.0482433" lon="11.6117167"><ele>335.66666666666663</ele><time>2026-04-30T13:11:34.342Z</time></trkpt><trkpt lat="43.048325" lon="11.6115117"><ele>334.3333333333333</ele><time>2026-04-30T13:11:35.341Z</time></trkpt><trkpt lat="43.048425" lon="11.6113333"><ele>333.0</ele><time>2026-04-30T13:11:36.341Z</time></trkpt><trkpt lat="43.0485433" lon="11.61118"><ele>337.6666666666667</ele><time>2026-04-30T13:11:37.341Z</time></trkpt><trkpt lat="43.0486883" lon="11.6110533"><ele>342.33333333333337</ele><time>2026-04-30T13:11:38.341Z</time></trkpt><trkpt lat="43.0488467" lon="11.610955"><ele>347.0</ele><time>2026-04-30T13:11:39.341Z</time></trkpt><trkpt lat="43.0490133" lon="11.6109033"><ele>346.0</ele><time>2026-04-30T13:11:40.341Z</time></trkpt><trkpt lat="43.0491783" lon="11.61087"><ele>345.0</ele><time>2026-04-30T13:11:41.341Z</time></trkpt><trkpt lat="43.0493417" lon="11.6108533"><ele>344.0</ele><time>2026-04-30T13:11:42.341Z</time></trkpt><trkpt lat="43.0494967" lon="11.6108267"><ele>344.0</ele><time>2026-04-30T13:11:43.34Z</time></trkpt><trkpt lat="43.0496433" lon="11.610795"><ele>344.0</ele><time>2026-04-30T13:11:44.341Z</time></trkpt><trkpt lat="43.0497767" lon="11.6107383"><ele>344.0</ele><time>2026-04-30T13:11:45.341Z</time></trkpt><trkpt lat="43.0499233" lon="11.6106683"><ele>344.0</ele><time>2026-04-30T13:11:46.341Z</time></trkpt><trkpt lat="43.0500717" lon="11.6105633"><ele>343.33333333333337</ele><time>2026-04-30T13:11:47.341Z</time></trkpt><trkpt lat="43.05023" lon="11.6104483"><ele>342.6666666666667</ele><time>2026-04-30T13:11:48.341Z</time></trkpt><trkpt lat="43.05038" lon="11.6103283"><ele>342.0</ele><time>2026-04-30T13:11:49.341Z</time></trkpt><trkpt lat="43.05053" lon="11.6101833"><ele>343.0</ele><time>2026-04-30T13:11:50.341Z</time></trkpt><trkpt lat="43.050675" lon="11.6100467"><ele>344.0</ele><time>2026-04-30T13:11:51.34Z</time></trkpt><trkpt lat="43.050815" lon="11.6099217"><ele>345.0</ele><time>2026-04-30T13:11:52.341Z</time></trkpt><trkpt lat="43.0509267" lon="11.609815"><ele>345.0</ele><time>2026-04-30T13:11:53.34Z</time></trkpt><trkpt lat="43.0509917" lon="11.609745"><ele>345.0</ele><time>2026-04-30T13:11:54.34Z</time></trkpt><trkpt lat="43.0510667" lon="11.6096683"><ele>345.0</ele><time>2026-04-30T13:11:56.341Z</time></trkpt><trkpt lat="43.0511367" lon="11.6096033"><ele>345.0</ele><time>2026-04-30T13:11:58.341Z</time></trkpt><trkpt lat="43.05123" lon="11.6095333"><ele>345.0</ele><time>2026-04-30T13:12:00.341Z</time></trkpt><trkpt lat="43.0513" lon="11.609485"><ele>345.0</ele><time>2026-04-30T13:12:01.34Z</time></trkpt><trkpt lat="43.051385" lon="11.60942"><ele>347.5</ele><time>2026-04-30T13:12:02.341Z</time></trkpt><trkpt lat="43.0514833" lon="11.60936"><ele>350.0</ele><time>2026-04-30T13:12:03.341Z</time></trkpt><trkpt lat="43.0515917" lon="11.6092883"><ele>352.5</ele><time>2026-04-30T13:12:04.341Z</time></trkpt><trkpt lat="43.0516933" lon="11.60922"><ele>355.0</ele><time>2026-04-30T13:12:05.34Z</time></trkpt><trkpt lat="43.0517967" lon="11.609155"><ele>355.0</ele><time>2026-04-30T13:12:06.341Z</time></trkpt><trkpt lat="43.0518917" lon="11.6090967"><ele>355.0</ele><time>2026-04-30T13:12:07.341Z</time></trkpt><trkpt lat="43.0519767" lon="11.6090433"><ele>355.0</ele><time>2026-04-30T13:12:08.341Z</time></trkpt><trkpt lat="43.0520533" lon="11.60899"><ele>355.0</ele><time>2026-04-30T13:12:09.341Z</time></trkpt><trkpt lat="43.052135" lon="11.60895"><ele>355.0</ele><time>2026-04-30T13:12:10.34Z</time></trkpt><trkpt lat="43.0522133" lon="11.6089017"><ele>355.0</ele><time>2026-04-30T13:12:11.341Z</time></trkpt><trkpt lat="43.0523" lon="11.6088533"><ele>355.0</ele><time>2026-04-30T13:12:12.341Z</time></trkpt><trkpt lat="43.0523867" lon="11.6088017"><ele>355.0</ele><time>2026-04-30T13:12:13.34Z</time></trkpt><trkpt lat="43.0524833" lon="11.6087433"><ele>355.0</ele><time>2026-04-30T13:12:14.341Z</time></trkpt><trkpt lat="43.0525833" lon="11.60868"><ele>355.0</ele><time>2026-04-30T13:12:15.34Z</time></trkpt><trkpt lat="43.052695" lon="11.6086167"><ele>355.6</ele><time>2026-04-30T13:12:16.341Z</time></trkpt><trkpt lat="43.05281" lon="11.608555"><ele>356.2</ele><time>2026-04-30T13:12:17.341Z</time></trkpt><trkpt lat="43.0529133" lon="11.6084933"><ele>356.79999999999995</ele><time>2026-04-30T13:12:18.341Z</time></trkpt><trkpt lat="43.0529983" lon="11.6084383"><ele>357.4</ele><time>2026-04-30T13:12:19.341Z</time></trkpt><trkpt lat="43.0530817" lon="11.608395"><ele>358.0</ele><time>2026-04-30T13:12:20.341Z</time></trkpt><trkpt lat="43.0531667" lon="11.6083533"><ele>358.0</ele><time>2026-04-30T13:12:21.341Z</time></trkpt><trkpt lat="43.0532533" lon="11.608325"><ele>358.0</ele><time>2026-04-30T13:12:22.341Z</time></trkpt><trkpt lat="43.05334" lon="11.6083017"><ele>358.0</ele><time>2026-04-30T13:12:23.341Z</time></trkpt><trkpt lat="43.05342" lon="11.6082817"><ele>358.0</ele><time>2026-04-30T13:12:24.341Z</time></trkpt><trkpt lat="43.0534983" lon="11.608285"><ele>358.0</ele><time>2026-04-30T13:12:25.341Z</time></trkpt><trkpt lat="43.05358" lon="11.608305"><ele>358.0</ele><time>2026-04-30T13:12:26.341Z</time></trkpt><trkpt lat="43.053665" lon="11.6083233"><ele>359.5</ele><time>2026-04-30T13:12:27.341Z</time></trkpt><trkpt lat="43.053755" lon="11.6083667"><ele>361.0</ele><time>2026-04-30T13:12:28.341Z</time></trkpt><trkpt lat="43.0538667" lon="11.608465"><ele>362.5</ele><time>2026-04-30T13:12:29.34Z</time></trkpt><trkpt lat="43.0539767" lon="11.6085417"><ele>364.0</ele><time>2026-04-30T13:12:30.341Z</time></trkpt><trkpt lat="43.0540833" lon="11.6086267"><ele>363.75</ele><time>2026-04-30T13:12:31.341Z</time></trkpt><trkpt lat="43.05418" lon="11.6087167"><ele>363.5</ele><time>2026-04-30T13:12:32.341Z</time></trkpt><trkpt lat="43.0542833" lon="11.6088083"><ele>363.25</ele><time>2026-04-30T13:12:33.341Z</time></trkpt><trkpt lat="43.05438" lon="11.60889"><ele>363.0</ele><time>2026-04-30T13:12:34.34Z</time></trkpt><trkpt lat="43.0544717" lon="11.60897"><ele>363.0</ele><time>2026-04-30T13:12:35.341Z</time></trkpt><trkpt lat="43.0545717" lon="11.6090567"><ele>363.0</ele><time>2026-04-30T13:12:36.34Z</time></trkpt><trkpt lat="43.0546767" lon="11.6091367"><ele>363.0</ele><time>2026-04-30T13:12:37.34Z</time></trkpt><trkpt lat="43.05479" lon="11.6092217"><ele>363.0</ele><time>2026-04-30T13:12:38.341Z</time></trkpt><trkpt lat="43.0549017" lon="11.6093117"><ele>364.25</ele><time>2026-04-30T13:12:39.341Z</time></trkpt><trkpt lat="43.05502" lon="11.6094067"><ele>365.5</ele><time>2026-04-30T13:12:40.34Z</time></trkpt><trkpt lat="43.0551417" lon="11.6095083"><ele>366.75</ele><time>2026-04-30T13:12:41.341Z</time></trkpt><trkpt lat="43.0552583" lon="11.609615"><ele>368.0</ele><time>2026-04-30T13:12:42.341Z</time></trkpt><trkpt lat="43.05538" lon="11.6097233"><ele>368.0</ele><time>2026-04-30T13:12:43.341Z</time></trkpt><trkpt lat="43.0554967" lon="11.6098233"><ele>368.0</ele><time>2026-04-30T13:12:44.341Z</time></trkpt><trkpt lat="43.0556083" lon="11.6099217"><ele>368.0</ele><time>2026-04-30T13:12:45.341Z</time></trkpt><trkpt lat="43.055725" lon="11.6100283"><ele>368.0</ele><time>2026-04-30T13:12:46.341Z</time></trkpt><trkpt lat="43.055845" lon="11.610115"><ele>369.0</ele><time>2026-04-30T13:12:47.341Z</time></trkpt><trkpt lat="43.0559567" lon="11.61021"><ele>370.0</ele><time>2026-04-30T13:12:48.341Z</time></trkpt><trkpt lat="43.056075" lon="11.610305"><ele>371.0</ele><time>2026-04-30T13:12:49.34Z</time></trkpt><trkpt lat="43.056195" lon="11.6103983"><ele>372.0</ele><time>2026-04-30T13:12:50.34Z</time></trkpt><trkpt lat="43.05631" lon="11.6104917"><ele>372.0</ele><time>2026-04-30T13:12:51.341Z</time></trkpt><trkpt lat="43.05642" lon="11.61059"><ele>372.0</ele><time>2026-04-30T13:12:52.341Z</time></trkpt><trkpt lat="43.056535" lon="11.6106867"><ele>372.0</ele><time>2026-04-30T13:12:53.341Z</time></trkpt><trkpt lat="43.05664" lon="11.6107783"><ele>372.0</ele><time>2026-04-30T13:12:54.34Z</time></trkpt><trkpt lat="43.0567483" lon="11.6108717"><ele>372.5</ele><time>2026-04-30T13:12:55.34Z</time></trkpt><trkpt lat="43.0568567" lon="11.6109483"><ele>373.0</ele><time>2026-04-30T13:12:56.341Z</time></trkpt><trkpt lat="43.056975" lon="11.6109983"><ele>373.5</ele><time>2026-04-30T13:12:57.341Z</time></trkpt><trkpt lat="43.0570917" lon="11.6110433"><ele>374.0</ele><time>2026-04-30T13:12:58.341Z</time></trkpt><trkpt lat="43.0572083" lon="11.6110633"><ele>374.0</ele><time>2026-04-30T13:12:59.341Z</time></trkpt><trkpt lat="43.0573283" lon="11.6110717"><ele>374.0</ele><time>2026-04-30T13:13:00.341Z</time></trkpt><trkpt lat="43.05745" lon="11.6110617"><ele>374.0</ele><time>2026-04-30T13:13:01.341Z</time></trkpt><trkpt lat="43.05757" lon="11.6110317"><ele>374.0</ele><time>2026-04-30T13:13:02.34Z</time></trkpt><trkpt lat="43.0576817" lon="11.6109817"><ele>375.0</ele><time>2026-04-30T13:13:03.341Z</time></trkpt><trkpt lat="43.05779" lon="11.6109067"><ele>376.0</ele><time>2026-04-30T13:13:04.341Z</time></trkpt><trkpt lat="43.0579017" lon="11.6108233"><ele>377.0</ele><time>2026-04-30T13:13:05.341Z</time></trkpt><trkpt lat="43.0580033" lon="11.6107283"><ele>378.0</ele><time>2026-04-30T13:13:06.341Z</time></trkpt><trkpt lat="43.058095" lon="11.6106117"><ele>378.0</ele><time>2026-04-30T13:13:07.34Z</time></trkpt><trkpt lat="43.0581833" lon="11.61048"><ele>378.0</ele><time>2026-04-30T13:13:08.341Z</time></trkpt><trkpt lat="43.0582617" lon="11.610335"><ele>378.0</ele><time>2026-04-30T13:13:09.341Z</time></trkpt><trkpt lat="43.0583417" lon="11.6102033"><ele>378.0</ele><time>2026-04-30T13:13:10.341Z</time></trkpt><trkpt lat="43.058425" lon="11.61007"><ele>380.25</ele><time>2026-04-30T13:13:11.341Z</time></trkpt><trkpt lat="43.0585017" lon="11.60992"><ele>382.5</ele><time>2026-04-30T13:13:12.34Z</time></trkpt><trkpt lat="43.05859" lon="11.609775"><ele>384.75</ele><time>2026-04-30T13:13:13.341Z</time></trkpt><trkpt lat="43.0586767" lon="11.6096333"><ele>387.0</ele><time>2026-04-30T13:13:14.341Z</time></trkpt><trkpt lat="43.0587583" lon="11.6094967"><ele>387.25</ele><time>2026-04-30T13:13:15.341Z</time></trkpt><trkpt lat="43.0588467" lon="11.6093583"><ele>387.5</ele><time>2026-04-30T13:13:16.341Z</time></trkpt><trkpt lat="43.058935" lon="11.6092117"><ele>387.75</ele><time>2026-04-30T13:13:17.341Z</time></trkpt><trkpt lat="43.0590233" lon="11.609075"><ele>388.0</ele><time>2026-04-30T13:13:18.341Z</time></trkpt><trkpt lat="43.0591183" lon="11.608935"><ele>388.0</ele><time>2026-04-30T13:13:19.34Z</time></trkpt><trkpt lat="43.05921" lon="11.6087933"><ele>388.0</ele><time>2026-04-30T13:13:20.341Z</time></trkpt><trkpt lat="43.0592917" lon="11.6086467"><ele>388.0</ele><time>2026-04-30T13:13:21.34Z</time></trkpt><trkpt lat="43.0593733" lon="11.6084967"><ele>388.0</ele><time>2026-04-30T13:13:22.341Z</time></trkpt><trkpt lat="43.0594667" lon="11.60835"><ele>390.25</ele><time>2026-04-30T13:13:23.341Z</time></trkpt><trkpt lat="43.0595533" lon="11.6082033"><ele>392.5</ele><time>2026-04-30T13:13:24.341Z</time></trkpt><trkpt lat="43.0596517" lon="11.6080567"><ele>394.75</ele><time>2026-04-30T13:13:25.34Z</time></trkpt><trkpt lat="43.059745" lon="11.607915"><ele>397.0</ele><time>2026-04-30T13:13:26.341Z</time></trkpt><trkpt lat="43.05983" lon="11.607775"><ele>397.25</ele><time>2026-04-30T13:13:27.341Z</time></trkpt><trkpt lat="43.0599133" lon="11.607635"><ele>397.5</ele><time>2026-04-30T13:13:28.341Z</time></trkpt><trkpt lat="43.0599983" lon="11.60749"><ele>397.75</ele><time>2026-04-30T13:13:29.34Z</time></trkpt><trkpt lat="43.0600867" lon="11.6073433"><ele>398.0</ele><time>2026-04-30T13:13:30.341Z</time></trkpt><trkpt lat="43.0601817" lon="11.607195"><ele>398.0</ele><time>2026-04-30T13:13:31.34Z</time></trkpt><trkpt lat="43.0602767" lon="11.6070433"><ele>398.0</ele><time>2026-04-30T13:13:32.341Z</time></trkpt><trkpt lat="43.06037" lon="11.606895"><ele>398.0</ele><time>2026-04-30T13:13:33.341Z</time></trkpt><trkpt lat="43.0604617" lon="11.60675"><ele>398.0</ele><time>2026-04-30T13:13:34.341Z</time></trkpt><trkpt lat="43.0605483" lon="11.60661"><ele>398.0</ele><time>2026-04-30T13:13:35.341Z</time></trkpt><trkpt lat="43.0606367" lon="11.60646"><ele>398.0</ele><time>2026-04-30T13:13:36.341Z</time></trkpt><trkpt lat="43.0607267" lon="11.60631"><ele>398.0</ele><time>2026-04-30T13:13:37.341Z</time></trkpt><trkpt lat="43.0608117" lon="11.6061617"><ele>398.0</ele><time>2026-04-30T13:13:38.34Z</time></trkpt><trkpt lat="43.0608883" lon="11.60602"><ele>399.25</ele><time>2026-04-30T13:13:39.341Z</time></trkpt><trkpt lat="43.06097" lon="11.6058817"><ele>400.5</ele><time>2026-04-30T13:13:40.341Z</time></trkpt><trkpt lat="43.0610567" lon="11.6057467"><ele>401.75</ele><time>2026-04-30T13:13:41.341Z</time></trkpt><trkpt lat="43.0611633" lon="11.60563"><ele>403.0</ele><time>2026-04-30T13:13:42.341Z</time></trkpt><trkpt lat="43.0612367" lon="11.6055083"><ele>403.0</ele><time>2026-04-30T13:13:43.341Z</time></trkpt><trkpt lat="43.06131" lon="11.605365"><ele>403.0</ele><time>2026-04-30T13:13:44.34Z</time></trkpt><trkpt lat="43.0613667" lon="11.6051867"><ele>403.0</ele><time>2026-04-30T13:13:45.34Z</time></trkpt><trkpt lat="43.0614117" lon="11.605015"><ele>403.0</ele><time>2026-04-30T13:13:46.341Z</time></trkpt><trkpt lat="43.0614517" lon="11.6048333"><ele>404.5</ele><time>2026-04-30T13:13:47.341Z</time></trkpt><trkpt lat="43.0614883" lon="11.6046533"><ele>406.0</ele><time>2026-04-30T13:13:48.341Z</time></trkpt><trkpt lat="43.061515" lon="11.6044783"><ele>407.5</ele><time>2026-04-30T13:13:49.341Z</time></trkpt><trkpt lat="43.061545" lon="11.6043017"><ele>409.0</ele><time>2026-04-30T13:13:50.34Z</time></trkpt><trkpt lat="43.0615617" lon="11.6041317"><ele>409.0</ele><time>2026-04-30T13:13:51.341Z</time></trkpt><trkpt lat="43.06157" lon="11.6039567"><ele>409.0</ele><time>2026-04-30T13:13:52.341Z</time></trkpt><trkpt lat="43.06157" lon="11.6037783"><ele>409.0</ele><time>2026-04-30T13:13:53.341Z</time></trkpt><trkpt lat="43.0615667" lon="11.603595"><ele>409.0</ele><time>2026-04-30T13:13:54.341Z</time></trkpt><trkpt lat="43.061555" lon="11.6034067"><ele>408.75</ele><time>2026-04-30T13:13:55.341Z</time></trkpt><trkpt lat="43.061545" lon="11.6032133"><ele>408.5</ele><time>2026-04-30T13:13:56.341Z</time></trkpt><trkpt lat="43.0615383" lon="11.6030267"><ele>408.25</ele><time>2026-04-30T13:13:57.341Z</time></trkpt><trkpt lat="43.06152" lon="11.60284"><ele>408.0</ele><time>2026-04-30T13:13:58.34Z</time></trkpt><trkpt lat="43.0615033" lon="11.60264"><ele>406.25</ele><time>2026-04-30T13:13:59.341Z</time></trkpt><trkpt lat="43.061475" lon="11.602445"><ele>404.5</ele><time>2026-04-30T13:14:00.341Z</time></trkpt><trkpt lat="43.061445" lon="11.6022533"><ele>402.75</ele><time>2026-04-30T13:14:01.34Z</time></trkpt><trkpt lat="43.061405" lon="11.6020667"><ele>401.0</ele><time>2026-04-30T13:14:02.34Z</time></trkpt><trkpt lat="43.0613567" lon="11.6018783"><ele>398.3333333333333</ele><time>2026-04-30T13:14:03.341Z</time></trkpt><trkpt lat="43.0612967" lon="11.6016917"><ele>395.66666666666663</ele><time>2026-04-30T13:14:04.341Z</time></trkpt><trkpt lat="43.0612467" lon="11.6015083"><ele>393.0</ele><time>2026-04-30T13:14:05.34Z</time></trkpt><trkpt lat="43.0611717" lon="11.601315"><ele>390.0</ele><time>2026-04-30T13:14:06.341Z</time></trkpt><trkpt lat="43.0610883" lon="11.6011283"><ele>387.0</ele><time>2026-04-30T13:14:07.341Z</time></trkpt><trkpt lat="43.060995" lon="11.600955"><ele>384.0</ele><time>2026-04-30T13:14:08.341Z</time></trkpt><trkpt lat="43.0609067" lon="11.60078"><ele>384.0</ele><time>2026-04-30T13:14:09.341Z</time></trkpt><trkpt lat="43.0608133" lon="11.6005967"><ele>384.0</ele><time>2026-04-30T13:14:10.34Z</time></trkpt><trkpt lat="43.06073" lon="11.6004167"><ele>384.0</ele><time>2026-04-30T13:14:11.34Z</time></trkpt><trkpt lat="43.06065" lon="11.6002317"><ele>381.6666666666667</ele><time>2026-04-30T13:14:12.341Z</time></trkpt><trkpt lat="43.0605683" lon="11.6000367"><ele>379.33333333333337</ele><time>2026-04-30T13:14:13.341Z</time></trkpt><trkpt lat="43.06049" lon="11.59985"><ele>377.0</ele><time>2026-04-30T13:14:14.341Z</time></trkpt><trkpt lat="43.060405" lon="11.59965"><ele>373.6666666666667</ele><time>2026-04-30T13:14:15.34Z</time></trkpt><trkpt lat="43.06032" lon="11.5994433"><ele>370.3333333333333</ele><time>2026-04-30T13:14:16.341Z</time></trkpt><trkpt lat="43.06024" lon="11.5992333"><ele>367.0</ele><time>2026-04-30T13:14:17.34Z</time></trkpt><trkpt lat="43.0601767" lon="11.59902"><ele>367.0</ele><time>2026-04-30T13:14:18.341Z</time></trkpt><trkpt lat="43.06012" lon="11.598805"><ele>367.0</ele><time>2026-04-30T13:14:19.341Z</time></trkpt><trkpt lat="43.0600617" lon="11.5985767"><ele>367.0</ele><time>2026-04-30T13:14:20.341Z</time></trkpt><trkpt lat="43.060005" lon="11.5983467"><ele>365.3333333333333</ele><time>2026-04-30T13:14:21.341Z</time></trkpt><trkpt lat="43.0599567" lon="11.5981117"><ele>363.6666666666667</ele><time>2026-04-30T13:14:22.341Z</time></trkpt><trkpt lat="43.0599217" lon="11.5978683"><ele>362.0</ele><time>2026-04-30T13:14:23.34Z</time></trkpt><trkpt lat="43.0598883" lon="11.59762"><ele>368.33333333333337</ele><time>2026-04-30T13:14:24.341Z</time></trkpt><trkpt lat="43.0598683" lon="11.5973783"><ele>374.6666666666667</ele><time>2026-04-30T13:14:25.341Z</time></trkpt><trkpt lat="43.059855" lon="11.5971433"><ele>381.0</ele><time>2026-04-30T13:14:26.341Z</time></trkpt><trkpt lat="43.0598467" lon="11.596905"><ele>381.6666666666667</ele><time>2026-04-30T13:14:27.34Z</time></trkpt><trkpt lat="43.0598417" lon="11.5966717"><ele>382.33333333333337</ele><time>2026-04-30T13:14:28.341Z</time></trkpt><trkpt lat="43.05984" lon="11.5964267"><ele>383.0</ele><time>2026-04-30T13:14:29.341Z</time></trkpt><trkpt lat="43.059825" lon="11.59618"><ele>382.0</ele><time>2026-04-30T13:14:30.34Z</time></trkpt><trkpt lat="43.0598267" lon="11.5959467"><ele>381.0</ele><time>2026-04-30T13:14:31.34Z</time></trkpt><trkpt lat="43.0598217" lon="11.59571"><ele>380.0</ele><time>2026-04-30T13:14:32.34Z</time></trkpt><trkpt lat="43.0598083" lon="11.59548"><ele>379.0</ele><time>2026-04-30T13:14:33.341Z</time></trkpt><trkpt lat="43.0598117" lon="11.5952467"><ele>378.0</ele><time>2026-04-30T13:14:34.34Z</time></trkpt><trkpt lat="43.05982" lon="11.595025"><ele>377.0</ele><time>2026-04-30T13:14:35.34Z</time></trkpt><trkpt lat="43.0598333" lon="11.5948067"><ele>377.0</ele><time>2026-04-30T13:14:36.341Z</time></trkpt><trkpt lat="43.0598483" lon="11.5945933"><ele>377.0</ele><time>2026-04-30T13:14:37.341Z</time></trkpt><trkpt lat="43.0598667" lon="11.5943717"><ele>377.0</ele><time>2026-04-30T13:14:38.34Z</time></trkpt><trkpt lat="43.0598917" lon="11.59415"><ele>374.33333333333337</ele><time>2026-04-30T13:14:39.341Z</time></trkpt><trkpt lat="43.05993" lon="11.5939333"><ele>371.6666666666667</ele><time>2026-04-30T13:14:40.341Z</time></trkpt><trkpt lat="43.059965" lon="11.5937117"><ele>369.0</ele><time>2026-04-30T13:14:41.341Z</time></trkpt><trkpt lat="43.06001" lon="11.59348"><ele>363.6666666666667</ele><time>2026-04-30T13:14:42.341Z</time></trkpt><trkpt lat="43.060055" lon="11.59325"><ele>358.33333333333337</ele><time>2026-04-30T13:14:43.341Z</time></trkpt><trkpt lat="43.0601167" lon="11.5930217"><ele>353.0</ele><time>2026-04-30T13:14:44.341Z</time></trkpt><trkpt lat="43.0601767" lon="11.5927867"><ele>350.6666666666667</ele><time>2026-04-30T13:14:45.341Z</time></trkpt><trkpt lat="43.0602467" lon="11.5925733"><ele>348.3333333333333</ele><time>2026-04-30T13:14:46.34Z</time></trkpt><trkpt lat="43.0603283" lon="11.5923633"><ele>346.0</ele><time>2026-04-30T13:14:47.341Z</time></trkpt><trkpt lat="43.0604133" lon="11.5921683"><ele>345.0</ele><time>2026-04-30T13:14:48.341Z</time></trkpt><trkpt lat="43.060505" lon="11.5919683"><ele>344.0</ele><time>2026-04-30T13:14:49.341Z</time></trkpt><trkpt lat="43.0605967" lon="11.591785"><ele>343.0</ele><time>2026-04-30T13:14:50.341Z</time></trkpt><trkpt lat="43.0606917" lon="11.5915817"><ele>344.0</ele><time>2026-04-30T13:14:51.341Z</time></trkpt><trkpt lat="43.0607917" lon="11.5913833"><ele>345.0</ele><time>2026-04-30T13:14:52.34Z</time></trkpt><trkpt lat="43.060895" lon="11.5911867"><ele>346.0</ele><time>2026-04-30T13:14:53.341Z</time></trkpt><trkpt lat="43.0610033" lon="11.5909967"><ele>346.0</ele><time>2026-04-30T13:14:54.341Z</time></trkpt><trkpt lat="43.0611083" lon="11.5908083"><ele>346.0</ele><time>2026-04-30T13:14:55.341Z</time></trkpt><trkpt lat="43.06121" lon="11.5906183"><ele>346.0</ele><time>2026-04-30T13:14:56.341Z</time></trkpt><trkpt lat="43.0612867" lon="11.5904317"><ele>348.0</ele><time>2026-04-30T13:14:57.34Z</time></trkpt><trkpt lat="43.0613817" lon="11.5902417"><ele>350.0</ele><time>2026-04-30T13:14:58.341Z</time></trkpt><trkpt lat="43.0614767" lon="11.590045"><ele>352.0</ele><time>2026-04-30T13:14:59.341Z</time></trkpt><trkpt lat="43.0615767" lon="11.5898367"><ele>348.66666666666663</ele><time>2026-04-30T13:15:00.341Z</time></trkpt><trkpt lat="43.0616717" lon="11.589605"><ele>345.3333333333333</ele><time>2026-04-30T13:15:01.341Z</time></trkpt><trkpt lat="43.0617817" lon="11.5893433"><ele>342.0</ele><time>2026-04-30T13:15:02.341Z</time></trkpt><trkpt lat="43.0618933" lon="11.5890517"><ele>342.0</ele><time>2026-04-30T13:15:03.341Z</time></trkpt><trkpt lat="43.0620067" lon="11.5887483"><ele>342.0</ele><time>2026-04-30T13:15:04.341Z</time></trkpt><trkpt lat="43.06212" lon="11.5884483"><ele>341.0</ele><time>2026-04-30T13:15:05.341Z</time></trkpt><trkpt lat="43.0622333" lon="11.5881383"><ele>340.0</ele><time>2026-04-30T13:15:06.34Z</time></trkpt><trkpt lat="43.0623417" lon="11.5878333"><ele>332.5</ele><time>2026-04-30T13:15:07.341Z</time></trkpt><trkpt lat="43.0624483" lon="11.5875367"><ele>325.0</ele><time>2026-04-30T13:15:08.34Z</time></trkpt><trkpt lat="43.0625517" lon="11.5872567"><ele>326.0</ele><time>2026-04-30T13:15:09.341Z</time></trkpt><trkpt lat="43.06268" lon="11.5869817"><ele>327.0</ele><time>2026-04-30T13:15:10.341Z</time></trkpt><trkpt lat="43.06282" lon="11.5867267"><ele>327.0</ele><time>2026-04-30T13:15:11.341Z</time></trkpt><trkpt lat="43.0629617" lon="11.586475"><ele>327.0</ele><time>2026-04-30T13:15:12.341Z</time></trkpt><trkpt lat="43.063125" lon="11.5862367"><ele>323.5</ele><time>2026-04-30T13:15:13.341Z</time></trkpt><trkpt lat="43.0632883" lon="11.586"><ele>320.0</ele><time>2026-04-30T13:15:14.341Z</time></trkpt><trkpt lat="43.0634717" lon="11.5857783"><ele>320.0</ele><time>2026-04-30T13:15:15.341Z</time></trkpt><trkpt lat="43.0636567" lon="11.5855633"><ele>320.0</ele><time>2026-04-30T13:15:16.341Z</time></trkpt><trkpt lat="43.063855" lon="11.585375"><ele>320.0</ele><time>2026-04-30T13:15:17.341Z</time></trkpt><trkpt lat="43.0640633" lon="11.5852017"><ele>320.0</ele><time>2026-04-30T13:15:18.34Z</time></trkpt><trkpt lat="43.0642817" lon="11.5850433"><ele>320.0</ele><time>2026-04-30T13:15:19.341Z</time></trkpt><trkpt lat="43.0644983" lon="11.58489"><ele>320.0</ele><time>2026-04-30T13:15:20.341Z</time></trkpt><trkpt lat="43.0647217" lon="11.5847567"><ele>318.0</ele><time>2026-04-30T13:15:21.341Z</time></trkpt><trkpt lat="43.0649517" lon="11.5846117"><ele>316.0</ele><time>2026-04-30T13:15:22.341Z</time></trkpt><trkpt lat="43.0651917" lon="11.5844833"><ele>316.0</ele><time>2026-04-30T13:15:23.341Z</time></trkpt><trkpt lat="43.06542" lon="11.5843467"><ele>316.0</ele><time>2026-04-30T13:15:24.341Z</time></trkpt><trkpt lat="43.0656533" lon="11.58422"><ele>311.5</ele><time>2026-04-30T13:15:25.341Z</time></trkpt><trkpt lat="43.0658833" lon="11.5840983"><ele>307.0</ele><time>2026-04-30T13:15:26.341Z</time></trkpt><trkpt lat="43.0661167" lon="11.5839883"><ele>307.0</ele><time>2026-04-30T13:15:27.341Z</time></trkpt><trkpt lat="43.0663433" lon="11.58386"><ele>307.0</ele><time>2026-04-30T13:15:28.34Z</time></trkpt><trkpt lat="43.0665667" lon="11.58373"><ele>308.0</ele><time>2026-04-30T13:15:29.341Z</time></trkpt><trkpt lat="43.066795" lon="11.5835817"><ele>309.0</ele><time>2026-04-30T13:15:30.341Z</time></trkpt><trkpt lat="43.0670183" lon="11.583435"><ele>309.0</ele><time>2026-04-30T13:15:31.341Z</time></trkpt><trkpt lat="43.0672417" lon="11.5832733"><ele>309.0</ele><time>2026-04-30T13:15:32.341Z</time></trkpt><trkpt lat="43.06746" lon="11.58312"><ele>307.5</ele><time>2026-04-30T13:15:33.341Z</time></trkpt><trkpt lat="43.0676817" lon="11.5829517"><ele>306.0</ele><time>2026-04-30T13:15:34.341Z</time></trkpt><trkpt lat="43.0678917" lon="11.582775"><ele>306.0</ele><time>2026-04-30T13:15:35.341Z</time></trkpt><trkpt lat="43.0680933" lon="11.5825967"><ele>306.0</ele><time>2026-04-30T13:15:36.341Z</time></trkpt><trkpt lat="43.0682933" lon="11.58241"><ele>302.0</ele><time>2026-04-30T13:15:37.341Z</time></trkpt><trkpt lat="43.0684917" lon="11.5822033"><ele>298.0</ele><time>2026-04-30T13:15:38.341Z</time></trkpt><trkpt lat="43.0686883" lon="11.5819867"><ele>298.0</ele><time>2026-04-30T13:15:39.34Z</time></trkpt><trkpt lat="43.06888" lon="11.5817667"><ele>298.0</ele><time>2026-04-30T13:15:40.341Z</time></trkpt><trkpt lat="43.0690583" lon="11.5815317"><ele>294.0</ele><time>2026-04-30T13:15:41.341Z</time></trkpt><trkpt lat="43.069225" lon="11.581285"><ele>290.0</ele><time>2026-04-30T13:15:42.341Z</time></trkpt><trkpt lat="43.0693783" lon="11.58101"><ele>289.0</ele><time>2026-04-30T13:15:43.341Z</time></trkpt><trkpt lat="43.0695267" lon="11.58072"><ele>288.0</ele><time>2026-04-30T13:15:44.341Z</time></trkpt><trkpt lat="43.0696583" lon="11.5804183"><ele>286.5</ele><time>2026-04-30T13:15:45.341Z</time></trkpt><trkpt lat="43.0697867" lon="11.5800933"><ele>285.0</ele><time>2026-04-30T13:15:46.341Z</time></trkpt><trkpt lat="43.0699017" lon="11.5797733"><ele>279.5</ele><time>2026-04-30T13:15:47.341Z</time></trkpt><trkpt lat="43.069995" lon="11.5794433"><ele>274.0</ele><time>2026-04-30T13:15:48.341Z</time></trkpt><trkpt lat="43.0700717" lon="11.5791033"><ele>274.0</ele><time>2026-04-30T13:15:49.341Z</time></trkpt><trkpt lat="43.0701433" lon="11.5787733"><ele>274.0</ele><time>2026-04-30T13:15:50.341Z</time></trkpt><trkpt lat="43.070195" lon="11.5784417"><ele>269.5</ele><time>2026-04-30T13:15:51.341Z</time></trkpt><trkpt lat="43.0702283" lon="11.5781133"><ele>265.0</ele><time>2026-04-30T13:15:52.341Z</time></trkpt><trkpt lat="43.0702517" lon="11.57779"><ele>261.0</ele><time>2026-04-30T13:15:53.341Z</time></trkpt><trkpt lat="43.0702583" lon="11.5774583"><ele>257.0</ele><time>2026-04-30T13:15:54.341Z</time></trkpt><trkpt lat="43.0702533" lon="11.577125"><ele>253.5</ele><time>2026-04-30T13:15:55.341Z</time></trkpt><trkpt lat="43.0702333" lon="11.5767883"><ele>250.0</ele><time>2026-04-30T13:15:56.34Z</time></trkpt><trkpt lat="43.070205" lon="11.5764517"><ele>249.0</ele><time>2026-04-30T13:15:57.341Z</time></trkpt><trkpt lat="43.0701683" lon="11.5761233"><ele>248.0</ele><time>2026-04-30T13:15:58.341Z</time></trkpt><trkpt lat="43.0701133" lon="11.57579"><ele>248.0</ele><time>2026-04-30T13:15:59.341Z</time></trkpt><trkpt lat="43.0700533" lon="11.5754667"><ele>248.0</ele><time>2026-04-30T13:16:00.341Z</time></trkpt><trkpt lat="43.0699767" lon="11.575145"><ele>246.5</ele><time>2026-04-30T13:16:01.341Z</time></trkpt><trkpt lat="43.0698983" lon="11.574835"><ele>245.0</ele><time>2026-04-30T13:16:02.341Z</time></trkpt><trkpt lat="43.0698067" lon="11.5745367"><ele>244.5</ele><time>2026-04-30T13:16:03.341Z</time></trkpt><trkpt lat="43.0696967" lon="11.5742333"><ele>244.0</ele><time>2026-04-30T13:16:04.34Z</time></trkpt><trkpt lat="43.069565" lon="11.5739317"><ele>245.0</ele><time>2026-04-30T13:16:05.34Z</time></trkpt><trkpt lat="43.0694283" lon="11.57364"><ele>246.0</ele><time>2026-04-30T13:16:06.341Z</time></trkpt><trkpt lat="43.0692883" lon="11.5733517"><ele>246.0</ele><time>2026-04-30T13:16:07.341Z</time></trkpt><trkpt lat="43.0691367" lon="11.5730617"><ele>246.0</ele><time>2026-04-30T13:16:08.341Z</time></trkpt><trkpt lat="43.0689783" lon="11.5727733"><ele>245.5</ele><time>2026-04-30T13:16:09.34Z</time></trkpt><trkpt lat="43.068815" lon="11.5724883"><ele>245.0</ele><time>2026-04-30T13:16:10.34Z</time></trkpt><trkpt lat="43.0686517" lon="11.5722083"><ele>246.5</ele><time>2026-04-30T13:16:11.34Z</time></trkpt><trkpt lat="43.06847" lon="11.5719233"><ele>248.0</ele><time>2026-04-30T13:16:12.341Z</time></trkpt><trkpt lat="43.068285" lon="11.5716417"><ele>248.5</ele><time>2026-04-30T13:16:13.341Z</time></trkpt><trkpt lat="43.0681017" lon="11.571375"><ele>249.0</ele><time>2026-04-30T13:16:14.34Z</time></trkpt><trkpt lat="43.0679183" lon="11.57111"><ele>249.0</ele><time>2026-04-30T13:16:15.341Z</time></trkpt><trkpt lat="43.0677367" lon="11.5708533"><ele>249.0</ele><time>2026-04-30T13:16:16.341Z</time></trkpt><trkpt lat="43.06755" lon="11.5705933"><ele>248.5</ele><time>2026-04-30T13:16:17.34Z</time></trkpt><trkpt lat="43.06736" lon="11.5703283"><ele>248.0</ele><time>2026-04-30T13:16:18.34Z</time></trkpt><trkpt lat="43.06717" lon="11.570065"><ele>248.0</ele><time>2026-04-30T13:16:19.341Z</time></trkpt><trkpt lat="43.06698" lon="11.5697967"><ele>248.0</ele><time>2026-04-30T13:16:20.341Z</time></trkpt><trkpt lat="43.0667917" lon="11.5695317"><ele>245.5</ele><time>2026-04-30T13:16:21.34Z</time></trkpt><trkpt lat="43.0666033" lon="11.5692633"><ele>243.0</ele><time>2026-04-30T13:16:22.341Z</time></trkpt><trkpt lat="43.06641" lon="11.5689933"><ele>243.0</ele><time>2026-04-30T13:16:23.341Z</time></trkpt><trkpt lat="43.0662233" lon="11.568725"><ele>243.0</ele><time>2026-04-30T13:16:24.34Z</time></trkpt><trkpt lat="43.06604" lon="11.56846"><ele>243.5</ele><time>2026-04-30T13:16:25.341Z</time></trkpt><trkpt lat="43.0658583" lon="11.5681917"><ele>244.0</ele><time>2026-04-30T13:16:26.34Z</time></trkpt><trkpt lat="43.065675" lon="11.5679217"><ele>244.5</ele><time>2026-04-30T13:16:27.341Z</time></trkpt><trkpt lat="43.06549" lon="11.5676517"><ele>245.0</ele><time>2026-04-30T13:16:28.341Z</time></trkpt><trkpt lat="43.0653117" lon="11.56738"><ele>245.0</ele><time>2026-04-30T13:16:29.34Z</time></trkpt><trkpt lat="43.06513" lon="11.5671033"><ele>245.0</ele><time>2026-04-30T13:16:30.34Z</time></trkpt><trkpt lat="43.0649583" lon="11.5668217"><ele>246.0</ele><time>2026-04-30T13:16:31.34Z</time></trkpt><trkpt lat="43.064795" lon="11.5665383"><ele>247.0</ele><time>2026-04-30T13:16:32.34Z</time></trkpt><trkpt lat="43.0646367" lon="11.5662417"><ele>249.0</ele><time>2026-04-30T13:16:33.341Z</time></trkpt><trkpt lat="43.0644917" lon="11.5659467"><ele>251.0</ele><time>2026-04-30T13:16:34.34Z</time></trkpt><trkpt lat="43.064355" lon="11.5656333"><ele>252.0</ele><time>2026-04-30T13:16:35.34Z</time></trkpt><trkpt lat="43.06423" lon="11.5653017"><ele>253.0</ele><time>2026-04-30T13:16:36.341Z</time></trkpt><trkpt lat="43.0641233" lon="11.5649633"><ele>249.0</ele><time>2026-04-30T13:16:37.341Z</time></trkpt><trkpt lat="43.0640217" lon="11.5646283"><ele>245.0</ele><time>2026-04-30T13:16:38.34Z</time></trkpt><trkpt lat="43.063945" lon="11.56429"><ele>244.5</ele><time>2026-04-30T13:16:39.34Z</time></trkpt><trkpt lat="43.06389" lon="11.5639333"><ele>244.0</ele><time>2026-04-30T13:16:40.341Z</time></trkpt><trkpt lat="43.063845" lon="11.5635783"><ele>243.5</ele><time>2026-04-30T13:16:41.34Z</time></trkpt><trkpt lat="43.063815" lon="11.5632267"><ele>243.0</ele><time>2026-04-30T13:16:42.341Z</time></trkpt><trkpt lat="43.0637967" lon="11.562885"><ele>244.5</ele><time>2026-04-30T13:16:43.341Z</time></trkpt><trkpt lat="43.06379" lon="11.56254"><ele>246.0</ele><time>2026-04-30T13:16:44.341Z</time></trkpt><trkpt lat="43.0637983" lon="11.5622"><ele>249.5</ele><time>2026-04-30T13:16:45.341Z</time></trkpt><trkpt lat="43.0638117" lon="11.5618633"><ele>253.0</ele><time>2026-04-30T13:16:46.341Z</time></trkpt><trkpt lat="43.0638333" lon="11.5615167"><ele>257.5</ele><time>2026-04-30T13:16:47.34Z</time></trkpt><trkpt lat="43.06387" lon="11.5611817"><ele>262.0</ele><time>2026-04-30T13:16:48.341Z</time></trkpt><trkpt lat="43.0638983" lon="11.5608417"><ele>262.0</ele><time>2026-04-30T13:16:49.34Z</time></trkpt><trkpt lat="43.06393" lon="11.5605067"><ele>262.0</ele><time>2026-04-30T13:16:50.34Z</time></trkpt><trkpt lat="43.0639417" lon="11.5601583"><ele>260.5</ele><time>2026-04-30T13:16:51.341Z</time></trkpt><trkpt lat="43.0639667" lon="11.5598133"><ele>259.0</ele><time>2026-04-30T13:16:52.341Z</time></trkpt><trkpt lat="43.06399" lon="11.559475"><ele>255.5</ele><time>2026-04-30T13:16:53.341Z</time></trkpt><trkpt lat="43.0640233" lon="11.5591467"><ele>252.0</ele><time>2026-04-30T13:16:54.341Z</time></trkpt><trkpt lat="43.064045" lon="11.558825"><ele>250.0</ele><time>2026-04-30T13:16:55.34Z</time></trkpt><trkpt lat="43.0640533" lon="11.5584967"><ele>248.0</ele><time>2026-04-30T13:16:56.341Z</time></trkpt><trkpt lat="43.0640717" lon="11.5581733"><ele>245.0</ele><time>2026-04-30T13:16:57.341Z</time></trkpt><trkpt lat="43.0640883" lon="11.5578533"><ele>242.0</ele><time>2026-04-30T13:16:58.34Z</time></trkpt><trkpt lat="43.0641067" lon="11.5575333"><ele>242.0</ele><time>2026-04-30T13:16:59.341Z</time></trkpt><trkpt lat="43.0641283" lon="11.5572217"><ele>242.0</ele><time>2026-04-30T13:17:00.341Z</time></trkpt><trkpt lat="43.0641417" lon="11.5569017"><ele>244.5</ele><time>2026-04-30T13:17:01.341Z</time></trkpt><trkpt lat="43.0641683" lon="11.55659"><ele>247.0</ele><time>2026-04-30T13:17:02.341Z</time></trkpt><trkpt lat="43.064205" lon="11.55628"><ele>248.0</ele><time>2026-04-30T13:17:03.34Z</time></trkpt><trkpt lat="43.064235" lon="11.5559717"><ele>249.0</ele><time>2026-04-30T13:17:04.341Z</time></trkpt><trkpt lat="43.0642717" lon="11.5556733"><ele>250.0</ele><time>2026-04-30T13:17:05.341Z</time></trkpt><trkpt lat="43.064315" lon="11.5554"><ele>250.0</ele><time>2026-04-30T13:17:06.341Z</time></trkpt><trkpt lat="43.06438" lon="11.5551433"><ele>250.0</ele><time>2026-04-30T13:17:07.341Z</time></trkpt><trkpt lat="43.0644433" lon="11.5548783"><ele>250.0</ele><time>2026-04-30T13:17:08.341Z</time></trkpt><trkpt lat="43.0645167" lon="11.5546017"><ele>245.5</ele><time>2026-04-30T13:17:09.341Z</time></trkpt><trkpt lat="43.0646" lon="11.5543117"><ele>241.0</ele><time>2026-04-30T13:17:10.341Z</time></trkpt><trkpt lat="43.0646883" lon="11.5540233"><ele>241.0</ele><time>2026-04-30T13:17:11.341Z</time></trkpt><trkpt lat="43.0647867" lon="11.5537267"><ele>241.0</ele><time>2026-04-30T13:17:12.34Z</time></trkpt><trkpt lat="43.06488" lon="11.5534267"><ele>240.5</ele><time>2026-04-30T13:17:13.34Z</time></trkpt><trkpt lat="43.0649783" lon="11.5531117"><ele>240.0</ele><time>2026-04-30T13:17:14.34Z</time></trkpt><trkpt lat="43.0650717" lon="11.5528017"><ele>237.5</ele><time>2026-04-30T13:17:15.341Z</time></trkpt><trkpt lat="43.065185" lon="11.5524933"><ele>235.0</ele><time>2026-04-30T13:17:16.341Z</time></trkpt><trkpt lat="43.06528" lon="11.5521817"><ele>234.0</ele><time>2026-04-30T13:17:17.341Z</time></trkpt><trkpt lat="43.0653717" lon="11.5518667"><ele>233.0</ele><time>2026-04-30T13:17:18.341Z</time></trkpt><trkpt lat="43.06547" lon="11.55156"><ele>233.0</ele><time>2026-04-30T13:17:19.341Z</time></trkpt><trkpt lat="43.065565" lon="11.5512567"><ele>233.0</ele><time>2026-04-30T13:17:20.34Z</time></trkpt><trkpt lat="43.06566" lon="11.5509567"><ele>232.5</ele><time>2026-04-30T13:17:21.34Z</time></trkpt><trkpt lat="43.0657667" lon="11.5506633"><ele>232.0</ele><time>2026-04-30T13:17:22.341Z</time></trkpt><trkpt lat="43.0658683" lon="11.5503717"><ele>234.5</ele><time>2026-04-30T13:17:23.341Z</time></trkpt><trkpt lat="43.0659783" lon="11.5500933"><ele>237.0</ele><time>2026-04-30T13:17:24.341Z</time></trkpt><trkpt lat="43.0660867" lon="11.5498167"><ele>237.0</ele><time>2026-04-30T13:17:25.341Z</time></trkpt><trkpt lat="43.06619" lon="11.549555"><ele>237.0</ele><time>2026-04-30T13:17:26.341Z</time></trkpt><trkpt lat="43.066315" lon="11.549305"><ele>237.0</ele><time>2026-04-30T13:17:27.34Z</time></trkpt><trkpt lat="43.0664583" lon="11.5490567"><ele>237.33333333333331</ele><time>2026-04-30T13:17:28.34Z</time></trkpt><trkpt lat="43.0666017" lon="11.54882"><ele>237.66666666666666</ele><time>2026-04-30T13:17:29.341Z</time></trkpt><trkpt lat="43.0667517" lon="11.5485983"><ele>238.0</ele><time>2026-04-30T13:17:30.34Z</time></trkpt><trkpt lat="43.066915" lon="11.54839"><ele>238.66666666666666</ele><time>2026-04-30T13:17:31.34Z</time></trkpt><trkpt lat="43.0670817" lon="11.5481817"><ele>239.33333333333331</ele><time>2026-04-30T13:17:32.341Z</time></trkpt><trkpt lat="43.0672517" lon="11.5479933"><ele>240.0</ele><time>2026-04-30T13:17:33.341Z</time></trkpt><trkpt lat="43.0674267" lon="11.547825"><ele>239.66666666666669</ele><time>2026-04-30T13:17:34.341Z</time></trkpt><trkpt lat="43.067615" lon="11.547655"><ele>239.33333333333334</ele><time>2026-04-30T13:17:35.341Z</time></trkpt><trkpt lat="43.0678067" lon="11.5475083"><ele>239.0</ele><time>2026-04-30T13:17:36.341Z</time></trkpt><trkpt lat="43.0680117" lon="11.5473717"><ele>239.0</ele><time>2026-04-30T13:17:37.341Z</time></trkpt><trkpt lat="43.0682217" lon="11.5472433"><ele>239.0</ele><time>2026-04-30T13:17:38.341Z</time></trkpt><trkpt lat="43.0684283" lon="11.547145"><ele>239.0</ele><time>2026-04-30T13:17:39.34Z</time></trkpt><trkpt lat="43.06864" lon="11.54707"><ele>242.5</ele><time>2026-04-30T13:17:40.34Z</time></trkpt><trkpt lat="43.0688617" lon="11.547005"><ele>246.0</ele><time>2026-04-30T13:17:41.341Z</time></trkpt><trkpt lat="43.06909" lon="11.5469533"><ele>246.33333333333331</ele><time>2026-04-30T13:17:42.341Z</time></trkpt><trkpt lat="43.06931" lon="11.546905"><ele>246.66666666666666</ele><time>2026-04-30T13:17:43.34Z</time></trkpt><trkpt lat="43.0695317" lon="11.5468833"><ele>247.0</ele><time>2026-04-30T13:17:44.341Z</time></trkpt><trkpt lat="43.0697517" lon="11.54687"><ele>245.0</ele><time>2026-04-30T13:17:45.34Z</time></trkpt><trkpt lat="43.0699817" lon="11.5468767"><ele>243.0</ele><time>2026-04-30T13:17:46.34Z</time></trkpt><trkpt lat="43.0702083" lon="11.546895"><ele>243.0</ele><time>2026-04-30T13:17:47.34Z</time></trkpt><trkpt lat="43.0704367" lon="11.5469317"><ele>243.0</ele><time>2026-04-30T13:17:48.34Z</time></trkpt><trkpt lat="43.0706633" lon="11.54698"><ele>242.5</ele><time>2026-04-30T13:17:49.341Z</time></trkpt><trkpt lat="43.07089" lon="11.5470333"><ele>242.0</ele><time>2026-04-30T13:17:50.341Z</time></trkpt><trkpt lat="43.0711117" lon="11.547095"><ele>242.0</ele><time>2026-04-30T13:17:51.341Z</time></trkpt><trkpt lat="43.071335" lon="11.5471567"><ele>242.0</ele><time>2026-04-30T13:17:52.341Z</time></trkpt><trkpt lat="43.0715567" lon="11.5472217"><ele>241.5</ele><time>2026-04-30T13:17:53.341Z</time></trkpt><trkpt lat="43.071775" lon="11.5472867"><ele>241.0</ele><time>2026-04-30T13:17:54.341Z</time></trkpt><trkpt lat="43.0720033" lon="11.5473533"><ele>241.0</ele><time>2026-04-30T13:17:55.341Z</time></trkpt><trkpt lat="43.0722283" lon="11.54742"><ele>241.0</ele><time>2026-04-30T13:17:56.341Z</time></trkpt><trkpt lat="43.072445" lon="11.5474733"><ele>242.5</ele><time>2026-04-30T13:17:57.341Z</time></trkpt><trkpt lat="43.0726667" lon="11.5475167"><ele>244.0</ele><time>2026-04-30T13:17:58.341Z</time></trkpt><trkpt lat="43.072895" lon="11.5475383"><ele>244.0</ele><time>2026-04-30T13:17:59.34Z</time></trkpt><trkpt lat="43.0731133" lon="11.5475417"><ele>244.0</ele><time>2026-04-30T13:18:00.341Z</time></trkpt><trkpt lat="43.0733333" lon="11.5475367"><ele>244.0</ele><time>2026-04-30T13:18:01.34Z</time></trkpt><trkpt lat="43.07355" lon="11.547525"><ele>245.33333333333331</ele><time>2026-04-30T13:18:02.341Z</time></trkpt><trkpt lat="43.0737683" lon="11.5474917"><ele>246.66666666666669</ele><time>2026-04-30T13:18:03.34Z</time></trkpt><trkpt lat="43.0739883" lon="11.5474567"><ele>248.0</ele><time>2026-04-30T13:18:04.341Z</time></trkpt><trkpt lat="43.0742017" lon="11.5474117"><ele>248.33333333333334</ele><time>2026-04-30T13:18:05.341Z</time></trkpt><trkpt lat="43.0744083" lon="11.5473633"><ele>248.66666666666669</ele><time>2026-04-30T13:18:06.341Z</time></trkpt><trkpt lat="43.0746183" lon="11.5473033"><ele>249.0</ele><time>2026-04-30T13:18:07.34Z</time></trkpt><trkpt lat="43.0748267" lon="11.5472367"><ele>248.33333333333331</ele><time>2026-04-30T13:18:08.341Z</time></trkpt><trkpt lat="43.0750433" lon="11.5471783"><ele>247.66666666666666</ele><time>2026-04-30T13:18:09.341Z</time></trkpt><trkpt lat="43.07526" lon="11.54712"><ele>247.0</ele><time>2026-04-30T13:18:10.341Z</time></trkpt><trkpt lat="43.0754767" lon="11.5470633"><ele>248.5</ele><time>2026-04-30T13:18:11.34Z</time></trkpt><trkpt lat="43.075695" lon="11.5470083"><ele>250.0</ele><time>2026-04-30T13:18:12.341Z</time></trkpt><trkpt lat="43.0759233" lon="11.5469583"><ele>250.0</ele><time>2026-04-30T13:18:13.341Z</time></trkpt><trkpt lat="43.076145" lon="11.5469017"><ele>250.0</ele><time>2026-04-30T13:18:14.341Z</time></trkpt><trkpt lat="43.0763583" lon="11.5468467"><ele>250.0</ele><time>2026-04-30T13:18:15.341Z</time></trkpt><trkpt lat="43.0765717" lon="11.5467933"><ele>248.66666666666666</ele><time>2026-04-30T13:18:16.341Z</time></trkpt><trkpt lat="43.07678" lon="11.5467383"><ele>247.33333333333331</ele><time>2026-04-30T13:18:17.341Z</time></trkpt><trkpt lat="43.0769967" lon="11.5466933"><ele>246.0</ele><time>2026-04-30T13:18:18.341Z</time></trkpt><trkpt lat="43.0772" lon="11.5466533"><ele>246.0</ele><time>2026-04-30T13:18:19.341Z</time></trkpt><trkpt lat="43.0773933" lon="11.5466167"><ele>246.0</ele><time>2026-04-30T13:18:20.341Z</time></trkpt><trkpt lat="43.077585" lon="11.546595"><ele>246.0</ele><time>2026-04-30T13:18:21.341Z</time></trkpt><trkpt lat="43.077765" lon="11.54658"><ele>245.0</ele><time>2026-04-30T13:18:22.34Z</time></trkpt><trkpt lat="43.0779417" lon="11.546575"><ele>244.0</ele><time>2026-04-30T13:18:23.341Z</time></trkpt><trkpt lat="43.078135" lon="11.5465817"><ele>243.0</ele><time>2026-04-30T13:18:24.34Z</time></trkpt><trkpt lat="43.0783333" lon="11.5465967"><ele>243.0</ele><time>2026-04-30T13:18:25.341Z</time></trkpt><trkpt lat="43.07853" lon="11.5466117"><ele>243.0</ele><time>2026-04-30T13:18:26.341Z</time></trkpt><trkpt lat="43.07874" lon="11.5466533"><ele>243.0</ele><time>2026-04-30T13:18:27.34Z</time></trkpt><trkpt lat="43.0789467" lon="11.5466967"><ele>243.33333333333331</ele><time>2026-04-30T13:18:28.341Z</time></trkpt><trkpt lat="43.079155" lon="11.546755"><ele>243.66666666666666</ele><time>2026-04-30T13:18:29.341Z</time></trkpt><trkpt lat="43.07935" lon="11.5468233"><ele>244.0</ele><time>2026-04-30T13:18:30.34Z</time></trkpt><trkpt lat="43.0795583" lon="11.5469"><ele>244.0</ele><time>2026-04-30T13:18:31.34Z</time></trkpt><trkpt lat="43.0797583" lon="11.5469783"><ele>244.0</ele><time>2026-04-30T13:18:32.341Z</time></trkpt><trkpt lat="43.0799583" lon="11.5470517"><ele>244.0</ele><time>2026-04-30T13:18:33.341Z</time></trkpt><trkpt lat="43.080155" lon="11.547125"><ele>244.0</ele><time>2026-04-30T13:18:34.341Z</time></trkpt><trkpt lat="43.0803533" lon="11.5471883"><ele>244.0</ele><time>2026-04-30T13:18:35.34Z</time></trkpt><trkpt lat="43.08056" lon="11.54724"><ele>244.0</ele><time>2026-04-30T13:18:36.34Z</time></trkpt><trkpt lat="43.0807667" lon="11.5472767"><ele>245.66666666666666</ele><time>2026-04-30T13:18:37.341Z</time></trkpt><trkpt lat="43.0809717" lon="11.5473017"><ele>247.33333333333331</ele><time>2026-04-30T13:18:38.341Z</time></trkpt><trkpt lat="43.0811817" lon="11.54731"><ele>249.0</ele><time>2026-04-30T13:18:39.34Z</time></trkpt><trkpt lat="43.0813917" lon="11.5473117"><ele>249.66666666666669</ele><time>2026-04-30T13:18:40.34Z</time></trkpt><trkpt lat="43.0816067" lon="11.5472933"><ele>250.33333333333334</ele><time>2026-04-30T13:18:41.341Z</time></trkpt><trkpt lat="43.0818183" lon="11.54726"><ele>251.0</ele><time>2026-04-30T13:18:42.341Z</time></trkpt><trkpt lat="43.0820267" lon="11.5472267"><ele>251.0</ele><time>2026-04-30T13:18:43.34Z</time></trkpt><trkpt lat="43.082235" lon="11.5471767"><ele>251.0</ele><time>2026-04-30T13:18:44.341Z</time></trkpt><trkpt lat="43.0824533" lon="11.5471"><ele>251.0</ele><time>2026-04-30T13:18:45.341Z</time></trkpt><trkpt lat="43.0826617" lon="11.547015"><ele>256.0</ele><time>2026-04-30T13:18:46.341Z</time></trkpt><trkpt lat="43.082855" lon="11.5469083"><ele>261.0</ele><time>2026-04-30T13:18:47.34Z</time></trkpt><trkpt lat="43.0830483" lon="11.5467933"><ele>266.0</ele><time>2026-04-30T13:18:48.341Z</time></trkpt><trkpt lat="43.0832433" lon="11.54666"><ele>266.6666666666667</ele><time>2026-04-30T13:18:49.34Z</time></trkpt><trkpt lat="43.0834317" lon="11.5465083"><ele>267.3333333333333</ele><time>2026-04-30T13:18:50.341Z</time></trkpt><trkpt lat="43.0836033" lon="11.546345"><ele>268.0</ele><time>2026-04-30T13:18:51.341Z</time></trkpt><trkpt lat="43.0837733" lon="11.5461667"><ele>268.0</ele><time>2026-04-30T13:18:52.341Z</time></trkpt><trkpt lat="43.083935" lon="11.5459833"><ele>268.0</ele><time>2026-04-30T13:18:53.34Z</time></trkpt><trkpt lat="43.0841083" lon="11.545795"><ele>268.0</ele><time>2026-04-30T13:18:54.34Z</time></trkpt><trkpt lat="43.084275" lon="11.5456117"><ele>267.0</ele><time>2026-04-30T13:18:55.341Z</time></trkpt><trkpt lat="43.0844183" lon="11.5454183"><ele>266.0</ele><time>2026-04-30T13:18:56.34Z</time></trkpt><trkpt lat="43.0845517" lon="11.54522"><ele>265.0</ele><time>2026-04-30T13:18:57.341Z</time></trkpt><trkpt lat="43.0846683" lon="11.5450317"><ele>265.0</ele><time>2026-04-30T13:18:58.341Z</time></trkpt><trkpt lat="43.08476" lon="11.5448383"><ele>265.0</ele><time>2026-04-30T13:18:59.341Z</time></trkpt><trkpt lat="43.0848617" lon="11.5446467"><ele>265.0</ele><time>2026-04-30T13:19:00.34Z</time></trkpt><trkpt lat="43.0849533" lon="11.5444617"><ele>266.66666666666663</ele><time>2026-04-30T13:19:01.341Z</time></trkpt><trkpt lat="43.0850517" lon="11.5442833"><ele>268.3333333333333</ele><time>2026-04-30T13:19:02.341Z</time></trkpt><trkpt lat="43.0851467" lon="11.5441017"><ele>270.0</ele><time>2026-04-30T13:19:03.341Z</time></trkpt><trkpt lat="43.0852483" lon="11.5439233"><ele>270.0</ele><time>2026-04-30T13:19:04.341Z</time></trkpt><trkpt lat="43.0853483" lon="11.5437417"><ele>270.0</ele><time>2026-04-30T13:19:05.341Z</time></trkpt><trkpt lat="43.0854483" lon="11.5435633"><ele>270.0</ele><time>2026-04-30T13:19:06.34Z</time></trkpt><trkpt lat="43.0860983" lon="11.542815"><ele>265.3333333333333</ele><time>2026-04-30T13:19:11.341Z</time></trkpt><trkpt lat="43.0861917" lon="11.542625"><ele>260.66666666666663</ele><time>2026-04-30T13:19:12.342Z</time></trkpt><trkpt lat="43.0863467" lon="11.5424967"><ele>256.0</ele><time>2026-04-30T13:19:13.342Z</time></trkpt><trkpt lat="43.0865" lon="11.5423533"><ele>255.33333333333331</ele><time>2026-04-30T13:19:14.341Z</time></trkpt><trkpt lat="43.086655" lon="11.5422117"><ele>254.66666666666669</ele><time>2026-04-30T13:19:15.342Z</time></trkpt><trkpt lat="43.0868267" lon="11.5420783"><ele>254.0</ele><time>2026-04-30T13:19:16.341Z</time></trkpt><trkpt lat="43.0870083" lon="11.5419617"><ele>249.66666666666669</ele><time>2026-04-30T13:19:17.341Z</time></trkpt><trkpt lat="43.087195" lon="11.5418467"><ele>245.33333333333331</ele><time>2026-04-30T13:19:18.342Z</time></trkpt><trkpt lat="43.0873917" lon="11.5417533"><ele>241.0</ele><time>2026-04-30T13:19:19.342Z</time></trkpt><trkpt lat="43.0876017" lon="11.54166"><ele>240.66666666666666</ele><time>2026-04-30T13:19:20.342Z</time></trkpt><trkpt lat="43.087795" lon="11.5415717"><ele>240.33333333333331</ele><time>2026-04-30T13:19:21.342Z</time></trkpt><trkpt lat="43.0879783" lon="11.5414767"><ele>240.0</ele><time>2026-04-30T13:19:22.342Z</time></trkpt><trkpt lat="43.088145" lon="11.5413867"><ele>241.66666666666669</ele><time>2026-04-30T13:19:23.342Z</time></trkpt><trkpt lat="43.0883017" lon="11.5413017"><ele>243.33333333333334</ele><time>2026-04-30T13:19:24.342Z</time></trkpt><trkpt lat="43.0884567" lon="11.5412117"><ele>245.0</ele><time>2026-04-30T13:19:25.342Z</time></trkpt><trkpt lat="43.0886083" lon="11.541135"><ele>241.33333333333334</ele><time>2026-04-30T13:19:26.341Z</time></trkpt><trkpt lat="43.0887683" lon="11.54105"><ele>237.66666666666669</ele><time>2026-04-30T13:19:27.341Z</time></trkpt><trkpt lat="43.088935" lon="11.54095"><ele>234.0</ele><time>2026-04-30T13:19:28.341Z</time></trkpt><trkpt lat="43.08912" lon="11.5408583"><ele>234.0</ele><time>2026-04-30T13:19:29.342Z</time></trkpt><trkpt lat="43.089315" lon="11.5407583"><ele>234.0</ele><time>2026-04-30T13:19:30.342Z</time></trkpt><trkpt lat="43.089515" lon="11.5406567"><ele>234.0</ele><time>2026-04-30T13:19:31.342Z</time></trkpt><trkpt lat="43.0897283" lon="11.540555"><ele>235.5</ele><time>2026-04-30T13:19:32.342Z</time></trkpt><trkpt lat="43.089945" lon="11.540445"><ele>237.0</ele><time>2026-04-30T13:19:33.342Z</time></trkpt><trkpt lat="43.0901667" lon="11.5403183"><ele>230.0</ele><time>2026-04-30T13:19:34.342Z</time></trkpt><trkpt lat="43.0903867" lon="11.5401917"><ele>223.0</ele><time>2026-04-30T13:19:35.341Z</time></trkpt><trkpt lat="43.0906083" lon="11.5400533"><ele>225.0</ele><time>2026-04-30T13:19:36.342Z</time></trkpt><trkpt lat="43.0908317" lon="11.5399033"><ele>227.0</ele><time>2026-04-30T13:19:37.342Z</time></trkpt><trkpt lat="43.0910433" lon="11.5397333"><ele>221.0</ele><time>2026-04-30T13:19:38.341Z</time></trkpt><trkpt lat="43.0912467" lon="11.539545"><ele>215.0</ele><time>2026-04-30T13:19:39.342Z</time></trkpt><trkpt lat="43.0914433" lon="11.5393433"><ele>216.0</ele><time>2026-04-30T13:19:40.341Z</time></trkpt><trkpt lat="43.0916333" lon="11.53913"><ele>217.0</ele><time>2026-04-30T13:19:41.341Z</time></trkpt><trkpt lat="43.0918117" lon="11.53891"><ele>212.5</ele><time>2026-04-30T13:19:42.341Z</time></trkpt><trkpt lat="43.0919783" lon="11.53869"><ele>208.0</ele><time>2026-04-30T13:19:43.341Z</time></trkpt><trkpt lat="43.09214" lon="11.53845"><ele>208.0</ele><time>2026-04-30T13:19:44.341Z</time></trkpt><trkpt lat="43.0922917" lon="11.538195"><ele>208.0</ele><time>2026-04-30T13:19:45.341Z</time></trkpt><trkpt lat="43.09244" lon="11.5379267"><ele>204.5</ele><time>2026-04-30T13:19:46.341Z</time></trkpt><trkpt lat="43.092575" lon="11.5376517"><ele>201.0</ele><time>2026-04-30T13:19:47.341Z</time></trkpt><trkpt lat="43.0926983" lon="11.5373717"><ele>201.0</ele><time>2026-04-30T13:19:48.341Z</time></trkpt><trkpt lat="43.092815" lon="11.5370783"><ele>201.0</ele><time>2026-04-30T13:19:49.341Z</time></trkpt><trkpt lat="43.0929283" lon="11.5367833"><ele>197.0</ele><time>2026-04-30T13:19:50.341Z</time></trkpt><trkpt lat="43.0930233" lon="11.5364833"><ele>193.0</ele><time>2026-04-30T13:19:51.34Z</time></trkpt><trkpt lat="43.0931067" lon="11.5361733"><ele>191.0</ele><time>2026-04-30T13:19:52.341Z</time></trkpt><trkpt lat="43.093175" lon="11.5358567"><ele>189.0</ele><time>2026-04-30T13:19:53.341Z</time></trkpt><trkpt lat="43.0932317" lon="11.5355317"><ele>189.0</ele><time>2026-04-30T13:19:54.341Z</time></trkpt><trkpt lat="43.0932783" lon="11.5352083"><ele>189.0</ele><time>2026-04-30T13:19:55.341Z</time></trkpt><trkpt lat="43.0933217" lon="11.5348783"><ele>187.0</ele><time>2026-04-30T13:19:56.341Z</time></trkpt><trkpt lat="43.09335" lon="11.5345333"><ele>185.0</ele><time>2026-04-30T13:19:57.341Z</time></trkpt><trkpt lat="43.0933783" lon="11.534205"><ele>185.0</ele><time>2026-04-30T13:19:58.341Z</time></trkpt><trkpt lat="43.0934017" lon="11.5338733"><ele>185.0</ele><time>2026-04-30T13:19:59.341Z</time></trkpt><trkpt lat="43.0934283" lon="11.533535"><ele>182.0</ele><time>2026-04-30T13:20:00.341Z</time></trkpt><trkpt lat="43.0934633" lon="11.5331983"><ele>179.0</ele><time>2026-04-30T13:20:01.341Z</time></trkpt><trkpt lat="43.093495" lon="11.5328633"><ele>176.5</ele><time>2026-04-30T13:20:02.341Z</time></trkpt><trkpt lat="43.0935317" lon="11.5325367"><ele>174.0</ele><time>2026-04-30T13:20:03.341Z</time></trkpt><trkpt lat="43.0935767" lon="11.532205"><ele>171.5</ele><time>2026-04-30T13:20:04.34Z</time></trkpt><trkpt lat="43.0936183" lon="11.5318733"><ele>169.0</ele><time>2026-04-30T13:20:05.341Z</time></trkpt><trkpt lat="43.0936583" lon="11.53154"><ele>167.0</ele><time>2026-04-30T13:20:06.34Z</time></trkpt><trkpt lat="43.09372" lon="11.5312217"><ele>165.0</ele><time>2026-04-30T13:20:07.341Z</time></trkpt><trkpt lat="43.0937983" lon="11.5309083"><ele>165.0</ele><time>2026-04-30T13:20:08.34Z</time></trkpt><trkpt lat="43.0938717" lon="11.5305917"><ele>165.0</ele><time>2026-04-30T13:20:09.341Z</time></trkpt><trkpt lat="43.0939467" lon="11.5302767"><ele>165.0</ele><time>2026-04-30T13:20:10.341Z</time></trkpt><trkpt lat="43.0940317" lon="11.52997"><ele>165.0</ele><time>2026-04-30T13:20:11.341Z</time></trkpt><trkpt lat="43.0941217" lon="11.5296767"><ele>164.5</ele><time>2026-04-30T13:20:12.34Z</time></trkpt><trkpt lat="43.0942233" lon="11.5293783"><ele>164.0</ele><time>2026-04-30T13:20:13.34Z</time></trkpt><trkpt lat="43.0943333" lon="11.5290917"><ele>164.0</ele><time>2026-04-30T13:20:14.341Z</time></trkpt><trkpt lat="43.094455" lon="11.5287983"><ele>164.0</ele><time>2026-04-30T13:20:15.341Z</time></trkpt><trkpt lat="43.0945783" lon="11.5285167"><ele>166.5</ele><time>2026-04-30T13:20:16.341Z</time></trkpt><trkpt lat="43.094705" lon="11.5282317"><ele>169.0</ele><time>2026-04-30T13:20:17.341Z</time></trkpt><trkpt lat="43.0948433" lon="11.52795"><ele>168.0</ele><time>2026-04-30T13:20:18.341Z</time></trkpt><trkpt lat="43.0949883" lon="11.52769"><ele>167.0</ele><time>2026-04-30T13:20:19.34Z</time></trkpt><trkpt lat="43.09514" lon="11.52744"><ele>167.0</ele><time>2026-04-30T13:20:20.34Z</time></trkpt><trkpt lat="43.0952967" lon="11.5272017"><ele>167.0</ele><time>2026-04-30T13:20:21.341Z</time></trkpt><trkpt lat="43.0954533" lon="11.5269733"><ele>166.33333333333331</ele><time>2026-04-30T13:20:22.341Z</time></trkpt><trkpt lat="43.0956067" lon="11.5267583"><ele>165.66666666666666</ele><time>2026-04-30T13:20:23.341Z</time></trkpt><trkpt lat="43.095755" lon="11.526565"><ele>165.0</ele><time>2026-04-30T13:20:24.341Z</time></trkpt><trkpt lat="43.0959067" lon="11.5263817"><ele>166.0</ele><time>2026-04-30T13:20:25.34Z</time></trkpt><trkpt lat="43.09607" lon="11.526205"><ele>167.0</ele><time>2026-04-30T13:20:26.341Z</time></trkpt><trkpt lat="43.0962333" lon="11.5260233"><ele>168.0</ele><time>2026-04-30T13:20:27.34Z</time></trkpt><trkpt lat="43.09641" lon="11.5258433"><ele>165.5</ele><time>2026-04-30T13:20:28.341Z</time></trkpt><trkpt lat="43.0965983" lon="11.5256517"><ele>163.0</ele><time>2026-04-30T13:20:29.341Z</time></trkpt><trkpt lat="43.096785" lon="11.5254583"><ele>163.5</ele><time>2026-04-30T13:20:30.341Z</time></trkpt><trkpt lat="43.0969783" lon="11.5252683"><ele>164.0</ele><time>2026-04-30T13:20:31.34Z</time></trkpt><trkpt lat="43.0971617" lon="11.5250767"><ele>164.0</ele><time>2026-04-30T13:20:32.341Z</time></trkpt><trkpt lat="43.097355" lon="11.5248733"><ele>164.0</ele><time>2026-04-30T13:20:33.341Z</time></trkpt><trkpt lat="43.097545" lon="11.5246617"><ele>167.5</ele><time>2026-04-30T13:20:34.341Z</time></trkpt><trkpt lat="43.0977383" lon="11.5244533"><ele>171.0</ele><time>2026-04-30T13:20:35.341Z</time></trkpt><trkpt lat="43.0979233" lon="11.5242467"><ele>171.0</ele><time>2026-04-30T13:20:36.341Z</time></trkpt><trkpt lat="43.09811" lon="11.5240267"><ele>171.0</ele><time>2026-04-30T13:20:37.341Z</time></trkpt><trkpt lat="43.098285" lon="11.5238183"><ele>171.0</ele><time>2026-04-30T13:20:38.34Z</time></trkpt><trkpt lat="43.0984517" lon="11.5236133"><ele>171.0</ele><time>2026-04-30T13:20:39.341Z</time></trkpt><trkpt lat="43.0986067" lon="11.5234217"><ele>171.0</ele><time>2026-04-30T13:20:40.341Z</time></trkpt><trkpt lat="43.0987467" lon="11.5232467"><ele>171.0</ele><time>2026-04-30T13:20:41.341Z</time></trkpt><trkpt lat="43.098875" lon="11.5230833"><ele>171.0</ele><time>2026-04-30T13:20:42.34Z</time></trkpt><trkpt lat="43.099" lon="11.5229317"><ele>171.0</ele><time>2026-04-30T13:20:43.341Z</time></trkpt><trkpt lat="43.0991217" lon="11.522795"><ele>169.75</ele><time>2026-04-30T13:20:44.341Z</time></trkpt><trkpt lat="43.099235" lon="11.5226683"><ele>168.5</ele><time>2026-04-30T13:20:45.341Z</time></trkpt><trkpt lat="43.0993467" lon="11.5225583"><ele>167.25</ele><time>2026-04-30T13:20:46.341Z</time></trkpt><trkpt lat="43.0994467" lon="11.5224583"><ele>166.0</ele><time>2026-04-30T13:20:47.341Z</time></trkpt><trkpt lat="43.0995483" lon="11.5223733"><ele>166.0</ele><time>2026-04-30T13:20:48.34Z</time></trkpt><trkpt lat="43.099635" lon="11.522305"><ele>166.0</ele><time>2026-04-30T13:20:49.341Z</time></trkpt><trkpt lat="43.099715" lon="11.5222433"><ele>166.0</ele><time>2026-04-30T13:20:50.341Z</time></trkpt><trkpt lat="43.0997833" lon="11.5221867"><ele>166.0</ele><time>2026-04-30T13:20:51.34Z</time></trkpt><trkpt lat="43.09984" lon="11.522145"><ele>166.0</ele><time>2026-04-30T13:20:52.34Z</time></trkpt><trkpt lat="43.09993" lon="11.522055"><ele>166.0</ele><time>2026-04-30T13:20:54.34Z</time></trkpt><trkpt lat="43.1" lon="11.52198"><ele>164.60000000000002</ele><time>2026-04-30T13:20:56.341Z</time></trkpt><trkpt lat="43.1000717" lon="11.5219"><ele>163.20000000000002</ele><time>2026-04-30T13:20:58.341Z</time></trkpt><trkpt lat="43.100135" lon="11.52181"><ele>161.8</ele><time>2026-04-30T13:21:00.341Z</time></trkpt><trkpt lat="43.100215" lon="11.5217133"><ele>160.4</ele><time>2026-04-30T13:21:02.34Z</time></trkpt><trkpt lat="43.1003" lon="11.52162"><ele>159.0</ele><time>2026-04-30T13:21:04.34Z</time></trkpt><trkpt lat="43.1003517" lon="11.5215567"><ele>159.0</ele><time>2026-04-30T13:21:05.341Z</time></trkpt><trkpt lat="43.1004117" lon="11.52149"><ele>159.0</ele><time>2026-04-30T13:21:06.341Z</time></trkpt><trkpt lat="43.1004717" lon="11.52142"><ele>159.0</ele><time>2026-04-30T13:21:07.341Z</time></trkpt><trkpt lat="43.100535" lon="11.52135"><ele>159.0</ele><time>2026-04-30T13:21:08.34Z</time></trkpt><trkpt lat="43.100605" lon="11.5212683"><ele>159.0</ele><time>2026-04-30T13:21:09.34Z</time></trkpt><trkpt lat="43.1006767" lon="11.5211783"><ele>159.0</ele><time>2026-04-30T13:21:10.341Z</time></trkpt><trkpt lat="43.1007483" lon="11.5210833"><ele>159.5</ele><time>2026-04-30T13:21:11.341Z</time></trkpt><trkpt lat="43.1008183" lon="11.520955"><ele>160.0</ele><time>2026-04-30T13:21:12.341Z</time></trkpt><trkpt lat="43.1008917" lon="11.5208"><ele>160.5</ele><time>2026-04-30T13:21:13.341Z</time></trkpt><trkpt lat="43.100975" lon="11.52062"><ele>161.0</ele><time>2026-04-30T13:21:14.341Z</time></trkpt><trkpt lat="43.1010633" lon="11.5204267"><ele>164.66666666666666</ele><time>2026-04-30T13:21:15.341Z</time></trkpt><trkpt lat="43.1011633" lon="11.52023"><ele>168.33333333333334</ele><time>2026-04-30T13:21:16.341Z</time></trkpt><trkpt lat="43.1012533" lon="11.5200267"><ele>172.0</ele><time>2026-04-30T13:21:17.341Z</time></trkpt><trkpt lat="43.10135" lon="11.5198183"><ele>172.0</ele><time>2026-04-30T13:21:18.341Z</time></trkpt><trkpt lat="43.10141" lon="11.5195833"><ele>172.0</ele><time>2026-04-30T13:21:19.341Z</time></trkpt><trkpt lat="43.1014983" lon="11.519365"><ele>172.0</ele><time>2026-04-30T13:21:20.34Z</time></trkpt><trkpt lat="43.1015933" lon="11.5191617"><ele>169.33333333333334</ele><time>2026-04-30T13:21:21.34Z</time></trkpt><trkpt lat="43.101705" lon="11.5189867"><ele>166.66666666666666</ele><time>2026-04-30T13:21:22.341Z</time></trkpt><trkpt lat="43.1018367" lon="11.5188567"><ele>164.0</ele><time>2026-04-30T13:21:23.341Z</time></trkpt><trkpt lat="43.10196" lon="11.518735"><ele>165.0</ele><time>2026-04-30T13:21:24.341Z</time></trkpt><trkpt lat="43.1020683" lon="11.5185967"><ele>166.0</ele><time>2026-04-30T13:21:25.341Z</time></trkpt><trkpt lat="43.1021767" lon="11.5184133"><ele>167.0</ele><time>2026-04-30T13:21:26.341Z</time></trkpt><trkpt lat="43.102275" lon="11.5182"><ele>167.0</ele><time>2026-04-30T13:21:27.34Z</time></trkpt><trkpt lat="43.102385" lon="11.5179767"><ele>167.0</ele><time>2026-04-30T13:21:28.341Z</time></trkpt><trkpt lat="43.10248" lon="11.5177667"><ele>167.0</ele><time>2026-04-30T13:21:29.341Z</time></trkpt><trkpt lat="43.1026" lon="11.5175783"><ele>166.33333333333331</ele><time>2026-04-30T13:21:30.341Z</time></trkpt><trkpt lat="43.102725" lon="11.517395"><ele>165.66666666666666</ele><time>2026-04-30T13:21:31.341Z</time></trkpt><trkpt lat="43.10283" lon="11.5172"><ele>165.0</ele><time>2026-04-30T13:21:32.34Z</time></trkpt><trkpt lat="43.1029067" lon="11.5169783"><ele>166.66666666666666</ele><time>2026-04-30T13:21:33.34Z</time></trkpt><trkpt lat="43.1029667" lon="11.516735"><ele>168.33333333333331</ele><time>2026-04-30T13:21:34.341Z</time></trkpt><trkpt lat="43.10303" lon="11.5164867"><ele>170.0</ele><time>2026-04-30T13:21:35.341Z</time></trkpt><trkpt lat="43.1030833" lon="11.5162233"><ele>170.33333333333331</ele><time>2026-04-30T13:21:36.341Z</time></trkpt><trkpt lat="43.1031183" lon="11.5159533"><ele>170.66666666666666</ele><time>2026-04-30T13:21:37.341Z</time></trkpt><trkpt lat="43.1031417" lon="11.5156733"><ele>171.0</ele><time>2026-04-30T13:21:38.341Z</time></trkpt><trkpt lat="43.1031667" lon="11.5154017"><ele>171.0</ele><time>2026-04-30T13:21:39.341Z</time></trkpt><trkpt lat="43.1032083" lon="11.51514"><ele>171.0</ele><time>2026-04-30T13:21:40.34Z</time></trkpt><trkpt lat="43.1032517" lon="11.51487"><ele>171.0</ele><time>2026-04-30T13:21:41.34Z</time></trkpt><trkpt lat="43.1033333" lon="11.514615"><ele>166.33333333333334</ele><time>2026-04-30T13:21:42.341Z</time></trkpt><trkpt lat="43.1034283" lon="11.5143533"><ele>161.66666666666669</ele><time>2026-04-30T13:21:43.341Z</time></trkpt><trkpt lat="43.1035217" lon="11.514085"><ele>157.0</ele><time>2026-04-30T13:21:44.341Z</time></trkpt><trkpt lat="43.1036167" lon="11.51382"><ele>157.0</ele><time>2026-04-30T13:21:45.34Z</time></trkpt><trkpt lat="43.1036967" lon="11.51355"><ele>157.0</ele><time>2026-04-30T13:21:46.341Z</time></trkpt><trkpt lat="43.1037683" lon="11.5132667"><ele>157.0</ele><time>2026-04-30T13:21:47.341Z</time></trkpt><trkpt lat="43.1038383" lon="11.5130083"><ele>156.66666666666669</ele><time>2026-04-30T13:21:48.34Z</time></trkpt><trkpt lat="43.1039183" lon="11.512745"><ele>156.33333333333334</ele><time>2026-04-30T13:21:49.341Z</time></trkpt><trkpt lat="43.1040033" lon="11.5124783"><ele>156.0</ele><time>2026-04-30T13:21:50.34Z</time></trkpt><trkpt lat="43.1040817" lon="11.5122083"><ele>156.33333333333334</ele><time>2026-04-30T13:21:51.341Z</time></trkpt><trkpt lat="43.1041567" lon="11.5119283"><ele>156.66666666666669</ele><time>2026-04-30T13:21:52.34Z</time></trkpt><trkpt lat="43.10424" lon="11.5116467"><ele>157.0</ele><time>2026-04-30T13:21:53.341Z</time></trkpt><trkpt lat="43.10431" lon="11.5113483"><ele>159.33333333333334</ele><time>2026-04-30T13:21:54.341Z</time></trkpt><trkpt lat="43.104375" lon="11.5110717"><ele>161.66666666666666</ele><time>2026-04-30T13:21:55.341Z</time></trkpt><trkpt lat="43.104445" lon="11.5107933"><ele>164.0</ele><time>2026-04-30T13:21:56.341Z</time></trkpt><trkpt lat="43.1044967" lon="11.5104867"><ele>166.0</ele><time>2026-04-30T13:21:57.34Z</time></trkpt><trkpt lat="43.1045483" lon="11.5101883"><ele>168.0</ele><time>2026-04-30T13:21:58.341Z</time></trkpt><trkpt lat="43.1045983" lon="11.5098883"><ele>170.0</ele><time>2026-04-30T13:21:59.341Z</time></trkpt><trkpt lat="43.1046633" lon="11.509585"><ele>171.5</ele><time>2026-04-30T13:22:00.341Z</time></trkpt><trkpt lat="43.1047233" lon="11.5092683"><ele>173.0</ele><time>2026-04-30T13:22:01.341Z</time></trkpt><trkpt lat="43.1048083" lon="11.5089717"><ele>173.5</ele><time>2026-04-30T13:22:02.341Z</time></trkpt><trkpt lat="43.1048933" lon="11.50866"><ele>174.0</ele><time>2026-04-30T13:22:03.341Z</time></trkpt><trkpt lat="43.1049783" lon="11.5083533"><ele>168.5</ele><time>2026-04-30T13:22:04.34Z</time></trkpt><trkpt lat="43.1050667" lon="11.5080467"><ele>163.0</ele><time>2026-04-30T13:22:05.34Z</time></trkpt><trkpt lat="43.1051533" lon="11.5077233"><ele>163.0</ele><time>2026-04-30T13:22:06.341Z</time></trkpt><trkpt lat="43.1052483" lon="11.5074133"><ele>163.0</ele><time>2026-04-30T13:22:07.341Z</time></trkpt><trkpt lat="43.105335" lon="11.507095"><ele>165.5</ele><time>2026-04-30T13:22:08.341Z</time></trkpt><trkpt lat="43.1054217" lon="11.5067883"><ele>168.0</ele><time>2026-04-30T13:22:09.341Z</time></trkpt><trkpt lat="43.1055033" lon="11.5064967"><ele>168.66666666666666</ele><time>2026-04-30T13:22:10.341Z</time></trkpt><trkpt lat="43.1055817" lon="11.5062217"><ele>169.33333333333331</ele><time>2026-04-30T13:22:11.34Z</time></trkpt><trkpt lat="43.1056567" lon="11.5059467"><ele>170.0</ele><time>2026-04-30T13:22:12.341Z</time></trkpt><trkpt lat="43.10573" lon="11.5056733"><ele>163.0</ele><time>2026-04-30T13:22:13.34Z</time></trkpt><trkpt lat="43.1057633" lon="11.5053717"><ele>156.0</ele><time>2026-04-30T13:22:14.341Z</time></trkpt><trkpt lat="43.1057717" lon="11.5050533"><ele>156.0</ele><time>2026-04-30T13:22:15.34Z</time></trkpt><trkpt lat="43.1057783" lon="11.504745"><ele>156.0</ele><time>2026-04-30T13:22:16.341Z</time></trkpt><trkpt lat="43.105785" lon="11.5044367"><ele>155.5</ele><time>2026-04-30T13:22:17.341Z</time></trkpt><trkpt lat="43.105805" lon="11.5041183"><ele>155.0</ele><time>2026-04-30T13:22:18.34Z</time></trkpt><trkpt lat="43.1058183" lon="11.5037983"><ele>153.5</ele><time>2026-04-30T13:22:19.341Z</time></trkpt><trkpt lat="43.105845" lon="11.5034783"><ele>152.0</ele><time>2026-04-30T13:22:20.341Z</time></trkpt><trkpt lat="43.1058683" lon="11.5031683"><ele>152.5</ele><time>2026-04-30T13:22:21.341Z</time></trkpt><trkpt lat="43.1058933" lon="11.50285"><ele>153.0</ele><time>2026-04-30T13:22:22.341Z</time></trkpt><trkpt lat="43.1059333" lon="11.5025367"><ele>153.0</ele><time>2026-04-30T13:22:23.341Z</time></trkpt><trkpt lat="43.1059517" lon="11.5022117"><ele>153.0</ele><time>2026-04-30T13:22:24.341Z</time></trkpt><trkpt lat="43.1059633" lon="11.50189"><ele>154.5</ele><time>2026-04-30T13:22:25.34Z</time></trkpt><trkpt lat="43.1059833" lon="11.501585"><ele>156.0</ele><time>2026-04-30T13:22:26.341Z</time></trkpt><trkpt lat="43.1060033" lon="11.501265"><ele>157.5</ele><time>2026-04-30T13:22:27.341Z</time></trkpt><trkpt lat="43.1060217" lon="11.5009467"><ele>159.0</ele><time>2026-04-30T13:22:28.34Z</time></trkpt><trkpt lat="43.1060317" lon="11.500635"><ele>159.33333333333334</ele><time>2026-04-30T13:22:29.341Z</time></trkpt><trkpt lat="43.10604" lon="11.5003333"><ele>159.66666666666669</ele><time>2026-04-30T13:22:30.341Z</time></trkpt><trkpt lat="43.1060583" lon="11.5000433"><ele>160.0</ele><time>2026-04-30T13:22:31.341Z</time></trkpt><trkpt lat="43.10607" lon="11.4997783"><ele>161.0</ele><time>2026-04-30T13:22:32.341Z</time></trkpt><trkpt lat="43.10607" lon="11.4995183"><ele>162.0</ele><time>2026-04-30T13:22:33.341Z</time></trkpt><trkpt lat="43.1060883" lon="11.4992633"><ele>163.0</ele><time>2026-04-30T13:22:34.341Z</time></trkpt><trkpt lat="43.1061283" lon="11.49903"><ele>163.0</ele><time>2026-04-30T13:22:35.34Z</time></trkpt><trkpt lat="43.1062183" lon="11.4988017"><ele>163.0</ele><time>2026-04-30T13:22:36.34Z</time></trkpt><trkpt lat="43.1063333" lon="11.4985967"><ele>163.0</ele><time>2026-04-30T13:22:37.341Z</time></trkpt><trkpt lat="43.1064833" lon="11.4984333"><ele>159.33333333333334</ele><time>2026-04-30T13:22:38.341Z</time></trkpt><trkpt lat="43.1066533" lon="11.4983167"><ele>155.66666666666666</ele><time>2026-04-30T13:22:39.34Z</time></trkpt><trkpt lat="43.1068483" lon="11.498235"><ele>152.0</ele><time>2026-04-30T13:22:40.341Z</time></trkpt><trkpt lat="43.1070583" lon="11.498165"><ele>152.0</ele><time>2026-04-30T13:22:41.341Z</time></trkpt><trkpt lat="43.1072817" lon="11.4981017"><ele>152.0</ele><time>2026-04-30T13:22:42.341Z</time></trkpt><trkpt lat="43.107505" lon="11.49803"><ele>150.66666666666666</ele><time>2026-04-30T13:22:43.341Z</time></trkpt><trkpt lat="43.1077183" lon="11.4979617"><ele>149.33333333333334</ele><time>2026-04-30T13:22:44.341Z</time></trkpt><trkpt lat="43.1079283" lon="11.4978983"><ele>148.0</ele><time>2026-04-30T13:22:45.34Z</time></trkpt><trkpt lat="43.1081433" lon="11.4978467"><ele>148.33333333333334</ele><time>2026-04-30T13:22:46.341Z</time></trkpt><trkpt lat="43.1083417" lon="11.49776"><ele>148.66666666666666</ele><time>2026-04-30T13:22:47.341Z</time></trkpt><trkpt lat="43.1084983" lon="11.4976283"><ele>149.0</ele><time>2026-04-30T13:22:48.341Z</time></trkpt><trkpt lat="43.1086233" lon="11.4974583"><ele>149.0</ele><time>2026-04-30T13:22:49.341Z</time></trkpt><trkpt lat="43.1087417" lon="11.4972667"><ele>149.0</ele><time>2026-04-30T13:22:50.341Z</time></trkpt><trkpt lat="43.1088567" lon="11.4970483"><ele>149.0</ele><time>2026-04-30T13:22:51.341Z</time></trkpt><trkpt lat="43.1089633" lon="11.4968117"><ele>149.0</ele><time>2026-04-30T13:22:52.341Z</time></trkpt><trkpt lat="43.1090683" lon="11.496545"><ele>149.0</ele><time>2026-04-30T13:22:53.341Z</time></trkpt><trkpt lat="43.1091767" lon="11.4962833"><ele>149.0</ele><time>2026-04-30T13:22:54.341Z</time></trkpt><trkpt lat="43.1092833" lon="11.496015"><ele>151.0</ele><time>2026-04-30T13:22:55.34Z</time></trkpt><trkpt lat="43.1093917" lon="11.4957417"><ele>153.0</ele><time>2026-04-30T13:22:56.34Z</time></trkpt><trkpt lat="43.109515" lon="11.49546"><ele>150.0</ele><time>2026-04-30T13:22:57.341Z</time></trkpt><trkpt lat="43.10964" lon="11.4951867"><ele>147.0</ele><time>2026-04-30T13:22:58.341Z</time></trkpt><trkpt lat="43.1097483" lon="11.494925"><ele>147.0</ele><time>2026-04-30T13:22:59.341Z</time></trkpt><trkpt lat="43.1098417" lon="11.49467"><ele>147.0</ele><time>2026-04-30T13:23:00.341Z</time></trkpt><trkpt lat="43.1099167" lon="11.4944017"><ele>147.0</ele><time>2026-04-30T13:23:01.341Z</time></trkpt><trkpt lat="43.1099533" lon="11.49413"><ele>149.66666666666666</ele><time>2026-04-30T13:23:02.341Z</time></trkpt><trkpt lat="43.109985" lon="11.493825"><ele>152.33333333333331</ele><time>2026-04-30T13:23:03.341Z</time></trkpt><trkpt lat="43.1100133" lon="11.4935267"><ele>155.0</ele><time>2026-04-30T13:23:04.341Z</time></trkpt><trkpt lat="43.11003" lon="11.4932183"><ele>156.0</ele><time>2026-04-30T13:23:05.341Z</time></trkpt><trkpt lat="43.110035" lon="11.49292"><ele>157.0</ele><time>2026-04-30T13:23:06.341Z</time></trkpt><trkpt lat="43.110045" lon="11.4926383"><ele>158.0</ele><time>2026-04-30T13:23:07.341Z</time></trkpt><trkpt lat="43.11007" lon="11.4923667"><ele>158.0</ele><time>2026-04-30T13:23:08.341Z</time></trkpt><trkpt lat="43.1101217" lon="11.4921167"><ele>158.0</ele><time>2026-04-30T13:23:09.34Z</time></trkpt><trkpt lat="43.1101917" lon="11.4918733"><ele>158.0</ele><time>2026-04-30T13:23:10.341Z</time></trkpt><trkpt lat="43.1102867" lon="11.4916517"><ele>158.0</ele><time>2026-04-30T13:23:11.341Z</time></trkpt><trkpt lat="43.110375" lon="11.49141"><ele>158.0</ele><time>2026-04-30T13:23:12.341Z</time></trkpt><trkpt lat="43.11049" lon="11.4911817"><ele>158.0</ele><time>2026-04-30T13:23:13.341Z</time></trkpt><trkpt lat="43.1106167" lon="11.490965"><ele>160.0</ele><time>2026-04-30T13:23:14.341Z</time></trkpt><trkpt lat="43.1107483" lon="11.4907567"><ele>162.0</ele><time>2026-04-30T13:23:15.341Z</time></trkpt><trkpt lat="43.1109017" lon="11.4905717"><ele>164.0</ele><time>2026-04-30T13:23:16.34Z</time></trkpt><trkpt lat="43.1110567" lon="11.4903783"><ele>164.0</ele><time>2026-04-30T13:23:17.341Z</time></trkpt><trkpt lat="43.111195" lon="11.4901667"><ele>164.0</ele><time>2026-04-30T13:23:18.34Z</time></trkpt><trkpt lat="43.1113217" lon="11.4899367"><ele>164.0</ele><time>2026-04-30T13:23:19.341Z</time></trkpt><trkpt lat="43.1114433" lon="11.489685"><ele>165.33333333333331</ele><time>2026-04-30T13:23:20.341Z</time></trkpt><trkpt lat="43.1115517" lon="11.4894183"><ele>166.66666666666666</ele><time>2026-04-30T13:23:21.341Z</time></trkpt><trkpt lat="43.1116567" lon="11.4891467"><ele>168.0</ele><time>2026-04-30T13:23:22.341Z</time></trkpt><trkpt lat="43.111765" lon="11.4888833"><ele>167.66666666666666</ele><time>2026-04-30T13:23:23.341Z</time></trkpt><trkpt lat="43.111875" lon="11.4886317"><ele>167.33333333333331</ele><time>2026-04-30T13:23:24.341Z</time></trkpt><trkpt lat="43.111995" lon="11.48841"><ele>167.0</ele><time>2026-04-30T13:23:25.34Z</time></trkpt><trkpt lat="43.1121" lon="11.4882"><ele>167.0</ele><time>2026-04-30T13:23:26.341Z</time></trkpt><trkpt lat="43.1121983" lon="11.4879983"><ele>167.0</ele><time>2026-04-30T13:23:27.341Z</time></trkpt><trkpt lat="43.1123" lon="11.4878083"><ele>167.0</ele><time>2026-04-30T13:23:28.34Z</time></trkpt><trkpt lat="43.1124083" lon="11.48762"><ele>169.0</ele><time>2026-04-30T13:23:29.341Z</time></trkpt><trkpt lat="43.11254" lon="11.4874567"><ele>171.0</ele><time>2026-04-30T13:23:30.34Z</time></trkpt><trkpt lat="43.1126917" lon="11.4873133"><ele>173.0</ele><time>2026-04-30T13:23:31.341Z</time></trkpt><trkpt lat="43.1128433" lon="11.48717"><ele>172.33333333333331</ele><time>2026-04-30T13:23:32.34Z</time></trkpt><trkpt lat="43.113" lon="11.4870433"><ele>171.66666666666666</ele><time>2026-04-30T13:23:33.34Z</time></trkpt><trkpt lat="43.1131683" lon="11.4869033"><ele>171.0</ele><time>2026-04-30T13:23:34.341Z</time></trkpt><trkpt lat="43.1133317" lon="11.4867567"><ele>172.33333333333334</ele><time>2026-04-30T13:23:35.34Z</time></trkpt><trkpt lat="43.113495" lon="11.4866167"><ele>173.66666666666669</ele><time>2026-04-30T13:23:36.34Z</time></trkpt><trkpt lat="43.1136583" lon="11.486485"><ele>175.0</ele><time>2026-04-30T13:23:37.341Z</time></trkpt><trkpt lat="43.1137967" lon="11.4863583"><ele>175.33333333333334</ele><time>2026-04-30T13:23:38.341Z</time></trkpt><trkpt lat="43.1139333" lon="11.48625"><ele>175.66666666666666</ele><time>2026-04-30T13:23:39.34Z</time></trkpt><trkpt lat="43.1140683" lon="11.48615"><ele>176.0</ele><time>2026-04-30T13:23:40.341Z</time></trkpt><trkpt lat="43.1141967" lon="11.4860533"><ele>176.0</ele><time>2026-04-30T13:23:41.341Z</time></trkpt><trkpt lat="43.1143167" lon="11.4859717"><ele>176.0</ele><time>2026-04-30T13:23:42.34Z</time></trkpt><trkpt lat="43.11444" lon="11.4858783"><ele>176.0</ele><time>2026-04-30T13:23:43.341Z</time></trkpt><trkpt lat="43.11456" lon="11.48578"><ele>176.0</ele><time>2026-04-30T13:23:44.341Z</time></trkpt><trkpt lat="43.1146883" lon="11.4856833"><ele>176.0</ele><time>2026-04-30T13:23:45.34Z</time></trkpt><trkpt lat="43.1148183" lon="11.4855933"><ele>176.0</ele><time>2026-04-30T13:23:46.341Z</time></trkpt><trkpt lat="43.114935" lon="11.4855033"><ele>176.0</ele><time>2026-04-30T13:23:47.341Z</time></trkpt><trkpt lat="43.115045" lon="11.4854117"><ele>176.0</ele><time>2026-04-30T13:23:48.341Z</time></trkpt><trkpt lat="43.1151583" lon="11.4853183"><ele>175.0</ele><time>2026-04-30T13:23:49.341Z</time></trkpt><trkpt lat="43.1152683" lon="11.4852333"><ele>174.0</ele><time>2026-04-30T13:23:50.34Z</time></trkpt><trkpt lat="43.1153833" lon="11.4851417"><ele>173.0</ele><time>2026-04-30T13:23:51.341Z</time></trkpt><trkpt lat="43.1154867" lon="11.48506"><ele>172.0</ele><time>2026-04-30T13:23:52.341Z</time></trkpt><trkpt lat="43.1155983" lon="11.4849683"><ele>172.0</ele><time>2026-04-30T13:23:53.34Z</time></trkpt><trkpt lat="43.1157133" lon="11.484885"><ele>172.0</ele><time>2026-04-30T13:23:54.341Z</time></trkpt><trkpt lat="43.115815" lon="11.4847917"><ele>172.0</ele><time>2026-04-30T13:23:55.341Z</time></trkpt><trkpt lat="43.1159167" lon="11.4846783"><ele>172.0</ele><time>2026-04-30T13:23:56.341Z</time></trkpt><trkpt lat="43.1160083" lon="11.4845367"><ele>170.5</ele><time>2026-04-30T13:23:57.341Z</time></trkpt><trkpt lat="43.1160783" lon="11.4843767"><ele>169.0</ele><time>2026-04-30T13:23:58.341Z</time></trkpt><trkpt lat="43.1161317" lon="11.4842"><ele>167.5</ele><time>2026-04-30T13:23:59.341Z</time></trkpt><trkpt lat="43.1161717" lon="11.484025"><ele>166.0</ele><time>2026-04-30T13:24:00.34Z</time></trkpt><trkpt lat="43.116215" lon="11.4838633"><ele>165.60000000000002</ele><time>2026-04-30T13:24:01.341Z</time></trkpt><trkpt lat="43.1162767" lon="11.4837367"><ele>165.2</ele><time>2026-04-30T13:24:02.341Z</time></trkpt><trkpt lat="43.1163633" lon="11.4836483"><ele>164.8</ele><time>2026-04-30T13:24:03.341Z</time></trkpt><trkpt lat="43.1164633" lon="11.4836017"><ele>164.39999999999998</ele><time>2026-04-30T13:24:04.341Z</time></trkpt><trkpt lat="43.1165817" lon="11.483615"><ele>164.0</ele><time>2026-04-30T13:24:05.341Z</time></trkpt><trkpt lat="43.1166967" lon="11.4836683"><ele>162.5</ele><time>2026-04-30T13:24:06.341Z</time></trkpt><trkpt lat="43.1168183" lon="11.4837467"><ele>161.0</ele><time>2026-04-30T13:24:07.341Z</time></trkpt><trkpt lat="43.11694" lon="11.483825"><ele>159.5</ele><time>2026-04-30T13:24:08.341Z</time></trkpt><trkpt lat="43.11706" lon="11.4838617"><ele>158.0</ele><time>2026-04-30T13:24:09.341Z</time></trkpt><trkpt lat="43.1171833" lon="11.4839"><ele>158.0</ele><time>2026-04-30T13:24:10.341Z</time></trkpt><trkpt lat="43.11731" lon="11.483915"><ele>158.0</ele><time>2026-04-30T13:24:11.341Z</time></trkpt><trkpt lat="43.1174417" lon="11.4839117"><ele>158.0</ele><time>2026-04-30T13:24:12.34Z</time></trkpt><trkpt lat="43.117585" lon="11.4838867"><ele>158.0</ele><time>2026-04-30T13:24:13.341Z</time></trkpt><trkpt lat="43.1177417" lon="11.4838583"><ele>154.66666666666666</ele><time>2026-04-30T13:24:14.341Z</time></trkpt><trkpt lat="43.1179" lon="11.4838233"><ele>151.33333333333334</ele><time>2026-04-30T13:24:15.341Z</time></trkpt><trkpt lat="43.1180683" lon="11.48379"><ele>148.0</ele><time>2026-04-30T13:24:16.341Z</time></trkpt><trkpt lat="43.1182333" lon="11.483765"><ele>146.33333333333334</ele><time>2026-04-30T13:24:17.341Z</time></trkpt><trkpt lat="43.1183967" lon="11.48374"><ele>144.66666666666666</ele><time>2026-04-30T13:24:18.341Z</time></trkpt><trkpt lat="43.1185667" lon="11.4836983"><ele>143.0</ele><time>2026-04-30T13:24:19.341Z</time></trkpt><trkpt lat="43.1187433" lon="11.483655"><ele>143.0</ele><time>2026-04-30T13:24:20.34Z</time></trkpt><trkpt lat="43.1189083" lon="11.48362"><ele>143.0</ele><time>2026-04-30T13:24:21.341Z</time></trkpt><trkpt lat="43.1190667" lon="11.4835867"><ele>143.0</ele><time>2026-04-30T13:24:22.341Z</time></trkpt><trkpt lat="43.1192233" lon="11.4835483"><ele>142.75</ele><time>2026-04-30T13:24:23.34Z</time></trkpt><trkpt lat="43.119375" lon="11.4835183"><ele>142.5</ele><time>2026-04-30T13:24:24.341Z</time></trkpt><trkpt lat="43.1195217" lon="11.4834933"><ele>142.25</ele><time>2026-04-30T13:24:25.341Z</time></trkpt><trkpt lat="43.1196567" lon="11.4834733"><ele>142.0</ele><time>2026-04-30T13:24:26.341Z</time></trkpt><trkpt lat="43.1197883" lon="11.4834483"><ele>142.0</ele><time>2026-04-30T13:24:27.341Z</time></trkpt><trkpt lat="43.1199167" lon="11.4834233"><ele>142.0</ele><time>2026-04-30T13:24:28.341Z</time></trkpt><trkpt lat="43.1200417" lon="11.4834067"><ele>142.0</ele><time>2026-04-30T13:24:29.341Z</time></trkpt><trkpt lat="43.1201617" lon="11.4833883"><ele>142.0</ele><time>2026-04-30T13:24:30.341Z</time></trkpt><trkpt lat="43.1202783" lon="11.48337"><ele>142.0</ele><time>2026-04-30T13:24:31.341Z</time></trkpt><trkpt lat="43.1203983" lon="11.4833533"><ele>142.0</ele><time>2026-04-30T13:24:32.34Z</time></trkpt><trkpt lat="43.12051" lon="11.4833483"><ele>142.0</ele><time>2026-04-30T13:24:33.341Z</time></trkpt><trkpt lat="43.1206217" lon="11.48334"><ele>142.0</ele><time>2026-04-30T13:24:34.34Z</time></trkpt><trkpt lat="43.12073" lon="11.4833333"><ele>142.25</ele><time>2026-04-30T13:24:35.341Z</time></trkpt><trkpt lat="43.1208483" lon="11.483325"><ele>142.5</ele><time>2026-04-30T13:24:36.341Z</time></trkpt><trkpt lat="43.120965" lon="11.4833133"><ele>142.75</ele><time>2026-04-30T13:24:37.341Z</time></trkpt><trkpt lat="43.12108" lon="11.4833067"><ele>143.0</ele><time>2026-04-30T13:24:38.341Z</time></trkpt><trkpt lat="43.121195" lon="11.4832967"><ele>143.0</ele><time>2026-04-30T13:24:39.34Z</time></trkpt><trkpt lat="43.1213083" lon="11.48329"><ele>143.0</ele><time>2026-04-30T13:24:40.341Z</time></trkpt><trkpt lat="43.121425" lon="11.4832833"><ele>143.0</ele><time>2026-04-30T13:24:41.34Z</time></trkpt><trkpt lat="43.121545" lon="11.4832733"><ele>143.0</ele><time>2026-04-30T13:24:42.341Z</time></trkpt><trkpt lat="43.1216583" lon="11.4832633"><ele>143.25</ele><time>2026-04-30T13:24:43.341Z</time></trkpt><trkpt lat="43.1217733" lon="11.4832483"><ele>143.5</ele><time>2026-04-30T13:24:44.341Z</time></trkpt><trkpt lat="43.1219" lon="11.48323"><ele>143.75</ele><time>2026-04-30T13:24:45.341Z</time></trkpt><trkpt lat="43.122025" lon="11.4832167"><ele>144.0</ele><time>2026-04-30T13:24:46.341Z</time></trkpt><trkpt lat="43.122145" lon="11.4832033"><ele>144.0</ele><time>2026-04-30T13:24:47.34Z</time></trkpt><trkpt lat="43.1222633" lon="11.4831933"><ele>144.0</ele><time>2026-04-30T13:24:48.341Z</time></trkpt><trkpt lat="43.1223833" lon="11.4831767"><ele>144.0</ele><time>2026-04-30T13:24:49.341Z</time></trkpt><trkpt lat="43.1225067" lon="11.48316"><ele>144.0</ele><time>2026-04-30T13:24:50.341Z</time></trkpt><trkpt lat="43.12263" lon="11.48315"><ele>144.75</ele><time>2026-04-30T13:24:51.341Z</time></trkpt><trkpt lat="43.1227483" lon="11.4831367"><ele>145.5</ele><time>2026-04-30T13:24:52.341Z</time></trkpt><trkpt lat="43.122875" lon="11.4831233"><ele>146.25</ele><time>2026-04-30T13:24:53.341Z</time></trkpt><trkpt lat="43.1230067" lon="11.48311"><ele>147.0</ele><time>2026-04-30T13:24:54.34Z</time></trkpt><trkpt lat="43.1231433" lon="11.4831117"><ele>146.5</ele><time>2026-04-30T13:24:55.341Z</time></trkpt><trkpt lat="43.12327" lon="11.4831133"><ele>146.0</ele><time>2026-04-30T13:24:56.341Z</time></trkpt><trkpt lat="43.1234067" lon="11.4831"><ele>145.5</ele><time>2026-04-30T13:24:57.34Z</time></trkpt><trkpt lat="43.12354" lon="11.4830933"><ele>145.0</ele><time>2026-04-30T13:24:58.341Z</time></trkpt><trkpt lat="43.1236717" lon="11.4830783"><ele>145.0</ele><time>2026-04-30T13:24:59.34Z</time></trkpt><trkpt lat="43.1238033" lon="11.483065"><ele>145.0</ele><time>2026-04-30T13:25:00.341Z</time></trkpt><trkpt lat="43.1239383" lon="11.483055"><ele>145.0</ele><time>2026-04-30T13:25:01.34Z</time></trkpt><trkpt lat="43.1240733" lon="11.4830433"><ele>145.0</ele><time>2026-04-30T13:25:02.34Z</time></trkpt><trkpt lat="43.1242067" lon="11.4830367"><ele>144.5</ele><time>2026-04-30T13:25:03.341Z</time></trkpt><trkpt lat="43.124345" lon="11.4830267"><ele>144.0</ele><time>2026-04-30T13:25:04.341Z</time></trkpt><trkpt lat="43.124495" lon="11.4830167"><ele>143.5</ele><time>2026-04-30T13:25:05.34Z</time></trkpt><trkpt lat="43.1246517" lon="11.4830033"><ele>143.0</ele><time>2026-04-30T13:25:06.341Z</time></trkpt><trkpt lat="43.1248133" lon="11.4829833"><ele>143.0</ele><time>2026-04-30T13:25:07.341Z</time></trkpt><trkpt lat="43.1249783" lon="11.482965"><ele>143.0</ele><time>2026-04-30T13:25:08.341Z</time></trkpt><trkpt lat="43.1251433" lon="11.48295"><ele>143.0</ele><time>2026-04-30T13:25:09.341Z</time></trkpt><trkpt lat="43.1253083" lon="11.4829383"><ele>142.66666666666666</ele><time>2026-04-30T13:25:10.341Z</time></trkpt><trkpt lat="43.1254717" lon="11.482925"><ele>142.33333333333334</ele><time>2026-04-30T13:25:11.341Z</time></trkpt><trkpt lat="43.1256383" lon="11.4829067"><ele>142.0</ele><time>2026-04-30T13:25:12.341Z</time></trkpt><trkpt lat="43.125805" lon="11.482885"><ele>142.0</ele><time>2026-04-30T13:25:13.341Z</time></trkpt><trkpt lat="43.12598" lon="11.4828667"><ele>142.0</ele><time>2026-04-30T13:25:14.34Z</time></trkpt><trkpt lat="43.1261467" lon="11.48285"><ele>142.0</ele><time>2026-04-30T13:25:15.341Z</time></trkpt><trkpt lat="43.1263183" lon="11.4828333"><ele>142.0</ele><time>2026-04-30T13:25:16.341Z</time></trkpt><trkpt lat="43.1264883" lon="11.4828183"><ele>142.0</ele><time>2026-04-30T13:25:17.341Z</time></trkpt><trkpt lat="43.12666" lon="11.4828117"><ele>142.0</ele><time>2026-04-30T13:25:18.341Z</time></trkpt><trkpt lat="43.1268317" lon="11.4828033"><ele>142.66666666666669</ele><time>2026-04-30T13:25:19.341Z</time></trkpt><trkpt lat="43.127" lon="11.4827883"><ele>143.33333333333334</ele><time>2026-04-30T13:25:20.341Z</time></trkpt><trkpt lat="43.12716" lon="11.4827767"><ele>144.0</ele><time>2026-04-30T13:25:21.341Z</time></trkpt><trkpt lat="43.1273083" lon="11.4827583"><ele>144.25</ele><time>2026-04-30T13:25:22.341Z</time></trkpt><trkpt lat="43.12745" lon="11.4827483"><ele>144.5</ele><time>2026-04-30T13:25:23.341Z</time></trkpt><trkpt lat="43.1275883" lon="11.4827383"><ele>144.75</ele><time>2026-04-30T13:25:24.34Z</time></trkpt><trkpt lat="43.127725" lon="11.482725"><ele>145.0</ele><time>2026-04-30T13:25:25.341Z</time></trkpt><trkpt lat="43.1278583" lon="11.4827067"><ele>145.0</ele><time>2026-04-30T13:25:26.341Z</time></trkpt><trkpt lat="43.128" lon="11.4826917"><ele>145.0</ele><time>2026-04-30T13:25:27.341Z</time></trkpt><trkpt lat="43.1281483" lon="11.482675"><ele>145.0</ele><time>2026-04-30T13:25:28.341Z</time></trkpt><trkpt lat="43.1282967" lon="11.482665"><ele>145.0</ele><time>2026-04-30T13:25:29.341Z</time></trkpt><trkpt lat="43.12845" lon="11.4826567"><ele>145.0</ele><time>2026-04-30T13:25:30.34Z</time></trkpt><trkpt lat="43.1286067" lon="11.4826417"><ele>145.0</ele><time>2026-04-30T13:25:31.341Z</time></trkpt><trkpt lat="43.128755" lon="11.482625"><ele>145.0</ele><time>2026-04-30T13:25:32.341Z</time></trkpt><trkpt lat="43.1289083" lon="11.4826233"><ele>145.0</ele><time>2026-04-30T13:25:33.34Z</time></trkpt><trkpt lat="43.1290583" lon="11.4826067"><ele>145.0</ele><time>2026-04-30T13:25:34.341Z</time></trkpt><trkpt lat="43.129215" lon="11.4825883"><ele>145.0</ele><time>2026-04-30T13:25:35.341Z</time></trkpt><trkpt lat="43.1293633" lon="11.482575"><ele>144.75</ele><time>2026-04-30T13:25:36.341Z</time></trkpt><trkpt lat="43.1295083" lon="11.482565"><ele>144.5</ele><time>2026-04-30T13:25:37.341Z</time></trkpt><trkpt lat="43.1296517" lon="11.4825483"><ele>144.25</ele><time>2026-04-30T13:25:38.341Z</time></trkpt><trkpt lat="43.1297917" lon="11.4825333"><ele>144.0</ele><time>2026-04-30T13:25:39.34Z</time></trkpt><trkpt lat="43.1299333" lon="11.4825217"><ele>143.5</ele><time>2026-04-30T13:25:40.341Z</time></trkpt><trkpt lat="43.13008" lon="11.4825133"><ele>143.0</ele><time>2026-04-30T13:25:41.341Z</time></trkpt><trkpt lat="43.13023" lon="11.482505"><ele>142.5</ele><time>2026-04-30T13:25:42.341Z</time></trkpt><trkpt lat="43.130375" lon="11.4824983"><ele>142.0</ele><time>2026-04-30T13:25:43.34Z</time></trkpt><trkpt lat="43.1305217" lon="11.4824867"><ele>142.0</ele><time>2026-04-30T13:25:44.341Z</time></trkpt><trkpt lat="43.1306733" lon="11.4824783"><ele>142.0</ele><time>2026-04-30T13:25:45.34Z</time></trkpt><trkpt lat="43.1308267" lon="11.4824667"><ele>142.0</ele><time>2026-04-30T13:25:46.341Z</time></trkpt><trkpt lat="43.130975" lon="11.4824533"><ele>141.75</ele><time>2026-04-30T13:25:47.34Z</time></trkpt><trkpt lat="43.1311167" lon="11.4824367"><ele>141.5</ele><time>2026-04-30T13:25:48.341Z</time></trkpt><trkpt lat="43.1312567" lon="11.48242"><ele>141.25</ele><time>2026-04-30T13:25:49.341Z</time></trkpt><trkpt lat="43.1313967" lon="11.4824117"><ele>141.0</ele><time>2026-04-30T13:25:50.341Z</time></trkpt><trkpt lat="43.1315233" lon="11.4824"><ele>141.75</ele><time>2026-04-30T13:25:51.341Z</time></trkpt><trkpt lat="43.13165" lon="11.4823933"><ele>142.5</ele><time>2026-04-30T13:25:52.34Z</time></trkpt><trkpt lat="43.13177" lon="11.48239"><ele>143.25</ele><time>2026-04-30T13:25:53.341Z</time></trkpt><trkpt lat="43.1318933" lon="11.4824117"><ele>144.0</ele><time>2026-04-30T13:25:54.34Z</time></trkpt><trkpt lat="43.1320117" lon="11.48244"><ele>144.0</ele><time>2026-04-30T13:25:55.341Z</time></trkpt><trkpt lat="43.1321333" lon="11.4824667"><ele>144.0</ele><time>2026-04-30T13:25:56.341Z</time></trkpt><trkpt lat="43.132255" lon="11.4825017"><ele>144.0</ele><time>2026-04-30T13:25:57.341Z</time></trkpt><trkpt lat="43.13238" lon="11.4825417"><ele>144.0</ele><time>2026-04-30T13:25:58.341Z</time></trkpt><trkpt lat="43.1325233" lon="11.4825833"><ele>143.75</ele><time>2026-04-30T13:25:59.341Z</time></trkpt><trkpt lat="43.1326633" lon="11.4826417"><ele>143.5</ele><time>2026-04-30T13:26:00.34Z</time></trkpt><trkpt lat="43.1327917" lon="11.48271"><ele>143.25</ele><time>2026-04-30T13:26:01.341Z</time></trkpt><trkpt lat="43.132925" lon="11.4827633"><ele>143.0</ele><time>2026-04-30T13:26:02.341Z</time></trkpt><trkpt lat="43.1330583" lon="11.4828117"><ele>143.0</ele><time>2026-04-30T13:26:03.341Z</time></trkpt><trkpt lat="43.1331933" lon="11.4828617"><ele>143.0</ele><time>2026-04-30T13:26:04.341Z</time></trkpt><trkpt lat="43.13333" lon="11.48291"><ele>143.0</ele><time>2026-04-30T13:26:05.341Z</time></trkpt><trkpt lat="43.1334633" lon="11.482955"><ele>143.0</ele><time>2026-04-30T13:26:06.341Z</time></trkpt><trkpt lat="43.1335983" lon="11.4829967"><ele>143.5</ele><time>2026-04-30T13:26:07.34Z</time></trkpt><trkpt lat="43.13373" lon="11.4830333"><ele>144.0</ele><time>2026-04-30T13:26:08.341Z</time></trkpt><trkpt lat="43.1338633" lon="11.4830617"><ele>144.5</ele><time>2026-04-30T13:26:09.341Z</time></trkpt><trkpt lat="43.133985" lon="11.4830933"><ele>145.0</ele><time>2026-04-30T13:26:10.341Z</time></trkpt><trkpt lat="43.1341133" lon="11.4831183"><ele>145.0</ele><time>2026-04-30T13:26:11.341Z</time></trkpt><trkpt lat="43.1342317" lon="11.4831367"><ele>145.0</ele><time>2026-04-30T13:26:12.341Z</time></trkpt><trkpt lat="43.1343433" lon="11.48315"><ele>145.0</ele><time>2026-04-30T13:26:13.341Z</time></trkpt><trkpt lat="43.13445" lon="11.4831733"><ele>145.0</ele><time>2026-04-30T13:26:14.341Z</time></trkpt><trkpt lat="43.1345617" lon="11.4831967"><ele>145.0</ele><time>2026-04-30T13:26:15.341Z</time></trkpt><trkpt lat="43.134675" lon="11.4832167"><ele>145.0</ele><time>2026-04-30T13:26:16.341Z</time></trkpt><trkpt lat="43.1347917" lon="11.48324"><ele>145.0</ele><time>2026-04-30T13:26:17.341Z</time></trkpt><trkpt lat="43.1349017" lon="11.483265"><ele>145.0</ele><time>2026-04-30T13:26:18.34Z</time></trkpt><trkpt lat="43.13501" lon="11.4832767"><ele>145.2</ele><time>2026-04-30T13:26:19.341Z</time></trkpt><trkpt lat="43.1351117" lon="11.4832933"><ele>145.4</ele><time>2026-04-30T13:26:20.341Z</time></trkpt><trkpt lat="43.1352083" lon="11.483295"><ele>145.6</ele><time>2026-04-30T13:26:21.341Z</time></trkpt><trkpt lat="43.1353067" lon="11.483315"><ele>145.8</ele><time>2026-04-30T13:26:22.34Z</time></trkpt><trkpt lat="43.1353917" lon="11.4833367"><ele>146.0</ele><time>2026-04-30T13:26:23.341Z</time></trkpt><trkpt lat="43.13546" lon="11.4833617"><ele>146.0</ele><time>2026-04-30T13:26:24.341Z</time></trkpt><trkpt lat="43.1355567" lon="11.4833367"><ele>146.0</ele><time>2026-04-30T13:26:26.34Z</time></trkpt><trkpt lat="43.1355983" lon="11.4832267"><ele>146.0</ele><time>2026-04-30T13:26:28.341Z</time></trkpt><trkpt lat="43.1355867" lon="11.4830567"><ele>146.0</ele><time>2026-04-30T13:26:30.341Z</time></trkpt><trkpt lat="43.1355567" lon="11.4829317"><ele>146.0</ele><time>2026-04-30T13:26:31.34Z</time></trkpt><trkpt lat="43.1355267" lon="11.482805"><ele>145.83333333333331</ele><time>2026-04-30T13:26:32.34Z</time></trkpt><trkpt lat="43.135495" lon="11.4826867"><ele>145.66666666666666</ele><time>2026-04-30T13:26:33.341Z</time></trkpt><trkpt lat="43.135475" lon="11.4825767"><ele>145.5</ele><time>2026-04-30T13:26:34.341Z</time></trkpt><trkpt lat="43.13546" lon="11.48247"><ele>145.33333333333334</ele><time>2026-04-30T13:26:35.341Z</time></trkpt><trkpt lat="43.1354417" lon="11.4823783"><ele>145.16666666666669</ele><time>2026-04-30T13:26:36.341Z</time></trkpt><trkpt lat="43.1354167" lon="11.4822217"><ele>145.0</ele><time>2026-04-30T13:26:38.341Z</time></trkpt><trkpt lat="43.1354067" lon="11.4821217"><ele>145.0</ele><time>2026-04-30T13:26:40.341Z</time></trkpt><trkpt lat="43.1354517" lon="11.48203"><ele>145.0</ele><time>2026-04-30T13:26:43.341Z</time></trkpt><trkpt lat="43.13555" lon="11.48199"><ele>145.0</ele><time>2026-04-30T13:26:45.341Z</time></trkpt><trkpt lat="43.1356233" lon="11.4819733"><ele>145.0</ele><time>2026-04-30T13:26:46.34Z</time></trkpt><trkpt lat="43.1357067" lon="11.4819667"><ele>145.0</ele><time>2026-04-30T13:26:47.341Z</time></trkpt><trkpt lat="43.1357967" lon="11.4819583"><ele>145.0</ele><time>2026-04-30T13:26:48.34Z</time></trkpt><trkpt lat="43.1358917" lon="11.481955"><ele>145.2</ele><time>2026-04-30T13:26:49.34Z</time></trkpt><trkpt lat="43.13599" lon="11.4819483"><ele>145.4</ele><time>2026-04-30T13:26:50.34Z</time></trkpt><trkpt lat="43.1360867" lon="11.4819467"><ele>145.6</ele><time>2026-04-30T13:26:51.341Z</time></trkpt><trkpt lat="43.1361817" lon="11.481935"><ele>145.8</ele><time>2026-04-30T13:26:52.341Z</time></trkpt><trkpt lat="43.13628" lon="11.48193"><ele>146.0</ele><time>2026-04-30T13:26:53.341Z</time></trkpt><trkpt lat="43.13638" lon="11.48193"><ele>146.0</ele><time>2026-04-30T13:26:54.341Z</time></trkpt><trkpt lat="43.136475" lon="11.4819383"><ele>146.0</ele><time>2026-04-30T13:26:55.34Z</time></trkpt><trkpt lat="43.1365467" lon="11.481945"><ele>146.0</ele><time>2026-04-30T13:26:56.341Z</time></trkpt><trkpt lat="43.13661" lon="11.4819383"><ele>146.0</ele><time>2026-04-30T13:26:57.341Z</time></trkpt><trkpt lat="43.1366983" lon="11.4819"><ele>146.0</ele><time>2026-04-30T13:26:59.34Z</time></trkpt><trkpt lat="43.1367383" lon="11.4817933"><ele>146.0</ele><time>2026-04-30T13:27:01.341Z</time></trkpt><trkpt lat="43.1366967" lon="11.4815983"><ele>146.25</ele><time>2026-04-30T13:27:03.34Z</time></trkpt><trkpt lat="43.1366617" lon="11.4814667"><ele>146.5</ele><time>2026-04-30T13:27:04.341Z</time></trkpt><trkpt lat="43.1366083" lon="11.4813117"><ele>146.75</ele><time>2026-04-30T13:27:05.341Z</time></trkpt><trkpt lat="43.1365533" lon="11.481145"><ele>147.0</ele><time>2026-04-30T13:27:06.341Z</time></trkpt><trkpt lat="43.1365083" lon="11.480985"><ele>146.5</ele><time>2026-04-30T13:27:07.341Z</time></trkpt><trkpt lat="43.136465" lon="11.48083"><ele>146.0</ele><time>2026-04-30T13:27:08.34Z</time></trkpt><trkpt lat="43.13643" lon="11.4806833"><ele>145.5</ele><time>2026-04-30T13:27:09.341Z</time></trkpt><trkpt lat="43.1363867" lon="11.4805183"><ele>145.0</ele><time>2026-04-30T13:27:10.34Z</time></trkpt><trkpt lat="43.1363367" lon="11.48034"><ele>144.75</ele><time>2026-04-30T13:27:11.341Z</time></trkpt><trkpt lat="43.136285" lon="11.4801533"><ele>144.5</ele><time>2026-04-30T13:27:12.341Z</time></trkpt><trkpt lat="43.1362383" lon="11.47997"><ele>144.25</ele><time>2026-04-30T13:27:13.341Z</time></trkpt><trkpt lat="43.1361917" lon="11.4797683"><ele>144.0</ele><time>2026-04-30T13:27:14.34Z</time></trkpt><trkpt lat="43.1361333" lon="11.4795683"><ele>144.0</ele><time>2026-04-30T13:27:15.341Z</time></trkpt><trkpt lat="43.136085" lon="11.479355"><ele>144.0</ele><time>2026-04-30T13:27:16.341Z</time></trkpt><trkpt lat="43.1360267" lon="11.4791483"><ele>144.0</ele><time>2026-04-30T13:27:17.341Z</time></trkpt><trkpt lat="43.1359833" lon="11.47894"><ele>144.33333333333334</ele><time>2026-04-30T13:27:18.341Z</time></trkpt><trkpt lat="43.1359283" lon="11.4787183"><ele>144.66666666666669</ele><time>2026-04-30T13:27:19.341Z</time></trkpt><trkpt lat="43.1358783" lon="11.478495"><ele>145.0</ele><time>2026-04-30T13:27:20.341Z</time></trkpt><trkpt lat="43.1358317" lon="11.4782667"><ele>145.0</ele><time>2026-04-30T13:27:21.341Z</time></trkpt><trkpt lat="43.1357817" lon="11.4780467"><ele>145.0</ele><time>2026-04-30T13:27:22.341Z</time></trkpt><trkpt lat="43.1357367" lon="11.4778367"><ele>145.0</ele><time>2026-04-30T13:27:23.341Z</time></trkpt><trkpt lat="43.13571" lon="11.477635"><ele>144.0</ele><time>2026-04-30T13:27:24.341Z</time></trkpt><trkpt lat="43.1356567" lon="11.4774267"><ele>143.0</ele><time>2026-04-30T13:27:25.341Z</time></trkpt><trkpt lat="43.1356017" lon="11.4772017"><ele>142.0</ele><time>2026-04-30T13:27:26.341Z</time></trkpt><trkpt lat="43.135555" lon="11.4769867"><ele>141.33333333333334</ele><time>2026-04-30T13:27:27.341Z</time></trkpt><trkpt lat="43.1355083" lon="11.4767717"><ele>140.66666666666666</ele><time>2026-04-30T13:27:28.34Z</time></trkpt><trkpt lat="43.135465" lon="11.4765683"><ele>140.0</ele><time>2026-04-30T13:27:29.341Z</time></trkpt><trkpt lat="43.13543" lon="11.4763617"><ele>139.33333333333331</ele><time>2026-04-30T13:27:30.34Z</time></trkpt><trkpt lat="43.13538" lon="11.476165"><ele>138.66666666666666</ele><time>2026-04-30T13:27:31.341Z</time></trkpt><trkpt lat="43.1353167" lon="11.4759567"><ele>138.0</ele><time>2026-04-30T13:27:32.341Z</time></trkpt><trkpt lat="43.1352633" lon="11.4757533"><ele>138.0</ele><time>2026-04-30T13:27:33.341Z</time></trkpt><trkpt lat="43.135215" lon="11.47555"><ele>138.0</ele><time>2026-04-30T13:27:34.34Z</time></trkpt><trkpt lat="43.1351667" lon="11.475335"><ele>138.0</ele><time>2026-04-30T13:27:35.341Z</time></trkpt><trkpt lat="43.1351167" lon="11.4751167"><ele>138.0</ele><time>2026-04-30T13:27:36.34Z</time></trkpt><trkpt lat="43.1350667" lon="11.4748867"><ele>138.0</ele><time>2026-04-30T13:27:37.34Z</time></trkpt><trkpt lat="43.1350233" lon="11.47467"><ele>138.0</ele><time>2026-04-30T13:27:38.341Z</time></trkpt><trkpt lat="43.1349783" lon="11.47443"><ele>138.0</ele><time>2026-04-30T13:27:39.34Z</time></trkpt><trkpt lat="43.1349267" lon="11.4741833"><ele>138.0</ele><time>2026-04-30T13:27:40.341Z</time></trkpt><trkpt lat="43.1348817" lon="11.4739467"><ele>138.0</ele><time>2026-04-30T13:27:41.341Z</time></trkpt><trkpt lat="43.1348283" lon="11.4736983"><ele>138.0</ele><time>2026-04-30T13:27:42.341Z</time></trkpt><trkpt lat="43.1347917" lon="11.4734733"><ele>138.0</ele><time>2026-04-30T13:27:43.341Z</time></trkpt><trkpt lat="43.1347617" lon="11.47325"><ele>138.0</ele><time>2026-04-30T13:27:44.341Z</time></trkpt><trkpt lat="43.134725" lon="11.4730283"><ele>138.0</ele><time>2026-04-30T13:27:45.34Z</time></trkpt><trkpt lat="43.1346817" lon="11.4728"><ele>138.0</ele><time>2026-04-30T13:27:46.34Z</time></trkpt><trkpt lat="43.1346333" lon="11.4725683"><ele>138.0</ele><time>2026-04-30T13:27:47.341Z</time></trkpt><trkpt lat="43.1345883" lon="11.47234"><ele>138.0</ele><time>2026-04-30T13:27:48.341Z</time></trkpt><trkpt lat="43.1345433" lon="11.4721167"><ele>138.0</ele><time>2026-04-30T13:27:49.34Z</time></trkpt><trkpt lat="43.1345033" lon="11.47191"><ele>138.0</ele><time>2026-04-30T13:27:50.341Z</time></trkpt><trkpt lat="43.1344517" lon="11.4716983"><ele>138.0</ele><time>2026-04-30T13:27:51.34Z</time></trkpt><trkpt lat="43.1344067" lon="11.4714917"><ele>138.0</ele><time>2026-04-30T13:27:52.34Z</time></trkpt><trkpt lat="43.1343667" lon="11.471285"><ele>138.0</ele><time>2026-04-30T13:27:53.341Z</time></trkpt><trkpt lat="43.1343217" lon="11.47108"><ele>138.66666666666666</ele><time>2026-04-30T13:27:54.341Z</time></trkpt><trkpt lat="43.1342867" lon="11.4708767"><ele>139.33333333333331</ele><time>2026-04-30T13:27:55.341Z</time></trkpt><trkpt lat="43.1342467" lon="11.47067"><ele>140.0</ele><time>2026-04-30T13:27:56.341Z</time></trkpt><trkpt lat="43.1342167" lon="11.470475"><ele>140.33333333333331</ele><time>2026-04-30T13:27:57.34Z</time></trkpt><trkpt lat="43.134175" lon="11.4702733"><ele>140.66666666666666</ele><time>2026-04-30T13:27:58.34Z</time></trkpt><trkpt lat="43.1341267" lon="11.470055"><ele>141.0</ele><time>2026-04-30T13:27:59.341Z</time></trkpt><trkpt lat="43.134095" lon="11.4698433"><ele>141.0</ele><time>2026-04-30T13:28:00.341Z</time></trkpt><trkpt lat="43.1340617" lon="11.469625"><ele>141.0</ele><time>2026-04-30T13:28:01.341Z</time></trkpt><trkpt lat="43.1340217" lon="11.46939"><ele>141.0</ele><time>2026-04-30T13:28:02.341Z</time></trkpt><trkpt lat="43.133975" lon="11.4691467"><ele>141.33333333333334</ele><time>2026-04-30T13:28:03.341Z</time></trkpt><trkpt lat="43.1339283" lon="11.4689133"><ele>141.66666666666669</ele><time>2026-04-30T13:28:04.341Z</time></trkpt><trkpt lat="43.133885" lon="11.4686717"><ele>142.0</ele><time>2026-04-30T13:28:05.34Z</time></trkpt><trkpt lat="43.1338417" lon="11.4684233"><ele>142.0</ele><time>2026-04-30T13:28:06.341Z</time></trkpt><trkpt lat="43.133805" lon="11.4681883"><ele>142.0</ele><time>2026-04-30T13:28:07.34Z</time></trkpt><trkpt lat="43.1337567" lon="11.467935"><ele>142.0</ele><time>2026-04-30T13:28:08.341Z</time></trkpt><trkpt lat="43.1337083" lon="11.4676833"><ele>142.0</ele><time>2026-04-30T13:28:09.341Z</time></trkpt><trkpt lat="43.1336667" lon="11.4674317"><ele>142.0</ele><time>2026-04-30T13:28:10.341Z</time></trkpt><trkpt lat="43.133615" lon="11.4671733"><ele>142.0</ele><time>2026-04-30T13:28:11.341Z</time></trkpt><trkpt lat="43.133565" lon="11.4669117"><ele>142.33333333333334</ele><time>2026-04-30T13:28:12.339Z</time></trkpt><trkpt lat="43.13352" lon="11.4666517"><ele>142.66666666666666</ele><time>2026-04-30T13:28:13.34Z</time></trkpt><trkpt lat="43.13347" lon="11.4663917"><ele>143.0</ele><time>2026-04-30T13:28:14.34Z</time></trkpt><trkpt lat="43.1334167" lon="11.46613"><ele>143.33333333333331</ele><time>2026-04-30T13:28:15.34Z</time></trkpt><trkpt lat="43.1333617" lon="11.4658733"><ele>143.66666666666666</ele><time>2026-04-30T13:28:16.34Z</time></trkpt><trkpt lat="43.1333117" lon="11.4656083"><ele>144.0</ele><time>2026-04-30T13:28:17.339Z</time></trkpt><trkpt lat="43.133265" lon="11.46535"><ele>144.0</ele><time>2026-04-30T13:28:18.34Z</time></trkpt><trkpt lat="43.1332267" lon="11.465105"><ele>144.0</ele><time>2026-04-30T13:28:19.34Z</time></trkpt><trkpt lat="43.1331783" lon="11.46485"><ele>144.0</ele><time>2026-04-30T13:28:20.34Z</time></trkpt><trkpt lat="43.1331267" lon="11.4646067"><ele>144.0</ele><time>2026-04-30T13:28:21.34Z</time></trkpt><trkpt lat="43.1330833" lon="11.4643667"><ele>144.0</ele><time>2026-04-30T13:28:22.339Z</time></trkpt><trkpt lat="43.13303" lon="11.46414"><ele>144.0</ele><time>2026-04-30T13:28:23.34Z</time></trkpt><trkpt lat="43.1329717" lon="11.463925"><ele>144.33333333333334</ele><time>2026-04-30T13:28:24.339Z</time></trkpt><trkpt lat="43.1328967" lon="11.4637267"><ele>144.66666666666669</ele><time>2026-04-30T13:28:25.34Z</time></trkpt><trkpt lat="43.1328133" lon="11.4635417"><ele>145.0</ele><time>2026-04-30T13:28:26.339Z</time></trkpt><trkpt lat="43.1326917" lon="11.4633383"><ele>145.0</ele><time>2026-04-30T13:28:27.339Z</time></trkpt><trkpt lat="43.1325917" lon="11.4631317"><ele>145.0</ele><time>2026-04-30T13:28:28.34Z</time></trkpt><trkpt lat="43.1325067" lon="11.4629267"><ele>145.0</ele><time>2026-04-30T13:28:29.339Z</time></trkpt><trkpt lat="43.1324333" lon="11.4627267"><ele>145.0</ele><time>2026-04-30T13:28:30.34Z</time></trkpt><trkpt lat="43.1323667" lon="11.4625467"><ele>145.0</ele><time>2026-04-30T13:28:31.339Z</time></trkpt><trkpt lat="43.1323083" lon="11.4623783"><ele>145.0</ele><time>2026-04-30T13:28:32.34Z</time></trkpt><trkpt lat="43.1322467" lon="11.4622217"><ele>145.0</ele><time>2026-04-30T13:28:33.34Z</time></trkpt><trkpt lat="43.1321883" lon="11.462085"><ele>145.2</ele><time>2026-04-30T13:28:34.34Z</time></trkpt><trkpt lat="43.1321333" lon="11.461965"><ele>145.4</ele><time>2026-04-30T13:28:35.339Z</time></trkpt><trkpt lat="43.1320733" lon="11.4618533"><ele>145.6</ele><time>2026-04-30T13:28:36.34Z</time></trkpt><trkpt lat="43.13202" lon="11.46176"><ele>145.8</ele><time>2026-04-30T13:28:37.34Z</time></trkpt><trkpt lat="43.1319767" lon="11.46168"><ele>146.0</ele><time>2026-04-30T13:28:38.34Z</time></trkpt><trkpt lat="43.131895" lon="11.4615867"><ele>146.0</ele><time>2026-04-30T13:28:40.34Z</time></trkpt><trkpt lat="43.1317883" lon="11.4615633"><ele>146.0</ele><time>2026-04-30T13:28:42.339Z</time></trkpt><trkpt lat="43.131665" lon="11.4615583"><ele>146.0</ele><time>2026-04-30T13:28:44.339Z</time></trkpt><trkpt lat="43.1315983" lon="11.46156"><ele>146.0</ele><time>2026-04-30T13:28:45.34Z</time></trkpt><trkpt lat="43.1314817" lon="11.46152"><ele>146.0</ele><time>2026-04-30T13:28:47.34Z</time></trkpt><trkpt lat="43.1313717" lon="11.4614417"><ele>145.5</ele><time>2026-04-30T13:28:49.34Z</time></trkpt><trkpt lat="43.13129" lon="11.4613233"><ele>145.0</ele><time>2026-04-30T13:28:51.339Z</time></trkpt><trkpt lat="43.1312433" lon="11.4612467"><ele>144.5</ele><time>2026-04-30T13:28:52.34Z</time></trkpt><trkpt lat="43.1311933" lon="11.4611467"><ele>144.0</ele><time>2026-04-30T13:28:53.34Z</time></trkpt><trkpt lat="43.1311517" lon="11.461065"><ele>143.5</ele><time>2026-04-30T13:28:54.34Z</time></trkpt><trkpt lat="43.13111" lon="11.461"><ele>143.0</ele><time>2026-04-30T13:28:55.34Z</time></trkpt><trkpt lat="43.1310267" lon="11.4608967"><ele>143.0</ele><time>2026-04-30T13:28:57.34Z</time></trkpt><trkpt lat="43.13092" lon="11.4608317"><ele>143.0</ele><time>2026-04-30T13:28:59.34Z</time></trkpt><trkpt lat="43.1308417" lon="11.4608117"><ele>143.0</ele><time>2026-04-30T13:29:01.34Z</time></trkpt><trkpt lat="43.1307433" lon="11.4608017"><ele>143.0</ele><time>2026-04-30T13:29:03.339Z</time></trkpt><trkpt lat="43.1306333" lon="11.46076"><ele>143.0</ele><time>2026-04-30T13:29:05.34Z</time></trkpt><trkpt lat="43.130545" lon="11.460675"><ele>142.83333333333331</ele><time>2026-04-30T13:29:07.34Z</time></trkpt><trkpt lat="43.130485" lon="11.46053"><ele>142.66666666666666</ele><time>2026-04-30T13:29:09.34Z</time></trkpt><trkpt lat="43.1304633" lon="11.4604417"><ele>142.5</ele><time>2026-04-30T13:29:10.34Z</time></trkpt><trkpt lat="43.1304383" lon="11.460335"><ele>142.33333333333334</ele><time>2026-04-30T13:29:11.34Z</time></trkpt><trkpt lat="43.13041" lon="11.4602183"><ele>142.16666666666669</ele><time>2026-04-30T13:29:12.34Z</time></trkpt><trkpt lat="43.130385" lon="11.4601033"><ele>142.0</ele><time>2026-04-30T13:29:13.34Z</time></trkpt><trkpt lat="43.13036" lon="11.4599883"><ele>142.4</ele><time>2026-04-30T13:29:14.339Z</time></trkpt><trkpt lat="43.13033" lon="11.4598617"><ele>142.79999999999998</ele><time>2026-04-30T13:29:15.34Z</time></trkpt><trkpt lat="43.1303067" lon="11.45974"><ele>143.2</ele><time>2026-04-30T13:29:16.34Z</time></trkpt><trkpt lat="43.13028" lon="11.4596067"><ele>143.6</ele><time>2026-04-30T13:29:17.34Z</time></trkpt><trkpt lat="43.130255" lon="11.459475"><ele>144.0</ele><time>2026-04-30T13:29:18.34Z</time></trkpt><trkpt lat="43.1302233" lon="11.4593333"><ele>144.16666666666666</ele><time>2026-04-30T13:29:19.339Z</time></trkpt><trkpt lat="43.1301917" lon="11.4592017"><ele>144.33333333333334</ele><time>2026-04-30T13:29:20.34Z</time></trkpt><trkpt lat="43.1301683" lon="11.459085"><ele>144.5</ele><time>2026-04-30T13:29:21.339Z</time></trkpt><trkpt lat="43.130145" lon="11.45897"><ele>144.66666666666669</ele><time>2026-04-30T13:29:22.34Z</time></trkpt><trkpt lat="43.1301183" lon="11.4588517"><ele>144.83333333333334</ele><time>2026-04-30T13:29:23.34Z</time></trkpt><trkpt lat="43.130095" lon="11.4587467"><ele>145.0</ele><time>2026-04-30T13:29:24.34Z</time></trkpt><trkpt lat="43.1300683" lon="11.4586533"><ele>146.0</ele><time>2026-04-30T13:29:25.34Z</time></trkpt><trkpt lat="43.1300483" lon="11.4585633"><ele>147.0</ele><time>2026-04-30T13:29:26.34Z</time></trkpt><trkpt lat="43.1300417" lon="11.4584167"><ele>148.0</ele><time>2026-04-30T13:29:28.34Z</time></trkpt><trkpt lat="43.1300183" lon="11.45826"><ele>149.0</ele><time>2026-04-30T13:29:30.34Z</time></trkpt><trkpt lat="43.12999" lon="11.458175"><ele>150.0</ele><time>2026-04-30T13:29:31.34Z</time></trkpt><trkpt lat="43.1299417" lon="11.4580883"><ele>151.0</ele><time>2026-04-30T13:29:32.34Z</time></trkpt><trkpt lat="43.12988" lon="11.45798"><ele>153.5</ele><time>2026-04-30T13:29:33.339Z</time></trkpt><trkpt lat="43.12981" lon="11.4578583"><ele>156.0</ele><time>2026-04-30T13:29:34.34Z</time></trkpt><trkpt lat="43.129735" lon="11.457725"><ele>158.5</ele><time>2026-04-30T13:29:35.339Z</time></trkpt><trkpt lat="43.1296633" lon="11.4575867"><ele>161.0</ele><time>2026-04-30T13:29:36.34Z</time></trkpt><trkpt lat="43.1295817" lon="11.457445"><ele>161.0</ele><time>2026-04-30T13:29:37.34Z</time></trkpt><trkpt lat="43.1294967" lon="11.4572933"><ele>161.0</ele><time>2026-04-30T13:29:38.339Z</time></trkpt><trkpt lat="43.1294117" lon="11.4571333"><ele>161.0</ele><time>2026-04-30T13:29:39.34Z</time></trkpt><trkpt lat="43.1293267" lon="11.4569767"><ele>161.0</ele><time>2026-04-30T13:29:40.339Z</time></trkpt><trkpt lat="43.1292283" lon="11.45682"><ele>161.5</ele><time>2026-04-30T13:29:41.34Z</time></trkpt><trkpt lat="43.1291333" lon="11.4566567"><ele>162.0</ele><time>2026-04-30T13:29:42.339Z</time></trkpt><trkpt lat="43.1290417" lon="11.45651"><ele>162.5</ele><time>2026-04-30T13:29:43.34Z</time></trkpt><trkpt lat="43.1289533" lon="11.4563567"><ele>163.0</ele><time>2026-04-30T13:29:44.34Z</time></trkpt><trkpt lat="43.1288767" lon="11.4562133"><ele>166.0</ele><time>2026-04-30T13:29:45.339Z</time></trkpt><trkpt lat="43.1287983" lon="11.456065"><ele>169.0</ele><time>2026-04-30T13:29:46.34Z</time></trkpt><trkpt lat="43.1287233" lon="11.4559083"><ele>172.0</ele><time>2026-04-30T13:29:47.34Z</time></trkpt><trkpt lat="43.1286383" lon="11.45576"><ele>175.0</ele><time>2026-04-30T13:29:48.339Z</time></trkpt><trkpt lat="43.1285517" lon="11.45563"><ele>175.0</ele><time>2026-04-30T13:29:49.34Z</time></trkpt><trkpt lat="43.1284483" lon="11.455515"><ele>175.0</ele><time>2026-04-30T13:29:50.34Z</time></trkpt><trkpt lat="43.1283233" lon="11.4554233"><ele>175.0</ele><time>2026-04-30T13:29:51.34Z</time></trkpt><trkpt lat="43.1281867" lon="11.4553533"><ele>175.0</ele><time>2026-04-30T13:29:52.339Z</time></trkpt><trkpt lat="43.1280467" lon="11.4552917"><ele>179.5</ele><time>2026-04-30T13:29:53.339Z</time></trkpt><trkpt lat="43.1279167" lon="11.455235"><ele>184.0</ele><time>2026-04-30T13:29:54.34Z</time></trkpt><trkpt lat="43.1277867" lon="11.455185"><ele>188.5</ele><time>2026-04-30T13:29:55.34Z</time></trkpt><trkpt lat="43.1276517" lon="11.4551233"><ele>193.0</ele><time>2026-04-30T13:29:56.339Z</time></trkpt><trkpt lat="43.1275233" lon="11.455055"><ele>193.0</ele><time>2026-04-30T13:29:57.34Z</time></trkpt><trkpt lat="43.1273983" lon="11.45499"><ele>193.0</ele><time>2026-04-30T13:29:58.339Z</time></trkpt><trkpt lat="43.1272867" lon="11.4549317"><ele>193.0</ele><time>2026-04-30T13:29:59.339Z</time></trkpt><trkpt lat="43.1271883" lon="11.454845"><ele>193.0</ele><time>2026-04-30T13:30:00.339Z</time></trkpt><trkpt lat="43.127095" lon="11.454735"><ele>198.0</ele><time>2026-04-30T13:30:01.34Z</time></trkpt><trkpt lat="43.1270083" lon="11.4546067"><ele>203.0</ele><time>2026-04-30T13:30:02.34Z</time></trkpt><trkpt lat="43.12694" lon="11.45446"><ele>208.0</ele><time>2026-04-30T13:30:03.34Z</time></trkpt><trkpt lat="43.1268783" lon="11.4543217"><ele>213.0</ele><time>2026-04-30T13:30:04.34Z</time></trkpt><trkpt lat="43.1268333" lon="11.4541933"><ele>213.0</ele><time>2026-04-30T13:30:05.34Z</time></trkpt><trkpt lat="43.126805" lon="11.4540467"><ele>213.0</ele><time>2026-04-30T13:30:06.34Z</time></trkpt><trkpt lat="43.126785" lon="11.4538967"><ele>213.0</ele><time>2026-04-30T13:30:07.34Z</time></trkpt><trkpt lat="43.1267817" lon="11.4537417"><ele>213.0</ele><time>2026-04-30T13:30:08.339Z</time></trkpt><trkpt lat="43.1267783" lon="11.4535883"><ele>213.0</ele><time>2026-04-30T13:30:09.339Z</time></trkpt><trkpt lat="43.1267733" lon="11.45344"><ele>214.2</ele><time>2026-04-30T13:30:10.34Z</time></trkpt><trkpt lat="43.1267683" lon="11.453295"><ele>215.4</ele><time>2026-04-30T13:30:11.339Z</time></trkpt><trkpt lat="43.1267683" lon="11.45315"><ele>216.59999999999997</ele><time>2026-04-30T13:30:12.339Z</time></trkpt><trkpt lat="43.126775" lon="11.45301"><ele>217.79999999999998</ele><time>2026-04-30T13:30:13.34Z</time></trkpt><trkpt lat="43.1267833" lon="11.452855"><ele>219.0</ele><time>2026-04-30T13:30:14.34Z</time></trkpt><trkpt lat="43.1267867" lon="11.4526933"><ele>219.75</ele><time>2026-04-30T13:30:15.34Z</time></trkpt><trkpt lat="43.1267867" lon="11.4525217"><ele>220.5</ele><time>2026-04-30T13:30:16.34Z</time></trkpt><trkpt lat="43.1267783" lon="11.4523433"><ele>221.25</ele><time>2026-04-30T13:30:17.339Z</time></trkpt><trkpt lat="43.1267683" lon="11.45216"><ele>222.0</ele><time>2026-04-30T13:30:18.34Z</time></trkpt><trkpt lat="43.1267533" lon="11.4519733"><ele>222.75</ele><time>2026-04-30T13:30:19.339Z</time></trkpt><trkpt lat="43.1267317" lon="11.4517767"><ele>223.5</ele><time>2026-04-30T13:30:20.339Z</time></trkpt><trkpt lat="43.126705" lon="11.451575"><ele>224.25</ele><time>2026-04-30T13:30:21.339Z</time></trkpt><trkpt lat="43.1266767" lon="11.4513683"><ele>225.0</ele><time>2026-04-30T13:30:22.339Z</time></trkpt><trkpt lat="43.126635" lon="11.45117"><ele>225.0</ele><time>2026-04-30T13:30:23.34Z</time></trkpt><trkpt lat="43.126585" lon="11.4509833"><ele>225.0</ele><time>2026-04-30T13:30:24.339Z</time></trkpt><trkpt lat="43.126525" lon="11.4507967"><ele>225.0</ele><time>2026-04-30T13:30:25.34Z</time></trkpt><trkpt lat="43.1264683" lon="11.4506117"><ele>225.0</ele><time>2026-04-30T13:30:26.34Z</time></trkpt><trkpt lat="43.12642" lon="11.45043"><ele>226.5</ele><time>2026-04-30T13:30:27.34Z</time></trkpt><trkpt lat="43.12637" lon="11.450255"><ele>228.0</ele><time>2026-04-30T13:30:28.34Z</time></trkpt><trkpt lat="43.1263233" lon="11.4500867"><ele>229.5</ele><time>2026-04-30T13:30:29.34Z</time></trkpt><trkpt lat="43.126275" lon="11.4499233"><ele>231.0</ele><time>2026-04-30T13:30:30.34Z</time></trkpt><trkpt lat="43.12623" lon="11.4497517"><ele>233.25</ele><time>2026-04-30T13:30:31.34Z</time></trkpt><trkpt lat="43.126185" lon="11.4496017"><ele>235.5</ele><time>2026-04-30T13:30:32.34Z</time></trkpt><trkpt lat="43.1261183" lon="11.4494667"><ele>237.75</ele><time>2026-04-30T13:30:33.34Z</time></trkpt><trkpt lat="43.1260433" lon="11.449355"><ele>240.0</ele><time>2026-04-30T13:30:34.34Z</time></trkpt><trkpt lat="43.1259567" lon="11.4492733"><ele>240.0</ele><time>2026-04-30T13:30:35.34Z</time></trkpt><trkpt lat="43.125865" lon="11.4492033"><ele>240.0</ele><time>2026-04-30T13:30:36.34Z</time></trkpt><trkpt lat="43.1257667" lon="11.4491533"><ele>240.0</ele><time>2026-04-30T13:30:37.34Z</time></trkpt><trkpt lat="43.1256783" lon="11.449105"><ele>240.0</ele><time>2026-04-30T13:30:38.339Z</time></trkpt><trkpt lat="43.125585" lon="11.44907"><ele>240.0</ele><time>2026-04-30T13:30:39.34Z</time></trkpt><trkpt lat="43.1254833" lon="11.4490417"><ele>239.8</ele><time>2026-04-30T13:30:40.34Z</time></trkpt><trkpt lat="43.125385" lon="11.44901"><ele>239.6</ele><time>2026-04-30T13:30:41.34Z</time></trkpt><trkpt lat="43.1252867" lon="11.44898"><ele>239.39999999999998</ele><time>2026-04-30T13:30:42.34Z</time></trkpt><trkpt lat="43.1251833" lon="11.44896"><ele>239.2</ele><time>2026-04-30T13:30:43.34Z</time></trkpt><trkpt lat="43.1250867" lon="11.4489317"><ele>239.0</ele><time>2026-04-30T13:30:44.339Z</time></trkpt><trkpt lat="43.1249983" lon="11.44889"><ele>239.00000000000003</ele><time>2026-04-30T13:30:45.339Z</time></trkpt><trkpt lat="43.124935" lon="11.4488367"><ele>239.0</ele><time>2026-04-30T13:30:46.34Z</time></trkpt><trkpt lat="43.1248867" lon="11.4487567"><ele>239.0</ele><time>2026-04-30T13:30:47.339Z</time></trkpt><trkpt lat="43.1248633" lon="11.448655"><ele>239.0</ele><time>2026-04-30T13:30:48.34Z</time></trkpt><trkpt lat="43.124865" lon="11.4485433"><ele>239.00000000000003</ele><time>2026-04-30T13:30:49.34Z</time></trkpt><trkpt lat="43.1248983" lon="11.4484333"><ele>239.0</ele><time>2026-04-30T13:30:50.34Z</time></trkpt><trkpt lat="43.1249767" lon="11.4483267"><ele>239.0</ele><time>2026-04-30T13:30:51.34Z</time></trkpt><trkpt lat="43.1250767" lon="11.448205"><ele>239.0</ele><time>2026-04-30T13:30:52.34Z</time></trkpt><trkpt lat="43.1252267" lon="11.4480833"><ele>239.0</ele><time>2026-04-30T13:30:53.34Z</time></trkpt><trkpt lat="43.1253767" lon="11.44795"><ele>237.66666666666669</ele><time>2026-04-30T13:30:54.34Z</time></trkpt><trkpt lat="43.125525" lon="11.4478033"><ele>236.33333333333331</ele><time>2026-04-30T13:30:55.34Z</time></trkpt><trkpt lat="43.1256833" lon="11.447655"><ele>235.0</ele><time>2026-04-30T13:30:56.34Z</time></trkpt><trkpt lat="43.1258383" lon="11.44751"><ele>235.0</ele><time>2026-04-30T13:30:57.34Z</time></trkpt><trkpt lat="43.1259817" lon="11.4473583"><ele>235.0</ele><time>2026-04-30T13:30:58.34Z</time></trkpt><trkpt lat="43.1261317" lon="11.4472033"><ele>235.0</ele><time>2026-04-30T13:30:59.34Z</time></trkpt><trkpt lat="43.1262817" lon="11.4470417"><ele>234.66666666666666</ele><time>2026-04-30T13:31:00.34Z</time></trkpt><trkpt lat="43.12643" lon="11.4468833"><ele>234.33333333333331</ele><time>2026-04-30T13:31:01.34Z</time></trkpt><trkpt lat="43.1265667" lon="11.4467467"><ele>234.0</ele><time>2026-04-30T13:31:02.34Z</time></trkpt><trkpt lat="43.12669" lon="11.4466117"><ele>235.0</ele><time>2026-04-30T13:31:03.34Z</time></trkpt><trkpt lat="43.1268" lon="11.4464483"><ele>236.0</ele><time>2026-04-30T13:31:04.34Z</time></trkpt><trkpt lat="43.1268883" lon="11.4462683"><ele>237.0</ele><time>2026-04-30T13:31:05.34Z</time></trkpt><trkpt lat="43.1269467" lon="11.4460667"><ele>238.66666666666669</ele><time>2026-04-30T13:31:06.34Z</time></trkpt><trkpt lat="43.12701" lon="11.445845"><ele>240.33333333333334</ele><time>2026-04-30T13:31:07.34Z</time></trkpt><trkpt lat="43.1270717" lon="11.4456267"><ele>242.0</ele><time>2026-04-30T13:31:08.34Z</time></trkpt><trkpt lat="43.127145" lon="11.4454017"><ele>242.33333333333334</ele><time>2026-04-30T13:31:09.339Z</time></trkpt><trkpt lat="43.1272433" lon="11.4451733"><ele>242.66666666666669</ele><time>2026-04-30T13:31:10.339Z</time></trkpt><trkpt lat="43.1273733" lon="11.4449783"><ele>243.0</ele><time>2026-04-30T13:31:11.34Z</time></trkpt><trkpt lat="43.1275217" lon="11.4448083"><ele>243.0</ele><time>2026-04-30T13:31:12.34Z</time></trkpt><trkpt lat="43.127685" lon="11.4446533"><ele>243.0</ele><time>2026-04-30T13:31:13.339Z</time></trkpt><trkpt lat="43.1278617" lon="11.4445"><ele>243.0</ele><time>2026-04-30T13:31:14.339Z</time></trkpt><trkpt lat="43.1280483" lon="11.4443467"><ele>245.33333333333331</ele><time>2026-04-30T13:31:15.34Z</time></trkpt><trkpt lat="43.1282283" lon="11.444185"><ele>247.66666666666666</ele><time>2026-04-30T13:31:16.34Z</time></trkpt><trkpt lat="43.1284067" lon="11.444025"><ele>250.0</ele><time>2026-04-30T13:31:17.34Z</time></trkpt><trkpt lat="43.1285833" lon="11.4438633"><ele>250.0</ele><time>2026-04-30T13:31:18.34Z</time></trkpt><trkpt lat="43.1287567" lon="11.4436917"><ele>250.0</ele><time>2026-04-30T13:31:19.339Z</time></trkpt><trkpt lat="43.128925" lon="11.443505"><ele>250.0</ele><time>2026-04-30T13:31:20.34Z</time></trkpt><trkpt lat="43.1290983" lon="11.4433017"><ele>250.0</ele><time>2026-04-30T13:31:21.339Z</time></trkpt><trkpt lat="43.12927" lon="11.4431217"><ele>250.0</ele><time>2026-04-30T13:31:22.34Z</time></trkpt><trkpt lat="43.129425" lon="11.442935"><ele>250.0</ele><time>2026-04-30T13:31:23.34Z</time></trkpt><trkpt lat="43.12957" lon="11.4427533"><ele>250.0</ele><time>2026-04-30T13:31:24.34Z</time></trkpt><trkpt lat="43.129705" lon="11.44258"><ele>250.0</ele><time>2026-04-30T13:31:25.339Z</time></trkpt><trkpt lat="43.1298283" lon="11.4424"><ele>250.0</ele><time>2026-04-30T13:31:26.34Z</time></trkpt><trkpt lat="43.1299467" lon="11.442235"><ele>250.66666666666666</ele><time>2026-04-30T13:31:27.339Z</time></trkpt><trkpt lat="43.1300483" lon="11.4420567"><ele>251.33333333333331</ele><time>2026-04-30T13:31:28.34Z</time></trkpt><trkpt lat="43.1301333" lon="11.4418533"><ele>252.0</ele><time>2026-04-30T13:31:29.34Z</time></trkpt><trkpt lat="43.130185" lon="11.441635"><ele>252.0</ele><time>2026-04-30T13:31:30.34Z</time></trkpt><trkpt lat="43.130185" lon="11.4413833"><ele>252.0</ele><time>2026-04-30T13:31:31.339Z</time></trkpt><trkpt lat="43.13019" lon="11.441135"><ele>252.0</ele><time>2026-04-30T13:31:32.34Z</time></trkpt><trkpt lat="43.1301833" lon="11.44087"><ele>252.0</ele><time>2026-04-30T13:31:33.34Z</time></trkpt><trkpt lat="43.1301467" lon="11.4405867"><ele>252.0</ele><time>2026-04-30T13:31:34.339Z</time></trkpt><trkpt lat="43.1301267" lon="11.4402933"><ele>252.0</ele><time>2026-04-30T13:31:35.339Z</time></trkpt><trkpt lat="43.1301133" lon="11.4400017"><ele>252.0</ele><time>2026-04-30T13:31:36.34Z</time></trkpt><trkpt lat="43.1301067" lon="11.4397017"><ele>252.0</ele><time>2026-04-30T13:31:37.34Z</time></trkpt><trkpt lat="43.1300833" lon="11.439395"><ele>252.0</ele><time>2026-04-30T13:31:38.34Z</time></trkpt><trkpt lat="43.13007" lon="11.43909"><ele>249.5</ele><time>2026-04-30T13:31:39.34Z</time></trkpt><trkpt lat="43.1300633" lon="11.4387817"><ele>247.0</ele><time>2026-04-30T13:31:40.339Z</time></trkpt><trkpt lat="43.130045" lon="11.438465"><ele>247.0</ele><time>2026-04-30T13:31:41.34Z</time></trkpt><trkpt lat="43.1300317" lon="11.4381517"><ele>247.0</ele><time>2026-04-30T13:31:42.339Z</time></trkpt><trkpt lat="43.1300267" lon="11.437845"><ele>247.33333333333331</ele><time>2026-04-30T13:31:43.34Z</time></trkpt><trkpt lat="43.1300183" lon="11.4375683"><ele>247.66666666666669</ele><time>2026-04-30T13:31:44.34Z</time></trkpt><trkpt lat="43.1300167" lon="11.4372917"><ele>248.0</ele><time>2026-04-30T13:31:45.34Z</time></trkpt><trkpt lat="43.1300017" lon="11.4370117"><ele>248.0</ele><time>2026-04-30T13:31:46.34Z</time></trkpt><trkpt lat="43.1299817" lon="11.4367517"><ele>248.0</ele><time>2026-04-30T13:31:47.34Z</time></trkpt><trkpt lat="43.1299567" lon="11.4365"><ele>248.0</ele><time>2026-04-30T13:31:48.339Z</time></trkpt><trkpt lat="43.1299033" lon="11.4362417"><ele>249.0</ele><time>2026-04-30T13:31:49.34Z</time></trkpt><trkpt lat="43.1298367" lon="11.4360017"><ele>250.0</ele><time>2026-04-30T13:31:50.339Z</time></trkpt><trkpt lat="43.12976" lon="11.4357717"><ele>251.0</ele><time>2026-04-30T13:31:51.34Z</time></trkpt><trkpt lat="43.1296583" lon="11.4355483"><ele>252.33333333333334</ele><time>2026-04-30T13:31:52.34Z</time></trkpt><trkpt lat="43.12955" lon="11.4353183"><ele>253.66666666666669</ele><time>2026-04-30T13:31:53.34Z</time></trkpt><trkpt lat="43.12944" lon="11.43512"><ele>255.0</ele><time>2026-04-30T13:31:54.34Z</time></trkpt><trkpt lat="43.1293167" lon="11.4349183"><ele>255.0</ele><time>2026-04-30T13:31:55.339Z</time></trkpt><trkpt lat="43.1292083" lon="11.434715"><ele>255.0</ele><time>2026-04-30T13:31:56.34Z</time></trkpt><trkpt lat="43.1291" lon="11.4345167"><ele>255.0</ele><time>2026-04-30T13:31:57.34Z</time></trkpt><trkpt lat="43.1290017" lon="11.4343283"><ele>257.0</ele><time>2026-04-30T13:31:58.34Z</time></trkpt><trkpt lat="43.1289117" lon="11.4341233"><ele>259.0</ele><time>2026-04-30T13:31:59.339Z</time></trkpt><trkpt lat="43.1288317" lon="11.4339067"><ele>261.0</ele><time>2026-04-30T13:32:00.34Z</time></trkpt><trkpt lat="43.128775" lon="11.4336783"><ele>261.0</ele><time>2026-04-30T13:32:01.34Z</time></trkpt><trkpt lat="43.1287333" lon="11.43343"><ele>261.0</ele><time>2026-04-30T13:32:02.34Z</time></trkpt><trkpt lat="43.1287033" lon="11.4331783"><ele>261.0</ele><time>2026-04-30T13:32:03.339Z</time></trkpt><trkpt lat="43.12868" lon="11.4329367"><ele>261.0</ele><time>2026-04-30T13:32:04.339Z</time></trkpt><trkpt lat="43.12866" lon="11.4327033"><ele>261.0</ele><time>2026-04-30T13:32:05.34Z</time></trkpt><trkpt lat="43.1286467" lon="11.4324767"><ele>261.0</ele><time>2026-04-30T13:32:06.34Z</time></trkpt><trkpt lat="43.128645" lon="11.43224"><ele>261.0</ele><time>2026-04-30T13:32:07.339Z</time></trkpt><trkpt lat="43.1286617" lon="11.43201"><ele>261.0</ele><time>2026-04-30T13:32:08.34Z</time></trkpt><trkpt lat="43.1286967" lon="11.4317917"><ele>261.0</ele><time>2026-04-30T13:32:09.34Z</time></trkpt><trkpt lat="43.128745" lon="11.431565"><ele>261.0</ele><time>2026-04-30T13:32:10.34Z</time></trkpt><trkpt lat="43.128805" lon="11.4313133"><ele>261.0</ele><time>2026-04-30T13:32:11.34Z</time></trkpt><trkpt lat="43.1288667" lon="11.4310617"><ele>261.0</ele><time>2026-04-30T13:32:12.339Z</time></trkpt><trkpt lat="43.128935" lon="11.4308"><ele>259.6666666666667</ele><time>2026-04-30T13:32:13.339Z</time></trkpt><trkpt lat="43.1289983" lon="11.43055"><ele>258.33333333333337</ele><time>2026-04-30T13:32:14.339Z</time></trkpt><trkpt lat="43.129065" lon="11.4302717"><ele>257.0</ele><time>2026-04-30T13:32:15.34Z</time></trkpt><trkpt lat="43.12914" lon="11.4299933"><ele>254.66666666666669</ele><time>2026-04-30T13:32:16.339Z</time></trkpt><trkpt lat="43.1292183" lon="11.4297267"><ele>252.33333333333331</ele><time>2026-04-30T13:32:17.339Z</time></trkpt><trkpt lat="43.129295" lon="11.4294567"><ele>250.0</ele><time>2026-04-30T13:32:18.34Z</time></trkpt><trkpt lat="43.1293633" lon="11.4291967"><ele>250.66666666666666</ele><time>2026-04-30T13:32:19.34Z</time></trkpt><trkpt lat="43.1294317" lon="11.4289417"><ele>251.33333333333331</ele><time>2026-04-30T13:32:20.34Z</time></trkpt><trkpt lat="43.129515" lon="11.4287067"><ele>252.0</ele><time>2026-04-30T13:32:21.34Z</time></trkpt><trkpt lat="43.1296167" lon="11.4284817"><ele>252.0</ele><time>2026-04-30T13:32:22.339Z</time></trkpt><trkpt lat="43.12974" lon="11.42828"><ele>252.0</ele><time>2026-04-30T13:32:23.34Z</time></trkpt><trkpt lat="43.1298933" lon="11.4280783"><ele>252.0</ele><time>2026-04-30T13:32:24.34Z</time></trkpt><trkpt lat="43.1300467" lon="11.4279033"><ele>250.33333333333331</ele><time>2026-04-30T13:32:25.34Z</time></trkpt><trkpt lat="43.1302117" lon="11.42773"><ele>248.66666666666666</ele><time>2026-04-30T13:32:26.34Z</time></trkpt><trkpt lat="43.130365" lon="11.4275517"><ele>247.0</ele><time>2026-04-30T13:32:27.34Z</time></trkpt><trkpt lat="43.1305" lon="11.4273933"><ele>247.0</ele><time>2026-04-30T13:32:28.34Z</time></trkpt><trkpt lat="43.130635" lon="11.427245"><ele>247.0</ele><time>2026-04-30T13:32:29.339Z</time></trkpt><trkpt lat="43.130755" lon="11.4270933"><ele>247.0</ele><time>2026-04-30T13:32:30.34Z</time></trkpt><trkpt lat="43.1308667" lon="11.4269333"><ele>247.75</ele><time>2026-04-30T13:32:31.34Z</time></trkpt><trkpt lat="43.1309883" lon="11.4268217"><ele>248.5</ele><time>2026-04-30T13:32:32.339Z</time></trkpt><trkpt lat="43.1311167" lon="11.4267183"><ele>249.25</ele><time>2026-04-30T13:32:33.34Z</time></trkpt><trkpt lat="43.1312633" lon="11.4266583"><ele>250.0</ele><time>2026-04-30T13:32:34.34Z</time></trkpt><trkpt lat="43.1314133" lon="11.4266067"><ele>249.66666666666666</ele><time>2026-04-30T13:32:35.34Z</time></trkpt><trkpt lat="43.13158" lon="11.426575"><ele>249.33333333333331</ele><time>2026-04-30T13:32:36.34Z</time></trkpt><trkpt lat="43.13176" lon="11.4265467"><ele>249.0</ele><time>2026-04-30T13:32:37.34Z</time></trkpt><trkpt lat="43.1319583" lon="11.42655"><ele>249.0</ele><time>2026-04-30T13:32:38.339Z</time></trkpt><trkpt lat="43.1321417" lon="11.4265467"><ele>249.0</ele><time>2026-04-30T13:32:39.339Z</time></trkpt><trkpt lat="43.1323217" lon="11.4265383"><ele>249.0</ele><time>2026-04-30T13:32:40.34Z</time></trkpt><trkpt lat="43.13249" lon="11.426525"><ele>248.75</ele><time>2026-04-30T13:32:41.339Z</time></trkpt><trkpt lat="43.1326533" lon="11.4265283"><ele>248.5</ele><time>2026-04-30T13:32:42.34Z</time></trkpt><trkpt lat="43.1327817" lon="11.4265317"><ele>248.25</ele><time>2026-04-30T13:32:43.34Z</time></trkpt><trkpt lat="43.1329117" lon="11.4265317"><ele>248.0</ele><time>2026-04-30T13:32:44.34Z</time></trkpt><trkpt lat="43.133045" lon="11.4265233"><ele>248.0</ele><time>2026-04-30T13:32:45.339Z</time></trkpt><trkpt lat="43.133175" lon="11.4265083"><ele>248.0</ele><time>2026-04-30T13:32:46.339Z</time></trkpt><trkpt lat="43.1333217" lon="11.426495"><ele>248.0</ele><time>2026-04-30T13:32:47.34Z</time></trkpt><trkpt lat="43.1334783" lon="11.42649"><ele>248.0</ele><time>2026-04-30T13:32:48.34Z</time></trkpt><trkpt lat="43.1336367" lon="11.4264517"><ele>248.33333333333334</ele><time>2026-04-30T13:32:49.34Z</time></trkpt><trkpt lat="43.1338083" lon="11.42639"><ele>248.66666666666669</ele><time>2026-04-30T13:32:50.34Z</time></trkpt><trkpt lat="43.133955" lon="11.4262733"><ele>249.0</ele><time>2026-04-30T13:32:51.34Z</time></trkpt><trkpt lat="43.1341067" lon="11.42614"><ele>247.33333333333331</ele><time>2026-04-30T13:32:52.339Z</time></trkpt><trkpt lat="43.13425" lon="11.4259933"><ele>245.66666666666666</ele><time>2026-04-30T13:32:53.34Z</time></trkpt><trkpt lat="43.134395" lon="11.4258433"><ele>244.0</ele><time>2026-04-30T13:32:54.34Z</time></trkpt><trkpt lat="43.1345483" lon="11.4256833"><ele>244.0</ele><time>2026-04-30T13:32:55.34Z</time></trkpt><trkpt lat="43.1347267" lon="11.425485"><ele>244.0</ele><time>2026-04-30T13:32:56.339Z</time></trkpt><trkpt lat="43.1348833" lon="11.4252967"><ele>244.0</ele><time>2026-04-30T13:32:57.339Z</time></trkpt><trkpt lat="43.1350233" lon="11.425115"><ele>238.0</ele><time>2026-04-30T13:32:58.34Z</time></trkpt><trkpt lat="43.1351883" lon="11.4249517"><ele>232.0</ele><time>2026-04-30T13:32:59.34Z</time></trkpt><trkpt lat="43.1353417" lon="11.42479"><ele>226.0</ele><time>2026-04-30T13:33:00.339Z</time></trkpt><trkpt lat="43.1354817" lon="11.42464"><ele>223.66666666666666</ele><time>2026-04-30T13:33:01.34Z</time></trkpt><trkpt lat="43.1356183" lon="11.4244917"><ele>221.33333333333331</ele><time>2026-04-30T13:33:02.339Z</time></trkpt><trkpt lat="43.13575" lon="11.4243483"><ele>219.0</ele><time>2026-04-30T13:33:03.34Z</time></trkpt><trkpt lat="43.1358917" lon="11.424205"><ele>217.66666666666669</ele><time>2026-04-30T13:33:04.34Z</time></trkpt><trkpt lat="43.1360217" lon="11.4240567"><ele>216.33333333333334</ele><time>2026-04-30T13:33:05.34Z</time></trkpt><trkpt lat="43.1361567" lon="11.4239317"><ele>215.0</ele><time>2026-04-30T13:33:06.34Z</time></trkpt><trkpt lat="43.13625" lon="11.4237683"><ele>213.0</ele><time>2026-04-30T13:33:07.339Z</time></trkpt><trkpt lat="43.1363233" lon="11.4235933"><ele>211.0</ele><time>2026-04-30T13:33:08.34Z</time></trkpt><trkpt lat="43.136405" lon="11.4234"><ele>209.0</ele><time>2026-04-30T13:33:09.34Z</time></trkpt><trkpt lat="43.1364917" lon="11.4232017"><ele>208.66666666666669</ele><time>2026-04-30T13:33:10.339Z</time></trkpt><trkpt lat="43.1365967" lon="11.4230267"><ele>208.33333333333331</ele><time>2026-04-30T13:33:11.339Z</time></trkpt><trkpt lat="43.13671" lon="11.42287"><ele>208.0</ele><time>2026-04-30T13:33:12.34Z</time></trkpt><trkpt lat="43.1368533" lon="11.4227683"><ele>208.0</ele><time>2026-04-30T13:33:13.34Z</time></trkpt><trkpt lat="43.13701" lon="11.422685"><ele>208.0</ele><time>2026-04-30T13:33:14.339Z</time></trkpt><trkpt lat="43.1371817" lon="11.4226283"><ele>208.0</ele><time>2026-04-30T13:33:15.34Z</time></trkpt><trkpt lat="43.137355" lon="11.4225917"><ele>208.0</ele><time>2026-04-30T13:33:16.34Z</time></trkpt><trkpt lat="43.1375267" lon="11.422525"><ele>208.0</ele><time>2026-04-30T13:33:17.34Z</time></trkpt><trkpt lat="43.1376817" lon="11.4224133"><ele>208.0</ele><time>2026-04-30T13:33:18.34Z</time></trkpt><trkpt lat="43.1378233" lon="11.4222683"><ele>205.66666666666666</ele><time>2026-04-30T13:33:19.34Z</time></trkpt><trkpt lat="43.1379483" lon="11.42209"><ele>203.33333333333331</ele><time>2026-04-30T13:33:20.34Z</time></trkpt><trkpt lat="43.1380433" lon="11.421885"><ele>201.0</ele><time>2026-04-30T13:33:21.339Z</time></trkpt><trkpt lat="43.1381433" lon="11.4216883"><ele>201.0</ele><time>2026-04-30T13:33:22.339Z</time></trkpt><trkpt lat="43.1382517" lon="11.42151"><ele>201.0</ele><time>2026-04-30T13:33:23.34Z</time></trkpt><trkpt lat="43.1383867" lon="11.42138"><ele>201.0</ele><time>2026-04-30T13:33:24.34Z</time></trkpt><trkpt lat="43.1385433" lon="11.4212967"><ele>201.0</ele><time>2026-04-30T13:33:25.34Z</time></trkpt><trkpt lat="43.1387133" lon="11.4212333"><ele>201.0</ele><time>2026-04-30T13:33:26.34Z</time></trkpt><trkpt lat="43.1388833" lon="11.4211633"><ele>201.0</ele><time>2026-04-30T13:33:27.34Z</time></trkpt><trkpt lat="43.1390467" lon="11.421095"><ele>200.66666666666669</ele><time>2026-04-30T13:33:28.339Z</time></trkpt><trkpt lat="43.139205" lon="11.4210117"><ele>200.33333333333334</ele><time>2026-04-30T13:33:29.34Z</time></trkpt><trkpt lat="43.1393633" lon="11.42092"><ele>200.0</ele><time>2026-04-30T13:33:30.34Z</time></trkpt><trkpt lat="43.1395283" lon="11.4208383"><ele>200.0</ele><time>2026-04-30T13:33:31.34Z</time></trkpt><trkpt lat="43.1396867" lon="11.4207867"><ele>200.0</ele><time>2026-04-30T13:33:32.34Z</time></trkpt><trkpt lat="43.139845" lon="11.4207583"><ele>200.0</ele><time>2026-04-30T13:33:33.34Z</time></trkpt><trkpt lat="43.1399983" lon="11.4207383"><ele>199.66666666666669</ele><time>2026-04-30T13:33:34.339Z</time></trkpt><trkpt lat="43.14015" lon="11.4207417"><ele>199.33333333333331</ele><time>2026-04-30T13:33:35.339Z</time></trkpt><trkpt lat="43.1403067" lon="11.4207717"><ele>199.0</ele><time>2026-04-30T13:33:36.34Z</time></trkpt><trkpt lat="43.1404433" lon="11.4208333"><ele>199.0</ele><time>2026-04-30T13:33:37.34Z</time></trkpt><trkpt lat="43.14057" lon="11.420925"><ele>199.0</ele><time>2026-04-30T13:33:38.34Z</time></trkpt><trkpt lat="43.1407" lon="11.421025"><ele>199.0</ele><time>2026-04-30T13:33:39.34Z</time></trkpt><trkpt lat="43.140825" lon="11.421145"><ele>199.0</ele><time>2026-04-30T13:33:40.34Z</time></trkpt><trkpt lat="43.1409367" lon="11.421265"><ele>198.75</ele><time>2026-04-30T13:33:41.34Z</time></trkpt><trkpt lat="43.1410383" lon="11.4213983"><ele>198.5</ele><time>2026-04-30T13:33:42.34Z</time></trkpt><trkpt lat="43.1411517" lon="11.4215083"><ele>198.25</ele><time>2026-04-30T13:33:43.339Z</time></trkpt><trkpt lat="43.14127" lon="11.4215983"><ele>198.0</ele><time>2026-04-30T13:33:44.339Z</time></trkpt><trkpt lat="43.1413933" lon="11.42166"><ele>196.75</ele><time>2026-04-30T13:33:45.339Z</time></trkpt><trkpt lat="43.1415517" lon="11.4216867"><ele>195.5</ele><time>2026-04-30T13:33:46.339Z</time></trkpt><trkpt lat="43.1416967" lon="11.4216767"><ele>194.25</ele><time>2026-04-30T13:33:47.34Z</time></trkpt><trkpt lat="43.1418217" lon="11.4216417"><ele>193.0</ele><time>2026-04-30T13:33:48.34Z</time></trkpt><trkpt lat="43.14194" lon="11.42159"><ele>193.0</ele><time>2026-04-30T13:33:49.339Z</time></trkpt><trkpt lat="43.1420567" lon="11.4215367"><ele>193.0</ele><time>2026-04-30T13:33:50.34Z</time></trkpt><trkpt lat="43.14218" lon="11.42149"><ele>193.0</ele><time>2026-04-30T13:33:51.34Z</time></trkpt><trkpt lat="43.14229" lon="11.42145"><ele>193.0</ele><time>2026-04-30T13:33:52.34Z</time></trkpt><trkpt lat="43.1424017" lon="11.4214267"><ele>194.25</ele><time>2026-04-30T13:33:53.34Z</time></trkpt><trkpt lat="43.1425183" lon="11.4214283"><ele>195.5</ele><time>2026-04-30T13:33:54.34Z</time></trkpt><trkpt lat="43.1426417" lon="11.42145"><ele>196.75</ele><time>2026-04-30T13:33:55.34Z</time></trkpt><trkpt lat="43.1427533" lon="11.42148"><ele>198.0</ele><time>2026-04-30T13:33:56.34Z</time></trkpt><trkpt lat="43.1428583" lon="11.4215067"><ele>198.0</ele><time>2026-04-30T13:33:57.339Z</time></trkpt><trkpt lat="43.14298" lon="11.4215533"><ele>198.0</ele><time>2026-04-30T13:33:58.339Z</time></trkpt><trkpt lat="43.1431017" lon="11.421605"><ele>198.0</ele><time>2026-04-30T13:33:59.34Z</time></trkpt><trkpt lat="43.1432217" lon="11.4216517"><ele>198.0</ele><time>2026-04-30T13:34:00.34Z</time></trkpt><trkpt lat="43.1433417" lon="11.4217"><ele>198.25</ele><time>2026-04-30T13:34:01.34Z</time></trkpt><trkpt lat="43.143465" lon="11.4217417"><ele>198.5</ele><time>2026-04-30T13:34:02.34Z</time></trkpt><trkpt lat="43.143585" lon="11.4217833"><ele>198.75</ele><time>2026-04-30T13:34:03.339Z</time></trkpt><trkpt lat="43.1437083" lon="11.42181"><ele>199.0</ele><time>2026-04-30T13:34:04.34Z</time></trkpt><trkpt lat="43.1438233" lon="11.4218233"><ele>199.0</ele><time>2026-04-30T13:34:05.34Z</time></trkpt><trkpt lat="43.1439383" lon="11.4218367"><ele>199.0</ele><time>2026-04-30T13:34:06.34Z</time></trkpt><trkpt lat="43.1440667" lon="11.4218383"><ele>199.0</ele><time>2026-04-30T13:34:07.339Z</time></trkpt><trkpt lat="43.1441933" lon="11.4218283"><ele>199.0</ele><time>2026-04-30T13:34:08.34Z</time></trkpt><trkpt lat="43.144315" lon="11.4218067"><ele>200.0</ele><time>2026-04-30T13:34:09.34Z</time></trkpt><trkpt lat="43.1444383" lon="11.4217867"><ele>201.0</ele><time>2026-04-30T13:34:10.34Z</time></trkpt><trkpt lat="43.1445633" lon="11.4217583"><ele>202.0</ele><time>2026-04-30T13:34:11.34Z</time></trkpt><trkpt lat="43.1446767" lon="11.42172"><ele>203.0</ele><time>2026-04-30T13:34:12.339Z</time></trkpt><trkpt lat="43.144785" lon="11.42166"><ele>203.75</ele><time>2026-04-30T13:34:13.34Z</time></trkpt><trkpt lat="43.1448917" lon="11.421585"><ele>204.5</ele><time>2026-04-30T13:34:14.34Z</time></trkpt><trkpt lat="43.1449867" lon="11.421485"><ele>205.25</ele><time>2026-04-30T13:34:15.34Z</time></trkpt><trkpt lat="43.1450783" lon="11.421365"><ele>206.0</ele><time>2026-04-30T13:34:16.339Z</time></trkpt><trkpt lat="43.145155" lon="11.4212233"><ele>206.25</ele><time>2026-04-30T13:34:17.34Z</time></trkpt><trkpt lat="43.145205" lon="11.4210467"><ele>206.5</ele><time>2026-04-30T13:34:18.34Z</time></trkpt><trkpt lat="43.1452183" lon="11.4208383"><ele>206.75</ele><time>2026-04-30T13:34:19.34Z</time></trkpt><trkpt lat="43.145225" lon="11.4206283"><ele>207.0</ele><time>2026-04-30T13:34:20.34Z</time></trkpt><trkpt lat="43.1452233" lon="11.4204167"><ele>207.75</ele><time>2026-04-30T13:34:21.34Z</time></trkpt><trkpt lat="43.1452067" lon="11.4202133"><ele>208.5</ele><time>2026-04-30T13:34:22.34Z</time></trkpt><trkpt lat="43.1452133" lon="11.4200117"><ele>209.25</ele><time>2026-04-30T13:34:23.339Z</time></trkpt><trkpt lat="43.145235" lon="11.4198117"><ele>210.0</ele><time>2026-04-30T13:34:24.339Z</time></trkpt><trkpt lat="43.1452633" lon="11.419645"><ele>210.75</ele><time>2026-04-30T13:34:25.34Z</time></trkpt><trkpt lat="43.1453067" lon="11.419485"><ele>211.5</ele><time>2026-04-30T13:34:26.34Z</time></trkpt><trkpt lat="43.14534" lon="11.41933"><ele>212.25</ele><time>2026-04-30T13:34:27.34Z</time></trkpt><trkpt lat="43.1453633" lon="11.41916"><ele>213.0</ele><time>2026-04-30T13:34:28.34Z</time></trkpt><trkpt lat="43.145375" lon="11.418975"><ele>213.25</ele><time>2026-04-30T13:34:29.339Z</time></trkpt><trkpt lat="43.1453783" lon="11.41881"><ele>213.5</ele><time>2026-04-30T13:34:30.34Z</time></trkpt><trkpt lat="43.1453783" lon="11.418635"><ele>213.75</ele><time>2026-04-30T13:34:31.34Z</time></trkpt><trkpt lat="43.1453867" lon="11.4184617"><ele>214.0</ele><time>2026-04-30T13:34:32.339Z</time></trkpt><trkpt lat="43.1454067" lon="11.4182883"><ele>214.0</ele><time>2026-04-30T13:34:33.34Z</time></trkpt><trkpt lat="43.1454267" lon="11.4181233"><ele>214.0</ele><time>2026-04-30T13:34:34.34Z</time></trkpt><trkpt lat="43.145465" lon="11.4179433"><ele>214.0</ele><time>2026-04-30T13:34:35.34Z</time></trkpt><trkpt lat="43.145505" lon="11.4177617"><ele>214.0</ele><time>2026-04-30T13:34:36.339Z</time></trkpt><trkpt lat="43.1455517" lon="11.4175883"><ele>214.75</ele><time>2026-04-30T13:34:37.34Z</time></trkpt><trkpt lat="43.145605" lon="11.4174167"><ele>215.5</ele><time>2026-04-30T13:34:38.339Z</time></trkpt><trkpt lat="43.1456683" lon="11.4172517"><ele>216.25</ele><time>2026-04-30T13:34:39.339Z</time></trkpt><trkpt lat="43.145715" lon="11.4170867"><ele>217.0</ele><time>2026-04-30T13:34:40.34Z</time></trkpt><trkpt lat="43.1457483" lon="11.4169133"><ele>221.75</ele><time>2026-04-30T13:34:41.34Z</time></trkpt><trkpt lat="43.1457633" lon="11.4167283"><ele>226.5</ele><time>2026-04-30T13:34:42.34Z</time></trkpt><trkpt lat="43.1457833" lon="11.4165383"><ele>231.25</ele><time>2026-04-30T13:34:43.34Z</time></trkpt><trkpt lat="43.1458083" lon="11.4163567"><ele>236.0</ele><time>2026-04-30T13:34:44.34Z</time></trkpt><trkpt lat="43.14583" lon="11.4161883"><ele>236.75</ele><time>2026-04-30T13:34:45.34Z</time></trkpt><trkpt lat="43.1458267" lon="11.416025"><ele>237.5</ele><time>2026-04-30T13:34:46.339Z</time></trkpt><trkpt lat="43.1457883" lon="11.4158417"><ele>238.25</ele><time>2026-04-30T13:34:47.34Z</time></trkpt><trkpt lat="43.145765" lon="11.4156683"><ele>239.0</ele><time>2026-04-30T13:34:48.34Z</time></trkpt><trkpt lat="43.1457317" lon="11.4154967"><ele>238.25</ele><time>2026-04-30T13:34:49.34Z</time></trkpt><trkpt lat="43.1456767" lon="11.4153417"><ele>237.5</ele><time>2026-04-30T13:34:50.34Z</time></trkpt><trkpt lat="43.145605" lon="11.4151917"><ele>236.75</ele><time>2026-04-30T13:34:51.339Z</time></trkpt><trkpt lat="43.1455167" lon="11.4150617"><ele>236.0</ele><time>2026-04-30T13:34:52.339Z</time></trkpt><trkpt lat="43.1454217" lon="11.41495"><ele>236.0</ele><time>2026-04-30T13:34:53.339Z</time></trkpt><trkpt lat="43.145335" lon="11.4148067"><ele>236.0</ele><time>2026-04-30T13:34:54.34Z</time></trkpt><trkpt lat="43.145265" lon="11.4146583"><ele>236.0</ele><time>2026-04-30T13:34:55.34Z</time></trkpt><trkpt lat="43.14523" lon="11.4145"><ele>236.0</ele><time>2026-04-30T13:34:56.339Z</time></trkpt><trkpt lat="43.1452233" lon="11.4143367"><ele>237.5</ele><time>2026-04-30T13:34:57.34Z</time></trkpt><trkpt lat="43.1452433" lon="11.4141767"><ele>239.0</ele><time>2026-04-30T13:34:58.34Z</time></trkpt><trkpt lat="43.145305" lon="11.41401"><ele>240.5</ele><time>2026-04-30T13:34:59.34Z</time></trkpt><trkpt lat="43.14538" lon="11.41386"><ele>242.0</ele><time>2026-04-30T13:35:00.34Z</time></trkpt><trkpt lat="43.14548" lon="11.4137333"><ele>243.0</ele><time>2026-04-30T13:35:01.339Z</time></trkpt><trkpt lat="43.14557" lon="11.4136017"><ele>244.0</ele><time>2026-04-30T13:35:02.34Z</time></trkpt><trkpt lat="43.1456517" lon="11.41347"><ele>245.0</ele><time>2026-04-30T13:35:03.34Z</time></trkpt><trkpt lat="43.145725" lon="11.4133417"><ele>246.0</ele><time>2026-04-30T13:35:04.34Z</time></trkpt><trkpt lat="43.1457883" lon="11.4131933"><ele>247.5</ele><time>2026-04-30T13:35:05.34Z</time></trkpt><trkpt lat="43.1458267" lon="11.4130383"><ele>249.0</ele><time>2026-04-30T13:35:06.34Z</time></trkpt><trkpt lat="43.1458633" lon="11.4128733"><ele>250.5</ele><time>2026-04-30T13:35:07.34Z</time></trkpt><trkpt lat="43.1458941" lon="11.412707"><ele>252.0</ele><time>2026-04-30T13:35:08.34Z</time></trkpt><trkpt lat="43.1459311" lon="11.4125563"><ele>252.25</ele><time>2026-04-30T13:35:09.34Z</time></trkpt><trkpt lat="43.1459813" lon="11.4124017"><ele>252.5</ele><time>2026-04-30T13:35:10.339Z</time></trkpt><trkpt lat="43.1460411" lon="11.4122355"><ele>252.75</ele><time>2026-04-30T13:35:11.34Z</time></trkpt><trkpt lat="43.146108" lon="11.4120803"><ele>253.0</ele><time>2026-04-30T13:35:12.34Z</time></trkpt><trkpt lat="43.146186" lon="11.4119193"><ele>255.0</ele><time>2026-04-30T13:35:13.34Z</time></trkpt><trkpt lat="43.1462645" lon="11.4117594"><ele>257.0</ele><time>2026-04-30T13:35:14.339Z</time></trkpt><trkpt lat="43.146344" lon="11.4116093"><ele>259.0</ele><time>2026-04-30T13:35:15.339Z</time></trkpt><trkpt lat="43.1464267" lon="11.4114739"><ele>261.0</ele><time>2026-04-30T13:35:16.34Z</time></trkpt><trkpt lat="43.1465109" lon="11.4113388"><ele>262.25</ele><time>2026-04-30T13:35:17.339Z</time></trkpt><trkpt lat="43.1465908" lon="11.4112072"><ele>263.5</ele><time>2026-04-30T13:35:18.34Z</time></trkpt><trkpt lat="43.1466802" lon="11.4110841"><ele>264.75</ele><time>2026-04-30T13:35:19.339Z</time></trkpt><trkpt lat="43.1467825" lon="11.4109673"><ele>266.0</ele><time>2026-04-30T13:35:20.339Z</time></trkpt><trkpt lat="43.1468997" lon="11.4108612"><ele>266.0</ele><time>2026-04-30T13:35:21.339Z</time></trkpt><trkpt lat="43.1470286" lon="11.4107697"><ele>266.0</ele><time>2026-04-30T13:35:22.34Z</time></trkpt><trkpt lat="43.1471601" lon="11.4106954"><ele>266.0</ele><time>2026-04-30T13:35:23.34Z</time></trkpt><trkpt lat="43.147295" lon="11.4106188"><ele>266.0</ele><time>2026-04-30T13:35:24.34Z</time></trkpt><trkpt lat="43.14742" lon="11.4105328"><ele>267.75</ele><time>2026-04-30T13:35:25.34Z</time></trkpt><trkpt lat="43.1475301" lon="11.4104186"><ele>269.5</ele><time>2026-04-30T13:35:26.34Z</time></trkpt><trkpt lat="43.1476215" lon="11.4102922"><ele>271.25</ele><time>2026-04-30T13:35:27.34Z</time></trkpt><trkpt lat="43.147684" lon="11.410149"><ele>273.0</ele><time>2026-04-30T13:35:28.34Z</time></trkpt><trkpt lat="43.1477437" lon="11.410006"><ele>273.0</ele><time>2026-04-30T13:35:29.34Z</time></trkpt><trkpt lat="43.1477797" lon="11.4098413"><ele>273.0</ele><time>2026-04-30T13:35:30.34Z</time></trkpt><trkpt lat="43.1478025" lon="11.4096674"><ele>273.0</ele><time>2026-04-30T13:35:31.34Z</time></trkpt><trkpt lat="43.1478201" lon="11.4095071"><ele>273.0</ele><time>2026-04-30T13:35:32.34Z</time></trkpt><trkpt lat="43.1478353" lon="11.4093401"><ele>274.75</ele><time>2026-04-30T13:35:33.34Z</time></trkpt><trkpt lat="43.1478567" lon="11.4091846"><ele>276.5</ele><time>2026-04-30T13:35:34.34Z</time></trkpt><trkpt lat="43.1478812" lon="11.4090239"><ele>278.25</ele><time>2026-04-30T13:35:35.339Z</time></trkpt><trkpt lat="43.1478948" lon="11.4088522"><ele>280.0</ele><time>2026-04-30T13:35:36.34Z</time></trkpt><trkpt lat="43.1479115" lon="11.4086819"><ele>281.5</ele><time>2026-04-30T13:35:37.34Z</time></trkpt><trkpt lat="43.147928" lon="11.4085015"><ele>283.0</ele><time>2026-04-30T13:35:38.339Z</time></trkpt><trkpt lat="43.1479433" lon="11.4083133"><ele>284.5</ele><time>2026-04-30T13:35:39.339Z</time></trkpt><trkpt lat="43.14797" lon="11.408135"><ele>286.0</ele><time>2026-04-30T13:35:40.34Z</time></trkpt><trkpt lat="43.1480283" lon="11.40797"><ele>284.75</ele><time>2026-04-30T13:35:41.34Z</time></trkpt><trkpt lat="43.148085" lon="11.4078067"><ele>283.5</ele><time>2026-04-30T13:35:42.34Z</time></trkpt><trkpt lat="43.1481667" lon="11.4076333"><ele>282.25</ele><time>2026-04-30T13:35:43.34Z</time></trkpt><trkpt lat="43.1482367" lon="11.4074717"><ele>281.0</ele><time>2026-04-30T13:35:44.339Z</time></trkpt><trkpt lat="43.1482983" lon="11.4073033"><ele>281.0</ele><time>2026-04-30T13:35:45.34Z</time></trkpt><trkpt lat="43.148385" lon="11.4071633"><ele>281.0</ele><time>2026-04-30T13:35:46.34Z</time></trkpt><trkpt lat="43.1484683" lon="11.4070417"><ele>281.0</ele><time>2026-04-30T13:35:47.34Z</time></trkpt><trkpt lat="43.148565" lon="11.406935"><ele>281.0</ele><time>2026-04-30T13:35:48.34Z</time></trkpt><trkpt lat="43.148675" lon="11.40686"><ele>282.0</ele><time>2026-04-30T13:35:49.34Z</time></trkpt><trkpt lat="43.1487817" lon="11.4067983"><ele>283.0</ele><time>2026-04-30T13:35:50.34Z</time></trkpt><trkpt lat="43.1488933" lon="11.4067617"><ele>284.0</ele><time>2026-04-30T13:35:51.34Z</time></trkpt><trkpt lat="43.1490033" lon="11.4067333"><ele>285.0</ele><time>2026-04-30T13:35:52.34Z</time></trkpt><trkpt lat="43.149125" lon="11.40669"><ele>285.0</ele><time>2026-04-30T13:35:53.34Z</time></trkpt><trkpt lat="43.149225" lon="11.4066283"><ele>285.0</ele><time>2026-04-30T13:35:54.34Z</time></trkpt><trkpt lat="43.14932" lon="11.4065333"><ele>285.0</ele><time>2026-04-30T13:35:55.339Z</time></trkpt><trkpt lat="43.14941" lon="11.406445"><ele>285.0</ele><time>2026-04-30T13:35:56.34Z</time></trkpt><trkpt lat="43.1494967" lon="11.4063383"><ele>284.2</ele><time>2026-04-30T13:35:57.34Z</time></trkpt><trkpt lat="43.1495917" lon="11.4062517"><ele>283.4</ele><time>2026-04-30T13:35:58.34Z</time></trkpt><trkpt lat="43.1496917" lon="11.4062117"><ele>282.6</ele><time>2026-04-30T13:35:59.34Z</time></trkpt><trkpt lat="43.1497883" lon="11.4062067"><ele>281.8</ele><time>2026-04-30T13:36:00.34Z</time></trkpt><trkpt lat="43.1498867" lon="11.406265"><ele>281.0</ele><time>2026-04-30T13:36:01.34Z</time></trkpt><trkpt lat="43.149985" lon="11.40636"><ele>281.0</ele><time>2026-04-30T13:36:02.34Z</time></trkpt><trkpt lat="43.1500817" lon="11.406495"><ele>281.0</ele><time>2026-04-30T13:36:03.339Z</time></trkpt><trkpt lat="43.1502" lon="11.406605"><ele>281.0</ele><time>2026-04-30T13:36:04.339Z</time></trkpt><trkpt lat="43.1503283" lon="11.406705"><ele>281.0</ele><time>2026-04-30T13:36:05.34Z</time></trkpt><trkpt lat="43.150455" lon="11.4067783"><ele>281.0</ele><time>2026-04-30T13:36:06.34Z</time></trkpt><trkpt lat="43.1505867" lon="11.4068183"><ele>281.0</ele><time>2026-04-30T13:36:07.34Z</time></trkpt><trkpt lat="43.1507217" lon="11.4068433"><ele>281.0</ele><time>2026-04-30T13:36:08.34Z</time></trkpt><trkpt lat="43.1508617" lon="11.40684"><ele>281.0</ele><time>2026-04-30T13:36:09.34Z</time></trkpt><trkpt lat="43.1510117" lon="11.4068117"><ele>282.25</ele><time>2026-04-30T13:36:10.34Z</time></trkpt><trkpt lat="43.1511517" lon="11.406785"><ele>283.5</ele><time>2026-04-30T13:36:11.339Z</time></trkpt><trkpt lat="43.1512817" lon="11.4067317"><ele>284.75</ele><time>2026-04-30T13:36:12.339Z</time></trkpt><trkpt lat="43.1514067" lon="11.4066883"><ele>286.0</ele><time>2026-04-30T13:36:13.34Z</time></trkpt><trkpt lat="43.1515317" lon="11.4066467"><ele>285.25</ele><time>2026-04-30T13:36:14.34Z</time></trkpt><trkpt lat="43.1516683" lon="11.406625"><ele>284.5</ele><time>2026-04-30T13:36:15.34Z</time></trkpt><trkpt lat="43.1518167" lon="11.40662"><ele>283.75</ele><time>2026-04-30T13:36:16.34Z</time></trkpt><trkpt lat="43.1519667" lon="11.406605"><ele>283.0</ele><time>2026-04-30T13:36:17.34Z</time></trkpt><trkpt lat="43.1521233" lon="11.4065917"><ele>283.0</ele><time>2026-04-30T13:36:18.339Z</time></trkpt><trkpt lat="43.1522683" lon="11.4065567"><ele>283.0</ele><time>2026-04-30T13:36:19.34Z</time></trkpt><trkpt lat="43.15241" lon="11.4065233"><ele>283.0</ele><time>2026-04-30T13:36:20.34Z</time></trkpt><trkpt lat="43.1525383" lon="11.4064467"><ele>283.0</ele><time>2026-04-30T13:36:21.339Z</time></trkpt><trkpt lat="43.152675" lon="11.406375"><ele>286.25</ele><time>2026-04-30T13:36:22.34Z</time></trkpt><trkpt lat="43.1528067" lon="11.4062917"><ele>289.5</ele><time>2026-04-30T13:36:23.34Z</time></trkpt><trkpt lat="43.1529317" lon="11.406195"><ele>292.75</ele><time>2026-04-30T13:36:24.34Z</time></trkpt><trkpt lat="43.1530467" lon="11.4060917"><ele>296.0</ele><time>2026-04-30T13:36:25.339Z</time></trkpt><trkpt lat="43.153155" lon="11.4059717"><ele>293.5</ele><time>2026-04-30T13:36:26.34Z</time></trkpt><trkpt lat="43.153275" lon="11.4058733"><ele>291.0</ele><time>2026-04-30T13:36:27.339Z</time></trkpt><trkpt lat="43.1534033" lon="11.4057983"><ele>288.5</ele><time>2026-04-30T13:36:28.339Z</time></trkpt><trkpt lat="43.1535367" lon="11.40574"><ele>286.0</ele><time>2026-04-30T13:36:29.339Z</time></trkpt><trkpt lat="43.153685" lon="11.405715"><ele>286.0</ele><time>2026-04-30T13:36:30.34Z</time></trkpt><trkpt lat="43.1538333" lon="11.405685"><ele>286.0</ele><time>2026-04-30T13:36:31.34Z</time></trkpt><trkpt lat="43.153975" lon="11.405665"><ele>286.0</ele><time>2026-04-30T13:36:32.34Z</time></trkpt><trkpt lat="43.1541133" lon="11.4056283"><ele>286.0</ele><time>2026-04-30T13:36:33.339Z</time></trkpt><trkpt lat="43.1542467" lon="11.4055433"><ele>288.0</ele><time>2026-04-30T13:36:34.34Z</time></trkpt><trkpt lat="43.1543633" lon="11.4054533"><ele>290.0</ele><time>2026-04-30T13:36:35.34Z</time></trkpt><trkpt lat="43.1544783" lon="11.4053717"><ele>292.0</ele><time>2026-04-30T13:36:36.34Z</time></trkpt><trkpt lat="43.1545967" lon="11.4053083"><ele>294.0</ele><time>2026-04-30T13:36:37.34Z</time></trkpt><trkpt lat="43.1547267" lon="11.40525"><ele>294.0</ele><time>2026-04-30T13:36:38.34Z</time></trkpt><trkpt lat="43.154845" lon="11.4051967"><ele>294.0</ele><time>2026-04-30T13:36:39.34Z</time></trkpt><trkpt lat="43.1549633" lon="11.4051467"><ele>294.0</ele><time>2026-04-30T13:36:40.34Z</time></trkpt><trkpt lat="43.155075" lon="11.4050967"><ele>294.0</ele><time>2026-04-30T13:36:41.34Z</time></trkpt><trkpt lat="43.1551767" lon="11.4050367"><ele>291.75</ele><time>2026-04-30T13:36:42.34Z</time></trkpt><trkpt lat="43.15528" lon="11.404985"><ele>289.5</ele><time>2026-04-30T13:36:43.34Z</time></trkpt><trkpt lat="43.1553867" lon="11.4049567"><ele>287.25</ele><time>2026-04-30T13:36:44.339Z</time></trkpt><trkpt lat="43.1554933" lon="11.4049367"><ele>285.0</ele><time>2026-04-30T13:36:45.34Z</time></trkpt><trkpt lat="43.15562" lon="11.40492"><ele>282.5</ele><time>2026-04-30T13:36:46.339Z</time></trkpt><trkpt lat="43.15575" lon="11.4048967"><ele>280.0</ele><time>2026-04-30T13:36:47.34Z</time></trkpt><trkpt lat="43.1558733" lon="11.404855"><ele>277.5</ele><time>2026-04-30T13:36:48.34Z</time></trkpt><trkpt lat="43.1559917" lon="11.4048017"><ele>275.0</ele><time>2026-04-30T13:36:49.339Z</time></trkpt><trkpt lat="43.1561067" lon="11.4047133"><ele>279.25</ele><time>2026-04-30T13:36:50.34Z</time></trkpt><trkpt lat="43.1562133" lon="11.4046067"><ele>283.5</ele><time>2026-04-30T13:36:51.339Z</time></trkpt><trkpt lat="43.15631" lon="11.4044917"><ele>287.75</ele><time>2026-04-30T13:36:52.34Z</time></trkpt><trkpt lat="43.1563917" lon="11.404355"><ele>292.0</ele><time>2026-04-30T13:36:53.339Z</time></trkpt><trkpt lat="43.1564533" lon="11.4041967"><ele>292.0</ele><time>2026-04-30T13:36:54.339Z</time></trkpt><trkpt lat="43.15648" lon="11.4040083"><ele>292.0</ele><time>2026-04-30T13:36:55.338Z</time></trkpt><trkpt lat="43.1564867" lon="11.40376"><ele>292.0</ele><time>2026-04-30T13:36:56.339Z</time></trkpt><trkpt lat="43.1564883" lon="11.40349"><ele>294.0</ele><time>2026-04-30T13:36:57.339Z</time></trkpt><trkpt lat="43.1565067" lon="11.4031967"><ele>296.0</ele><time>2026-04-30T13:36:58.339Z</time></trkpt><trkpt lat="43.15654" lon="11.402885"><ele>298.0</ele><time>2026-04-30T13:36:59.339Z</time></trkpt><trkpt lat="43.1565983" lon="11.4025517"><ele>293.66666666666663</ele><time>2026-04-30T13:37:00.339Z</time></trkpt><trkpt lat="43.1566617" lon="11.4022583"><ele>289.3333333333333</ele><time>2026-04-30T13:37:01.338Z</time></trkpt><trkpt lat="43.1567017" lon="11.40198"><ele>285.0</ele><time>2026-04-30T13:37:02.339Z</time></trkpt><trkpt lat="43.1567183" lon="11.4017533"><ele>285.0</ele><time>2026-04-30T13:37:03.339Z</time></trkpt><trkpt lat="43.1567117" lon="11.4015233"><ele>285.0</ele><time>2026-04-30T13:37:04.339Z</time></trkpt><trkpt lat="43.1566817" lon="11.4013133"><ele>285.0</ele><time>2026-04-30T13:37:05.339Z</time></trkpt><trkpt lat="43.1566183" lon="11.4011067"><ele>290.5</ele><time>2026-04-30T13:37:06.338Z</time></trkpt><trkpt lat="43.15653" lon="11.4009133"><ele>296.0</ele><time>2026-04-30T13:37:07.339Z</time></trkpt><trkpt lat="43.1564483" lon="11.4007517"><ele>301.5</ele><time>2026-04-30T13:37:08.339Z</time></trkpt><trkpt lat="43.1563833" lon="11.4005917"><ele>307.0</ele><time>2026-04-30T13:37:09.339Z</time></trkpt><trkpt lat="43.1563317" lon="11.4004367"><ele>307.0</ele><time>2026-04-30T13:37:10.339Z</time></trkpt><trkpt lat="43.1563017" lon="11.4002933"><ele>307.0</ele><time>2026-04-30T13:37:11.339Z</time></trkpt><trkpt lat="43.15632" lon="11.4001567"><ele>307.0</ele><time>2026-04-30T13:37:12.338Z</time></trkpt><trkpt lat="43.1563817" lon="11.4000433"><ele>307.0</ele><time>2026-04-30T13:37:13.339Z</time></trkpt><trkpt lat="43.15648" lon="11.4"><ele>307.0</ele><time>2026-04-30T13:37:14.339Z</time></trkpt><trkpt lat="43.1565983" lon="11.4000017"><ele>302.66666666666663</ele><time>2026-04-30T13:37:15.338Z</time></trkpt><trkpt lat="43.1567333" lon="11.4000367"><ele>298.3333333333333</ele><time>2026-04-30T13:37:16.339Z</time></trkpt><trkpt lat="43.156885" lon="11.400095"><ele>294.0</ele><time>2026-04-30T13:37:17.339Z</time></trkpt><trkpt lat="43.1570383" lon="11.4001483"><ele>294.0</ele><time>2026-04-30T13:37:18.339Z</time></trkpt><trkpt lat="43.157205" lon="11.4001733"><ele>294.0</ele><time>2026-04-30T13:37:19.339Z</time></trkpt><trkpt lat="43.15737" lon="11.4001483"><ele>294.0</ele><time>2026-04-30T13:37:20.339Z</time></trkpt><trkpt lat="43.1575283" lon="11.400075"><ele>292.6666666666667</ele><time>2026-04-30T13:37:21.339Z</time></trkpt><trkpt lat="43.1577067" lon="11.3999767"><ele>291.33333333333337</ele><time>2026-04-30T13:37:22.339Z</time></trkpt><trkpt lat="43.157875" lon="11.3998633"><ele>290.0</ele><time>2026-04-30T13:37:23.338Z</time></trkpt><trkpt lat="43.1580283" lon="11.3997683"><ele>290.0</ele><time>2026-04-30T13:37:24.339Z</time></trkpt><trkpt lat="43.1581867" lon="11.3996983"><ele>290.0</ele><time>2026-04-30T13:37:25.338Z</time></trkpt><trkpt lat="43.1583383" lon="11.3996517"><ele>290.0</ele><time>2026-04-30T13:37:26.339Z</time></trkpt><trkpt lat="43.1584933" lon="11.3996633"><ele>288.5</ele><time>2026-04-30T13:37:27.339Z</time></trkpt><trkpt lat="43.1586317" lon="11.39967"><ele>287.0</ele><time>2026-04-30T13:37:28.339Z</time></trkpt><trkpt lat="43.1587533" lon="11.3996417"><ele>285.5</ele><time>2026-04-30T13:37:29.339Z</time></trkpt><trkpt lat="43.1588633" lon="11.3995883"><ele>284.0</ele><time>2026-04-30T13:37:30.339Z</time></trkpt><trkpt lat="43.1589533" lon="11.39948"><ele>284.0</ele><time>2026-04-30T13:37:31.339Z</time></trkpt><trkpt lat="43.1589883" lon="11.3992933"><ele>284.0</ele><time>2026-04-30T13:37:32.339Z</time></trkpt><trkpt lat="43.15899" lon="11.3990767"><ele>284.0</ele><time>2026-04-30T13:37:33.339Z</time></trkpt><trkpt lat="43.158955" lon="11.39885"><ele>283.33333333333337</ele><time>2026-04-30T13:37:34.339Z</time></trkpt><trkpt lat="43.15889" lon="11.3986117"><ele>282.6666666666667</ele><time>2026-04-30T13:37:35.339Z</time></trkpt><trkpt lat="43.15883" lon="11.3983733"><ele>282.0</ele><time>2026-04-30T13:37:36.339Z</time></trkpt><trkpt lat="43.1587633" lon="11.3981167"><ele>281.3333333333333</ele><time>2026-04-30T13:37:37.339Z</time></trkpt><trkpt lat="43.158725" lon="11.3978383"><ele>280.66666666666663</ele><time>2026-04-30T13:37:38.338Z</time></trkpt><trkpt lat="43.1587167" lon="11.39755"><ele>280.0</ele><time>2026-04-30T13:37:39.339Z</time></trkpt><trkpt lat="43.1587133" lon="11.39725"><ele>280.0</ele><time>2026-04-30T13:37:40.339Z</time></trkpt><trkpt lat="43.1587167" lon="11.3969583"><ele>280.0</ele><time>2026-04-30T13:37:41.339Z</time></trkpt><trkpt lat="43.1587183" lon="11.3966533"><ele>280.0</ele><time>2026-04-30T13:37:42.339Z</time></trkpt><trkpt lat="43.1587117" lon="11.3963533"><ele>279.66666666666663</ele><time>2026-04-30T13:37:43.339Z</time></trkpt><trkpt lat="43.1587033" lon="11.3960817"><ele>279.3333333333333</ele><time>2026-04-30T13:37:44.339Z</time></trkpt><trkpt lat="43.158705" lon="11.3958283"><ele>279.0</ele><time>2026-04-30T13:37:45.338Z</time></trkpt><trkpt lat="43.15871" lon="11.39559"><ele>279.0</ele><time>2026-04-30T13:37:46.339Z</time></trkpt><trkpt lat="43.1587417" lon="11.39537"><ele>279.0</ele><time>2026-04-30T13:37:47.339Z</time></trkpt><trkpt lat="43.1587683" lon="11.3951417"><ele>279.0</ele><time>2026-04-30T13:37:48.339Z</time></trkpt><trkpt lat="43.1588383" lon="11.3949217"><ele>279.0</ele><time>2026-04-30T13:37:49.338Z</time></trkpt><trkpt lat="43.1589267" lon="11.3947333"><ele>279.0</ele><time>2026-04-30T13:37:50.339Z</time></trkpt><trkpt lat="43.1590133" lon="11.3945667"><ele>279.0</ele><time>2026-04-30T13:37:51.338Z</time></trkpt><trkpt lat="43.1591067" lon="11.3944283"><ele>278.25</ele><time>2026-04-30T13:37:52.339Z</time></trkpt><trkpt lat="43.1592033" lon="11.39431"><ele>277.5</ele><time>2026-04-30T13:37:53.339Z</time></trkpt><trkpt lat="43.1592983" lon="11.39421"><ele>276.75</ele><time>2026-04-30T13:37:54.339Z</time></trkpt><trkpt lat="43.1593817" lon="11.39411"><ele>276.0</ele><time>2026-04-30T13:37:55.338Z</time></trkpt><trkpt lat="43.1594633" lon="11.3940233"><ele>276.0</ele><time>2026-04-30T13:37:56.339Z</time></trkpt><trkpt lat="43.1595533" lon="11.3939417"><ele>276.0</ele><time>2026-04-30T13:37:57.338Z</time></trkpt><trkpt lat="43.1596417" lon="11.3938667"><ele>276.0</ele><time>2026-04-30T13:37:58.339Z</time></trkpt><trkpt lat="43.1597333" lon="11.3938"><ele>276.0</ele><time>2026-04-30T13:37:59.338Z</time></trkpt><trkpt lat="43.159825" lon="11.39374"><ele>276.0</ele><time>2026-04-30T13:38:00.339Z</time></trkpt><trkpt lat="43.1599217" lon="11.39368"><ele>276.2</ele><time>2026-04-30T13:38:01.338Z</time></trkpt><trkpt lat="43.1600217" lon="11.3936233"><ele>276.40000000000003</ele><time>2026-04-30T13:38:02.339Z</time></trkpt><trkpt lat="43.1601217" lon="11.3935717"><ele>276.6</ele><time>2026-04-30T13:38:03.339Z</time></trkpt><trkpt lat="43.1602267" lon="11.393525"><ele>276.8</ele><time>2026-04-30T13:38:04.339Z</time></trkpt><trkpt lat="43.16033" lon="11.3934767"><ele>277.0</ele><time>2026-04-30T13:38:05.339Z</time></trkpt><trkpt lat="43.1604383" lon="11.39343"><ele>277.0</ele><time>2026-04-30T13:38:06.338Z</time></trkpt><trkpt lat="43.160545" lon="11.393385"><ele>277.0</ele><time>2026-04-30T13:38:07.339Z</time></trkpt><trkpt lat="43.160645" lon="11.3933483"><ele>277.0</ele><time>2026-04-30T13:38:08.338Z</time></trkpt><trkpt lat="43.1607433" lon="11.3933083"><ele>277.0</ele><time>2026-04-30T13:38:09.339Z</time></trkpt><trkpt lat="43.1608417" lon="11.39327"><ele>277.0</ele><time>2026-04-30T13:38:10.338Z</time></trkpt><trkpt lat="43.1609467" lon="11.3932267"><ele>277.4</ele><time>2026-04-30T13:38:11.339Z</time></trkpt><trkpt lat="43.1610483" lon="11.3931867"><ele>277.79999999999995</ele><time>2026-04-30T13:38:12.339Z</time></trkpt><trkpt lat="43.1611483" lon="11.3931367"><ele>278.2</ele><time>2026-04-30T13:38:13.339Z</time></trkpt><trkpt lat="43.1612433" lon="11.3930783"><ele>278.59999999999997</ele><time>2026-04-30T13:38:14.339Z</time></trkpt><trkpt lat="43.16134" lon="11.3930017"><ele>279.0</ele><time>2026-04-30T13:38:15.339Z</time></trkpt><trkpt lat="43.1614183" lon="11.392905"><ele>279.0</ele><time>2026-04-30T13:38:16.339Z</time></trkpt><trkpt lat="43.1614833" lon="11.392795"><ele>279.0</ele><time>2026-04-30T13:38:17.338Z</time></trkpt><trkpt lat="43.161535" lon="11.39268"><ele>279.0</ele><time>2026-04-30T13:38:18.339Z</time></trkpt><trkpt lat="43.161565" lon="11.3925917"><ele>279.0</ele><time>2026-04-30T13:38:19.339Z</time></trkpt><trkpt lat="43.1616167" lon="11.3924533"><ele>279.0</ele><time>2026-04-30T13:38:21.338Z</time></trkpt><trkpt lat="43.1616517" lon="11.3923333"><ele>279.59999999999997</ele><time>2026-04-30T13:38:23.338Z</time></trkpt><trkpt lat="43.161675" lon="11.3922417"><ele>280.2</ele><time>2026-04-30T13:38:25.339Z</time></trkpt><trkpt lat="43.1617033" lon="11.392145"><ele>280.79999999999995</ele><time>2026-04-30T13:38:27.339Z</time></trkpt><trkpt lat="43.1617483" lon="11.3920033"><ele>281.4</ele><time>2026-04-30T13:38:29.338Z</time></trkpt><trkpt lat="43.1618183" lon="11.3918783"><ele>282.0</ele><time>2026-04-30T13:38:31.339Z</time></trkpt><trkpt lat="43.1619083" lon="11.39179"><ele>282.8</ele><time>2026-04-30T13:38:33.338Z</time></trkpt><trkpt lat="43.1619967" lon="11.3917333"><ele>283.6</ele><time>2026-04-30T13:38:35.339Z</time></trkpt><trkpt lat="43.1621133" lon="11.3916917"><ele>284.40000000000003</ele><time>2026-04-30T13:38:37.338Z</time></trkpt><trkpt lat="43.16218" lon="11.3916667"><ele>285.2</ele><time>2026-04-30T13:38:38.338Z</time></trkpt><trkpt lat="43.1622517" lon="11.3916483"><ele>286.0</ele><time>2026-04-30T13:38:39.339Z</time></trkpt><trkpt lat="43.1623433" lon="11.391635"><ele>285.2</ele><time>2026-04-30T13:38:40.339Z</time></trkpt><trkpt lat="43.16244" lon="11.391625"><ele>284.40000000000003</ele><time>2026-04-30T13:38:41.339Z</time></trkpt><trkpt lat="43.1625433" lon="11.3916067"><ele>283.6</ele><time>2026-04-30T13:38:42.339Z</time></trkpt><trkpt lat="43.1626633" lon="11.3916017"><ele>282.8</ele><time>2026-04-30T13:38:43.339Z</time></trkpt><trkpt lat="43.1627817" lon="11.3915917"><ele>282.0</ele><time>2026-04-30T13:38:44.339Z</time></trkpt><trkpt lat="43.1628933" lon="11.3915833"><ele>282.0</ele><time>2026-04-30T13:38:45.338Z</time></trkpt><trkpt lat="43.1629967" lon="11.3915667"><ele>282.0</ele><time>2026-04-30T13:38:46.339Z</time></trkpt><trkpt lat="43.163095" lon="11.391545"><ele>282.0</ele><time>2026-04-30T13:38:47.339Z</time></trkpt><trkpt lat="43.1631983" lon="11.391515"><ele>282.0</ele><time>2026-04-30T13:38:48.338Z</time></trkpt><trkpt lat="43.16331" lon="11.391475"><ele>282.0</ele><time>2026-04-30T13:38:49.338Z</time></trkpt><trkpt lat="43.1634483" lon="11.3914433"><ele>281.25</ele><time>2026-04-30T13:38:50.338Z</time></trkpt><trkpt lat="43.1636" lon="11.3914"><ele>280.5</ele><time>2026-04-30T13:38:51.339Z</time></trkpt><trkpt lat="43.1637533" lon="11.391375"><ele>279.75</ele><time>2026-04-30T13:38:52.339Z</time></trkpt><trkpt lat="43.1638917" lon="11.3913483"><ele>279.0</ele><time>2026-04-30T13:38:53.339Z</time></trkpt><trkpt lat="43.164015" lon="11.3913217"><ele>278.0</ele><time>2026-04-30T13:38:54.338Z</time></trkpt><trkpt lat="43.1641383" lon="11.39129"><ele>277.0</ele><time>2026-04-30T13:38:55.338Z</time></trkpt><trkpt lat="43.1642717" lon="11.39125"><ele>276.0</ele><time>2026-04-30T13:38:56.339Z</time></trkpt><trkpt lat="43.16441" lon="11.3912117"><ele>275.0</ele><time>2026-04-30T13:38:57.339Z</time></trkpt><trkpt lat="43.1645383" lon="11.391175"><ele>275.0</ele><time>2026-04-30T13:38:58.339Z</time></trkpt><trkpt lat="43.1646667" lon="11.39114"><ele>275.0</ele><time>2026-04-30T13:38:59.338Z</time></trkpt><trkpt lat="43.1648017" lon="11.391105"><ele>275.0</ele><time>2026-04-30T13:39:00.339Z</time></trkpt><trkpt lat="43.164945" lon="11.3910683"><ele>275.0</ele><time>2026-04-30T13:39:01.339Z</time></trkpt><trkpt lat="43.1650917" lon="11.3910333"><ele>274.75</ele><time>2026-04-30T13:39:02.339Z</time></trkpt><trkpt lat="43.1652233" lon="11.391005"><ele>274.5</ele><time>2026-04-30T13:39:03.338Z</time></trkpt><trkpt lat="43.1653533" lon="11.39097"><ele>274.25</ele><time>2026-04-30T13:39:04.339Z</time></trkpt><trkpt lat="43.165485" lon="11.390935"><ele>274.0</ele><time>2026-04-30T13:39:05.339Z</time></trkpt><trkpt lat="43.1656083" lon="11.3909033"><ele>273.4</ele><time>2026-04-30T13:39:06.339Z</time></trkpt><trkpt lat="43.1657183" lon="11.390875"><ele>272.79999999999995</ele><time>2026-04-30T13:39:07.338Z</time></trkpt><trkpt lat="43.1658217" lon="11.39084"><ele>272.20000000000005</ele><time>2026-04-30T13:39:08.339Z</time></trkpt><trkpt lat="43.16591" lon="11.390805"><ele>271.6</ele><time>2026-04-30T13:39:09.339Z</time></trkpt><trkpt lat="43.1659983" lon="11.390795"><ele>271.0</ele><time>2026-04-30T13:39:10.339Z</time></trkpt><trkpt lat="43.1660733" lon="11.3908083"><ele>271.0</ele><time>2026-04-30T13:39:11.339Z</time></trkpt><trkpt lat="43.1661383" lon="11.3908167"><ele>271.0</ele><time>2026-04-30T13:39:12.338Z</time></trkpt><trkpt lat="43.1662367" lon="11.3907533"><ele>271.0</ele><time>2026-04-30T13:39:14.339Z</time></trkpt><trkpt lat="43.166275" lon="11.3906833"><ele>271.0</ele><time>2026-04-30T13:39:15.339Z</time></trkpt><trkpt lat="43.1663167" lon="11.390585"><ele>271.0</ele><time>2026-04-30T13:39:16.339Z</time></trkpt><trkpt lat="43.16637" lon="11.3904733"><ele>271.0</ele><time>2026-04-30T13:39:17.339Z</time></trkpt><trkpt lat="43.166435" lon="11.390355"><ele>271.75</ele><time>2026-04-30T13:39:18.338Z</time></trkpt><trkpt lat="43.1665183" lon="11.3902383"><ele>272.5</ele><time>2026-04-30T13:39:19.339Z</time></trkpt><trkpt lat="43.16661" lon="11.3901317"><ele>273.25</ele><time>2026-04-30T13:39:20.339Z</time></trkpt><trkpt lat="43.1667217" lon="11.3900417"><ele>274.0</ele><time>2026-04-30T13:39:21.339Z</time></trkpt><trkpt lat="43.1668317" lon="11.3899733"><ele>274.0</ele><time>2026-04-30T13:39:22.338Z</time></trkpt><trkpt lat="43.1669517" lon="11.3899217"><ele>274.0</ele><time>2026-04-30T13:39:23.339Z</time></trkpt><trkpt lat="43.16707" lon="11.3898917"><ele>274.0</ele><time>2026-04-30T13:39:24.339Z</time></trkpt><trkpt lat="43.1672033" lon="11.3898733"><ele>274.0</ele><time>2026-04-30T13:39:25.339Z</time></trkpt><trkpt lat="43.16735" lon="11.3898817"><ele>273.75</ele><time>2026-04-30T13:39:26.339Z</time></trkpt><trkpt lat="43.167495" lon="11.3898833"><ele>273.5</ele><time>2026-04-30T13:39:27.338Z</time></trkpt><trkpt lat="43.1676317" lon="11.3899"><ele>273.25</ele><time>2026-04-30T13:39:28.339Z</time></trkpt><trkpt lat="43.167785" lon="11.3899067"><ele>273.0</ele><time>2026-04-30T13:39:29.339Z</time></trkpt><trkpt lat="43.1679367" lon="11.38992"><ele>273.0</ele><time>2026-04-30T13:39:30.339Z</time></trkpt><trkpt lat="43.168095" lon="11.3899333"><ele>273.0</ele><time>2026-04-30T13:39:31.338Z</time></trkpt><trkpt lat="43.1682517" lon="11.3899383"><ele>273.0</ele><time>2026-04-30T13:39:32.339Z</time></trkpt><trkpt lat="43.168405" lon="11.3899517"><ele>275.0</ele><time>2026-04-30T13:39:33.339Z</time></trkpt><trkpt lat="43.168565" lon="11.3899683"><ele>277.0</ele><time>2026-04-30T13:39:34.339Z</time></trkpt><trkpt lat="43.1687183" lon="11.38998"><ele>279.0</ele><time>2026-04-30T13:39:35.338Z</time></trkpt><trkpt lat="43.168855" lon="11.3900033"><ele>279.0</ele><time>2026-04-30T13:39:36.339Z</time></trkpt><trkpt lat="43.168975" lon="11.390025"><ele>279.0</ele><time>2026-04-30T13:39:37.339Z</time></trkpt><trkpt lat="43.169095" lon="11.3900467"><ele>279.0</ele><time>2026-04-30T13:39:38.339Z</time></trkpt><trkpt lat="43.169215" lon="11.390075"><ele>279.0</ele><time>2026-04-30T13:39:39.338Z</time></trkpt><trkpt lat="43.1693283" lon="11.39011"><ele>281.75</ele><time>2026-04-30T13:39:40.338Z</time></trkpt><trkpt lat="43.1694467" lon="11.3901567"><ele>284.5</ele><time>2026-04-30T13:39:41.338Z</time></trkpt><trkpt lat="43.1695767" lon="11.3902133"><ele>287.25</ele><time>2026-04-30T13:39:42.339Z</time></trkpt><trkpt lat="43.1697083" lon="11.390285"><ele>290.0</ele><time>2026-04-30T13:39:43.338Z</time></trkpt><trkpt lat="43.1698317" lon="11.3903817"><ele>292.75</ele><time>2026-04-30T13:39:44.338Z</time></trkpt><trkpt lat="43.1699467" lon="11.3904783"><ele>295.5</ele><time>2026-04-30T13:39:45.339Z</time></trkpt><trkpt lat="43.1700633" lon="11.3905717"><ele>298.25</ele><time>2026-04-30T13:39:46.339Z</time></trkpt><trkpt lat="43.1701867" lon="11.3906517"><ele>301.0</ele><time>2026-04-30T13:39:47.339Z</time></trkpt><trkpt lat="43.1702883" lon="11.390745"><ele>301.2</ele><time>2026-04-30T13:39:48.339Z</time></trkpt><trkpt lat="43.1703767" lon="11.390835"><ele>301.40000000000003</ele><time>2026-04-30T13:39:49.338Z</time></trkpt><trkpt lat="43.170455" lon="11.39091"><ele>301.6</ele><time>2026-04-30T13:39:50.339Z</time></trkpt><trkpt lat="43.1705333" lon="11.39097"><ele>301.8</ele><time>2026-04-30T13:39:51.338Z</time></trkpt><trkpt lat="43.17062" lon="11.3910283"><ele>302.0</ele><time>2026-04-30T13:39:52.338Z</time></trkpt><trkpt lat="43.17072" lon="11.3910817"><ele>302.0</ele><time>2026-04-30T13:39:53.338Z</time></trkpt><trkpt lat="43.1708267" lon="11.391145"><ele>302.0</ele><time>2026-04-30T13:39:54.339Z</time></trkpt><trkpt lat="43.1709433" lon="11.391195"><ele>302.0</ele><time>2026-04-30T13:39:55.339Z</time></trkpt><trkpt lat="43.1710583" lon="11.3912583"><ele>302.0</ele><time>2026-04-30T13:39:56.338Z</time></trkpt><trkpt lat="43.171175" lon="11.3913133"><ele>302.0</ele><time>2026-04-30T13:39:57.339Z</time></trkpt><trkpt lat="43.1713067" lon="11.391345"><ele>302.0</ele><time>2026-04-30T13:39:58.338Z</time></trkpt><trkpt lat="43.1714317" lon="11.391355"><ele>302.0</ele><time>2026-04-30T13:39:59.339Z</time></trkpt><trkpt lat="43.1715433" lon="11.391345"><ele>302.0</ele><time>2026-04-30T13:40:00.338Z</time></trkpt><trkpt lat="43.1716417" lon="11.391335"><ele>302.6</ele><time>2026-04-30T13:40:01.339Z</time></trkpt><trkpt lat="43.1717367" lon="11.39131"><ele>303.2</ele><time>2026-04-30T13:40:02.339Z</time></trkpt><trkpt lat="43.1718367" lon="11.3912683"><ele>303.8</ele><time>2026-04-30T13:40:03.339Z</time></trkpt><trkpt lat="43.171935" lon="11.3912183"><ele>304.4</ele><time>2026-04-30T13:40:04.339Z</time></trkpt><trkpt lat="43.1720483" lon="11.3911683"><ele>305.0</ele><time>2026-04-30T13:40:05.339Z</time></trkpt><trkpt lat="43.1721567" lon="11.3910867"><ele>305.0</ele><time>2026-04-30T13:40:06.339Z</time></trkpt><trkpt lat="43.172285" lon="11.3910267"><ele>305.0</ele><time>2026-04-30T13:40:07.339Z</time></trkpt><trkpt lat="43.172425" lon="11.390975"><ele>305.0</ele><time>2026-04-30T13:40:08.339Z</time></trkpt><trkpt lat="43.1725683" lon="11.3909183"><ele>305.0</ele><time>2026-04-30T13:40:09.339Z</time></trkpt><trkpt lat="43.172705" lon="11.3908633"><ele>303.25</ele><time>2026-04-30T13:40:10.338Z</time></trkpt><trkpt lat="43.1728417" lon="11.390795"><ele>301.5</ele><time>2026-04-30T13:40:11.339Z</time></trkpt><trkpt lat="43.172955" lon="11.39072"><ele>299.75</ele><time>2026-04-30T13:40:12.339Z</time></trkpt><trkpt lat="43.1730567" lon="11.390645"><ele>298.0</ele><time>2026-04-30T13:40:13.339Z</time></trkpt><trkpt lat="43.17315" lon="11.3905567"><ele>295.6</ele><time>2026-04-30T13:40:14.338Z</time></trkpt><trkpt lat="43.17322" lon="11.3904633"><ele>293.20000000000005</ele><time>2026-04-30T13:40:15.338Z</time></trkpt><trkpt lat="43.1732933" lon="11.39037"><ele>290.8</ele><time>2026-04-30T13:40:16.339Z</time></trkpt><trkpt lat="43.173355" lon="11.3902967"><ele>288.40000000000003</ele><time>2026-04-30T13:40:17.339Z</time></trkpt><trkpt lat="43.1734133" lon="11.390235"><ele>286.0</ele><time>2026-04-30T13:40:18.338Z</time></trkpt><trkpt lat="43.1734917" lon="11.3901433"><ele>286.0</ele><time>2026-04-30T13:40:20.339Z</time></trkpt><trkpt lat="43.1735683" lon="11.3900367"><ele>286.0</ele><time>2026-04-30T13:40:23.339Z</time></trkpt><trkpt lat="43.173605" lon="11.3899617"><ele>286.0</ele><time>2026-04-30T13:40:24.339Z</time></trkpt><trkpt lat="43.1736417" lon="11.38985"><ele>286.0</ele><time>2026-04-30T13:40:25.338Z</time></trkpt><trkpt lat="43.1736867" lon="11.3897067"><ele>286.0</ele><time>2026-04-30T13:40:26.338Z</time></trkpt><trkpt lat="43.173745" lon="11.38956"><ele>287.25</ele><time>2026-04-30T13:40:27.339Z</time></trkpt><trkpt lat="43.173845" lon="11.389425"><ele>288.5</ele><time>2026-04-30T13:40:28.339Z</time></trkpt><trkpt lat="43.1739567" lon="11.3892883"><ele>289.75</ele><time>2026-04-30T13:40:29.339Z</time></trkpt><trkpt lat="43.1740817" lon="11.38917"><ele>291.0</ele><time>2026-04-30T13:40:30.338Z</time></trkpt><trkpt lat="43.1742233" lon="11.3890733"><ele>287.0</ele><time>2026-04-30T13:40:31.338Z</time></trkpt><trkpt lat="43.1743917" lon="11.3889917"><ele>283.0</ele><time>2026-04-30T13:40:32.339Z</time></trkpt><trkpt lat="43.1745717" lon="11.3889183"><ele>279.0</ele><time>2026-04-30T13:40:33.339Z</time></trkpt><trkpt lat="43.1747533" lon="11.3888417"><ele>277.0</ele><time>2026-04-30T13:40:34.338Z</time></trkpt><trkpt lat="43.1749417" lon="11.3887733"><ele>275.0</ele><time>2026-04-30T13:40:35.339Z</time></trkpt><trkpt lat="43.175135" lon="11.3886967"><ele>273.0</ele><time>2026-04-30T13:40:36.339Z</time></trkpt><trkpt lat="43.1753317" lon="11.3886167"><ele>273.0</ele><time>2026-04-30T13:40:37.338Z</time></trkpt><trkpt lat="43.1755183" lon="11.3885417"><ele>273.0</ele><time>2026-04-30T13:40:38.339Z</time></trkpt><trkpt lat="43.1756933" lon="11.3884717"><ele>273.0</ele><time>2026-04-30T13:40:39.339Z</time></trkpt><trkpt lat="43.175845" lon="11.3883883"><ele>273.3333333333333</ele><time>2026-04-30T13:40:40.338Z</time></trkpt><trkpt lat="43.1760033" lon="11.3882817"><ele>273.66666666666663</ele><time>2026-04-30T13:40:41.339Z</time></trkpt><trkpt lat="43.17616" lon="11.3881583"><ele>274.0</ele><time>2026-04-30T13:40:42.338Z</time></trkpt><trkpt lat="43.17631" lon="11.3880083"><ele>275.3333333333333</ele><time>2026-04-30T13:40:43.338Z</time></trkpt><trkpt lat="43.1764317" lon="11.3878367"><ele>276.6666666666667</ele><time>2026-04-30T13:40:44.339Z</time></trkpt><trkpt lat="43.17653" lon="11.3876333"><ele>278.0</ele><time>2026-04-30T13:40:45.339Z</time></trkpt><trkpt lat="43.1766133" lon="11.387405"><ele>276.0</ele><time>2026-04-30T13:40:46.339Z</time></trkpt><trkpt lat="43.1767133" lon="11.38716"><ele>274.0</ele><time>2026-04-30T13:40:47.339Z</time></trkpt><trkpt lat="43.17682" lon="11.3869033"><ele>272.0</ele><time>2026-04-30T13:40:48.339Z</time></trkpt><trkpt lat="43.1769183" lon="11.3866533"><ele>272.0</ele><time>2026-04-30T13:40:49.339Z</time></trkpt><trkpt lat="43.1770083" lon="11.3864167"><ele>272.0</ele><time>2026-04-30T13:40:50.338Z</time></trkpt><trkpt lat="43.1771033" lon="11.3861867"><ele>272.0</ele><time>2026-04-30T13:40:51.339Z</time></trkpt><trkpt lat="43.177195" lon="11.38598"><ele>272.6666666666667</ele><time>2026-04-30T13:40:52.339Z</time></trkpt><trkpt lat="43.17729" lon="11.3857733"><ele>273.3333333333333</ele><time>2026-04-30T13:40:53.339Z</time></trkpt><trkpt lat="43.17739" lon="11.385595"><ele>274.0</ele><time>2026-04-30T13:40:54.338Z</time></trkpt><trkpt lat="43.1775183" lon="11.38544"><ele>272.3333333333333</ele><time>2026-04-30T13:40:55.339Z</time></trkpt><trkpt lat="43.17766" lon="11.3852933"><ele>270.6666666666667</ele><time>2026-04-30T13:40:56.339Z</time></trkpt><trkpt lat="43.17782" lon="11.3851567"><ele>269.0</ele><time>2026-04-30T13:40:57.339Z</time></trkpt><trkpt lat="43.177985" lon="11.3850233"><ele>269.0</ele><time>2026-04-30T13:40:58.339Z</time></trkpt><trkpt lat="43.1781483" lon="11.3848783"><ele>269.0</ele><time>2026-04-30T13:40:59.339Z</time></trkpt><trkpt lat="43.1783083" lon="11.384725"><ele>269.0</ele><time>2026-04-30T13:41:00.339Z</time></trkpt><trkpt lat="43.1784517" lon="11.384565"><ele>269.0</ele><time>2026-04-30T13:41:01.339Z</time></trkpt><trkpt lat="43.1785933" lon="11.3843867"><ele>269.0</ele><time>2026-04-30T13:41:02.339Z</time></trkpt><trkpt lat="43.1787317" lon="11.384235"><ele>269.0</ele><time>2026-04-30T13:41:03.339Z</time></trkpt><trkpt lat="43.1788833" lon="11.3841083"><ele>267.0</ele><time>2026-04-30T13:41:04.339Z</time></trkpt><trkpt lat="43.1790417" lon="11.38398"><ele>265.0</ele><time>2026-04-30T13:41:05.339Z</time></trkpt><trkpt lat="43.1792017" lon="11.3838783"><ele>263.0</ele><time>2026-04-30T13:41:06.339Z</time></trkpt><trkpt lat="43.17937" lon="11.383785"><ele>263.0</ele><time>2026-04-30T13:41:07.339Z</time></trkpt><trkpt lat="43.1795317" lon="11.3837083"><ele>263.0</ele><time>2026-04-30T13:41:08.338Z</time></trkpt><trkpt lat="43.1796933" lon="11.383645"><ele>263.0</ele><time>2026-04-30T13:41:09.339Z</time></trkpt><trkpt lat="43.1798367" lon="11.3835533"><ele>264.0</ele><time>2026-04-30T13:41:10.338Z</time></trkpt><trkpt lat="43.1799867" lon="11.3834717"><ele>265.0</ele><time>2026-04-30T13:41:11.339Z</time></trkpt><trkpt lat="43.1801367" lon="11.38337"><ele>266.0</ele><time>2026-04-30T13:41:12.339Z</time></trkpt><trkpt lat="43.1802767" lon="11.383265"><ele>266.0</ele><time>2026-04-30T13:41:13.339Z</time></trkpt><trkpt lat="43.180405" lon="11.38316"><ele>266.0</ele><time>2026-04-30T13:41:14.339Z</time></trkpt><trkpt lat="43.1805117" lon="11.3830483"><ele>266.0</ele><time>2026-04-30T13:41:15.339Z</time></trkpt><trkpt lat="43.1806067" lon="11.3829383"><ele>266.0</ele><time>2026-04-30T13:41:16.339Z</time></trkpt><trkpt lat="43.1806967" lon="11.3828533"><ele>266.0</ele><time>2026-04-30T13:41:17.339Z</time></trkpt><trkpt lat="43.1807933" lon="11.382795"><ele>266.0</ele><time>2026-04-30T13:41:18.339Z</time></trkpt><trkpt lat="43.1808917" lon="11.3827733"><ele>266.0</ele><time>2026-04-30T13:41:19.338Z</time></trkpt><trkpt lat="43.1809967" lon="11.382775"><ele>266.0</ele><time>2026-04-30T13:41:20.339Z</time></trkpt><trkpt lat="43.1810917" lon="11.382805"><ele>266.0</ele><time>2026-04-30T13:41:21.339Z</time></trkpt><trkpt lat="43.18119" lon="11.3828483"><ele>266.0</ele><time>2026-04-30T13:41:22.339Z</time></trkpt><trkpt lat="43.181285" lon="11.3828883"><ele>266.0</ele><time>2026-04-30T13:41:23.339Z</time></trkpt><trkpt lat="43.1813783" lon="11.3829217"><ele>266.0</ele><time>2026-04-30T13:41:24.339Z</time></trkpt><trkpt lat="43.1814683" lon="11.3829433"><ele>266.0</ele><time>2026-04-30T13:41:25.339Z</time></trkpt><trkpt lat="43.18155" lon="11.3829633"><ele>266.0</ele><time>2026-04-30T13:41:26.338Z</time></trkpt><trkpt lat="43.181625" lon="11.3829833"><ele>266.0</ele><time>2026-04-30T13:41:27.339Z</time></trkpt><trkpt lat="43.1817" lon="11.3830067"><ele>266.6</ele><time>2026-04-30T13:41:28.339Z</time></trkpt><trkpt lat="43.1817783" lon="11.383025"><ele>267.20000000000005</ele><time>2026-04-30T13:41:29.339Z</time></trkpt><trkpt lat="43.18187" lon="11.3830517"><ele>267.79999999999995</ele><time>2026-04-30T13:41:30.339Z</time></trkpt><trkpt lat="43.181965" lon="11.3830817"><ele>268.4</ele><time>2026-04-30T13:41:31.339Z</time></trkpt><trkpt lat="43.18206" lon="11.3831067"><ele>269.0</ele><time>2026-04-30T13:41:32.339Z</time></trkpt><trkpt lat="43.18216" lon="11.3831317"><ele>269.0</ele><time>2026-04-30T13:41:33.339Z</time></trkpt><trkpt lat="43.1822533" lon="11.383155"><ele>269.0</ele><time>2026-04-30T13:41:34.339Z</time></trkpt><trkpt lat="43.182345" lon="11.38318"><ele>269.0</ele><time>2026-04-30T13:41:35.339Z</time></trkpt><trkpt lat="43.18244" lon="11.383215"><ele>269.0</ele><time>2026-04-30T13:41:36.339Z</time></trkpt><trkpt lat="43.182535" lon="11.3832517"><ele>269.0</ele><time>2026-04-30T13:41:37.338Z</time></trkpt><trkpt lat="43.1826283" lon="11.383295"><ele>269.4</ele><time>2026-04-30T13:41:38.338Z</time></trkpt><trkpt lat="43.1827133" lon="11.38334"><ele>269.79999999999995</ele><time>2026-04-30T13:41:39.339Z</time></trkpt><trkpt lat="43.1828033" lon="11.3833783"><ele>270.20000000000005</ele><time>2026-04-30T13:41:40.339Z</time></trkpt><trkpt lat="43.1828983" lon="11.3834217"><ele>270.6</ele><time>2026-04-30T13:41:41.339Z</time></trkpt><trkpt lat="43.1829933" lon="11.3834667"><ele>271.0</ele><time>2026-04-30T13:41:42.339Z</time></trkpt><trkpt lat="43.1830817" lon="11.3835083"><ele>271.0</ele><time>2026-04-30T13:41:43.338Z</time></trkpt><trkpt lat="43.18317" lon="11.3835517"><ele>271.0</ele><time>2026-04-30T13:41:44.338Z</time></trkpt><trkpt lat="43.1832517" lon="11.3835917"><ele>271.0</ele><time>2026-04-30T13:41:45.339Z</time></trkpt><trkpt lat="43.1833333" lon="11.3836333"><ele>271.0</ele><time>2026-04-30T13:41:46.339Z</time></trkpt><trkpt lat="43.1834217" lon="11.383675"><ele>271.0</ele><time>2026-04-30T13:41:47.339Z</time></trkpt><trkpt lat="43.18351" lon="11.3837067"><ele>271.40000000000003</ele><time>2026-04-30T13:41:48.339Z</time></trkpt><trkpt lat="43.1836033" lon="11.3837383"><ele>271.8</ele><time>2026-04-30T13:41:49.339Z</time></trkpt><trkpt lat="43.1837" lon="11.38377"><ele>272.20000000000005</ele><time>2026-04-30T13:41:50.339Z</time></trkpt><trkpt lat="43.183795" lon="11.3838033"><ele>272.6</ele><time>2026-04-30T13:41:51.339Z</time></trkpt><trkpt lat="43.1838833" lon="11.3838383"><ele>273.0</ele><time>2026-04-30T13:41:52.339Z</time></trkpt><trkpt lat="43.1839717" lon="11.383875"><ele>273.4</ele><time>2026-04-30T13:41:53.339Z</time></trkpt><trkpt lat="43.1840617" lon="11.3839167"><ele>273.8</ele><time>2026-04-30T13:41:54.339Z</time></trkpt><trkpt lat="43.18415" lon="11.38396"><ele>274.2</ele><time>2026-04-30T13:41:55.339Z</time></trkpt><trkpt lat="43.1842367" lon="11.3840133"><ele>274.6</ele><time>2026-04-30T13:41:56.339Z</time></trkpt><trkpt lat="43.1843233" lon="11.384075"><ele>275.0</ele><time>2026-04-30T13:41:57.339Z</time></trkpt><trkpt lat="43.18441" lon="11.3841417"><ele>275.0</ele><time>2026-04-30T13:41:58.338Z</time></trkpt><trkpt lat="43.1844867" lon="11.3842133"><ele>275.0</ele><time>2026-04-30T13:41:59.338Z</time></trkpt><trkpt lat="43.1845583" lon="11.3842883"><ele>275.0</ele><time>2026-04-30T13:42:00.339Z</time></trkpt><trkpt lat="43.184625" lon="11.3843583"><ele>275.0</ele><time>2026-04-30T13:42:01.338Z</time></trkpt><trkpt lat="43.1846933" lon="11.3844233"><ele>275.0</ele><time>2026-04-30T13:42:02.339Z</time></trkpt><trkpt lat="43.1847483" lon="11.3844883"><ele>275.0</ele><time>2026-04-30T13:42:03.339Z</time></trkpt><trkpt lat="43.1847983" lon="11.3845567"><ele>274.0</ele><time>2026-04-30T13:42:04.338Z</time></trkpt><trkpt lat="43.18485" lon="11.3846117"><ele>273.0</ele><time>2026-04-30T13:42:05.338Z</time></trkpt><trkpt lat="43.1849283" lon="11.38473"><ele>272.0</ele><time>2026-04-30T13:42:07.339Z</time></trkpt><trkpt lat="43.1849967" lon="11.384865"><ele>271.0</ele><time>2026-04-30T13:42:09.339Z</time></trkpt><trkpt lat="43.1850733" lon="11.3850033"><ele>270.0</ele><time>2026-04-30T13:42:11.339Z</time></trkpt><trkpt lat="43.1851617" lon="11.38513"><ele>269.4</ele><time>2026-04-30T13:42:13.339Z</time></trkpt><trkpt lat="43.185215" lon="11.3851933"><ele>268.8</ele><time>2026-04-30T13:42:14.339Z</time></trkpt><trkpt lat="43.185265" lon="11.38525"><ele>268.2</ele><time>2026-04-30T13:42:15.339Z</time></trkpt><trkpt lat="43.1853633" lon="11.38535"><ele>267.6</ele><time>2026-04-30T13:42:17.339Z</time></trkpt><trkpt lat="43.185465" lon="11.3854133"><ele>267.0</ele><time>2026-04-30T13:42:19.339Z</time></trkpt><trkpt lat="43.185595" lon="11.38543"><ele>267.0</ele><time>2026-04-30T13:42:21.339Z</time></trkpt><trkpt lat="43.185665" lon="11.38543"><ele>267.0</ele><time>2026-04-30T13:42:22.339Z</time></trkpt><trkpt lat="43.1857367" lon="11.38543"><ele>267.0</ele><time>2026-04-30T13:42:23.339Z</time></trkpt><trkpt lat="43.185815" lon="11.3854317"><ele>267.0</ele><time>2026-04-30T13:42:24.339Z</time></trkpt><trkpt lat="43.1859" lon="11.38543"><ele>267.0</ele><time>2026-04-30T13:42:25.339Z</time></trkpt><trkpt lat="43.1859867" lon="11.3854233"><ele>267.0</ele><time>2026-04-30T13:42:26.339Z</time></trkpt><trkpt lat="43.1860683" lon="11.3854217"><ele>265.1666666666667</ele><time>2026-04-30T13:42:27.339Z</time></trkpt><trkpt lat="43.1861467" lon="11.3854167"><ele>263.3333333333333</ele><time>2026-04-30T13:42:28.339Z</time></trkpt><trkpt lat="43.1862217" lon="11.38541"><ele>261.5</ele><time>2026-04-30T13:42:29.338Z</time></trkpt><trkpt lat="43.1863033" lon="11.3854033"><ele>259.66666666666663</ele><time>2026-04-30T13:42:30.339Z</time></trkpt><trkpt lat="43.18638" lon="11.3854033"><ele>257.8333333333333</ele><time>2026-04-30T13:42:31.338Z</time></trkpt><trkpt lat="43.1864667" lon="11.3853983"><ele>256.0</ele><time>2026-04-30T13:42:32.339Z</time></trkpt><trkpt lat="43.1865633" lon="11.3853883"><ele>254.4</ele><time>2026-04-30T13:42:33.339Z</time></trkpt><trkpt lat="43.1866617" lon="11.3853717"><ele>252.8</ele><time>2026-04-30T13:42:34.339Z</time></trkpt><trkpt lat="43.1867667" lon="11.385345"><ele>251.20000000000002</ele><time>2026-04-30T13:42:35.339Z</time></trkpt><trkpt lat="43.186865" lon="11.3853183"><ele>249.60000000000002</ele><time>2026-04-30T13:42:36.339Z</time></trkpt><trkpt lat="43.1869683" lon="11.3852983"><ele>248.0</ele><time>2026-04-30T13:42:37.338Z</time></trkpt><trkpt lat="43.187065" lon="11.3852817"><ele>248.00000000000003</ele><time>2026-04-30T13:42:38.339Z</time></trkpt><trkpt lat="43.187155" lon="11.3852683"><ele>248.0</ele><time>2026-04-30T13:42:39.339Z</time></trkpt><trkpt lat="43.1872417" lon="11.3852633"><ele>248.0</ele><time>2026-04-30T13:42:40.339Z</time></trkpt><trkpt lat="43.1873283" lon="11.3852717"><ele>248.0</ele><time>2026-04-30T13:42:41.339Z</time></trkpt><trkpt lat="43.1874133" lon="11.3852767"><ele>248.00000000000003</ele><time>2026-04-30T13:42:42.339Z</time></trkpt><trkpt lat="43.1874967" lon="11.3852933"><ele>248.0</ele><time>2026-04-30T13:42:43.339Z</time></trkpt><trkpt lat="43.1875767" lon="11.38532"><ele>247.42857142857144</ele><time>2026-04-30T13:42:44.339Z</time></trkpt><trkpt lat="43.1876433" lon="11.3853517"><ele>246.8571428571429</ele><time>2026-04-30T13:42:45.339Z</time></trkpt><trkpt lat="43.18772" lon="11.3853833"><ele>246.28571428571428</ele><time>2026-04-30T13:42:46.338Z</time></trkpt><trkpt lat="43.1877867" lon="11.385415"><ele>245.71428571428572</ele><time>2026-04-30T13:42:47.339Z</time></trkpt><trkpt lat="43.1878633" lon="11.3854467"><ele>245.14285714285714</ele><time>2026-04-30T13:42:48.339Z</time></trkpt><trkpt lat="43.1879317" lon="11.3854783"><ele>244.57142857142856</ele><time>2026-04-30T13:42:49.339Z</time></trkpt><trkpt lat="43.1879967" lon="11.3855167"><ele>243.99999999999997</ele><time>2026-04-30T13:42:50.338Z</time></trkpt><trkpt lat="43.1880717" lon="11.3855583"><ele>243.99999999999997</ele><time>2026-04-30T13:42:51.339Z</time></trkpt><trkpt lat="43.188145" lon="11.38561"><ele>244.0</ele><time>2026-04-30T13:42:52.339Z</time></trkpt><trkpt lat="43.1882167" lon="11.385665"><ele>244.0</ele><time>2026-04-30T13:42:53.338Z</time></trkpt><trkpt lat="43.1882783" lon="11.38573"><ele>244.0</ele><time>2026-04-30T13:42:54.339Z</time></trkpt><trkpt lat="43.18834" lon="11.3857867"><ele>243.99999999999997</ele><time>2026-04-30T13:42:55.339Z</time></trkpt><trkpt lat="43.1883967" lon="11.3858467"><ele>244.0</ele><time>2026-04-30T13:42:56.339Z</time></trkpt><trkpt lat="43.188455" lon="11.3858883"><ele>240.99999999999997</ele><time>2026-04-30T13:42:57.339Z</time></trkpt><trkpt lat="43.1885183" lon="11.385925"><ele>238.0</ele><time>2026-04-30T13:42:58.339Z</time></trkpt><trkpt lat="43.18859" lon="11.3859533"><ele>235.0</ele><time>2026-04-30T13:42:59.339Z</time></trkpt><trkpt lat="43.1886583" lon="11.38597"><ele>232.0</ele><time>2026-04-30T13:43:00.339Z</time></trkpt><trkpt lat="43.1887417" lon="11.3859717"><ele>228.99999999999997</ele><time>2026-04-30T13:43:01.339Z</time></trkpt><trkpt lat="43.1888333" lon="11.38596"><ele>226.0</ele><time>2026-04-30T13:43:02.338Z</time></trkpt><trkpt lat="43.1889233" lon="11.385945"><ele>224.60000000000002</ele><time>2026-04-30T13:43:03.338Z</time></trkpt><trkpt lat="43.1890183" lon="11.3859167"><ele>223.20000000000002</ele><time>2026-04-30T13:43:04.339Z</time></trkpt><trkpt lat="43.1891167" lon="11.3858783"><ele>221.79999999999998</ele><time>2026-04-30T13:43:05.339Z</time></trkpt><trkpt lat="43.1892167" lon="11.3858383"><ele>220.39999999999998</ele><time>2026-04-30T13:43:06.339Z</time></trkpt><trkpt lat="43.1893167" lon="11.3858017"><ele>219.0</ele><time>2026-04-30T13:43:07.339Z</time></trkpt><trkpt lat="43.1894167" lon="11.38576"><ele>219.0</ele><time>2026-04-30T13:43:08.339Z</time></trkpt><trkpt lat="43.189525" lon="11.385725"><ele>218.99999999999997</ele><time>2026-04-30T13:43:09.339Z</time></trkpt><trkpt lat="43.18963" lon="11.3857017"><ele>218.99999999999997</ele><time>2026-04-30T13:43:10.339Z</time></trkpt><trkpt lat="43.1897383" lon="11.385675"><ele>219.0</ele><time>2026-04-30T13:43:11.339Z</time></trkpt><trkpt lat="43.189845" lon="11.3856433"><ele>219.0</ele><time>2026-04-30T13:43:12.339Z</time></trkpt><trkpt lat="43.1899467" lon="11.3856183"><ele>219.6</ele><time>2026-04-30T13:43:13.339Z</time></trkpt><trkpt lat="43.19005" lon="11.38559"><ele>220.2</ele><time>2026-04-30T13:43:14.339Z</time></trkpt><trkpt lat="43.1901467" lon="11.3855533"><ele>220.79999999999998</ele><time>2026-04-30T13:43:15.339Z</time></trkpt><trkpt lat="43.1902533" lon="11.3855233"><ele>221.39999999999998</ele><time>2026-04-30T13:43:16.339Z</time></trkpt><trkpt lat="43.1903483" lon="11.3854883"><ele>222.0</ele><time>2026-04-30T13:43:17.338Z</time></trkpt><trkpt lat="43.1904483" lon="11.3854367"><ele>223.5</ele><time>2026-04-30T13:43:18.339Z</time></trkpt><trkpt lat="43.1905517" lon="11.3853733"><ele>225.0</ele><time>2026-04-30T13:43:19.339Z</time></trkpt><trkpt lat="43.190655" lon="11.38531"><ele>226.5</ele><time>2026-04-30T13:43:20.339Z</time></trkpt><trkpt lat="43.19076" lon="11.3852217"><ele>228.0</ele><time>2026-04-30T13:43:21.339Z</time></trkpt><trkpt lat="43.1908483" lon="11.385135"><ele>228.0</ele><time>2026-04-30T13:43:22.338Z</time></trkpt><trkpt lat="43.1909267" lon="11.3850583"><ele>228.0</ele><time>2026-04-30T13:43:23.338Z</time></trkpt><trkpt lat="43.191015" lon="11.3849733"><ele>228.0</ele><time>2026-04-30T13:43:24.339Z</time></trkpt><trkpt lat="43.191095" lon="11.3848783"><ele>228.0</ele><time>2026-04-30T13:43:25.339Z</time></trkpt><trkpt lat="43.1911683" lon="11.38478"><ele>228.0</ele><time>2026-04-30T13:43:26.339Z</time></trkpt><trkpt lat="43.1912433" lon="11.3846733"><ele>227.4</ele><time>2026-04-30T13:43:27.338Z</time></trkpt><trkpt lat="43.1913183" lon="11.38456"><ele>226.8</ele><time>2026-04-30T13:43:28.339Z</time></trkpt><trkpt lat="43.191395" lon="11.3844417"><ele>226.2</ele><time>2026-04-30T13:43:29.338Z</time></trkpt><trkpt lat="43.19146" lon="11.3843433"><ele>225.6</ele><time>2026-04-30T13:43:30.339Z</time></trkpt><trkpt lat="43.1915233" lon="11.384255"><ele>225.0</ele><time>2026-04-30T13:43:31.339Z</time></trkpt><trkpt lat="43.1915883" lon="11.3841783"><ele>225.0</ele><time>2026-04-30T13:43:32.339Z</time></trkpt><trkpt lat="43.1916583" lon="11.3841083"><ele>225.0</ele><time>2026-04-30T13:43:33.339Z</time></trkpt><trkpt lat="43.1917283" lon="11.3840483"><ele>225.0</ele><time>2026-04-30T13:43:34.339Z</time></trkpt><trkpt lat="43.1918033" lon="11.384"><ele>225.0</ele><time>2026-04-30T13:43:35.338Z</time></trkpt><trkpt lat="43.1918717" lon="11.3839633"><ele>225.0</ele><time>2026-04-30T13:43:36.339Z</time></trkpt><trkpt lat="43.1919383" lon="11.3839433"><ele>225.0</ele><time>2026-04-30T13:43:37.339Z</time></trkpt><trkpt lat="43.1920117" lon="11.383945"><ele>225.0</ele><time>2026-04-30T13:43:38.339Z</time></trkpt><trkpt lat="43.1921083" lon="11.3839533"><ele>225.0</ele><time>2026-04-30T13:43:39.339Z</time></trkpt><trkpt lat="43.19222" lon="11.3839567"><ele>225.0</ele><time>2026-04-30T13:43:40.339Z</time></trkpt><trkpt lat="43.1923133" lon="11.3839367"><ele>225.0</ele><time>2026-04-30T13:43:41.339Z</time></trkpt><trkpt lat="43.1924233" lon="11.3839067"><ele>225.0</ele><time>2026-04-30T13:43:42.339Z</time></trkpt><trkpt lat="43.1925383" lon="11.383865"><ele>224.0</ele><time>2026-04-30T13:43:43.339Z</time></trkpt><trkpt lat="43.19266" lon="11.383825"><ele>223.0</ele><time>2026-04-30T13:43:44.338Z</time></trkpt><trkpt lat="43.192775" lon="11.383785"><ele>222.0</ele><time>2026-04-30T13:43:45.338Z</time></trkpt><trkpt lat="43.1928867" lon="11.38374"><ele>221.0</ele><time>2026-04-30T13:43:46.338Z</time></trkpt><trkpt lat="43.1929917" lon="11.3837033"><ele>221.0</ele><time>2026-04-30T13:43:47.338Z</time></trkpt><trkpt lat="43.1930967" lon="11.3836633"><ele>221.00000000000003</ele><time>2026-04-30T13:43:48.339Z</time></trkpt><trkpt lat="43.1931967" lon="11.3836217"><ele>221.00000000000003</ele><time>2026-04-30T13:43:49.338Z</time></trkpt><trkpt lat="43.1932883" lon="11.3835783"><ele>221.0</ele><time>2026-04-30T13:43:50.339Z</time></trkpt><trkpt lat="43.1933733" lon="11.3835417"><ele>221.0</ele><time>2026-04-30T13:43:51.338Z</time></trkpt><trkpt lat="43.1934617" lon="11.383505"><ele>221.00000000000003</ele><time>2026-04-30T13:43:52.338Z</time></trkpt><trkpt lat="43.19354" lon="11.3834533"><ele>221.0</ele><time>2026-04-30T13:43:53.339Z</time></trkpt><trkpt lat="43.1936083" lon="11.3833867"><ele>221.0</ele><time>2026-04-30T13:43:54.339Z</time></trkpt><trkpt lat="43.193665" lon="11.3833017"><ele>221.0</ele><time>2026-04-30T13:43:55.339Z</time></trkpt><trkpt lat="43.19371" lon="11.3832017"><ele>221.00000000000003</ele><time>2026-04-30T13:43:56.339Z</time></trkpt><trkpt lat="43.1937533" lon="11.3830917"><ele>221.0</ele><time>2026-04-30T13:43:57.339Z</time></trkpt><trkpt lat="43.1937917" lon="11.3829683"><ele>221.0</ele><time>2026-04-30T13:43:58.339Z</time></trkpt><trkpt lat="43.1938267" lon="11.38285"><ele>221.00000000000003</ele><time>2026-04-30T13:43:59.338Z</time></trkpt><trkpt lat="43.19387" lon="11.3827183"><ele>221.00000000000003</ele><time>2026-04-30T13:44:00.339Z</time></trkpt><trkpt lat="43.193915" lon="11.3826017"><ele>221.0</ele><time>2026-04-30T13:44:01.338Z</time></trkpt><trkpt lat="43.193965" lon="11.3824667"><ele>221.0</ele><time>2026-04-30T13:44:02.339Z</time></trkpt><trkpt lat="43.1940133" lon="11.3823317"><ele>222.20000000000002</ele><time>2026-04-30T13:44:03.338Z</time></trkpt><trkpt lat="43.19407" lon="11.3821967"><ele>223.40000000000003</ele><time>2026-04-30T13:44:04.339Z</time></trkpt><trkpt lat="43.194115" lon="11.3820567"><ele>224.6</ele><time>2026-04-30T13:44:05.339Z</time></trkpt><trkpt lat="43.1941583" lon="11.381915"><ele>225.8</ele><time>2026-04-30T13:44:06.339Z</time></trkpt><trkpt lat="43.1942033" lon="11.3817767"><ele>227.0</ele><time>2026-04-30T13:44:07.338Z</time></trkpt><trkpt lat="43.1942467" lon="11.3816417"><ele>227.2</ele><time>2026-04-30T13:44:08.338Z</time></trkpt><trkpt lat="43.1942967" lon="11.3815067"><ele>227.39999999999998</ele><time>2026-04-30T13:44:09.338Z</time></trkpt><trkpt lat="43.1943417" lon="11.3813817"><ele>227.60000000000002</ele><time>2026-04-30T13:44:10.339Z</time></trkpt><trkpt lat="43.1943867" lon="11.38126"><ele>227.8</ele><time>2026-04-30T13:44:11.339Z</time></trkpt><trkpt lat="43.194425" lon="11.3811417"><ele>228.0</ele><time>2026-04-30T13:44:12.337Z</time></trkpt><trkpt lat="43.1944567" lon="11.3810217"><ele>228.0</ele><time>2026-04-30T13:44:13.338Z</time></trkpt><trkpt lat="43.1944833" lon="11.3809017"><ele>228.0</ele><time>2026-04-30T13:44:14.338Z</time></trkpt><trkpt lat="43.19451" lon="11.3807683"><ele>228.0</ele><time>2026-04-30T13:44:15.338Z</time></trkpt><trkpt lat="43.1945267" lon="11.3806333"><ele>228.0</ele><time>2026-04-30T13:44:16.338Z</time></trkpt><trkpt lat="43.1945417" lon="11.3804933"><ele>228.0</ele><time>2026-04-30T13:44:17.337Z</time></trkpt><trkpt lat="43.1945667" lon="11.3803483"><ele>227.8</ele><time>2026-04-30T13:44:18.338Z</time></trkpt><trkpt lat="43.194585" lon="11.3802217"><ele>227.60000000000002</ele><time>2026-04-30T13:44:19.337Z</time></trkpt><trkpt lat="43.194605" lon="11.3800917"><ele>227.39999999999998</ele><time>2026-04-30T13:44:20.337Z</time></trkpt><trkpt lat="43.1946267" lon="11.3799583"><ele>227.2</ele><time>2026-04-30T13:44:21.338Z</time></trkpt><trkpt lat="43.1946583" lon="11.3798217"><ele>227.0</ele><time>2026-04-30T13:44:22.338Z</time></trkpt><trkpt lat="43.1946833" lon="11.379685"><ele>227.0</ele><time>2026-04-30T13:44:23.338Z</time></trkpt><trkpt lat="43.19471" lon="11.3795483"><ele>227.0</ele><time>2026-04-30T13:44:24.338Z</time></trkpt><trkpt lat="43.19474" lon="11.3794217"><ele>227.0</ele><time>2026-04-30T13:44:25.338Z</time></trkpt><trkpt lat="43.1947817" lon="11.3793067"><ele>227.0</ele><time>2026-04-30T13:44:26.337Z</time></trkpt><trkpt lat="43.19483" lon="11.37919"><ele>227.0</ele><time>2026-04-30T13:44:27.337Z</time></trkpt><trkpt lat="43.19489" lon="11.3790783"><ele>227.6</ele><time>2026-04-30T13:44:28.338Z</time></trkpt><trkpt lat="43.1949583" lon="11.3789833"><ele>228.2</ele><time>2026-04-30T13:44:29.338Z</time></trkpt><trkpt lat="43.1950333" lon="11.3788917"><ele>228.8</ele><time>2026-04-30T13:44:30.337Z</time></trkpt><trkpt lat="43.1951083" lon="11.3787983"><ele>229.4</ele><time>2026-04-30T13:44:31.338Z</time></trkpt><trkpt lat="43.19518" lon="11.3787167"><ele>230.0</ele><time>2026-04-30T13:44:32.337Z</time></trkpt><trkpt lat="43.195255" lon="11.3786433"><ele>230.0</ele><time>2026-04-30T13:44:33.338Z</time></trkpt><trkpt lat="43.1953517" lon="11.3785833"><ele>230.0</ele><time>2026-04-30T13:44:34.338Z</time></trkpt><trkpt lat="43.195455" lon="11.3785283"><ele>230.0</ele><time>2026-04-30T13:44:35.337Z</time></trkpt><trkpt lat="43.1955667" lon="11.3784817"><ele>230.0</ele><time>2026-04-30T13:44:36.338Z</time></trkpt><trkpt lat="43.1956883" lon="11.3784267"><ele>231.0</ele><time>2026-04-30T13:44:37.338Z</time></trkpt><trkpt lat="43.1958133" lon="11.3783767"><ele>232.0</ele><time>2026-04-30T13:44:38.338Z</time></trkpt><trkpt lat="43.1959517" lon="11.3783217"><ele>233.0</ele><time>2026-04-30T13:44:39.337Z</time></trkpt><trkpt lat="43.19608" lon="11.378255"><ele>234.0</ele><time>2026-04-30T13:44:40.338Z</time></trkpt><trkpt lat="43.196205" lon="11.3781733"><ele>234.0</ele><time>2026-04-30T13:44:41.337Z</time></trkpt><trkpt lat="43.1963267" lon="11.3780883"><ele>234.0</ele><time>2026-04-30T13:44:42.338Z</time></trkpt><trkpt lat="43.1964517" lon="11.37801"><ele>234.0</ele><time>2026-04-30T13:44:43.338Z</time></trkpt><trkpt lat="43.1965683" lon="11.377925"><ele>234.0</ele><time>2026-04-30T13:44:44.338Z</time></trkpt><trkpt lat="43.1966883" lon="11.3778367"><ele>233.5</ele><time>2026-04-30T13:44:45.338Z</time></trkpt><trkpt lat="43.196805" lon="11.37775"><ele>233.0</ele><time>2026-04-30T13:44:46.337Z</time></trkpt><trkpt lat="43.1969167" lon="11.3776683"><ele>232.5</ele><time>2026-04-30T13:44:47.338Z</time></trkpt><trkpt lat="43.1970333" lon="11.377585"><ele>232.0</ele><time>2026-04-30T13:44:48.338Z</time></trkpt><trkpt lat="43.19716" lon="11.3775067"><ele>232.0</ele><time>2026-04-30T13:44:49.337Z</time></trkpt><trkpt lat="43.197285" lon="11.377425"><ele>232.0</ele><time>2026-04-30T13:44:50.338Z</time></trkpt><trkpt lat="43.1974117" lon="11.3773433"><ele>232.0</ele><time>2026-04-30T13:44:51.338Z</time></trkpt><trkpt lat="43.1975267" lon="11.3772583"><ele>232.0</ele><time>2026-04-30T13:44:52.338Z</time></trkpt><trkpt lat="43.197645" lon="11.3771733"><ele>233.0</ele><time>2026-04-30T13:44:53.338Z</time></trkpt><trkpt lat="43.1977567" lon="11.3770967"><ele>234.0</ele><time>2026-04-30T13:44:54.338Z</time></trkpt><trkpt lat="43.1978567" lon="11.37702"><ele>235.0</ele><time>2026-04-30T13:44:55.337Z</time></trkpt><trkpt lat="43.1979517" lon="11.3769367"><ele>236.0</ele><time>2026-04-30T13:44:56.338Z</time></trkpt><trkpt lat="43.198035" lon="11.376845"><ele>236.0</ele><time>2026-04-30T13:44:57.337Z</time></trkpt><trkpt lat="43.1981083" lon="11.376755"><ele>236.00000000000003</ele><time>2026-04-30T13:44:58.337Z</time></trkpt><trkpt lat="43.19818" lon="11.3766733"><ele>236.00000000000003</ele><time>2026-04-30T13:44:59.338Z</time></trkpt><trkpt lat="43.19825" lon="11.3765883"><ele>236.0</ele><time>2026-04-30T13:45:00.338Z</time></trkpt><trkpt lat="43.1983217" lon="11.376515"><ele>236.0</ele><time>2026-04-30T13:45:01.337Z</time></trkpt><trkpt lat="43.1984033" lon="11.3764467"><ele>236.0</ele><time>2026-04-30T13:45:02.338Z</time></trkpt><trkpt lat="43.1985" lon="11.3763817"><ele>236.00000000000003</ele><time>2026-04-30T13:45:03.338Z</time></trkpt><trkpt lat="43.198605" lon="11.376335"><ele>236.00000000000003</ele><time>2026-04-30T13:45:04.338Z</time></trkpt><trkpt lat="43.1987067" lon="11.3762933"><ele>236.0</ele><time>2026-04-30T13:45:05.338Z</time></trkpt><trkpt lat="43.1988183" lon="11.37626"><ele>236.0</ele><time>2026-04-30T13:45:06.338Z</time></trkpt><trkpt lat="43.198925" lon="11.3762367"><ele>237.60000000000002</ele><time>2026-04-30T13:45:07.338Z</time></trkpt><trkpt lat="43.1990333" lon="11.3762217"><ele>239.20000000000002</ele><time>2026-04-30T13:45:08.337Z</time></trkpt><trkpt lat="43.199135" lon="11.3762"><ele>240.79999999999998</ele><time>2026-04-30T13:45:09.338Z</time></trkpt><trkpt lat="43.1992183" lon="11.3761683"><ele>242.39999999999998</ele><time>2026-04-30T13:45:10.338Z</time></trkpt><trkpt lat="43.19931" lon="11.3761167"><ele>244.0</ele><time>2026-04-30T13:45:11.338Z</time></trkpt><trkpt lat="43.1993917" lon="11.3760533"><ele>244.0</ele><time>2026-04-30T13:45:12.338Z</time></trkpt><trkpt lat="43.1994683" lon="11.3759733"><ele>243.99999999999997</ele><time>2026-04-30T13:45:13.338Z</time></trkpt><trkpt lat="43.1995433" lon="11.3758883"><ele>243.99999999999997</ele><time>2026-04-30T13:45:14.338Z</time></trkpt><trkpt lat="43.1996183" lon="11.3757967"><ele>244.0</ele><time>2026-04-30T13:45:15.338Z</time></trkpt><trkpt lat="43.1996833" lon="11.3757083"><ele>244.0</ele><time>2026-04-30T13:45:16.338Z</time></trkpt><trkpt lat="43.199755" lon="11.37562"><ele>243.99999999999997</ele><time>2026-04-30T13:45:17.338Z</time></trkpt><trkpt lat="43.1998183" lon="11.3755317"><ele>244.0</ele><time>2026-04-30T13:45:18.338Z</time></trkpt><trkpt lat="43.1998783" lon="11.3754217"><ele>244.0</ele><time>2026-04-30T13:45:19.338Z</time></trkpt><trkpt lat="43.1999283" lon="11.3753283"><ele>244.0</ele><time>2026-04-30T13:45:20.338Z</time></trkpt><trkpt lat="43.1999733" lon="11.3752317"><ele>243.99999999999997</ele><time>2026-04-30T13:45:21.338Z</time></trkpt><trkpt lat="43.2000133" lon="11.3751433"><ele>244.0</ele><time>2026-04-30T13:45:22.337Z</time></trkpt><trkpt lat="43.200055" lon="11.3750717"><ele>246.39999999999998</ele><time>2026-04-30T13:45:23.337Z</time></trkpt><trkpt lat="43.2001483" lon="11.3750067"><ele>248.79999999999998</ele><time>2026-04-30T13:45:25.338Z</time></trkpt><trkpt lat="43.200245" lon="11.375015"><ele>251.20000000000002</ele><time>2026-04-30T13:45:27.338Z</time></trkpt><trkpt lat="43.2003617" lon="11.3750683"><ele>253.60000000000002</ele><time>2026-04-30T13:45:29.338Z</time></trkpt><trkpt lat="43.2004333" lon="11.37511"><ele>256.0</ele><time>2026-04-30T13:45:30.338Z</time></trkpt><trkpt lat="43.2005117" lon="11.3751567"><ele>255.99999999999997</ele><time>2026-04-30T13:45:31.337Z</time></trkpt><trkpt lat="43.20059" lon="11.3752067"><ele>256.0</ele><time>2026-04-30T13:45:32.337Z</time></trkpt><trkpt lat="43.2006717" lon="11.375255"><ele>256.0</ele><time>2026-04-30T13:45:33.337Z</time></trkpt><trkpt lat="43.2007483" lon="11.3753017"><ele>256.0</ele><time>2026-04-30T13:45:34.338Z</time></trkpt><trkpt lat="43.2008183" lon="11.3753417"><ele>255.99999999999997</ele><time>2026-04-30T13:45:35.338Z</time></trkpt><trkpt lat="43.200885" lon="11.3753767"><ele>256.0</ele><time>2026-04-30T13:45:36.338Z</time></trkpt><trkpt lat="43.2009767" lon="11.3754183"><ele>259.0</ele><time>2026-04-30T13:45:38.338Z</time></trkpt><trkpt lat="43.2010767" lon="11.3754217"><ele>262.0</ele><time>2026-04-30T13:45:40.337Z</time></trkpt><trkpt lat="43.20119" lon="11.3753717"><ele>265.0</ele><time>2026-04-30T13:45:42.337Z</time></trkpt><trkpt lat="43.2013033" lon="11.3752783"><ele>268.0</ele><time>2026-04-30T13:45:44.338Z</time></trkpt><trkpt lat="43.2013583" lon="11.3752333"><ele>271.0</ele><time>2026-04-30T13:45:45.338Z</time></trkpt><trkpt lat="43.2014217" lon="11.375185"><ele>271.0</ele><time>2026-04-30T13:45:46.338Z</time></trkpt><trkpt lat="43.2014967" lon="11.375125"><ele>271.0</ele><time>2026-04-30T13:45:47.338Z</time></trkpt><trkpt lat="43.2015767" lon="11.3750633"><ele>271.0</ele><time>2026-04-30T13:45:48.337Z</time></trkpt><trkpt lat="43.20165" lon="11.3750167"><ele>271.0</ele><time>2026-04-30T13:45:49.338Z</time></trkpt><trkpt lat="43.201715" lon="11.3749717"><ele>271.0</ele><time>2026-04-30T13:45:50.338Z</time></trkpt><trkpt lat="43.2017767" lon="11.3749417"><ele>271.0</ele><time>2026-04-30T13:45:51.338Z</time></trkpt><trkpt lat="43.2018433" lon="11.3749117"><ele>270.16666666666663</ele><time>2026-04-30T13:45:52.338Z</time></trkpt><trkpt lat="43.2019083" lon="11.3748783"><ele>269.3333333333333</ele><time>2026-04-30T13:45:53.337Z</time></trkpt><trkpt lat="43.2019817" lon="11.3748467"><ele>268.5</ele><time>2026-04-30T13:45:54.338Z</time></trkpt><trkpt lat="43.20206" lon="11.37482"><ele>267.6666666666667</ele><time>2026-04-30T13:45:55.337Z</time></trkpt><trkpt lat="43.2021317" lon="11.3747967"><ele>266.83333333333337</ele><time>2026-04-30T13:45:56.337Z</time></trkpt><trkpt lat="43.2022017" lon="11.3747717"><ele>266.0</ele><time>2026-04-30T13:45:57.337Z</time></trkpt><trkpt lat="43.20228" lon="11.3747383"><ele>265.83333333333337</ele><time>2026-04-30T13:45:58.338Z</time></trkpt><trkpt lat="43.2023583" lon="11.3747217"><ele>265.6666666666667</ele><time>2026-04-30T13:45:59.338Z</time></trkpt><trkpt lat="43.202435" lon="11.3747"><ele>265.5</ele><time>2026-04-30T13:46:00.338Z</time></trkpt><trkpt lat="43.20252" lon="11.3746783"><ele>265.3333333333333</ele><time>2026-04-30T13:46:01.337Z</time></trkpt><trkpt lat="43.20261" lon="11.3746583"><ele>265.16666666666663</ele><time>2026-04-30T13:46:02.337Z</time></trkpt><trkpt lat="43.2027017" lon="11.37464"><ele>265.0</ele><time>2026-04-30T13:46:03.338Z</time></trkpt><trkpt lat="43.2027933" lon="11.3746183"><ele>265.0</ele><time>2026-04-30T13:46:04.338Z</time></trkpt><trkpt lat="43.2028817" lon="11.374595"><ele>265.0</ele><time>2026-04-30T13:46:05.338Z</time></trkpt><trkpt lat="43.2029733" lon="11.37458"><ele>265.0</ele><time>2026-04-30T13:46:06.338Z</time></trkpt><trkpt lat="43.203065" lon="11.374565"><ele>265.0</ele><time>2026-04-30T13:46:07.338Z</time></trkpt><trkpt lat="43.203145" lon="11.37454"><ele>265.0</ele><time>2026-04-30T13:46:08.337Z</time></trkpt><trkpt lat="43.2032267" lon="11.3745083"><ele>265.0</ele><time>2026-04-30T13:46:09.337Z</time></trkpt><trkpt lat="43.2033" lon="11.3744583"><ele>263.8333333333333</ele><time>2026-04-30T13:46:10.338Z</time></trkpt><trkpt lat="43.2033817" lon="11.3743933"><ele>262.66666666666663</ele><time>2026-04-30T13:46:11.338Z</time></trkpt><trkpt lat="43.2034517" lon="11.374325"><ele>261.5</ele><time>2026-04-30T13:46:12.338Z</time></trkpt><trkpt lat="43.203525" lon="11.37426"><ele>260.3333333333333</ele><time>2026-04-30T13:46:13.338Z</time></trkpt><trkpt lat="43.2035917" lon="11.3741933"><ele>259.1666666666667</ele><time>2026-04-30T13:46:14.338Z</time></trkpt><trkpt lat="43.2036717" lon="11.374145"><ele>258.0</ele><time>2026-04-30T13:46:15.338Z</time></trkpt><trkpt lat="43.2037567" lon="11.3740933"><ele>258.0</ele><time>2026-04-30T13:46:16.338Z</time></trkpt><trkpt lat="43.20384" lon="11.3740567"><ele>258.0</ele><time>2026-04-30T13:46:17.338Z</time></trkpt><trkpt lat="43.2039217" lon="11.3740217"><ele>258.0</ele><time>2026-04-30T13:46:18.338Z</time></trkpt><trkpt lat="43.2040033" lon="11.3739867"><ele>258.0</ele><time>2026-04-30T13:46:19.338Z</time></trkpt><trkpt lat="43.2040817" lon="11.3739417"><ele>258.0</ele><time>2026-04-30T13:46:20.338Z</time></trkpt><trkpt lat="43.2041633" lon="11.3739167"><ele>258.0</ele><time>2026-04-30T13:46:21.338Z</time></trkpt><trkpt lat="43.2042333" lon="11.3739"><ele>256.8333333333333</ele><time>2026-04-30T13:46:22.338Z</time></trkpt><trkpt lat="43.2043133" lon="11.37388"><ele>255.66666666666669</ele><time>2026-04-30T13:46:23.338Z</time></trkpt><trkpt lat="43.20439" lon="11.3738517"><ele>254.5</ele><time>2026-04-30T13:46:24.337Z</time></trkpt><trkpt lat="43.2044683" lon="11.3738217"><ele>253.33333333333334</ele><time>2026-04-30T13:46:25.337Z</time></trkpt><trkpt lat="43.2045483" lon="11.3738017"><ele>252.16666666666669</ele><time>2026-04-30T13:46:26.337Z</time></trkpt><trkpt lat="43.2046283" lon="11.3737867"><ele>251.0</ele><time>2026-04-30T13:46:27.337Z</time></trkpt><trkpt lat="43.20471" lon="11.3737767"><ele>254.20000000000002</ele><time>2026-04-30T13:46:28.338Z</time></trkpt><trkpt lat="43.2048033" lon="11.37378"><ele>257.40000000000003</ele><time>2026-04-30T13:46:29.338Z</time></trkpt><trkpt lat="43.2048967" lon="11.37379"><ele>260.6</ele><time>2026-04-30T13:46:30.338Z</time></trkpt><trkpt lat="43.2049833" lon="11.3737933"><ele>263.8</ele><time>2026-04-30T13:46:31.338Z</time></trkpt><trkpt lat="43.2050817" lon="11.3737983"><ele>267.0</ele><time>2026-04-30T13:46:32.337Z</time></trkpt><trkpt lat="43.20517" lon="11.3737917"><ele>267.1666666666667</ele><time>2026-04-30T13:46:33.337Z</time></trkpt><trkpt lat="43.2052583" lon="11.3737767"><ele>267.3333333333333</ele><time>2026-04-30T13:46:34.337Z</time></trkpt><trkpt lat="43.2053517" lon="11.3737517"><ele>267.5</ele><time>2026-04-30T13:46:35.338Z</time></trkpt><trkpt lat="43.2054367" lon="11.3737117"><ele>267.66666666666663</ele><time>2026-04-30T13:46:36.338Z</time></trkpt><trkpt lat="43.2055183" lon="11.3736617"><ele>267.8333333333333</ele><time>2026-04-30T13:46:37.337Z</time></trkpt><trkpt lat="43.20559" lon="11.3735967"><ele>268.0</ele><time>2026-04-30T13:46:38.338Z</time></trkpt><trkpt lat="43.20566" lon="11.373525"><ele>267.8</ele><time>2026-04-30T13:46:39.338Z</time></trkpt><trkpt lat="43.205735" lon="11.3734467"><ele>267.6</ele><time>2026-04-30T13:46:40.338Z</time></trkpt><trkpt lat="43.205815" lon="11.3733617"><ele>267.4</ele><time>2026-04-30T13:46:41.338Z</time></trkpt><trkpt lat="43.2058967" lon="11.37328"><ele>267.2</ele><time>2026-04-30T13:46:42.337Z</time></trkpt><trkpt lat="43.2059883" lon="11.373195"><ele>267.0</ele><time>2026-04-30T13:46:43.338Z</time></trkpt><trkpt lat="43.2060867" lon="11.3731183"><ele>267.0</ele><time>2026-04-30T13:46:44.338Z</time></trkpt><trkpt lat="43.2061817" lon="11.3730533"><ele>267.0</ele><time>2026-04-30T13:46:45.338Z</time></trkpt><trkpt lat="43.2062833" lon="11.3729867"><ele>267.0</ele><time>2026-04-30T13:46:46.337Z</time></trkpt><trkpt lat="43.2063833" lon="11.3729183"><ele>267.0</ele><time>2026-04-30T13:46:47.337Z</time></trkpt><trkpt lat="43.2064667" lon="11.37285"><ele>267.0</ele><time>2026-04-30T13:46:48.338Z</time></trkpt><trkpt lat="43.2065483" lon="11.37277"><ele>267.8</ele><time>2026-04-30T13:46:49.338Z</time></trkpt><trkpt lat="43.2066233" lon="11.3726833"><ele>268.6</ele><time>2026-04-30T13:46:50.337Z</time></trkpt><trkpt lat="43.2066967" lon="11.3725883"><ele>269.40000000000003</ele><time>2026-04-30T13:46:51.338Z</time></trkpt><trkpt lat="43.2067633" lon="11.37249"><ele>270.2</ele><time>2026-04-30T13:46:52.338Z</time></trkpt><trkpt lat="43.20683" lon="11.3723833"><ele>271.0</ele><time>2026-04-30T13:46:53.338Z</time></trkpt><trkpt lat="43.20689" lon="11.37227"><ele>274.2</ele><time>2026-04-30T13:46:54.338Z</time></trkpt><trkpt lat="43.2069567" lon="11.3721583"><ele>277.40000000000003</ele><time>2026-04-30T13:46:55.338Z</time></trkpt><trkpt lat="43.2070133" lon="11.3720517"><ele>280.6</ele><time>2026-04-30T13:46:56.338Z</time></trkpt><trkpt lat="43.2070683" lon="11.37195"><ele>283.8</ele><time>2026-04-30T13:46:57.338Z</time></trkpt><trkpt lat="43.207125" lon="11.371845"><ele>287.0</ele><time>2026-04-30T13:46:58.338Z</time></trkpt><trkpt lat="43.2071833" lon="11.37174"><ele>287.0</ele><time>2026-04-30T13:46:59.338Z</time></trkpt><trkpt lat="43.2072417" lon="11.3716483"><ele>287.0</ele><time>2026-04-30T13:47:00.338Z</time></trkpt><trkpt lat="43.2073033" lon="11.371565"><ele>287.0</ele><time>2026-04-30T13:47:01.337Z</time></trkpt><trkpt lat="43.2073583" lon="11.37149"><ele>287.0</ele><time>2026-04-30T13:47:02.337Z</time></trkpt><trkpt lat="43.20742" lon="11.3714117"><ele>287.0</ele><time>2026-04-30T13:47:03.337Z</time></trkpt><trkpt lat="43.207485" lon="11.3713267"><ele>287.0</ele><time>2026-04-30T13:47:04.338Z</time></trkpt><trkpt lat="43.20755" lon="11.3712417"><ele>283.6</ele><time>2026-04-30T13:47:05.338Z</time></trkpt><trkpt lat="43.2076167" lon="11.3711483"><ele>280.2</ele><time>2026-04-30T13:47:06.338Z</time></trkpt><trkpt lat="43.207685" lon="11.3710517"><ele>276.8</ele><time>2026-04-30T13:47:07.338Z</time></trkpt><trkpt lat="43.2077467" lon="11.3709533"><ele>273.4</ele><time>2026-04-30T13:47:08.338Z</time></trkpt><trkpt lat="43.20781" lon="11.370865"><ele>270.0</ele><time>2026-04-30T13:47:09.338Z</time></trkpt><trkpt lat="43.2078733" lon="11.3707683"><ele>270.0</ele><time>2026-04-30T13:47:10.338Z</time></trkpt><trkpt lat="43.2079317" lon="11.370685"><ele>270.0</ele><time>2026-04-30T13:47:11.338Z</time></trkpt><trkpt lat="43.2079967" lon="11.3705917"><ele>270.0</ele><time>2026-04-30T13:47:12.338Z</time></trkpt><trkpt lat="43.2080583" lon="11.370495"><ele>270.0</ele><time>2026-04-30T13:47:13.338Z</time></trkpt><trkpt lat="43.2081167" lon="11.3704117"><ele>270.0</ele><time>2026-04-30T13:47:14.337Z</time></trkpt><trkpt lat="43.2081817" lon="11.3703217"><ele>270.0</ele><time>2026-04-30T13:47:15.338Z</time></trkpt><trkpt lat="43.2082483" lon="11.370225"><ele>266.6</ele><time>2026-04-30T13:47:16.338Z</time></trkpt><trkpt lat="43.2083133" lon="11.3701283"><ele>263.2</ele><time>2026-04-30T13:47:17.338Z</time></trkpt><trkpt lat="43.208375" lon="11.3700267"><ele>259.8</ele><time>2026-04-30T13:47:18.338Z</time></trkpt><trkpt lat="43.20844" lon="11.36991"><ele>256.4</ele><time>2026-04-30T13:47:19.338Z</time></trkpt><trkpt lat="43.2085117" lon="11.3698"><ele>253.0</ele><time>2026-04-30T13:47:20.338Z</time></trkpt><trkpt lat="43.208585" lon="11.3696967"><ele>255.2</ele><time>2026-04-30T13:47:21.338Z</time></trkpt><trkpt lat="43.208665" lon="11.3695883"><ele>257.4</ele><time>2026-04-30T13:47:22.338Z</time></trkpt><trkpt lat="43.208745" lon="11.369485"><ele>259.59999999999997</ele><time>2026-04-30T13:47:23.338Z</time></trkpt><trkpt lat="43.20883" lon="11.3693817"><ele>261.8</ele><time>2026-04-30T13:47:24.338Z</time></trkpt><trkpt lat="43.2089133" lon="11.3692783"><ele>264.0</ele><time>2026-04-30T13:47:25.338Z</time></trkpt><trkpt lat="43.2089933" lon="11.3691717"><ele>260.2</ele><time>2026-04-30T13:47:26.338Z</time></trkpt><trkpt lat="43.2090717" lon="11.3690667"><ele>256.4</ele><time>2026-04-30T13:47:27.337Z</time></trkpt><trkpt lat="43.2091483" lon="11.368965"><ele>252.6</ele><time>2026-04-30T13:47:28.337Z</time></trkpt><trkpt lat="43.20922" lon="11.3688583"><ele>248.8</ele><time>2026-04-30T13:47:29.338Z</time></trkpt><trkpt lat="43.2092933" lon="11.3687483"><ele>245.0</ele><time>2026-04-30T13:47:30.338Z</time></trkpt><trkpt lat="43.20937" lon="11.3686383"><ele>245.00000000000003</ele><time>2026-04-30T13:47:31.337Z</time></trkpt><trkpt lat="43.2094417" lon="11.3685367"><ele>245.0</ele><time>2026-04-30T13:47:32.337Z</time></trkpt><trkpt lat="43.209505" lon="11.3684483"><ele>245.0</ele><time>2026-04-30T13:47:33.338Z</time></trkpt><trkpt lat="43.209565" lon="11.3683717"><ele>245.0</ele><time>2026-04-30T13:47:34.338Z</time></trkpt><trkpt lat="43.20962" lon="11.36831"><ele>245.00000000000003</ele><time>2026-04-30T13:47:35.338Z</time></trkpt><trkpt lat="43.2096767" lon="11.368255"><ele>245.0</ele><time>2026-04-30T13:47:36.338Z</time></trkpt><trkpt lat="43.2097867" lon="11.36822"><ele>242.2</ele><time>2026-04-30T13:47:38.338Z</time></trkpt><trkpt lat="43.209855" lon="11.3682283"><ele>239.4</ele><time>2026-04-30T13:47:39.338Z</time></trkpt><trkpt lat="43.2099383" lon="11.368255"><ele>236.60000000000002</ele><time>2026-04-30T13:47:40.338Z</time></trkpt><trkpt lat="43.2100383" lon="11.3682833"><ele>233.8</ele><time>2026-04-30T13:47:41.337Z</time></trkpt><trkpt lat="43.2101483" lon="11.3683233"><ele>231.0</ele><time>2026-04-30T13:47:42.337Z</time></trkpt><trkpt lat="43.21026" lon="11.3683583"><ele>231.0</ele><time>2026-04-30T13:47:43.338Z</time></trkpt><trkpt lat="43.2103667" lon="11.3683917"><ele>231.00000000000003</ele><time>2026-04-30T13:47:44.337Z</time></trkpt><trkpt lat="43.2104817" lon="11.3684317"><ele>231.00000000000003</ele><time>2026-04-30T13:47:45.338Z</time></trkpt><trkpt lat="43.2105917" lon="11.368465"><ele>231.0</ele><time>2026-04-30T13:47:46.337Z</time></trkpt><trkpt lat="43.210695" lon="11.3684983"><ele>231.0</ele><time>2026-04-30T13:47:47.338Z</time></trkpt><trkpt lat="43.210795" lon="11.3685317"><ele>231.4</ele><time>2026-04-30T13:47:48.338Z</time></trkpt><trkpt lat="43.2108867" lon="11.3685567"><ele>231.8</ele><time>2026-04-30T13:47:49.338Z</time></trkpt><trkpt lat="43.21098" lon="11.3685833"><ele>232.20000000000002</ele><time>2026-04-30T13:47:50.337Z</time></trkpt><trkpt lat="43.21108" lon="11.3686067"><ele>232.60000000000002</ele><time>2026-04-30T13:47:51.337Z</time></trkpt><trkpt lat="43.211175" lon="11.36863"><ele>233.0</ele><time>2026-04-30T13:47:52.338Z</time></trkpt><trkpt lat="43.2112683" lon="11.3686683"><ele>233.0</ele><time>2026-04-30T13:47:53.338Z</time></trkpt><trkpt lat="43.211365" lon="11.368705"><ele>233.0</ele><time>2026-04-30T13:47:54.338Z</time></trkpt><trkpt lat="43.21146" lon="11.3687467"><ele>233.0</ele><time>2026-04-30T13:47:55.338Z</time></trkpt><trkpt lat="43.2115433" lon="11.3687917"><ele>233.0</ele><time>2026-04-30T13:47:56.337Z</time></trkpt><trkpt lat="43.2116267" lon="11.3688417"><ele>233.0</ele><time>2026-04-30T13:47:57.338Z</time></trkpt><trkpt lat="43.2116983" lon="11.3688933"><ele>233.16666666666669</ele><time>2026-04-30T13:47:58.337Z</time></trkpt><trkpt lat="43.2117733" lon="11.368945"><ele>233.33333333333334</ele><time>2026-04-30T13:47:59.337Z</time></trkpt><trkpt lat="43.2118517" lon="11.3689983"><ele>233.5</ele><time>2026-04-30T13:48:00.338Z</time></trkpt><trkpt lat="43.21193" lon="11.3690517"><ele>233.66666666666669</ele><time>2026-04-30T13:48:01.338Z</time></trkpt><trkpt lat="43.2120067" lon="11.36911"><ele>233.83333333333334</ele><time>2026-04-30T13:48:02.338Z</time></trkpt><trkpt lat="43.2120767" lon="11.369175"><ele>234.0</ele><time>2026-04-30T13:48:03.338Z</time></trkpt><trkpt lat="43.212135" lon="11.369255"><ele>234.0</ele><time>2026-04-30T13:48:04.337Z</time></trkpt><trkpt lat="43.2121833" lon="11.3693433"><ele>233.99999999999997</ele><time>2026-04-30T13:48:05.338Z</time></trkpt><trkpt lat="43.2122433" lon="11.3694467"><ele>233.99999999999997</ele><time>2026-04-30T13:48:06.337Z</time></trkpt><trkpt lat="43.21231" lon="11.3695433"><ele>234.0</ele><time>2026-04-30T13:48:07.338Z</time></trkpt><trkpt lat="43.2123783" lon="11.369645"><ele>234.0</ele><time>2026-04-30T13:48:08.338Z</time></trkpt><trkpt lat="43.212445" lon="11.3697483"><ele>232.6</ele><time>2026-04-30T13:48:09.338Z</time></trkpt><trkpt lat="43.2125067" lon="11.3698483"><ele>231.2</ele><time>2026-04-30T13:48:10.337Z</time></trkpt><trkpt lat="43.2125717" lon="11.3699533"><ele>229.79999999999998</ele><time>2026-04-30T13:48:11.337Z</time></trkpt><trkpt lat="43.2126183" lon="11.3700583"><ele>228.39999999999998</ele><time>2026-04-30T13:48:12.338Z</time></trkpt><trkpt lat="43.2126733" lon="11.3701767"><ele>227.0</ele><time>2026-04-30T13:48:13.338Z</time></trkpt><trkpt lat="43.21274" lon="11.3702867"><ele>227.0</ele><time>2026-04-30T13:48:14.338Z</time></trkpt><trkpt lat="43.2128" lon="11.370405"><ele>227.0</ele><time>2026-04-30T13:48:15.337Z</time></trkpt><trkpt lat="43.212855" lon="11.370515"><ele>227.0</ele><time>2026-04-30T13:48:16.338Z</time></trkpt><trkpt lat="43.21291" lon="11.3706283"><ele>227.0</ele><time>2026-04-30T13:48:17.338Z</time></trkpt><trkpt lat="43.2129683" lon="11.37074"><ele>227.0</ele><time>2026-04-30T13:48:18.337Z</time></trkpt><trkpt lat="43.21303" lon="11.3708567"><ele>226.0</ele><time>2026-04-30T13:48:19.338Z</time></trkpt><trkpt lat="43.2130883" lon="11.3709767"><ele>225.0</ele><time>2026-04-30T13:48:20.338Z</time></trkpt><trkpt lat="43.2131467" lon="11.3710883"><ele>224.0</ele><time>2026-04-30T13:48:21.338Z</time></trkpt><trkpt lat="43.2132033" lon="11.3711967"><ele>223.0</ele><time>2026-04-30T13:48:22.338Z</time></trkpt><trkpt lat="43.213275" lon="11.3712883"><ele>222.0</ele><time>2026-04-30T13:48:23.338Z</time></trkpt><trkpt lat="43.2133533" lon="11.371365"><ele>222.0</ele><time>2026-04-30T13:48:24.338Z</time></trkpt><trkpt lat="43.2134383" lon="11.371405"><ele>222.0</ele><time>2026-04-30T13:48:25.338Z</time></trkpt><trkpt lat="43.2135183" lon="11.37142"><ele>222.0</ele><time>2026-04-30T13:48:26.337Z</time></trkpt><trkpt lat="43.213605" lon="11.3714117"><ele>222.0</ele><time>2026-04-30T13:48:27.338Z</time></trkpt><trkpt lat="43.2137033" lon="11.3713733"><ele>222.0</ele><time>2026-04-30T13:48:28.337Z</time></trkpt><trkpt lat="43.2138067" lon="11.3713033"><ele>222.0</ele><time>2026-04-30T13:48:29.338Z</time></trkpt><trkpt lat="43.21392" lon="11.371225"><ele>222.0</ele><time>2026-04-30T13:48:30.337Z</time></trkpt><trkpt lat="43.2140283" lon="11.3711417"><ele>222.0</ele><time>2026-04-30T13:48:31.337Z</time></trkpt><trkpt lat="43.21414" lon="11.3710717"><ele>222.0</ele><time>2026-04-30T13:48:32.338Z</time></trkpt><trkpt lat="43.2142683" lon="11.3710033"><ele>223.5</ele><time>2026-04-30T13:48:33.337Z</time></trkpt><trkpt lat="43.21439" lon="11.37093"><ele>225.0</ele><time>2026-04-30T13:48:34.338Z</time></trkpt><trkpt lat="43.214505" lon="11.3708567"><ele>226.5</ele><time>2026-04-30T13:48:35.337Z</time></trkpt><trkpt lat="43.2146167" lon="11.3707883"><ele>228.0</ele><time>2026-04-30T13:48:36.337Z</time></trkpt><trkpt lat="43.2147317" lon="11.3707367"><ele>231.0</ele><time>2026-04-30T13:48:37.338Z</time></trkpt><trkpt lat="43.21484" lon="11.3707033"><ele>234.0</ele><time>2026-04-30T13:48:38.337Z</time></trkpt><trkpt lat="43.2149517" lon="11.3707133"><ele>237.0</ele><time>2026-04-30T13:48:39.338Z</time></trkpt><trkpt lat="43.2150667" lon="11.3707417"><ele>240.0</ele><time>2026-04-30T13:48:40.338Z</time></trkpt><trkpt lat="43.2151833" lon="11.37078"><ele>240.0</ele><time>2026-04-30T13:48:41.338Z</time></trkpt><trkpt lat="43.2152883" lon="11.3708317"><ele>240.0</ele><time>2026-04-30T13:48:42.338Z</time></trkpt><trkpt lat="43.21538" lon="11.3709083"><ele>240.0</ele><time>2026-04-30T13:48:43.338Z</time></trkpt><trkpt lat="43.2154683" lon="11.3709833"><ele>240.0</ele><time>2026-04-30T13:48:44.338Z</time></trkpt><trkpt lat="43.215555" lon="11.3710667"><ele>240.0</ele><time>2026-04-30T13:48:45.338Z</time></trkpt><trkpt lat="43.2156367" lon="11.3711533"><ele>240.0</ele><time>2026-04-30T13:48:46.337Z</time></trkpt><trkpt lat="43.2157167" lon="11.3712433"><ele>240.0</ele><time>2026-04-30T13:48:47.338Z</time></trkpt><trkpt lat="43.21579" lon="11.37134"><ele>240.0</ele><time>2026-04-30T13:48:48.338Z</time></trkpt><trkpt lat="43.215875" lon="11.3714217"><ele>240.0</ele><time>2026-04-30T13:48:49.338Z</time></trkpt><trkpt lat="43.21596" lon="11.371495"><ele>240.0</ele><time>2026-04-30T13:48:50.337Z</time></trkpt><trkpt lat="43.2160617" lon="11.3715683"><ele>239.5</ele><time>2026-04-30T13:48:51.338Z</time></trkpt><trkpt lat="43.21619" lon="11.3716517"><ele>239.0</ele><time>2026-04-30T13:48:52.338Z</time></trkpt><trkpt lat="43.21632" lon="11.37171"><ele>238.5</ele><time>2026-04-30T13:48:53.338Z</time></trkpt><trkpt lat="43.216455" lon="11.3717783"><ele>238.0</ele><time>2026-04-30T13:48:54.338Z</time></trkpt><trkpt lat="43.2166" lon="11.37185"><ele>238.0</ele><time>2026-04-30T13:48:55.338Z</time></trkpt><trkpt lat="43.2167483" lon="11.371925"><ele>238.0</ele><time>2026-04-30T13:48:56.338Z</time></trkpt><trkpt lat="43.2169067" lon="11.372"><ele>238.0</ele><time>2026-04-30T13:48:57.338Z</time></trkpt><trkpt lat="43.217055" lon="11.3720733"><ele>238.0</ele><time>2026-04-30T13:48:58.338Z</time></trkpt><trkpt lat="43.2171917" lon="11.3721483"><ele>238.0</ele><time>2026-04-30T13:48:59.338Z</time></trkpt><trkpt lat="43.2173283" lon="11.3722183"><ele>238.0</ele><time>2026-04-30T13:49:00.338Z</time></trkpt><trkpt lat="43.2174667" lon="11.372275"><ele>238.0</ele><time>2026-04-30T13:49:01.337Z</time></trkpt><trkpt lat="43.2176" lon="11.372345"><ele>239.0</ele><time>2026-04-30T13:49:02.338Z</time></trkpt><trkpt lat="43.2177217" lon="11.372425"><ele>240.0</ele><time>2026-04-30T13:49:03.338Z</time></trkpt><trkpt lat="43.21786" lon="11.3724767"><ele>241.0</ele><time>2026-04-30T13:49:04.338Z</time></trkpt><trkpt lat="43.2180117" lon="11.3725433"><ele>242.0</ele><time>2026-04-30T13:49:05.338Z</time></trkpt><trkpt lat="43.2181517" lon="11.37261"><ele>244.5</ele><time>2026-04-30T13:49:06.338Z</time></trkpt><trkpt lat="43.21829" lon="11.3726733"><ele>247.0</ele><time>2026-04-30T13:49:07.338Z</time></trkpt><trkpt lat="43.2184283" lon="11.3727583"><ele>249.5</ele><time>2026-04-30T13:49:08.338Z</time></trkpt><trkpt lat="43.218565" lon="11.3728233"><ele>252.0</ele><time>2026-04-30T13:49:09.338Z</time></trkpt><trkpt lat="43.2186917" lon="11.3729017"><ele>252.0</ele><time>2026-04-30T13:49:10.338Z</time></trkpt><trkpt lat="43.2188" lon="11.3729633"><ele>252.0</ele><time>2026-04-30T13:49:11.338Z</time></trkpt><trkpt lat="43.2189" lon="11.3730183"><ele>252.0</ele><time>2026-04-30T13:49:12.338Z</time></trkpt><trkpt lat="43.218995" lon="11.373055"><ele>252.0</ele><time>2026-04-30T13:49:13.338Z</time></trkpt><trkpt lat="43.2190867" lon="11.373085"><ele>252.0</ele><time>2026-04-30T13:49:14.337Z</time></trkpt><trkpt lat="43.2191783" lon="11.37311"><ele>250.39999999999998</ele><time>2026-04-30T13:49:15.337Z</time></trkpt><trkpt lat="43.2192633" lon="11.37313"><ele>248.79999999999998</ele><time>2026-04-30T13:49:16.338Z</time></trkpt><trkpt lat="43.2193417" lon="11.373135"><ele>247.2</ele><time>2026-04-30T13:49:17.337Z</time></trkpt><trkpt lat="43.2194333" lon="11.373135"><ele>245.6</ele><time>2026-04-30T13:49:18.338Z</time></trkpt><trkpt lat="43.2195267" lon="11.373135"><ele>244.0</ele><time>2026-04-30T13:49:19.338Z</time></trkpt><trkpt lat="43.21965" lon="11.3731467"><ele>243.99999999999997</ele><time>2026-04-30T13:49:20.338Z</time></trkpt><trkpt lat="43.21973" lon="11.3731467"><ele>244.0</ele><time>2026-04-30T13:49:21.338Z</time></trkpt><trkpt lat="43.219805" lon="11.3731333"><ele>244.0</ele><time>2026-04-30T13:49:22.338Z</time></trkpt><trkpt lat="43.219875" lon="11.3731133"><ele>244.0</ele><time>2026-04-30T13:49:23.337Z</time></trkpt><trkpt lat="43.2199533" lon="11.3730867"><ele>243.99999999999997</ele><time>2026-04-30T13:49:24.338Z</time></trkpt><trkpt lat="43.2200283" lon="11.3730717"><ele>244.0</ele><time>2026-04-30T13:49:25.338Z</time></trkpt><trkpt lat="43.2201067" lon="11.37305"><ele>242.49999999999997</ele><time>2026-04-30T13:49:26.338Z</time></trkpt><trkpt lat="43.2201817" lon="11.3730233"><ele>241.0</ele><time>2026-04-30T13:49:27.338Z</time></trkpt><trkpt lat="43.22026" lon="11.3730033"><ele>239.5</ele><time>2026-04-30T13:49:28.338Z</time></trkpt><trkpt lat="43.2203317" lon="11.3729767"><ele>238.0</ele><time>2026-04-30T13:49:29.337Z</time></trkpt><trkpt lat="43.2204067" lon="11.3729583"><ele>236.49999999999997</ele><time>2026-04-30T13:49:30.338Z</time></trkpt><trkpt lat="43.2204867" lon="11.3729433"><ele>235.0</ele><time>2026-04-30T13:49:31.338Z</time></trkpt><trkpt lat="43.22057" lon="11.3729317"><ele>234.99999999999997</ele><time>2026-04-30T13:49:32.338Z</time></trkpt><trkpt lat="43.2206483" lon="11.372915"><ele>235.0</ele><time>2026-04-30T13:49:33.337Z</time></trkpt><trkpt lat="43.2207267" lon="11.3728933"><ele>235.0</ele><time>2026-04-30T13:49:34.338Z</time></trkpt><trkpt lat="43.22081" lon="11.3728717"><ele>235.0</ele><time>2026-04-30T13:49:35.338Z</time></trkpt><trkpt lat="43.22089" lon="11.3728533"><ele>234.99999999999997</ele><time>2026-04-30T13:49:36.337Z</time></trkpt><trkpt lat="43.2209717" lon="11.3728367"><ele>235.0</ele><time>2026-04-30T13:49:37.338Z</time></trkpt><trkpt lat="43.221055" lon="11.3728267"><ele>233.4</ele><time>2026-04-30T13:49:38.338Z</time></trkpt><trkpt lat="43.2211367" lon="11.3728133"><ele>231.8</ele><time>2026-04-30T13:49:39.338Z</time></trkpt><trkpt lat="43.2212167" lon="11.3728017"><ele>230.2</ele><time>2026-04-30T13:49:40.337Z</time></trkpt><trkpt lat="43.2212833" lon="11.3727767"><ele>228.6</ele><time>2026-04-30T13:49:41.337Z</time></trkpt><trkpt lat="43.2214067" lon="11.37275"><ele>227.0</ele><time>2026-04-30T13:49:43.337Z</time></trkpt><trkpt lat="43.2215167" lon="11.3727183"><ele>225.8</ele><time>2026-04-30T13:49:45.338Z</time></trkpt><trkpt lat="43.22158" lon="11.372705"><ele>224.6</ele><time>2026-04-30T13:49:46.337Z</time></trkpt><trkpt lat="43.2217033" lon="11.3726817"><ele>223.40000000000003</ele><time>2026-04-30T13:49:48.337Z</time></trkpt><trkpt lat="43.2218267" lon="11.3726383"><ele>222.20000000000002</ele><time>2026-04-30T13:49:50.338Z</time></trkpt><trkpt lat="43.2218917" lon="11.3726167"><ele>221.0</ele><time>2026-04-30T13:49:51.338Z</time></trkpt><trkpt lat="43.221965" lon="11.3725933"><ele>221.00000000000003</ele><time>2026-04-30T13:49:52.337Z</time></trkpt><trkpt lat="43.2220317" lon="11.37256"><ele>221.0</ele><time>2026-04-30T13:49:53.338Z</time></trkpt><trkpt lat="43.2221" lon="11.3725167"><ele>221.0</ele><time>2026-04-30T13:49:54.337Z</time></trkpt><trkpt lat="43.2221717" lon="11.3724617"><ele>221.0</ele><time>2026-04-30T13:49:55.338Z</time></trkpt><trkpt lat="43.222245" lon="11.3723933"><ele>221.00000000000003</ele><time>2026-04-30T13:49:56.338Z</time></trkpt><trkpt lat="43.2223167" lon="11.3723317"><ele>221.0</ele><time>2026-04-30T13:49:57.338Z</time></trkpt><trkpt lat="43.2223817" lon="11.3722633"><ele>218.83333333333334</ele><time>2026-04-30T13:49:58.338Z</time></trkpt><trkpt lat="43.222445" lon="11.3721833"><ele>216.66666666666669</ele><time>2026-04-30T13:49:59.338Z</time></trkpt><trkpt lat="43.2224933" lon="11.372095"><ele>214.5</ele><time>2026-04-30T13:50:00.337Z</time></trkpt><trkpt lat="43.2225417" lon="11.3719933"><ele>212.33333333333331</ele><time>2026-04-30T13:50:01.338Z</time></trkpt><trkpt lat="43.2225933" lon="11.37189"><ele>210.16666666666666</ele><time>2026-04-30T13:50:02.338Z</time></trkpt><trkpt lat="43.2226467" lon="11.3717867"><ele>208.0</ele><time>2026-04-30T13:50:03.338Z</time></trkpt><trkpt lat="43.2227017" lon="11.37168"><ele>207.99999999999997</ele><time>2026-04-30T13:50:04.337Z</time></trkpt><trkpt lat="43.2227517" lon="11.3715817"><ele>208.0</ele><time>2026-04-30T13:50:05.338Z</time></trkpt><trkpt lat="43.2228033" lon="11.371485"><ele>208.0</ele><time>2026-04-30T13:50:06.338Z</time></trkpt><trkpt lat="43.2228533" lon="11.371385"><ele>208.0</ele><time>2026-04-30T13:50:07.337Z</time></trkpt><trkpt lat="43.2229083" lon="11.3713083"><ele>207.99999999999997</ele><time>2026-04-30T13:50:08.338Z</time></trkpt><trkpt lat="43.2229783" lon="11.3712517"><ele>208.0</ele><time>2026-04-30T13:50:09.338Z</time></trkpt><trkpt lat="43.2230533" lon="11.371205"><ele>207.66666666666666</ele><time>2026-04-30T13:50:10.338Z</time></trkpt><trkpt lat="43.2231267" lon="11.3711783"><ele>207.33333333333331</ele><time>2026-04-30T13:50:11.338Z</time></trkpt><trkpt lat="43.2231967" lon="11.371165"><ele>207.0</ele><time>2026-04-30T13:50:12.338Z</time></trkpt><trkpt lat="43.2232683" lon="11.371165"><ele>206.66666666666669</ele><time>2026-04-30T13:50:13.338Z</time></trkpt><trkpt lat="43.2233733" lon="11.3712283"><ele>206.33333333333334</ele><time>2026-04-30T13:50:15.338Z</time></trkpt><trkpt lat="43.22343" lon="11.3712867"><ele>206.0</ele><time>2026-04-30T13:50:16.338Z</time></trkpt><trkpt lat="43.2234833" lon="11.3713667"><ele>206.00000000000003</ele><time>2026-04-30T13:50:17.338Z</time></trkpt><trkpt lat="43.2235317" lon="11.3714667"><ele>206.0</ele><time>2026-04-30T13:50:18.337Z</time></trkpt><trkpt lat="43.2235683" lon="11.371565"><ele>206.0</ele><time>2026-04-30T13:50:19.338Z</time></trkpt><trkpt lat="43.2236033" lon="11.3716717"><ele>206.0</ele><time>2026-04-30T13:50:20.338Z</time></trkpt><trkpt lat="43.2236283" lon="11.37177"><ele>206.00000000000003</ele><time>2026-04-30T13:50:21.338Z</time></trkpt><trkpt lat="43.223645" lon="11.371865"><ele>206.0</ele><time>2026-04-30T13:50:22.337Z</time></trkpt><trkpt lat="43.2236533" lon="11.3719817"><ele>206.00000000000003</ele><time>2026-04-30T13:50:23.337Z</time></trkpt><trkpt lat="43.223645" lon="11.3720967"><ele>206.0</ele><time>2026-04-30T13:50:24.338Z</time></trkpt><trkpt lat="43.2236417" lon="11.3721983"><ele>206.0</ele><time>2026-04-30T13:50:25.338Z</time></trkpt><trkpt lat="43.2236333" lon="11.3722967"><ele>206.0</ele><time>2026-04-30T13:50:26.338Z</time></trkpt><trkpt lat="43.2236167" lon="11.3723983"><ele>206.00000000000003</ele><time>2026-04-30T13:50:27.337Z</time></trkpt><trkpt lat="43.2236067" lon="11.3725"><ele>206.0</ele><time>2026-04-30T13:50:28.338Z</time></trkpt><trkpt lat="43.223605" lon="11.372605"><ele>205.99999999999997</ele><time>2026-04-30T13:50:29.338Z</time></trkpt><trkpt lat="43.2236133" lon="11.3726967"><ele>206.0</ele><time>2026-04-30T13:50:30.338Z</time></trkpt><trkpt lat="43.223635" lon="11.372785"><ele>206.0</ele><time>2026-04-30T13:50:31.338Z</time></trkpt><trkpt lat="43.223655" lon="11.3728733"><ele>206.0</ele><time>2026-04-30T13:50:32.337Z</time></trkpt><trkpt lat="43.2236817" lon="11.37297"><ele>206.0</ele><time>2026-04-30T13:50:33.338Z</time></trkpt><trkpt lat="43.2237183" lon="11.373065"><ele>205.99999999999997</ele><time>2026-04-30T13:50:34.337Z</time></trkpt><trkpt lat="43.2237683" lon="11.3731567"><ele>206.0</ele><time>2026-04-30T13:50:35.338Z</time></trkpt><trkpt lat="43.2238217" lon="11.373225"><ele>206.00000000000003</ele><time>2026-04-30T13:50:36.338Z</time></trkpt><trkpt lat="43.2238717" lon="11.373295"><ele>206.0</ele><time>2026-04-30T13:50:37.337Z</time></trkpt><trkpt lat="43.2239283" lon="11.3733517"><ele>206.0</ele><time>2026-04-30T13:50:38.338Z</time></trkpt><trkpt lat="43.2239983" lon="11.373405"><ele>206.0</ele><time>2026-04-30T13:50:39.338Z</time></trkpt><trkpt lat="43.2240667" lon="11.3734467"><ele>206.00000000000003</ele><time>2026-04-30T13:50:40.338Z</time></trkpt><trkpt lat="43.2241367" lon="11.373485"><ele>206.0</ele><time>2026-04-30T13:50:41.338Z</time></trkpt><trkpt lat="43.2242133" lon="11.37351"><ele>203.00000000000003</ele><time>2026-04-30T13:50:42.337Z</time></trkpt><trkpt lat="43.2243317" lon="11.373545"><ele>200.0</ele><time>2026-04-30T13:50:44.337Z</time></trkpt><trkpt lat="43.2244017" lon="11.3735383"><ele>197.0</ele><time>2026-04-30T13:50:45.338Z</time></trkpt><trkpt lat="43.2244683" lon="11.3735367"><ele>194.0</ele><time>2026-04-30T13:50:46.337Z</time></trkpt><trkpt lat="43.2245283" lon="11.37351"><ele>191.0</ele><time>2026-04-30T13:50:47.337Z</time></trkpt><trkpt lat="43.2246383" lon="11.3734717"><ele>188.0</ele><time>2026-04-30T13:50:49.338Z</time></trkpt><trkpt lat="43.2247433" lon="11.373415"><ele>188.0</ele><time>2026-04-30T13:50:51.337Z</time></trkpt><trkpt lat="43.2247967" lon="11.373365"><ele>188.0</ele><time>2026-04-30T13:50:52.338Z</time></trkpt><trkpt lat="43.2248517" lon="11.3733167"><ele>188.0</ele><time>2026-04-30T13:50:53.338Z</time></trkpt><trkpt lat="43.2249017" lon="11.3732533"><ele>188.0</ele><time>2026-04-30T13:50:54.337Z</time></trkpt><trkpt lat="43.2249583" lon="11.37318"><ele>188.0</ele><time>2026-04-30T13:50:55.338Z</time></trkpt><trkpt lat="43.2250133" lon="11.373105"><ele>188.0</ele><time>2026-04-30T13:50:56.337Z</time></trkpt><trkpt lat="43.2250583" lon="11.3730217"><ele>188.0</ele><time>2026-04-30T13:50:57.337Z</time></trkpt><trkpt lat="43.2251017" lon="11.3729217"><ele>186.4</ele><time>2026-04-30T13:50:58.338Z</time></trkpt><trkpt lat="43.22515" lon="11.3728183"><ele>184.8</ele><time>2026-04-30T13:50:59.337Z</time></trkpt><trkpt lat="43.2251917" lon="11.3727133"><ele>183.2</ele><time>2026-04-30T13:51:00.338Z</time></trkpt><trkpt lat="43.2252483" lon="11.3725983"><ele>181.6</ele><time>2026-04-30T13:51:01.338Z</time></trkpt><trkpt lat="43.2252983" lon="11.3724883"><ele>180.0</ele><time>2026-04-30T13:51:02.337Z</time></trkpt><trkpt lat="43.2253467" lon="11.3723833"><ele>180.0</ele><time>2026-04-30T13:51:03.337Z</time></trkpt><trkpt lat="43.2253983" lon="11.3722967"><ele>180.0</ele><time>2026-04-30T13:51:04.338Z</time></trkpt><trkpt lat="43.2254483" lon="11.37223"><ele>180.0</ele><time>2026-04-30T13:51:05.338Z</time></trkpt><trkpt lat="43.2255467" lon="11.372165"><ele>180.0</ele><time>2026-04-30T13:51:07.338Z</time></trkpt><trkpt lat="43.22564" lon="11.372195"><ele>180.0</ele><time>2026-04-30T13:51:09.338Z</time></trkpt><trkpt lat="43.22572" lon="11.3723217"><ele>180.33333333333334</ele><time>2026-04-30T13:51:11.338Z</time></trkpt><trkpt lat="43.225755" lon="11.37241"><ele>180.66666666666666</ele><time>2026-04-30T13:51:12.338Z</time></trkpt><trkpt lat="43.22579" lon="11.3725133"><ele>181.0</ele><time>2026-04-30T13:51:13.338Z</time></trkpt><trkpt lat="43.2258283" lon="11.3726283"><ele>181.33333333333331</ele><time>2026-04-30T13:51:14.338Z</time></trkpt><trkpt lat="43.2258617" lon="11.3727533"><ele>181.66666666666666</ele><time>2026-04-30T13:51:15.338Z</time></trkpt><trkpt lat="43.225895" lon="11.3728833"><ele>182.0</ele><time>2026-04-30T13:51:16.338Z</time></trkpt><trkpt lat="43.2259283" lon="11.3730233"><ele>181.2</ele><time>2026-04-30T13:51:17.338Z</time></trkpt><trkpt lat="43.2259683" lon="11.37316"><ele>180.39999999999998</ele><time>2026-04-30T13:51:18.337Z</time></trkpt><trkpt lat="43.22601" lon="11.37328"><ele>179.60000000000002</ele><time>2026-04-30T13:51:19.337Z</time></trkpt><trkpt lat="43.226045" lon="11.3734117"><ele>178.8</ele><time>2026-04-30T13:51:20.338Z</time></trkpt><trkpt lat="43.226075" lon="11.373545"><ele>178.0</ele><time>2026-04-30T13:51:21.338Z</time></trkpt><trkpt lat="43.2261017" lon="11.3736883"><ele>178.0</ele><time>2026-04-30T13:51:22.337Z</time></trkpt><trkpt lat="43.2261183" lon="11.373835"><ele>178.0</ele><time>2026-04-30T13:51:23.338Z</time></trkpt><trkpt lat="43.226125" lon="11.3739867"><ele>178.0</ele><time>2026-04-30T13:51:24.338Z</time></trkpt><trkpt lat="43.226125" lon="11.37414"><ele>178.0</ele><time>2026-04-30T13:51:25.338Z</time></trkpt><trkpt lat="43.22612" lon="11.3742983"><ele>178.0</ele><time>2026-04-30T13:51:26.338Z</time></trkpt><trkpt lat="43.2261067" lon="11.3744617"><ele>178.0</ele><time>2026-04-30T13:51:27.338Z</time></trkpt><trkpt lat="43.2260933" lon="11.3746417"><ele>178.0</ele><time>2026-04-30T13:51:28.338Z</time></trkpt><trkpt lat="43.226075" lon="11.374815"><ele>178.0</ele><time>2026-04-30T13:51:29.338Z</time></trkpt><trkpt lat="43.2260583" lon="11.37498"><ele>178.0</ele><time>2026-04-30T13:51:30.338Z</time></trkpt><trkpt lat="43.2260433" lon="11.375125"><ele>178.0</ele><time>2026-04-30T13:51:31.338Z</time></trkpt><trkpt lat="43.2260283" lon="11.3752733"><ele>178.0</ele><time>2026-04-30T13:51:32.337Z</time></trkpt><trkpt lat="43.2260183" lon="11.3754167"><ele>178.0</ele><time>2026-04-30T13:51:33.338Z</time></trkpt><trkpt lat="43.22602" lon="11.3755483"><ele>178.0</ele><time>2026-04-30T13:51:34.338Z</time></trkpt><trkpt lat="43.2260317" lon="11.3756867"><ele>178.0</ele><time>2026-04-30T13:51:35.337Z</time></trkpt><trkpt lat="43.2260533" lon="11.3758233"><ele>178.2</ele><time>2026-04-30T13:51:36.338Z</time></trkpt><trkpt lat="43.2261183" lon="11.3759533"><ele>178.4</ele><time>2026-04-30T13:51:37.337Z</time></trkpt><trkpt lat="43.2261617" lon="11.3760933"><ele>178.6</ele><time>2026-04-30T13:51:38.338Z</time></trkpt><trkpt lat="43.226205" lon="11.37622"><ele>178.79999999999998</ele><time>2026-04-30T13:51:39.338Z</time></trkpt><trkpt lat="43.2262567" lon="11.376335"><ele>179.0</ele><time>2026-04-30T13:51:40.338Z</time></trkpt><trkpt lat="43.22632" lon="11.376445"><ele>178.6</ele><time>2026-04-30T13:51:41.338Z</time></trkpt><trkpt lat="43.226375" lon="11.376555"><ele>178.2</ele><time>2026-04-30T13:51:42.338Z</time></trkpt><trkpt lat="43.226435" lon="11.3766483"><ele>177.79999999999998</ele><time>2026-04-30T13:51:43.338Z</time></trkpt><trkpt lat="43.2265017" lon="11.37673"><ele>177.39999999999998</ele><time>2026-04-30T13:51:44.338Z</time></trkpt><trkpt lat="43.2265767" lon="11.37681"><ele>177.0</ele><time>2026-04-30T13:51:45.338Z</time></trkpt><trkpt lat="43.2266583" lon="11.3768833"><ele>177.0</ele><time>2026-04-30T13:51:46.337Z</time></trkpt><trkpt lat="43.226745" lon="11.37695"><ele>177.0</ele><time>2026-04-30T13:51:47.337Z</time></trkpt><trkpt lat="43.2268317" lon="11.3770133"><ele>177.0</ele><time>2026-04-30T13:51:48.338Z</time></trkpt><trkpt lat="43.2269083" lon="11.3770833"><ele>177.0</ele><time>2026-04-30T13:51:49.338Z</time></trkpt><trkpt lat="43.2270017" lon="11.3771317"><ele>177.0</ele><time>2026-04-30T13:51:50.337Z</time></trkpt><trkpt lat="43.22709" lon="11.3771883"><ele>177.0</ele><time>2026-04-30T13:51:51.338Z</time></trkpt><trkpt lat="43.2271733" lon="11.377235"><ele>177.0</ele><time>2026-04-30T13:51:52.338Z</time></trkpt><trkpt lat="43.2272583" lon="11.3772733"><ele>177.0</ele><time>2026-04-30T13:51:53.338Z</time></trkpt><trkpt lat="43.22735" lon="11.377295"><ele>177.0</ele><time>2026-04-30T13:51:54.338Z</time></trkpt><trkpt lat="43.2274467" lon="11.3773083"><ele>177.0</ele><time>2026-04-30T13:51:55.338Z</time></trkpt><trkpt lat="43.227545" lon="11.3773183"><ele>177.2</ele><time>2026-04-30T13:51:56.338Z</time></trkpt><trkpt lat="43.22765" lon="11.3773133"><ele>177.39999999999998</ele><time>2026-04-30T13:51:57.337Z</time></trkpt><trkpt lat="43.2277567" lon="11.37731"><ele>177.60000000000002</ele><time>2026-04-30T13:51:58.337Z</time></trkpt><trkpt lat="43.2278583" lon="11.3773083"><ele>177.8</ele><time>2026-04-30T13:51:59.337Z</time></trkpt><trkpt lat="43.22796" lon="11.3773017"><ele>178.0</ele><time>2026-04-30T13:52:00.338Z</time></trkpt><trkpt lat="43.2280767" lon="11.3772883"><ele>178.0</ele><time>2026-04-30T13:52:01.338Z</time></trkpt><trkpt lat="43.22819" lon="11.3772783"><ele>178.0</ele><time>2026-04-30T13:52:02.338Z</time></trkpt><trkpt lat="43.2283017" lon="11.3772717"><ele>178.0</ele><time>2026-04-30T13:52:03.338Z</time></trkpt><trkpt lat="43.228405" lon="11.3772667"><ele>178.0</ele><time>2026-04-30T13:52:04.338Z</time></trkpt><trkpt lat="43.2285067" lon="11.3772583"><ele>178.0</ele><time>2026-04-30T13:52:05.338Z</time></trkpt><trkpt lat="43.228615" lon="11.3772417"><ele>178.0</ele><time>2026-04-30T13:52:06.338Z</time></trkpt><trkpt lat="43.2287167" lon="11.377215"><ele>178.0</ele><time>2026-04-30T13:52:07.338Z</time></trkpt><trkpt lat="43.2288233" lon="11.3771733"><ele>178.0</ele><time>2026-04-30T13:52:08.338Z</time></trkpt><trkpt lat="43.2289217" lon="11.3771183"><ele>178.0</ele><time>2026-04-30T13:52:09.338Z</time></trkpt><trkpt lat="43.2290233" lon="11.377055"><ele>178.0</ele><time>2026-04-30T13:52:10.337Z</time></trkpt><trkpt lat="43.2291217" lon="11.3769817"><ele>180.0</ele><time>2026-04-30T13:52:11.338Z</time></trkpt><trkpt lat="43.2292217" lon="11.3769083"><ele>182.0</ele><time>2026-04-30T13:52:12.338Z</time></trkpt><trkpt lat="43.22932" lon="11.3768317"><ele>184.0</ele><time>2026-04-30T13:52:13.337Z</time></trkpt><trkpt lat="43.229425" lon="11.3767467"><ele>186.0</ele><time>2026-04-30T13:52:14.337Z</time></trkpt><trkpt lat="43.22953" lon="11.3766567"><ele>186.0</ele><time>2026-04-30T13:52:15.336Z</time></trkpt><trkpt lat="43.22964" lon="11.3765683"><ele>186.0</ele><time>2026-04-30T13:52:16.337Z</time></trkpt><trkpt lat="43.2297483" lon="11.3764733"><ele>186.0</ele><time>2026-04-30T13:52:17.337Z</time></trkpt><trkpt lat="43.22986" lon="11.3763817"><ele>186.0</ele><time>2026-04-30T13:52:18.337Z</time></trkpt><trkpt lat="43.2299767" lon="11.376295"><ele>185.5</ele><time>2026-04-30T13:52:19.337Z</time></trkpt><trkpt lat="43.2300967" lon="11.3762033"><ele>185.0</ele><time>2026-04-30T13:52:20.337Z</time></trkpt><trkpt lat="43.2302183" lon="11.3761183"><ele>184.5</ele><time>2026-04-30T13:52:21.336Z</time></trkpt><trkpt lat="43.2303417" lon="11.3760317"><ele>184.0</ele><time>2026-04-30T13:52:22.337Z</time></trkpt><trkpt lat="43.2304567" lon="11.3759467"><ele>184.0</ele><time>2026-04-30T13:52:23.337Z</time></trkpt><trkpt lat="43.2305733" lon="11.3758567"><ele>184.0</ele><time>2026-04-30T13:52:24.336Z</time></trkpt><trkpt lat="43.2306883" lon="11.3757717"><ele>184.0</ele><time>2026-04-30T13:52:25.337Z</time></trkpt><trkpt lat="43.23081" lon="11.3756933"><ele>184.0</ele><time>2026-04-30T13:52:26.336Z</time></trkpt><trkpt lat="43.2309267" lon="11.3756067"><ele>184.0</ele><time>2026-04-30T13:52:27.337Z</time></trkpt><trkpt lat="43.231045" lon="11.3755133"><ele>184.0</ele><time>2026-04-30T13:52:28.336Z</time></trkpt><trkpt lat="43.23117" lon="11.3754233"><ele>184.0</ele><time>2026-04-30T13:52:29.337Z</time></trkpt><trkpt lat="43.2313033" lon="11.375335"><ele>184.0</ele><time>2026-04-30T13:52:30.336Z</time></trkpt><trkpt lat="43.2314267" lon="11.375245"><ele>182.75</ele><time>2026-04-30T13:52:31.336Z</time></trkpt><trkpt lat="43.2315567" lon="11.3751583"><ele>181.5</ele><time>2026-04-30T13:52:32.337Z</time></trkpt><trkpt lat="43.23169" lon="11.3750767"><ele>180.25</ele><time>2026-04-30T13:52:33.337Z</time></trkpt><trkpt lat="43.2318167" lon="11.3749933"><ele>179.0</ele><time>2026-04-30T13:52:34.337Z</time></trkpt><trkpt lat="43.23194" lon="11.3749083"><ele>179.0</ele><time>2026-04-30T13:52:35.337Z</time></trkpt><trkpt lat="43.2320633" lon="11.37482"><ele>179.0</ele><time>2026-04-30T13:52:36.336Z</time></trkpt><trkpt lat="43.2321783" lon="11.37474"><ele>179.0</ele><time>2026-04-30T13:52:37.337Z</time></trkpt><trkpt lat="43.2322967" lon="11.3746583"><ele>179.0</ele><time>2026-04-30T13:52:38.336Z</time></trkpt><trkpt lat="43.23242" lon="11.374565"><ele>179.0</ele><time>2026-04-30T13:52:39.337Z</time></trkpt><trkpt lat="43.232535" lon="11.3744767"><ele>179.0</ele><time>2026-04-30T13:52:40.337Z</time></trkpt><trkpt lat="43.23266" lon="11.3743883"><ele>179.0</ele><time>2026-04-30T13:52:41.336Z</time></trkpt><trkpt lat="43.232785" lon="11.3743"><ele>179.0</ele><time>2026-04-30T13:52:42.337Z</time></trkpt><trkpt lat="43.23291" lon="11.3742083"><ele>179.0</ele><time>2026-04-30T13:52:43.336Z</time></trkpt><trkpt lat="43.2330267" lon="11.37413"><ele>179.0</ele><time>2026-04-30T13:52:44.337Z</time></trkpt><trkpt lat="43.23314" lon="11.3740533"><ele>179.0</ele><time>2026-04-30T13:52:45.336Z</time></trkpt><trkpt lat="43.233245" lon="11.3739733"><ele>179.0</ele><time>2026-04-30T13:52:46.337Z</time></trkpt><trkpt lat="43.2333433" lon="11.373905"><ele>179.0</ele><time>2026-04-30T13:52:47.337Z</time></trkpt><trkpt lat="43.2334383" lon="11.3738433"><ele>179.0</ele><time>2026-04-30T13:52:48.336Z</time></trkpt><trkpt lat="43.2335333" lon="11.3737883"><ele>179.0</ele><time>2026-04-30T13:52:49.337Z</time></trkpt><trkpt lat="43.23363" lon="11.37374"><ele>179.0</ele><time>2026-04-30T13:52:50.337Z</time></trkpt><trkpt lat="43.2337183" lon="11.3736867"><ele>179.0</ele><time>2026-04-30T13:52:51.336Z</time></trkpt><trkpt lat="43.2338167" lon="11.3736467"><ele>179.0</ele><time>2026-04-30T13:52:52.337Z</time></trkpt><trkpt lat="43.233925" lon="11.3736183"><ele>179.0</ele><time>2026-04-30T13:52:53.336Z</time></trkpt><trkpt lat="43.2340433" lon="11.3735967"><ele>179.0</ele><time>2026-04-30T13:52:54.337Z</time></trkpt><trkpt lat="43.2341633" lon="11.37359"><ele>179.0</ele><time>2026-04-30T13:52:55.336Z</time></trkpt><trkpt lat="43.2342917" lon="11.37358"><ele>178.75</ele><time>2026-04-30T13:52:56.336Z</time></trkpt><trkpt lat="43.2344267" lon="11.3735667"><ele>178.5</ele><time>2026-04-30T13:52:57.337Z</time></trkpt><trkpt lat="43.2345617" lon="11.37355"><ele>178.25</ele><time>2026-04-30T13:52:58.337Z</time></trkpt><trkpt lat="43.2347133" lon="11.3735317"><ele>178.0</ele><time>2026-04-30T13:52:59.336Z</time></trkpt><trkpt lat="43.23488" lon="11.373525"><ele>177.66666666666669</ele><time>2026-04-30T13:53:00.337Z</time></trkpt><trkpt lat="43.235045" lon="11.3735167"><ele>177.33333333333334</ele><time>2026-04-30T13:53:01.336Z</time></trkpt><trkpt lat="43.2352067" lon="11.3734967"><ele>177.0</ele><time>2026-04-30T13:53:02.337Z</time></trkpt><trkpt lat="43.2353567" lon="11.3734783"><ele>177.0</ele><time>2026-04-30T13:53:03.337Z</time></trkpt><trkpt lat="43.2355033" lon="11.3734567"><ele>177.0</ele><time>2026-04-30T13:53:04.337Z</time></trkpt><trkpt lat="43.2356433" lon="11.3734483"><ele>177.0</ele><time>2026-04-30T13:53:05.337Z</time></trkpt><trkpt lat="43.2357733" lon="11.37343"><ele>177.0</ele><time>2026-04-30T13:53:06.337Z</time></trkpt><trkpt lat="43.2358967" lon="11.3734167"><ele>178.0</ele><time>2026-04-30T13:53:07.337Z</time></trkpt><trkpt lat="43.2360133" lon="11.3734033"><ele>179.0</ele><time>2026-04-30T13:53:08.336Z</time></trkpt><trkpt lat="43.23611" lon="11.3734033"><ele>180.0</ele><time>2026-04-30T13:53:09.336Z</time></trkpt><trkpt lat="43.236195" lon="11.3734133"><ele>181.0</ele><time>2026-04-30T13:53:10.336Z</time></trkpt><trkpt lat="43.2362733" lon="11.3734333"><ele>182.0</ele><time>2026-04-30T13:53:11.336Z</time></trkpt><trkpt lat="43.23635" lon="11.3734567"><ele>182.0</ele><time>2026-04-30T13:53:12.337Z</time></trkpt><trkpt lat="43.2364167" lon="11.37351"><ele>182.0</ele><time>2026-04-30T13:53:13.337Z</time></trkpt><trkpt lat="43.2364683" lon="11.373575"><ele>182.0</ele><time>2026-04-30T13:53:14.337Z</time></trkpt><trkpt lat="43.2365133" lon="11.3736583"><ele>182.0</ele><time>2026-04-30T13:53:15.336Z</time></trkpt><trkpt lat="43.236545" lon="11.3737483"><ele>182.0</ele><time>2026-04-30T13:53:16.336Z</time></trkpt><trkpt lat="43.23656" lon="11.3738533"><ele>182.0</ele><time>2026-04-30T13:53:17.337Z</time></trkpt><trkpt lat="43.2365683" lon="11.3739617"><ele>183.8</ele><time>2026-04-30T13:53:18.337Z</time></trkpt><trkpt lat="43.2365733" lon="11.3740717"><ele>185.6</ele><time>2026-04-30T13:53:19.336Z</time></trkpt><trkpt lat="43.2365767" lon="11.3741967"><ele>187.4</ele><time>2026-04-30T13:53:20.337Z</time></trkpt><trkpt lat="43.2365617" lon="11.37432"><ele>189.20000000000002</ele><time>2026-04-30T13:53:21.336Z</time></trkpt><trkpt lat="43.2365317" lon="11.3744683"><ele>191.0</ele><time>2026-04-30T13:53:22.336Z</time></trkpt><trkpt lat="43.2364983" lon="11.37462"><ele>189.20000000000002</ele><time>2026-04-30T13:53:23.337Z</time></trkpt><trkpt lat="43.2364533" lon="11.3747683"><ele>187.4</ele><time>2026-04-30T13:53:24.336Z</time></trkpt><trkpt lat="43.2364067" lon="11.3749"><ele>185.6</ele><time>2026-04-30T13:53:25.337Z</time></trkpt><trkpt lat="43.23635" lon="11.3750083"><ele>183.8</ele><time>2026-04-30T13:53:26.337Z</time></trkpt><trkpt lat="43.236305" lon="11.375105"><ele>182.0</ele><time>2026-04-30T13:53:27.337Z</time></trkpt><trkpt lat="43.236265" lon="11.3752117"><ele>182.0</ele><time>2026-04-30T13:53:28.337Z</time></trkpt><trkpt lat="43.2362383" lon="11.37532"><ele>182.0</ele><time>2026-04-30T13:53:29.337Z</time></trkpt><trkpt lat="43.23622" lon="11.3754333"><ele>182.0</ele><time>2026-04-30T13:53:30.337Z</time></trkpt><trkpt lat="43.23621" lon="11.3755533"><ele>182.0</ele><time>2026-04-30T13:53:31.336Z</time></trkpt><trkpt lat="43.23621" lon="11.3756717"><ele>182.0</ele><time>2026-04-30T13:53:32.337Z</time></trkpt><trkpt lat="43.2362167" lon="11.37578"><ele>182.0</ele><time>2026-04-30T13:53:33.336Z</time></trkpt><trkpt lat="43.2362317" lon="11.3758717"><ele>182.66666666666666</ele><time>2026-04-30T13:53:34.336Z</time></trkpt><trkpt lat="43.236255" lon="11.3759567"><ele>183.33333333333331</ele><time>2026-04-30T13:53:35.337Z</time></trkpt><trkpt lat="43.2362883" lon="11.376045"><ele>184.0</ele><time>2026-04-30T13:53:36.337Z</time></trkpt><trkpt lat="43.2363633" lon="11.3761767"><ele>184.66666666666666</ele><time>2026-04-30T13:53:38.337Z</time></trkpt><trkpt lat="43.236415" lon="11.37624"><ele>185.33333333333334</ele><time>2026-04-30T13:53:39.337Z</time></trkpt><trkpt lat="43.2364717" lon="11.3763017"><ele>186.0</ele><time>2026-04-30T13:53:40.337Z</time></trkpt><trkpt lat="43.2365333" lon="11.3763417"><ele>186.8</ele><time>2026-04-30T13:53:41.336Z</time></trkpt><trkpt lat="43.2366583" lon="11.3763833"><ele>187.60000000000002</ele><time>2026-04-30T13:53:43.337Z</time></trkpt><trkpt lat="43.23678" lon="11.3763933"><ele>188.4</ele><time>2026-04-30T13:53:45.336Z</time></trkpt><trkpt lat="43.236875" lon="11.376395"><ele>189.2</ele><time>2026-04-30T13:53:47.337Z</time></trkpt><trkpt lat="43.236945" lon="11.3763833"><ele>190.0</ele><time>2026-04-30T13:53:49.337Z</time></trkpt><trkpt lat="43.2370167" lon="11.37634"><ele>191.2</ele><time>2026-04-30T13:53:51.337Z</time></trkpt><trkpt lat="43.2371017" lon="11.3762617"><ele>192.4</ele><time>2026-04-30T13:53:53.337Z</time></trkpt><trkpt lat="43.237205" lon="11.376135"><ele>193.60000000000002</ele><time>2026-04-30T13:53:55.337Z</time></trkpt><trkpt lat="43.237265" lon="11.3760533"><ele>194.8</ele><time>2026-04-30T13:53:56.337Z</time></trkpt><trkpt lat="43.2373367" lon="11.3759667"><ele>196.0</ele><time>2026-04-30T13:53:57.337Z</time></trkpt><trkpt lat="43.2374233" lon="11.375865"><ele>196.75</ele><time>2026-04-30T13:53:58.336Z</time></trkpt><trkpt lat="43.2375117" lon="11.375755"><ele>197.5</ele><time>2026-04-30T13:53:59.337Z</time></trkpt><trkpt lat="43.2376017" lon="11.375665"><ele>198.25</ele><time>2026-04-30T13:54:00.336Z</time></trkpt><trkpt lat="43.2376933" lon="11.3755683"><ele>199.0</ele><time>2026-04-30T13:54:01.336Z</time></trkpt><trkpt lat="43.23779" lon="11.375475"><ele>199.6</ele><time>2026-04-30T13:54:02.336Z</time></trkpt><trkpt lat="43.23789" lon="11.37539"><ele>200.2</ele><time>2026-04-30T13:54:03.337Z</time></trkpt><trkpt lat="43.2379783" lon="11.375315"><ele>200.79999999999998</ele><time>2026-04-30T13:54:04.337Z</time></trkpt><trkpt lat="43.2380567" lon="11.3752467"><ele>201.39999999999998</ele><time>2026-04-30T13:54:05.337Z</time></trkpt><trkpt lat="43.23812" lon="11.37519"><ele>202.0</ele><time>2026-04-30T13:54:06.337Z</time></trkpt><trkpt lat="43.2381833" lon="11.37512"><ele>201.99999999999997</ele><time>2026-04-30T13:54:07.337Z</time></trkpt><trkpt lat="43.2382283" lon="11.3750583"><ele>202.0</ele><time>2026-04-30T13:54:08.336Z</time></trkpt><trkpt lat="43.23827" lon="11.3749917"><ele>202.0</ele><time>2026-04-30T13:54:09.337Z</time></trkpt><trkpt lat="43.2383217" lon="11.374835"><ele>202.0</ele><time>2026-04-30T13:54:11.337Z</time></trkpt><trkpt lat="43.238335" lon="11.3746733"><ele>201.99999999999997</ele><time>2026-04-30T13:54:13.336Z</time></trkpt><trkpt lat="43.23833" lon="11.374585"><ele>202.0</ele><time>2026-04-30T13:54:14.336Z</time></trkpt><trkpt lat="43.23832" lon="11.3744833"><ele>202.39999999999998</ele><time>2026-04-30T13:54:15.336Z</time></trkpt><trkpt lat="43.2383067" lon="11.3743767"><ele>202.79999999999998</ele><time>2026-04-30T13:54:16.337Z</time></trkpt><trkpt lat="43.23829" lon="11.37426"><ele>203.2</ele><time>2026-04-30T13:54:17.337Z</time></trkpt><trkpt lat="43.2382767" lon="11.3741283"><ele>203.6</ele><time>2026-04-30T13:54:18.337Z</time></trkpt><trkpt lat="43.2382667" lon="11.3739883"><ele>204.0</ele><time>2026-04-30T13:54:19.337Z</time></trkpt><trkpt lat="43.2382567" lon="11.373845"><ele>204.16666666666666</ele><time>2026-04-30T13:54:20.336Z</time></trkpt><trkpt lat="43.2382483" lon="11.3736983"><ele>204.33333333333331</ele><time>2026-04-30T13:54:21.337Z</time></trkpt><trkpt lat="43.2382367" lon="11.3735683"><ele>204.5</ele><time>2026-04-30T13:54:22.336Z</time></trkpt><trkpt lat="43.238235" lon="11.37345"><ele>204.66666666666666</ele><time>2026-04-30T13:54:23.336Z</time></trkpt><trkpt lat="43.23824" lon="11.3733383"><ele>204.83333333333331</ele><time>2026-04-30T13:54:24.337Z</time></trkpt><trkpt lat="43.2382483" lon="11.3732367"><ele>205.0</ele><time>2026-04-30T13:54:25.337Z</time></trkpt><trkpt lat="43.2382667" lon="11.3731433"><ele>204.99999999999997</ele><time>2026-04-30T13:54:26.337Z</time></trkpt><trkpt lat="43.2382983" lon="11.3730667"><ele>205.0</ele><time>2026-04-30T13:54:27.337Z</time></trkpt><trkpt lat="43.23839" lon="11.3729617"><ele>205.0</ele><time>2026-04-30T13:54:29.337Z</time></trkpt><trkpt lat="43.2384517" lon="11.3729117"><ele>205.0</ele><time>2026-04-30T13:54:30.337Z</time></trkpt><trkpt lat="43.2385217" lon="11.3728617"><ele>204.99999999999997</ele><time>2026-04-30T13:54:31.337Z</time></trkpt><trkpt lat="43.2385967" lon="11.3728217"><ele>205.0</ele><time>2026-04-30T13:54:32.337Z</time></trkpt><trkpt lat="43.2386767" lon="11.3727883"><ele>206.33333333333331</ele><time>2026-04-30T13:54:33.337Z</time></trkpt><trkpt lat="43.2387483" lon="11.37276"><ele>207.66666666666666</ele><time>2026-04-30T13:54:34.337Z</time></trkpt><trkpt lat="43.2388167" lon="11.37273"><ele>209.0</ele><time>2026-04-30T13:54:35.336Z</time></trkpt><trkpt lat="43.238885" lon="11.37271"><ele>210.33333333333331</ele><time>2026-04-30T13:54:36.337Z</time></trkpt><trkpt lat="43.23895" lon="11.3727017"><ele>211.66666666666666</ele><time>2026-04-30T13:54:37.337Z</time></trkpt><trkpt lat="43.239015" lon="11.3726967"><ele>213.0</ele><time>2026-04-30T13:54:38.337Z</time></trkpt><trkpt lat="43.2391183" lon="11.3727033"><ele>213.0</ele><time>2026-04-30T13:54:40.337Z</time></trkpt><trkpt lat="43.2392067" lon="11.3727083"><ele>213.0</ele><time>2026-04-30T13:54:42.336Z</time></trkpt><trkpt lat="43.2393267" lon="11.3726967"><ele>213.0</ele><time>2026-04-30T13:54:44.336Z</time></trkpt><trkpt lat="43.2394467" lon="11.372665"><ele>213.0</ele><time>2026-04-30T13:54:46.337Z</time></trkpt><trkpt lat="43.239545" lon="11.3726033"><ele>213.0</ele><time>2026-04-30T13:54:48.337Z</time></trkpt><trkpt lat="43.2396017" lon="11.3725433"><ele>213.0</ele><time>2026-04-30T13:54:50.336Z</time></trkpt><trkpt lat="43.2396267" lon="11.3724483"><ele>213.0</ele><time>2026-04-30T13:55:18.337Z</time></trkpt><trkpt lat="43.23969" lon="11.3722783"><ele>213.0</ele><time>2026-04-30T13:57:20.337Z</time></trkpt><trkpt lat="43.2397333" lon="11.3721767"><ele>213.0</ele><time>2026-04-30T13:57:21.337Z</time></trkpt><trkpt lat="43.2397833" lon="11.3720617"><ele>213.0</ele><time>2026-04-30T13:57:22.337Z</time></trkpt><trkpt lat="43.2398383" lon="11.3719317"><ele>213.25</ele><time>2026-04-30T13:57:23.337Z</time></trkpt><trkpt lat="43.2398983" lon="11.3718"><ele>213.5</ele><time>2026-04-30T13:57:24.336Z</time></trkpt><trkpt lat="43.2399667" lon="11.3716667"><ele>213.75</ele><time>2026-04-30T13:57:25.336Z</time></trkpt><trkpt lat="43.2400417" lon="11.37153"><ele>214.0</ele><time>2026-04-30T13:57:26.337Z</time></trkpt><trkpt lat="43.2401217" lon="11.3713967"><ele>214.75</ele><time>2026-04-30T13:57:27.336Z</time></trkpt><trkpt lat="43.2401983" lon="11.3712617"><ele>215.5</ele><time>2026-04-30T13:57:28.337Z</time></trkpt><trkpt lat="43.24027" lon="11.3711333"><ele>216.25</ele><time>2026-04-30T13:57:29.336Z</time></trkpt><trkpt lat="43.240335" lon="11.3710133"><ele>217.0</ele><time>2026-04-30T13:57:30.337Z</time></trkpt><trkpt lat="43.2404067" lon="11.3709033"><ele>217.0</ele><time>2026-04-30T13:57:31.337Z</time></trkpt><trkpt lat="43.240475" lon="11.3708"><ele>217.0</ele><time>2026-04-30T13:57:32.336Z</time></trkpt><trkpt lat="43.24054" lon="11.3707183"><ele>217.0</ele><time>2026-04-30T13:57:33.336Z</time></trkpt><trkpt lat="43.2406083" lon="11.37063"><ele>217.0</ele><time>2026-04-30T13:57:34.337Z</time></trkpt><trkpt lat="43.2406833" lon="11.3705483"><ele>217.0</ele><time>2026-04-30T13:57:35.337Z</time></trkpt><trkpt lat="43.2407667" lon="11.3704633"><ele>216.6</ele><time>2026-04-30T13:57:36.337Z</time></trkpt><trkpt lat="43.2408533" lon="11.3703783"><ele>216.2</ele><time>2026-04-30T13:57:37.337Z</time></trkpt><trkpt lat="43.2409467" lon="11.3702967"><ele>215.8</ele><time>2026-04-30T13:57:38.336Z</time></trkpt><trkpt lat="43.2410383" lon="11.3702183"><ele>215.4</ele><time>2026-04-30T13:57:39.337Z</time></trkpt><trkpt lat="43.241135" lon="11.370135"><ele>215.0</ele><time>2026-04-30T13:57:40.337Z</time></trkpt><trkpt lat="43.2412333" lon="11.37005"><ele>215.0</ele><time>2026-04-30T13:57:41.336Z</time></trkpt><trkpt lat="43.2413317" lon="11.3699583"><ele>215.0</ele><time>2026-04-30T13:57:42.337Z</time></trkpt><trkpt lat="43.241425" lon="11.369855"><ele>215.0</ele><time>2026-04-30T13:57:43.337Z</time></trkpt><trkpt lat="43.241525" lon="11.3697483"><ele>215.0</ele><time>2026-04-30T13:57:44.337Z</time></trkpt><trkpt lat="43.241615" lon="11.3696333"><ele>216.25</ele><time>2026-04-30T13:57:45.336Z</time></trkpt><trkpt lat="43.2417067" lon="11.3695217"><ele>217.5</ele><time>2026-04-30T13:57:46.337Z</time></trkpt><trkpt lat="43.2417983" lon="11.3694017"><ele>218.75</ele><time>2026-04-30T13:57:47.337Z</time></trkpt><trkpt lat="43.2418933" lon="11.3692867"><ele>220.0</ele><time>2026-04-30T13:57:48.337Z</time></trkpt><trkpt lat="43.2419833" lon="11.3691683"><ele>220.0</ele><time>2026-04-30T13:57:49.337Z</time></trkpt><trkpt lat="43.2420783" lon="11.3690433"><ele>220.0</ele><time>2026-04-30T13:57:50.337Z</time></trkpt><trkpt lat="43.2421767" lon="11.3689233"><ele>220.0</ele><time>2026-04-30T13:57:51.337Z</time></trkpt><trkpt lat="43.24227" lon="11.368795"><ele>220.0</ele><time>2026-04-30T13:57:52.336Z</time></trkpt><trkpt lat="43.2423633" lon="11.3686733"><ele>220.4</ele><time>2026-04-30T13:57:53.336Z</time></trkpt><trkpt lat="43.242455" lon="11.3685617"><ele>220.8</ele><time>2026-04-30T13:57:54.337Z</time></trkpt><trkpt lat="43.2425383" lon="11.3684733"><ele>221.2</ele><time>2026-04-30T13:57:55.337Z</time></trkpt><trkpt lat="43.2426233" lon="11.3683883"><ele>221.6</ele><time>2026-04-30T13:57:56.337Z</time></trkpt><trkpt lat="43.24272" lon="11.36831"><ele>222.0</ele><time>2026-04-30T13:57:57.337Z</time></trkpt><trkpt lat="43.242815" lon="11.3682383"><ele>222.0</ele><time>2026-04-30T13:57:58.337Z</time></trkpt><trkpt lat="43.2429117" lon="11.36818"><ele>222.0</ele><time>2026-04-30T13:57:59.337Z</time></trkpt><trkpt lat="43.2430117" lon="11.3681317"><ele>222.0</ele><time>2026-04-30T13:58:00.336Z</time></trkpt><trkpt lat="43.24312" lon="11.36809"><ele>222.0</ele><time>2026-04-30T13:58:01.337Z</time></trkpt><trkpt lat="43.243225" lon="11.368055"><ele>222.0</ele><time>2026-04-30T13:58:02.337Z</time></trkpt><trkpt lat="43.2433367" lon="11.3680283"><ele>222.8</ele><time>2026-04-30T13:58:03.336Z</time></trkpt><trkpt lat="43.24345" lon="11.3680067"><ele>223.6</ele><time>2026-04-30T13:58:04.337Z</time></trkpt><trkpt lat="43.2435567" lon="11.36798"><ele>224.40000000000003</ele><time>2026-04-30T13:58:05.337Z</time></trkpt><trkpt lat="43.2436567" lon="11.3679583"><ele>225.20000000000002</ele><time>2026-04-30T13:58:06.337Z</time></trkpt><trkpt lat="43.2437517" lon="11.3679333"><ele>226.0</ele><time>2026-04-30T13:58:07.337Z</time></trkpt><trkpt lat="43.2438517" lon="11.3678983"><ele>226.0</ele><time>2026-04-30T13:58:08.337Z</time></trkpt><trkpt lat="43.2439583" lon="11.36786"><ele>226.0</ele><time>2026-04-30T13:58:09.337Z</time></trkpt><trkpt lat="43.2440717" lon="11.3678233"><ele>226.0</ele><time>2026-04-30T13:58:10.336Z</time></trkpt><trkpt lat="43.24418" lon="11.3677917"><ele>226.0</ele><time>2026-04-30T13:58:11.337Z</time></trkpt><trkpt lat="43.2442917" lon="11.3677567"><ele>225.25</ele><time>2026-04-30T13:58:12.336Z</time></trkpt><trkpt lat="43.244405" lon="11.36772"><ele>224.5</ele><time>2026-04-30T13:58:13.336Z</time></trkpt><trkpt lat="43.2445217" lon="11.3676817"><ele>223.75</ele><time>2026-04-30T13:58:14.337Z</time></trkpt><trkpt lat="43.2446367" lon="11.367645"><ele>223.0</ele><time>2026-04-30T13:58:15.337Z</time></trkpt><trkpt lat="43.2447483" lon="11.3676033"><ele>222.4</ele><time>2026-04-30T13:58:16.337Z</time></trkpt><trkpt lat="43.2448583" lon="11.3675667"><ele>221.8</ele><time>2026-04-30T13:58:17.336Z</time></trkpt><trkpt lat="43.24497" lon="11.36753"><ele>221.2</ele><time>2026-04-30T13:58:18.337Z</time></trkpt><trkpt lat="43.2450783" lon="11.3674967"><ele>220.6</ele><time>2026-04-30T13:58:19.337Z</time></trkpt><trkpt lat="43.245185" lon="11.3674633"><ele>220.0</ele><time>2026-04-30T13:58:20.337Z</time></trkpt><trkpt lat="43.2452917" lon="11.3674217"><ele>220.0</ele><time>2026-04-30T13:58:21.337Z</time></trkpt><trkpt lat="43.2454017" lon="11.367375"><ele>220.0</ele><time>2026-04-30T13:58:22.337Z</time></trkpt><trkpt lat="43.2455117" lon="11.367315"><ele>220.0</ele><time>2026-04-30T13:58:23.337Z</time></trkpt><trkpt lat="43.2456167" lon="11.3672483"><ele>220.0</ele><time>2026-04-30T13:58:24.337Z</time></trkpt><trkpt lat="43.245715" lon="11.3671667"><ele>220.8</ele><time>2026-04-30T13:58:25.336Z</time></trkpt><trkpt lat="43.2458083" lon="11.3670733"><ele>221.6</ele><time>2026-04-30T13:58:26.335Z</time></trkpt><trkpt lat="43.2458917" lon="11.3669817"><ele>222.39999999999998</ele><time>2026-04-30T13:58:27.336Z</time></trkpt><trkpt lat="43.2459717" lon="11.3668883"><ele>223.2</ele><time>2026-04-30T13:58:28.335Z</time></trkpt><trkpt lat="43.2460633" lon="11.3667917"><ele>224.0</ele><time>2026-04-30T13:58:29.336Z</time></trkpt><trkpt lat="43.2461483" lon="11.36671"><ele>224.0</ele><time>2026-04-30T13:58:30.336Z</time></trkpt><trkpt lat="43.2462283" lon="11.3666383"><ele>223.99999999999997</ele><time>2026-04-30T13:58:31.336Z</time></trkpt><trkpt lat="43.2463183" lon="11.36657"><ele>223.99999999999997</ele><time>2026-04-30T13:58:32.336Z</time></trkpt><trkpt lat="43.2464167" lon="11.36651"><ele>224.0</ele><time>2026-04-30T13:58:33.336Z</time></trkpt><trkpt lat="43.246515" lon="11.3664533"><ele>224.0</ele><time>2026-04-30T13:58:34.336Z</time></trkpt><trkpt lat="43.2466217" lon="11.3664017"><ele>223.25</ele><time>2026-04-30T13:58:35.335Z</time></trkpt><trkpt lat="43.246735" lon="11.3663483"><ele>222.5</ele><time>2026-04-30T13:58:36.336Z</time></trkpt><trkpt lat="43.2468467" lon="11.3663017"><ele>221.75</ele><time>2026-04-30T13:58:37.336Z</time></trkpt><trkpt lat="43.2469517" lon="11.3662583"><ele>221.0</ele><time>2026-04-30T13:58:38.335Z</time></trkpt><trkpt lat="43.2470567" lon="11.3662183"><ele>221.0</ele><time>2026-04-30T13:58:39.336Z</time></trkpt><trkpt lat="43.2471667" lon="11.3661817"><ele>221.0</ele><time>2026-04-30T13:58:40.335Z</time></trkpt><trkpt lat="43.2472833" lon="11.3661483"><ele>221.0</ele><time>2026-04-30T13:58:41.336Z</time></trkpt><trkpt lat="43.2473967" lon="11.3661233"><ele>221.0</ele><time>2026-04-30T13:58:42.336Z</time></trkpt><trkpt lat="43.2475033" lon="11.3660967"><ele>221.4</ele><time>2026-04-30T13:58:43.336Z</time></trkpt><trkpt lat="43.2475933" lon="11.3660717"><ele>221.8</ele><time>2026-04-30T13:58:44.335Z</time></trkpt><trkpt lat="43.2476867" lon="11.36604"><ele>222.20000000000002</ele><time>2026-04-30T13:58:45.336Z</time></trkpt><trkpt lat="43.247775" lon="11.3659967"><ele>222.60000000000002</ele><time>2026-04-30T13:58:46.336Z</time></trkpt><trkpt lat="43.2478617" lon="11.3659367"><ele>223.0</ele><time>2026-04-30T13:58:47.335Z</time></trkpt><trkpt lat="43.2479467" lon="11.36586"><ele>223.0</ele><time>2026-04-30T13:58:48.336Z</time></trkpt><trkpt lat="43.2480217" lon="11.3657733"><ele>223.0</ele><time>2026-04-30T13:58:49.336Z</time></trkpt><trkpt lat="43.248085" lon="11.3656817"><ele>223.0</ele><time>2026-04-30T13:58:50.336Z</time></trkpt><trkpt lat="43.2481383" lon="11.36559"><ele>223.0</ele><time>2026-04-30T13:58:51.336Z</time></trkpt><trkpt lat="43.2481883" lon="11.3654883"><ele>223.0</ele><time>2026-04-30T13:58:52.335Z</time></trkpt><trkpt lat="43.24823" lon="11.3653817"><ele>223.33333333333331</ele><time>2026-04-30T13:58:53.336Z</time></trkpt><trkpt lat="43.2482517" lon="11.3652767"><ele>223.66666666666666</ele><time>2026-04-30T13:58:54.336Z</time></trkpt><trkpt lat="43.2482683" lon="11.3651667"><ele>224.0</ele><time>2026-04-30T13:58:55.336Z</time></trkpt><trkpt lat="43.248275" lon="11.365055"><ele>224.33333333333331</ele><time>2026-04-30T13:58:56.335Z</time></trkpt><trkpt lat="43.2482767" lon="11.3649417"><ele>224.66666666666666</ele><time>2026-04-30T13:58:57.336Z</time></trkpt><trkpt lat="43.2482783" lon="11.3648267"><ele>225.0</ele><time>2026-04-30T13:58:58.336Z</time></trkpt><trkpt lat="43.2482833" lon="11.3647117"><ele>225.33333333333334</ele><time>2026-04-30T13:58:59.335Z</time></trkpt><trkpt lat="43.2483" lon="11.3646017"><ele>225.66666666666669</ele><time>2026-04-30T13:59:00.336Z</time></trkpt><trkpt lat="43.2483217" lon="11.3645033"><ele>226.0</ele><time>2026-04-30T13:59:01.336Z</time></trkpt><trkpt lat="43.24836" lon="11.364415"><ele>226.33333333333334</ele><time>2026-04-30T13:59:02.336Z</time></trkpt><trkpt lat="43.24841" lon="11.3643267"><ele>226.66666666666669</ele><time>2026-04-30T13:59:03.336Z</time></trkpt><trkpt lat="43.2484683" lon="11.3642283"><ele>227.0</ele><time>2026-04-30T13:59:04.336Z</time></trkpt><trkpt lat="43.2485367" lon="11.36413"><ele>227.0</ele><time>2026-04-30T13:59:05.336Z</time></trkpt><trkpt lat="43.248605" lon="11.364025"><ele>227.0</ele><time>2026-04-30T13:59:06.336Z</time></trkpt><trkpt lat="43.2486833" lon="11.363925"><ele>227.0</ele><time>2026-04-30T13:59:07.336Z</time></trkpt><trkpt lat="43.24876" lon="11.3638233"><ele>227.0</ele><time>2026-04-30T13:59:08.336Z</time></trkpt><trkpt lat="43.248825" lon="11.3637217"><ele>227.0</ele><time>2026-04-30T13:59:09.336Z</time></trkpt><trkpt lat="43.2488867" lon="11.3636333"><ele>227.16666666666669</ele><time>2026-04-30T13:59:10.336Z</time></trkpt><trkpt lat="43.2489433" lon="11.3635483"><ele>227.33333333333334</ele><time>2026-04-30T13:59:11.336Z</time></trkpt><trkpt lat="43.2489983" lon="11.3634633"><ele>227.5</ele><time>2026-04-30T13:59:12.336Z</time></trkpt><trkpt lat="43.2490617" lon="11.3633917"><ele>227.66666666666669</ele><time>2026-04-30T13:59:13.336Z</time></trkpt><trkpt lat="43.2491367" lon="11.3633217"><ele>227.83333333333334</ele><time>2026-04-30T13:59:14.336Z</time></trkpt><trkpt lat="43.2492083" lon="11.3632567"><ele>228.0</ele><time>2026-04-30T13:59:15.336Z</time></trkpt><trkpt lat="43.249285" lon="11.3632033"><ele>228.0</ele><time>2026-04-30T13:59:16.336Z</time></trkpt><trkpt lat="43.249375" lon="11.3631583"><ele>228.0</ele><time>2026-04-30T13:59:17.336Z</time></trkpt><trkpt lat="43.249465" lon="11.3631217"><ele>228.0</ele><time>2026-04-30T13:59:18.335Z</time></trkpt><trkpt lat="43.249555" lon="11.363105"><ele>228.0</ele><time>2026-04-30T13:59:19.336Z</time></trkpt><trkpt lat="43.24965" lon="11.3630933"><ele>228.0</ele><time>2026-04-30T13:59:20.336Z</time></trkpt><trkpt lat="43.2497483" lon="11.363105"><ele>227.0</ele><time>2026-04-30T13:59:21.336Z</time></trkpt><trkpt lat="43.24985" lon="11.363115"><ele>226.0</ele><time>2026-04-30T13:59:22.336Z</time></trkpt><trkpt lat="43.2499517" lon="11.3631367"><ele>225.0</ele><time>2026-04-30T13:59:23.336Z</time></trkpt><trkpt lat="43.2500583" lon="11.3631683"><ele>224.0</ele><time>2026-04-30T13:59:24.336Z</time></trkpt><trkpt lat="43.2501717" lon="11.3631983"><ele>223.0</ele><time>2026-04-30T13:59:25.336Z</time></trkpt><trkpt lat="43.2502917" lon="11.3632283"><ele>223.0</ele><time>2026-04-30T13:59:26.335Z</time></trkpt><trkpt lat="43.2504083" lon="11.3632633"><ele>223.0</ele><time>2026-04-30T13:59:27.336Z</time></trkpt><trkpt lat="43.2505283" lon="11.36329"><ele>223.0</ele><time>2026-04-30T13:59:28.336Z</time></trkpt><trkpt lat="43.250655" lon="11.3633317"><ele>223.0</ele><time>2026-04-30T13:59:29.336Z</time></trkpt><trkpt lat="43.250775" lon="11.3633767"><ele>223.5</ele><time>2026-04-30T13:59:30.336Z</time></trkpt><trkpt lat="43.2508967" lon="11.3634217"><ele>224.0</ele><time>2026-04-30T13:59:31.336Z</time></trkpt><trkpt lat="43.251015" lon="11.3634733"><ele>224.5</ele><time>2026-04-30T13:59:32.336Z</time></trkpt><trkpt lat="43.2511267" lon="11.3635167"><ele>225.0</ele><time>2026-04-30T13:59:33.336Z</time></trkpt><trkpt lat="43.2512333" lon="11.3635533"><ele>225.0</ele><time>2026-04-30T13:59:34.336Z</time></trkpt><trkpt lat="43.2513383" lon="11.3635867"><ele>225.0</ele><time>2026-04-30T13:59:35.336Z</time></trkpt><trkpt lat="43.2514367" lon="11.3636133"><ele>225.0</ele><time>2026-04-30T13:59:36.336Z</time></trkpt><trkpt lat="43.2515317" lon="11.3636283"><ele>225.0</ele><time>2026-04-30T13:59:37.335Z</time></trkpt><trkpt lat="43.2516267" lon="11.363635"><ele>225.0</ele><time>2026-04-30T13:59:38.336Z</time></trkpt><trkpt lat="43.2517183" lon="11.3636233"><ele>226.33333333333334</ele><time>2026-04-30T13:59:39.335Z</time></trkpt><trkpt lat="43.2518017" lon="11.3635917"><ele>227.66666666666669</ele><time>2026-04-30T13:59:40.336Z</time></trkpt><trkpt lat="43.2518833" lon="11.3635483"><ele>229.0</ele><time>2026-04-30T13:59:41.335Z</time></trkpt><trkpt lat="43.2519633" lon="11.3634933"><ele>230.33333333333334</ele><time>2026-04-30T13:59:42.336Z</time></trkpt><trkpt lat="43.25204" lon="11.3634317"><ele>231.66666666666669</ele><time>2026-04-30T13:59:43.335Z</time></trkpt><trkpt lat="43.2521133" lon="11.36336"><ele>233.0</ele><time>2026-04-30T13:59:44.336Z</time></trkpt><trkpt lat="43.25219" lon="11.36329"><ele>233.00000000000003</ele><time>2026-04-30T13:59:45.335Z</time></trkpt><trkpt lat="43.2522633" lon="11.363215"><ele>233.0</ele><time>2026-04-30T13:59:46.336Z</time></trkpt><trkpt lat="43.252325" lon="11.3631417"><ele>233.0</ele><time>2026-04-30T13:59:47.336Z</time></trkpt><trkpt lat="43.2523883" lon="11.36308"><ele>233.0</ele><time>2026-04-30T13:59:48.336Z</time></trkpt><trkpt lat="43.2524533" lon="11.3630267"><ele>233.00000000000003</ele><time>2026-04-30T13:59:49.336Z</time></trkpt><trkpt lat="43.2525233" lon="11.3629733"><ele>233.0</ele><time>2026-04-30T13:59:50.336Z</time></trkpt><trkpt lat="43.25259" lon="11.362925"><ele>232.16666666666669</ele><time>2026-04-30T13:59:51.336Z</time></trkpt><trkpt lat="43.2526583" lon="11.3628717"><ele>231.33333333333334</ele><time>2026-04-30T13:59:52.335Z</time></trkpt><trkpt lat="43.252735" lon="11.3628233"><ele>230.5</ele><time>2026-04-30T13:59:53.336Z</time></trkpt><trkpt lat="43.2528183" lon="11.3627767"><ele>229.66666666666669</ele><time>2026-04-30T13:59:54.335Z</time></trkpt><trkpt lat="43.252905" lon="11.3627217"><ele>228.83333333333334</ele><time>2026-04-30T13:59:55.336Z</time></trkpt><trkpt lat="43.2529917" lon="11.3626767"><ele>228.0</ele><time>2026-04-30T13:59:56.336Z</time></trkpt><trkpt lat="43.25308" lon="11.3626333"><ele>227.5</ele><time>2026-04-30T13:59:57.336Z</time></trkpt><trkpt lat="43.2531617" lon="11.3625917"><ele>227.0</ele><time>2026-04-30T13:59:58.336Z</time></trkpt><trkpt lat="43.2532517" lon="11.362555"><ele>226.5</ele><time>2026-04-30T13:59:59.336Z</time></trkpt><trkpt lat="43.2533317" lon="11.3625267"><ele>226.0</ele><time>2026-04-30T14:00:00.336Z</time></trkpt><trkpt lat="43.2534117" lon="11.3624983"><ele>225.5</ele><time>2026-04-30T14:00:01.336Z</time></trkpt><trkpt lat="43.2534967" lon="11.36248"><ele>225.0</ele><time>2026-04-30T14:00:02.336Z</time></trkpt><trkpt lat="43.2535783" lon="11.3624567"><ele>225.0</ele><time>2026-04-30T14:00:03.336Z</time></trkpt><trkpt lat="43.253665" lon="11.3624333"><ele>225.0</ele><time>2026-04-30T14:00:04.336Z</time></trkpt><trkpt lat="43.25375" lon="11.3624167"><ele>225.0</ele><time>2026-04-30T14:00:05.335Z</time></trkpt><trkpt lat="43.2538333" lon="11.3624067"><ele>225.0</ele><time>2026-04-30T14:00:06.336Z</time></trkpt><trkpt lat="43.2539217" lon="11.3623917"><ele>225.0</ele><time>2026-04-30T14:00:07.336Z</time></trkpt><trkpt lat="43.254015" lon="11.3623783"><ele>225.0</ele><time>2026-04-30T14:00:08.336Z</time></trkpt><trkpt lat="43.254105" lon="11.36235"><ele>225.0</ele><time>2026-04-30T14:00:09.336Z</time></trkpt><trkpt lat="43.2541983" lon="11.3623167"><ele>225.0</ele><time>2026-04-30T14:00:10.336Z</time></trkpt><trkpt lat="43.2542833" lon="11.3622783"><ele>225.0</ele><time>2026-04-30T14:00:11.335Z</time></trkpt><trkpt lat="43.2543617" lon="11.3622317"><ele>225.0</ele><time>2026-04-30T14:00:12.336Z</time></trkpt><trkpt lat="43.2544433" lon="11.3621767"><ele>225.0</ele><time>2026-04-30T14:00:13.336Z</time></trkpt><trkpt lat="43.254515" lon="11.3621183"><ele>225.0</ele><time>2026-04-30T14:00:14.335Z</time></trkpt><trkpt lat="43.2545867" lon="11.3620467"><ele>225.0</ele><time>2026-04-30T14:00:15.335Z</time></trkpt><trkpt lat="43.254645" lon="11.36197"><ele>225.0</ele><time>2026-04-30T14:00:16.336Z</time></trkpt><trkpt lat="43.2547067" lon="11.3618783"><ele>225.0</ele><time>2026-04-30T14:00:17.336Z</time></trkpt><trkpt lat="43.2547617" lon="11.3617867"><ele>225.0</ele><time>2026-04-30T14:00:18.336Z</time></trkpt><trkpt lat="43.2548117" lon="11.3616917"><ele>225.0</ele><time>2026-04-30T14:00:19.336Z</time></trkpt><trkpt lat="43.2548617" lon="11.3615933"><ele>225.0</ele><time>2026-04-30T14:00:20.336Z</time></trkpt><trkpt lat="43.2549083" lon="11.361505"><ele>223.16666666666666</ele><time>2026-04-30T14:00:21.336Z</time></trkpt><trkpt lat="43.25495" lon="11.3614117"><ele>221.33333333333331</ele><time>2026-04-30T14:00:22.336Z</time></trkpt><trkpt lat="43.2549983" lon="11.3613117"><ele>219.5</ele><time>2026-04-30T14:00:23.335Z</time></trkpt><trkpt lat="43.25505" lon="11.3612183"><ele>217.66666666666666</ele><time>2026-04-30T14:00:24.336Z</time></trkpt><trkpt lat="43.25511" lon="11.3611283"><ele>215.83333333333331</ele><time>2026-04-30T14:00:25.336Z</time></trkpt><trkpt lat="43.2551733" lon="11.3610383"><ele>214.0</ele><time>2026-04-30T14:00:26.336Z</time></trkpt><trkpt lat="43.2552417" lon="11.3609567"><ele>213.99999999999997</ele><time>2026-04-30T14:00:27.336Z</time></trkpt><trkpt lat="43.2553083" lon="11.360875"><ele>214.0</ele><time>2026-04-30T14:00:28.335Z</time></trkpt><trkpt lat="43.2553817" lon="11.3608067"><ele>214.0</ele><time>2026-04-30T14:00:29.335Z</time></trkpt><trkpt lat="43.25546" lon="11.3607467"><ele>214.0</ele><time>2026-04-30T14:00:30.336Z</time></trkpt><trkpt lat="43.2555333" lon="11.3606933"><ele>213.99999999999997</ele><time>2026-04-30T14:00:31.335Z</time></trkpt><trkpt lat="43.25561" lon="11.360635"><ele>214.0</ele><time>2026-04-30T14:00:32.335Z</time></trkpt><trkpt lat="43.2556867" lon="11.360575"><ele>211.79999999999998</ele><time>2026-04-30T14:00:33.336Z</time></trkpt><trkpt lat="43.2557683" lon="11.3605117"><ele>209.59999999999997</ele><time>2026-04-30T14:00:34.336Z</time></trkpt><trkpt lat="43.2558533" lon="11.36045"><ele>207.4</ele><time>2026-04-30T14:00:35.336Z</time></trkpt><trkpt lat="43.2559367" lon="11.3603933"><ele>205.2</ele><time>2026-04-30T14:00:36.336Z</time></trkpt><trkpt lat="43.2560183" lon="11.36034"><ele>203.0</ele><time>2026-04-30T14:00:37.335Z</time></trkpt><trkpt lat="43.2561017" lon="11.36029"><ele>203.00000000000003</ele><time>2026-04-30T14:00:38.336Z</time></trkpt><trkpt lat="43.2561833" lon="11.3602533"><ele>203.0</ele><time>2026-04-30T14:00:39.336Z</time></trkpt><trkpt lat="43.256265" lon="11.3602267"><ele>203.0</ele><time>2026-04-30T14:00:40.336Z</time></trkpt><trkpt lat="43.25635" lon="11.3601967"><ele>203.0</ele><time>2026-04-30T14:00:41.335Z</time></trkpt><trkpt lat="43.2564383" lon="11.3601717"><ele>203.00000000000003</ele><time>2026-04-30T14:00:42.336Z</time></trkpt><trkpt lat="43.2565317" lon="11.3601533"><ele>203.0</ele><time>2026-04-30T14:00:43.336Z</time></trkpt><trkpt lat="43.256625" lon="11.3601417"><ele>202.2</ele><time>2026-04-30T14:00:44.335Z</time></trkpt><trkpt lat="43.256715" lon="11.3601267"><ele>201.4</ele><time>2026-04-30T14:00:45.335Z</time></trkpt><trkpt lat="43.2568083" lon="11.3601183"><ele>200.6</ele><time>2026-04-30T14:00:46.336Z</time></trkpt><trkpt lat="43.2569" lon="11.3601117"><ele>199.79999999999998</ele><time>2026-04-30T14:00:47.335Z</time></trkpt><trkpt lat="43.2569933" lon="11.3601083"><ele>199.0</ele><time>2026-04-30T14:00:48.336Z</time></trkpt><trkpt lat="43.2570867" lon="11.36012"><ele>199.0</ele><time>2026-04-30T14:00:49.336Z</time></trkpt><trkpt lat="43.25718" lon="11.3601267"><ele>199.0</ele><time>2026-04-30T14:00:50.336Z</time></trkpt><trkpt lat="43.257275" lon="11.36015"><ele>199.0</ele><time>2026-04-30T14:00:51.335Z</time></trkpt><trkpt lat="43.2573717" lon="11.360175"><ele>199.0</ele><time>2026-04-30T14:00:52.336Z</time></trkpt><trkpt lat="43.2574633" lon="11.3602133"><ele>199.0</ele><time>2026-04-30T14:00:53.336Z</time></trkpt><trkpt lat="43.2575583" lon="11.36025"><ele>198.2</ele><time>2026-04-30T14:00:54.335Z</time></trkpt><trkpt lat="43.2576533" lon="11.3603"><ele>197.39999999999998</ele><time>2026-04-30T14:00:55.336Z</time></trkpt><trkpt lat="43.2577433" lon="11.3603433"><ele>196.6</ele><time>2026-04-30T14:00:56.336Z</time></trkpt><trkpt lat="43.257835" lon="11.3603933"><ele>195.8</ele><time>2026-04-30T14:00:57.335Z</time></trkpt><trkpt lat="43.2579217" lon="11.36045"><ele>195.0</ele><time>2026-04-30T14:00:58.336Z</time></trkpt><trkpt lat="43.2580133" lon="11.3605067"><ele>195.0</ele><time>2026-04-30T14:00:59.336Z</time></trkpt><trkpt lat="43.258105" lon="11.360575"><ele>195.0</ele><time>2026-04-30T14:01:00.336Z</time></trkpt><trkpt lat="43.2581883" lon="11.36065"><ele>195.0</ele><time>2026-04-30T14:01:01.336Z</time></trkpt><trkpt lat="43.2582717" lon="11.3607283"><ele>195.0</ele><time>2026-04-30T14:01:02.336Z</time></trkpt><trkpt lat="43.2583533" lon="11.3608083"><ele>195.0</ele><time>2026-04-30T14:01:03.336Z</time></trkpt><trkpt lat="43.2584367" lon="11.360885"><ele>195.0</ele><time>2026-04-30T14:01:04.336Z</time></trkpt><trkpt lat="43.2585233" lon="11.360965"><ele>195.0</ele><time>2026-04-30T14:01:05.335Z</time></trkpt><trkpt lat="43.2586067" lon="11.3610383"><ele>195.0</ele><time>2026-04-30T14:01:06.336Z</time></trkpt><trkpt lat="43.25869" lon="11.3611217"><ele>195.0</ele><time>2026-04-30T14:01:07.336Z</time></trkpt><trkpt lat="43.25877" lon="11.36119"><ele>195.0</ele><time>2026-04-30T14:01:08.336Z</time></trkpt><trkpt lat="43.2588517" lon="11.3612567"><ele>195.0</ele><time>2026-04-30T14:01:09.336Z</time></trkpt><trkpt lat="43.2589333" lon="11.3613183"><ele>195.0</ele><time>2026-04-30T14:01:10.336Z</time></trkpt><trkpt lat="43.2590217" lon="11.3613717"><ele>195.0</ele><time>2026-04-30T14:01:11.336Z</time></trkpt><trkpt lat="43.2591117" lon="11.36142"><ele>195.0</ele><time>2026-04-30T14:01:12.336Z</time></trkpt><trkpt lat="43.2592067" lon="11.3614733"><ele>195.0</ele><time>2026-04-30T14:01:13.336Z</time></trkpt><trkpt lat="43.2593" lon="11.3615283"><ele>194.6</ele><time>2026-04-30T14:01:14.335Z</time></trkpt><trkpt lat="43.259395" lon="11.36158"><ele>194.2</ele><time>2026-04-30T14:01:15.336Z</time></trkpt><trkpt lat="43.2594817" lon="11.3616283"><ele>193.8</ele><time>2026-04-30T14:01:16.335Z</time></trkpt><trkpt lat="43.2595767" lon="11.36168"><ele>193.4</ele><time>2026-04-30T14:01:17.336Z</time></trkpt><trkpt lat="43.2596733" lon="11.3617217"><ele>193.0</ele><time>2026-04-30T14:01:18.336Z</time></trkpt><trkpt lat="43.2597717" lon="11.3617617"><ele>191.4</ele><time>2026-04-30T14:01:19.335Z</time></trkpt><trkpt lat="43.259865" lon="11.3618017"><ele>189.8</ele><time>2026-04-30T14:01:20.336Z</time></trkpt><trkpt lat="43.25996" lon="11.3618367"><ele>188.2</ele><time>2026-04-30T14:01:21.336Z</time></trkpt><trkpt lat="43.2600617" lon="11.3618617"><ele>186.6</ele><time>2026-04-30T14:01:22.336Z</time></trkpt><trkpt lat="43.26016" lon="11.3618933"><ele>185.0</ele><time>2026-04-30T14:01:23.336Z</time></trkpt><trkpt lat="43.260245" lon="11.3619167"><ele>185.0</ele><time>2026-04-30T14:01:24.336Z</time></trkpt><trkpt lat="43.2603333" lon="11.36194"><ele>185.0</ele><time>2026-04-30T14:01:25.335Z</time></trkpt><trkpt lat="43.260425" lon="11.3619667"><ele>185.0</ele><time>2026-04-30T14:01:26.336Z</time></trkpt><trkpt lat="43.26052" lon="11.3619883"><ele>185.0</ele><time>2026-04-30T14:01:27.336Z</time></trkpt><trkpt lat="43.2606117" lon="11.362005"><ele>185.0</ele><time>2026-04-30T14:01:28.335Z</time></trkpt><trkpt lat="43.2606967" lon="11.3620117"><ele>184.4</ele><time>2026-04-30T14:01:29.335Z</time></trkpt><trkpt lat="43.2607817" lon="11.3620067"><ele>183.8</ele><time>2026-04-30T14:01:30.336Z</time></trkpt><trkpt lat="43.2608767" lon="11.3619883"><ele>183.2</ele><time>2026-04-30T14:01:31.336Z</time></trkpt><trkpt lat="43.2609783" lon="11.36196"><ele>182.6</ele><time>2026-04-30T14:01:32.335Z</time></trkpt><trkpt lat="43.2610767" lon="11.361935"><ele>182.0</ele><time>2026-04-30T14:01:33.336Z</time></trkpt><trkpt lat="43.2611733" lon="11.3619067"><ele>182.0</ele><time>2026-04-30T14:01:34.336Z</time></trkpt><trkpt lat="43.261265" lon="11.3618733"><ele>182.0</ele><time>2026-04-30T14:01:35.336Z</time></trkpt><trkpt lat="43.26136" lon="11.3618267"><ele>182.0</ele><time>2026-04-30T14:01:36.335Z</time></trkpt><trkpt lat="43.26145" lon="11.36178"><ele>182.0</ele><time>2026-04-30T14:01:37.335Z</time></trkpt><trkpt lat="43.26153" lon="11.36173"><ele>182.0</ele><time>2026-04-30T14:01:38.336Z</time></trkpt><trkpt lat="43.2616117" lon="11.3616767"><ele>182.0</ele><time>2026-04-30T14:01:39.335Z</time></trkpt><trkpt lat="43.2616933" lon="11.3616117"><ele>182.0</ele><time>2026-04-30T14:01:40.336Z</time></trkpt><trkpt lat="43.26178" lon="11.3615417"><ele>182.0</ele><time>2026-04-30T14:01:41.336Z</time></trkpt><trkpt lat="43.2618567" lon="11.36148"><ele>182.0</ele><time>2026-04-30T14:01:42.336Z</time></trkpt><trkpt lat="43.2619367" lon="11.3614133"><ele>182.0</ele><time>2026-04-30T14:01:43.336Z</time></trkpt><trkpt lat="43.2620133" lon="11.36134"><ele>182.2</ele><time>2026-04-30T14:01:44.336Z</time></trkpt><trkpt lat="43.2620933" lon="11.361255"><ele>182.39999999999998</ele><time>2026-04-30T14:01:45.336Z</time></trkpt><trkpt lat="43.2621733" lon="11.36117"><ele>182.60000000000002</ele><time>2026-04-30T14:01:46.336Z</time></trkpt><trkpt lat="43.2622517" lon="11.3610683"><ele>182.8</ele><time>2026-04-30T14:01:47.335Z</time></trkpt><trkpt lat="43.2623267" lon="11.360975"><ele>183.0</ele><time>2026-04-30T14:01:48.336Z</time></trkpt><trkpt lat="43.2623983" lon="11.3608667"><ele>183.0</ele><time>2026-04-30T14:01:49.336Z</time></trkpt><trkpt lat="43.262475" lon="11.3607567"><ele>183.0</ele><time>2026-04-30T14:01:50.336Z</time></trkpt><trkpt lat="43.2625667" lon="11.360655"><ele>183.0</ele><time>2026-04-30T14:01:51.336Z</time></trkpt><trkpt lat="43.262655" lon="11.36055"><ele>183.0</ele><time>2026-04-30T14:01:52.336Z</time></trkpt><trkpt lat="43.262745" lon="11.3604583"><ele>182.75</ele><time>2026-04-30T14:01:53.336Z</time></trkpt><trkpt lat="43.2628317" lon="11.3603533"><ele>182.5</ele><time>2026-04-30T14:01:54.335Z</time></trkpt><trkpt lat="43.26293" lon="11.3602483"><ele>182.25</ele><time>2026-04-30T14:01:55.336Z</time></trkpt><trkpt lat="43.26302" lon="11.36014"><ele>182.0</ele><time>2026-04-30T14:01:56.336Z</time></trkpt><trkpt lat="43.2631217" lon="11.360035"><ele>182.0</ele><time>2026-04-30T14:01:57.336Z</time></trkpt><trkpt lat="43.26322" lon="11.3599333"><ele>182.0</ele><time>2026-04-30T14:01:58.335Z</time></trkpt><trkpt lat="43.2633117" lon="11.3598433"><ele>182.0</ele><time>2026-04-30T14:01:59.336Z</time></trkpt><trkpt lat="43.2633983" lon="11.3597533"><ele>182.0</ele><time>2026-04-30T14:02:00.336Z</time></trkpt><trkpt lat="43.2634933" lon="11.35967"><ele>182.25</ele><time>2026-04-30T14:02:01.336Z</time></trkpt><trkpt lat="43.263595" lon="11.3595933"><ele>182.5</ele><time>2026-04-30T14:02:02.336Z</time></trkpt><trkpt lat="43.2637017" lon="11.3595133"><ele>182.75</ele><time>2026-04-30T14:02:03.336Z</time></trkpt><trkpt lat="43.2638067" lon="11.359445"><ele>183.0</ele><time>2026-04-30T14:02:04.335Z</time></trkpt><trkpt lat="43.263905" lon="11.3593717"><ele>183.2</ele><time>2026-04-30T14:02:05.336Z</time></trkpt><trkpt lat="43.2639917" lon="11.3593017"><ele>183.4</ele><time>2026-04-30T14:02:06.336Z</time></trkpt><trkpt lat="43.2640717" lon="11.3592283"><ele>183.6</ele><time>2026-04-30T14:02:07.336Z</time></trkpt><trkpt lat="43.2641483" lon="11.35915"><ele>183.79999999999998</ele><time>2026-04-30T14:02:08.336Z</time></trkpt><trkpt lat="43.264215" lon="11.3590767"><ele>184.0</ele><time>2026-04-30T14:02:09.336Z</time></trkpt><trkpt lat="43.2642733" lon="11.359"><ele>184.0</ele><time>2026-04-30T14:02:10.336Z</time></trkpt><trkpt lat="43.2643367" lon="11.358915"><ele>184.0</ele><time>2026-04-30T14:02:11.335Z</time></trkpt><trkpt lat="43.2644" lon="11.358825"><ele>184.0</ele><time>2026-04-30T14:02:12.336Z</time></trkpt><trkpt lat="43.26446" lon="11.358715"><ele>184.0</ele><time>2026-04-30T14:02:13.336Z</time></trkpt><trkpt lat="43.2645117" lon="11.3586033"><ele>184.0</ele><time>2026-04-30T14:02:14.336Z</time></trkpt><trkpt lat="43.2645583" lon="11.3585"><ele>184.0</ele><time>2026-04-30T14:02:15.335Z</time></trkpt><trkpt lat="43.2646067" lon="11.3584183"><ele>184.0</ele><time>2026-04-30T14:02:16.336Z</time></trkpt><trkpt lat="43.2646583" lon="11.358345"><ele>184.0</ele><time>2026-04-30T14:02:17.335Z</time></trkpt><trkpt lat="43.2647233" lon="11.3582933"><ele>184.0</ele><time>2026-04-30T14:02:18.336Z</time></trkpt><trkpt lat="43.264805" lon="11.3582467"><ele>184.0</ele><time>2026-04-30T14:02:19.335Z</time></trkpt><trkpt lat="43.26489" lon="11.3582233"><ele>184.0</ele><time>2026-04-30T14:02:20.336Z</time></trkpt><trkpt lat="43.2649817" lon="11.3582217"><ele>184.0</ele><time>2026-04-30T14:02:21.336Z</time></trkpt><trkpt lat="43.2650667" lon="11.3582383"><ele>184.0</ele><time>2026-04-30T14:02:22.335Z</time></trkpt><trkpt lat="43.2651633" lon="11.3582667"><ele>184.0</ele><time>2026-04-30T14:02:23.335Z</time></trkpt><trkpt lat="43.2652533" lon="11.3583117"><ele>184.0</ele><time>2026-04-30T14:02:24.336Z</time></trkpt><trkpt lat="43.265355" lon="11.3583533"><ele>184.0</ele><time>2026-04-30T14:02:25.336Z</time></trkpt><trkpt lat="43.2654517" lon="11.3584017"><ele>184.0</ele><time>2026-04-30T14:02:26.335Z</time></trkpt><trkpt lat="43.2655483" lon="11.3584433"><ele>184.0</ele><time>2026-04-30T14:02:27.336Z</time></trkpt><trkpt lat="43.2656483" lon="11.3584917"><ele>184.0</ele><time>2026-04-30T14:02:28.336Z</time></trkpt><trkpt lat="43.2657633" lon="11.3585383"><ele>184.0</ele><time>2026-04-30T14:02:29.336Z</time></trkpt><trkpt lat="43.2658717" lon="11.3585933"><ele>184.0</ele><time>2026-04-30T14:02:30.336Z</time></trkpt><trkpt lat="43.2659783" lon="11.35864"><ele>184.2</ele><time>2026-04-30T14:02:31.336Z</time></trkpt><trkpt lat="43.2660783" lon="11.3586883"><ele>184.39999999999998</ele><time>2026-04-30T14:02:32.336Z</time></trkpt><trkpt lat="43.2661833" lon="11.3587417"><ele>184.6</ele><time>2026-04-30T14:02:33.336Z</time></trkpt><trkpt lat="43.2662783" lon="11.358785"><ele>184.8</ele><time>2026-04-30T14:02:34.335Z</time></trkpt><trkpt lat="43.26638" lon="11.3588233"><ele>185.0</ele><time>2026-04-30T14:02:35.336Z</time></trkpt><trkpt lat="43.2664783" lon="11.35886"><ele>185.0</ele><time>2026-04-30T14:02:36.336Z</time></trkpt><trkpt lat="43.26658" lon="11.358905"><ele>185.0</ele><time>2026-04-30T14:02:37.336Z</time></trkpt><trkpt lat="43.2666833" lon="11.358945"><ele>185.0</ele><time>2026-04-30T14:02:38.336Z</time></trkpt><trkpt lat="43.2667867" lon="11.35899"><ele>185.0</ele><time>2026-04-30T14:02:39.336Z</time></trkpt><trkpt lat="43.266895" lon="11.3590367"><ele>185.0</ele><time>2026-04-30T14:02:40.336Z</time></trkpt><trkpt lat="43.2670033" lon="11.35908"><ele>185.0</ele><time>2026-04-30T14:02:41.336Z</time></trkpt><trkpt lat="43.267115" lon="11.3591233"><ele>185.0</ele><time>2026-04-30T14:02:42.336Z</time></trkpt><trkpt lat="43.267225" lon="11.359165"><ele>185.0</ele><time>2026-04-30T14:02:43.336Z</time></trkpt><trkpt lat="43.2673217" lon="11.3592067"><ele>185.0</ele><time>2026-04-30T14:02:44.336Z</time></trkpt><trkpt lat="43.267415" lon="11.35925"><ele>185.0</ele><time>2026-04-30T14:02:45.335Z</time></trkpt><trkpt lat="43.2675033" lon="11.3592933"><ele>185.16666666666666</ele><time>2026-04-30T14:02:46.335Z</time></trkpt><trkpt lat="43.2675833" lon="11.3593267"><ele>185.33333333333331</ele><time>2026-04-30T14:02:47.336Z</time></trkpt><trkpt lat="43.267665" lon="11.35936"><ele>185.5</ele><time>2026-04-30T14:02:48.336Z</time></trkpt><trkpt lat="43.2677483" lon="11.35939"><ele>185.66666666666666</ele><time>2026-04-30T14:02:49.336Z</time></trkpt><trkpt lat="43.2678333" lon="11.35941"><ele>185.83333333333334</ele><time>2026-04-30T14:02:50.336Z</time></trkpt><trkpt lat="43.267915" lon="11.3594183"><ele>186.0</ele><time>2026-04-30T14:02:51.336Z</time></trkpt><trkpt lat="43.2680017" lon="11.35942"><ele>186.0</ele><time>2026-04-30T14:02:52.336Z</time></trkpt><trkpt lat="43.2680917" lon="11.3594117"><ele>186.0</ele><time>2026-04-30T14:02:53.335Z</time></trkpt><trkpt lat="43.2681767" lon="11.3593983"><ele>186.0</ele><time>2026-04-30T14:02:54.336Z</time></trkpt><trkpt lat="43.2682567" lon="11.35937"><ele>186.0</ele><time>2026-04-30T14:02:55.336Z</time></trkpt><trkpt lat="43.2683417" lon="11.3593283"><ele>186.0</ele><time>2026-04-30T14:02:56.336Z</time></trkpt><trkpt lat="43.2684233" lon="11.3592767"><ele>186.0</ele><time>2026-04-30T14:02:57.335Z</time></trkpt><trkpt lat="43.2685033" lon="11.35922"><ele>186.60000000000002</ele><time>2026-04-30T14:02:58.336Z</time></trkpt><trkpt lat="43.2685767" lon="11.3591567"><ele>187.2</ele><time>2026-04-30T14:02:59.336Z</time></trkpt><trkpt lat="43.2686417" lon="11.35908"><ele>187.8</ele><time>2026-04-30T14:03:00.335Z</time></trkpt><trkpt lat="43.26871" lon="11.35899"><ele>188.39999999999998</ele><time>2026-04-30T14:03:01.336Z</time></trkpt><trkpt lat="43.2687733" lon="11.358895"><ele>189.0</ele><time>2026-04-30T14:03:02.336Z</time></trkpt><trkpt lat="43.2688217" lon="11.3587917"><ele>189.0</ele><time>2026-04-30T14:03:03.336Z</time></trkpt><trkpt lat="43.2688567" lon="11.3586783"><ele>189.0</ele><time>2026-04-30T14:03:04.336Z</time></trkpt><trkpt lat="43.2688883" lon="11.35856"><ele>189.0</ele><time>2026-04-30T14:03:05.335Z</time></trkpt><trkpt lat="43.26892" lon="11.3584367"><ele>189.0</ele><time>2026-04-30T14:03:06.336Z</time></trkpt><trkpt lat="43.26894" lon="11.3583017"><ele>189.0</ele><time>2026-04-30T14:03:07.336Z</time></trkpt><trkpt lat="43.2689533" lon="11.358165"><ele>192.0</ele><time>2026-04-30T14:03:08.335Z</time></trkpt><trkpt lat="43.268965" lon="11.3580167"><ele>195.0</ele><time>2026-04-30T14:03:09.336Z</time></trkpt><trkpt lat="43.2689683" lon="11.3578733"><ele>198.0</ele><time>2026-04-30T14:03:10.336Z</time></trkpt><trkpt lat="43.26897" lon="11.3577283"><ele>201.0</ele><time>2026-04-30T14:03:11.335Z</time></trkpt><trkpt lat="43.2689683" lon="11.35758"><ele>204.0</ele><time>2026-04-30T14:03:12.335Z</time></trkpt><trkpt lat="43.2689733" lon="11.3574317"><ele>204.0</ele><time>2026-04-30T14:03:13.336Z</time></trkpt><trkpt lat="43.2689767" lon="11.3572933"><ele>204.0</ele><time>2026-04-30T14:03:14.336Z</time></trkpt><trkpt lat="43.2689883" lon="11.35716"><ele>204.0</ele><time>2026-04-30T14:03:15.336Z</time></trkpt><trkpt lat="43.2690067" lon="11.3570283"><ele>204.0</ele><time>2026-04-30T14:03:16.336Z</time></trkpt><trkpt lat="43.2690367" lon="11.3569"><ele>204.0</ele><time>2026-04-30T14:03:17.336Z</time></trkpt><trkpt lat="43.2690783" lon="11.356775"><ele>203.6</ele><time>2026-04-30T14:03:18.336Z</time></trkpt><trkpt lat="43.2691267" lon="11.35665"><ele>203.2</ele><time>2026-04-30T14:03:19.335Z</time></trkpt><trkpt lat="43.2691867" lon="11.3565383"><ele>202.79999999999998</ele><time>2026-04-30T14:03:20.336Z</time></trkpt><trkpt lat="43.2692533" lon="11.3564367"><ele>202.39999999999998</ele><time>2026-04-30T14:03:21.336Z</time></trkpt><trkpt lat="43.2693183" lon="11.356345"><ele>202.0</ele><time>2026-04-30T14:03:22.336Z</time></trkpt><trkpt lat="43.2693817" lon="11.3562617"><ele>201.33333333333331</ele><time>2026-04-30T14:03:23.335Z</time></trkpt><trkpt lat="43.2694517" lon="11.35619"><ele>200.66666666666666</ele><time>2026-04-30T14:03:24.336Z</time></trkpt><trkpt lat="43.2695283" lon="11.356125"><ele>200.0</ele><time>2026-04-30T14:03:25.336Z</time></trkpt><trkpt lat="43.26961" lon="11.356065"><ele>199.33333333333331</ele><time>2026-04-30T14:03:26.336Z</time></trkpt><trkpt lat="43.2696933" lon="11.3560117"><ele>198.66666666666666</ele><time>2026-04-30T14:03:27.336Z</time></trkpt><trkpt lat="43.2697683" lon="11.3559733"><ele>198.0</ele><time>2026-04-30T14:03:28.336Z</time></trkpt><trkpt lat="43.2698417" lon="11.3559417"><ele>200.0</ele><time>2026-04-30T14:03:29.336Z</time></trkpt><trkpt lat="43.2699217" lon="11.3559283"><ele>202.0</ele><time>2026-04-30T14:03:30.336Z</time></trkpt><trkpt lat="43.270005" lon="11.3559217"><ele>204.0</ele><time>2026-04-30T14:03:31.336Z</time></trkpt><trkpt lat="43.2700933" lon="11.3559217"><ele>206.0</ele><time>2026-04-30T14:03:32.335Z</time></trkpt><trkpt lat="43.2701833" lon="11.3559217"><ele>208.0</ele><time>2026-04-30T14:03:33.336Z</time></trkpt><trkpt lat="43.270265" lon="11.355935"><ele>210.0</ele><time>2026-04-30T14:03:34.335Z</time></trkpt><trkpt lat="43.270345" lon="11.355965"><ele>210.0</ele><time>2026-04-30T14:03:35.336Z</time></trkpt><trkpt lat="43.2704217" lon="11.35601"><ele>210.0</ele><time>2026-04-30T14:03:36.335Z</time></trkpt><trkpt lat="43.2705" lon="11.3560733"><ele>210.0</ele><time>2026-04-30T14:03:37.335Z</time></trkpt><trkpt lat="43.2705783" lon="11.35615"><ele>210.0</ele><time>2026-04-30T14:03:38.336Z</time></trkpt><trkpt lat="43.270655" lon="11.3562367"><ele>210.0</ele><time>2026-04-30T14:03:39.335Z</time></trkpt><trkpt lat="43.2707333" lon="11.3563133"><ele>213.0</ele><time>2026-04-30T14:03:40.336Z</time></trkpt><trkpt lat="43.2708217" lon="11.3564"><ele>216.0</ele><time>2026-04-30T14:03:41.336Z</time></trkpt><trkpt lat="43.2709133" lon="11.3564933"><ele>219.0</ele><time>2026-04-30T14:03:42.335Z</time></trkpt><trkpt lat="43.271005" lon="11.3565917"><ele>222.0</ele><time>2026-04-30T14:03:43.336Z</time></trkpt><trkpt lat="43.2711017" lon="11.356685"><ele>222.0</ele><time>2026-04-30T14:03:44.335Z</time></trkpt><trkpt lat="43.271195" lon="11.3567833"><ele>222.0</ele><time>2026-04-30T14:03:45.336Z</time></trkpt><trkpt lat="43.2712883" lon="11.35689"><ele>222.0</ele><time>2026-04-30T14:03:46.336Z</time></trkpt><trkpt lat="43.2713883" lon="11.3570017"><ele>222.0</ele><time>2026-04-30T14:03:47.336Z</time></trkpt><trkpt lat="43.2714883" lon="11.35711"><ele>222.2</ele><time>2026-04-30T14:03:48.336Z</time></trkpt><trkpt lat="43.2715733" lon="11.3572033"><ele>222.39999999999998</ele><time>2026-04-30T14:03:49.335Z</time></trkpt><trkpt lat="43.2716383" lon="11.357275"><ele>222.60000000000002</ele><time>2026-04-30T14:03:50.336Z</time></trkpt><trkpt lat="43.2716933" lon="11.357335"><ele>222.8</ele><time>2026-04-30T14:03:51.336Z</time></trkpt><trkpt lat="43.27177" lon="11.357425"><ele>223.0</ele><time>2026-04-30T14:03:53.336Z</time></trkpt><trkpt lat="43.271875" lon="11.3574583"><ele>223.0</ele><time>2026-04-30T14:04:00.336Z</time></trkpt><trkpt lat="43.2719917" lon="11.3573733"><ele>223.0</ele><time>2026-04-30T14:04:02.335Z</time></trkpt><trkpt lat="43.2720583" lon="11.3572967"><ele>223.0</ele><time>2026-04-30T14:04:03.336Z</time></trkpt><trkpt lat="43.2721333" lon="11.357205"><ele>223.0</ele><time>2026-04-30T14:04:04.336Z</time></trkpt><trkpt lat="43.27222" lon="11.3571067"><ele>223.0</ele><time>2026-04-30T14:04:05.336Z</time></trkpt><trkpt lat="43.272315" lon="11.356995"><ele>224.0</ele><time>2026-04-30T14:04:06.336Z</time></trkpt><trkpt lat="43.27242" lon="11.3568783"><ele>225.0</ele><time>2026-04-30T14:04:07.336Z</time></trkpt><trkpt lat="43.2725317" lon="11.3567517"><ele>226.0</ele><time>2026-04-30T14:04:08.335Z</time></trkpt><trkpt lat="43.2726483" lon="11.3566233"><ele>227.0</ele><time>2026-04-30T14:04:09.335Z</time></trkpt><trkpt lat="43.2727683" lon="11.3564833"><ele>225.66666666666669</ele><time>2026-04-30T14:04:10.336Z</time></trkpt><trkpt lat="43.2728917" lon="11.3563417"><ele>224.33333333333331</ele><time>2026-04-30T14:04:11.336Z</time></trkpt><trkpt lat="43.2730183" lon="11.356195"><ele>223.0</ele><time>2026-04-30T14:04:12.336Z</time></trkpt><trkpt lat="43.27315" lon="11.3560483"><ele>223.0</ele><time>2026-04-30T14:04:13.335Z</time></trkpt><trkpt lat="43.2732867" lon="11.3559"><ele>223.0</ele><time>2026-04-30T14:04:14.336Z</time></trkpt><trkpt lat="43.2734217" lon="11.3557467"><ele>223.0</ele><time>2026-04-30T14:04:15.336Z</time></trkpt><trkpt lat="43.2735633" lon="11.3555867"><ele>222.66666666666666</ele><time>2026-04-30T14:04:16.336Z</time></trkpt><trkpt lat="43.273705" lon="11.35543"><ele>222.33333333333331</ele><time>2026-04-30T14:04:17.335Z</time></trkpt><trkpt lat="43.2738467" lon="11.3552717"><ele>222.0</ele><time>2026-04-30T14:04:18.335Z</time></trkpt><trkpt lat="43.27398" lon="11.3551083"><ele>222.0</ele><time>2026-04-30T14:04:19.336Z</time></trkpt><trkpt lat="43.2741083" lon="11.3549283"><ele>222.0</ele><time>2026-04-30T14:04:20.335Z</time></trkpt><trkpt lat="43.274235" lon="11.3547433"><ele>222.0</ele><time>2026-04-30T14:04:21.336Z</time></trkpt><trkpt lat="43.2743583" lon="11.3545717"><ele>222.0</ele><time>2026-04-30T14:04:22.335Z</time></trkpt><trkpt lat="43.2744867" lon="11.35441"><ele>222.0</ele><time>2026-04-30T14:04:23.335Z</time></trkpt><trkpt lat="43.2746317" lon="11.3542817"><ele>222.0</ele><time>2026-04-30T14:04:24.336Z</time></trkpt><trkpt lat="43.2747883" lon="11.35418"><ele>222.0</ele><time>2026-04-30T14:04:25.335Z</time></trkpt><trkpt lat="43.2749583" lon="11.35411"><ele>222.0</ele><time>2026-04-30T14:04:26.335Z</time></trkpt><trkpt lat="43.2751433" lon="11.3540583"><ele>222.0</ele><time>2026-04-30T14:04:27.336Z</time></trkpt><trkpt lat="43.2753317" lon="11.3540167"><ele>222.0</ele><time>2026-04-30T14:04:28.336Z</time></trkpt><trkpt lat="43.27552" lon="11.3539833"><ele>222.0</ele><time>2026-04-30T14:04:29.336Z</time></trkpt><trkpt lat="43.2757117" lon="11.3539433"><ele>222.0</ele><time>2026-04-30T14:04:30.336Z</time></trkpt><trkpt lat="43.2759033" lon="11.3539017"><ele>223.66666666666669</ele><time>2026-04-30T14:04:31.336Z</time></trkpt><trkpt lat="43.2761" lon="11.3538667"><ele>225.33333333333334</ele><time>2026-04-30T14:04:32.336Z</time></trkpt><trkpt lat="43.2762917" lon="11.35383"><ele>227.0</ele><time>2026-04-30T14:04:33.336Z</time></trkpt><trkpt lat="43.2764867" lon="11.3538017"><ele>228.66666666666669</ele><time>2026-04-30T14:04:34.336Z</time></trkpt><trkpt lat="43.276675" lon="11.3537683"><ele>230.33333333333331</ele><time>2026-04-30T14:04:35.336Z</time></trkpt><trkpt lat="43.2768567" lon="11.3537283"><ele>232.0</ele><time>2026-04-30T14:04:36.336Z</time></trkpt><trkpt lat="43.2770333" lon="11.3536717"><ele>232.0</ele><time>2026-04-30T14:04:37.336Z</time></trkpt><trkpt lat="43.2772017" lon="11.3536033"><ele>232.0</ele><time>2026-04-30T14:04:38.336Z</time></trkpt><trkpt lat="43.2773733" lon="11.35352"><ele>232.0</ele><time>2026-04-30T14:04:39.336Z</time></trkpt><trkpt lat="43.27755" lon="11.3534217"><ele>231.66666666666666</ele><time>2026-04-30T14:04:40.335Z</time></trkpt><trkpt lat="43.2777283" lon="11.3533117"><ele>231.33333333333331</ele><time>2026-04-30T14:04:41.336Z</time></trkpt><trkpt lat="43.277895" lon="11.3532117"><ele>231.0</ele><time>2026-04-30T14:04:42.336Z</time></trkpt><trkpt lat="43.2780533" lon="11.353115"><ele>229.66666666666669</ele><time>2026-04-30T14:04:43.336Z</time></trkpt><trkpt lat="43.2782067" lon="11.353025"><ele>228.33333333333334</ele><time>2026-04-30T14:04:44.336Z</time></trkpt><trkpt lat="43.2783583" lon="11.3529383"><ele>227.0</ele><time>2026-04-30T14:04:45.336Z</time></trkpt><trkpt lat="43.2785" lon="11.3528517"><ele>227.0</ele><time>2026-04-30T14:04:46.336Z</time></trkpt><trkpt lat="43.2786367" lon="11.3527717"><ele>227.0</ele><time>2026-04-30T14:04:47.335Z</time></trkpt><trkpt lat="43.2787867" lon="11.3527183"><ele>227.0</ele><time>2026-04-30T14:04:48.336Z</time></trkpt><trkpt lat="43.2789383" lon="11.3526867"><ele>227.0</ele><time>2026-04-30T14:04:49.336Z</time></trkpt><trkpt lat="43.2790917" lon="11.3526767"><ele>227.0</ele><time>2026-04-30T14:04:50.336Z</time></trkpt><trkpt lat="43.27925" lon="11.352675"><ele>227.0</ele><time>2026-04-30T14:04:51.335Z</time></trkpt><trkpt lat="43.2794" lon="11.3526883"><ele>227.0</ele><time>2026-04-30T14:04:52.336Z</time></trkpt><trkpt lat="43.279545" lon="11.3527133"><ele>227.0</ele><time>2026-04-30T14:04:53.336Z</time></trkpt><trkpt lat="43.2796833" lon="11.3527467"><ele>227.0</ele><time>2026-04-30T14:04:54.336Z</time></trkpt><trkpt lat="43.2798217" lon="11.35278"><ele>227.0</ele><time>2026-04-30T14:04:55.335Z</time></trkpt><trkpt lat="43.2799633" lon="11.35282"><ele>227.75</ele><time>2026-04-30T14:04:56.336Z</time></trkpt><trkpt lat="43.2801067" lon="11.3528667"><ele>228.5</ele><time>2026-04-30T14:04:57.336Z</time></trkpt><trkpt lat="43.2802483" lon="11.35291"><ele>229.25</ele><time>2026-04-30T14:04:58.336Z</time></trkpt><trkpt lat="43.280385" lon="11.3529533"><ele>230.0</ele><time>2026-04-30T14:04:59.336Z</time></trkpt><trkpt lat="43.2805217" lon="11.3530017"><ele>232.0</ele><time>2026-04-30T14:05:00.336Z</time></trkpt><trkpt lat="43.280665" lon="11.353045"><ele>234.0</ele><time>2026-04-30T14:05:01.335Z</time></trkpt><trkpt lat="43.28081" lon="11.3531017"><ele>236.0</ele><time>2026-04-30T14:05:02.335Z</time></trkpt><trkpt lat="43.28095" lon="11.3531567"><ele>238.0</ele><time>2026-04-30T14:05:03.336Z</time></trkpt><trkpt lat="43.2810917" lon="11.353205"><ele>238.0</ele><time>2026-04-30T14:05:04.336Z</time></trkpt><trkpt lat="43.2812333" lon="11.35325"><ele>238.0</ele><time>2026-04-30T14:05:05.336Z</time></trkpt><trkpt lat="43.2813933" lon="11.3532933"><ele>238.0</ele><time>2026-04-30T14:05:06.336Z</time></trkpt><trkpt lat="43.2815667" lon="11.3533317"><ele>238.0</ele><time>2026-04-30T14:05:07.336Z</time></trkpt><trkpt lat="43.2817633" lon="11.3533683"><ele>238.0</ele><time>2026-04-30T14:05:08.335Z</time></trkpt><trkpt lat="43.2819783" lon="11.353405"><ele>238.0</ele><time>2026-04-30T14:05:09.335Z</time></trkpt><trkpt lat="43.2821967" lon="11.3534583"><ele>238.0</ele><time>2026-04-30T14:05:10.335Z</time></trkpt><trkpt lat="43.2824117" lon="11.35352"><ele>238.0</ele><time>2026-04-30T14:05:11.334Z</time></trkpt><trkpt lat="43.28263" lon="11.3535817"><ele>238.0</ele><time>2026-04-30T14:05:12.335Z</time></trkpt><trkpt lat="43.2828283" lon="11.3536417"><ele>238.0</ele><time>2026-04-30T14:05:13.335Z</time></trkpt><trkpt lat="43.2830217" lon="11.353685"><ele>238.0</ele><time>2026-04-30T14:05:14.334Z</time></trkpt><trkpt lat="43.2832183" lon="11.3537117"><ele>238.0</ele><time>2026-04-30T14:05:15.334Z</time></trkpt><trkpt lat="43.2834133" lon="11.3537233"><ele>238.0</ele><time>2026-04-30T14:05:16.335Z</time></trkpt><trkpt lat="43.2836067" lon="11.3537083"><ele>238.0</ele><time>2026-04-30T14:05:17.335Z</time></trkpt><trkpt lat="43.2837883" lon="11.353665"><ele>238.0</ele><time>2026-04-30T14:05:18.335Z</time></trkpt><trkpt lat="43.2839683" lon="11.3536017"><ele>237.33333333333331</ele><time>2026-04-30T14:05:19.335Z</time></trkpt><trkpt lat="43.284125" lon="11.3535117"><ele>236.66666666666669</ele><time>2026-04-30T14:05:20.334Z</time></trkpt><trkpt lat="43.28428" lon="11.3534067"><ele>236.0</ele><time>2026-04-30T14:05:21.335Z</time></trkpt><trkpt lat="43.2844267" lon="11.353275"><ele>236.0</ele><time>2026-04-30T14:05:22.335Z</time></trkpt><trkpt lat="43.2845633" lon="11.3531183"><ele>236.0</ele><time>2026-04-30T14:05:23.335Z</time></trkpt><trkpt lat="43.2846917" lon="11.3529433"><ele>236.0</ele><time>2026-04-30T14:05:24.334Z</time></trkpt><trkpt lat="43.2848083" lon="11.3527517"><ele>235.66666666666669</ele><time>2026-04-30T14:05:25.335Z</time></trkpt><trkpt lat="43.2849083" lon="11.3525383"><ele>235.33333333333331</ele><time>2026-04-30T14:05:26.335Z</time></trkpt><trkpt lat="43.2849967" lon="11.3523117"><ele>235.0</ele><time>2026-04-30T14:05:27.334Z</time></trkpt><trkpt lat="43.28508" lon="11.3520767"><ele>235.0</ele><time>2026-04-30T14:05:28.335Z</time></trkpt><trkpt lat="43.2851533" lon="11.3518367"><ele>235.0</ele><time>2026-04-30T14:05:29.334Z</time></trkpt><trkpt lat="43.2852267" lon="11.351595"><ele>235.0</ele><time>2026-04-30T14:05:30.334Z</time></trkpt><trkpt lat="43.2853" lon="11.35136"><ele>236.0</ele><time>2026-04-30T14:05:31.335Z</time></trkpt><trkpt lat="43.285375" lon="11.3511183"><ele>237.0</ele><time>2026-04-30T14:05:32.334Z</time></trkpt><trkpt lat="43.28545" lon="11.3508783"><ele>238.0</ele><time>2026-04-30T14:05:33.335Z</time></trkpt><trkpt lat="43.2855267" lon="11.3506433"><ele>237.0</ele><time>2026-04-30T14:05:34.335Z</time></trkpt><trkpt lat="43.285605" lon="11.350405"><ele>236.0</ele><time>2026-04-30T14:05:35.335Z</time></trkpt><trkpt lat="43.2856817" lon="11.3501717"><ele>235.0</ele><time>2026-04-30T14:05:36.335Z</time></trkpt><trkpt lat="43.2857617" lon="11.349935"><ele>234.66666666666666</ele><time>2026-04-30T14:05:37.335Z</time></trkpt><trkpt lat="43.2858417" lon="11.349695"><ele>234.33333333333331</ele><time>2026-04-30T14:05:38.335Z</time></trkpt><trkpt lat="43.2859367" lon="11.3494517"><ele>234.0</ele><time>2026-04-30T14:05:39.335Z</time></trkpt><trkpt lat="43.28604" lon="11.3492333"><ele>234.0</ele><time>2026-04-30T14:05:40.335Z</time></trkpt><trkpt lat="43.2861367" lon="11.349005"><ele>234.0</ele><time>2026-04-30T14:05:41.335Z</time></trkpt><trkpt lat="43.286235" lon="11.3487767"><ele>234.0</ele><time>2026-04-30T14:05:42.335Z</time></trkpt><trkpt lat="43.2863233" lon="11.3485417"><ele>233.0</ele><time>2026-04-30T14:05:43.334Z</time></trkpt><trkpt lat="43.2864067" lon="11.348315"><ele>232.0</ele><time>2026-04-30T14:05:44.335Z</time></trkpt><trkpt lat="43.2864833" lon="11.34808"><ele>231.0</ele><time>2026-04-30T14:05:45.335Z</time></trkpt><trkpt lat="43.2865567" lon="11.347845"><ele>234.33333333333331</ele><time>2026-04-30T14:05:46.335Z</time></trkpt><trkpt lat="43.286615" lon="11.3475917"><ele>237.66666666666666</ele><time>2026-04-30T14:05:47.335Z</time></trkpt><trkpt lat="43.2866617" lon="11.3473417"><ele>241.0</ele><time>2026-04-30T14:05:48.335Z</time></trkpt><trkpt lat="43.286695" lon="11.3470933"><ele>241.0</ele><time>2026-04-30T14:05:49.335Z</time></trkpt><trkpt lat="43.2867233" lon="11.3468483"><ele>241.0</ele><time>2026-04-30T14:05:50.335Z</time></trkpt><trkpt lat="43.28674" lon="11.3466067"><ele>241.0</ele><time>2026-04-30T14:05:51.334Z</time></trkpt><trkpt lat="43.2867667" lon="11.346365"><ele>242.33333333333331</ele><time>2026-04-30T14:05:52.335Z</time></trkpt><trkpt lat="43.286805" lon="11.3461183"><ele>243.66666666666669</ele><time>2026-04-30T14:05:53.335Z</time></trkpt><trkpt lat="43.2868583" lon="11.3458783"><ele>245.0</ele><time>2026-04-30T14:05:54.335Z</time></trkpt><trkpt lat="43.2869333" lon="11.34565"><ele>244.66666666666669</ele><time>2026-04-30T14:05:55.335Z</time></trkpt><trkpt lat="43.287015" lon="11.34542"><ele>244.33333333333331</ele><time>2026-04-30T14:05:56.335Z</time></trkpt><trkpt lat="43.2871133" lon="11.3452083"><ele>244.0</ele><time>2026-04-30T14:05:57.335Z</time></trkpt><trkpt lat="43.2872333" lon="11.345005"><ele>243.33333333333331</ele><time>2026-04-30T14:05:58.334Z</time></trkpt><trkpt lat="43.2873533" lon="11.344815"><ele>242.66666666666669</ele><time>2026-04-30T14:05:59.334Z</time></trkpt><trkpt lat="43.2874833" lon="11.34464"><ele>242.0</ele><time>2026-04-30T14:06:00.334Z</time></trkpt><trkpt lat="43.2876067" lon="11.3444817"><ele>244.0</ele><time>2026-04-30T14:06:01.335Z</time></trkpt><trkpt lat="43.28774" lon="11.34434"><ele>246.0</ele><time>2026-04-30T14:06:02.335Z</time></trkpt><trkpt lat="43.2878767" lon="11.344225"><ele>248.0</ele><time>2026-04-30T14:06:03.335Z</time></trkpt><trkpt lat="43.288025" lon="11.3441433"><ele>247.0</ele><time>2026-04-30T14:06:04.335Z</time></trkpt><trkpt lat="43.288175" lon="11.3440783"><ele>246.0</ele><time>2026-04-30T14:06:05.335Z</time></trkpt><trkpt lat="43.2883283" lon="11.3440267"><ele>245.0</ele><time>2026-04-30T14:06:06.335Z</time></trkpt><trkpt lat="43.28848" lon="11.34399"><ele>245.0</ele><time>2026-04-30T14:06:07.334Z</time></trkpt><trkpt lat="43.2886267" lon="11.34396"><ele>245.0</ele><time>2026-04-30T14:06:08.334Z</time></trkpt><trkpt lat="43.2887617" lon="11.3439283"><ele>245.0</ele><time>2026-04-30T14:06:09.335Z</time></trkpt><trkpt lat="43.2888867" lon="11.3439017"><ele>245.0</ele><time>2026-04-30T14:06:10.335Z</time></trkpt><trkpt lat="43.2889983" lon="11.3438767"><ele>245.75</ele><time>2026-04-30T14:06:11.335Z</time></trkpt><trkpt lat="43.2891183" lon="11.3438517"><ele>246.5</ele><time>2026-04-30T14:06:12.335Z</time></trkpt><trkpt lat="43.2892333" lon="11.3438217"><ele>247.25</ele><time>2026-04-30T14:06:13.334Z</time></trkpt><trkpt lat="43.2893517" lon="11.3437867"><ele>248.0</ele><time>2026-04-30T14:06:14.335Z</time></trkpt><trkpt lat="43.2894733" lon="11.3437733"><ele>248.0</ele><time>2026-04-30T14:06:15.335Z</time></trkpt><trkpt lat="43.28959" lon="11.3437583"><ele>248.0</ele><time>2026-04-30T14:06:16.334Z</time></trkpt><trkpt lat="43.2897117" lon="11.34376"><ele>248.0</ele><time>2026-04-30T14:06:17.334Z</time></trkpt><trkpt lat="43.2898383" lon="11.343785"><ele>248.0</ele><time>2026-04-30T14:06:18.335Z</time></trkpt><trkpt lat="43.28996" lon="11.3438283"><ele>247.75</ele><time>2026-04-30T14:06:19.335Z</time></trkpt><trkpt lat="43.2900817" lon="11.3438617"><ele>247.5</ele><time>2026-04-30T14:06:20.335Z</time></trkpt><trkpt lat="43.2902083" lon="11.3438883"><ele>247.25</ele><time>2026-04-30T14:06:21.335Z</time></trkpt><trkpt lat="43.2903233" lon="11.3439183"><ele>247.0</ele><time>2026-04-30T14:06:22.335Z</time></trkpt><trkpt lat="43.2904183" lon="11.3439383"><ele>246.99999999999997</ele><time>2026-04-30T14:06:23.335Z</time></trkpt><trkpt lat="43.29049" lon="11.343955"><ele>247.0</ele><time>2026-04-30T14:06:24.335Z</time></trkpt><trkpt lat="43.2905883" lon="11.34397"><ele>247.0</ele><time>2026-04-30T14:06:26.335Z</time></trkpt><trkpt lat="43.2906717" lon="11.34396"><ele>247.0</ele><time>2026-04-30T14:06:29.334Z</time></trkpt><trkpt lat="43.2907567" lon="11.3439467"><ele>246.99999999999997</ele><time>2026-04-30T14:06:31.335Z</time></trkpt><trkpt lat="43.29083" lon="11.3439417"><ele>247.0</ele><time>2026-04-30T14:06:32.335Z</time></trkpt><trkpt lat="43.2909167" lon="11.3439367"><ele>246.25</ele><time>2026-04-30T14:06:33.335Z</time></trkpt><trkpt lat="43.29102" lon="11.34394"><ele>245.5</ele><time>2026-04-30T14:06:34.335Z</time></trkpt><trkpt lat="43.2911317" lon="11.3439467"><ele>244.75</ele><time>2026-04-30T14:06:35.334Z</time></trkpt><trkpt lat="43.2912583" lon="11.34394"><ele>244.0</ele><time>2026-04-30T14:06:36.335Z</time></trkpt><trkpt lat="43.2913867" lon="11.343925"><ele>244.0</ele><time>2026-04-30T14:06:37.334Z</time></trkpt><trkpt lat="43.2915217" lon="11.3439067"><ele>244.0</ele><time>2026-04-30T14:06:38.335Z</time></trkpt><trkpt lat="43.2916533" lon="11.343885"><ele>244.0</ele><time>2026-04-30T14:06:39.335Z</time></trkpt><trkpt lat="43.2917867" lon="11.3438517"><ele>244.0</ele><time>2026-04-30T14:06:40.334Z</time></trkpt><trkpt lat="43.29192" lon="11.3438183"><ele>244.0</ele><time>2026-04-30T14:06:41.335Z</time></trkpt><trkpt lat="43.2920467" lon="11.34378"><ele>244.0</ele><time>2026-04-30T14:06:42.334Z</time></trkpt><trkpt lat="43.2921733" lon="11.343745"><ele>244.0</ele><time>2026-04-30T14:06:43.335Z</time></trkpt><trkpt lat="43.2922983" lon="11.3436983"><ele>244.0</ele><time>2026-04-30T14:06:44.335Z</time></trkpt><trkpt lat="43.2924133" lon="11.3436433"><ele>244.75</ele><time>2026-04-30T14:06:45.335Z</time></trkpt><trkpt lat="43.2925283" lon="11.3435917"><ele>245.5</ele><time>2026-04-30T14:06:46.335Z</time></trkpt><trkpt lat="43.2926367" lon="11.3435417"><ele>246.25</ele><time>2026-04-30T14:06:47.335Z</time></trkpt><trkpt lat="43.2927417" lon="11.343505"><ele>247.0</ele><time>2026-04-30T14:06:48.335Z</time></trkpt><trkpt lat="43.2928467" lon="11.3434617"><ele>247.0</ele><time>2026-04-30T14:06:49.335Z</time></trkpt><trkpt lat="43.2929567" lon="11.3434217"><ele>247.0</ele><time>2026-04-30T14:06:50.335Z</time></trkpt><trkpt lat="43.293065" lon="11.3433917"><ele>247.0</ele><time>2026-04-30T14:06:51.335Z</time></trkpt><trkpt lat="43.293175" lon="11.3433567"><ele>247.0</ele><time>2026-04-30T14:06:52.335Z</time></trkpt><trkpt lat="43.293285" lon="11.3433283"><ele>247.0</ele><time>2026-04-30T14:06:53.335Z</time></trkpt><trkpt lat="43.2933983" lon="11.3433033"><ele>246.0</ele><time>2026-04-30T14:06:54.334Z</time></trkpt><trkpt lat="43.293515" lon="11.3432717"><ele>245.0</ele><time>2026-04-30T14:06:55.335Z</time></trkpt><trkpt lat="43.29363" lon="11.3432433"><ele>244.0</ele><time>2026-04-30T14:06:56.335Z</time></trkpt><trkpt lat="43.29374" lon="11.34321"><ele>243.0</ele><time>2026-04-30T14:06:57.335Z</time></trkpt><trkpt lat="43.2938467" lon="11.3431767"><ele>243.2</ele><time>2026-04-30T14:06:58.335Z</time></trkpt><trkpt lat="43.2939533" lon="11.3431517"><ele>243.4</ele><time>2026-04-30T14:06:59.335Z</time></trkpt><trkpt lat="43.29405" lon="11.3431217"><ele>243.59999999999997</ele><time>2026-04-30T14:07:00.334Z</time></trkpt><trkpt lat="43.2941467" lon="11.3430933"><ele>243.79999999999998</ele><time>2026-04-30T14:07:01.335Z</time></trkpt><trkpt lat="43.2942333" lon="11.3430533"><ele>244.0</ele><time>2026-04-30T14:07:02.335Z</time></trkpt><trkpt lat="43.2943133" lon="11.34302"><ele>243.39999999999998</ele><time>2026-04-30T14:07:03.335Z</time></trkpt><trkpt lat="43.294385" lon="11.342985"><ele>242.79999999999998</ele><time>2026-04-30T14:07:04.334Z</time></trkpt><trkpt lat="43.2944533" lon="11.3429567"><ele>242.20000000000002</ele><time>2026-04-30T14:07:05.335Z</time></trkpt><trkpt lat="43.294555" lon="11.3429083"><ele>241.60000000000002</ele><time>2026-04-30T14:07:07.335Z</time></trkpt><trkpt lat="43.2946417" lon="11.342855"><ele>241.0</ele><time>2026-04-30T14:07:09.334Z</time></trkpt><trkpt lat="43.2947483" lon="11.3427983"><ele>241.57142857142858</ele><time>2026-04-30T14:07:11.335Z</time></trkpt><trkpt lat="43.29481" lon="11.3427717"><ele>242.14285714285717</ele><time>2026-04-30T14:07:12.335Z</time></trkpt><trkpt lat="43.2948767" lon="11.342735"><ele>242.71428571428572</ele><time>2026-04-30T14:07:13.334Z</time></trkpt><trkpt lat="43.294945" lon="11.34269"><ele>243.28571428571428</ele><time>2026-04-30T14:07:14.335Z</time></trkpt><trkpt lat="43.2950183" lon="11.342645"><ele>243.85714285714286</ele><time>2026-04-30T14:07:15.334Z</time></trkpt><trkpt lat="43.2950867" lon="11.3426033"><ele>244.42857142857144</ele><time>2026-04-30T14:07:16.334Z</time></trkpt><trkpt lat="43.2951467" lon="11.34256"><ele>245.0</ele><time>2026-04-30T14:07:17.334Z</time></trkpt><trkpt lat="43.29521" lon="11.34251"><ele>245.00000000000003</ele><time>2026-04-30T14:07:18.335Z</time></trkpt><trkpt lat="43.2952833" lon="11.3424517"><ele>245.0</ele><time>2026-04-30T14:07:19.334Z</time></trkpt><trkpt lat="43.2953567" lon="11.34239"><ele>245.0</ele><time>2026-04-30T14:07:20.335Z</time></trkpt><trkpt lat="43.2954417" lon="11.3423233"><ele>245.0</ele><time>2026-04-30T14:07:21.335Z</time></trkpt><trkpt lat="43.2955167" lon="11.342255"><ele>245.00000000000003</ele><time>2026-04-30T14:07:22.334Z</time></trkpt><trkpt lat="43.2955883" lon="11.3421817"><ele>245.0</ele><time>2026-04-30T14:07:23.334Z</time></trkpt><trkpt lat="43.2956617" lon="11.3421067"><ele>245.00000000000003</ele><time>2026-04-30T14:07:24.335Z</time></trkpt><trkpt lat="43.295725" lon="11.3420217"><ele>245.0</ele><time>2026-04-30T14:07:25.335Z</time></trkpt><trkpt lat="43.2957767" lon="11.341945"><ele>245.0</ele><time>2026-04-30T14:07:26.335Z</time></trkpt><trkpt lat="43.29585" lon="11.341825"><ele>245.0</ele><time>2026-04-30T14:07:28.334Z</time></trkpt><trkpt lat="43.2958917" lon="11.3417233"><ele>245.00000000000003</ele><time>2026-04-30T14:07:30.335Z</time></trkpt><trkpt lat="43.2959167" lon="11.34162"><ele>245.0</ele><time>2026-04-30T14:07:32.335Z</time></trkpt><trkpt lat="43.295895" lon="11.341515"><ele>245.0</ele><time>2026-04-30T14:07:34.335Z</time></trkpt><trkpt lat="43.29581" lon="11.341445"><ele>245.0</ele><time>2026-04-30T14:07:36.335Z</time></trkpt><trkpt lat="43.29574" lon="11.3414283"><ele>245.0</ele><time>2026-04-30T14:07:37.335Z</time></trkpt><trkpt lat="43.2956483" lon="11.3414133"><ele>245.0</ele><time>2026-04-30T14:07:38.334Z</time></trkpt><trkpt lat="43.2955433" lon="11.3413867"><ele>245.0</ele><time>2026-04-30T14:07:39.334Z</time></trkpt><trkpt lat="43.2954417" lon="11.3413517"><ele>243.2</ele><time>2026-04-30T14:07:40.335Z</time></trkpt><trkpt lat="43.2953467" lon="11.3413067"><ele>241.4</ele><time>2026-04-30T14:07:41.335Z</time></trkpt><trkpt lat="43.295255" lon="11.34126"><ele>239.60000000000002</ele><time>2026-04-30T14:07:42.335Z</time></trkpt><trkpt lat="43.2951733" lon="11.3411867"><ele>237.8</ele><time>2026-04-30T14:07:43.334Z</time></trkpt><trkpt lat="43.29511" lon="11.3410983"><ele>236.0</ele><time>2026-04-30T14:07:44.335Z</time></trkpt><trkpt lat="43.295065" lon="11.3409933"><ele>236.0</ele><time>2026-04-30T14:07:45.334Z</time></trkpt><trkpt lat="43.2950333" lon="11.3408733"><ele>236.00000000000003</ele><time>2026-04-30T14:07:46.335Z</time></trkpt><trkpt lat="43.295025" lon="11.3407467"><ele>236.00000000000003</ele><time>2026-04-30T14:07:47.335Z</time></trkpt><trkpt lat="43.2950267" lon="11.3406167"><ele>236.0</ele><time>2026-04-30T14:07:48.334Z</time></trkpt><trkpt lat="43.2950333" lon="11.3405"><ele>236.0</ele><time>2026-04-30T14:07:49.335Z</time></trkpt><trkpt lat="43.29504" lon="11.3403733"><ele>235.33333333333334</ele><time>2026-04-30T14:07:50.335Z</time></trkpt><trkpt lat="43.295045" lon="11.34026"><ele>234.66666666666669</ele><time>2026-04-30T14:07:51.335Z</time></trkpt><trkpt lat="43.2950567" lon="11.340155"><ele>234.0</ele><time>2026-04-30T14:07:52.335Z</time></trkpt><trkpt lat="43.2950733" lon="11.340045"><ele>233.33333333333331</ele><time>2026-04-30T14:07:53.335Z</time></trkpt><trkpt lat="43.295095" lon="11.3399383"><ele>232.66666666666666</ele><time>2026-04-30T14:07:54.335Z</time></trkpt><trkpt lat="43.2951167" lon="11.3398167"><ele>232.0</ele><time>2026-04-30T14:07:55.334Z</time></trkpt><trkpt lat="43.2951467" lon="11.3396983"><ele>230.0</ele><time>2026-04-30T14:07:56.335Z</time></trkpt><trkpt lat="43.295185" lon="11.33958"><ele>228.0</ele><time>2026-04-30T14:07:57.334Z</time></trkpt><trkpt lat="43.29523" lon="11.3394633"><ele>226.0</ele><time>2026-04-30T14:07:58.334Z</time></trkpt><trkpt lat="43.29527" lon="11.3393483"><ele>224.0</ele><time>2026-04-30T14:07:59.335Z</time></trkpt><trkpt lat="43.2953117" lon="11.339245"><ele>222.0</ele><time>2026-04-30T14:08:00.334Z</time></trkpt><trkpt lat="43.295355" lon="11.3391433"><ele>222.0</ele><time>2026-04-30T14:08:01.335Z</time></trkpt><trkpt lat="43.2954017" lon="11.339045"><ele>222.0</ele><time>2026-04-30T14:08:02.334Z</time></trkpt><trkpt lat="43.29546" lon="11.3389467"><ele>222.0</ele><time>2026-04-30T14:08:03.334Z</time></trkpt><trkpt lat="43.2955317" lon="11.3388633"><ele>222.0</ele><time>2026-04-30T14:08:04.335Z</time></trkpt><trkpt lat="43.2956117" lon="11.3387817"><ele>222.0</ele><time>2026-04-30T14:08:05.334Z</time></trkpt><trkpt lat="43.29569" lon="11.33871"><ele>222.33333333333334</ele><time>2026-04-30T14:08:06.334Z</time></trkpt><trkpt lat="43.2957667" lon="11.3386417"><ele>222.66666666666669</ele><time>2026-04-30T14:08:07.335Z</time></trkpt><trkpt lat="43.2958467" lon="11.3385933"><ele>223.0</ele><time>2026-04-30T14:08:08.335Z</time></trkpt><trkpt lat="43.29593" lon="11.338565"><ele>223.33333333333334</ele><time>2026-04-30T14:08:09.335Z</time></trkpt><trkpt lat="43.29602" lon="11.3385683"><ele>223.66666666666669</ele><time>2026-04-30T14:08:10.335Z</time></trkpt><trkpt lat="43.2961017" lon="11.338575"><ele>224.0</ele><time>2026-04-30T14:08:11.335Z</time></trkpt><trkpt lat="43.296175" lon="11.3385817"><ele>224.0</ele><time>2026-04-30T14:08:12.335Z</time></trkpt><trkpt lat="43.2962417" lon="11.3385817"><ele>224.0</ele><time>2026-04-30T14:08:13.335Z</time></trkpt><trkpt lat="43.29631" lon="11.338565"><ele>224.0</ele><time>2026-04-30T14:08:14.334Z</time></trkpt><trkpt lat="43.2963783" lon="11.33853"><ele>224.0</ele><time>2026-04-30T14:08:15.335Z</time></trkpt><trkpt lat="43.2964333" lon="11.33848"><ele>224.0</ele><time>2026-04-30T14:08:16.335Z</time></trkpt><trkpt lat="43.296485" lon="11.33841"><ele>224.0</ele><time>2026-04-30T14:08:17.335Z</time></trkpt><trkpt lat="43.2965183" lon="11.3383233"><ele>224.0</ele><time>2026-04-30T14:08:18.334Z</time></trkpt><trkpt lat="43.296535" lon="11.3382283"><ele>224.39999999999998</ele><time>2026-04-30T14:08:19.335Z</time></trkpt><trkpt lat="43.2965417" lon="11.3381217"><ele>224.79999999999998</ele><time>2026-04-30T14:08:20.335Z</time></trkpt><trkpt lat="43.2965333" lon="11.3380117"><ele>225.20000000000002</ele><time>2026-04-30T14:08:21.335Z</time></trkpt><trkpt lat="43.296505" lon="11.3379017"><ele>225.60000000000002</ele><time>2026-04-30T14:08:22.335Z</time></trkpt><trkpt lat="43.2964333" lon="11.3378033"><ele>226.0</ele><time>2026-04-30T14:08:23.335Z</time></trkpt><trkpt lat="43.2963367" lon="11.3377167"><ele>224.60000000000002</ele><time>2026-04-30T14:08:24.335Z</time></trkpt><trkpt lat="43.2962367" lon="11.3376317"><ele>223.20000000000002</ele><time>2026-04-30T14:08:25.335Z</time></trkpt><trkpt lat="43.296135" lon="11.3375533"><ele>221.79999999999998</ele><time>2026-04-30T14:08:26.335Z</time></trkpt><trkpt lat="43.2960433" lon="11.33749"><ele>220.39999999999998</ele><time>2026-04-30T14:08:27.334Z</time></trkpt><trkpt lat="43.2959567" lon="11.337415"><ele>219.0</ele><time>2026-04-30T14:08:28.334Z</time></trkpt><trkpt lat="43.2958717" lon="11.337335"><ele>219.0</ele><time>2026-04-30T14:08:29.334Z</time></trkpt><trkpt lat="43.2957867" lon="11.3372617"><ele>218.99999999999997</ele><time>2026-04-30T14:08:30.335Z</time></trkpt><trkpt lat="43.2956967" lon="11.33718"><ele>218.99999999999997</ele><time>2026-04-30T14:08:31.335Z</time></trkpt><trkpt lat="43.2956067" lon="11.3370917"><ele>219.0</ele><time>2026-04-30T14:08:32.335Z</time></trkpt><trkpt lat="43.295525" lon="11.3369867"><ele>219.0</ele><time>2026-04-30T14:08:33.335Z</time></trkpt><trkpt lat="43.2954567" lon="11.336875"><ele>217.79999999999998</ele><time>2026-04-30T14:08:34.335Z</time></trkpt><trkpt lat="43.295395" lon="11.336755"><ele>216.59999999999997</ele><time>2026-04-30T14:08:35.335Z</time></trkpt><trkpt lat="43.2953467" lon="11.3366233"><ele>215.4</ele><time>2026-04-30T14:08:36.335Z</time></trkpt><trkpt lat="43.2953133" lon="11.3364767"><ele>214.2</ele><time>2026-04-30T14:08:37.335Z</time></trkpt><trkpt lat="43.2952883" lon="11.33633"><ele>213.0</ele><time>2026-04-30T14:08:38.335Z</time></trkpt><trkpt lat="43.29527" lon="11.3361933"><ele>212.8</ele><time>2026-04-30T14:08:39.335Z</time></trkpt><trkpt lat="43.2952717" lon="11.3360517"><ele>212.60000000000002</ele><time>2026-04-30T14:08:40.334Z</time></trkpt><trkpt lat="43.2953133" lon="11.33591"><ele>212.39999999999998</ele><time>2026-04-30T14:08:41.335Z</time></trkpt><trkpt lat="43.2953567" lon="11.33577"><ele>212.2</ele><time>2026-04-30T14:08:42.335Z</time></trkpt><trkpt lat="43.2954167" lon="11.33565"><ele>212.0</ele><time>2026-04-30T14:08:43.335Z</time></trkpt><trkpt lat="43.2954867" lon="11.335525"><ele>212.00000000000003</ele><time>2026-04-30T14:08:44.335Z</time></trkpt><trkpt lat="43.295555" lon="11.3354233"><ele>212.0</ele><time>2026-04-30T14:08:45.334Z</time></trkpt><trkpt lat="43.29561" lon="11.33534"><ele>212.0</ele><time>2026-04-30T14:08:46.335Z</time></trkpt><trkpt lat="43.2956667" lon="11.33525"><ele>212.0</ele><time>2026-04-30T14:08:47.335Z</time></trkpt><trkpt lat="43.295725" lon="11.33517"><ele>212.00000000000003</ele><time>2026-04-30T14:08:48.335Z</time></trkpt><trkpt lat="43.2957867" lon="11.335085"><ele>212.0</ele><time>2026-04-30T14:08:49.335Z</time></trkpt><trkpt lat="43.2958383" lon="11.3350083"><ele>212.16666666666669</ele><time>2026-04-30T14:08:50.335Z</time></trkpt><trkpt lat="43.2958833" lon="11.3349333"><ele>212.33333333333334</ele><time>2026-04-30T14:08:51.335Z</time></trkpt><trkpt lat="43.295925" lon="11.3348567"><ele>212.5</ele><time>2026-04-30T14:08:52.335Z</time></trkpt><trkpt lat="43.2959617" lon="11.334785"><ele>212.66666666666669</ele><time>2026-04-30T14:08:53.335Z</time></trkpt><trkpt lat="43.2959983" lon="11.3347133"><ele>212.83333333333334</ele><time>2026-04-30T14:08:54.335Z</time></trkpt><trkpt lat="43.29607" lon="11.3346133"><ele>213.0</ele><time>2026-04-30T14:08:56.335Z</time></trkpt><trkpt lat="43.2961317" lon="11.3345217"><ele>213.0</ele><time>2026-04-30T14:08:58.335Z</time></trkpt><trkpt lat="43.2961983" lon="11.3344083"><ele>213.0</ele><time>2026-04-30T14:09:00.335Z</time></trkpt><trkpt lat="43.2962417" lon="11.3343417"><ele>213.0</ele><time>2026-04-30T14:09:01.335Z</time></trkpt><trkpt lat="43.2963133" lon="11.3342567"><ele>213.0</ele><time>2026-04-30T14:09:03.335Z</time></trkpt><trkpt lat="43.2963733" lon="11.3341967"><ele>213.0</ele><time>2026-04-30T14:09:05.335Z</time></trkpt><trkpt lat="43.2964583" lon="11.3341217"><ele>213.0</ele><time>2026-04-30T14:09:07.335Z</time></trkpt><trkpt lat="43.2964967" lon="11.3339867"><ele>213.8</ele><time>2026-04-30T14:09:09.335Z</time></trkpt><trkpt lat="43.2964867" lon="11.3338183"><ele>214.60000000000002</ele><time>2026-04-30T14:09:11.335Z</time></trkpt><trkpt lat="43.2964917" lon="11.3337217"><ele>215.39999999999998</ele><time>2026-04-30T14:09:12.335Z</time></trkpt><trkpt lat="43.296515" lon="11.3336067"><ele>216.2</ele><time>2026-04-30T14:09:13.335Z</time></trkpt><trkpt lat="43.29655" lon="11.3334783"><ele>217.0</ele><time>2026-04-30T14:09:14.335Z</time></trkpt><trkpt lat="43.29659" lon="11.333355"><ele>217.0</ele><time>2026-04-30T14:09:15.335Z</time></trkpt><trkpt lat="43.296635" lon="11.3332467"><ele>217.0</ele><time>2026-04-30T14:09:16.335Z</time></trkpt><trkpt lat="43.2966917" lon="11.3331383"><ele>217.0</ele><time>2026-04-30T14:09:17.335Z</time></trkpt><trkpt lat="43.2967467" lon="11.3330317"><ele>217.0</ele><time>2026-04-30T14:09:18.335Z</time></trkpt><trkpt lat="43.2968117" lon="11.3329467"><ele>217.0</ele><time>2026-04-30T14:09:19.335Z</time></trkpt><trkpt lat="43.2968867" lon="11.33286"><ele>217.25</ele><time>2026-04-30T14:09:20.335Z</time></trkpt><trkpt lat="43.29698" lon="11.3327783"><ele>217.5</ele><time>2026-04-30T14:09:21.334Z</time></trkpt><trkpt lat="43.2970817" lon="11.332705"><ele>217.75</ele><time>2026-04-30T14:09:22.335Z</time></trkpt><trkpt lat="43.2971833" lon="11.3326467"><ele>218.0</ele><time>2026-04-30T14:09:23.335Z</time></trkpt><trkpt lat="43.2972917" lon="11.3325967"><ele>219.75</ele><time>2026-04-30T14:09:24.335Z</time></trkpt><trkpt lat="43.2973967" lon="11.332555"><ele>221.5</ele><time>2026-04-30T14:09:25.335Z</time></trkpt><trkpt lat="43.2974967" lon="11.332495"><ele>223.25</ele><time>2026-04-30T14:09:26.335Z</time></trkpt><trkpt lat="43.2976" lon="11.3324167"><ele>225.0</ele><time>2026-04-30T14:09:27.335Z</time></trkpt><trkpt lat="43.297685" lon="11.3323117"><ele>224.0</ele><time>2026-04-30T14:09:28.334Z</time></trkpt><trkpt lat="43.2977733" lon="11.3322033"><ele>223.0</ele><time>2026-04-30T14:09:29.334Z</time></trkpt><trkpt lat="43.2978467" lon="11.33208"><ele>222.0</ele><time>2026-04-30T14:09:30.335Z</time></trkpt><trkpt lat="43.297905" lon="11.3319483"><ele>221.0</ele><time>2026-04-30T14:09:31.334Z</time></trkpt><trkpt lat="43.2979483" lon="11.331815"><ele>221.0</ele><time>2026-04-30T14:09:32.334Z</time></trkpt><trkpt lat="43.2979933" lon="11.33167"><ele>221.00000000000003</ele><time>2026-04-30T14:09:33.335Z</time></trkpt><trkpt lat="43.2980433" lon="11.3315367"><ele>221.00000000000003</ele><time>2026-04-30T14:09:34.334Z</time></trkpt><trkpt lat="43.2980933" lon="11.3314067"><ele>221.0</ele><time>2026-04-30T14:09:35.335Z</time></trkpt><trkpt lat="43.2981617" lon="11.3312817"><ele>221.0</ele><time>2026-04-30T14:09:36.335Z</time></trkpt><trkpt lat="43.2982283" lon="11.3311583"><ele>222.20000000000002</ele><time>2026-04-30T14:09:37.335Z</time></trkpt><trkpt lat="43.2983" lon="11.3310417"><ele>223.40000000000003</ele><time>2026-04-30T14:09:38.334Z</time></trkpt><trkpt lat="43.298375" lon="11.3309217"><ele>224.6</ele><time>2026-04-30T14:09:39.335Z</time></trkpt><trkpt lat="43.2984517" lon="11.3308133"><ele>225.8</ele><time>2026-04-30T14:09:40.335Z</time></trkpt><trkpt lat="43.29853" lon="11.3307067"><ele>227.0</ele><time>2026-04-30T14:09:41.335Z</time></trkpt><trkpt lat="43.2986117" lon="11.330605"><ele>227.0</ele><time>2026-04-30T14:09:42.335Z</time></trkpt><trkpt lat="43.2986933" lon="11.3305067"><ele>227.0</ele><time>2026-04-30T14:09:43.335Z</time></trkpt><trkpt lat="43.2987783" lon="11.3304083"><ele>227.0</ele><time>2026-04-30T14:09:44.334Z</time></trkpt><trkpt lat="43.2988667" lon="11.3303117"><ele>227.0</ele><time>2026-04-30T14:09:45.335Z</time></trkpt><trkpt lat="43.2989533" lon="11.3302133"><ele>227.0</ele><time>2026-04-30T14:09:46.334Z</time></trkpt><trkpt lat="43.2990383" lon="11.3301117"><ele>227.0</ele><time>2026-04-30T14:09:47.335Z</time></trkpt><trkpt lat="43.2991183" lon="11.3300133"><ele>227.0</ele><time>2026-04-30T14:09:48.334Z</time></trkpt><trkpt lat="43.2991817" lon="11.32991"><ele>227.0</ele><time>2026-04-30T14:09:49.334Z</time></trkpt><trkpt lat="43.2992317" lon="11.3298167"><ele>227.0</ele><time>2026-04-30T14:09:50.334Z</time></trkpt><trkpt lat="43.2992667" lon="11.32974"><ele>227.0</ele><time>2026-04-30T14:09:51.335Z</time></trkpt><trkpt lat="43.2993167" lon="11.3296"><ele>226.6</ele><time>2026-04-30T14:09:53.335Z</time></trkpt><trkpt lat="43.2993567" lon="11.3294833"><ele>226.2</ele><time>2026-04-30T14:09:55.335Z</time></trkpt><trkpt lat="43.2993967" lon="11.329375"><ele>225.8</ele><time>2026-04-30T14:09:57.334Z</time></trkpt><trkpt lat="43.2994217" lon="11.3292867"><ele>225.4</ele><time>2026-04-30T14:09:59.334Z</time></trkpt><trkpt lat="43.2994567" lon="11.329195"><ele>225.0</ele><time>2026-04-30T14:10:08.335Z</time></trkpt><trkpt lat="43.2995067" lon="11.32903"><ele>225.0</ele><time>2026-04-30T14:10:10.334Z</time></trkpt><trkpt lat="43.2995367" lon="11.3289317"><ele>225.0</ele><time>2026-04-30T14:10:11.335Z</time></trkpt><trkpt lat="43.2995717" lon="11.3288183"><ele>225.0</ele><time>2026-04-30T14:10:12.334Z</time></trkpt><trkpt lat="43.29961" lon="11.3286967"><ele>225.0</ele><time>2026-04-30T14:10:13.335Z</time></trkpt><trkpt lat="43.2996517" lon="11.32858"><ele>225.0</ele><time>2026-04-30T14:10:14.335Z</time></trkpt><trkpt lat="43.2996917" lon="11.3284633"><ele>225.16666666666666</ele><time>2026-04-30T14:10:15.335Z</time></trkpt><trkpt lat="43.299735" lon="11.3283533"><ele>225.33333333333331</ele><time>2026-04-30T14:10:16.335Z</time></trkpt><trkpt lat="43.2997717" lon="11.3282467"><ele>225.5</ele><time>2026-04-30T14:10:17.335Z</time></trkpt><trkpt lat="43.2998117" lon="11.3281467"><ele>225.66666666666666</ele><time>2026-04-30T14:10:18.335Z</time></trkpt><trkpt lat="43.2998517" lon="11.328055"><ele>225.83333333333331</ele><time>2026-04-30T14:10:19.335Z</time></trkpt><trkpt lat="43.29989" lon="11.327975"><ele>226.0</ele><time>2026-04-30T14:10:20.335Z</time></trkpt><trkpt lat="43.2999383" lon="11.3278417"><ele>225.49999999999997</ele><time>2026-04-30T14:10:22.334Z</time></trkpt><trkpt lat="43.2999967" lon="11.327735"><ele>225.0</ele><time>2026-04-30T14:10:24.335Z</time></trkpt><trkpt lat="43.3000867" lon="11.3276383"><ele>224.5</ele><time>2026-04-30T14:10:26.335Z</time></trkpt><trkpt lat="43.3001467" lon="11.327595"><ele>224.0</ele><time>2026-04-30T14:10:27.335Z</time></trkpt><trkpt lat="43.300205" lon="11.3275417"><ele>223.49999999999997</ele><time>2026-04-30T14:10:28.335Z</time></trkpt><trkpt lat="43.3002633" lon="11.32747"><ele>223.0</ele><time>2026-04-30T14:10:29.334Z</time></trkpt><trkpt lat="43.3003083" lon="11.3273833"><ele>223.0</ele><time>2026-04-30T14:10:30.335Z</time></trkpt><trkpt lat="43.3003417" lon="11.3272633"><ele>223.0</ele><time>2026-04-30T14:10:31.335Z</time></trkpt><trkpt lat="43.3003767" lon="11.3271383"><ele>223.0</ele><time>2026-04-30T14:10:32.335Z</time></trkpt><trkpt lat="43.300415" lon="11.3270033"><ele>223.0</ele><time>2026-04-30T14:10:33.335Z</time></trkpt><trkpt lat="43.3004683" lon="11.3268717"><ele>223.0</ele><time>2026-04-30T14:10:34.335Z</time></trkpt><trkpt lat="43.3005267" lon="11.3267367"><ele>223.60000000000002</ele><time>2026-04-30T14:10:35.335Z</time></trkpt><trkpt lat="43.3005867" lon="11.3265983"><ele>224.20000000000002</ele><time>2026-04-30T14:10:36.335Z</time></trkpt><trkpt lat="43.30065" lon="11.3264667"><ele>224.8</ele><time>2026-04-30T14:10:37.335Z</time></trkpt><trkpt lat="43.3007083" lon="11.3263367"><ele>225.4</ele><time>2026-04-30T14:10:38.335Z</time></trkpt><trkpt lat="43.30077" lon="11.326235"><ele>226.0</ele><time>2026-04-30T14:10:39.334Z</time></trkpt><trkpt lat="43.3008367" lon="11.3261533"><ele>226.0</ele><time>2026-04-30T14:10:40.334Z</time></trkpt><trkpt lat="43.3009033" lon="11.3261"><ele>226.00000000000003</ele><time>2026-04-30T14:10:41.335Z</time></trkpt><trkpt lat="43.300965" lon="11.32606"><ele>226.00000000000003</ele><time>2026-04-30T14:10:42.334Z</time></trkpt><trkpt lat="43.3010433" lon="11.3259533"><ele>226.0</ele><time>2026-04-30T14:10:44.335Z</time></trkpt><trkpt lat="43.3010533" lon="11.3258017"><ele>226.0</ele><time>2026-04-30T14:10:46.335Z</time></trkpt><trkpt lat="43.3009883" lon="11.3256833"><ele>226.0</ele><time>2026-04-30T14:10:48.335Z</time></trkpt><trkpt lat="43.3008717" lon="11.325695"><ele>226.00000000000003</ele><time>2026-04-30T14:10:50.335Z</time></trkpt><trkpt lat="43.3008133" lon="11.3257483"><ele>226.00000000000003</ele><time>2026-04-30T14:10:51.335Z</time></trkpt><trkpt lat="43.30075" lon="11.325835"><ele>226.0</ele><time>2026-04-30T14:10:52.335Z</time></trkpt><trkpt lat="43.3006883" lon="11.3259233"><ele>226.0</ele><time>2026-04-30T14:10:53.335Z</time></trkpt><trkpt lat="43.3006133" lon="11.3259833"><ele>225.16666666666666</ele><time>2026-04-30T14:10:54.334Z</time></trkpt><trkpt lat="43.3005267" lon="11.32601"><ele>224.33333333333331</ele><time>2026-04-30T14:10:55.335Z</time></trkpt><trkpt lat="43.30045" lon="11.3259917"><ele>223.5</ele><time>2026-04-30T14:10:56.335Z</time></trkpt><trkpt lat="43.300385" lon="11.3259317"><ele>222.66666666666669</ele><time>2026-04-30T14:10:57.335Z</time></trkpt><trkpt lat="43.300335" lon="11.3258483"><ele>221.83333333333334</ele><time>2026-04-30T14:10:58.335Z</time></trkpt><trkpt lat="43.3003067" lon="11.3257433"><ele>221.0</ele><time>2026-04-30T14:10:59.335Z</time></trkpt><trkpt lat="43.3003067" lon="11.32563"><ele>221.25</ele><time>2026-04-30T14:11:00.335Z</time></trkpt><trkpt lat="43.3003317" lon="11.3255183"><ele>221.5</ele><time>2026-04-30T14:11:01.335Z</time></trkpt><trkpt lat="43.30039" lon="11.3254"><ele>221.75</ele><time>2026-04-30T14:11:02.334Z</time></trkpt><trkpt lat="43.3004667" lon="11.3252717"><ele>222.0</ele><time>2026-04-30T14:11:03.335Z</time></trkpt><trkpt lat="43.30056" lon="11.3251133"><ele>222.66666666666669</ele><time>2026-04-30T14:11:04.334Z</time></trkpt><trkpt lat="43.3006533" lon="11.3249433"><ele>223.33333333333334</ele><time>2026-04-30T14:11:05.335Z</time></trkpt><trkpt lat="43.300745" lon="11.3247733"><ele>224.0</ele><time>2026-04-30T14:11:06.335Z</time></trkpt><trkpt lat="43.3008433" lon="11.324595"><ele>224.0</ele><time>2026-04-30T14:11:07.335Z</time></trkpt><trkpt lat="43.3009567" lon="11.3244083"><ele>224.0</ele><time>2026-04-30T14:11:08.335Z</time></trkpt><trkpt lat="43.3010733" lon="11.3242117"><ele>224.0</ele><time>2026-04-30T14:11:09.335Z</time></trkpt><trkpt lat="43.3011933" lon="11.3240083"><ele>223.33333333333334</ele><time>2026-04-30T14:11:10.335Z</time></trkpt><trkpt lat="43.301315" lon="11.3238033"><ele>222.66666666666669</ele><time>2026-04-30T14:11:11.335Z</time></trkpt><trkpt lat="43.3014433" lon="11.32359"><ele>222.0</ele><time>2026-04-30T14:11:12.335Z</time></trkpt><trkpt lat="43.3015867" lon="11.323375"><ele>222.0</ele><time>2026-04-30T14:11:13.334Z</time></trkpt><trkpt lat="43.30173" lon="11.323155"><ele>222.0</ele><time>2026-04-30T14:11:14.335Z</time></trkpt><trkpt lat="43.3018667" lon="11.3229267"><ele>222.0</ele><time>2026-04-30T14:11:15.334Z</time></trkpt><trkpt lat="43.3020083" lon="11.3227"><ele>222.66666666666669</ele><time>2026-04-30T14:11:16.335Z</time></trkpt><trkpt lat="43.3021633" lon="11.3224783"><ele>223.33333333333334</ele><time>2026-04-30T14:11:17.335Z</time></trkpt><trkpt lat="43.3023117" lon="11.3222467"><ele>224.0</ele><time>2026-04-30T14:11:18.334Z</time></trkpt><trkpt lat="43.30246" lon="11.3220167"><ele>226.0</ele><time>2026-04-30T14:11:19.335Z</time></trkpt><trkpt lat="43.302615" lon="11.32178"><ele>228.0</ele><time>2026-04-30T14:11:20.335Z</time></trkpt><trkpt lat="43.3027717" lon="11.3215433"><ele>227.0</ele><time>2026-04-30T14:11:21.334Z</time></trkpt><trkpt lat="43.3029333" lon="11.3213067"><ele>226.0</ele><time>2026-04-30T14:11:22.335Z</time></trkpt><trkpt lat="43.3030917" lon="11.3210717"><ele>226.0</ele><time>2026-04-30T14:11:23.334Z</time></trkpt><trkpt lat="43.30325" lon="11.32083"><ele>226.0</ele><time>2026-04-30T14:11:24.334Z</time></trkpt><trkpt lat="43.30341" lon="11.3205833"><ele>229.5</ele><time>2026-04-30T14:11:25.335Z</time></trkpt><trkpt lat="43.3035717" lon="11.32034"><ele>233.0</ele><time>2026-04-30T14:11:26.335Z</time></trkpt><trkpt lat="43.3037367" lon="11.3200967"><ele>233.0</ele><time>2026-04-30T14:11:27.334Z</time></trkpt><trkpt lat="43.303905" lon="11.3198533"><ele>233.0</ele><time>2026-04-30T14:11:28.334Z</time></trkpt><trkpt lat="43.30407" lon="11.3196033"><ele>230.0</ele><time>2026-04-30T14:11:29.334Z</time></trkpt><trkpt lat="43.3042317" lon="11.3193533"><ele>227.0</ele><time>2026-04-30T14:11:30.335Z</time></trkpt><trkpt lat="43.3043983" lon="11.319105"><ele>229.0</ele><time>2026-04-30T14:11:31.335Z</time></trkpt><trkpt lat="43.3045667" lon="11.3188517"><ele>231.0</ele><time>2026-04-30T14:11:32.335Z</time></trkpt><trkpt lat="43.3047267" lon="11.3185983"><ele>228.0</ele><time>2026-04-30T14:11:33.335Z</time></trkpt><trkpt lat="43.30489" lon="11.3183433"><ele>225.0</ele><time>2026-04-30T14:11:34.334Z</time></trkpt><trkpt lat="43.3050617" lon="11.318085"><ele>226.0</ele><time>2026-04-30T14:11:35.335Z</time></trkpt><trkpt lat="43.3052317" lon="11.31783"><ele>227.0</ele><time>2026-04-30T14:11:36.335Z</time></trkpt><trkpt lat="43.305405" lon="11.3175717"><ele>227.0</ele><time>2026-04-30T14:11:37.334Z</time></trkpt><trkpt lat="43.3055767" lon="11.3173133"><ele>227.0</ele><time>2026-04-30T14:11:38.335Z</time></trkpt><trkpt lat="43.305745" lon="11.3170583"><ele>230.5</ele><time>2026-04-30T14:11:39.335Z</time></trkpt><trkpt lat="43.3059183" lon="11.3168067"><ele>234.0</ele><time>2026-04-30T14:11:40.334Z</time></trkpt><trkpt lat="43.3060933" lon="11.3165567"><ele>233.5</ele><time>2026-04-30T14:11:41.334Z</time></trkpt><trkpt lat="43.3062717" lon="11.316315"><ele>233.0</ele><time>2026-04-30T14:11:42.334Z</time></trkpt><trkpt lat="43.306455" lon="11.3160733"><ele>233.0</ele><time>2026-04-30T14:11:43.334Z</time></trkpt><trkpt lat="43.3066383" lon="11.3158367"><ele>233.0</ele><time>2026-04-30T14:11:44.334Z</time></trkpt><trkpt lat="43.3068283" lon="11.31561"><ele>234.0</ele><time>2026-04-30T14:11:45.334Z</time></trkpt><trkpt lat="43.30702" lon="11.315385"><ele>235.0</ele><time>2026-04-30T14:11:46.334Z</time></trkpt><trkpt lat="43.307215" lon="11.315145"><ele>233.5</ele><time>2026-04-30T14:11:47.333Z</time></trkpt><trkpt lat="43.307425" lon="11.3149233"><ele>232.0</ele><time>2026-04-30T14:11:48.334Z</time></trkpt><trkpt lat="43.307645" lon="11.3147083"><ele>232.0</ele><time>2026-04-30T14:11:49.334Z</time></trkpt><trkpt lat="43.30787" lon="11.3144983"><ele>232.0</ele><time>2026-04-30T14:11:50.334Z</time></trkpt><trkpt lat="43.308105" lon="11.3142983"><ele>233.0</ele><time>2026-04-30T14:11:51.333Z</time></trkpt><trkpt lat="43.3083317" lon="11.3141033"><ele>234.0</ele><time>2026-04-30T14:11:52.334Z</time></trkpt><trkpt lat="43.3085683" lon="11.313905"><ele>234.5</ele><time>2026-04-30T14:11:53.334Z</time></trkpt><trkpt lat="43.308795" lon="11.3137083"><ele>235.0</ele><time>2026-04-30T14:11:54.334Z</time></trkpt><trkpt lat="43.3090217" lon="11.31351"><ele>235.0</ele><time>2026-04-30T14:11:55.334Z</time></trkpt><trkpt lat="43.3092467" lon="11.3133117"><ele>235.0</ele><time>2026-04-30T14:11:56.334Z</time></trkpt><trkpt lat="43.3094733" lon="11.313105"><ele>235.0</ele><time>2026-04-30T14:11:57.333Z</time></trkpt><trkpt lat="43.3096967" lon="11.3129"><ele>235.0</ele><time>2026-04-30T14:11:58.334Z</time></trkpt><trkpt lat="43.30992" lon="11.3126983"><ele>235.0</ele><time>2026-04-30T14:11:59.334Z</time></trkpt><trkpt lat="43.31015" lon="11.3125017"><ele>235.0</ele><time>2026-04-30T14:12:00.334Z</time></trkpt><trkpt lat="43.3103717" lon="11.3122967"><ele>237.0</ele><time>2026-04-30T14:12:01.334Z</time></trkpt><trkpt lat="43.3106" lon="11.3121067"><ele>239.0</ele><time>2026-04-30T14:12:02.334Z</time></trkpt><trkpt lat="43.310825" lon="11.3119083"><ele>239.0</ele><time>2026-04-30T14:12:03.334Z</time></trkpt><trkpt lat="43.3110467" lon="11.31171"><ele>239.0</ele><time>2026-04-30T14:12:04.334Z</time></trkpt><trkpt lat="43.3112717" lon="11.3115233"><ele>239.5</ele><time>2026-04-30T14:12:05.333Z</time></trkpt><trkpt lat="43.31149" lon="11.31132"><ele>240.0</ele><time>2026-04-30T14:12:06.334Z</time></trkpt><trkpt lat="43.311705" lon="11.31111"><ele>240.0</ele><time>2026-04-30T14:12:07.333Z</time></trkpt><trkpt lat="43.3119167" lon="11.3109017"><ele>240.0</ele><time>2026-04-30T14:12:08.334Z</time></trkpt><trkpt lat="43.312125" lon="11.3106883"><ele>239.5</ele><time>2026-04-30T14:12:09.333Z</time></trkpt><trkpt lat="43.3123233" lon="11.3104567"><ele>239.0</ele><time>2026-04-30T14:12:10.334Z</time></trkpt><trkpt lat="43.3125233" lon="11.3102267"><ele>239.0</ele><time>2026-04-30T14:12:11.334Z</time></trkpt><trkpt lat="43.3127317" lon="11.309985"><ele>239.0</ele><time>2026-04-30T14:12:12.333Z</time></trkpt><trkpt lat="43.312925" lon="11.3097417"><ele>241.0</ele><time>2026-04-30T14:12:13.334Z</time></trkpt><trkpt lat="43.313125" lon="11.3094917"><ele>243.0</ele><time>2026-04-30T14:12:14.334Z</time></trkpt><trkpt lat="43.313325" lon="11.3092317"><ele>243.0</ele><time>2026-04-30T14:12:15.334Z</time></trkpt><trkpt lat="43.3135117" lon="11.3089783"><ele>243.0</ele><time>2026-04-30T14:12:16.334Z</time></trkpt><trkpt lat="43.31369" lon="11.30872"><ele>242.0</ele><time>2026-04-30T14:12:17.333Z</time></trkpt><trkpt lat="43.3138633" lon="11.3084467"><ele>241.0</ele><time>2026-04-30T14:12:18.334Z</time></trkpt><trkpt lat="43.31404" lon="11.3081667"><ele>243.0</ele><time>2026-04-30T14:12:19.334Z</time></trkpt><trkpt lat="43.3142033" lon="11.307885"><ele>245.0</ele><time>2026-04-30T14:12:20.334Z</time></trkpt><trkpt lat="43.3143667" lon="11.307595"><ele>245.0</ele><time>2026-04-30T14:12:21.334Z</time></trkpt><trkpt lat="43.3145283" lon="11.3073017"><ele>245.0</ele><time>2026-04-30T14:12:22.334Z</time></trkpt><trkpt lat="43.3146883" lon="11.307015"><ele>246.5</ele><time>2026-04-30T14:12:23.334Z</time></trkpt><trkpt lat="43.3148433" lon="11.30672"><ele>248.0</ele><time>2026-04-30T14:12:24.334Z</time></trkpt><trkpt lat="43.3150017" lon="11.306425"><ele>249.5</ele><time>2026-04-30T14:12:25.333Z</time></trkpt><trkpt lat="43.3151533" lon="11.306125"><ele>251.0</ele><time>2026-04-30T14:12:26.334Z</time></trkpt><trkpt lat="43.3153017" lon="11.3058267"><ele>248.5</ele><time>2026-04-30T14:12:27.333Z</time></trkpt><trkpt lat="43.31545" lon="11.3055317"><ele>246.0</ele><time>2026-04-30T14:12:28.334Z</time></trkpt><trkpt lat="43.3156" lon="11.3052517"><ele>246.0</ele><time>2026-04-30T14:12:29.334Z</time></trkpt><trkpt lat="43.31576" lon="11.3049767"><ele>246.0</ele><time>2026-04-30T14:12:30.334Z</time></trkpt><trkpt lat="43.3159117" lon="11.3046917"><ele>249.0</ele><time>2026-04-30T14:12:31.334Z</time></trkpt><trkpt lat="43.3160733" lon="11.304415"><ele>252.0</ele><time>2026-04-30T14:12:32.334Z</time></trkpt><trkpt lat="43.3162433" lon="11.30414"><ele>250.5</ele><time>2026-04-30T14:12:33.333Z</time></trkpt><trkpt lat="43.3164283" lon="11.30387"><ele>249.0</ele><time>2026-04-30T14:12:34.334Z</time></trkpt><trkpt lat="43.31662" lon="11.3036133"><ele>249.0</ele><time>2026-04-30T14:12:35.333Z</time></trkpt><trkpt lat="43.3168133" lon="11.3033633"><ele>249.0</ele><time>2026-04-30T14:12:36.334Z</time></trkpt><trkpt lat="43.31702" lon="11.303115"><ele>249.0</ele><time>2026-04-30T14:12:37.334Z</time></trkpt><trkpt lat="43.3172217" lon="11.30287"><ele>249.0</ele><time>2026-04-30T14:12:38.334Z</time></trkpt><trkpt lat="43.31744" lon="11.3026317"><ele>249.0</ele><time>2026-04-30T14:12:39.333Z</time></trkpt><trkpt lat="43.3176567" lon="11.3024017"><ele>249.0</ele><time>2026-04-30T14:12:40.334Z</time></trkpt><trkpt lat="43.3178683" lon="11.3021783"><ele>250.0</ele><time>2026-04-30T14:12:41.334Z</time></trkpt><trkpt lat="43.3181017" lon="11.3019733"><ele>251.0</ele><time>2026-04-30T14:12:42.333Z</time></trkpt><trkpt lat="43.31834" lon="11.3017733"><ele>251.0</ele><time>2026-04-30T14:12:43.334Z</time></trkpt><trkpt lat="43.3185817" lon="11.30159"><ele>251.0</ele><time>2026-04-30T14:12:44.334Z</time></trkpt><trkpt lat="43.3188267" lon="11.301415"><ele>254.5</ele><time>2026-04-30T14:12:45.334Z</time></trkpt><trkpt lat="43.319065" lon="11.3012417"><ele>258.0</ele><time>2026-04-30T14:12:46.334Z</time></trkpt><trkpt lat="43.3193017" lon="11.30107"><ele>258.0</ele><time>2026-04-30T14:12:47.334Z</time></trkpt><trkpt lat="43.3195317" lon="11.3009033"><ele>258.0</ele><time>2026-04-30T14:12:48.334Z</time></trkpt><trkpt lat="43.31977" lon="11.3007483"><ele>257.5</ele><time>2026-04-30T14:12:49.334Z</time></trkpt><trkpt lat="43.32001" lon="11.300585"><ele>257.0</ele><time>2026-04-30T14:12:50.334Z</time></trkpt><trkpt lat="43.3202483" lon="11.3004267"><ele>257.0</ele><time>2026-04-30T14:12:51.334Z</time></trkpt><trkpt lat="43.32049" lon="11.3002667"><ele>257.0</ele><time>2026-04-30T14:12:52.333Z</time></trkpt><trkpt lat="43.3207183" lon="11.300105"><ele>257.0</ele><time>2026-04-30T14:12:53.334Z</time></trkpt><trkpt lat="43.3209517" lon="11.2999483"><ele>257.0</ele><time>2026-04-30T14:12:54.334Z</time></trkpt><trkpt lat="43.321185" lon="11.2997817"><ele>259.0</ele><time>2026-04-30T14:12:55.334Z</time></trkpt><trkpt lat="43.3214183" lon="11.2996117"><ele>261.0</ele><time>2026-04-30T14:12:56.334Z</time></trkpt><trkpt lat="43.3216517" lon="11.2994433"><ele>261.0</ele><time>2026-04-30T14:12:57.333Z</time></trkpt><trkpt lat="43.3218933" lon="11.29928"><ele>261.0</ele><time>2026-04-30T14:12:58.334Z</time></trkpt><trkpt lat="43.32213" lon="11.2991117"><ele>261.5</ele><time>2026-04-30T14:12:59.333Z</time></trkpt><trkpt lat="43.3223683" lon="11.2989433"><ele>262.0</ele><time>2026-04-30T14:13:00.334Z</time></trkpt><trkpt lat="43.3226" lon="11.2987733"><ele>262.5</ele><time>2026-04-30T14:13:01.334Z</time></trkpt><trkpt lat="43.3228333" lon="11.2986117"><ele>263.0</ele><time>2026-04-30T14:13:02.334Z</time></trkpt><trkpt lat="43.3230683" lon="11.2984417"><ele>263.0</ele><time>2026-04-30T14:13:03.334Z</time></trkpt><trkpt lat="43.3233" lon="11.2982733"><ele>263.0</ele><time>2026-04-30T14:13:04.334Z</time></trkpt><trkpt lat="43.32354" lon="11.29811"><ele>262.5</ele><time>2026-04-30T14:13:05.333Z</time></trkpt><trkpt lat="43.3237767" lon="11.2979417"><ele>262.0</ele><time>2026-04-30T14:13:06.333Z</time></trkpt><trkpt lat="43.324015" lon="11.2977667"><ele>262.0</ele><time>2026-04-30T14:13:07.334Z</time></trkpt><trkpt lat="43.3242583" lon="11.2975933"><ele>262.0</ele><time>2026-04-30T14:13:08.334Z</time></trkpt><trkpt lat="43.324505" lon="11.2974183"><ele>261.0</ele><time>2026-04-30T14:13:09.333Z</time></trkpt><trkpt lat="43.3247467" lon="11.2972433"><ele>260.0</ele><time>2026-04-30T14:13:10.333Z</time></trkpt><trkpt lat="43.3249883" lon="11.2970733"><ele>260.0</ele><time>2026-04-30T14:13:11.334Z</time></trkpt><trkpt lat="43.325225" lon="11.2969083"><ele>260.0</ele><time>2026-04-30T14:13:12.334Z</time></trkpt><trkpt lat="43.32547" lon="11.29675"><ele>258.5</ele><time>2026-04-30T14:13:13.333Z</time></trkpt><trkpt lat="43.3257117" lon="11.29658"><ele>257.0</ele><time>2026-04-30T14:13:14.334Z</time></trkpt><trkpt lat="43.3259633" lon="11.2964167"><ele>257.0</ele><time>2026-04-30T14:13:15.334Z</time></trkpt><trkpt lat="43.3262017" lon="11.296255"><ele>257.0</ele><time>2026-04-30T14:13:16.333Z</time></trkpt><trkpt lat="43.3264433" lon="11.296085"><ele>260.5</ele><time>2026-04-30T14:13:17.334Z</time></trkpt><trkpt lat="43.3266833" lon="11.2959167"><ele>264.0</ele><time>2026-04-30T14:13:18.333Z</time></trkpt><trkpt lat="43.3269217" lon="11.2957333"><ele>265.5</ele><time>2026-04-30T14:13:19.333Z</time></trkpt><trkpt lat="43.3271583" lon="11.295545"><ele>267.0</ele><time>2026-04-30T14:13:20.333Z</time></trkpt><trkpt lat="43.3273833" lon="11.29534"><ele>267.0</ele><time>2026-04-30T14:13:21.334Z</time></trkpt><trkpt lat="43.3276083" lon="11.2951383"><ele>267.0</ele><time>2026-04-30T14:13:22.334Z</time></trkpt><trkpt lat="43.3278367" lon="11.2949333"><ele>266.5</ele><time>2026-04-30T14:13:23.334Z</time></trkpt><trkpt lat="43.3280733" lon="11.2947317"><ele>266.0</ele><time>2026-04-30T14:13:24.334Z</time></trkpt><trkpt lat="43.3283117" lon="11.2945283"><ele>266.0</ele><time>2026-04-30T14:13:25.334Z</time></trkpt><trkpt lat="43.3285533" lon="11.294325"><ele>266.0</ele><time>2026-04-30T14:13:26.334Z</time></trkpt><trkpt lat="43.3287933" lon="11.2941233"><ele>267.5</ele><time>2026-04-30T14:13:27.334Z</time></trkpt><trkpt lat="43.329025" lon="11.2939183"><ele>269.0</ele><time>2026-04-30T14:13:28.334Z</time></trkpt><trkpt lat="43.3292617" lon="11.2937083"><ele>269.0</ele><time>2026-04-30T14:13:29.333Z</time></trkpt><trkpt lat="43.3294933" lon="11.2935017"><ele>269.0</ele><time>2026-04-30T14:13:30.334Z</time></trkpt><trkpt lat="43.3297233" lon="11.2932967"><ele>268.5</ele><time>2026-04-30T14:13:31.334Z</time></trkpt><trkpt lat="43.3299417" lon="11.2930867"><ele>268.0</ele><time>2026-04-30T14:13:32.334Z</time></trkpt><trkpt lat="43.3301733" lon="11.2928817"><ele>268.0</ele><time>2026-04-30T14:13:33.333Z</time></trkpt><trkpt lat="43.3303983" lon="11.2926833"><ele>268.0</ele><time>2026-04-30T14:13:34.333Z</time></trkpt><trkpt lat="43.3306467" lon="11.2924983"><ele>268.0</ele><time>2026-04-30T14:13:35.334Z</time></trkpt><trkpt lat="43.3308967" lon="11.2923267"><ele>268.0</ele><time>2026-04-30T14:13:36.333Z</time></trkpt><trkpt lat="43.331155" lon="11.2921717"><ele>271.0</ele><time>2026-04-30T14:13:37.334Z</time></trkpt><trkpt lat="43.331405" lon="11.292035"><ele>274.0</ele><time>2026-04-30T14:13:38.334Z</time></trkpt><trkpt lat="43.331655" lon="11.291905"><ele>274.0</ele><time>2026-04-30T14:13:39.333Z</time></trkpt><trkpt lat="43.3319117" lon="11.2917967"><ele>274.0</ele><time>2026-04-30T14:13:40.334Z</time></trkpt><trkpt lat="43.3321667" lon="11.2916983"><ele>278.5</ele><time>2026-04-30T14:13:41.334Z</time></trkpt><trkpt lat="43.3324233" lon="11.291615"><ele>283.0</ele><time>2026-04-30T14:13:42.334Z</time></trkpt><trkpt lat="43.33268" lon="11.29156"><ele>283.0</ele><time>2026-04-30T14:13:43.334Z</time></trkpt><trkpt lat="43.3329467" lon="11.2915067"><ele>283.0</ele><time>2026-04-30T14:13:44.334Z</time></trkpt><trkpt lat="43.333215" lon="11.2914617"><ele>286.0</ele><time>2026-04-30T14:13:45.334Z</time></trkpt><trkpt lat="43.3334783" lon="11.2914417"><ele>289.0</ele><time>2026-04-30T14:13:46.334Z</time></trkpt><trkpt lat="43.3337467" lon="11.2914383"><ele>291.0</ele><time>2026-04-30T14:13:47.334Z</time></trkpt><trkpt lat="43.334005" lon="11.2914467"><ele>293.0</ele><time>2026-04-30T14:13:48.334Z</time></trkpt><trkpt lat="43.3342633" lon="11.2914767"><ele>293.0</ele><time>2026-04-30T14:13:49.334Z</time></trkpt><trkpt lat="43.3345233" lon="11.2915267"><ele>293.0</ele><time>2026-04-30T14:13:50.334Z</time></trkpt><trkpt lat="43.3347767" lon="11.2915883"><ele>295.5</ele><time>2026-04-30T14:13:51.334Z</time></trkpt><trkpt lat="43.33503" lon="11.2916633"><ele>298.0</ele><time>2026-04-30T14:13:52.334Z</time></trkpt><trkpt lat="43.3352833" lon="11.2917567"><ele>298.0</ele><time>2026-04-30T14:13:53.334Z</time></trkpt><trkpt lat="43.3355333" lon="11.2918583"><ele>298.0</ele><time>2026-04-30T14:13:54.334Z</time></trkpt><trkpt lat="43.33579" lon="11.2919883"><ele>299.0</ele><time>2026-04-30T14:13:55.334Z</time></trkpt><trkpt lat="43.3360417" lon="11.29212"><ele>300.0</ele><time>2026-04-30T14:13:56.334Z</time></trkpt><trkpt lat="43.3362833" lon="11.2922533"><ele>301.5</ele><time>2026-04-30T14:13:57.334Z</time></trkpt><trkpt lat="43.3365167" lon="11.2923917"><ele>303.0</ele><time>2026-04-30T14:13:58.334Z</time></trkpt><trkpt lat="43.3367583" lon="11.292535"><ele>303.0</ele><time>2026-04-30T14:13:59.334Z</time></trkpt><trkpt lat="43.3369967" lon="11.2926683"><ele>303.0</ele><time>2026-04-30T14:14:00.334Z</time></trkpt><trkpt lat="43.3372317" lon="11.2928083"><ele>304.0</ele><time>2026-04-30T14:14:01.334Z</time></trkpt><trkpt lat="43.3374667" lon="11.2929467"><ele>305.0</ele><time>2026-04-30T14:14:02.334Z</time></trkpt><trkpt lat="43.3377017" lon="11.2930767"><ele>308.0</ele><time>2026-04-30T14:14:03.334Z</time></trkpt><trkpt lat="43.3379367" lon="11.2932117"><ele>311.0</ele><time>2026-04-30T14:14:04.333Z</time></trkpt><trkpt lat="43.33817" lon="11.29335"><ele>314.0</ele><time>2026-04-30T14:14:05.334Z</time></trkpt><trkpt lat="43.3384067" lon="11.2934933"><ele>317.0</ele><time>2026-04-30T14:14:06.334Z</time></trkpt><trkpt lat="43.338645" lon="11.29363"><ele>317.0</ele><time>2026-04-30T14:14:07.334Z</time></trkpt><trkpt lat="43.3388833" lon="11.2937767"><ele>317.0</ele><time>2026-04-30T14:14:08.334Z</time></trkpt><trkpt lat="43.3391233" lon="11.2939167"><ele>323.0</ele><time>2026-04-30T14:14:09.334Z</time></trkpt><trkpt lat="43.3393733" lon="11.294065"><ele>329.0</ele><time>2026-04-30T14:14:10.334Z</time></trkpt><trkpt lat="43.3396183" lon="11.2941983"><ele>334.5</ele><time>2026-04-30T14:14:11.333Z</time></trkpt><trkpt lat="43.339885" lon="11.2943633"><ele>340.0</ele><time>2026-04-30T14:14:12.334Z</time></trkpt><trkpt lat="43.3401333" lon="11.2945083"><ele>340.0</ele><time>2026-04-30T14:14:13.334Z</time></trkpt><trkpt lat="43.340385" lon="11.2946483"><ele>340.0</ele><time>2026-04-30T14:14:14.334Z</time></trkpt><trkpt lat="43.340635" lon="11.2947883"><ele>340.0</ele><time>2026-04-30T14:14:15.333Z</time></trkpt><trkpt lat="43.34141" lon="11.2952"><ele>340.0</ele><time>2026-04-30T14:14:18.338Z</time></trkpt><trkpt lat="43.3416433" lon="11.2953667"><ele>340.0</ele><time>2026-04-30T14:14:19.337Z</time></trkpt><trkpt lat="43.34187" lon="11.295535"><ele>335.5</ele><time>2026-04-30T14:14:20.338Z</time></trkpt><trkpt lat="43.34209" lon="11.29574"><ele>331.0</ele><time>2026-04-30T14:14:21.338Z</time></trkpt><trkpt lat="43.3423133" lon="11.2959517"><ele>331.0</ele><time>2026-04-30T14:14:22.338Z</time></trkpt><trkpt lat="43.342525" lon="11.296165"><ele>331.0</ele><time>2026-04-30T14:14:23.338Z</time></trkpt><trkpt lat="43.3427317" lon="11.2963883"><ele>330.0</ele><time>2026-04-30T14:14:24.338Z</time></trkpt><trkpt lat="43.34295" lon="11.296595"><ele>329.0</ele><time>2026-04-30T14:14:25.338Z</time></trkpt><trkpt lat="43.3431667" lon="11.2968"><ele>337.0</ele><time>2026-04-30T14:14:26.338Z</time></trkpt><trkpt lat="43.3433717" lon="11.29698"><ele>345.0</ele><time>2026-04-30T14:14:27.338Z</time></trkpt><trkpt lat="43.3435767" lon="11.29717"><ele>329.0</ele><time>2026-04-30T14:14:28.338Z</time></trkpt><trkpt lat="43.346385" lon="11.300465"><ele>329.0</ele><time>2026-04-30T14:14:42.339Z</time></trkpt><trkpt lat="43.34672" lon="11.30053"><ele>329.0</ele><time>2026-04-30T14:14:43.338Z</time></trkpt><trkpt lat="43.347045" lon="11.30058"><ele>326.5</ele><time>2026-04-30T14:14:44.339Z</time></trkpt><trkpt lat="43.3473167" lon="11.3006683"><ele>324.0</ele><time>2026-04-30T14:14:45.339Z</time></trkpt><trkpt lat="43.34755" lon="11.30079"><ele>324.0</ele><time>2026-04-30T14:14:46.339Z</time></trkpt><trkpt lat="43.3477733" lon="11.3009117"><ele>324.0</ele><time>2026-04-30T14:14:47.339Z</time></trkpt><trkpt lat="43.3479783" lon="11.3010233"><ele>324.6666666666667</ele><time>2026-04-30T14:14:48.338Z</time></trkpt><trkpt lat="43.3481817" lon="11.3011417"><ele>325.33333333333337</ele><time>2026-04-30T14:14:49.339Z</time></trkpt><trkpt lat="43.3483883" lon="11.3012667"><ele>326.0</ele><time>2026-04-30T14:14:50.338Z</time></trkpt><trkpt lat="43.3485933" lon="11.30138"><ele>322.0</ele><time>2026-04-30T14:14:51.339Z</time></trkpt><trkpt lat="43.3488" lon="11.301495"><ele>318.0</ele><time>2026-04-30T14:14:52.339Z</time></trkpt><trkpt lat="43.349015" lon="11.3016183"><ele>314.5</ele><time>2026-04-30T14:14:53.339Z</time></trkpt><trkpt lat="43.3492367" lon="11.3017433"><ele>311.0</ele><time>2026-04-30T14:14:54.339Z</time></trkpt><trkpt lat="43.3494633" lon="11.3018717"><ele>311.0</ele><time>2026-04-30T14:14:55.339Z</time></trkpt><trkpt lat="43.3496933" lon="11.3020117"><ele>311.0</ele><time>2026-04-30T14:14:56.338Z</time></trkpt><trkpt lat="43.3499217" lon="11.30215"><ele>313.0</ele><time>2026-04-30T14:14:57.338Z</time></trkpt><trkpt lat="43.3501483" lon="11.3022817"><ele>315.0</ele><time>2026-04-30T14:14:58.339Z</time></trkpt><trkpt lat="43.35037" lon="11.3024183"><ele>313.0</ele><time>2026-04-30T14:14:59.339Z</time></trkpt><trkpt lat="43.350605" lon="11.3025583"><ele>311.0</ele><time>2026-04-30T14:15:00.339Z</time></trkpt><trkpt lat="43.3508317" lon="11.3026883"><ele>311.0</ele><time>2026-04-30T14:15:01.338Z</time></trkpt><trkpt lat="43.351065" lon="11.302815"><ele>311.0</ele><time>2026-04-30T14:15:02.338Z</time></trkpt><trkpt lat="43.3512933" lon="11.302945"><ele>308.0</ele><time>2026-04-30T14:15:03.338Z</time></trkpt><trkpt lat="43.351535" lon="11.3030633"><ele>305.0</ele><time>2026-04-30T14:15:04.338Z</time></trkpt><trkpt lat="43.35177" lon="11.3032033"><ele>302.0</ele><time>2026-04-30T14:15:05.339Z</time></trkpt><trkpt lat="43.3520083" lon="11.3033283"><ele>299.0</ele><time>2026-04-30T14:15:06.339Z</time></trkpt><trkpt lat="43.3522467" lon="11.3034717"><ele>299.0</ele><time>2026-04-30T14:15:07.338Z</time></trkpt><trkpt lat="43.3524833" lon="11.3035983"><ele>299.0</ele><time>2026-04-30T14:15:08.339Z</time></trkpt><trkpt lat="43.352715" lon="11.303735"><ele>299.0</ele><time>2026-04-30T14:15:09.339Z</time></trkpt><trkpt lat="43.3529417" lon="11.303865"><ele>299.0</ele><time>2026-04-30T14:15:10.339Z</time></trkpt><trkpt lat="43.3531667" lon="11.3040017"><ele>296.5</ele><time>2026-04-30T14:15:11.338Z</time></trkpt><trkpt lat="43.3533917" lon="11.3041267"><ele>294.0</ele><time>2026-04-30T14:15:12.338Z</time></trkpt><trkpt lat="43.353625" lon="11.3042583"><ele>294.0</ele><time>2026-04-30T14:15:13.339Z</time></trkpt><trkpt lat="43.3538617" lon="11.304385"><ele>294.0</ele><time>2026-04-30T14:15:14.338Z</time></trkpt><trkpt lat="43.3541" lon="11.3045033"><ele>292.0</ele><time>2026-04-30T14:15:15.339Z</time></trkpt><trkpt lat="43.3543483" lon="11.3046167"><ele>290.0</ele><time>2026-04-30T14:15:16.338Z</time></trkpt><trkpt lat="43.3546033" lon="11.3047167"><ele>293.5</ele><time>2026-04-30T14:15:17.339Z</time></trkpt><trkpt lat="43.3548667" lon="11.3048133"><ele>297.0</ele><time>2026-04-30T14:15:18.339Z</time></trkpt><trkpt lat="43.3551283" lon="11.3048833"><ele>297.0</ele><time>2026-04-30T14:15:19.338Z</time></trkpt><trkpt lat="43.3553883" lon="11.304935"><ele>297.0</ele><time>2026-04-30T14:15:20.339Z</time></trkpt><trkpt lat="43.3556517" lon="11.3049967"><ele>298.0</ele><time>2026-04-30T14:15:21.339Z</time></trkpt><trkpt lat="43.3559133" lon="11.30503"><ele>299.0</ele><time>2026-04-30T14:15:22.338Z</time></trkpt><trkpt lat="43.3561717" lon="11.30505"><ele>300.5</ele><time>2026-04-30T14:15:23.338Z</time></trkpt><trkpt lat="43.35643" lon="11.3050317"><ele>302.0</ele><time>2026-04-30T14:15:24.339Z</time></trkpt><trkpt lat="43.3566933" lon="11.3050183"><ele>302.0</ele><time>2026-04-30T14:15:25.338Z</time></trkpt><trkpt lat="43.356955" lon="11.304985"><ele>302.0</ele><time>2026-04-30T14:15:26.339Z</time></trkpt><trkpt lat="43.35722" lon="11.304935"><ele>299.5</ele><time>2026-04-30T14:15:27.339Z</time></trkpt><trkpt lat="43.357475" lon="11.3048833"><ele>297.0</ele><time>2026-04-30T14:15:28.338Z</time></trkpt><trkpt lat="43.3577383" lon="11.304825"><ele>297.0</ele><time>2026-04-30T14:15:29.339Z</time></trkpt><trkpt lat="43.3580083" lon="11.3047567"><ele>297.0</ele><time>2026-04-30T14:15:30.339Z</time></trkpt><trkpt lat="43.3582833" lon="11.304695"><ele>292.0</ele><time>2026-04-30T14:15:31.338Z</time></trkpt><trkpt lat="43.3585483" lon="11.3046217"><ele>287.0</ele><time>2026-04-30T14:15:32.339Z</time></trkpt><trkpt lat="43.35881" lon="11.3045567"><ele>287.5</ele><time>2026-04-30T14:15:33.339Z</time></trkpt><trkpt lat="43.3590783" lon="11.304485"><ele>288.0</ele><time>2026-04-30T14:15:34.339Z</time></trkpt><trkpt lat="43.3593417" lon="11.304415"><ele>288.0</ele><time>2026-04-30T14:15:35.338Z</time></trkpt><trkpt lat="43.3596033" lon="11.3043383"><ele>288.0</ele><time>2026-04-30T14:15:36.339Z</time></trkpt><trkpt lat="43.3598733" lon="11.3042683"><ele>288.0</ele><time>2026-04-30T14:15:37.339Z</time></trkpt><trkpt lat="43.3601483" lon="11.3042083"><ele>288.0</ele><time>2026-04-30T14:15:38.338Z</time></trkpt><trkpt lat="43.360415" lon="11.3041433"><ele>290.0</ele><time>2026-04-30T14:15:39.338Z</time></trkpt><trkpt lat="43.3606833" lon="11.3040817"><ele>292.0</ele><time>2026-04-30T14:15:40.339Z</time></trkpt><trkpt lat="43.360945" lon="11.30402"><ele>292.0</ele><time>2026-04-30T14:15:41.339Z</time></trkpt><trkpt lat="43.3612083" lon="11.3039617"><ele>292.0</ele><time>2026-04-30T14:15:42.339Z</time></trkpt><trkpt lat="43.3614667" lon="11.3039017"><ele>286.5</ele><time>2026-04-30T14:15:43.339Z</time></trkpt><trkpt lat="43.361725" lon="11.3038433"><ele>281.0</ele><time>2026-04-30T14:15:44.338Z</time></trkpt><trkpt lat="43.3619817" lon="11.3037717"><ele>282.5</ele><time>2026-04-30T14:15:45.339Z</time></trkpt><trkpt lat="43.362245" lon="11.30371"><ele>284.0</ele><time>2026-04-30T14:15:46.339Z</time></trkpt><trkpt lat="43.3625083" lon="11.3036367"><ele>284.0</ele><time>2026-04-30T14:15:47.338Z</time></trkpt><trkpt lat="43.3627733" lon="11.3035567"><ele>284.0</ele><time>2026-04-30T14:15:48.339Z</time></trkpt><trkpt lat="43.3630417" lon="11.3034667"><ele>288.5</ele><time>2026-04-30T14:15:49.338Z</time></trkpt><trkpt lat="43.3633" lon="11.30336"><ele>293.0</ele><time>2026-04-30T14:15:50.338Z</time></trkpt><trkpt lat="43.3635517" lon="11.3032367"><ele>293.0</ele><time>2026-04-30T14:15:51.339Z</time></trkpt><trkpt lat="43.3638017" lon="11.3031033"><ele>293.0</ele><time>2026-04-30T14:15:52.339Z</time></trkpt><trkpt lat="43.364045" lon="11.3029567"><ele>291.5</ele><time>2026-04-30T14:15:53.339Z</time></trkpt><trkpt lat="43.3642883" lon="11.3027967"><ele>290.0</ele><time>2026-04-30T14:15:54.339Z</time></trkpt><trkpt lat="43.3645283" lon="11.302615"><ele>289.0</ele><time>2026-04-30T14:15:55.339Z</time></trkpt><trkpt lat="43.364765" lon="11.302425"><ele>288.0</ele><time>2026-04-30T14:15:56.339Z</time></trkpt><trkpt lat="43.3649967" lon="11.3022183"><ele>285.5</ele><time>2026-04-30T14:15:57.339Z</time></trkpt><trkpt lat="43.365215" lon="11.3019917"><ele>283.0</ele><time>2026-04-30T14:15:58.339Z</time></trkpt><trkpt lat="43.3654267" lon="11.3017383"><ele>285.5</ele><time>2026-04-30T14:15:59.339Z</time></trkpt><trkpt lat="43.365625" lon="11.3014717"><ele>288.0</ele><time>2026-04-30T14:16:00.339Z</time></trkpt><trkpt lat="43.3658233" lon="11.301195"><ele>288.0</ele><time>2026-04-30T14:16:01.339Z</time></trkpt><trkpt lat="43.366005" lon="11.300905"><ele>288.0</ele><time>2026-04-30T14:16:02.339Z</time></trkpt><trkpt lat="43.3661767" lon="11.3006"><ele>287.0</ele><time>2026-04-30T14:16:03.339Z</time></trkpt><trkpt lat="43.366345" lon="11.3002883"><ele>286.0</ele><time>2026-04-30T14:16:04.338Z</time></trkpt><trkpt lat="43.366505" lon="11.29997"><ele>286.0</ele><time>2026-04-30T14:16:05.338Z</time></trkpt><trkpt lat="43.3666667" lon="11.2996533"><ele>286.0</ele><time>2026-04-30T14:16:06.339Z</time></trkpt><trkpt lat="43.366815" lon="11.299325"><ele>286.0</ele><time>2026-04-30T14:16:07.339Z</time></trkpt><trkpt lat="43.3669583" lon="11.2989917"><ele>286.0</ele><time>2026-04-30T14:16:08.339Z</time></trkpt><trkpt lat="43.367085" lon="11.2986617"><ele>282.5</ele><time>2026-04-30T14:16:09.339Z</time></trkpt><trkpt lat="43.367205" lon="11.298325"><ele>279.0</ele><time>2026-04-30T14:16:10.339Z</time></trkpt><trkpt lat="43.36731" lon="11.29798"><ele>276.0</ele><time>2026-04-30T14:16:11.339Z</time></trkpt><trkpt lat="43.3674" lon="11.29762"><ele>273.0</ele><time>2026-04-30T14:16:12.339Z</time></trkpt><trkpt lat="43.367475" lon="11.2972583"><ele>271.0</ele><time>2026-04-30T14:16:13.339Z</time></trkpt><trkpt lat="43.3675367" lon="11.2968983"><ele>269.0</ele><time>2026-04-30T14:16:14.338Z</time></trkpt><trkpt lat="43.367605" lon="11.2965317"><ele>268.0</ele><time>2026-04-30T14:16:15.338Z</time></trkpt><trkpt lat="43.3676517" lon="11.2961733"><ele>267.0</ele><time>2026-04-30T14:16:16.339Z</time></trkpt><trkpt lat="43.3677083" lon="11.2958167"><ele>268.0</ele><time>2026-04-30T14:16:17.339Z</time></trkpt><trkpt lat="43.367765" lon="11.2954567"><ele>269.0</ele><time>2026-04-30T14:16:18.339Z</time></trkpt><trkpt lat="43.3678283" lon="11.2950983"><ele>271.5</ele><time>2026-04-30T14:16:19.339Z</time></trkpt><trkpt lat="43.3679" lon="11.2947383"><ele>274.0</ele><time>2026-04-30T14:16:20.338Z</time></trkpt><trkpt lat="43.3679617" lon="11.2943667"><ele>276.5</ele><time>2026-04-30T14:16:21.339Z</time></trkpt><trkpt lat="43.36803" lon="11.2939967"><ele>279.0</ele><time>2026-04-30T14:16:22.338Z</time></trkpt><trkpt lat="43.3680917" lon="11.2936267"><ele>279.0</ele><time>2026-04-30T14:16:23.339Z</time></trkpt><trkpt lat="43.3681517" lon="11.29327"><ele>279.0</ele><time>2026-04-30T14:16:24.338Z</time></trkpt><trkpt lat="43.36821" lon="11.2929017"><ele>276.5</ele><time>2026-04-30T14:16:25.338Z</time></trkpt><trkpt lat="43.3682867" lon="11.2925517"><ele>274.0</ele><time>2026-04-30T14:16:26.339Z</time></trkpt><trkpt lat="43.3683683" lon="11.2921967"><ele>269.0</ele><time>2026-04-30T14:16:27.339Z</time></trkpt><trkpt lat="43.3684633" lon="11.2918433"><ele>264.0</ele><time>2026-04-30T14:16:28.339Z</time></trkpt><trkpt lat="43.3685683" lon="11.2915"><ele>260.5</ele><time>2026-04-30T14:16:29.339Z</time></trkpt><trkpt lat="43.3686867" lon="11.2911617"><ele>257.0</ele><time>2026-04-30T14:16:30.338Z</time></trkpt><trkpt lat="43.3688167" lon="11.2908367"><ele>260.5</ele><time>2026-04-30T14:16:31.339Z</time></trkpt><trkpt lat="43.3689633" lon="11.2905183"><ele>264.0</ele><time>2026-04-30T14:16:32.339Z</time></trkpt><trkpt lat="43.36911" lon="11.2902033"><ele>264.0</ele><time>2026-04-30T14:16:33.338Z</time></trkpt><trkpt lat="43.369275" lon="11.2899067"><ele>264.0</ele><time>2026-04-30T14:16:34.339Z</time></trkpt><trkpt lat="43.3694533" lon="11.28962"><ele>262.0</ele><time>2026-04-30T14:16:35.339Z</time></trkpt><trkpt lat="43.3696383" lon="11.28934"><ele>260.0</ele><time>2026-04-30T14:16:36.338Z</time></trkpt><trkpt lat="43.3698233" lon="11.289065"><ele>259.5</ele><time>2026-04-30T14:16:37.339Z</time></trkpt><trkpt lat="43.3700183" lon="11.288805"><ele>259.0</ele><time>2026-04-30T14:16:38.339Z</time></trkpt><trkpt lat="43.370235" lon="11.288575"><ele>259.0</ele><time>2026-04-30T14:16:39.339Z</time></trkpt><trkpt lat="43.3704567" lon="11.28835"><ele>259.0</ele><time>2026-04-30T14:16:40.339Z</time></trkpt><trkpt lat="43.3706867" lon="11.2881383"><ele>257.5</ele><time>2026-04-30T14:16:41.339Z</time></trkpt><trkpt lat="43.370925" lon="11.2879417"><ele>256.0</ele><time>2026-04-30T14:16:42.339Z</time></trkpt><trkpt lat="43.3711683" lon="11.2877567"><ele>260.5</ele><time>2026-04-30T14:16:43.339Z</time></trkpt><trkpt lat="43.3714233" lon="11.2875867"><ele>265.0</ele><time>2026-04-30T14:16:44.338Z</time></trkpt><trkpt lat="43.371675" lon="11.2874317"><ele>265.0</ele><time>2026-04-30T14:16:45.338Z</time></trkpt><trkpt lat="43.3719317" lon="11.2872967"><ele>265.0</ele><time>2026-04-30T14:16:46.339Z</time></trkpt><trkpt lat="43.3721917" lon="11.287175"><ele>258.0</ele><time>2026-04-30T14:16:47.339Z</time></trkpt><trkpt lat="43.3724567" lon="11.2870733"><ele>251.0</ele><time>2026-04-30T14:16:48.339Z</time></trkpt><trkpt lat="43.3727217" lon="11.2869817"><ele>251.0</ele><time>2026-04-30T14:16:49.339Z</time></trkpt><trkpt lat="43.3729933" lon="11.286895"><ele>251.0</ele><time>2026-04-30T14:16:50.339Z</time></trkpt><trkpt lat="43.3732617" lon="11.2868117"><ele>252.5</ele><time>2026-04-30T14:16:51.338Z</time></trkpt><trkpt lat="43.3735367" lon="11.2867383"><ele>254.0</ele><time>2026-04-30T14:16:52.339Z</time></trkpt><trkpt lat="43.3738067" lon="11.2866617"><ele>255.0</ele><time>2026-04-30T14:16:53.339Z</time></trkpt><trkpt lat="43.3740767" lon="11.28658"><ele>256.0</ele><time>2026-04-30T14:16:54.339Z</time></trkpt><trkpt lat="43.3743433" lon="11.2864983"><ele>253.0</ele><time>2026-04-30T14:16:55.339Z</time></trkpt><trkpt lat="43.3746033" lon="11.28642"><ele>250.0</ele><time>2026-04-30T14:16:56.339Z</time></trkpt><trkpt lat="43.3748567" lon="11.2863383"><ele>250.0</ele><time>2026-04-30T14:16:57.338Z</time></trkpt><trkpt lat="43.37511" lon="11.2862617"><ele>250.0</ele><time>2026-04-30T14:16:58.338Z</time></trkpt><trkpt lat="43.375355" lon="11.2861883"><ele>250.5</ele><time>2026-04-30T14:16:59.338Z</time></trkpt><trkpt lat="43.37561" lon="11.28612"><ele>251.0</ele><time>2026-04-30T14:17:00.339Z</time></trkpt><trkpt lat="43.3758583" lon="11.2860383"><ele>251.0</ele><time>2026-04-30T14:17:01.339Z</time></trkpt><trkpt lat="43.3760933" lon="11.285955"><ele>251.0</ele><time>2026-04-30T14:17:02.338Z</time></trkpt><trkpt lat="43.3763467" lon="11.2858783"><ele>252.0</ele><time>2026-04-30T14:17:03.339Z</time></trkpt><trkpt lat="43.3765983" lon="11.285795"><ele>253.0</ele><time>2026-04-30T14:17:04.339Z</time></trkpt><trkpt lat="43.3768517" lon="11.2857067"><ele>253.0</ele><time>2026-04-30T14:17:05.338Z</time></trkpt><trkpt lat="43.3771133" lon="11.28562"><ele>253.0</ele><time>2026-04-30T14:17:06.339Z</time></trkpt><trkpt lat="43.3773733" lon="11.285525"><ele>244.5</ele><time>2026-04-30T14:17:07.339Z</time></trkpt><trkpt lat="43.37763" lon="11.2854133"><ele>236.0</ele><time>2026-04-30T14:17:08.339Z</time></trkpt><trkpt lat="43.3778767" lon="11.2852817"><ele>238.5</ele><time>2026-04-30T14:17:09.339Z</time></trkpt><trkpt lat="43.37812" lon="11.28514"><ele>241.0</ele><time>2026-04-30T14:17:10.339Z</time></trkpt><trkpt lat="43.3783567" lon="11.284975"><ele>241.0</ele><time>2026-04-30T14:17:11.339Z</time></trkpt><trkpt lat="43.37859" lon="11.28479"><ele>241.0</ele><time>2026-04-30T14:17:12.339Z</time></trkpt><trkpt lat="43.3788117" lon="11.2845817"><ele>243.5</ele><time>2026-04-30T14:17:13.339Z</time></trkpt><trkpt lat="43.3790267" lon="11.28436"><ele>246.0</ele><time>2026-04-30T14:17:14.339Z</time></trkpt><trkpt lat="43.379235" lon="11.28412"><ele>242.5</ele><time>2026-04-30T14:17:15.339Z</time></trkpt><trkpt lat="43.3794217" lon="11.2838683"><ele>239.0</ele><time>2026-04-30T14:17:16.339Z</time></trkpt><trkpt lat="43.379605" lon="11.283595"><ele>240.5</ele><time>2026-04-30T14:17:17.339Z</time></trkpt><trkpt lat="43.3797783" lon="11.28331"><ele>242.0</ele><time>2026-04-30T14:17:18.339Z</time></trkpt><trkpt lat="43.3799417" lon="11.283005"><ele>242.0</ele><time>2026-04-30T14:17:19.338Z</time></trkpt><trkpt lat="43.3801017" lon="11.28269"><ele>242.0</ele><time>2026-04-30T14:17:20.339Z</time></trkpt><trkpt lat="43.3802583" lon="11.2823683"><ele>243.5</ele><time>2026-04-30T14:17:21.339Z</time></trkpt><trkpt lat="43.38042" lon="11.2820483"><ele>245.0</ele><time>2026-04-30T14:17:22.339Z</time></trkpt><trkpt lat="43.3805733" lon="11.281725"><ele>241.0</ele><time>2026-04-30T14:17:23.339Z</time></trkpt><trkpt lat="43.3807217" lon="11.281395"><ele>237.0</ele><time>2026-04-30T14:17:24.338Z</time></trkpt><trkpt lat="43.380875" lon="11.2810683"><ele>237.0</ele><time>2026-04-30T14:17:25.339Z</time></trkpt><trkpt lat="43.38103" lon="11.2807467"><ele>237.0</ele><time>2026-04-30T14:17:26.338Z</time></trkpt><trkpt lat="43.381185" lon="11.2804283"><ele>235.0</ele><time>2026-04-30T14:17:27.339Z</time></trkpt><trkpt lat="43.381345" lon="11.280115"><ele>233.0</ele><time>2026-04-30T14:17:28.339Z</time></trkpt><trkpt lat="43.381505" lon="11.2798083"><ele>238.5</ele><time>2026-04-30T14:17:29.338Z</time></trkpt><trkpt lat="43.38166" lon="11.27949"><ele>244.0</ele><time>2026-04-30T14:17:30.339Z</time></trkpt><trkpt lat="43.3818167" lon="11.2791833"><ele>239.0</ele><time>2026-04-30T14:17:31.339Z</time></trkpt><trkpt lat="43.3819733" lon="11.2788783"><ele>234.0</ele><time>2026-04-30T14:17:32.339Z</time></trkpt><trkpt lat="43.3821183" lon="11.2785617"><ele>235.5</ele><time>2026-04-30T14:17:33.338Z</time></trkpt><trkpt lat="43.3822633" lon="11.27825"><ele>237.0</ele><time>2026-04-30T14:17:34.339Z</time></trkpt><trkpt lat="43.382405" lon="11.2779483"><ele>237.0</ele><time>2026-04-30T14:17:35.339Z</time></trkpt><trkpt lat="43.3825583" lon="11.2776417"><ele>237.0</ele><time>2026-04-30T14:17:36.338Z</time></trkpt><trkpt lat="43.3827117" lon="11.27733"><ele>234.5</ele><time>2026-04-30T14:17:37.339Z</time></trkpt><trkpt lat="43.38286" lon="11.2770233"><ele>232.0</ele><time>2026-04-30T14:17:38.339Z</time></trkpt><trkpt lat="43.3830083" lon="11.2767133"><ele>232.5</ele><time>2026-04-30T14:17:39.339Z</time></trkpt><trkpt lat="43.3831583" lon="11.2764"><ele>233.0</ele><time>2026-04-30T14:17:40.339Z</time></trkpt><trkpt lat="43.3833183" lon="11.276095"><ele>233.0</ele><time>2026-04-30T14:17:41.339Z</time></trkpt><trkpt lat="43.3834967" lon="11.2758067"><ele>233.0</ele><time>2026-04-30T14:17:42.339Z</time></trkpt><trkpt lat="43.3836833" lon="11.2755217"><ele>233.5</ele><time>2026-04-30T14:17:43.339Z</time></trkpt><trkpt lat="43.3838783" lon="11.2752483"><ele>234.0</ele><time>2026-04-30T14:17:44.339Z</time></trkpt><trkpt lat="43.38408" lon="11.27499"><ele>230.5</ele><time>2026-04-30T14:17:45.339Z</time></trkpt><trkpt lat="43.3842883" lon="11.2747317"><ele>227.0</ele><time>2026-04-30T14:17:46.338Z</time></trkpt><trkpt lat="43.38451" lon="11.2744983"><ele>228.0</ele><time>2026-04-30T14:17:47.339Z</time></trkpt><trkpt lat="43.3847483" lon="11.2742883"><ele>229.0</ele><time>2026-04-30T14:17:48.339Z</time></trkpt><trkpt lat="43.38499" lon="11.27409"><ele>226.5</ele><time>2026-04-30T14:17:49.339Z</time></trkpt><trkpt lat="43.3852317" lon="11.2739033"><ele>224.0</ele><time>2026-04-30T14:17:50.338Z</time></trkpt><trkpt lat="43.3854783" lon="11.2737233"><ele>223.5</ele><time>2026-04-30T14:17:51.338Z</time></trkpt><trkpt lat="43.3857317" lon="11.27355"><ele>223.0</ele><time>2026-04-30T14:17:52.339Z</time></trkpt><trkpt lat="43.3859817" lon="11.2733783"><ele>223.0</ele><time>2026-04-30T14:17:53.339Z</time></trkpt><trkpt lat="43.386225" lon="11.273195"><ele>223.0</ele><time>2026-04-30T14:17:54.339Z</time></trkpt><trkpt lat="43.38646" lon="11.2730033"><ele>223.5</ele><time>2026-04-30T14:17:55.339Z</time></trkpt><trkpt lat="43.386695" lon="11.2727983"><ele>224.0</ele><time>2026-04-30T14:17:56.339Z</time></trkpt><trkpt lat="43.3869317" lon="11.272585"><ele>224.0</ele><time>2026-04-30T14:17:57.339Z</time></trkpt><trkpt lat="43.3871567" lon="11.2723617"><ele>224.0</ele><time>2026-04-30T14:17:58.339Z</time></trkpt><trkpt lat="43.3873717" lon="11.2721267"><ele>223.5</ele><time>2026-04-30T14:17:59.339Z</time></trkpt><trkpt lat="43.38758" lon="11.271875"><ele>223.0</ele><time>2026-04-30T14:18:00.339Z</time></trkpt><trkpt lat="43.38777" lon="11.271605"><ele>221.5</ele><time>2026-04-30T14:18:01.339Z</time></trkpt><trkpt lat="43.3879583" lon="11.27133"><ele>220.0</ele><time>2026-04-30T14:18:02.338Z</time></trkpt><trkpt lat="43.3881317" lon="11.2710483"><ele>221.0</ele><time>2026-04-30T14:18:03.338Z</time></trkpt><trkpt lat="43.3882983" lon="11.2707433"><ele>222.0</ele><time>2026-04-30T14:18:04.339Z</time></trkpt><trkpt lat="43.3884517" lon="11.270445"><ele>222.0</ele><time>2026-04-30T14:18:05.339Z</time></trkpt><trkpt lat="43.3885917" lon="11.27014"><ele>222.0</ele><time>2026-04-30T14:18:06.339Z</time></trkpt><trkpt lat="43.3887233" lon="11.2698233"><ele>221.5</ele><time>2026-04-30T14:18:07.339Z</time></trkpt><trkpt lat="43.3888433" lon="11.26949"><ele>221.0</ele><time>2026-04-30T14:18:08.339Z</time></trkpt><trkpt lat="43.3889567" lon="11.2691517"><ele>221.0</ele><time>2026-04-30T14:18:09.339Z</time></trkpt><trkpt lat="43.3890567" lon="11.2688017"><ele>221.0</ele><time>2026-04-30T14:18:10.338Z</time></trkpt><trkpt lat="43.3891383" lon="11.2684533"><ele>221.0</ele><time>2026-04-30T14:18:11.339Z</time></trkpt><trkpt lat="43.3892167" lon="11.26811"><ele>221.0</ele><time>2026-04-30T14:18:12.338Z</time></trkpt><trkpt lat="43.389285" lon="11.2677517"><ele>221.0</ele><time>2026-04-30T14:18:13.339Z</time></trkpt><trkpt lat="43.3893333" lon="11.2673917"><ele>221.0</ele><time>2026-04-30T14:18:14.339Z</time></trkpt><trkpt lat="43.3893767" lon="11.2670367"><ele>222.0</ele><time>2026-04-30T14:18:15.339Z</time></trkpt><trkpt lat="43.389405" lon="11.266685"><ele>223.0</ele><time>2026-04-30T14:18:16.339Z</time></trkpt><trkpt lat="43.3894267" lon="11.266325"><ele>223.5</ele><time>2026-04-30T14:18:17.339Z</time></trkpt><trkpt lat="43.38945" lon="11.26596"><ele>224.0</ele><time>2026-04-30T14:18:18.338Z</time></trkpt><trkpt lat="43.3894867" lon="11.2655867"><ele>224.5</ele><time>2026-04-30T14:18:19.339Z</time></trkpt><trkpt lat="43.38952" lon="11.2652067"><ele>225.0</ele><time>2026-04-30T14:18:20.339Z</time></trkpt><trkpt lat="43.389555" lon="11.26482"><ele>226.0</ele><time>2026-04-30T14:18:21.339Z</time></trkpt><trkpt lat="43.3895817" lon="11.2644367"><ele>227.0</ele><time>2026-04-30T14:18:22.339Z</time></trkpt><trkpt lat="43.3896067" lon="11.2640533"><ele>227.0</ele><time>2026-04-30T14:18:23.339Z</time></trkpt><trkpt lat="43.3896483" lon="11.263675"><ele>227.0</ele><time>2026-04-30T14:18:24.339Z</time></trkpt><trkpt lat="43.3896767" lon="11.263295"><ele>231.0</ele><time>2026-04-30T14:18:25.339Z</time></trkpt><trkpt lat="43.3897067" lon="11.26291"><ele>235.0</ele><time>2026-04-30T14:18:26.339Z</time></trkpt><trkpt lat="43.3897283" lon="11.2625317"><ele>234.0</ele><time>2026-04-30T14:18:27.339Z</time></trkpt><trkpt lat="43.3897517" lon="11.2621533"><ele>233.0</ele><time>2026-04-30T14:18:28.339Z</time></trkpt><trkpt lat="43.38978" lon="11.2617733"><ele>235.5</ele><time>2026-04-30T14:18:29.339Z</time></trkpt><trkpt lat="43.389805" lon="11.2613983"><ele>238.0</ele><time>2026-04-30T14:18:30.339Z</time></trkpt><trkpt lat="43.3898283" lon="11.2610183"><ele>238.0</ele><time>2026-04-30T14:18:31.338Z</time></trkpt><trkpt lat="43.38985" lon="11.2606433"><ele>238.0</ele><time>2026-04-30T14:18:32.338Z</time></trkpt><trkpt lat="43.38988" lon="11.2602733"><ele>238.0</ele><time>2026-04-30T14:18:33.339Z</time></trkpt><trkpt lat="43.3899033" lon="11.25991"><ele>238.0</ele><time>2026-04-30T14:18:34.339Z</time></trkpt><trkpt lat="43.3899283" lon="11.2595383"><ele>237.5</ele><time>2026-04-30T14:18:35.338Z</time></trkpt><trkpt lat="43.3899533" lon="11.2591733"><ele>237.0</ele><time>2026-04-30T14:18:36.339Z</time></trkpt><trkpt lat="43.3899767" lon="11.2588033"><ele>235.0</ele><time>2026-04-30T14:18:37.338Z</time></trkpt><trkpt lat="43.3900067" lon="11.25844"><ele>233.0</ele><time>2026-04-30T14:18:38.339Z</time></trkpt><trkpt lat="43.39003" lon="11.258075"><ele>231.0</ele><time>2026-04-30T14:18:39.338Z</time></trkpt><trkpt lat="43.3900517" lon="11.2577083"><ele>229.0</ele><time>2026-04-30T14:18:40.339Z</time></trkpt><trkpt lat="43.3900833" lon="11.2573467"><ele>226.0</ele><time>2026-04-30T14:18:41.338Z</time></trkpt><trkpt lat="43.390115" lon="11.25698"><ele>223.0</ele><time>2026-04-30T14:18:42.339Z</time></trkpt><trkpt lat="43.3901433" lon="11.256615"><ele>222.5</ele><time>2026-04-30T14:18:43.338Z</time></trkpt><trkpt lat="43.3901717" lon="11.2562483"><ele>222.0</ele><time>2026-04-30T14:18:44.338Z</time></trkpt><trkpt lat="43.3901983" lon="11.2558767"><ele>221.5</ele><time>2026-04-30T14:18:45.339Z</time></trkpt><trkpt lat="43.3902217" lon="11.2555017"><ele>221.0</ele><time>2026-04-30T14:18:46.339Z</time></trkpt><trkpt lat="43.3902517" lon="11.2551317"><ele>221.0</ele><time>2026-04-30T14:18:47.338Z</time></trkpt><trkpt lat="43.390285" lon="11.2547617"><ele>221.0</ele><time>2026-04-30T14:18:48.339Z</time></trkpt><trkpt lat="43.390315" lon="11.2543933"><ele>221.0</ele><time>2026-04-30T14:18:49.339Z</time></trkpt><trkpt lat="43.390345" lon="11.2540167"><ele>221.0</ele><time>2026-04-30T14:18:50.339Z</time></trkpt><trkpt lat="43.3903667" lon="11.253635"><ele>221.0</ele><time>2026-04-30T14:18:51.339Z</time></trkpt><trkpt lat="43.3903967" lon="11.2532533"><ele>221.0</ele><time>2026-04-30T14:18:52.339Z</time></trkpt><trkpt lat="43.3904317" lon="11.252865"><ele>221.0</ele><time>2026-04-30T14:18:53.339Z</time></trkpt><trkpt lat="43.3904617" lon="11.25248"><ele>221.0</ele><time>2026-04-30T14:18:54.338Z</time></trkpt><trkpt lat="43.39049" lon="11.2520933"><ele>226.0</ele><time>2026-04-30T14:18:55.339Z</time></trkpt><trkpt lat="43.3905183" lon="11.2517033"><ele>231.0</ele><time>2026-04-30T14:18:56.339Z</time></trkpt><trkpt lat="43.3905467" lon="11.2513133"><ele>232.0</ele><time>2026-04-30T14:18:57.339Z</time></trkpt><trkpt lat="43.3905733" lon="11.250925"><ele>233.0</ele><time>2026-04-30T14:18:58.339Z</time></trkpt><trkpt lat="43.3906" lon="11.2505233"><ele>230.5</ele><time>2026-04-30T14:18:59.339Z</time></trkpt><trkpt lat="43.3906267" lon="11.250125"><ele>228.0</ele><time>2026-04-30T14:19:00.338Z</time></trkpt><trkpt lat="43.390665" lon="11.2497333"><ele>226.0</ele><time>2026-04-30T14:19:01.339Z</time></trkpt><trkpt lat="43.3907017" lon="11.2493633"><ele>224.0</ele><time>2026-04-30T14:19:02.339Z</time></trkpt><trkpt lat="43.39074" lon="11.2490033"><ele>222.5</ele><time>2026-04-30T14:19:03.339Z</time></trkpt><trkpt lat="43.3908017" lon="11.2486617"><ele>221.0</ele><time>2026-04-30T14:19:04.339Z</time></trkpt><trkpt lat="43.390865" lon="11.2483167"><ele>219.0</ele><time>2026-04-30T14:19:05.339Z</time></trkpt><trkpt lat="43.3909483" lon="11.2479883"><ele>217.0</ele><time>2026-04-30T14:19:06.338Z</time></trkpt><trkpt lat="43.391055" lon="11.2476617"><ele>217.0</ele><time>2026-04-30T14:19:07.339Z</time></trkpt><trkpt lat="43.3911733" lon="11.2473383"><ele>217.0</ele><time>2026-04-30T14:19:08.339Z</time></trkpt><trkpt lat="43.3913033" lon="11.2470133"><ele>217.5</ele><time>2026-04-30T14:19:09.339Z</time></trkpt><trkpt lat="43.3914467" lon="11.2466933"><ele>218.0</ele><time>2026-04-30T14:19:10.338Z</time></trkpt><trkpt lat="43.391585" lon="11.24637"><ele>218.0</ele><time>2026-04-30T14:19:11.338Z</time></trkpt><trkpt lat="43.39172" lon="11.2460417"><ele>218.0</ele><time>2026-04-30T14:19:12.339Z</time></trkpt><trkpt lat="43.39185" lon="11.245715"><ele>214.5</ele><time>2026-04-30T14:19:13.339Z</time></trkpt><trkpt lat="43.3919617" lon="11.245375"><ele>211.0</ele><time>2026-04-30T14:19:14.339Z</time></trkpt><trkpt lat="43.3920483" lon="11.245035"><ele>211.5</ele><time>2026-04-30T14:19:15.339Z</time></trkpt><trkpt lat="43.3921183" lon="11.2446933"><ele>212.0</ele><time>2026-04-30T14:19:16.339Z</time></trkpt><trkpt lat="43.3921867" lon="11.2443517"><ele>212.0</ele><time>2026-04-30T14:19:17.339Z</time></trkpt><trkpt lat="43.392245" lon="11.2440033"><ele>212.0</ele><time>2026-04-30T14:19:18.338Z</time></trkpt><trkpt lat="43.3922833" lon="11.2436533"><ele>212.0</ele><time>2026-04-30T14:19:19.339Z</time></trkpt><trkpt lat="43.3923" lon="11.24329"><ele>212.0</ele><time>2026-04-30T14:19:20.339Z</time></trkpt><trkpt lat="43.392305" lon="11.2429233"><ele>212.0</ele><time>2026-04-30T14:19:21.339Z</time></trkpt><trkpt lat="43.3922933" lon="11.24256"><ele>212.0</ele><time>2026-04-30T14:19:22.339Z</time></trkpt><trkpt lat="43.3922717" lon="11.242195"><ele>211.0</ele><time>2026-04-30T14:19:23.339Z</time></trkpt><trkpt lat="43.3922383" lon="11.2418167"><ele>210.0</ele><time>2026-04-30T14:19:24.339Z</time></trkpt><trkpt lat="43.392195" lon="11.2414333"><ele>223.0</ele><time>2026-04-30T14:19:25.339Z</time></trkpt><trkpt lat="43.3921433" lon="11.2410483"><ele>236.0</ele><time>2026-04-30T14:19:26.339Z</time></trkpt><trkpt lat="43.39209" lon="11.2406633"><ele>232.0</ele><time>2026-04-30T14:19:27.339Z</time></trkpt><trkpt lat="43.3920567" lon="11.2402833"><ele>228.0</ele><time>2026-04-30T14:19:28.339Z</time></trkpt><trkpt lat="43.3920133" lon="11.2398917"><ele>227.5</ele><time>2026-04-30T14:19:29.339Z</time></trkpt><trkpt lat="43.3919833" lon="11.2394983"><ele>227.0</ele><time>2026-04-30T14:19:30.338Z</time></trkpt><trkpt lat="43.39198" lon="11.239115"><ele>227.5</ele><time>2026-04-30T14:19:31.339Z</time></trkpt><trkpt lat="43.3919917" lon="11.2387233"><ele>228.0</ele><time>2026-04-30T14:19:32.339Z</time></trkpt><trkpt lat="43.39202" lon="11.238325"><ele>226.0</ele><time>2026-04-30T14:19:33.339Z</time></trkpt><trkpt lat="43.39206" lon="11.23793"><ele>224.0</ele><time>2026-04-30T14:19:34.339Z</time></trkpt><trkpt lat="43.392115" lon="11.237545"><ele>217.5</ele><time>2026-04-30T14:19:35.339Z</time></trkpt><trkpt lat="43.3921833" lon="11.2371633"><ele>211.0</ele><time>2026-04-30T14:19:36.339Z</time></trkpt><trkpt lat="43.39226" lon="11.2367917"><ele>210.5</ele><time>2026-04-30T14:19:37.338Z</time></trkpt><trkpt lat="43.392365" lon="11.236435"><ele>210.0</ele><time>2026-04-30T14:19:38.339Z</time></trkpt><trkpt lat="43.3924783" lon="11.2360767"><ele>210.0</ele><time>2026-04-30T14:19:39.339Z</time></trkpt><trkpt lat="43.3926" lon="11.2357167"><ele>210.0</ele><time>2026-04-30T14:19:40.339Z</time></trkpt><trkpt lat="43.3927167" lon="11.2353633"><ele>212.0</ele><time>2026-04-30T14:19:41.339Z</time></trkpt><trkpt lat="43.392825" lon="11.234995"><ele>214.0</ele><time>2026-04-30T14:19:42.339Z</time></trkpt><trkpt lat="43.3929533" lon="11.2346317"><ele>213.5</ele><time>2026-04-30T14:19:43.338Z</time></trkpt><trkpt lat="43.3930767" lon="11.2342617"><ele>213.0</ele><time>2026-04-30T14:19:44.339Z</time></trkpt><trkpt lat="43.3931983" lon="11.2338967"><ele>213.0</ele><time>2026-04-30T14:19:45.339Z</time></trkpt><trkpt lat="43.3933183" lon="11.2335217"><ele>213.0</ele><time>2026-04-30T14:19:46.338Z</time></trkpt><trkpt lat="43.3934433" lon="11.2331533"><ele>215.0</ele><time>2026-04-30T14:19:47.339Z</time></trkpt><trkpt lat="43.39357" lon="11.2327883"><ele>217.0</ele><time>2026-04-30T14:19:48.338Z</time></trkpt><trkpt lat="43.3936967" lon="11.23242"><ele>219.0</ele><time>2026-04-30T14:19:49.339Z</time></trkpt><trkpt lat="43.3938183" lon="11.2320517"><ele>221.0</ele><time>2026-04-30T14:19:50.339Z</time></trkpt><trkpt lat="43.3939433" lon="11.2316883"><ele>218.5</ele><time>2026-04-30T14:19:51.339Z</time></trkpt><trkpt lat="43.3940633" lon="11.2313367"><ele>216.0</ele><time>2026-04-30T14:19:52.339Z</time></trkpt><trkpt lat="43.3941767" lon="11.2309717"><ele>219.5</ele><time>2026-04-30T14:19:53.338Z</time></trkpt><trkpt lat="43.39427" lon="11.2305967"><ele>223.0</ele><time>2026-04-30T14:19:54.339Z</time></trkpt><trkpt lat="43.39435" lon="11.230225"><ele>223.0</ele><time>2026-04-30T14:19:55.339Z</time></trkpt><trkpt lat="43.394425" lon="11.229865"><ele>223.0</ele><time>2026-04-30T14:19:56.339Z</time></trkpt><trkpt lat="43.3944817" lon="11.2294883"><ele>224.5</ele><time>2026-04-30T14:19:57.339Z</time></trkpt><trkpt lat="43.3945117" lon="11.22912"><ele>226.0</ele><time>2026-04-30T14:19:58.339Z</time></trkpt><trkpt lat="43.3945233" lon="11.228745"><ele>222.0</ele><time>2026-04-30T14:19:59.339Z</time></trkpt><trkpt lat="43.3945217" lon="11.2283633"><ele>218.0</ele><time>2026-04-30T14:20:00.339Z</time></trkpt><trkpt lat="43.3945067" lon="11.2279833"><ele>215.0</ele><time>2026-04-30T14:20:01.339Z</time></trkpt><trkpt lat="43.394475" lon="11.2276017"><ele>212.0</ele><time>2026-04-30T14:20:02.339Z</time></trkpt><trkpt lat="43.39444" lon="11.2272133"><ele>211.0</ele><time>2026-04-30T14:20:03.338Z</time></trkpt><trkpt lat="43.39439" lon="11.2268183"><ele>210.0</ele><time>2026-04-30T14:20:04.339Z</time></trkpt><trkpt lat="43.3943367" lon="11.226425"><ele>208.5</ele><time>2026-04-30T14:20:05.339Z</time></trkpt><trkpt lat="43.3942867" lon="11.22603"><ele>207.0</ele><time>2026-04-30T14:20:06.339Z</time></trkpt><trkpt lat="43.39424" lon="11.2256367"><ele>207.0</ele><time>2026-04-30T14:20:07.339Z</time></trkpt><trkpt lat="43.3942017" lon="11.2252383"><ele>207.0</ele><time>2026-04-30T14:20:08.339Z</time></trkpt><trkpt lat="43.39415" lon="11.2248383"><ele>207.0</ele><time>2026-04-30T14:20:09.339Z</time></trkpt><trkpt lat="43.3941033" lon="11.2244333"><ele>207.0</ele><time>2026-04-30T14:20:10.339Z</time></trkpt><trkpt lat="43.3940633" lon="11.2240317"><ele>206.0</ele><time>2026-04-30T14:20:11.338Z</time></trkpt><trkpt lat="43.3940133" lon="11.2236267"><ele>205.0</ele><time>2026-04-30T14:20:12.339Z</time></trkpt><trkpt lat="43.3939683" lon="11.2232283"><ele>204.0</ele><time>2026-04-30T14:20:13.338Z</time></trkpt><trkpt lat="43.393925" lon="11.22283"><ele>203.0</ele><time>2026-04-30T14:20:14.338Z</time></trkpt><trkpt lat="43.3938783" lon="11.2224317"><ele>212.5</ele><time>2026-04-30T14:20:15.338Z</time></trkpt><trkpt lat="43.3938333" lon="11.22204"><ele>222.0</ele><time>2026-04-30T14:20:16.339Z</time></trkpt><trkpt lat="43.3937983" lon="11.2216483"><ele>220.5</ele><time>2026-04-30T14:20:17.339Z</time></trkpt><trkpt lat="43.3937767" lon="11.2212567"><ele>219.0</ele><time>2026-04-30T14:20:18.339Z</time></trkpt><trkpt lat="43.3937667" lon="11.2208667"><ele>214.5</ele><time>2026-04-30T14:20:19.338Z</time></trkpt><trkpt lat="43.393765" lon="11.220475"><ele>210.0</ele><time>2026-04-30T14:20:20.339Z</time></trkpt><trkpt lat="43.39377" lon="11.2200917"><ele>207.0</ele><time>2026-04-30T14:20:21.339Z</time></trkpt><trkpt lat="43.39379" lon="11.2197117"><ele>204.0</ele><time>2026-04-30T14:20:22.339Z</time></trkpt><trkpt lat="43.39381" lon="11.21933"><ele>201.5</ele><time>2026-04-30T14:20:23.339Z</time></trkpt><trkpt lat="43.3938433" lon="11.2189433"><ele>199.0</ele><time>2026-04-30T14:20:24.339Z</time></trkpt><trkpt lat="43.3938733" lon="11.218555"><ele>199.0</ele><time>2026-04-30T14:20:25.339Z</time></trkpt><trkpt lat="43.3939" lon="11.2181683"><ele>199.0</ele><time>2026-04-30T14:20:26.339Z</time></trkpt><trkpt lat="43.39393" lon="11.2177833"><ele>198.0</ele><time>2026-04-30T14:20:27.339Z</time></trkpt><trkpt lat="43.3939683" lon="11.2173917"><ele>197.0</ele><time>2026-04-30T14:20:28.338Z</time></trkpt><trkpt lat="43.3940017" lon="11.2170083"><ele>197.0</ele><time>2026-04-30T14:20:29.339Z</time></trkpt><trkpt lat="43.3940283" lon="11.2166283"><ele>197.0</ele><time>2026-04-30T14:20:30.338Z</time></trkpt><trkpt lat="43.394065" lon="11.2162517"><ele>197.0</ele><time>2026-04-30T14:20:31.339Z</time></trkpt><trkpt lat="43.3941017" lon="11.215865"><ele>197.0</ele><time>2026-04-30T14:20:32.339Z</time></trkpt><trkpt lat="43.3941367" lon="11.215485"><ele>197.5</ele><time>2026-04-30T14:20:33.339Z</time></trkpt><trkpt lat="43.3941683" lon="11.2151"><ele>198.0</ele><time>2026-04-30T14:20:34.339Z</time></trkpt><trkpt lat="43.394205" lon="11.214715"><ele>197.0</ele><time>2026-04-30T14:20:35.339Z</time></trkpt><trkpt lat="43.3942333" lon="11.21433"><ele>196.0</ele><time>2026-04-30T14:20:36.339Z</time></trkpt><trkpt lat="43.3942683" lon="11.2139483"><ele>196.0</ele><time>2026-04-30T14:20:37.339Z</time></trkpt><trkpt lat="43.3942983" lon="11.2135617"><ele>196.0</ele><time>2026-04-30T14:20:38.339Z</time></trkpt><trkpt lat="43.394335" lon="11.2131767"><ele>196.0</ele><time>2026-04-30T14:20:39.339Z</time></trkpt><trkpt lat="43.39437" lon="11.2127733"><ele>196.0</ele><time>2026-04-30T14:20:40.339Z</time></trkpt><trkpt lat="43.3944" lon="11.2123683"><ele>195.0</ele><time>2026-04-30T14:20:41.339Z</time></trkpt><trkpt lat="43.3944367" lon="11.2119733"><ele>194.0</ele><time>2026-04-30T14:20:42.339Z</time></trkpt><trkpt lat="43.3944733" lon="11.2115767"><ele>194.0</ele><time>2026-04-30T14:20:43.339Z</time></trkpt><trkpt lat="43.394505" lon="11.211185"><ele>194.0</ele><time>2026-04-30T14:20:44.339Z</time></trkpt><trkpt lat="43.3945383" lon="11.2107767"><ele>195.0</ele><time>2026-04-30T14:20:45.339Z</time></trkpt><trkpt lat="43.3945733" lon="11.2103833"><ele>196.0</ele><time>2026-04-30T14:20:46.339Z</time></trkpt><trkpt lat="43.3946083" lon="11.2099917"><ele>197.5</ele><time>2026-04-30T14:20:47.339Z</time></trkpt><trkpt lat="43.3946417" lon="11.2096017"><ele>199.0</ele><time>2026-04-30T14:20:48.339Z</time></trkpt><trkpt lat="43.394675" lon="11.2092133"><ele>203.5</ele><time>2026-04-30T14:20:49.339Z</time></trkpt><trkpt lat="43.3947067" lon="11.2088183"><ele>208.0</ele><time>2026-04-30T14:20:50.339Z</time></trkpt><trkpt lat="43.3947433" lon="11.208425"><ele>208.0</ele><time>2026-04-30T14:20:51.339Z</time></trkpt><trkpt lat="43.39478" lon="11.2080217"><ele>208.0</ele><time>2026-04-30T14:20:52.338Z</time></trkpt><trkpt lat="43.3948183" lon="11.20763"><ele>209.0</ele><time>2026-04-30T14:20:53.337Z</time></trkpt><trkpt lat="43.394855" lon="11.207245"><ele>210.0</ele><time>2026-04-30T14:20:54.338Z</time></trkpt><trkpt lat="43.3948883" lon="11.20686"><ele>211.5</ele><time>2026-04-30T14:20:55.338Z</time></trkpt><trkpt lat="43.39492" lon="11.2064817"><ele>213.0</ele><time>2026-04-30T14:20:56.337Z</time></trkpt><trkpt lat="43.3949417" lon="11.2060967"><ele>213.0</ele><time>2026-04-30T14:20:57.338Z</time></trkpt><trkpt lat="43.39497" lon="11.2057217"><ele>213.0</ele><time>2026-04-30T14:20:58.337Z</time></trkpt><trkpt lat="43.3950117" lon="11.2053567"><ele>213.0</ele><time>2026-04-30T14:20:59.337Z</time></trkpt><trkpt lat="43.3950467" lon="11.2049833"><ele>213.0</ele><time>2026-04-30T14:21:00.338Z</time></trkpt><trkpt lat="43.3951033" lon="11.20462"><ele>214.5</ele><time>2026-04-30T14:21:01.338Z</time></trkpt><trkpt lat="43.3951667" lon="11.204255"><ele>216.0</ele><time>2026-04-30T14:21:02.337Z</time></trkpt><trkpt lat="43.3952367" lon="11.2038783"><ele>216.0</ele><time>2026-04-30T14:21:03.337Z</time></trkpt><trkpt lat="43.3953267" lon="11.2035283"><ele>216.0</ele><time>2026-04-30T14:21:04.338Z</time></trkpt><trkpt lat="43.3954333" lon="11.2031883"><ele>216.0</ele><time>2026-04-30T14:21:05.338Z</time></trkpt><trkpt lat="43.39555" lon="11.202855"><ele>216.0</ele><time>2026-04-30T14:21:06.338Z</time></trkpt><trkpt lat="43.395695" lon="11.202525"><ele>215.5</ele><time>2026-04-30T14:21:07.338Z</time></trkpt><trkpt lat="43.3958367" lon="11.2022"><ele>215.0</ele><time>2026-04-30T14:21:08.337Z</time></trkpt><trkpt lat="43.39599" lon="11.2018817"><ele>215.0</ele><time>2026-04-30T14:21:09.337Z</time></trkpt><trkpt lat="43.39614" lon="11.2015717"><ele>215.0</ele><time>2026-04-30T14:21:10.337Z</time></trkpt><trkpt lat="43.3962917" lon="11.2012583"><ele>216.0</ele><time>2026-04-30T14:21:11.337Z</time></trkpt><trkpt lat="43.3964433" lon="11.2009317"><ele>217.0</ele><time>2026-04-30T14:21:12.338Z</time></trkpt><trkpt lat="43.3965983" lon="11.2006067"><ele>217.0</ele><time>2026-04-30T14:21:13.338Z</time></trkpt><trkpt lat="43.3967533" lon="11.20029"><ele>217.0</ele><time>2026-04-30T14:21:14.338Z</time></trkpt><trkpt lat="43.3969067" lon="11.1999633"><ele>218.5</ele><time>2026-04-30T14:21:15.338Z</time></trkpt><trkpt lat="43.3970667" lon="11.199635"><ele>220.0</ele><time>2026-04-30T14:21:16.338Z</time></trkpt><trkpt lat="43.3972283" lon="11.1993133"><ele>216.5</ele><time>2026-04-30T14:21:17.338Z</time></trkpt><trkpt lat="43.3973817" lon="11.198985"><ele>213.0</ele><time>2026-04-30T14:21:18.338Z</time></trkpt><trkpt lat="43.397535" lon="11.19866"><ele>213.0</ele><time>2026-04-30T14:21:19.338Z</time></trkpt><trkpt lat="43.3976983" lon="11.19833"><ele>213.0</ele><time>2026-04-30T14:21:20.338Z</time></trkpt><trkpt lat="43.397865" lon="11.1980033"><ele>212.5</ele><time>2026-04-30T14:21:21.338Z</time></trkpt><trkpt lat="43.398025" lon="11.1976717"><ele>212.0</ele><time>2026-04-30T14:21:22.338Z</time></trkpt><trkpt lat="43.398175" lon="11.1973483"><ele>210.5</ele><time>2026-04-30T14:21:23.338Z</time></trkpt><trkpt lat="43.39832" lon="11.19703"><ele>209.0</ele><time>2026-04-30T14:21:24.338Z</time></trkpt><trkpt lat="43.39847" lon="11.1967083"><ele>209.0</ele><time>2026-04-30T14:21:25.338Z</time></trkpt><trkpt lat="43.3986267" lon="11.1963983"><ele>209.0</ele><time>2026-04-30T14:21:26.338Z</time></trkpt><trkpt lat="43.3987783" lon="11.196085"><ele>209.5</ele><time>2026-04-30T14:21:27.338Z</time></trkpt><trkpt lat="43.3989267" lon="11.1957717"><ele>210.0</ele><time>2026-04-30T14:21:28.338Z</time></trkpt><trkpt lat="43.3990717" lon="11.19546"><ele>210.0</ele><time>2026-04-30T14:21:29.338Z</time></trkpt><trkpt lat="43.3992183" lon="11.1951617"><ele>210.0</ele><time>2026-04-30T14:21:30.338Z</time></trkpt><trkpt lat="43.3993567" lon="11.1948633"><ele>210.33333333333331</ele><time>2026-04-30T14:21:31.338Z</time></trkpt><trkpt lat="43.3994867" lon="11.1945983"><ele>210.66666666666666</ele><time>2026-04-30T14:21:32.338Z</time></trkpt><trkpt lat="43.3996083" lon="11.19436"><ele>211.0</ele><time>2026-04-30T14:21:33.337Z</time></trkpt><trkpt lat="43.399715" lon="11.1941217"><ele>210.66666666666666</ele><time>2026-04-30T14:21:34.337Z</time></trkpt><trkpt lat="43.3998283" lon="11.1938867"><ele>210.33333333333331</ele><time>2026-04-30T14:21:35.338Z</time></trkpt><trkpt lat="43.3999467" lon="11.1936567"><ele>210.0</ele><time>2026-04-30T14:21:36.337Z</time></trkpt><trkpt lat="43.40007" lon="11.1934067"><ele>209.5</ele><time>2026-04-30T14:21:37.338Z</time></trkpt><trkpt lat="43.4001983" lon="11.1931433"><ele>209.0</ele><time>2026-04-30T14:21:38.337Z</time></trkpt><trkpt lat="43.4003367" lon="11.192865"><ele>209.0</ele><time>2026-04-30T14:21:39.338Z</time></trkpt><trkpt lat="43.40048" lon="11.1925733"><ele>209.0</ele><time>2026-04-30T14:21:40.338Z</time></trkpt><trkpt lat="43.4006267" lon="11.192265"><ele>209.5</ele><time>2026-04-30T14:21:41.338Z</time></trkpt><trkpt lat="43.400775" lon="11.191955"><ele>210.0</ele><time>2026-04-30T14:21:42.338Z</time></trkpt><trkpt lat="43.4009217" lon="11.1916433"><ele>210.0</ele><time>2026-04-30T14:21:43.337Z</time></trkpt><trkpt lat="43.4010733" lon="11.1913317"><ele>210.0</ele><time>2026-04-30T14:21:44.338Z</time></trkpt><trkpt lat="43.4012267" lon="11.191015"><ele>209.5</ele><time>2026-04-30T14:21:45.338Z</time></trkpt><trkpt lat="43.40138" lon="11.1907"><ele>209.0</ele><time>2026-04-30T14:21:46.337Z</time></trkpt><trkpt lat="43.401535" lon="11.1903733"><ele>209.0</ele><time>2026-04-30T14:21:47.337Z</time></trkpt><trkpt lat="43.4016883" lon="11.1900633"><ele>209.0</ele><time>2026-04-30T14:21:48.338Z</time></trkpt><trkpt lat="43.4018433" lon="11.189745"><ele>209.0</ele><time>2026-04-30T14:21:49.338Z</time></trkpt><trkpt lat="43.401995" lon="11.1894317"><ele>209.0</ele><time>2026-04-30T14:21:50.338Z</time></trkpt><trkpt lat="43.4021467" lon="11.189125"><ele>210.0</ele><time>2026-04-30T14:21:51.338Z</time></trkpt><trkpt lat="43.4023" lon="11.1888133"><ele>211.0</ele><time>2026-04-30T14:21:52.337Z</time></trkpt><trkpt lat="43.402445" lon="11.1884917"><ele>210.5</ele><time>2026-04-30T14:21:53.338Z</time></trkpt><trkpt lat="43.4025983" lon="11.188175"><ele>210.0</ele><time>2026-04-30T14:21:54.338Z</time></trkpt><trkpt lat="43.4027533" lon="11.1878733"><ele>210.0</ele><time>2026-04-30T14:21:55.338Z</time></trkpt><trkpt lat="43.4029067" lon="11.187565"><ele>210.0</ele><time>2026-04-30T14:21:56.337Z</time></trkpt><trkpt lat="43.4030583" lon="11.187255"><ele>211.0</ele><time>2026-04-30T14:21:57.337Z</time></trkpt><trkpt lat="43.4032117" lon="11.1869483"><ele>212.0</ele><time>2026-04-30T14:21:58.338Z</time></trkpt><trkpt lat="43.4033583" lon="11.1866383"><ele>212.5</ele><time>2026-04-30T14:21:59.337Z</time></trkpt><trkpt lat="43.403505" lon="11.1863233"><ele>213.0</ele><time>2026-04-30T14:22:00.338Z</time></trkpt><trkpt lat="43.40365" lon="11.1860167"><ele>213.0</ele><time>2026-04-30T14:22:01.338Z</time></trkpt><trkpt lat="43.4038033" lon="11.1857083"><ele>213.0</ele><time>2026-04-30T14:22:02.337Z</time></trkpt><trkpt lat="43.4039483" lon="11.1853967"><ele>213.5</ele><time>2026-04-30T14:22:03.337Z</time></trkpt><trkpt lat="43.4041" lon="11.1850867"><ele>214.0</ele><time>2026-04-30T14:22:04.337Z</time></trkpt><trkpt lat="43.40425" lon="11.1847717"><ele>215.5</ele><time>2026-04-30T14:22:05.338Z</time></trkpt><trkpt lat="43.4044017" lon="11.1844517"><ele>217.0</ele><time>2026-04-30T14:22:06.338Z</time></trkpt><trkpt lat="43.4045583" lon="11.184135"><ele>218.0</ele><time>2026-04-30T14:22:07.338Z</time></trkpt><trkpt lat="43.4047067" lon="11.183815"><ele>219.0</ele><time>2026-04-30T14:22:08.338Z</time></trkpt><trkpt lat="43.4048617" lon="11.18349"><ele>220.5</ele><time>2026-04-30T14:22:09.337Z</time></trkpt><trkpt lat="43.4050183" lon="11.1831717"><ele>222.0</ele><time>2026-04-30T14:22:10.338Z</time></trkpt><trkpt lat="43.4051767" lon="11.1828533"><ele>222.0</ele><time>2026-04-30T14:22:11.338Z</time></trkpt><trkpt lat="43.4053283" lon="11.1825317"><ele>222.0</ele><time>2026-04-30T14:22:12.337Z</time></trkpt><trkpt lat="43.4054767" lon="11.182205"><ele>223.0</ele><time>2026-04-30T14:22:13.338Z</time></trkpt><trkpt lat="43.4056233" lon="11.18189"><ele>224.0</ele><time>2026-04-30T14:22:14.338Z</time></trkpt><trkpt lat="43.405775" lon="11.1815617"><ele>223.5</ele><time>2026-04-30T14:22:15.338Z</time></trkpt><trkpt lat="43.4059183" lon="11.1812567"><ele>223.0</ele><time>2026-04-30T14:22:16.338Z</time></trkpt><trkpt lat="43.4060817" lon="11.18095"><ele>222.0</ele><time>2026-04-30T14:22:17.338Z</time></trkpt><trkpt lat="43.4062433" lon="11.1806433"><ele>221.0</ele><time>2026-04-30T14:22:18.338Z</time></trkpt><trkpt lat="43.4063983" lon="11.180335"><ele>221.0</ele><time>2026-04-30T14:22:19.337Z</time></trkpt><trkpt lat="43.406545" lon="11.1800167"><ele>221.0</ele><time>2026-04-30T14:22:20.338Z</time></trkpt><trkpt lat="43.406685" lon="11.179695"><ele>219.5</ele><time>2026-04-30T14:22:21.338Z</time></trkpt><trkpt lat="43.40683" lon="11.1793733"><ele>218.0</ele><time>2026-04-30T14:22:22.338Z</time></trkpt><trkpt lat="43.406965" lon="11.1790533"><ele>217.0</ele><time>2026-04-30T14:22:23.338Z</time></trkpt><trkpt lat="43.407095" lon="11.17872"><ele>216.0</ele><time>2026-04-30T14:22:24.338Z</time></trkpt><trkpt lat="43.4072233" lon="11.1783983"><ele>219.0</ele><time>2026-04-30T14:22:25.338Z</time></trkpt><trkpt lat="43.407335" lon="11.17806"><ele>222.0</ele><time>2026-04-30T14:22:26.338Z</time></trkpt><trkpt lat="43.4074533" lon="11.1777283"><ele>222.0</ele><time>2026-04-30T14:22:27.337Z</time></trkpt><trkpt lat="43.4075733" lon="11.1773733"><ele>222.0</ele><time>2026-04-30T14:22:28.337Z</time></trkpt><trkpt lat="43.4076817" lon="11.1770283"><ele>220.5</ele><time>2026-04-30T14:22:29.338Z</time></trkpt><trkpt lat="43.4077883" lon="11.176685"><ele>219.0</ele><time>2026-04-30T14:22:30.338Z</time></trkpt><trkpt lat="43.40788" lon="11.1763283"><ele>218.0</ele><time>2026-04-30T14:22:31.337Z</time></trkpt><trkpt lat="43.4079783" lon="11.175975"><ele>217.0</ele><time>2026-04-30T14:22:32.337Z</time></trkpt><trkpt lat="43.4080667" lon="11.1756267"><ele>222.0</ele><time>2026-04-30T14:22:33.338Z</time></trkpt><trkpt lat="43.40817" lon="11.1752717"><ele>227.0</ele><time>2026-04-30T14:22:34.338Z</time></trkpt><trkpt lat="43.4082683" lon="11.1749117"><ele>226.0</ele><time>2026-04-30T14:22:35.338Z</time></trkpt><trkpt lat="43.4083733" lon="11.1745483"><ele>225.0</ele><time>2026-04-30T14:22:36.338Z</time></trkpt><trkpt lat="43.4084883" lon="11.1741617"><ele>224.0</ele><time>2026-04-30T14:22:37.338Z</time></trkpt><trkpt lat="43.4086017" lon="11.173775"><ele>223.0</ele><time>2026-04-30T14:22:38.338Z</time></trkpt><trkpt lat="43.4087117" lon="11.1734083"><ele>223.0</ele><time>2026-04-30T14:22:39.338Z</time></trkpt><trkpt lat="43.4088183" lon="11.1730383"><ele>223.0</ele><time>2026-04-30T14:22:40.337Z</time></trkpt><trkpt lat="43.4089233" lon="11.1726617"><ele>223.5</ele><time>2026-04-30T14:22:41.338Z</time></trkpt><trkpt lat="43.40903" lon="11.1723017"><ele>224.0</ele><time>2026-04-30T14:22:42.338Z</time></trkpt><trkpt lat="43.4091367" lon="11.17195"><ele>224.0</ele><time>2026-04-30T14:22:43.338Z</time></trkpt><trkpt lat="43.4092417" lon="11.1716"><ele>224.0</ele><time>2026-04-30T14:22:44.338Z</time></trkpt><trkpt lat="43.4093433" lon="11.171255"><ele>224.0</ele><time>2026-04-30T14:22:45.338Z</time></trkpt><trkpt lat="43.4094517" lon="11.1708917"><ele>224.0</ele><time>2026-04-30T14:22:46.337Z</time></trkpt><trkpt lat="43.4095567" lon="11.17054"><ele>224.0</ele><time>2026-04-30T14:22:47.338Z</time></trkpt><trkpt lat="43.4096617" lon="11.1701767"><ele>224.0</ele><time>2026-04-30T14:22:48.338Z</time></trkpt><trkpt lat="43.409765" lon="11.1698133"><ele>224.0</ele><time>2026-04-30T14:22:49.338Z</time></trkpt><trkpt lat="43.4098717" lon="11.1694517"><ele>224.0</ele><time>2026-04-30T14:22:50.337Z</time></trkpt><trkpt lat="43.409975" lon="11.1691"><ele>224.5</ele><time>2026-04-30T14:22:51.338Z</time></trkpt><trkpt lat="43.41008" lon="11.1687467"><ele>225.0</ele><time>2026-04-30T14:22:52.337Z</time></trkpt><trkpt lat="43.4101883" lon="11.1683917"><ele>226.0</ele><time>2026-04-30T14:22:53.338Z</time></trkpt><trkpt lat="43.4103017" lon="11.1680317"><ele>227.0</ele><time>2026-04-30T14:22:54.338Z</time></trkpt><trkpt lat="43.4104133" lon="11.1676933"><ele>226.5</ele><time>2026-04-30T14:22:55.337Z</time></trkpt><trkpt lat="43.4105267" lon="11.1673467"><ele>226.0</ele><time>2026-04-30T14:22:56.338Z</time></trkpt><trkpt lat="43.410635" lon="11.1670017"><ele>226.0</ele><time>2026-04-30T14:22:57.338Z</time></trkpt><trkpt lat="43.41076" lon="11.1666667"><ele>226.0</ele><time>2026-04-30T14:22:58.338Z</time></trkpt><trkpt lat="43.4108883" lon="11.1663517"><ele>226.5</ele><time>2026-04-30T14:22:59.337Z</time></trkpt><trkpt lat="43.411025" lon="11.1660317"><ele>227.0</ele><time>2026-04-30T14:23:00.338Z</time></trkpt><trkpt lat="43.4111617" lon="11.165715"><ele>227.0</ele><time>2026-04-30T14:23:01.338Z</time></trkpt><trkpt lat="43.4113133" lon="11.1654083"><ele>227.0</ele><time>2026-04-30T14:23:02.338Z</time></trkpt><trkpt lat="43.4114683" lon="11.1650917"><ele>226.5</ele><time>2026-04-30T14:23:03.337Z</time></trkpt><trkpt lat="43.411635" lon="11.164795"><ele>226.0</ele><time>2026-04-30T14:23:04.338Z</time></trkpt><trkpt lat="43.4118067" lon="11.16449"><ele>226.0</ele><time>2026-04-30T14:23:05.338Z</time></trkpt><trkpt lat="43.4119783" lon="11.1641983"><ele>226.0</ele><time>2026-04-30T14:23:06.338Z</time></trkpt><trkpt lat="43.41216" lon="11.163915"><ele>225.5</ele><time>2026-04-30T14:23:07.337Z</time></trkpt><trkpt lat="43.4123467" lon="11.16364"><ele>225.0</ele><time>2026-04-30T14:23:08.338Z</time></trkpt><trkpt lat="43.4125467" lon="11.1633733"><ele>226.0</ele><time>2026-04-30T14:23:09.337Z</time></trkpt><trkpt lat="43.41274" lon="11.16311"><ele>227.0</ele><time>2026-04-30T14:23:10.337Z</time></trkpt><trkpt lat="43.4129267" lon="11.1628333"><ele>226.5</ele><time>2026-04-30T14:23:11.338Z</time></trkpt><trkpt lat="43.4131117" lon="11.16255"><ele>226.0</ele><time>2026-04-30T14:23:12.338Z</time></trkpt><trkpt lat="43.4132967" lon="11.1622733"><ele>227.0</ele><time>2026-04-30T14:23:13.338Z</time></trkpt><trkpt lat="43.41349" lon="11.1619967"><ele>228.0</ele><time>2026-04-30T14:23:14.338Z</time></trkpt><trkpt lat="43.4136833" lon="11.1617183"><ele>229.5</ele><time>2026-04-30T14:23:15.338Z</time></trkpt><trkpt lat="43.4138767" lon="11.16144"><ele>231.0</ele><time>2026-04-30T14:23:16.338Z</time></trkpt><trkpt lat="43.4140717" lon="11.161165"><ele>231.0</ele><time>2026-04-30T14:23:17.338Z</time></trkpt><trkpt lat="43.41426" lon="11.1608883"><ele>231.0</ele><time>2026-04-30T14:23:18.338Z</time></trkpt><trkpt lat="43.4144567" lon="11.1606083"><ele>230.0</ele><time>2026-04-30T14:23:19.338Z</time></trkpt><trkpt lat="43.4146483" lon="11.16033"><ele>229.0</ele><time>2026-04-30T14:23:20.338Z</time></trkpt><trkpt lat="43.4148417" lon="11.1600567"><ele>229.5</ele><time>2026-04-30T14:23:21.338Z</time></trkpt><trkpt lat="43.4150317" lon="11.1597767"><ele>230.0</ele><time>2026-04-30T14:23:22.338Z</time></trkpt><trkpt lat="43.4152233" lon="11.1595067"><ele>230.0</ele><time>2026-04-30T14:23:23.337Z</time></trkpt><trkpt lat="43.4154067" lon="11.15923"><ele>230.0</ele><time>2026-04-30T14:23:24.338Z</time></trkpt><trkpt lat="43.4155917" lon="11.15895"><ele>230.5</ele><time>2026-04-30T14:23:25.337Z</time></trkpt><trkpt lat="43.41578" lon="11.1586817"><ele>231.0</ele><time>2026-04-30T14:23:26.337Z</time></trkpt><trkpt lat="43.4159667" lon="11.1584083"><ele>231.5</ele><time>2026-04-30T14:23:27.338Z</time></trkpt><trkpt lat="43.4161583" lon="11.1581267"><ele>232.0</ele><time>2026-04-30T14:23:28.338Z</time></trkpt><trkpt lat="43.416355" lon="11.1578517"><ele>232.0</ele><time>2026-04-30T14:23:29.338Z</time></trkpt><trkpt lat="43.4165433" lon="11.1575733"><ele>232.0</ele><time>2026-04-30T14:23:30.338Z</time></trkpt><trkpt lat="43.4167283" lon="11.15729"><ele>233.0</ele><time>2026-04-30T14:23:31.338Z</time></trkpt><trkpt lat="43.4169167" lon="11.1570167"><ele>234.0</ele><time>2026-04-30T14:23:32.338Z</time></trkpt><trkpt lat="43.4171117" lon="11.1567417"><ele>233.0</ele><time>2026-04-30T14:23:33.337Z</time></trkpt><trkpt lat="43.4173033" lon="11.156465"><ele>232.0</ele><time>2026-04-30T14:23:34.338Z</time></trkpt><trkpt lat="43.417495" lon="11.1561817"><ele>232.0</ele><time>2026-04-30T14:23:35.338Z</time></trkpt><trkpt lat="43.4176867" lon="11.1559133"><ele>232.0</ele><time>2026-04-30T14:23:36.338Z</time></trkpt><trkpt lat="43.417875" lon="11.155635"><ele>230.5</ele><time>2026-04-30T14:23:37.338Z</time></trkpt><trkpt lat="43.4180633" lon="11.1553633"><ele>229.0</ele><time>2026-04-30T14:23:38.338Z</time></trkpt><trkpt lat="43.41826" lon="11.15509"><ele>228.5</ele><time>2026-04-30T14:23:39.338Z</time></trkpt><trkpt lat="43.4184583" lon="11.15482"><ele>228.0</ele><time>2026-04-30T14:23:40.338Z</time></trkpt><trkpt lat="43.4186467" lon="11.15453"><ele>226.0</ele><time>2026-04-30T14:23:41.338Z</time></trkpt><trkpt lat="43.41884" lon="11.15425"><ele>224.0</ele><time>2026-04-30T14:23:42.338Z</time></trkpt><trkpt lat="43.419035" lon="11.1539733"><ele>223.0</ele><time>2026-04-30T14:23:43.337Z</time></trkpt><trkpt lat="43.419225" lon="11.1536867"><ele>222.0</ele><time>2026-04-30T14:23:44.337Z</time></trkpt><trkpt lat="43.4194183" lon="11.1533983"><ele>223.5</ele><time>2026-04-30T14:23:45.338Z</time></trkpt><trkpt lat="43.4196117" lon="11.1531167"><ele>225.0</ele><time>2026-04-30T14:23:46.338Z</time></trkpt><trkpt lat="43.4198083" lon="11.1528317"><ele>220.5</ele><time>2026-04-30T14:23:47.338Z</time></trkpt><trkpt lat="43.420015" lon="11.1525467"><ele>216.0</ele><time>2026-04-30T14:23:48.337Z</time></trkpt><trkpt lat="43.4202133" lon="11.1522583"><ele>216.0</ele><time>2026-04-30T14:23:49.338Z</time></trkpt><trkpt lat="43.4204133" lon="11.1519717"><ele>216.0</ele><time>2026-04-30T14:23:50.338Z</time></trkpt><trkpt lat="43.42061" lon="11.1516883"><ele>212.0</ele><time>2026-04-30T14:23:51.338Z</time></trkpt><trkpt lat="43.4208067" lon="11.1514017"><ele>208.0</ele><time>2026-04-30T14:23:52.338Z</time></trkpt><trkpt lat="43.4210067" lon="11.1511233"><ele>208.0</ele><time>2026-04-30T14:23:53.338Z</time></trkpt><trkpt lat="43.4212017" lon="11.1508433"><ele>208.0</ele><time>2026-04-30T14:23:54.338Z</time></trkpt><trkpt lat="43.4213933" lon="11.150565"><ele>204.0</ele><time>2026-04-30T14:23:55.338Z</time></trkpt><trkpt lat="43.421585" lon="11.1502883"><ele>200.0</ele><time>2026-04-30T14:23:56.337Z</time></trkpt><trkpt lat="43.421765" lon="11.1500167"><ele>199.5</ele><time>2026-04-30T14:23:57.338Z</time></trkpt><trkpt lat="43.421955" lon="11.149755"><ele>199.0</ele><time>2026-04-30T14:23:58.338Z</time></trkpt><trkpt lat="43.4221383" lon="11.1494833"><ele>194.0</ele><time>2026-04-30T14:23:59.338Z</time></trkpt><trkpt lat="43.4223267" lon="11.14922"><ele>189.0</ele><time>2026-04-30T14:24:00.338Z</time></trkpt><trkpt lat="43.4225133" lon="11.1489533"><ele>189.0</ele><time>2026-04-30T14:24:01.338Z</time></trkpt><trkpt lat="43.4226983" lon="11.1487"><ele>189.0</ele><time>2026-04-30T14:24:02.338Z</time></trkpt><trkpt lat="43.422885" lon="11.1484433"><ele>184.5</ele><time>2026-04-30T14:24:03.337Z</time></trkpt><trkpt lat="43.42306" lon="11.1481767"><ele>180.0</ele><time>2026-04-30T14:24:04.338Z</time></trkpt><trkpt lat="43.4232383" lon="11.1479133"><ele>180.0</ele><time>2026-04-30T14:24:05.338Z</time></trkpt><trkpt lat="43.4234267" lon="11.1476483"><ele>180.0</ele><time>2026-04-30T14:24:06.338Z</time></trkpt><trkpt lat="43.4236083" lon="11.1473933"><ele>180.5</ele><time>2026-04-30T14:24:07.338Z</time></trkpt><trkpt lat="43.4237967" lon="11.1471483"><ele>181.0</ele><time>2026-04-30T14:24:08.338Z</time></trkpt><trkpt lat="43.4239783" lon="11.1468967"><ele>178.0</ele><time>2026-04-30T14:24:09.337Z</time></trkpt><trkpt lat="43.4241617" lon="11.146655"><ele>175.0</ele><time>2026-04-30T14:24:10.338Z</time></trkpt><trkpt lat="43.424345" lon="11.1464083"><ele>175.0</ele><time>2026-04-30T14:24:11.337Z</time></trkpt><trkpt lat="43.4245267" lon="11.1461733"><ele>175.0</ele><time>2026-04-30T14:24:12.338Z</time></trkpt><trkpt lat="43.4247217" lon="11.1459567"><ele>172.5</ele><time>2026-04-30T14:24:13.338Z</time></trkpt><trkpt lat="43.424925" lon="11.145755"><ele>170.0</ele><time>2026-04-30T14:24:14.338Z</time></trkpt><trkpt lat="43.4251383" lon="11.14556"><ele>170.0</ele><time>2026-04-30T14:24:15.338Z</time></trkpt><trkpt lat="43.42536" lon="11.1453783"><ele>170.0</ele><time>2026-04-30T14:24:16.338Z</time></trkpt><trkpt lat="43.4255817" lon="11.1452183"><ele>166.0</ele><time>2026-04-30T14:24:17.338Z</time></trkpt><trkpt lat="43.4258067" lon="11.1450583"><ele>162.0</ele><time>2026-04-30T14:24:18.338Z</time></trkpt><trkpt lat="43.4260417" lon="11.14492"><ele>163.5</ele><time>2026-04-30T14:24:19.337Z</time></trkpt><trkpt lat="43.4262833" lon="11.1448"><ele>165.0</ele><time>2026-04-30T14:24:20.337Z</time></trkpt><trkpt lat="43.4265217" lon="11.14469"><ele>165.0</ele><time>2026-04-30T14:24:21.337Z</time></trkpt><trkpt lat="43.426785" lon="11.1446267"><ele>165.0</ele><time>2026-04-30T14:24:22.337Z</time></trkpt><trkpt lat="43.4270533" lon="11.1445533"><ele>163.5</ele><time>2026-04-30T14:24:23.338Z</time></trkpt><trkpt lat="43.4273217" lon="11.1444967"><ele>162.0</ele><time>2026-04-30T14:24:24.338Z</time></trkpt><trkpt lat="43.42758" lon="11.1444667"><ele>162.0</ele><time>2026-04-30T14:24:25.338Z</time></trkpt><trkpt lat="43.427845" lon="11.1444433"><ele>162.0</ele><time>2026-04-30T14:24:26.338Z</time></trkpt><trkpt lat="43.428105" lon="11.1444283"><ele>161.0</ele><time>2026-04-30T14:24:27.338Z</time></trkpt><trkpt lat="43.4283717" lon="11.1444183"><ele>160.0</ele><time>2026-04-30T14:24:28.337Z</time></trkpt><trkpt lat="43.42864" lon="11.14441"><ele>158.5</ele><time>2026-04-30T14:24:29.338Z</time></trkpt><trkpt lat="43.4289033" lon="11.144405"><ele>157.0</ele><time>2026-04-30T14:24:30.338Z</time></trkpt><trkpt lat="43.4291667" lon="11.1443967"><ele>157.0</ele><time>2026-04-30T14:24:31.338Z</time></trkpt><trkpt lat="43.42944" lon="11.1443933"><ele>157.0</ele><time>2026-04-30T14:24:32.338Z</time></trkpt><trkpt lat="43.4297183" lon="11.144395"><ele>155.0</ele><time>2026-04-30T14:24:33.338Z</time></trkpt><trkpt lat="43.4299917" lon="11.144395"><ele>153.0</ele><time>2026-04-30T14:24:34.337Z</time></trkpt><trkpt lat="43.4302617" lon="11.1443883"><ele>150.0</ele><time>2026-04-30T14:24:35.338Z</time></trkpt><trkpt lat="43.4305317" lon="11.144385"><ele>147.0</ele><time>2026-04-30T14:24:36.338Z</time></trkpt><trkpt lat="43.4308033" lon="11.1443933"><ele>147.0</ele><time>2026-04-30T14:24:37.337Z</time></trkpt><trkpt lat="43.4310733" lon="11.1444033"><ele>147.0</ele><time>2026-04-30T14:24:38.338Z</time></trkpt><trkpt lat="43.43134" lon="11.144425"><ele>145.5</ele><time>2026-04-30T14:24:39.338Z</time></trkpt><trkpt lat="43.4316" lon="11.14446"><ele>144.0</ele><time>2026-04-30T14:24:40.338Z</time></trkpt><trkpt lat="43.4318533" lon="11.1445267"><ele>144.0</ele><time>2026-04-30T14:24:41.338Z</time></trkpt><trkpt lat="43.4321133" lon="11.1446183"><ele>144.0</ele><time>2026-04-30T14:24:42.338Z</time></trkpt><trkpt lat="43.4323583" lon="11.144725"><ele>144.0</ele><time>2026-04-30T14:24:43.337Z</time></trkpt><trkpt lat="43.432605" lon="11.14484"><ele>144.0</ele><time>2026-04-30T14:24:44.338Z</time></trkpt><trkpt lat="43.4328583" lon="11.14497"><ele>139.0</ele><time>2026-04-30T14:24:45.338Z</time></trkpt><trkpt lat="43.433105" lon="11.145115"><ele>134.0</ele><time>2026-04-30T14:24:46.337Z</time></trkpt><trkpt lat="43.43336" lon="11.1452567"><ele>134.0</ele><time>2026-04-30T14:24:47.338Z</time></trkpt><trkpt lat="43.4336183" lon="11.1453967"><ele>134.0</ele><time>2026-04-30T14:24:48.338Z</time></trkpt><trkpt lat="43.4338733" lon="11.1455383"><ele>136.5</ele><time>2026-04-30T14:24:49.338Z</time></trkpt><trkpt lat="43.43413" lon="11.145665"><ele>139.0</ele><time>2026-04-30T14:24:50.338Z</time></trkpt><trkpt lat="43.4343867" lon="11.1457833"><ele>139.5</ele><time>2026-04-30T14:24:51.337Z</time></trkpt><trkpt lat="43.434645" lon="11.1459133"><ele>140.0</ele><time>2026-04-30T14:24:52.338Z</time></trkpt><trkpt lat="43.434905" lon="11.1460417"><ele>140.0</ele><time>2026-04-30T14:24:53.338Z</time></trkpt><trkpt lat="43.4351617" lon="11.146165"><ele>140.0</ele><time>2026-04-30T14:24:54.337Z</time></trkpt><trkpt lat="43.4354167" lon="11.1462933"><ele>142.0</ele><time>2026-04-30T14:24:55.338Z</time></trkpt><trkpt lat="43.4356667" lon="11.1464217"><ele>144.0</ele><time>2026-04-30T14:24:56.338Z</time></trkpt><trkpt lat="43.43592" lon="11.1465433"><ele>147.5</ele><time>2026-04-30T14:24:57.337Z</time></trkpt><trkpt lat="43.4361683" lon="11.1466683"><ele>151.0</ele><time>2026-04-30T14:24:58.338Z</time></trkpt><trkpt lat="43.4364117" lon="11.1467983"><ele>152.0</ele><time>2026-04-30T14:24:59.338Z</time></trkpt><trkpt lat="43.436655" lon="11.14693"><ele>153.0</ele><time>2026-04-30T14:25:00.338Z</time></trkpt><trkpt lat="43.4368867" lon="11.1470467"><ele>153.0</ele><time>2026-04-30T14:25:01.337Z</time></trkpt><trkpt lat="43.437125" lon="11.14718"><ele>153.0</ele><time>2026-04-30T14:25:02.338Z</time></trkpt><trkpt lat="43.437355" lon="11.147335"><ele>157.0</ele><time>2026-04-30T14:25:03.337Z</time></trkpt><trkpt lat="43.43758" lon="11.1475017"><ele>161.0</ele><time>2026-04-30T14:25:04.338Z</time></trkpt><trkpt lat="43.4377883" lon="11.147695"><ele>159.5</ele><time>2026-04-30T14:25:05.337Z</time></trkpt><trkpt lat="43.43799" lon="11.1479083"><ele>158.0</ele><time>2026-04-30T14:25:06.338Z</time></trkpt><trkpt lat="43.438185" lon="11.1481217"><ele>160.0</ele><time>2026-04-30T14:25:07.338Z</time></trkpt><trkpt lat="43.438375" lon="11.1483433"><ele>162.0</ele><time>2026-04-30T14:25:08.338Z</time></trkpt><trkpt lat="43.43857" lon="11.1485733"><ele>162.0</ele><time>2026-04-30T14:25:09.338Z</time></trkpt><trkpt lat="43.4387883" lon="11.1487933"><ele>162.0</ele><time>2026-04-30T14:25:10.338Z</time></trkpt><trkpt lat="43.438995" lon="11.1489967"><ele>161.0</ele><time>2026-04-30T14:25:11.338Z</time></trkpt><trkpt lat="43.43921" lon="11.1491867"><ele>160.0</ele><time>2026-04-30T14:25:12.338Z</time></trkpt><trkpt lat="43.4394483" lon="11.149355"><ele>160.0</ele><time>2026-04-30T14:25:13.338Z</time></trkpt><trkpt lat="43.4396917" lon="11.1495067"><ele>160.0</ele><time>2026-04-30T14:25:14.338Z</time></trkpt><trkpt lat="43.4399283" lon="11.149645"><ele>160.0</ele><time>2026-04-30T14:25:15.337Z</time></trkpt><trkpt lat="43.4401883" lon="11.1497483"><ele>160.0</ele><time>2026-04-30T14:25:16.337Z</time></trkpt><trkpt lat="43.4404433" lon="11.1498467"><ele>153.0</ele><time>2026-04-30T14:25:17.337Z</time></trkpt><trkpt lat="43.4407017" lon="11.149925"><ele>146.0</ele><time>2026-04-30T14:25:18.338Z</time></trkpt><trkpt lat="43.4409633" lon="11.14998"><ele>146.0</ele><time>2026-04-30T14:25:19.338Z</time></trkpt><trkpt lat="43.44124" lon="11.1500067"><ele>146.0</ele><time>2026-04-30T14:25:20.338Z</time></trkpt><trkpt lat="43.4415117" lon="11.1500183"><ele>144.5</ele><time>2026-04-30T14:25:21.338Z</time></trkpt><trkpt lat="43.441795" lon="11.1500233"><ele>143.0</ele><time>2026-04-30T14:25:22.338Z</time></trkpt><trkpt lat="43.4420767" lon="11.1500167"><ele>140.0</ele><time>2026-04-30T14:25:23.338Z</time></trkpt><trkpt lat="43.4423383" lon="11.15"><ele>137.0</ele><time>2026-04-30T14:25:24.338Z</time></trkpt><trkpt lat="43.4425967" lon="11.1499967"><ele>137.0</ele><time>2026-04-30T14:25:25.338Z</time></trkpt><trkpt lat="43.4428767" lon="11.15"><ele>137.0</ele><time>2026-04-30T14:25:26.338Z</time></trkpt><trkpt lat="43.4431617" lon="11.1500033"><ele>134.5</ele><time>2026-04-30T14:25:27.337Z</time></trkpt><trkpt lat="43.44344" lon="11.1500033"><ele>132.0</ele><time>2026-04-30T14:25:28.338Z</time></trkpt><trkpt lat="43.4437033" lon="11.149995"><ele>130.0</ele><time>2026-04-30T14:25:29.338Z</time></trkpt><trkpt lat="43.4439633" lon="11.149995"><ele>128.0</ele><time>2026-04-30T14:25:30.337Z</time></trkpt><trkpt lat="43.44423" lon="11.149995"><ele>128.0</ele><time>2026-04-30T14:25:31.337Z</time></trkpt><trkpt lat="43.44449" lon="11.1499933"><ele>128.0</ele><time>2026-04-30T14:25:32.337Z</time></trkpt><trkpt lat="43.4447583" lon="11.150025"><ele>127.0</ele><time>2026-04-30T14:25:33.338Z</time></trkpt><trkpt lat="43.4450367" lon="11.1500867"><ele>126.0</ele><time>2026-04-30T14:25:34.338Z</time></trkpt><trkpt lat="43.4453083" lon="11.150165"><ele>127.5</ele><time>2026-04-30T14:25:35.338Z</time></trkpt><trkpt lat="43.4455767" lon="11.150265"><ele>129.0</ele><time>2026-04-30T14:25:36.338Z</time></trkpt><trkpt lat="43.4458383" lon="11.15039"><ele>129.0</ele><time>2026-04-30T14:25:37.338Z</time></trkpt><trkpt lat="43.4460933" lon="11.15053"><ele>129.0</ele><time>2026-04-30T14:25:38.337Z</time></trkpt><trkpt lat="43.4463417" lon="11.1506933"><ele>125.0</ele><time>2026-04-30T14:25:39.338Z</time></trkpt><trkpt lat="43.4465817" lon="11.1508733"><ele>121.0</ele><time>2026-04-30T14:25:40.338Z</time></trkpt><trkpt lat="43.446815" lon="11.1510867"><ele>121.0</ele><time>2026-04-30T14:25:41.338Z</time></trkpt><trkpt lat="43.4470383" lon="11.1513083"><ele>121.0</ele><time>2026-04-30T14:25:42.338Z</time></trkpt><trkpt lat="43.44726" lon="11.1515633"><ele>119.0</ele><time>2026-04-30T14:25:43.338Z</time></trkpt><trkpt lat="43.44748" lon="11.151805"><ele>117.0</ele><time>2026-04-30T14:25:44.337Z</time></trkpt><trkpt lat="43.447705" lon="11.152055"><ele>117.0</ele><time>2026-04-30T14:25:45.337Z</time></trkpt><trkpt lat="43.4479317" lon="11.152285"><ele>117.0</ele><time>2026-04-30T14:25:46.338Z</time></trkpt><trkpt lat="43.4481617" lon="11.1525117"><ele>115.5</ele><time>2026-04-30T14:25:47.338Z</time></trkpt><trkpt lat="43.448395" lon="11.1527267"><ele>114.0</ele><time>2026-04-30T14:25:48.338Z</time></trkpt><trkpt lat="43.4486283" lon="11.1529233"><ele>113.0</ele><time>2026-04-30T14:25:49.338Z</time></trkpt><trkpt lat="43.4488633" lon="11.1531117"><ele>112.0</ele><time>2026-04-30T14:25:50.338Z</time></trkpt><trkpt lat="43.44911" lon="11.1532817"><ele>116.5</ele><time>2026-04-30T14:25:51.337Z</time></trkpt><trkpt lat="43.4493533" lon="11.1534433"><ele>121.0</ele><time>2026-04-30T14:25:52.338Z</time></trkpt><trkpt lat="43.4496083" lon="11.153615"><ele>122.5</ele><time>2026-04-30T14:25:53.338Z</time></trkpt><trkpt lat="43.4498583" lon="11.1537717"><ele>124.0</ele><time>2026-04-30T14:25:54.338Z</time></trkpt><trkpt lat="43.45012" lon="11.15391"><ele>122.5</ele><time>2026-04-30T14:25:55.338Z</time></trkpt><trkpt lat="43.4503783" lon="11.1540483"><ele>121.0</ele><time>2026-04-30T14:25:56.338Z</time></trkpt><trkpt lat="43.4506483" lon="11.154185"><ele>121.0</ele><time>2026-04-30T14:25:57.338Z</time></trkpt><trkpt lat="43.4509133" lon="11.154325"><ele>121.0</ele><time>2026-04-30T14:25:58.337Z</time></trkpt><trkpt lat="43.4511667" lon="11.154475"><ele>116.0</ele><time>2026-04-30T14:25:59.338Z</time></trkpt><trkpt lat="43.4514183" lon="11.1546133"><ele>111.0</ele><time>2026-04-30T14:26:00.338Z</time></trkpt><trkpt lat="43.4516683" lon="11.154745"><ele>111.0</ele><time>2026-04-30T14:26:01.337Z</time></trkpt><trkpt lat="43.451915" lon="11.154885"><ele>111.0</ele><time>2026-04-30T14:26:02.338Z</time></trkpt><trkpt lat="43.4521583" lon="11.155035"><ele>111.0</ele><time>2026-04-30T14:26:03.337Z</time></trkpt><trkpt lat="43.4524067" lon="11.15518"><ele>111.0</ele><time>2026-04-30T14:26:04.338Z</time></trkpt><trkpt lat="43.4526517" lon="11.155335"><ele>111.0</ele><time>2026-04-30T14:26:05.337Z</time></trkpt><trkpt lat="43.45289" lon="11.1555083"><ele>111.0</ele><time>2026-04-30T14:26:06.338Z</time></trkpt><trkpt lat="43.4531167" lon="11.1557017"><ele>111.0</ele><time>2026-04-30T14:26:07.338Z</time></trkpt><trkpt lat="43.453345" lon="11.1559067"><ele>111.0</ele><time>2026-04-30T14:26:08.338Z</time></trkpt><trkpt lat="43.4535533" lon="11.15614"><ele>111.0</ele><time>2026-04-30T14:26:09.337Z</time></trkpt><trkpt lat="43.45376" lon="11.1563883"><ele>111.0</ele><time>2026-04-30T14:26:10.338Z</time></trkpt><trkpt lat="43.4539567" lon="11.1566383"><ele>110.5</ele><time>2026-04-30T14:26:11.338Z</time></trkpt><trkpt lat="43.4541517" lon="11.1568867"><ele>110.0</ele><time>2026-04-30T14:26:12.338Z</time></trkpt><trkpt lat="43.454335" lon="11.1571383"><ele>109.0</ele><time>2026-04-30T14:26:13.338Z</time></trkpt><trkpt lat="43.4545233" lon="11.1574167"><ele>108.0</ele><time>2026-04-30T14:26:14.338Z</time></trkpt><trkpt lat="43.45471" lon="11.1576683"><ele>108.0</ele><time>2026-04-30T14:26:15.337Z</time></trkpt><trkpt lat="43.4548933" lon="11.15792"><ele>108.0</ele><time>2026-04-30T14:26:16.338Z</time></trkpt><trkpt lat="43.4550833" lon="11.1581767"><ele>112.0</ele><time>2026-04-30T14:26:17.338Z</time></trkpt><trkpt lat="43.4552667" lon="11.1584283"><ele>116.0</ele><time>2026-04-30T14:26:18.338Z</time></trkpt><trkpt lat="43.45545" lon="11.1586783"><ele>114.5</ele><time>2026-04-30T14:26:19.337Z</time></trkpt><trkpt lat="43.4556417" lon="11.158935"><ele>113.0</ele><time>2026-04-30T14:26:20.337Z</time></trkpt><trkpt lat="43.455835" lon="11.1591917"><ele>113.0</ele><time>2026-04-30T14:26:21.338Z</time></trkpt><trkpt lat="43.456025" lon="11.1594433"><ele>113.0</ele><time>2026-04-30T14:26:22.338Z</time></trkpt><trkpt lat="43.4562217" lon="11.1597"><ele>111.0</ele><time>2026-04-30T14:26:23.338Z</time></trkpt><trkpt lat="43.45641" lon="11.1599633"><ele>109.0</ele><time>2026-04-30T14:26:24.338Z</time></trkpt><trkpt lat="43.4565983" lon="11.1602183"><ele>109.0</ele><time>2026-04-30T14:26:25.337Z</time></trkpt><trkpt lat="43.4567883" lon="11.1604783"><ele>109.0</ele><time>2026-04-30T14:26:26.338Z</time></trkpt><trkpt lat="43.456975" lon="11.16075"><ele>108.5</ele><time>2026-04-30T14:26:27.338Z</time></trkpt><trkpt lat="43.4571633" lon="11.1610283"><ele>108.0</ele><time>2026-04-30T14:26:28.338Z</time></trkpt><trkpt lat="43.457355" lon="11.1612933"><ele>108.5</ele><time>2026-04-30T14:26:29.337Z</time></trkpt><trkpt lat="43.4575533" lon="11.1615567"><ele>109.0</ele><time>2026-04-30T14:26:30.338Z</time></trkpt><trkpt lat="43.4577533" lon="11.1618267"><ele>107.0</ele><time>2026-04-30T14:26:31.338Z</time></trkpt><trkpt lat="43.4579567" lon="11.162075"><ele>105.0</ele><time>2026-04-30T14:26:32.338Z</time></trkpt><trkpt lat="43.45817" lon="11.1623133"><ele>104.5</ele><time>2026-04-30T14:26:33.337Z</time></trkpt><trkpt lat="43.45839" lon="11.162535"><ele>104.0</ele><time>2026-04-30T14:26:34.337Z</time></trkpt><trkpt lat="43.458615" lon="11.16273"><ele>106.0</ele><time>2026-04-30T14:26:35.338Z</time></trkpt><trkpt lat="43.4588483" lon="11.1629017"><ele>108.0</ele><time>2026-04-30T14:26:36.338Z</time></trkpt><trkpt lat="43.4590833" lon="11.16307"><ele>108.5</ele><time>2026-04-30T14:26:37.337Z</time></trkpt><trkpt lat="43.4593283" lon="11.1632017"><ele>109.0</ele><time>2026-04-30T14:26:38.337Z</time></trkpt><trkpt lat="43.4595833" lon="11.1633217"><ele>108.0</ele><time>2026-04-30T14:26:39.338Z</time></trkpt><trkpt lat="43.4598367" lon="11.1634217"><ele>107.0</ele><time>2026-04-30T14:26:40.338Z</time></trkpt><trkpt lat="43.46009" lon="11.1635033"><ele>107.0</ele><time>2026-04-30T14:26:41.337Z</time></trkpt><trkpt lat="43.4603517" lon="11.1635633"><ele>107.0</ele><time>2026-04-30T14:26:42.338Z</time></trkpt><trkpt lat="43.4606117" lon="11.1635933"><ele>108.0</ele><time>2026-04-30T14:26:43.338Z</time></trkpt><trkpt lat="43.4608733" lon="11.1636083"><ele>109.0</ele><time>2026-04-30T14:26:44.338Z</time></trkpt><trkpt lat="43.4611433" lon="11.1636167"><ele>107.5</ele><time>2026-04-30T14:26:45.338Z</time></trkpt><trkpt lat="43.4614067" lon="11.1635933"><ele>106.0</ele><time>2026-04-30T14:26:46.338Z</time></trkpt><trkpt lat="43.46167" lon="11.16357"><ele>106.0</ele><time>2026-04-30T14:26:47.337Z</time></trkpt><trkpt lat="43.4619233" lon="11.163555"><ele>106.0</ele><time>2026-04-30T14:26:48.338Z</time></trkpt><trkpt lat="43.4621767" lon="11.1635233"><ele>107.5</ele><time>2026-04-30T14:26:49.338Z</time></trkpt><trkpt lat="43.4624233" lon="11.1635033"><ele>109.0</ele><time>2026-04-30T14:26:50.338Z</time></trkpt><trkpt lat="43.4626617" lon="11.163465"><ele>109.0</ele><time>2026-04-30T14:26:51.338Z</time></trkpt><trkpt lat="43.4629067" lon="11.163405"><ele>109.0</ele><time>2026-04-30T14:26:52.338Z</time></trkpt><trkpt lat="43.463155" lon="11.1633417"><ele>109.0</ele><time>2026-04-30T14:26:53.338Z</time></trkpt><trkpt lat="43.4633967" lon="11.16326"><ele>109.0</ele><time>2026-04-30T14:26:54.338Z</time></trkpt><trkpt lat="43.4636517" lon="11.1631733"><ele>108.0</ele><time>2026-04-30T14:26:55.338Z</time></trkpt><trkpt lat="43.463895" lon="11.1630733"><ele>107.0</ele><time>2026-04-30T14:26:56.338Z</time></trkpt><trkpt lat="43.4641417" lon="11.16296"><ele>107.0</ele><time>2026-04-30T14:26:57.337Z</time></trkpt><trkpt lat="43.46439" lon="11.1628417"><ele>107.0</ele><time>2026-04-30T14:26:58.338Z</time></trkpt><trkpt lat="43.4646333" lon="11.16268"><ele>107.5</ele><time>2026-04-30T14:26:59.337Z</time></trkpt><trkpt lat="43.4648717" lon="11.162515"><ele>108.0</ele><time>2026-04-30T14:27:00.337Z</time></trkpt><trkpt lat="43.465095" lon="11.16234"><ele>108.5</ele><time>2026-04-30T14:27:01.338Z</time></trkpt><trkpt lat="43.4653217" lon="11.1621533"><ele>109.0</ele><time>2026-04-30T14:27:02.337Z</time></trkpt><trkpt lat="43.4655517" lon="11.1619567"><ele>109.0</ele><time>2026-04-30T14:27:03.338Z</time></trkpt><trkpt lat="43.465785" lon="11.1617483"><ele>109.0</ele><time>2026-04-30T14:27:04.338Z</time></trkpt><trkpt lat="43.46602" lon="11.16153"><ele>107.0</ele><time>2026-04-30T14:27:05.338Z</time></trkpt><trkpt lat="43.4662367" lon="11.1612917"><ele>105.0</ele><time>2026-04-30T14:27:06.338Z</time></trkpt><trkpt lat="43.466435" lon="11.161035"><ele>105.0</ele><time>2026-04-30T14:27:07.338Z</time></trkpt><trkpt lat="43.46663" lon="11.16076"><ele>105.0</ele><time>2026-04-30T14:27:08.338Z</time></trkpt><trkpt lat="43.466815" lon="11.1604683"><ele>104.0</ele><time>2026-04-30T14:27:09.338Z</time></trkpt><trkpt lat="43.4669967" lon="11.1601683"><ele>103.0</ele><time>2026-04-30T14:27:10.337Z</time></trkpt><trkpt lat="43.467165" lon="11.1598617"><ele>102.0</ele><time>2026-04-30T14:27:11.338Z</time></trkpt><trkpt lat="43.4673317" lon="11.15954"><ele>101.0</ele><time>2026-04-30T14:27:12.338Z</time></trkpt><trkpt lat="43.4674867" lon="11.1592183"><ele>101.0</ele><time>2026-04-30T14:27:13.337Z</time></trkpt><trkpt lat="43.4676367" lon="11.1589017"><ele>101.0</ele><time>2026-04-30T14:27:14.338Z</time></trkpt><trkpt lat="43.46779" lon="11.158575"><ele>101.0</ele><time>2026-04-30T14:27:15.338Z</time></trkpt><trkpt lat="43.4679383" lon="11.1582383"><ele>101.0</ele><time>2026-04-30T14:27:16.337Z</time></trkpt><trkpt lat="43.4680867" lon="11.1579133"><ele>102.0</ele><time>2026-04-30T14:27:17.338Z</time></trkpt><trkpt lat="43.468235" lon="11.15759"><ele>103.0</ele><time>2026-04-30T14:27:18.338Z</time></trkpt><trkpt lat="43.468385" lon="11.1572617"><ele>103.0</ele><time>2026-04-30T14:27:19.338Z</time></trkpt><trkpt lat="43.4685383" lon="11.15694"><ele>103.0</ele><time>2026-04-30T14:27:20.337Z</time></trkpt><trkpt lat="43.4686967" lon="11.15663"><ele>103.0</ele><time>2026-04-30T14:27:21.337Z</time></trkpt><trkpt lat="43.468855" lon="11.156325"><ele>103.0</ele><time>2026-04-30T14:27:22.338Z</time></trkpt><trkpt lat="43.4690383" lon="11.1560333"><ele>103.0</ele><time>2026-04-30T14:27:23.338Z</time></trkpt><trkpt lat="43.469225" lon="11.1557533"><ele>103.0</ele><time>2026-04-30T14:27:24.338Z</time></trkpt><trkpt lat="43.4694233" lon="11.1554967"><ele>103.0</ele><time>2026-04-30T14:27:25.338Z</time></trkpt><trkpt lat="43.46963" lon="11.155255"><ele>103.0</ele><time>2026-04-30T14:27:26.338Z</time></trkpt><trkpt lat="43.4698433" lon="11.1550183"><ele>103.5</ele><time>2026-04-30T14:27:27.338Z</time></trkpt><trkpt lat="43.4700483" lon="11.1547933"><ele>104.0</ele><time>2026-04-30T14:27:28.338Z</time></trkpt><trkpt lat="43.47027" lon="11.1545783"><ele>105.0</ele><time>2026-04-30T14:27:29.337Z</time></trkpt><trkpt lat="43.4705" lon="11.15438"><ele>106.0</ele><time>2026-04-30T14:27:30.338Z</time></trkpt><trkpt lat="43.4707333" lon="11.1541967"><ele>104.0</ele><time>2026-04-30T14:27:31.338Z</time></trkpt><trkpt lat="43.4709633" lon="11.1540167"><ele>102.0</ele><time>2026-04-30T14:27:32.338Z</time></trkpt><trkpt lat="43.4712017" lon="11.15387"><ele>104.0</ele><time>2026-04-30T14:27:33.338Z</time></trkpt><trkpt lat="43.471435" lon="11.15374"><ele>106.0</ele><time>2026-04-30T14:27:34.337Z</time></trkpt><trkpt lat="43.4716733" lon="11.1536267"><ele>106.0</ele><time>2026-04-30T14:27:35.338Z</time></trkpt><trkpt lat="43.4719033" lon="11.15352"><ele>106.0</ele><time>2026-04-30T14:27:36.337Z</time></trkpt><trkpt lat="43.4721383" lon="11.1534117"><ele>105.0</ele><time>2026-04-30T14:27:37.338Z</time></trkpt><trkpt lat="43.472385" lon="11.1532933"><ele>104.0</ele><time>2026-04-30T14:27:38.337Z</time></trkpt><trkpt lat="43.47263" lon="11.1531717"><ele>104.0</ele><time>2026-04-30T14:27:39.338Z</time></trkpt><trkpt lat="43.4728817" lon="11.153055"><ele>104.0</ele><time>2026-04-30T14:27:40.338Z</time></trkpt><trkpt lat="43.47313" lon="11.1529533"><ele>106.0</ele><time>2026-04-30T14:27:41.338Z</time></trkpt><trkpt lat="43.473375" lon="11.1528417"><ele>108.0</ele><time>2026-04-30T14:27:42.337Z</time></trkpt><trkpt lat="43.4736183" lon="11.1527367"><ele>111.0</ele><time>2026-04-30T14:27:43.338Z</time></trkpt><trkpt lat="43.4738667" lon="11.1526133"><ele>114.0</ele><time>2026-04-30T14:27:44.338Z</time></trkpt><trkpt lat="43.4741233" lon="11.152495"><ele>114.0</ele><time>2026-04-30T14:27:45.337Z</time></trkpt><trkpt lat="43.4743883" lon="11.1523783"><ele>114.0</ele><time>2026-04-30T14:27:46.338Z</time></trkpt><trkpt lat="43.474645" lon="11.1522883"><ele>116.0</ele><time>2026-04-30T14:27:47.338Z</time></trkpt><trkpt lat="43.4749017" lon="11.15221"><ele>118.0</ele><time>2026-04-30T14:27:48.338Z</time></trkpt><trkpt lat="43.4751533" lon="11.15215"><ele>118.0</ele><time>2026-04-30T14:27:49.338Z</time></trkpt><trkpt lat="43.4754033" lon="11.1520933"><ele>118.0</ele><time>2026-04-30T14:27:50.338Z</time></trkpt><trkpt lat="43.4756517" lon="11.15202"><ele>121.0</ele><time>2026-04-30T14:27:51.338Z</time></trkpt><trkpt lat="43.4759167" lon="11.1519417"><ele>124.0</ele><time>2026-04-30T14:27:52.338Z</time></trkpt><trkpt lat="43.4761783" lon="11.1518333"><ele>128.5</ele><time>2026-04-30T14:27:53.338Z</time></trkpt><trkpt lat="43.4764117" lon="11.1517017"><ele>133.0</ele><time>2026-04-30T14:27:54.338Z</time></trkpt><trkpt lat="43.476665" lon="11.151565"><ele>133.0</ele><time>2026-04-30T14:27:55.337Z</time></trkpt><trkpt lat="43.4769167" lon="11.151425"><ele>133.0</ele><time>2026-04-30T14:27:56.337Z</time></trkpt><trkpt lat="43.4771667" lon="11.1512867"><ele>133.0</ele><time>2026-04-30T14:27:57.338Z</time></trkpt><trkpt lat="43.4774167" lon="11.15114"><ele>133.0</ele><time>2026-04-30T14:27:58.338Z</time></trkpt><trkpt lat="43.47766" lon="11.1509983"><ele>133.0</ele><time>2026-04-30T14:27:59.338Z</time></trkpt><trkpt lat="43.47791" lon="11.1508517"><ele>133.0</ele><time>2026-04-30T14:28:00.338Z</time></trkpt><trkpt lat="43.4781633" lon="11.1507083"><ele>130.0</ele><time>2026-04-30T14:28:01.338Z</time></trkpt><trkpt lat="43.47841" lon="11.1505583"><ele>127.0</ele><time>2026-04-30T14:28:02.338Z</time></trkpt><trkpt lat="43.478665" lon="11.1504183"><ele>123.5</ele><time>2026-04-30T14:28:03.337Z</time></trkpt><trkpt lat="43.47893" lon="11.1502833"><ele>120.0</ele><time>2026-04-30T14:28:04.338Z</time></trkpt><trkpt lat="43.4791833" lon="11.1501433"><ele>120.0</ele><time>2026-04-30T14:28:05.337Z</time></trkpt><trkpt lat="43.4794333" lon="11.1500283"><ele>120.0</ele><time>2026-04-30T14:28:06.338Z</time></trkpt><trkpt lat="43.4796867" lon="11.149945"><ele>118.5</ele><time>2026-04-30T14:28:07.338Z</time></trkpt><trkpt lat="43.4799517" lon="11.1498833"><ele>117.0</ele><time>2026-04-30T14:28:08.337Z</time></trkpt><trkpt lat="43.4802267" lon="11.1498467"><ele>122.0</ele><time>2026-04-30T14:28:09.338Z</time></trkpt><trkpt lat="43.48049" lon="11.14983"><ele>127.0</ele><time>2026-04-30T14:28:10.337Z</time></trkpt><trkpt lat="43.4807583" lon="11.14983"><ele>127.0</ele><time>2026-04-30T14:28:11.337Z</time></trkpt><trkpt lat="43.4810217" lon="11.1498583"><ele>127.0</ele><time>2026-04-30T14:28:12.337Z</time></trkpt><trkpt lat="43.4812817" lon="11.1499"><ele>126.5</ele><time>2026-04-30T14:28:13.337Z</time></trkpt><trkpt lat="43.48155" lon="11.1499783"><ele>126.0</ele><time>2026-04-30T14:28:14.337Z</time></trkpt><trkpt lat="43.48181" lon="11.1500583"><ele>126.0</ele><time>2026-04-30T14:28:15.338Z</time></trkpt><trkpt lat="43.4820667" lon="11.1501833"><ele>126.0</ele><time>2026-04-30T14:28:16.338Z</time></trkpt><trkpt lat="43.48233" lon="11.150345"><ele>125.5</ele><time>2026-04-30T14:28:17.338Z</time></trkpt><trkpt lat="43.4825767" lon="11.1505167"><ele>125.0</ele><time>2026-04-30T14:28:18.338Z</time></trkpt><trkpt lat="43.4828267" lon="11.1507183"><ele>122.0</ele><time>2026-04-30T14:28:19.338Z</time></trkpt><trkpt lat="43.4830733" lon="11.1509283"><ele>119.0</ele><time>2026-04-30T14:28:20.338Z</time></trkpt><trkpt lat="43.4832983" lon="11.1511667"><ele>119.0</ele><time>2026-04-30T14:28:21.338Z</time></trkpt><trkpt lat="43.4835117" lon="11.15139"><ele>119.0</ele><time>2026-04-30T14:28:22.337Z</time></trkpt><trkpt lat="43.4837183" lon="11.1515933"><ele>115.0</ele><time>2026-04-30T14:28:23.338Z</time></trkpt><trkpt lat="43.4839267" lon="11.1518017"><ele>111.0</ele><time>2026-04-30T14:28:24.338Z</time></trkpt><trkpt lat="43.4841483" lon="11.1519767"><ele>111.0</ele><time>2026-04-30T14:28:25.337Z</time></trkpt><trkpt lat="43.48436" lon="11.15219"><ele>111.0</ele><time>2026-04-30T14:28:26.338Z</time></trkpt><trkpt lat="43.48457" lon="11.152395"><ele>110.5</ele><time>2026-04-30T14:28:27.338Z</time></trkpt><trkpt lat="43.48479" lon="11.152605"><ele>110.0</ele><time>2026-04-30T14:28:28.338Z</time></trkpt><trkpt lat="43.484995" lon="11.152815"><ele>110.0</ele><time>2026-04-30T14:28:29.338Z</time></trkpt><trkpt lat="43.4852" lon="11.1530333"><ele>110.0</ele><time>2026-04-30T14:28:30.338Z</time></trkpt><trkpt lat="43.4853917" lon="11.153255"><ele>111.5</ele><time>2026-04-30T14:28:31.338Z</time></trkpt><trkpt lat="43.4855783" lon="11.1534933"><ele>113.0</ele><time>2026-04-30T14:28:32.338Z</time></trkpt><trkpt lat="43.48575" lon="11.153755"><ele>113.0</ele><time>2026-04-30T14:28:33.337Z</time></trkpt><trkpt lat="43.4859183" lon="11.15403"><ele>113.0</ele><time>2026-04-30T14:28:34.338Z</time></trkpt><trkpt lat="43.4860733" lon="11.154315"><ele>113.0</ele><time>2026-04-30T14:28:35.337Z</time></trkpt><trkpt lat="43.4862217" lon="11.15462"><ele>113.0</ele><time>2026-04-30T14:28:36.337Z</time></trkpt><trkpt lat="43.4863483" lon="11.1549333"><ele>115.0</ele><time>2026-04-30T14:28:37.338Z</time></trkpt><trkpt lat="43.4864583" lon="11.1552567"><ele>117.0</ele><time>2026-04-30T14:28:38.338Z</time></trkpt><trkpt lat="43.486555" lon="11.1555867"><ele>118.5</ele><time>2026-04-30T14:28:39.338Z</time></trkpt><trkpt lat="43.4866333" lon="11.1559233"><ele>120.0</ele><time>2026-04-30T14:28:40.338Z</time></trkpt><trkpt lat="43.4867017" lon="11.1562783"><ele>120.5</ele><time>2026-04-30T14:28:41.338Z</time></trkpt><trkpt lat="43.4867583" lon="11.1566267"><ele>121.0</ele><time>2026-04-30T14:28:42.338Z</time></trkpt><trkpt lat="43.486815" lon="11.1569783"><ele>121.0</ele><time>2026-04-30T14:28:43.337Z</time></trkpt><trkpt lat="43.4868667" lon="11.1573333"><ele>121.0</ele><time>2026-04-30T14:28:44.338Z</time></trkpt><trkpt lat="43.486905" lon="11.15769"><ele>121.0</ele><time>2026-04-30T14:28:45.338Z</time></trkpt><trkpt lat="43.4869467" lon="11.1580433"><ele>121.0</ele><time>2026-04-30T14:28:46.338Z</time></trkpt><trkpt lat="43.48699" lon="11.1584067"><ele>120.5</ele><time>2026-04-30T14:28:47.337Z</time></trkpt><trkpt lat="43.4870367" lon="11.1587767"><ele>120.0</ele><time>2026-04-30T14:28:48.338Z</time></trkpt><trkpt lat="43.4870917" lon="11.1591433"><ele>123.0</ele><time>2026-04-30T14:28:49.337Z</time></trkpt><trkpt lat="43.487145" lon="11.15952"><ele>126.0</ele><time>2026-04-30T14:28:50.337Z</time></trkpt><trkpt lat="43.4872" lon="11.1599"><ele>126.0</ele><time>2026-04-30T14:28:51.337Z</time></trkpt><trkpt lat="43.4872583" lon="11.1602883"><ele>126.0</ele><time>2026-04-30T14:28:52.337Z</time></trkpt><trkpt lat="43.4873167" lon="11.1606683"><ele>126.5</ele><time>2026-04-30T14:28:53.338Z</time></trkpt><trkpt lat="43.4873683" lon="11.1610517"><ele>127.0</ele><time>2026-04-30T14:28:54.338Z</time></trkpt><trkpt lat="43.4874217" lon="11.1614333"><ele>126.0</ele><time>2026-04-30T14:28:55.338Z</time></trkpt><trkpt lat="43.48748" lon="11.1618017"><ele>125.0</ele><time>2026-04-30T14:28:56.338Z</time></trkpt><trkpt lat="43.4875217" lon="11.1621817"><ele>125.0</ele><time>2026-04-30T14:28:57.338Z</time></trkpt><trkpt lat="43.4875733" lon="11.1625583"><ele>125.0</ele><time>2026-04-30T14:28:58.338Z</time></trkpt><trkpt lat="43.4876167" lon="11.1629133"><ele>124.0</ele><time>2026-04-30T14:28:59.338Z</time></trkpt><trkpt lat="43.4876583" lon="11.1632717"><ele>123.0</ele><time>2026-04-30T14:29:00.338Z</time></trkpt><trkpt lat="43.4877067" lon="11.163625"><ele>123.0</ele><time>2026-04-30T14:29:01.338Z</time></trkpt><trkpt lat="43.4877433" lon="11.1639967"><ele>123.0</ele><time>2026-04-30T14:29:02.338Z</time></trkpt><trkpt lat="43.4877867" lon="11.1643617"><ele>123.5</ele><time>2026-04-30T14:29:03.337Z</time></trkpt><trkpt lat="43.4878283" lon="11.1647267"><ele>124.0</ele><time>2026-04-30T14:29:04.338Z</time></trkpt><trkpt lat="43.4878733" lon="11.1650867"><ele>124.0</ele><time>2026-04-30T14:29:05.338Z</time></trkpt><trkpt lat="43.4879217" lon="11.165445"><ele>124.0</ele><time>2026-04-30T14:29:06.338Z</time></trkpt><trkpt lat="43.487975" lon="11.165805"><ele>126.0</ele><time>2026-04-30T14:29:07.338Z</time></trkpt><trkpt lat="43.4880283" lon="11.16616"><ele>128.0</ele><time>2026-04-30T14:29:08.338Z</time></trkpt><trkpt lat="43.4880933" lon="11.1665133"><ele>130.0</ele><time>2026-04-30T14:29:09.337Z</time></trkpt><trkpt lat="43.4881617" lon="11.1668583"><ele>132.0</ele><time>2026-04-30T14:29:10.337Z</time></trkpt><trkpt lat="43.4882383" lon="11.167205"><ele>131.5</ele><time>2026-04-30T14:29:11.337Z</time></trkpt><trkpt lat="43.4883133" lon="11.1675467"><ele>131.0</ele><time>2026-04-30T14:29:12.338Z</time></trkpt><trkpt lat="43.4883933" lon="11.1678817"><ele>131.0</ele><time>2026-04-30T14:29:13.338Z</time></trkpt><trkpt lat="43.4884733" lon="11.1682217"><ele>131.0</ele><time>2026-04-30T14:29:14.337Z</time></trkpt><trkpt lat="43.4885583" lon="11.16855"><ele>131.0</ele><time>2026-04-30T14:29:15.338Z</time></trkpt><trkpt lat="43.488645" lon="11.1688867"><ele>131.0</ele><time>2026-04-30T14:29:16.337Z</time></trkpt><trkpt lat="43.4887383" lon="11.169205"><ele>135.0</ele><time>2026-04-30T14:29:17.338Z</time></trkpt><trkpt lat="43.4888367" lon="11.1695217"><ele>139.0</ele><time>2026-04-30T14:29:18.338Z</time></trkpt><trkpt lat="43.48895" lon="11.1698383"><ele>138.5</ele><time>2026-04-30T14:29:19.338Z</time></trkpt><trkpt lat="43.489065" lon="11.170145"><ele>138.0</ele><time>2026-04-30T14:29:20.338Z</time></trkpt><trkpt lat="43.4891817" lon="11.17046"><ele>137.5</ele><time>2026-04-30T14:29:21.337Z</time></trkpt><trkpt lat="43.4893" lon="11.1707583"><ele>137.0</ele><time>2026-04-30T14:29:22.338Z</time></trkpt><trkpt lat="43.4894167" lon="11.171065"><ele>137.0</ele><time>2026-04-30T14:29:23.338Z</time></trkpt><trkpt lat="43.489545" lon="11.171355"><ele>137.0</ele><time>2026-04-30T14:29:24.338Z</time></trkpt><trkpt lat="43.48968" lon="11.1716467"><ele>139.0</ele><time>2026-04-30T14:29:25.338Z</time></trkpt><trkpt lat="43.489815" lon="11.1719367"><ele>141.0</ele><time>2026-04-30T14:29:26.338Z</time></trkpt><trkpt lat="43.48995" lon="11.17222"><ele>139.5</ele><time>2026-04-30T14:29:27.337Z</time></trkpt><trkpt lat="43.490095" lon="11.17252"><ele>138.0</ele><time>2026-04-30T14:29:28.338Z</time></trkpt><trkpt lat="43.490245" lon="11.1728167"><ele>138.0</ele><time>2026-04-30T14:29:29.338Z</time></trkpt><trkpt lat="43.4903917" lon="11.1731067"><ele>138.0</ele><time>2026-04-30T14:29:30.338Z</time></trkpt><trkpt lat="43.49054" lon="11.1734"><ele>139.5</ele><time>2026-04-30T14:29:31.337Z</time></trkpt><trkpt lat="43.49069" lon="11.1736983"><ele>141.0</ele><time>2026-04-30T14:29:32.337Z</time></trkpt><trkpt lat="43.4908333" lon="11.1739833"><ele>141.5</ele><time>2026-04-30T14:29:33.338Z</time></trkpt><trkpt lat="43.4909867" lon="11.1742783"><ele>142.0</ele><time>2026-04-30T14:29:34.338Z</time></trkpt><trkpt lat="43.4911417" lon="11.1745633"><ele>145.5</ele><time>2026-04-30T14:29:35.338Z</time></trkpt><trkpt lat="43.491295" lon="11.174855"><ele>149.0</ele><time>2026-04-30T14:29:36.338Z</time></trkpt><trkpt lat="43.4914483" lon="11.1751433"><ele>149.0</ele><time>2026-04-30T14:29:37.338Z</time></trkpt><trkpt lat="43.4916067" lon="11.17544"><ele>149.0</ele><time>2026-04-30T14:29:38.338Z</time></trkpt><trkpt lat="43.4917617" lon="11.1757333"><ele>149.0</ele><time>2026-04-30T14:29:39.338Z</time></trkpt><trkpt lat="43.4919117" lon="11.176025"><ele>149.0</ele><time>2026-04-30T14:29:40.338Z</time></trkpt><trkpt lat="43.4920667" lon="11.1763217"><ele>153.5</ele><time>2026-04-30T14:29:41.338Z</time></trkpt><trkpt lat="43.49224" lon="11.1766083"><ele>158.0</ele><time>2026-04-30T14:29:42.338Z</time></trkpt><trkpt lat="43.4924067" lon="11.1768967"><ele>158.0</ele><time>2026-04-30T14:29:43.338Z</time></trkpt><trkpt lat="43.4925867" lon="11.177165"><ele>158.0</ele><time>2026-04-30T14:29:44.337Z</time></trkpt><trkpt lat="43.4927783" lon="11.1774183"><ele>156.5</ele><time>2026-04-30T14:29:45.338Z</time></trkpt><trkpt lat="43.4929783" lon="11.17767"><ele>155.0</ele><time>2026-04-30T14:29:46.338Z</time></trkpt><trkpt lat="43.4931767" lon="11.1779"><ele>155.0</ele><time>2026-04-30T14:29:47.338Z</time></trkpt><trkpt lat="43.49339" lon="11.1780917"><ele>155.0</ele><time>2026-04-30T14:29:48.337Z</time></trkpt><trkpt lat="43.4936133" lon="11.1782833"><ele>155.0</ele><time>2026-04-30T14:29:49.338Z</time></trkpt><trkpt lat="43.4938417" lon="11.1784533"><ele>155.0</ele><time>2026-04-30T14:29:50.338Z</time></trkpt><trkpt lat="43.4940733" lon="11.1786183"><ele>155.0</ele><time>2026-04-30T14:29:51.338Z</time></trkpt><trkpt lat="43.4943217" lon="11.17875"><ele>155.0</ele><time>2026-04-30T14:29:52.338Z</time></trkpt><trkpt lat="43.4945683" lon="11.178895"><ele>159.5</ele><time>2026-04-30T14:29:53.338Z</time></trkpt><trkpt lat="43.4948083" lon="11.1790233"><ele>164.0</ele><time>2026-04-30T14:29:54.338Z</time></trkpt><trkpt lat="43.495065" lon="11.1791467"><ele>164.0</ele><time>2026-04-30T14:29:55.338Z</time></trkpt><trkpt lat="43.4953183" lon="11.179275"><ele>164.0</ele><time>2026-04-30T14:29:56.337Z</time></trkpt><trkpt lat="43.49556" lon="11.1794117"><ele>163.0</ele><time>2026-04-30T14:29:57.338Z</time></trkpt><trkpt lat="43.49579" lon="11.179565"><ele>162.0</ele><time>2026-04-30T14:29:58.337Z</time></trkpt><trkpt lat="43.4960217" lon="11.179735"><ele>164.5</ele><time>2026-04-30T14:29:59.338Z</time></trkpt><trkpt lat="43.4962417" lon="11.1799233"><ele>167.0</ele><time>2026-04-30T14:30:00.337Z</time></trkpt><trkpt lat="43.4964783" lon="11.1801117"><ele>167.0</ele><time>2026-04-30T14:30:01.337Z</time></trkpt><trkpt lat="43.4967167" lon="11.1803083"><ele>167.0</ele><time>2026-04-30T14:30:02.338Z</time></trkpt><trkpt lat="43.4969467" lon="11.1805183"><ele>168.0</ele><time>2026-04-30T14:30:03.338Z</time></trkpt><trkpt lat="43.4971667" lon="11.1807583"><ele>169.0</ele><time>2026-04-30T14:30:04.338Z</time></trkpt><trkpt lat="43.49739" lon="11.181005"><ele>169.0</ele><time>2026-04-30T14:30:05.337Z</time></trkpt><trkpt lat="43.4976133" lon="11.1812633"><ele>169.0</ele><time>2026-04-30T14:30:06.338Z</time></trkpt><trkpt lat="43.4978183" lon="11.1815283"><ele>172.5</ele><time>2026-04-30T14:30:07.338Z</time></trkpt><trkpt lat="43.4980217" lon="11.1818033"><ele>176.0</ele><time>2026-04-30T14:30:08.338Z</time></trkpt><trkpt lat="43.4981967" lon="11.18209"><ele>177.5</ele><time>2026-04-30T14:30:09.338Z</time></trkpt><trkpt lat="43.4983667" lon="11.18238"><ele>179.0</ele><time>2026-04-30T14:30:10.337Z</time></trkpt><trkpt lat="43.4985367" lon="11.1826817"><ele>179.0</ele><time>2026-04-30T14:30:11.338Z</time></trkpt><trkpt lat="43.4987067" lon="11.1829867"><ele>179.0</ele><time>2026-04-30T14:30:12.337Z</time></trkpt><trkpt lat="43.498865" lon="11.1833"><ele>178.5</ele><time>2026-04-30T14:30:13.338Z</time></trkpt><trkpt lat="43.4990333" lon="11.1836"><ele>178.0</ele><time>2026-04-30T14:30:14.338Z</time></trkpt><trkpt lat="43.4992033" lon="11.1839083"><ele>182.0</ele><time>2026-04-30T14:30:15.337Z</time></trkpt><trkpt lat="43.4993633" lon="11.1842317"><ele>186.0</ele><time>2026-04-30T14:30:16.338Z</time></trkpt><trkpt lat="43.49953" lon="11.184555"><ele>184.0</ele><time>2026-04-30T14:30:17.337Z</time></trkpt><trkpt lat="43.49969" lon="11.1848667"><ele>182.0</ele><time>2026-04-30T14:30:18.338Z</time></trkpt><trkpt lat="43.49985" lon="11.1851783"><ele>182.0</ele><time>2026-04-30T14:30:19.338Z</time></trkpt><trkpt lat="43.5000133" lon="11.185485"><ele>182.0</ele><time>2026-04-30T14:30:20.338Z</time></trkpt><trkpt lat="43.5001967" lon="11.1857867"><ele>182.5</ele><time>2026-04-30T14:30:21.338Z</time></trkpt><trkpt lat="43.5003817" lon="11.1860583"><ele>183.0</ele><time>2026-04-30T14:30:22.337Z</time></trkpt><trkpt lat="43.50058" lon="11.186315"><ele>185.5</ele><time>2026-04-30T14:30:23.338Z</time></trkpt><trkpt lat="43.5008017" lon="11.18656"><ele>188.0</ele><time>2026-04-30T14:30:24.337Z</time></trkpt><trkpt lat="43.50103" lon="11.1867783"><ele>185.5</ele><time>2026-04-30T14:30:25.338Z</time></trkpt><trkpt lat="43.5012717" lon="11.1869817"><ele>183.0</ele><time>2026-04-30T14:30:26.338Z</time></trkpt><trkpt lat="43.5015167" lon="11.1871583"><ele>183.0</ele><time>2026-04-30T14:30:27.338Z</time></trkpt><trkpt lat="43.5017717" lon="11.1873117"><ele>183.0</ele><time>2026-04-30T14:30:28.338Z</time></trkpt><trkpt lat="43.5020317" lon="11.1874433"><ele>188.5</ele><time>2026-04-30T14:30:29.338Z</time></trkpt><trkpt lat="43.5022883" lon="11.1875683"><ele>194.0</ele><time>2026-04-30T14:30:30.338Z</time></trkpt><trkpt lat="43.5025517" lon="11.187685"><ele>194.0</ele><time>2026-04-30T14:30:31.338Z</time></trkpt><trkpt lat="43.5028133" lon="11.1878083"><ele>194.0</ele><time>2026-04-30T14:30:32.338Z</time></trkpt><trkpt lat="43.503075" lon="11.1879417"><ele>192.5</ele><time>2026-04-30T14:30:33.338Z</time></trkpt><trkpt lat="43.5033417" lon="11.18807"><ele>191.0</ele><time>2026-04-30T14:30:34.338Z</time></trkpt><trkpt lat="43.5035967" lon="11.188195"><ele>194.0</ele><time>2026-04-30T14:30:35.337Z</time></trkpt><trkpt lat="43.50386" lon="11.18832"><ele>197.0</ele><time>2026-04-30T14:30:36.338Z</time></trkpt><trkpt lat="43.5041183" lon="11.18844"><ele>197.0</ele><time>2026-04-30T14:30:37.337Z</time></trkpt><trkpt lat="43.5043783" lon="11.18856"><ele>197.0</ele><time>2026-04-30T14:30:38.338Z</time></trkpt><trkpt lat="43.504645" lon="11.188675"><ele>195.5</ele><time>2026-04-30T14:30:39.337Z</time></trkpt><trkpt lat="43.5049083" lon="11.1887967"><ele>194.0</ele><time>2026-04-30T14:30:40.337Z</time></trkpt><trkpt lat="43.5051667" lon="11.18891"><ele>200.5</ele><time>2026-04-30T14:30:41.338Z</time></trkpt><trkpt lat="43.505425" lon="11.189025"><ele>207.0</ele><time>2026-04-30T14:30:42.338Z</time></trkpt><trkpt lat="43.5056883" lon="11.1891283"><ele>207.0</ele><time>2026-04-30T14:30:43.337Z</time></trkpt><trkpt lat="43.5059617" lon="11.1892183"><ele>207.0</ele><time>2026-04-30T14:30:44.338Z</time></trkpt><trkpt lat="43.5062433" lon="11.189305"><ele>205.5</ele><time>2026-04-30T14:30:45.337Z</time></trkpt><trkpt lat="43.5065267" lon="11.1893883"><ele>204.0</ele><time>2026-04-30T14:30:46.338Z</time></trkpt><trkpt lat="43.5068117" lon="11.189475"><ele>204.5</ele><time>2026-04-30T14:30:47.338Z</time></trkpt><trkpt lat="43.5070967" lon="11.18956"><ele>205.0</ele><time>2026-04-30T14:30:48.338Z</time></trkpt><trkpt lat="43.5073833" lon="11.18965"><ele>205.0</ele><time>2026-04-30T14:30:49.337Z</time></trkpt><trkpt lat="43.5076717" lon="11.1897433"><ele>205.0</ele><time>2026-04-30T14:30:50.338Z</time></trkpt><trkpt lat="43.5079633" lon="11.1898333"><ele>209.0</ele><time>2026-04-30T14:30:51.338Z</time></trkpt><trkpt lat="43.50825" lon="11.1899217"><ele>213.0</ele><time>2026-04-30T14:30:52.338Z</time></trkpt><trkpt lat="43.508535" lon="11.1900017"><ele>213.0</ele><time>2026-04-30T14:30:53.338Z</time></trkpt><trkpt lat="43.5088183" lon="11.1900783"><ele>213.0</ele><time>2026-04-30T14:30:54.338Z</time></trkpt><trkpt lat="43.5090917" lon="11.1901633"><ele>213.0</ele><time>2026-04-30T14:30:55.338Z</time></trkpt><trkpt lat="43.50936" lon="11.1902617"><ele>213.0</ele><time>2026-04-30T14:30:56.338Z</time></trkpt><trkpt lat="43.5096267" lon="11.19038"><ele>211.0</ele><time>2026-04-30T14:30:57.338Z</time></trkpt><trkpt lat="43.50989" lon="11.190505"><ele>209.0</ele><time>2026-04-30T14:30:58.338Z</time></trkpt><trkpt lat="43.510145" lon="11.1906467"><ele>212.5</ele><time>2026-04-30T14:30:59.338Z</time></trkpt><trkpt lat="43.5104017" lon="11.190805"><ele>216.0</ele><time>2026-04-30T14:31:00.338Z</time></trkpt><trkpt lat="43.51065" lon="11.1909867"><ele>216.0</ele><time>2026-04-30T14:31:01.337Z</time></trkpt><trkpt lat="43.5109" lon="11.1911667"><ele>216.0</ele><time>2026-04-30T14:31:02.338Z</time></trkpt><trkpt lat="43.5111383" lon="11.1913583"><ele>220.0</ele><time>2026-04-30T14:31:03.337Z</time></trkpt><trkpt lat="43.511365" lon="11.1915533"><ele>224.0</ele><time>2026-04-30T14:31:04.338Z</time></trkpt><trkpt lat="43.5116" lon="11.19176"><ele>224.0</ele><time>2026-04-30T14:31:05.338Z</time></trkpt><trkpt lat="43.511825" lon="11.1919817"><ele>224.0</ele><time>2026-04-30T14:31:06.338Z</time></trkpt><trkpt lat="43.5120567" lon="11.19221"><ele>226.0</ele><time>2026-04-30T14:31:07.337Z</time></trkpt><trkpt lat="43.5122767" lon="11.1924517"><ele>228.0</ele><time>2026-04-30T14:31:08.338Z</time></trkpt><trkpt lat="43.5124867" lon="11.1927067"><ele>228.0</ele><time>2026-04-30T14:31:09.338Z</time></trkpt><trkpt lat="43.5126867" lon="11.192975"><ele>228.0</ele><time>2026-04-30T14:31:10.338Z</time></trkpt><trkpt lat="43.5128617" lon="11.1932667"><ele>228.0</ele><time>2026-04-30T14:31:11.337Z</time></trkpt><trkpt lat="43.51302" lon="11.1935767"><ele>228.0</ele><time>2026-04-30T14:31:12.338Z</time></trkpt><trkpt lat="43.513155" lon="11.1939017"><ele>233.0</ele><time>2026-04-30T14:31:13.338Z</time></trkpt><trkpt lat="43.513285" lon="11.1942233"><ele>238.0</ele><time>2026-04-30T14:31:14.338Z</time></trkpt><trkpt lat="43.5134017" lon="11.1945417"><ele>241.5</ele><time>2026-04-30T14:31:15.338Z</time></trkpt><trkpt lat="43.5135417" lon="11.19485"><ele>245.0</ele><time>2026-04-30T14:31:16.338Z</time></trkpt><trkpt lat="43.513695" lon="11.1951567"><ele>243.5</ele><time>2026-04-30T14:31:17.338Z</time></trkpt><trkpt lat="43.5138683" lon="11.1954533"><ele>242.0</ele><time>2026-04-30T14:31:18.338Z</time></trkpt><trkpt lat="43.5140733" lon="11.1957033"><ele>242.0</ele><time>2026-04-30T14:31:19.338Z</time></trkpt><trkpt lat="43.5142867" lon="11.1959383"><ele>242.0</ele><time>2026-04-30T14:31:20.338Z</time></trkpt><trkpt lat="43.5145067" lon="11.196155"><ele>236.5</ele><time>2026-04-30T14:31:21.338Z</time></trkpt><trkpt lat="43.5147433" lon="11.19636"><ele>231.0</ele><time>2026-04-30T14:31:22.338Z</time></trkpt><trkpt lat="43.5149783" lon="11.1965233"><ele>231.0</ele><time>2026-04-30T14:31:23.338Z</time></trkpt><trkpt lat="43.5152267" lon="11.1966817"><ele>231.0</ele><time>2026-04-30T14:31:24.338Z</time></trkpt><trkpt lat="43.515485" lon="11.19681"><ele>232.5</ele><time>2026-04-30T14:31:25.337Z</time></trkpt><trkpt lat="43.515745" lon="11.1969283"><ele>234.0</ele><time>2026-04-30T14:31:26.338Z</time></trkpt><trkpt lat="43.51601" lon="11.19702"><ele>240.0</ele><time>2026-04-30T14:31:27.337Z</time></trkpt><trkpt lat="43.5162717" lon="11.1970817"><ele>246.0</ele><time>2026-04-30T14:31:28.338Z</time></trkpt><trkpt lat="43.5165267" lon="11.1971217"><ele>246.0</ele><time>2026-04-30T14:31:29.337Z</time></trkpt><trkpt lat="43.5167917" lon="11.1971317"><ele>246.0</ele><time>2026-04-30T14:31:30.337Z</time></trkpt><trkpt lat="43.5170633" lon="11.1971467"><ele>249.5</ele><time>2026-04-30T14:31:31.338Z</time></trkpt><trkpt lat="43.5173233" lon="11.197145"><ele>253.0</ele><time>2026-04-30T14:31:32.337Z</time></trkpt><trkpt lat="43.5175933" lon="11.197145"><ele>253.0</ele><time>2026-04-30T14:31:33.338Z</time></trkpt><trkpt lat="43.5178617" lon="11.1971433"><ele>253.0</ele><time>2026-04-30T14:31:34.338Z</time></trkpt><trkpt lat="43.5181267" lon="11.19714"><ele>254.0</ele><time>2026-04-30T14:31:35.338Z</time></trkpt><trkpt lat="43.5183983" lon="11.1971567"><ele>255.0</ele><time>2026-04-30T14:31:36.338Z</time></trkpt><trkpt lat="43.518665" lon="11.1971883"><ele>255.5</ele><time>2026-04-30T14:31:37.338Z</time></trkpt><trkpt lat="43.518925" lon="11.1972283"><ele>256.0</ele><time>2026-04-30T14:31:38.337Z</time></trkpt><trkpt lat="43.5191817" lon="11.1972867"><ele>261.5</ele><time>2026-04-30T14:31:39.338Z</time></trkpt><trkpt lat="43.5194433" lon="11.1973533"><ele>267.0</ele><time>2026-04-30T14:31:40.338Z</time></trkpt><trkpt lat="43.519695" lon="11.19744"><ele>267.0</ele><time>2026-04-30T14:31:41.338Z</time></trkpt><trkpt lat="43.5199483" lon="11.19754"><ele>267.0</ele><time>2026-04-30T14:31:42.338Z</time></trkpt><trkpt lat="43.5201983" lon="11.19766"><ele>264.5</ele><time>2026-04-30T14:31:43.337Z</time></trkpt><trkpt lat="43.520445" lon="11.19778"><ele>262.0</ele><time>2026-04-30T14:31:44.337Z</time></trkpt><trkpt lat="43.5206917" lon="11.19792"><ele>262.0</ele><time>2026-04-30T14:31:45.338Z</time></trkpt><trkpt lat="43.5209167" lon="11.198055"><ele>262.0</ele><time>2026-04-30T14:31:46.338Z</time></trkpt><trkpt lat="43.521175" lon="11.1981783"><ele>266.5</ele><time>2026-04-30T14:31:47.338Z</time></trkpt><trkpt lat="43.5214383" lon="11.1983"><ele>271.0</ele><time>2026-04-30T14:31:48.337Z</time></trkpt><trkpt lat="43.5216933" lon="11.19843"><ele>271.0</ele><time>2026-04-30T14:31:49.337Z</time></trkpt><trkpt lat="43.5219433" lon="11.1985583"><ele>271.0</ele><time>2026-04-30T14:31:50.338Z</time></trkpt><trkpt lat="43.522195" lon="11.1987017"><ele>269.5</ele><time>2026-04-30T14:31:51.337Z</time></trkpt><trkpt lat="43.52245" lon="11.19884"><ele>268.0</ele><time>2026-04-30T14:31:52.338Z</time></trkpt><trkpt lat="43.5227033" lon="11.19899"><ele>270.0</ele><time>2026-04-30T14:31:53.338Z</time></trkpt><trkpt lat="43.52295" lon="11.1991517"><ele>272.0</ele><time>2026-04-30T14:31:54.338Z</time></trkpt><trkpt lat="43.5231967" lon="11.1993233"><ele>272.0</ele><time>2026-04-30T14:31:55.338Z</time></trkpt><trkpt lat="43.5234383" lon="11.1995067"><ele>272.0</ele><time>2026-04-30T14:31:56.337Z</time></trkpt><trkpt lat="43.5236683" lon="11.1996967"><ele>275.0</ele><time>2026-04-30T14:31:57.338Z</time></trkpt><trkpt lat="43.523885" lon="11.199895"><ele>278.0</ele><time>2026-04-30T14:31:58.338Z</time></trkpt><trkpt lat="43.52412" lon="11.2001033"><ele>278.0</ele><time>2026-04-30T14:31:59.337Z</time></trkpt><trkpt lat="43.52435" lon="11.2003267"><ele>278.0</ele><time>2026-04-30T14:32:00.338Z</time></trkpt><trkpt lat="43.5245733" lon="11.2005617"><ele>280.0</ele><time>2026-04-30T14:32:01.337Z</time></trkpt><trkpt lat="43.5247833" lon="11.2007967"><ele>282.0</ele><time>2026-04-30T14:32:02.338Z</time></trkpt><trkpt lat="43.524985" lon="11.2010317"><ele>282.0</ele><time>2026-04-30T14:32:03.338Z</time></trkpt><trkpt lat="43.5251733" lon="11.2012883"><ele>282.0</ele><time>2026-04-30T14:32:04.338Z</time></trkpt><trkpt lat="43.5253683" lon="11.2015383"><ele>286.5</ele><time>2026-04-30T14:32:05.338Z</time></trkpt><trkpt lat="43.5255533" lon="11.2017933"><ele>291.0</ele><time>2026-04-30T14:32:06.337Z</time></trkpt><trkpt lat="43.525735" lon="11.2020583"><ele>290.5</ele><time>2026-04-30T14:32:07.338Z</time></trkpt><trkpt lat="43.5259083" lon="11.2023317"><ele>290.0</ele><time>2026-04-30T14:32:08.338Z</time></trkpt><trkpt lat="43.5260783" lon="11.2026083"><ele>289.5</ele><time>2026-04-30T14:32:09.337Z</time></trkpt><trkpt lat="43.526235" lon="11.20289"><ele>289.0</ele><time>2026-04-30T14:32:10.338Z</time></trkpt><trkpt lat="43.52639" lon="11.203175"><ele>289.0</ele><time>2026-04-30T14:32:11.338Z</time></trkpt><trkpt lat="43.5265383" lon="11.203465"><ele>289.0</ele><time>2026-04-30T14:32:12.338Z</time></trkpt><trkpt lat="43.5266767" lon="11.2037583"><ele>290.5</ele><time>2026-04-30T14:32:13.337Z</time></trkpt><trkpt lat="43.5267983" lon="11.20405"><ele>292.0</ele><time>2026-04-30T14:32:14.337Z</time></trkpt><trkpt lat="43.5269267" lon="11.2043317"><ele>292.0</ele><time>2026-04-30T14:32:15.338Z</time></trkpt><trkpt lat="43.5270533" lon="11.2046267"><ele>292.0</ele><time>2026-04-30T14:32:16.338Z</time></trkpt><trkpt lat="43.5271783" lon="11.204925"><ele>288.5</ele><time>2026-04-30T14:32:17.338Z</time></trkpt><trkpt lat="43.5272933" lon="11.2052233"><ele>285.0</ele><time>2026-04-30T14:32:18.337Z</time></trkpt><trkpt lat="43.5274117" lon="11.2055183"><ele>289.5</ele><time>2026-04-30T14:32:19.338Z</time></trkpt><trkpt lat="43.527545" lon="11.205805"><ele>294.0</ele><time>2026-04-30T14:32:20.338Z</time></trkpt><trkpt lat="43.5276733" lon="11.2060867"><ele>294.0</ele><time>2026-04-30T14:32:21.338Z</time></trkpt><trkpt lat="43.5277917" lon="11.20637"><ele>294.0</ele><time>2026-04-30T14:32:22.338Z</time></trkpt><trkpt lat="43.52791" lon="11.2066533"><ele>294.0</ele><time>2026-04-30T14:32:23.338Z</time></trkpt><trkpt lat="43.5280267" lon="11.20695"><ele>294.0</ele><time>2026-04-30T14:32:24.337Z</time></trkpt><trkpt lat="43.528145" lon="11.2072417"><ele>292.5</ele><time>2026-04-30T14:32:25.337Z</time></trkpt><trkpt lat="43.528285" lon="11.20754"><ele>291.0</ele><time>2026-04-30T14:32:26.337Z</time></trkpt><trkpt lat="43.5284167" lon="11.207835"><ele>291.0</ele><time>2026-04-30T14:32:27.337Z</time></trkpt><trkpt lat="43.5285483" lon="11.2081267"><ele>291.0</ele><time>2026-04-30T14:32:28.337Z</time></trkpt><trkpt lat="43.528705" lon="11.2083933"><ele>288.0</ele><time>2026-04-30T14:32:29.336Z</time></trkpt><trkpt lat="43.5288717" lon="11.2086617"><ele>285.0</ele><time>2026-04-30T14:32:30.337Z</time></trkpt><trkpt lat="43.5290383" lon="11.208915"><ele>289.5</ele><time>2026-04-30T14:32:31.336Z</time></trkpt><trkpt lat="43.5292117" lon="11.2091533"><ele>294.0</ele><time>2026-04-30T14:32:32.337Z</time></trkpt><trkpt lat="43.5293867" lon="11.2093917"><ele>292.0</ele><time>2026-04-30T14:32:33.337Z</time></trkpt><trkpt lat="43.529565" lon="11.2096467"><ele>290.0</ele><time>2026-04-30T14:32:34.336Z</time></trkpt><trkpt lat="43.529745" lon="11.2098917"><ele>290.0</ele><time>2026-04-30T14:32:35.337Z</time></trkpt><trkpt lat="43.5299233" lon="11.2101617"><ele>290.0</ele><time>2026-04-30T14:32:36.337Z</time></trkpt><trkpt lat="43.5300917" lon="11.2104433"><ele>295.5</ele><time>2026-04-30T14:32:37.336Z</time></trkpt><trkpt lat="43.5302383" lon="11.2107483"><ele>301.0</ele><time>2026-04-30T14:32:38.337Z</time></trkpt><trkpt lat="43.5303733" lon="11.2110617"><ele>294.5</ele><time>2026-04-30T14:32:39.337Z</time></trkpt><trkpt lat="43.53049" lon="11.2113783"><ele>288.0</ele><time>2026-04-30T14:32:40.336Z</time></trkpt><trkpt lat="43.5306033" lon="11.2117067"><ele>288.0</ele><time>2026-04-30T14:32:41.337Z</time></trkpt><trkpt lat="43.5307067" lon="11.212055"><ele>288.0</ele><time>2026-04-30T14:32:42.336Z</time></trkpt><trkpt lat="43.5308017" lon="11.2124"><ele>290.0</ele><time>2026-04-30T14:32:43.337Z</time></trkpt><trkpt lat="43.530895" lon="11.2127483"><ele>292.0</ele><time>2026-04-30T14:32:44.337Z</time></trkpt><trkpt lat="43.5309883" lon="11.2130817"><ele>292.5</ele><time>2026-04-30T14:32:45.337Z</time></trkpt><trkpt lat="43.53108" lon="11.213405"><ele>293.0</ele><time>2026-04-30T14:32:46.336Z</time></trkpt><trkpt lat="43.531185" lon="11.2137233"><ele>285.0</ele><time>2026-04-30T14:32:47.336Z</time></trkpt><trkpt lat="43.5313083" lon="11.2140333"><ele>277.0</ele><time>2026-04-30T14:32:48.337Z</time></trkpt><trkpt lat="43.531435" lon="11.2143283"><ele>277.0</ele><time>2026-04-30T14:32:49.337Z</time></trkpt><trkpt lat="43.531585" lon="11.21462"><ele>277.0</ele><time>2026-04-30T14:32:50.337Z</time></trkpt><trkpt lat="43.5317367" lon="11.2148933"><ele>278.0</ele><time>2026-04-30T14:32:51.337Z</time></trkpt><trkpt lat="43.5319" lon="11.21515"><ele>279.0</ele><time>2026-04-30T14:32:52.337Z</time></trkpt><trkpt lat="43.5320717" lon="11.21541"><ele>288.5</ele><time>2026-04-30T14:32:53.337Z</time></trkpt><trkpt lat="43.53225" lon="11.21566"><ele>298.0</ele><time>2026-04-30T14:32:54.337Z</time></trkpt><trkpt lat="43.5324217" lon="11.2159217"><ele>298.0</ele><time>2026-04-30T14:32:55.337Z</time></trkpt><trkpt lat="43.5325983" lon="11.2161783"><ele>298.0</ele><time>2026-04-30T14:32:56.337Z</time></trkpt><trkpt lat="43.5327817" lon="11.2164633"><ele>303.0</ele><time>2026-04-30T14:32:57.337Z</time></trkpt><trkpt lat="43.5329467" lon="11.2167417"><ele>308.0</ele><time>2026-04-30T14:32:58.336Z</time></trkpt><trkpt lat="43.5331133" lon="11.21703"><ele>308.0</ele><time>2026-04-30T14:32:59.337Z</time></trkpt><trkpt lat="43.533285" lon="11.2173083"><ele>308.0</ele><time>2026-04-30T14:33:00.337Z</time></trkpt><trkpt lat="43.5334583" lon="11.2175917"><ele>306.5</ele><time>2026-04-30T14:33:01.337Z</time></trkpt><trkpt lat="43.53363" lon="11.2178667"><ele>305.0</ele><time>2026-04-30T14:33:02.337Z</time></trkpt><trkpt lat="43.5338133" lon="11.2181417"><ele>307.5</ele><time>2026-04-30T14:33:03.336Z</time></trkpt><trkpt lat="43.5340017" lon="11.21841"><ele>310.0</ele><time>2026-04-30T14:33:04.336Z</time></trkpt><trkpt lat="43.5342017" lon="11.21868"><ele>310.0</ele><time>2026-04-30T14:33:05.337Z</time></trkpt><trkpt lat="43.5344133" lon="11.2189333"><ele>310.0</ele><time>2026-04-30T14:33:06.337Z</time></trkpt><trkpt lat="43.53464" lon="11.2191667"><ele>312.5</ele><time>2026-04-30T14:33:07.337Z</time></trkpt><trkpt lat="43.53488" lon="11.2193783"><ele>315.0</ele><time>2026-04-30T14:33:08.337Z</time></trkpt><trkpt lat="43.5351133" lon="11.2195667"><ele>315.0</ele><time>2026-04-30T14:33:09.336Z</time></trkpt><trkpt lat="43.5353517" lon="11.2197367"><ele>315.0</ele><time>2026-04-30T14:33:10.337Z</time></trkpt><trkpt lat="43.5355933" lon="11.219895"><ele>316.5</ele><time>2026-04-30T14:33:11.337Z</time></trkpt><trkpt lat="43.5358467" lon="11.220045"><ele>318.0</ele><time>2026-04-30T14:33:12.337Z</time></trkpt><trkpt lat="43.5361" lon="11.2201833"><ele>320.0</ele><time>2026-04-30T14:33:13.337Z</time></trkpt><trkpt lat="43.5363533" lon="11.2203017"><ele>322.0</ele><time>2026-04-30T14:33:14.337Z</time></trkpt><trkpt lat="43.5366167" lon="11.220395"><ele>322.0</ele><time>2026-04-30T14:33:15.337Z</time></trkpt><trkpt lat="43.53688" lon="11.220475"><ele>322.0</ele><time>2026-04-30T14:33:16.337Z</time></trkpt><trkpt lat="43.53716" lon="11.22055"><ele>320.0</ele><time>2026-04-30T14:33:17.337Z</time></trkpt><trkpt lat="43.5374383" lon="11.2206083"><ele>318.0</ele><time>2026-04-30T14:33:18.337Z</time></trkpt><trkpt lat="43.53772" lon="11.2206367"><ele>315.0</ele><time>2026-04-30T14:33:19.336Z</time></trkpt><trkpt lat="43.5379917" lon="11.220645"><ele>312.0</ele><time>2026-04-30T14:33:20.337Z</time></trkpt><trkpt lat="43.5382583" lon="11.22064"><ele>312.0</ele><time>2026-04-30T14:33:21.337Z</time></trkpt><trkpt lat="43.5385233" lon="11.2205983"><ele>312.0</ele><time>2026-04-30T14:33:22.337Z</time></trkpt><trkpt lat="43.53879" lon="11.220535"><ele>311.5</ele><time>2026-04-30T14:33:23.336Z</time></trkpt><trkpt lat="43.5390567" lon="11.220445"><ele>311.0</ele><time>2026-04-30T14:33:24.336Z</time></trkpt><trkpt lat="43.5393283" lon="11.2203433"><ele>312.5</ele><time>2026-04-30T14:33:25.337Z</time></trkpt><trkpt lat="43.5395917" lon="11.220215"><ele>314.0</ele><time>2026-04-30T14:33:26.336Z</time></trkpt><trkpt lat="43.5398617" lon="11.2200683"><ele>314.0</ele><time>2026-04-30T14:33:27.337Z</time></trkpt><trkpt lat="43.5401167" lon="11.2199083"><ele>314.0</ele><time>2026-04-30T14:33:28.337Z</time></trkpt><trkpt lat="43.5403667" lon="11.2197217"><ele>311.5</ele><time>2026-04-30T14:33:29.336Z</time></trkpt><trkpt lat="43.54061" lon="11.219525"><ele>309.0</ele><time>2026-04-30T14:33:30.336Z</time></trkpt><trkpt lat="43.5408533" lon="11.219325"><ele>309.0</ele><time>2026-04-30T14:33:31.337Z</time></trkpt><trkpt lat="43.541085" lon="11.2190867"><ele>309.0</ele><time>2026-04-30T14:33:32.337Z</time></trkpt><trkpt lat="43.5413067" lon="11.21884"><ele>306.0</ele><time>2026-04-30T14:33:33.337Z</time></trkpt><trkpt lat="43.5415267" lon="11.2185683"><ele>303.0</ele><time>2026-04-30T14:33:34.336Z</time></trkpt><trkpt lat="43.5417333" lon="11.2182917"><ele>303.0</ele><time>2026-04-30T14:33:35.337Z</time></trkpt><trkpt lat="43.5419117" lon="11.2180017"><ele>303.0</ele><time>2026-04-30T14:33:36.337Z</time></trkpt><trkpt lat="43.5420967" lon="11.2177033"><ele>303.0</ele><time>2026-04-30T14:33:37.337Z</time></trkpt><trkpt lat="43.5422883" lon="11.2174017"><ele>303.0</ele><time>2026-04-30T14:33:38.337Z</time></trkpt><trkpt lat="43.5424783" lon="11.2170883"><ele>299.0</ele><time>2026-04-30T14:33:39.337Z</time></trkpt><trkpt lat="43.5426717" lon="11.2167867"><ele>295.0</ele><time>2026-04-30T14:33:40.337Z</time></trkpt><trkpt lat="43.542875" lon="11.2164883"><ele>293.5</ele><time>2026-04-30T14:33:41.336Z</time></trkpt><trkpt lat="43.5430667" lon="11.2161983"><ele>292.0</ele><time>2026-04-30T14:33:42.336Z</time></trkpt><trkpt lat="43.54326" lon="11.2159017"><ele>290.5</ele><time>2026-04-30T14:33:43.337Z</time></trkpt><trkpt lat="43.5434483" lon="11.2156"><ele>289.0</ele><time>2026-04-30T14:33:44.336Z</time></trkpt><trkpt lat="43.54364" lon="11.2153033"><ele>292.5</ele><time>2026-04-30T14:33:45.336Z</time></trkpt><trkpt lat="43.5438333" lon="11.215"><ele>296.0</ele><time>2026-04-30T14:33:46.337Z</time></trkpt><trkpt lat="43.5440317" lon="11.214695"><ele>296.0</ele><time>2026-04-30T14:33:47.337Z</time></trkpt><trkpt lat="43.54424" lon="11.214395"><ele>296.0</ele><time>2026-04-30T14:33:48.337Z</time></trkpt><trkpt lat="43.54446" lon="11.2140967"><ele>296.0</ele><time>2026-04-30T14:33:49.337Z</time></trkpt><trkpt lat="43.544685" lon="11.2137933"><ele>296.0</ele><time>2026-04-30T14:33:50.337Z</time></trkpt><trkpt lat="43.5449033" lon="11.2134983"><ele>296.0</ele><time>2026-04-30T14:33:51.336Z</time></trkpt><trkpt lat="43.5451333" lon="11.2132117"><ele>296.0</ele><time>2026-04-30T14:33:52.337Z</time></trkpt><trkpt lat="43.54537" lon="11.21293"><ele>295.0</ele><time>2026-04-30T14:33:53.336Z</time></trkpt><trkpt lat="43.5456033" lon="11.2126567"><ele>294.0</ele><time>2026-04-30T14:33:54.337Z</time></trkpt><trkpt lat="43.5458383" lon="11.21239"><ele>294.5</ele><time>2026-04-30T14:33:55.337Z</time></trkpt><trkpt lat="43.546075" lon="11.21213"><ele>295.0</ele><time>2026-04-30T14:33:56.337Z</time></trkpt><trkpt lat="43.5463067" lon="11.21187"><ele>295.0</ele><time>2026-04-30T14:33:57.336Z</time></trkpt><trkpt lat="43.5465433" lon="11.2116183"><ele>295.0</ele><time>2026-04-30T14:33:58.337Z</time></trkpt><trkpt lat="43.5467767" lon="11.2114033"><ele>294.5</ele><time>2026-04-30T14:33:59.337Z</time></trkpt><trkpt lat="43.547015" lon="11.2111817"><ele>294.0</ele><time>2026-04-30T14:34:00.336Z</time></trkpt><trkpt lat="43.5472633" lon="11.2109867"><ele>301.0</ele><time>2026-04-30T14:34:01.336Z</time></trkpt><trkpt lat="43.5475217" lon="11.2108117"><ele>308.0</ele><time>2026-04-30T14:34:02.336Z</time></trkpt><trkpt lat="43.54778" lon="11.2106633"><ele>305.5</ele><time>2026-04-30T14:34:03.337Z</time></trkpt><trkpt lat="43.5480433" lon="11.2105483"><ele>303.0</ele><time>2026-04-30T14:34:04.336Z</time></trkpt><trkpt lat="43.5483133" lon="11.2104483"><ele>303.0</ele><time>2026-04-30T14:34:05.337Z</time></trkpt><trkpt lat="43.5485867" lon="11.2103833"><ele>303.0</ele><time>2026-04-30T14:34:06.337Z</time></trkpt><trkpt lat="43.5488583" lon="11.2103433"><ele>307.0</ele><time>2026-04-30T14:34:07.337Z</time></trkpt><trkpt lat="43.54913" lon="11.2103117"><ele>311.0</ele><time>2026-04-30T14:34:08.336Z</time></trkpt><trkpt lat="43.5494083" lon="11.2103"><ele>310.5</ele><time>2026-04-30T14:34:09.337Z</time></trkpt><trkpt lat="43.5496967" lon="11.2103017"><ele>310.0</ele><time>2026-04-30T14:34:10.337Z</time></trkpt><trkpt lat="43.549985" lon="11.2103083"><ele>310.0</ele><time>2026-04-30T14:34:11.337Z</time></trkpt><trkpt lat="43.55027" lon="11.2102983"><ele>310.0</ele><time>2026-04-30T14:34:12.337Z</time></trkpt><trkpt lat="43.55055" lon="11.2103"><ele>305.0</ele><time>2026-04-30T14:34:13.337Z</time></trkpt><trkpt lat="43.550825" lon="11.2102933"><ele>300.0</ele><time>2026-04-30T14:34:14.337Z</time></trkpt><trkpt lat="43.5511017" lon="11.2102883"><ele>303.0</ele><time>2026-04-30T14:34:15.337Z</time></trkpt><trkpt lat="43.5513817" lon="11.2102833"><ele>306.0</ele><time>2026-04-30T14:34:16.337Z</time></trkpt><trkpt lat="43.5516633" lon="11.21028"><ele>306.0</ele><time>2026-04-30T14:34:17.336Z</time></trkpt><trkpt lat="43.5519383" lon="11.2102767"><ele>306.0</ele><time>2026-04-30T14:34:18.337Z</time></trkpt><trkpt lat="43.5522233" lon="11.2102767"><ele>310.0</ele><time>2026-04-30T14:34:19.336Z</time></trkpt><trkpt lat="43.55251" lon="11.2102733"><ele>314.0</ele><time>2026-04-30T14:34:20.337Z</time></trkpt><trkpt lat="43.5527933" lon="11.21027"><ele>314.5</ele><time>2026-04-30T14:34:21.337Z</time></trkpt><trkpt lat="43.5530767" lon="11.2102617"><ele>315.0</ele><time>2026-04-30T14:34:22.336Z</time></trkpt><trkpt lat="43.553355" lon="11.2102567"><ele>315.0</ele><time>2026-04-30T14:34:23.336Z</time></trkpt><trkpt lat="43.5536333" lon="11.2102517"><ele>315.0</ele><time>2026-04-30T14:34:24.337Z</time></trkpt><trkpt lat="43.5539133" lon="11.21025"><ele>316.5</ele><time>2026-04-30T14:34:25.337Z</time></trkpt><trkpt lat="43.5541917" lon="11.210255"><ele>318.0</ele><time>2026-04-30T14:34:26.336Z</time></trkpt><trkpt lat="43.554465" lon="11.2102733"><ele>315.0</ele><time>2026-04-30T14:34:27.337Z</time></trkpt><trkpt lat="43.5547317" lon="11.210325"><ele>312.0</ele><time>2026-04-30T14:34:28.336Z</time></trkpt><trkpt lat="43.555015" lon="11.210385"><ele>312.0</ele><time>2026-04-30T14:34:29.336Z</time></trkpt><trkpt lat="43.5552833" lon="11.2104617"><ele>312.0</ele><time>2026-04-30T14:34:30.337Z</time></trkpt><trkpt lat="43.5555483" lon="11.21057"><ele>307.5</ele><time>2026-04-30T14:34:31.337Z</time></trkpt><trkpt lat="43.555795" lon="11.2106917"><ele>303.0</ele><time>2026-04-30T14:34:32.336Z</time></trkpt><trkpt lat="43.5560433" lon="11.2108367"><ele>300.5</ele><time>2026-04-30T14:34:33.337Z</time></trkpt><trkpt lat="43.5562833" lon="11.2109967"><ele>298.0</ele><time>2026-04-30T14:34:34.337Z</time></trkpt><trkpt lat="43.5565267" lon="11.2111833"><ele>298.0</ele><time>2026-04-30T14:34:35.337Z</time></trkpt><trkpt lat="43.556775" lon="11.211365"><ele>298.0</ele><time>2026-04-30T14:34:36.337Z</time></trkpt><trkpt lat="43.557005" lon="11.21158"><ele>292.5</ele><time>2026-04-30T14:34:37.337Z</time></trkpt><trkpt lat="43.55725" lon="11.2117817"><ele>287.0</ele><time>2026-04-30T14:34:38.336Z</time></trkpt><trkpt lat="43.5574983" lon="11.2119733"><ele>287.0</ele><time>2026-04-30T14:34:39.337Z</time></trkpt><trkpt lat="43.5577483" lon="11.21215"><ele>287.0</ele><time>2026-04-30T14:34:40.337Z</time></trkpt><trkpt lat="43.5580083" lon="11.2122967"><ele>287.5</ele><time>2026-04-30T14:34:41.337Z</time></trkpt><trkpt lat="43.55827" lon="11.21243"><ele>288.0</ele><time>2026-04-30T14:34:42.337Z</time></trkpt><trkpt lat="43.558535" lon="11.2125483"><ele>288.0</ele><time>2026-04-30T14:34:43.337Z</time></trkpt><trkpt lat="43.5588067" lon="11.212645"><ele>288.0</ele><time>2026-04-30T14:34:44.337Z</time></trkpt><trkpt lat="43.55908" lon="11.2127017"><ele>288.0</ele><time>2026-04-30T14:34:45.337Z</time></trkpt><trkpt lat="43.5593517" lon="11.2127533"><ele>288.0</ele><time>2026-04-30T14:34:46.337Z</time></trkpt><trkpt lat="43.559625" lon="11.2127833"><ele>287.0</ele><time>2026-04-30T14:34:47.337Z</time></trkpt><trkpt lat="43.5599" lon="11.2128183"><ele>286.0</ele><time>2026-04-30T14:34:48.337Z</time></trkpt><trkpt lat="43.5601667" lon="11.2128417"><ele>282.0</ele><time>2026-04-30T14:34:49.336Z</time></trkpt><trkpt lat="43.56042" lon="11.2128683"><ele>278.0</ele><time>2026-04-30T14:34:50.337Z</time></trkpt><trkpt lat="43.5606633" lon="11.212905"><ele>278.0</ele><time>2026-04-30T14:34:51.337Z</time></trkpt><trkpt lat="43.560905" lon="11.2129367"><ele>278.0</ele><time>2026-04-30T14:34:52.337Z</time></trkpt><trkpt lat="43.561135" lon="11.21297"><ele>277.0</ele><time>2026-04-30T14:34:53.336Z</time></trkpt><trkpt lat="43.561365" lon="11.2129933"><ele>276.0</ele><time>2026-04-30T14:34:54.337Z</time></trkpt><trkpt lat="43.5615917" lon="11.2130233"><ele>276.0</ele><time>2026-04-30T14:34:55.336Z</time></trkpt><trkpt lat="43.5618217" lon="11.21305"><ele>276.0</ele><time>2026-04-30T14:34:56.337Z</time></trkpt><trkpt lat="43.5620433" lon="11.213075"><ele>276.0</ele><time>2026-04-30T14:34:57.337Z</time></trkpt><trkpt lat="43.5622617" lon="11.213105"><ele>276.0</ele><time>2026-04-30T14:34:58.337Z</time></trkpt><trkpt lat="43.5624833" lon="11.2131383"><ele>276.0</ele><time>2026-04-30T14:34:59.337Z</time></trkpt><trkpt lat="43.562705" lon="11.2131683"><ele>268.0</ele><time>2026-04-30T14:35:00.336Z</time></trkpt><trkpt lat="43.5629433" lon="11.2132133"><ele>260.0</ele><time>2026-04-30T14:35:01.336Z</time></trkpt><trkpt lat="43.5631783" lon="11.2132467"><ele>260.0</ele><time>2026-04-30T14:35:02.337Z</time></trkpt><trkpt lat="43.5634117" lon="11.2132767"><ele>260.0</ele><time>2026-04-30T14:35:03.336Z</time></trkpt><trkpt lat="43.5636367" lon="11.2132983"><ele>262.0</ele><time>2026-04-30T14:35:04.337Z</time></trkpt><trkpt lat="43.56385" lon="11.2133167"><ele>264.0</ele><time>2026-04-30T14:35:05.337Z</time></trkpt><trkpt lat="43.564065" lon="11.21334"><ele>266.0</ele><time>2026-04-30T14:35:06.336Z</time></trkpt><trkpt lat="43.5642717" lon="11.2133567"><ele>266.0</ele><time>2026-04-30T14:35:07.337Z</time></trkpt><trkpt lat="43.5644833" lon="11.2133567"><ele>266.0</ele><time>2026-04-30T14:35:08.337Z</time></trkpt><trkpt lat="43.564685" lon="11.213345"><ele>266.0</ele><time>2026-04-30T14:35:09.337Z</time></trkpt><trkpt lat="43.5648833" lon="11.2133117"><ele>267.0</ele><time>2026-04-30T14:35:10.337Z</time></trkpt><trkpt lat="43.5650833" lon="11.2132817"><ele>268.0</ele><time>2026-04-30T14:35:11.337Z</time></trkpt><trkpt lat="43.5652767" lon="11.2132433"><ele>269.0</ele><time>2026-04-30T14:35:12.337Z</time></trkpt><trkpt lat="43.5654633" lon="11.213195"><ele>271.0</ele><time>2026-04-30T14:35:13.337Z</time></trkpt><trkpt lat="43.5656517" lon="11.2131383"><ele>273.0</ele><time>2026-04-30T14:35:14.336Z</time></trkpt><trkpt lat="43.5658383" lon="11.2130667"><ele>275.0</ele><time>2026-04-30T14:35:15.337Z</time></trkpt><trkpt lat="43.566015" lon="11.2129817"><ele>275.0</ele><time>2026-04-30T14:35:16.337Z</time></trkpt><trkpt lat="43.5661917" lon="11.2128883"><ele>275.0</ele><time>2026-04-30T14:35:17.337Z</time></trkpt><trkpt lat="43.56635" lon="11.2128217"><ele>275.0</ele><time>2026-04-30T14:35:18.337Z</time></trkpt><trkpt lat="43.5665183" lon="11.212685"><ele>270.6666666666667</ele><time>2026-04-30T14:35:19.336Z</time></trkpt><trkpt lat="43.5666767" lon="11.2125583"><ele>266.3333333333333</ele><time>2026-04-30T14:35:20.336Z</time></trkpt><trkpt lat="43.56683" lon="11.21245"><ele>262.0</ele><time>2026-04-30T14:35:21.336Z</time></trkpt><trkpt lat="43.566965" lon="11.21232"><ele>254.66666666666666</ele><time>2026-04-30T14:35:22.336Z</time></trkpt><trkpt lat="43.5670883" lon="11.2122"><ele>247.33333333333331</ele><time>2026-04-30T14:35:23.336Z</time></trkpt><trkpt lat="43.5672117" lon="11.2120717"><ele>240.0</ele><time>2026-04-30T14:35:24.337Z</time></trkpt><trkpt lat="43.567335" lon="11.2119217"><ele>240.0</ele><time>2026-04-30T14:35:25.336Z</time></trkpt><trkpt lat="43.56746" lon="11.2117733"><ele>240.0</ele><time>2026-04-30T14:35:26.336Z</time></trkpt><trkpt lat="43.5675867" lon="11.21163"><ele>240.0</ele><time>2026-04-30T14:35:27.337Z</time></trkpt><trkpt lat="43.5677117" lon="11.2114917"><ele>239.66666666666669</ele><time>2026-04-30T14:35:28.337Z</time></trkpt><trkpt lat="43.5678483" lon="11.21134"><ele>239.33333333333334</ele><time>2026-04-30T14:35:29.336Z</time></trkpt><trkpt lat="43.5679867" lon="11.211185"><ele>239.0</ele><time>2026-04-30T14:35:30.336Z</time></trkpt><trkpt lat="43.568125" lon="11.2110383"><ele>239.0</ele><time>2026-04-30T14:35:31.337Z</time></trkpt><trkpt lat="43.5682917" lon="11.210855"><ele>239.0</ele><time>2026-04-30T14:35:32.336Z</time></trkpt><trkpt lat="43.5684617" lon="11.21066"><ele>239.0</ele><time>2026-04-30T14:35:33.337Z</time></trkpt><trkpt lat="43.5686467" lon="11.2104667"><ele>238.0</ele><time>2026-04-30T14:35:34.337Z</time></trkpt><trkpt lat="43.5688283" lon="11.2102533"><ele>237.0</ele><time>2026-04-30T14:35:35.336Z</time></trkpt><trkpt lat="43.56902" lon="11.210045"><ele>237.0</ele><time>2026-04-30T14:35:36.336Z</time></trkpt><trkpt lat="43.569215" lon="11.2098333"><ele>237.0</ele><time>2026-04-30T14:35:37.337Z</time></trkpt><trkpt lat="43.569415" lon="11.2096167"><ele>234.0</ele><time>2026-04-30T14:35:38.337Z</time></trkpt><trkpt lat="43.5696133" lon="11.209395"><ele>231.0</ele><time>2026-04-30T14:35:39.337Z</time></trkpt><trkpt lat="43.5698133" lon="11.2091633"><ele>236.0</ele><time>2026-04-30T14:35:40.337Z</time></trkpt><trkpt lat="43.5700183" lon="11.2089333"><ele>241.0</ele><time>2026-04-30T14:35:41.337Z</time></trkpt><trkpt lat="43.5702233" lon="11.2087117"><ele>234.5</ele><time>2026-04-30T14:35:42.337Z</time></trkpt><trkpt lat="43.5704333" lon="11.208495"><ele>228.0</ele><time>2026-04-30T14:35:43.337Z</time></trkpt><trkpt lat="43.5706467" lon="11.2082733"><ele>233.0</ele><time>2026-04-30T14:35:44.337Z</time></trkpt><trkpt lat="43.570865" lon="11.2080717"><ele>238.0</ele><time>2026-04-30T14:35:45.336Z</time></trkpt><trkpt lat="43.571085" lon="11.207885"><ele>228.5</ele><time>2026-04-30T14:35:46.337Z</time></trkpt><trkpt lat="43.57133" lon="11.2077433"><ele>219.0</ele><time>2026-04-30T14:35:47.336Z</time></trkpt><trkpt lat="43.5715783" lon="11.2076117"><ele>219.0</ele><time>2026-04-30T14:35:48.337Z</time></trkpt><trkpt lat="43.5718217" lon="11.2074733"><ele>219.0</ele><time>2026-04-30T14:35:49.337Z</time></trkpt><trkpt lat="43.5720617" lon="11.2073333"><ele>217.0</ele><time>2026-04-30T14:35:50.336Z</time></trkpt><trkpt lat="43.5723" lon="11.2071933"><ele>215.0</ele><time>2026-04-30T14:35:51.336Z</time></trkpt><trkpt lat="43.57254" lon="11.2070683"><ele>215.0</ele><time>2026-04-30T14:35:52.337Z</time></trkpt><trkpt lat="43.572785" lon="11.206945"><ele>215.0</ele><time>2026-04-30T14:35:53.337Z</time></trkpt><trkpt lat="43.5730217" lon="11.20681"><ele>217.0</ele><time>2026-04-30T14:35:54.337Z</time></trkpt><trkpt lat="43.5732733" lon="11.206675"><ele>219.0</ele><time>2026-04-30T14:35:55.336Z</time></trkpt><trkpt lat="43.5735267" lon="11.2065383"><ele>224.5</ele><time>2026-04-30T14:35:56.337Z</time></trkpt><trkpt lat="43.5737767" lon="11.2063967"><ele>230.0</ele><time>2026-04-30T14:35:57.337Z</time></trkpt><trkpt lat="43.5740233" lon="11.2062567"><ele>230.0</ele><time>2026-04-30T14:35:58.337Z</time></trkpt><trkpt lat="43.5742667" lon="11.20612"><ele>230.0</ele><time>2026-04-30T14:35:59.337Z</time></trkpt><trkpt lat="43.5745117" lon="11.2059817"><ele>220.0</ele><time>2026-04-30T14:36:00.336Z</time></trkpt><trkpt lat="43.57475" lon="11.2058383"><ele>210.0</ele><time>2026-04-30T14:36:01.336Z</time></trkpt><trkpt lat="43.575005" lon="11.205685"><ele>209.5</ele><time>2026-04-30T14:36:02.337Z</time></trkpt><trkpt lat="43.5752533" lon="11.2055417"><ele>209.0</ele><time>2026-04-30T14:36:03.337Z</time></trkpt><trkpt lat="43.5755017" lon="11.2054017"><ele>209.0</ele><time>2026-04-30T14:36:04.337Z</time></trkpt><trkpt lat="43.575755" lon="11.2052767"><ele>209.0</ele><time>2026-04-30T14:36:05.336Z</time></trkpt><trkpt lat="43.576" lon="11.20515"><ele>203.5</ele><time>2026-04-30T14:36:06.337Z</time></trkpt><trkpt lat="43.5762583" lon="11.20503"><ele>198.0</ele><time>2026-04-30T14:36:07.336Z</time></trkpt><trkpt lat="43.57651" lon="11.2049233"><ele>200.0</ele><time>2026-04-30T14:36:08.336Z</time></trkpt><trkpt lat="43.576765" lon="11.204815"><ele>202.0</ele><time>2026-04-30T14:36:09.336Z</time></trkpt><trkpt lat="43.5770233" lon="11.2047033"><ele>202.0</ele><time>2026-04-30T14:36:10.337Z</time></trkpt><trkpt lat="43.5772767" lon="11.2046083"><ele>202.0</ele><time>2026-04-30T14:36:11.336Z</time></trkpt><trkpt lat="43.5775417" lon="11.2045283"><ele>202.0</ele><time>2026-04-30T14:36:12.336Z</time></trkpt><trkpt lat="43.5777967" lon="11.2044367"><ele>202.0</ele><time>2026-04-30T14:36:13.336Z</time></trkpt><trkpt lat="43.57806" lon="11.2043517"><ele>199.0</ele><time>2026-04-30T14:36:14.337Z</time></trkpt><trkpt lat="43.5783133" lon="11.2042617"><ele>196.0</ele><time>2026-04-30T14:36:15.337Z</time></trkpt><trkpt lat="43.5785767" lon="11.2041817"><ele>191.5</ele><time>2026-04-30T14:36:16.337Z</time></trkpt><trkpt lat="43.5788483" lon="11.2041017"><ele>187.0</ele><time>2026-04-30T14:36:17.337Z</time></trkpt><trkpt lat="43.579115" lon="11.20402"><ele>190.5</ele><time>2026-04-30T14:36:18.336Z</time></trkpt><trkpt lat="43.579385" lon="11.203945"><ele>194.0</ele><time>2026-04-30T14:36:19.337Z</time></trkpt><trkpt lat="43.5796483" lon="11.203855"><ele>194.0</ele><time>2026-04-30T14:36:20.337Z</time></trkpt><trkpt lat="43.5799167" lon="11.2037683"><ele>194.0</ele><time>2026-04-30T14:36:21.337Z</time></trkpt><trkpt lat="43.5801867" lon="11.2037"><ele>189.5</ele><time>2026-04-30T14:36:22.336Z</time></trkpt><trkpt lat="43.5804533" lon="11.2036183"><ele>185.0</ele><time>2026-04-30T14:36:23.337Z</time></trkpt><trkpt lat="43.5807067" lon="11.2035367"><ele>185.0</ele><time>2026-04-30T14:36:24.336Z</time></trkpt><trkpt lat="43.580955" lon="11.2034583"><ele>185.0</ele><time>2026-04-30T14:36:25.336Z</time></trkpt><trkpt lat="43.5812" lon="11.2033733"><ele>182.5</ele><time>2026-04-30T14:36:26.336Z</time></trkpt><trkpt lat="43.5814567" lon="11.2032967"><ele>180.0</ele><time>2026-04-30T14:36:27.337Z</time></trkpt><trkpt lat="43.58171" lon="11.203215"><ele>181.0</ele><time>2026-04-30T14:36:28.337Z</time></trkpt><trkpt lat="43.581975" lon="11.2031283"><ele>182.0</ele><time>2026-04-30T14:36:29.337Z</time></trkpt><trkpt lat="43.5822433" lon="11.203045"><ele>182.0</ele><time>2026-04-30T14:36:30.337Z</time></trkpt><trkpt lat="43.5825067" lon="11.2029633"><ele>182.0</ele><time>2026-04-30T14:36:31.337Z</time></trkpt><trkpt lat="43.5827733" lon="11.2028817"><ele>179.0</ele><time>2026-04-30T14:36:32.336Z</time></trkpt><trkpt lat="43.5830433" lon="11.2028"><ele>176.0</ele><time>2026-04-30T14:36:33.337Z</time></trkpt><trkpt lat="43.58331" lon="11.202725"><ele>176.0</ele><time>2026-04-30T14:36:34.337Z</time></trkpt><trkpt lat="43.5835717" lon="11.2026517"><ele>176.0</ele><time>2026-04-30T14:36:35.337Z</time></trkpt><trkpt lat="43.5838283" lon="11.2025733"><ele>175.0</ele><time>2026-04-30T14:36:36.336Z</time></trkpt><trkpt lat="43.5840883" lon="11.202495"><ele>174.0</ele><time>2026-04-30T14:36:37.337Z</time></trkpt><trkpt lat="43.584345" lon="11.2024217"><ele>173.5</ele><time>2026-04-30T14:36:38.336Z</time></trkpt><trkpt lat="43.5845967" lon="11.2023383"><ele>173.0</ele><time>2026-04-30T14:36:39.336Z</time></trkpt><trkpt lat="43.5848583" lon="11.2022633"><ele>174.0</ele><time>2026-04-30T14:36:40.336Z</time></trkpt><trkpt lat="43.58512" lon="11.202185"><ele>175.0</ele><time>2026-04-30T14:36:41.337Z</time></trkpt><trkpt lat="43.58539" lon="11.202105"><ele>175.0</ele><time>2026-04-30T14:36:42.337Z</time></trkpt><trkpt lat="43.5856467" lon="11.2020167"><ele>175.0</ele><time>2026-04-30T14:36:43.337Z</time></trkpt><trkpt lat="43.5859117" lon="11.2019433"><ele>175.0</ele><time>2026-04-30T14:36:44.336Z</time></trkpt><trkpt lat="43.5861767" lon="11.2018617"><ele>175.0</ele><time>2026-04-30T14:36:45.336Z</time></trkpt><trkpt lat="43.5864533" lon="11.2017767"><ele>172.5</ele><time>2026-04-30T14:36:46.337Z</time></trkpt><trkpt lat="43.5867317" lon="11.2017"><ele>170.0</ele><time>2026-04-30T14:36:47.337Z</time></trkpt><trkpt lat="43.5869983" lon="11.2016233"><ele>169.5</ele><time>2026-04-30T14:36:48.337Z</time></trkpt><trkpt lat="43.587255" lon="11.2015333"><ele>169.0</ele><time>2026-04-30T14:36:49.337Z</time></trkpt><trkpt lat="43.5875217" lon="11.20145"><ele>169.0</ele><time>2026-04-30T14:36:50.337Z</time></trkpt><trkpt lat="43.5877833" lon="11.2013517"><ele>169.0</ele><time>2026-04-30T14:36:51.336Z</time></trkpt><trkpt lat="43.588045" lon="11.2012567"><ele>167.0</ele><time>2026-04-30T14:36:52.337Z</time></trkpt><trkpt lat="43.5883017" lon="11.2011467"><ele>165.0</ele><time>2026-04-30T14:36:53.337Z</time></trkpt><trkpt lat="43.5885517" lon="11.2010183"><ele>163.5</ele><time>2026-04-30T14:36:54.337Z</time></trkpt><trkpt lat="43.5888017" lon="11.20089"><ele>162.0</ele><time>2026-04-30T14:36:55.337Z</time></trkpt><trkpt lat="43.5890517" lon="11.20076"><ele>161.5</ele><time>2026-04-30T14:36:56.336Z</time></trkpt><trkpt lat="43.5892967" lon="11.2006417"><ele>161.0</ele><time>2026-04-30T14:36:57.337Z</time></trkpt><trkpt lat="43.5895383" lon="11.2005217"><ele>161.0</ele><time>2026-04-30T14:36:58.337Z</time></trkpt><trkpt lat="43.5897817" lon="11.2004083"><ele>161.0</ele><time>2026-04-30T14:36:59.337Z</time></trkpt><trkpt lat="43.5900317" lon="11.20029"><ele>161.0</ele><time>2026-04-30T14:37:00.336Z</time></trkpt><trkpt lat="43.5902767" lon="11.2001733"><ele>161.0</ele><time>2026-04-30T14:37:01.336Z</time></trkpt><trkpt lat="43.5905217" lon="11.2000467"><ele>160.5</ele><time>2026-04-30T14:37:02.337Z</time></trkpt><trkpt lat="43.5907583" lon="11.1999283"><ele>160.0</ele><time>2026-04-30T14:37:03.337Z</time></trkpt><trkpt lat="43.590995" lon="11.1998083"><ele>160.5</ele><time>2026-04-30T14:37:04.337Z</time></trkpt><trkpt lat="43.591235" lon="11.1996833"><ele>161.0</ele><time>2026-04-30T14:37:05.337Z</time></trkpt><trkpt lat="43.5914783" lon="11.199565"><ele>161.0</ele><time>2026-04-30T14:37:06.337Z</time></trkpt><trkpt lat="43.5917183" lon="11.1994383"><ele>161.0</ele><time>2026-04-30T14:37:07.337Z</time></trkpt><trkpt lat="43.59196" lon="11.1993217"><ele>161.0</ele><time>2026-04-30T14:37:08.337Z</time></trkpt><trkpt lat="43.5922033" lon="11.1991967"><ele>161.0</ele><time>2026-04-30T14:37:09.337Z</time></trkpt><trkpt lat="43.59245" lon="11.1990667"><ele>162.0</ele><time>2026-04-30T14:37:10.337Z</time></trkpt><trkpt lat="43.592685" lon="11.19893"><ele>163.0</ele><time>2026-04-30T14:37:11.336Z</time></trkpt><trkpt lat="43.5929117" lon="11.1987867"><ele>163.0</ele><time>2026-04-30T14:37:12.337Z</time></trkpt><trkpt lat="43.5931383" lon="11.198645"><ele>163.0</ele><time>2026-04-30T14:37:13.337Z</time></trkpt><trkpt lat="43.5933533" lon="11.198495"><ele>163.0</ele><time>2026-04-30T14:37:14.337Z</time></trkpt><trkpt lat="43.5935417" lon="11.198325"><ele>163.0</ele><time>2026-04-30T14:37:15.337Z</time></trkpt><trkpt lat="43.5937367" lon="11.1981667"><ele>162.66666666666669</ele><time>2026-04-30T14:37:16.337Z</time></trkpt><trkpt lat="43.5939317" lon="11.1980167"><ele>162.33333333333334</ele><time>2026-04-30T14:37:17.337Z</time></trkpt><trkpt lat="43.594115" lon="11.1978517"><ele>162.0</ele><time>2026-04-30T14:37:18.337Z</time></trkpt><trkpt lat="43.5942983" lon="11.1976933"><ele>162.0</ele><time>2026-04-30T14:37:19.337Z</time></trkpt><trkpt lat="43.5944717" lon="11.1975283"><ele>162.0</ele><time>2026-04-30T14:37:20.337Z</time></trkpt><trkpt lat="43.5946417" lon="11.1973683"><ele>162.0</ele><time>2026-04-30T14:37:21.337Z</time></trkpt><trkpt lat="43.5948" lon="11.1972117"><ele>161.33333333333334</ele><time>2026-04-30T14:37:22.336Z</time></trkpt><trkpt lat="43.59496" lon="11.197045"><ele>160.66666666666669</ele><time>2026-04-30T14:37:23.337Z</time></trkpt><trkpt lat="43.595125" lon="11.1968833"><ele>160.0</ele><time>2026-04-30T14:37:24.337Z</time></trkpt><trkpt lat="43.5953" lon="11.1967183"><ele>160.33333333333334</ele><time>2026-04-30T14:37:25.337Z</time></trkpt><trkpt lat="43.595485" lon="11.19655"><ele>160.66666666666666</ele><time>2026-04-30T14:37:26.337Z</time></trkpt><trkpt lat="43.5956733" lon="11.1963783"><ele>161.0</ele><time>2026-04-30T14:37:27.337Z</time></trkpt><trkpt lat="43.595875" lon="11.1962067"><ele>161.0</ele><time>2026-04-30T14:37:28.337Z</time></trkpt><trkpt lat="43.596075" lon="11.196025"><ele>161.0</ele><time>2026-04-30T14:37:29.337Z</time></trkpt><trkpt lat="43.5962733" lon="11.1958383"><ele>162.0</ele><time>2026-04-30T14:37:30.337Z</time></trkpt><trkpt lat="43.5964767" lon="11.1956533"><ele>163.0</ele><time>2026-04-30T14:37:31.336Z</time></trkpt><trkpt lat="43.5966883" lon="11.1954667"><ele>163.0</ele><time>2026-04-30T14:37:32.336Z</time></trkpt><trkpt lat="43.596905" lon="11.1952717"><ele>163.0</ele><time>2026-04-30T14:37:33.337Z</time></trkpt><trkpt lat="43.597125" lon="11.1950817"><ele>160.5</ele><time>2026-04-30T14:37:34.337Z</time></trkpt><trkpt lat="43.597355" lon="11.1949017"><ele>158.0</ele><time>2026-04-30T14:37:35.337Z</time></trkpt><trkpt lat="43.59759" lon="11.194715"><ele>158.0</ele><time>2026-04-30T14:37:36.337Z</time></trkpt><trkpt lat="43.5978333" lon="11.19454"><ele>158.0</ele><time>2026-04-30T14:37:37.337Z</time></trkpt><trkpt lat="43.5980783" lon="11.194375"><ele>155.5</ele><time>2026-04-30T14:37:38.337Z</time></trkpt><trkpt lat="43.598325" lon="11.1942133"><ele>153.0</ele><time>2026-04-30T14:37:39.336Z</time></trkpt><trkpt lat="43.5985783" lon="11.1940567"><ele>152.0</ele><time>2026-04-30T14:37:40.337Z</time></trkpt><trkpt lat="43.5988333" lon="11.19391"><ele>151.0</ele><time>2026-04-30T14:37:41.337Z</time></trkpt><trkpt lat="43.5990917" lon="11.1937717"><ele>151.0</ele><time>2026-04-30T14:37:42.337Z</time></trkpt><trkpt lat="43.5993567" lon="11.1936467"><ele>151.0</ele><time>2026-04-30T14:37:43.337Z</time></trkpt><trkpt lat="43.5996317" lon="11.1935383"><ele>151.5</ele><time>2026-04-30T14:37:44.337Z</time></trkpt><trkpt lat="43.5999033" lon="11.19343"><ele>152.0</ele><time>2026-04-30T14:37:45.337Z</time></trkpt><trkpt lat="43.6001833" lon="11.1933317"><ele>152.0</ele><time>2026-04-30T14:37:46.336Z</time></trkpt><trkpt lat="43.6004617" lon="11.1932333"><ele>152.0</ele><time>2026-04-30T14:37:47.336Z</time></trkpt><trkpt lat="43.60073" lon="11.1931283"><ele>152.0</ele><time>2026-04-30T14:37:48.337Z</time></trkpt><trkpt lat="43.600995" lon="11.1930233"><ele>152.0</ele><time>2026-04-30T14:37:49.337Z</time></trkpt><trkpt lat="43.60126" lon="11.1929133"><ele>151.5</ele><time>2026-04-30T14:37:50.337Z</time></trkpt><trkpt lat="43.6015283" lon="11.192805"><ele>151.0</ele><time>2026-04-30T14:37:51.337Z</time></trkpt><trkpt lat="43.6018017" lon="11.1926933"><ele>150.0</ele><time>2026-04-30T14:37:52.337Z</time></trkpt><trkpt lat="43.6020733" lon="11.1925767"><ele>149.0</ele><time>2026-04-30T14:37:53.336Z</time></trkpt><trkpt lat="43.6023483" lon="11.1924733"><ele>149.0</ele><time>2026-04-30T14:37:54.337Z</time></trkpt><trkpt lat="43.60262" lon="11.1923667"><ele>149.0</ele><time>2026-04-30T14:37:55.336Z</time></trkpt><trkpt lat="43.6028967" lon="11.19226"><ele>150.0</ele><time>2026-04-30T14:37:56.337Z</time></trkpt><trkpt lat="43.60318" lon="11.1921483"><ele>151.0</ele><time>2026-04-30T14:37:57.336Z</time></trkpt><trkpt lat="43.60345" lon="11.192035"><ele>151.0</ele><time>2026-04-30T14:37:58.337Z</time></trkpt><trkpt lat="43.6037217" lon="11.1919333"><ele>151.0</ele><time>2026-04-30T14:37:59.337Z</time></trkpt><trkpt lat="43.604" lon="11.1918317"><ele>151.0</ele><time>2026-04-30T14:38:00.336Z</time></trkpt><trkpt lat="43.6042717" lon="11.1917417"><ele>151.0</ele><time>2026-04-30T14:38:01.337Z</time></trkpt><trkpt lat="43.604545" lon="11.1916567"><ele>151.0</ele><time>2026-04-30T14:38:02.337Z</time></trkpt><trkpt lat="43.6048283" lon="11.1915883"><ele>151.0</ele><time>2026-04-30T14:38:03.336Z</time></trkpt><trkpt lat="43.6051083" lon="11.1915333"><ele>149.0</ele><time>2026-04-30T14:38:04.337Z</time></trkpt><trkpt lat="43.6053817" lon="11.191495"><ele>147.0</ele><time>2026-04-30T14:38:05.337Z</time></trkpt><trkpt lat="43.605645" lon="11.19146"><ele>147.0</ele><time>2026-04-30T14:38:06.337Z</time></trkpt><trkpt lat="43.6059283" lon="11.1914267"><ele>147.0</ele><time>2026-04-30T14:38:07.337Z</time></trkpt><trkpt lat="43.606195" lon="11.1913933"><ele>146.5</ele><time>2026-04-30T14:38:08.337Z</time></trkpt><trkpt lat="43.606475" lon="11.1913633"><ele>146.0</ele><time>2026-04-30T14:38:09.336Z</time></trkpt><trkpt lat="43.6067567" lon="11.1913317"><ele>145.5</ele><time>2026-04-30T14:38:10.337Z</time></trkpt><trkpt lat="43.6070367" lon="11.1913067"><ele>145.0</ele><time>2026-04-30T14:38:11.337Z</time></trkpt><trkpt lat="43.607315" lon="11.191275"><ele>145.0</ele><time>2026-04-30T14:38:12.337Z</time></trkpt><trkpt lat="43.6075967" lon="11.19124"><ele>145.0</ele><time>2026-04-30T14:38:13.337Z</time></trkpt><trkpt lat="43.6078867" lon="11.1912067"><ele>146.0</ele><time>2026-04-30T14:38:14.337Z</time></trkpt><trkpt lat="43.6081667" lon="11.19117"><ele>147.0</ele><time>2026-04-30T14:38:15.336Z</time></trkpt><trkpt lat="43.6084467" lon="11.1911367"><ele>147.0</ele><time>2026-04-30T14:38:16.337Z</time></trkpt><trkpt lat="43.6087367" lon="11.1911083"><ele>147.0</ele><time>2026-04-30T14:38:17.336Z</time></trkpt><trkpt lat="43.6090333" lon="11.1910733"><ele>147.0</ele><time>2026-04-30T14:38:18.337Z</time></trkpt><trkpt lat="43.6093383" lon="11.1910433"><ele>147.0</ele><time>2026-04-30T14:38:19.337Z</time></trkpt><trkpt lat="43.6096433" lon="11.190995"><ele>145.5</ele><time>2026-04-30T14:38:20.337Z</time></trkpt><trkpt lat="43.6099683" lon="11.19096"><ele>144.0</ele><time>2026-04-30T14:38:21.337Z</time></trkpt><trkpt lat="43.6102967" lon="11.1909233"><ele>143.5</ele><time>2026-04-30T14:38:22.336Z</time></trkpt><trkpt lat="43.6106333" lon="11.190895"><ele>143.0</ele><time>2026-04-30T14:38:23.337Z</time></trkpt><trkpt lat="43.6109867" lon="11.1908583"><ele>143.5</ele><time>2026-04-30T14:38:24.336Z</time></trkpt><trkpt lat="43.6113167" lon="11.19082"><ele>144.0</ele><time>2026-04-30T14:38:25.337Z</time></trkpt><trkpt lat="43.6116267" lon="11.1907733"><ele>144.0</ele><time>2026-04-30T14:38:26.337Z</time></trkpt><trkpt lat="43.611945" lon="11.1907217"><ele>144.0</ele><time>2026-04-30T14:38:27.337Z</time></trkpt><trkpt lat="43.61224" lon="11.1906533"><ele>144.0</ele><time>2026-04-30T14:38:28.337Z</time></trkpt><trkpt lat="43.612545" lon="11.19056"><ele>144.0</ele><time>2026-04-30T14:38:29.337Z</time></trkpt><trkpt lat="43.6128417" lon="11.19045"><ele>144.0</ele><time>2026-04-30T14:38:30.337Z</time></trkpt><trkpt lat="43.6131333" lon="11.1903433"><ele>144.0</ele><time>2026-04-30T14:38:31.336Z</time></trkpt><trkpt lat="43.6134067" lon="11.1902183"><ele>144.0</ele><time>2026-04-30T14:38:32.336Z</time></trkpt><trkpt lat="43.6136833" lon="11.190085"><ele>144.0</ele><time>2026-04-30T14:38:33.337Z</time></trkpt><trkpt lat="43.6139517" lon="11.189945"><ele>142.5</ele><time>2026-04-30T14:38:34.337Z</time></trkpt><trkpt lat="43.61422" lon="11.1897967"><ele>141.0</ele><time>2026-04-30T14:38:35.337Z</time></trkpt><trkpt lat="43.6144867" lon="11.1896333"><ele>141.0</ele><time>2026-04-30T14:38:36.337Z</time></trkpt><trkpt lat="43.6147583" lon="11.18948"><ele>141.0</ele><time>2026-04-30T14:38:37.337Z</time></trkpt><trkpt lat="43.615035" lon="11.189325"><ele>141.0</ele><time>2026-04-30T14:38:38.337Z</time></trkpt><trkpt lat="43.6153083" lon="11.1891683"><ele>141.0</ele><time>2026-04-30T14:38:39.337Z</time></trkpt><trkpt lat="43.6155833" lon="11.18901"><ele>141.5</ele><time>2026-04-30T14:38:40.337Z</time></trkpt><trkpt lat="43.6158633" lon="11.18885"><ele>142.0</ele><time>2026-04-30T14:38:41.337Z</time></trkpt><trkpt lat="43.6161417" lon="11.1886867"><ele>143.0</ele><time>2026-04-30T14:38:42.337Z</time></trkpt><trkpt lat="43.6164183" lon="11.18853"><ele>144.0</ele><time>2026-04-30T14:38:43.336Z</time></trkpt><trkpt lat="43.6166917" lon="11.1883817"><ele>144.0</ele><time>2026-04-30T14:38:44.337Z</time></trkpt><trkpt lat="43.61696" lon="11.1882233"><ele>144.0</ele><time>2026-04-30T14:38:45.337Z</time></trkpt><trkpt lat="43.617225" lon="11.188065"><ele>142.5</ele><time>2026-04-30T14:38:46.337Z</time></trkpt><trkpt lat="43.6174833" lon="11.1879083"><ele>141.0</ele><time>2026-04-30T14:38:47.336Z</time></trkpt><trkpt lat="43.617745" lon="11.18776"><ele>140.5</ele><time>2026-04-30T14:38:48.337Z</time></trkpt><trkpt lat="43.6180017" lon="11.1876083"><ele>140.0</ele><time>2026-04-30T14:38:49.337Z</time></trkpt><trkpt lat="43.6182633" lon="11.1874583"><ele>139.0</ele><time>2026-04-30T14:38:50.337Z</time></trkpt><trkpt lat="43.6185233" lon="11.187305"><ele>138.0</ele><time>2026-04-30T14:38:51.337Z</time></trkpt><trkpt lat="43.6187883" lon="11.18715"><ele>137.5</ele><time>2026-04-30T14:38:52.337Z</time></trkpt><trkpt lat="43.6190467" lon="11.1869867"><ele>137.0</ele><time>2026-04-30T14:38:53.337Z</time></trkpt><trkpt lat="43.6193017" lon="11.18684"><ele>137.5</ele><time>2026-04-30T14:38:54.337Z</time></trkpt><trkpt lat="43.6195533" lon="11.1866883"><ele>138.0</ele><time>2026-04-30T14:38:55.337Z</time></trkpt><trkpt lat="43.619805" lon="11.1865367"><ele>136.5</ele><time>2026-04-30T14:38:56.337Z</time></trkpt><trkpt lat="43.62006" lon="11.186385"><ele>135.0</ele><time>2026-04-30T14:38:57.336Z</time></trkpt><trkpt lat="43.620305" lon="11.1862367"><ele>135.5</ele><time>2026-04-30T14:38:58.337Z</time></trkpt><trkpt lat="43.6205533" lon="11.1860967"><ele>136.0</ele><time>2026-04-30T14:38:59.337Z</time></trkpt><trkpt lat="43.620805" lon="11.185955"><ele>136.0</ele><time>2026-04-30T14:39:00.337Z</time></trkpt><trkpt lat="43.62106" lon="11.1858067"><ele>136.0</ele><time>2026-04-30T14:39:01.337Z</time></trkpt><trkpt lat="43.6213033" lon="11.1856583"><ele>135.5</ele><time>2026-04-30T14:39:02.336Z</time></trkpt><trkpt lat="43.6215617" lon="11.1855133"><ele>135.0</ele><time>2026-04-30T14:39:03.337Z</time></trkpt><trkpt lat="43.62181" lon="11.1853733"><ele>135.0</ele><time>2026-04-30T14:39:04.337Z</time></trkpt><trkpt lat="43.6220533" lon="11.1852333"><ele>135.0</ele><time>2026-04-30T14:39:05.336Z</time></trkpt><trkpt lat="43.622305" lon="11.1850917"><ele>135.0</ele><time>2026-04-30T14:39:06.336Z</time></trkpt><trkpt lat="43.6225633" lon="11.18495"><ele>135.0</ele><time>2026-04-30T14:39:07.336Z</time></trkpt><trkpt lat="43.622825" lon="11.1848033"><ele>136.0</ele><time>2026-04-30T14:39:08.337Z</time></trkpt><trkpt lat="43.6230817" lon="11.184655"><ele>137.0</ele><time>2026-04-30T14:39:09.337Z</time></trkpt><trkpt lat="43.6233367" lon="11.1845033"><ele>137.0</ele><time>2026-04-30T14:39:10.337Z</time></trkpt><trkpt lat="43.6235967" lon="11.1843467"><ele>137.0</ele><time>2026-04-30T14:39:11.337Z</time></trkpt><trkpt lat="43.623855" lon="11.1842"><ele>136.5</ele><time>2026-04-30T14:39:12.336Z</time></trkpt><trkpt lat="43.624115" lon="11.18405"><ele>136.0</ele><time>2026-04-30T14:39:13.337Z</time></trkpt><trkpt lat="43.624385" lon="11.1839133"><ele>137.0</ele><time>2026-04-30T14:39:14.337Z</time></trkpt><trkpt lat="43.6246567" lon="11.1837817"><ele>138.0</ele><time>2026-04-30T14:39:15.336Z</time></trkpt><trkpt lat="43.624935" lon="11.18367"><ele>138.0</ele><time>2026-04-30T14:39:16.336Z</time></trkpt><trkpt lat="43.6252167" lon="11.1835667"><ele>138.0</ele><time>2026-04-30T14:39:17.337Z</time></trkpt><trkpt lat="43.6254967" lon="11.183475"><ele>139.0</ele><time>2026-04-30T14:39:18.337Z</time></trkpt><trkpt lat="43.6257783" lon="11.1833983"><ele>140.0</ele><time>2026-04-30T14:39:19.336Z</time></trkpt><trkpt lat="43.62606" lon="11.18333"><ele>139.0</ele><time>2026-04-30T14:39:20.337Z</time></trkpt><trkpt lat="43.6263417" lon="11.183275"><ele>138.0</ele><time>2026-04-30T14:39:21.336Z</time></trkpt><trkpt lat="43.6266233" lon="11.1832283"><ele>138.0</ele><time>2026-04-30T14:39:22.336Z</time></trkpt><trkpt lat="43.6268983" lon="11.1831967"><ele>138.0</ele><time>2026-04-30T14:39:23.337Z</time></trkpt><trkpt lat="43.6271883" lon="11.183175"><ele>135.5</ele><time>2026-04-30T14:39:24.337Z</time></trkpt><trkpt lat="43.6274783" lon="11.1831567"><ele>133.0</ele><time>2026-04-30T14:39:25.337Z</time></trkpt><trkpt lat="43.6277667" lon="11.1831583"><ele>133.0</ele><time>2026-04-30T14:39:26.337Z</time></trkpt><trkpt lat="43.628055" lon="11.18316"><ele>133.0</ele><time>2026-04-30T14:39:27.337Z</time></trkpt><trkpt lat="43.6283417" lon="11.1831667"><ele>133.0</ele><time>2026-04-30T14:39:28.337Z</time></trkpt><trkpt lat="43.628635" lon="11.18318"><ele>133.0</ele><time>2026-04-30T14:39:29.337Z</time></trkpt><trkpt lat="43.6289217" lon="11.1831867"><ele>136.5</ele><time>2026-04-30T14:39:30.337Z</time></trkpt><trkpt lat="43.62921" lon="11.1832"><ele>140.0</ele><time>2026-04-30T14:39:31.336Z</time></trkpt><trkpt lat="43.6294983" lon="11.1832183"><ele>141.5</ele><time>2026-04-30T14:39:32.337Z</time></trkpt><trkpt lat="43.62978" lon="11.1832283"><ele>143.0</ele><time>2026-04-30T14:39:33.336Z</time></trkpt><trkpt lat="43.6300667" lon="11.1832367"><ele>145.0</ele><time>2026-04-30T14:39:34.337Z</time></trkpt><trkpt lat="43.6303483" lon="11.1832333"><ele>147.0</ele><time>2026-04-30T14:39:35.337Z</time></trkpt><trkpt lat="43.63063" lon="11.1832183"><ele>147.0</ele><time>2026-04-30T14:39:36.337Z</time></trkpt><trkpt lat="43.6309067" lon="11.1831817"><ele>147.0</ele><time>2026-04-30T14:39:37.337Z</time></trkpt><trkpt lat="43.631185" lon="11.18314"><ele>142.0</ele><time>2026-04-30T14:39:38.336Z</time></trkpt><trkpt lat="43.6314667" lon="11.1830817"><ele>137.0</ele><time>2026-04-30T14:39:39.337Z</time></trkpt><trkpt lat="43.6317417" lon="11.1830133"><ele>141.0</ele><time>2026-04-30T14:39:40.337Z</time></trkpt><trkpt lat="43.6320133" lon="11.1829233"><ele>145.0</ele><time>2026-04-30T14:39:41.337Z</time></trkpt><trkpt lat="43.6322767" lon="11.18282"><ele>145.0</ele><time>2026-04-30T14:39:42.337Z</time></trkpt><trkpt lat="43.632535" lon="11.1826933"><ele>145.0</ele><time>2026-04-30T14:39:43.336Z</time></trkpt><trkpt lat="43.6327967" lon="11.18256"><ele>146.0</ele><time>2026-04-30T14:39:44.337Z</time></trkpt><trkpt lat="43.6330583" lon="11.1824233"><ele>147.0</ele><time>2026-04-30T14:39:45.336Z</time></trkpt><trkpt lat="43.63331" lon="11.1822717"><ele>144.0</ele><time>2026-04-30T14:39:46.336Z</time></trkpt><trkpt lat="43.633555" lon="11.1821133"><ele>141.0</ele><time>2026-04-30T14:39:47.337Z</time></trkpt><trkpt lat="43.6338017" lon="11.1819517"><ele>138.5</ele><time>2026-04-30T14:39:48.337Z</time></trkpt><trkpt lat="43.63405" lon="11.18179"><ele>136.0</ele><time>2026-04-30T14:39:49.337Z</time></trkpt><trkpt lat="43.6342983" lon="11.1816283"><ele>138.0</ele><time>2026-04-30T14:39:50.337Z</time></trkpt><trkpt lat="43.634555" lon="11.1814683"><ele>140.0</ele><time>2026-04-30T14:39:51.337Z</time></trkpt><trkpt lat="43.6348067" lon="11.1813083"><ele>140.0</ele><time>2026-04-30T14:39:52.337Z</time></trkpt><trkpt lat="43.635055" lon="11.1811383"><ele>140.0</ele><time>2026-04-30T14:39:53.337Z</time></trkpt><trkpt lat="43.6353067" lon="11.1809733"><ele>141.0</ele><time>2026-04-30T14:39:54.336Z</time></trkpt><trkpt lat="43.6355633" lon="11.1808117"><ele>142.0</ele><time>2026-04-30T14:39:55.336Z</time></trkpt><trkpt lat="43.63583" lon="11.18066"><ele>142.0</ele><time>2026-04-30T14:39:56.336Z</time></trkpt><trkpt lat="43.6360967" lon="11.1805083"><ele>142.0</ele><time>2026-04-30T14:39:57.337Z</time></trkpt><trkpt lat="43.63636" lon="11.1803617"><ele>150.0</ele><time>2026-04-30T14:39:58.336Z</time></trkpt><trkpt lat="43.6366233" lon="11.1802283"><ele>158.0</ele><time>2026-04-30T14:39:59.337Z</time></trkpt><trkpt lat="43.6368917" lon="11.1801033"><ele>163.5</ele><time>2026-04-30T14:40:00.337Z</time></trkpt><trkpt lat="43.63716" lon="11.17998"><ele>169.0</ele><time>2026-04-30T14:40:01.337Z</time></trkpt><trkpt lat="43.63742" lon="11.1798567"><ele>168.0</ele><time>2026-04-30T14:40:02.337Z</time></trkpt><trkpt lat="43.6376867" lon="11.1797483"><ele>167.0</ele><time>2026-04-30T14:40:03.337Z</time></trkpt><trkpt lat="43.6379467" lon="11.1796333"><ele>167.0</ele><time>2026-04-30T14:40:04.337Z</time></trkpt><trkpt lat="43.6382133" lon="11.1795317"><ele>167.0</ele><time>2026-04-30T14:40:05.337Z</time></trkpt><trkpt lat="43.638485" lon="11.17943"><ele>171.5</ele><time>2026-04-30T14:40:06.337Z</time></trkpt><trkpt lat="43.63876" lon="11.1793217"><ele>176.0</ele><time>2026-04-30T14:40:07.337Z</time></trkpt><trkpt lat="43.6390367" lon="11.1792167"><ele>176.0</ele><time>2026-04-30T14:40:08.337Z</time></trkpt><trkpt lat="43.639315" lon="11.1791133"><ele>176.0</ele><time>2026-04-30T14:40:09.337Z</time></trkpt><trkpt lat="43.6396017" lon="11.1790067"><ele>179.5</ele><time>2026-04-30T14:40:10.337Z</time></trkpt><trkpt lat="43.6398933" lon="11.1788967"><ele>183.0</ele><time>2026-04-30T14:40:11.336Z</time></trkpt><trkpt lat="43.6401783" lon="11.17878"><ele>178.5</ele><time>2026-04-30T14:40:12.336Z</time></trkpt><trkpt lat="43.6404633" lon="11.1786783"><ele>174.0</ele><time>2026-04-30T14:40:13.337Z</time></trkpt><trkpt lat="43.6407433" lon="11.17857"><ele>174.0</ele><time>2026-04-30T14:40:14.337Z</time></trkpt><trkpt lat="43.6410183" lon="11.17847"><ele>174.0</ele><time>2026-04-30T14:40:15.337Z</time></trkpt><trkpt lat="43.6412833" lon="11.1783833"><ele>180.0</ele><time>2026-04-30T14:40:16.336Z</time></trkpt><trkpt lat="43.6415383" lon="11.1782883"><ele>186.0</ele><time>2026-04-30T14:40:17.337Z</time></trkpt><trkpt lat="43.6418117" lon="11.178215"><ele>186.0</ele><time>2026-04-30T14:40:18.337Z</time></trkpt><trkpt lat="43.64209" lon="11.1781633"><ele>186.0</ele><time>2026-04-30T14:40:19.336Z</time></trkpt><trkpt lat="43.6423683" lon="11.1781267"><ele>186.0</ele><time>2026-04-30T14:40:20.336Z</time></trkpt><trkpt lat="43.6426317" lon="11.17812"><ele>186.0</ele><time>2026-04-30T14:40:21.337Z</time></trkpt><trkpt lat="43.6429017" lon="11.1781317"><ele>184.0</ele><time>2026-04-30T14:40:22.337Z</time></trkpt><trkpt lat="43.64317" lon="11.1781717"><ele>182.0</ele><time>2026-04-30T14:40:23.337Z</time></trkpt><trkpt lat="43.64343" lon="11.1782267"><ele>184.0</ele><time>2026-04-30T14:40:24.336Z</time></trkpt><trkpt lat="43.643685" lon="11.1783083"><ele>186.0</ele><time>2026-04-30T14:40:25.337Z</time></trkpt><trkpt lat="43.6439417" lon="11.1784167"><ele>186.0</ele><time>2026-04-30T14:40:26.336Z</time></trkpt><trkpt lat="43.644195" lon="11.1785483"><ele>186.0</ele><time>2026-04-30T14:40:27.337Z</time></trkpt><trkpt lat="43.6444483" lon="11.1787"><ele>189.5</ele><time>2026-04-30T14:40:28.336Z</time></trkpt><trkpt lat="43.6446933" lon="11.1788733"><ele>193.0</ele><time>2026-04-30T14:40:29.337Z</time></trkpt><trkpt lat="43.644935" lon="11.1790667"><ele>193.0</ele><time>2026-04-30T14:40:30.337Z</time></trkpt><trkpt lat="43.6451583" lon="11.1792767"><ele>193.0</ele><time>2026-04-30T14:40:31.337Z</time></trkpt><trkpt lat="43.6453767" lon="11.1795"><ele>194.5</ele><time>2026-04-30T14:40:32.337Z</time></trkpt><trkpt lat="43.6456033" lon="11.17973"><ele>196.0</ele><time>2026-04-30T14:40:33.337Z</time></trkpt><trkpt lat="43.6458233" lon="11.1799767"><ele>196.0</ele><time>2026-04-30T14:40:34.337Z</time></trkpt><trkpt lat="43.646065" lon="11.1802217"><ele>196.0</ele><time>2026-04-30T14:40:35.337Z</time></trkpt><trkpt lat="43.6463017" lon="11.1804667"><ele>199.0</ele><time>2026-04-30T14:40:36.336Z</time></trkpt><trkpt lat="43.646535" lon="11.1807167"><ele>202.0</ele><time>2026-04-30T14:40:37.336Z</time></trkpt><trkpt lat="43.646765" lon="11.180965"><ele>199.0</ele><time>2026-04-30T14:40:38.337Z</time></trkpt><trkpt lat="43.6469883" lon="11.1812083"><ele>196.0</ele><time>2026-04-30T14:40:39.337Z</time></trkpt><trkpt lat="43.6472033" lon="11.1814633"><ele>201.0</ele><time>2026-04-30T14:40:40.336Z</time></trkpt><trkpt lat="43.6474067" lon="11.1817283"><ele>206.0</ele><time>2026-04-30T14:40:41.337Z</time></trkpt><trkpt lat="43.6476017" lon="11.18199"><ele>206.0</ele><time>2026-04-30T14:40:42.337Z</time></trkpt><trkpt lat="43.6477867" lon="11.182255"><ele>206.0</ele><time>2026-04-30T14:40:43.337Z</time></trkpt><trkpt lat="43.6479633" lon="11.1825233"><ele>206.0</ele><time>2026-04-30T14:40:44.337Z</time></trkpt><trkpt lat="43.6481367" lon="11.1828133"><ele>206.0</ele><time>2026-04-30T14:40:45.337Z</time></trkpt><trkpt lat="43.6482967" lon="11.1830983"><ele>214.5</ele><time>2026-04-30T14:40:46.336Z</time></trkpt><trkpt lat="43.6484567" lon="11.1833917"><ele>223.0</ele><time>2026-04-30T14:40:47.337Z</time></trkpt><trkpt lat="43.6486" lon="11.18371"><ele>219.5</ele><time>2026-04-30T14:40:48.337Z</time></trkpt><trkpt lat="43.648745" lon="11.18402"><ele>216.0</ele><time>2026-04-30T14:40:49.336Z</time></trkpt><trkpt lat="43.6489033" lon="11.1843283"><ele>216.0</ele><time>2026-04-30T14:40:50.337Z</time></trkpt><trkpt lat="43.6490633" lon="11.18464"><ele>216.0</ele><time>2026-04-30T14:40:51.337Z</time></trkpt><trkpt lat="43.64921" lon="11.184945"><ele>216.0</ele><time>2026-04-30T14:40:52.336Z</time></trkpt><trkpt lat="43.6493583" lon="11.1852483"><ele>216.0</ele><time>2026-04-30T14:40:53.336Z</time></trkpt><trkpt lat="43.6495183" lon="11.1855567"><ele>218.5</ele><time>2026-04-30T14:40:54.337Z</time></trkpt><trkpt lat="43.6496733" lon="11.1858667"><ele>221.0</ele><time>2026-04-30T14:40:55.337Z</time></trkpt><trkpt lat="43.6498217" lon="11.18618"><ele>221.0</ele><time>2026-04-30T14:40:56.336Z</time></trkpt><trkpt lat="43.649955" lon="11.1864983"><ele>221.0</ele><time>2026-04-30T14:40:57.336Z</time></trkpt><trkpt lat="43.6501017" lon="11.1868083"><ele>223.0</ele><time>2026-04-30T14:40:58.336Z</time></trkpt><trkpt lat="43.6502517" lon="11.1871317"><ele>225.0</ele><time>2026-04-30T14:40:59.337Z</time></trkpt><trkpt lat="43.6504133" lon="11.1874417"><ele>230.5</ele><time>2026-04-30T14:41:00.336Z</time></trkpt><trkpt lat="43.6505633" lon="11.1877533"><ele>236.0</ele><time>2026-04-30T14:41:01.337Z</time></trkpt><trkpt lat="43.6507117" lon="11.188065"><ele>236.0</ele><time>2026-04-30T14:41:02.337Z</time></trkpt><trkpt lat="43.65086" lon="11.1883833"><ele>236.0</ele><time>2026-04-30T14:41:03.336Z</time></trkpt><trkpt lat="43.6509883" lon="11.1886983"><ele>243.0</ele><time>2026-04-30T14:41:04.337Z</time></trkpt><trkpt lat="43.6511333" lon="11.1890167"><ele>250.0</ele><time>2026-04-30T14:41:05.336Z</time></trkpt><trkpt lat="43.6512733" lon="11.189325"><ele>250.0</ele><time>2026-04-30T14:41:06.336Z</time></trkpt><trkpt lat="43.6514217" lon="11.1896217"><ele>250.0</ele><time>2026-04-30T14:41:07.336Z</time></trkpt><trkpt lat="43.6515817" lon="11.189915"><ele>246.5</ele><time>2026-04-30T14:41:08.337Z</time></trkpt><trkpt lat="43.6517483" lon="11.190215"><ele>243.0</ele><time>2026-04-30T14:41:09.337Z</time></trkpt><trkpt lat="43.6519183" lon="11.1905183"><ele>247.5</ele><time>2026-04-30T14:41:10.337Z</time></trkpt><trkpt lat="43.6520967" lon="11.1908017"><ele>252.0</ele><time>2026-04-30T14:41:11.337Z</time></trkpt><trkpt lat="43.6522783" lon="11.19109"><ele>252.0</ele><time>2026-04-30T14:41:12.337Z</time></trkpt><trkpt lat="43.65247" lon="11.1913717"><ele>252.0</ele><time>2026-04-30T14:41:13.337Z</time></trkpt><trkpt lat="43.6526667" lon="11.1916517"><ele>255.5</ele><time>2026-04-30T14:41:14.336Z</time></trkpt><trkpt lat="43.6528667" lon="11.1919333"><ele>259.0</ele><time>2026-04-30T14:41:15.337Z</time></trkpt><trkpt lat="43.6530767" lon="11.1921717"><ele>260.5</ele><time>2026-04-30T14:41:16.337Z</time></trkpt><trkpt lat="43.6532833" lon="11.1924333"><ele>262.0</ele><time>2026-04-30T14:41:17.337Z</time></trkpt><trkpt lat="43.653485" lon="11.1927083"><ele>269.5</ele><time>2026-04-30T14:41:18.336Z</time></trkpt><trkpt lat="43.6536867" lon="11.1929833"><ele>277.0</ele><time>2026-04-30T14:41:19.336Z</time></trkpt><trkpt lat="43.6560883" lon="11.19682"><ele>255.0</ele><time>2026-04-30T14:41:32.344Z</time></trkpt><trkpt lat="43.6563067" lon="11.1971017"><ele>233.0</ele><time>2026-04-30T14:41:33.343Z</time></trkpt><trkpt lat="43.6565" lon="11.1973867"><ele>233.0</ele><time>2026-04-30T14:41:34.344Z</time></trkpt><trkpt lat="43.656695" lon="11.19768"><ele>233.0</ele><time>2026-04-30T14:41:35.343Z</time></trkpt><trkpt lat="43.6568817" lon="11.19798"><ele>229.0</ele><time>2026-04-30T14:41:36.344Z</time></trkpt><trkpt lat="43.657055" lon="11.198295"><ele>225.0</ele><time>2026-04-30T14:41:37.344Z</time></trkpt><trkpt lat="43.6572367" lon="11.1986133"><ele>225.0</ele><time>2026-04-30T14:41:38.343Z</time></trkpt><trkpt lat="43.65738" lon="11.1989467"><ele>225.0</ele><time>2026-04-30T14:41:39.343Z</time></trkpt><trkpt lat="43.6575317" lon="11.1992817"><ele>227.0</ele><time>2026-04-30T14:41:40.344Z</time></trkpt><trkpt lat="43.6576683" lon="11.1996233"><ele>229.0</ele><time>2026-04-30T14:41:41.344Z</time></trkpt><trkpt lat="43.657805" lon="11.19997"><ele>229.0</ele><time>2026-04-30T14:41:42.344Z</time></trkpt><trkpt lat="43.6579367" lon="11.2003217"><ele>229.0</ele><time>2026-04-30T14:41:43.343Z</time></trkpt><trkpt lat="43.6580617" lon="11.2006833"><ele>225.5</ele><time>2026-04-30T14:41:44.343Z</time></trkpt><trkpt lat="43.6581933" lon="11.2010483"><ele>222.0</ele><time>2026-04-30T14:41:45.344Z</time></trkpt><trkpt lat="43.6583167" lon="11.201405"><ele>218.0</ele><time>2026-04-30T14:41:46.344Z</time></trkpt><trkpt lat="43.6584367" lon="11.2017683"><ele>214.0</ele><time>2026-04-30T14:41:47.343Z</time></trkpt><trkpt lat="43.658575" lon="11.2021217"><ele>220.0</ele><time>2026-04-30T14:41:48.343Z</time></trkpt><trkpt lat="43.6587417" lon="11.2024617"><ele>226.0</ele><time>2026-04-30T14:41:49.344Z</time></trkpt><trkpt lat="43.658925" lon="11.202785"><ele>226.0</ele><time>2026-04-30T14:41:50.343Z</time></trkpt><trkpt lat="43.6591067" lon="11.20308"><ele>226.0</ele><time>2026-04-30T14:41:51.344Z</time></trkpt><trkpt lat="43.65929" lon="11.2033733"><ele>225.0</ele><time>2026-04-30T14:41:52.344Z</time></trkpt><trkpt lat="43.659475" lon="11.2036583"><ele>224.0</ele><time>2026-04-30T14:41:53.343Z</time></trkpt><trkpt lat="43.659695" lon="11.203905"><ele>216.5</ele><time>2026-04-30T14:41:54.344Z</time></trkpt><trkpt lat="43.6599167" lon="11.20414"><ele>209.0</ele><time>2026-04-30T14:41:55.344Z</time></trkpt><trkpt lat="43.6601333" lon="11.2043417"><ele>216.5</ele><time>2026-04-30T14:41:56.344Z</time></trkpt><trkpt lat="43.6603583" lon="11.2045333"><ele>224.0</ele><time>2026-04-30T14:41:57.344Z</time></trkpt><trkpt lat="43.6605733" lon="11.20474"><ele>210.5</ele><time>2026-04-30T14:41:58.344Z</time></trkpt><trkpt lat="43.6608267" lon="11.2049417"><ele>197.0</ele><time>2026-04-30T14:41:59.344Z</time></trkpt><trkpt lat="43.6610717" lon="11.20514"><ele>201.5</ele><time>2026-04-30T14:42:00.344Z</time></trkpt><trkpt lat="43.661315" lon="11.2053383"><ele>206.0</ele><time>2026-04-30T14:42:01.343Z</time></trkpt><trkpt lat="43.66155" lon="11.205535"><ele>199.5</ele><time>2026-04-30T14:42:02.344Z</time></trkpt><trkpt lat="43.66179" lon="11.20574"><ele>193.0</ele><time>2026-04-30T14:42:03.344Z</time></trkpt><trkpt lat="43.6620233" lon="11.2059483"><ele>193.0</ele><time>2026-04-30T14:42:04.343Z</time></trkpt><trkpt lat="43.6622617" lon="11.2061617"><ele>193.0</ele><time>2026-04-30T14:42:05.344Z</time></trkpt><trkpt lat="43.6624917" lon="11.2063817"><ele>184.5</ele><time>2026-04-30T14:42:06.344Z</time></trkpt><trkpt lat="43.6627283" lon="11.20657"><ele>176.0</ele><time>2026-04-30T14:42:07.344Z</time></trkpt><trkpt lat="43.6629533" lon="11.2067833"><ele>172.5</ele><time>2026-04-30T14:42:08.344Z</time></trkpt><trkpt lat="43.663175" lon="11.206995"><ele>169.0</ele><time>2026-04-30T14:42:09.343Z</time></trkpt><trkpt lat="43.6634033" lon="11.2071967"><ele>172.5</ele><time>2026-04-30T14:42:10.344Z</time></trkpt><trkpt lat="43.6636367" lon="11.20739"><ele>176.0</ele><time>2026-04-30T14:42:11.344Z</time></trkpt><trkpt lat="43.6638683" lon="11.2075867"><ele>176.0</ele><time>2026-04-30T14:42:12.344Z</time></trkpt><trkpt lat="43.6641" lon="11.2077817"><ele>176.0</ele><time>2026-04-30T14:42:13.343Z</time></trkpt><trkpt lat="43.6643367" lon="11.2079717"><ele>177.5</ele><time>2026-04-30T14:42:14.344Z</time></trkpt><trkpt lat="43.6645683" lon="11.2081867"><ele>179.0</ele><time>2026-04-30T14:42:15.344Z</time></trkpt><trkpt lat="43.6648017" lon="11.208385"><ele>179.0</ele><time>2026-04-30T14:42:16.344Z</time></trkpt><trkpt lat="43.66503" lon="11.2085783"><ele>179.0</ele><time>2026-04-30T14:42:17.344Z</time></trkpt><trkpt lat="43.66525" lon="11.20876"><ele>176.0</ele><time>2026-04-30T14:42:18.344Z</time></trkpt><trkpt lat="43.66547" lon="11.208925"><ele>173.0</ele><time>2026-04-30T14:42:19.344Z</time></trkpt><trkpt lat="43.665695" lon="11.2090733"><ele>173.0</ele><time>2026-04-30T14:42:20.344Z</time></trkpt><trkpt lat="43.6659317" lon="11.209195"><ele>173.0</ele><time>2026-04-30T14:42:21.344Z</time></trkpt><trkpt lat="43.6661717" lon="11.2092967"><ele>173.5</ele><time>2026-04-30T14:42:22.343Z</time></trkpt><trkpt lat="43.6664017" lon="11.2093883"><ele>174.0</ele><time>2026-04-30T14:42:23.344Z</time></trkpt><trkpt lat="43.6666367" lon="11.2094483"><ele>174.0</ele><time>2026-04-30T14:42:24.344Z</time></trkpt><trkpt lat="43.66687" lon="11.2095083"><ele>174.0</ele><time>2026-04-30T14:42:25.344Z</time></trkpt><trkpt lat="43.6671267" lon="11.2095517"><ele>171.5</ele><time>2026-04-30T14:42:26.343Z</time></trkpt><trkpt lat="43.6673933" lon="11.2096167"><ele>169.0</ele><time>2026-04-30T14:42:27.344Z</time></trkpt><trkpt lat="43.66766" lon="11.209685"><ele>166.5</ele><time>2026-04-30T14:42:28.344Z</time></trkpt><trkpt lat="43.6679217" lon="11.2097533"><ele>164.0</ele><time>2026-04-30T14:42:29.344Z</time></trkpt><trkpt lat="43.668175" lon="11.209815"><ele>160.0</ele><time>2026-04-30T14:42:30.344Z</time></trkpt><trkpt lat="43.6684233" lon="11.2098567"><ele>156.0</ele><time>2026-04-30T14:42:31.344Z</time></trkpt><trkpt lat="43.668665" lon="11.209895"><ele>155.5</ele><time>2026-04-30T14:42:32.344Z</time></trkpt><trkpt lat="43.6689033" lon="11.2099417"><ele>155.0</ele><time>2026-04-30T14:42:33.344Z</time></trkpt><trkpt lat="43.6691333" lon="11.209985"><ele>155.0</ele><time>2026-04-30T14:42:34.344Z</time></trkpt><trkpt lat="43.6693667" lon="11.210035"><ele>155.0</ele><time>2026-04-30T14:42:35.343Z</time></trkpt><trkpt lat="43.669595" lon="11.210075"><ele>154.5</ele><time>2026-04-30T14:42:36.344Z</time></trkpt><trkpt lat="43.66982" lon="11.2101183"><ele>154.0</ele><time>2026-04-30T14:42:37.344Z</time></trkpt><trkpt lat="43.6700467" lon="11.2101617"><ele>154.0</ele><time>2026-04-30T14:42:38.343Z</time></trkpt><trkpt lat="43.6702583" lon="11.2102"><ele>154.0</ele><time>2026-04-30T14:42:39.343Z</time></trkpt><trkpt lat="43.67047" lon="11.210245"><ele>154.0</ele><time>2026-04-30T14:42:40.344Z</time></trkpt><trkpt lat="43.6706733" lon="11.2102783"><ele>154.0</ele><time>2026-04-30T14:42:41.344Z</time></trkpt><trkpt lat="43.6708717" lon="11.2103267"><ele>154.0</ele><time>2026-04-30T14:42:42.344Z</time></trkpt><trkpt lat="43.6710667" lon="11.21036"><ele>154.0</ele><time>2026-04-30T14:42:43.343Z</time></trkpt><trkpt lat="43.6712633" lon="11.2103967"><ele>154.66666666666669</ele><time>2026-04-30T14:42:44.344Z</time></trkpt><trkpt lat="43.6714517" lon="11.2104183"><ele>155.33333333333334</ele><time>2026-04-30T14:42:45.343Z</time></trkpt><trkpt lat="43.671655" lon="11.2104617"><ele>156.0</ele><time>2026-04-30T14:42:46.344Z</time></trkpt><trkpt lat="43.6718483" lon="11.2104583"><ele>153.0</ele><time>2026-04-30T14:42:47.344Z</time></trkpt><trkpt lat="43.67204" lon="11.2104633"><ele>150.0</ele><time>2026-04-30T14:42:48.344Z</time></trkpt><trkpt lat="43.6722167" lon="11.2104467"><ele>147.0</ele><time>2026-04-30T14:42:49.344Z</time></trkpt><trkpt lat="43.67238" lon="11.21042"><ele>147.0</ele><time>2026-04-30T14:42:50.344Z</time></trkpt><trkpt lat="43.6725383" lon="11.2104117"><ele>147.0</ele><time>2026-04-30T14:42:51.344Z</time></trkpt><trkpt lat="43.6726767" lon="11.210385"><ele>147.0</ele><time>2026-04-30T14:42:52.344Z</time></trkpt><trkpt lat="43.6728217" lon="11.2103733"><ele>147.0</ele><time>2026-04-30T14:42:53.344Z</time></trkpt><trkpt lat="43.6729817" lon="11.2103583"><ele>147.0</ele><time>2026-04-30T14:42:54.344Z</time></trkpt><trkpt lat="43.6731467" lon="11.2103433"><ele>147.0</ele><time>2026-04-30T14:42:55.344Z</time></trkpt><trkpt lat="43.6733167" lon="11.2103183"><ele>147.0</ele><time>2026-04-30T14:42:56.343Z</time></trkpt><trkpt lat="43.6734733" lon="11.2103117"><ele>146.5</ele><time>2026-04-30T14:42:57.344Z</time></trkpt><trkpt lat="43.673615" lon="11.210305"><ele>146.0</ele><time>2026-04-30T14:42:58.344Z</time></trkpt><trkpt lat="43.673755" lon="11.2103017"><ele>145.5</ele><time>2026-04-30T14:42:59.344Z</time></trkpt><trkpt lat="43.67391" lon="11.210295"><ele>145.0</ele><time>2026-04-30T14:43:00.344Z</time></trkpt><trkpt lat="43.6740633" lon="11.21029"><ele>145.0</ele><time>2026-04-30T14:43:01.344Z</time></trkpt><trkpt lat="43.6742033" lon="11.21028"><ele>145.0</ele><time>2026-04-30T14:43:02.344Z</time></trkpt><trkpt lat="43.674345" lon="11.2102733"><ele>145.0</ele><time>2026-04-30T14:43:03.344Z</time></trkpt><trkpt lat="43.67449" lon="11.2102683"><ele>145.0</ele><time>2026-04-30T14:43:04.344Z</time></trkpt><trkpt lat="43.6746283" lon="11.2102567"><ele>140.0</ele><time>2026-04-30T14:43:05.344Z</time></trkpt><trkpt lat="43.6747683" lon="11.2102417"><ele>135.0</ele><time>2026-04-30T14:43:06.344Z</time></trkpt><trkpt lat="43.6749133" lon="11.210235"><ele>130.0</ele><time>2026-04-30T14:43:07.344Z</time></trkpt><trkpt lat="43.675065" lon="11.2102417"><ele>125.0</ele><time>2026-04-30T14:43:08.344Z</time></trkpt><trkpt lat="43.67519" lon="11.2102233"><ele>119.5</ele><time>2026-04-30T14:43:09.344Z</time></trkpt><trkpt lat="43.6753283" lon="11.2102167"><ele>114.0</ele><time>2026-04-30T14:43:10.344Z</time></trkpt><trkpt lat="43.675465" lon="11.2102083"><ele>108.5</ele><time>2026-04-30T14:43:11.343Z</time></trkpt><trkpt lat="43.675605" lon="11.2101983"><ele>103.0</ele><time>2026-04-30T14:43:12.344Z</time></trkpt><trkpt lat="43.675745" lon="11.2101983"><ele>103.0</ele><time>2026-04-30T14:43:13.343Z</time></trkpt><trkpt lat="43.6758883" lon="11.2101883"><ele>103.0</ele><time>2026-04-30T14:43:14.344Z</time></trkpt><trkpt lat="43.6760467" lon="11.210195"><ele>103.0</ele><time>2026-04-30T14:43:15.344Z</time></trkpt><trkpt lat="43.6761933" lon="11.2102083"><ele>103.0</ele><time>2026-04-30T14:43:16.344Z</time></trkpt><trkpt lat="43.6763383" lon="11.210225"><ele>103.25</ele><time>2026-04-30T14:43:17.344Z</time></trkpt><trkpt lat="43.6764867" lon="11.210245"><ele>103.5</ele><time>2026-04-30T14:43:18.343Z</time></trkpt><trkpt lat="43.676635" lon="11.21027"><ele>103.75</ele><time>2026-04-30T14:43:19.344Z</time></trkpt><trkpt lat="43.6767817" lon="11.2103"><ele>104.0</ele><time>2026-04-30T14:43:20.343Z</time></trkpt><trkpt lat="43.6769333" lon="11.21035"><ele>104.5</ele><time>2026-04-30T14:43:21.344Z</time></trkpt><trkpt lat="43.6770767" lon="11.210405"><ele>105.0</ele><time>2026-04-30T14:43:22.343Z</time></trkpt><trkpt lat="43.6772217" lon="11.21046"><ele>105.5</ele><time>2026-04-30T14:43:23.344Z</time></trkpt><trkpt lat="43.6773583" lon="11.2105267"><ele>106.0</ele><time>2026-04-30T14:43:24.344Z</time></trkpt><trkpt lat="43.677505" lon="11.2105883"><ele>107.0</ele><time>2026-04-30T14:43:25.344Z</time></trkpt><trkpt lat="43.6776517" lon="11.21067"><ele>108.0</ele><time>2026-04-30T14:43:26.344Z</time></trkpt><trkpt lat="43.6777933" lon="11.2107617"><ele>109.0</ele><time>2026-04-30T14:43:27.343Z</time></trkpt><trkpt lat="43.6779367" lon="11.2108533"><ele>109.0</ele><time>2026-04-30T14:43:28.342Z</time></trkpt><trkpt lat="43.6780667" lon="11.2109533"><ele>109.0</ele><time>2026-04-30T14:43:29.343Z</time></trkpt><trkpt lat="43.67821" lon="11.211055"><ele>109.0</ele><time>2026-04-30T14:43:30.343Z</time></trkpt><trkpt lat="43.6783517" lon="11.2111533"><ele>109.0</ele><time>2026-04-30T14:43:31.342Z</time></trkpt><trkpt lat="43.6784917" lon="11.2112617"><ele>109.0</ele><time>2026-04-30T14:43:32.342Z</time></trkpt><trkpt lat="43.6786367" lon="11.21136"><ele>109.0</ele><time>2026-04-30T14:43:33.342Z</time></trkpt><trkpt lat="43.6787833" lon="11.2114583"><ele>109.0</ele><time>2026-04-30T14:43:34.343Z</time></trkpt><trkpt lat="43.6789467" lon="11.211565"><ele>109.0</ele><time>2026-04-30T14:43:35.343Z</time></trkpt><trkpt lat="43.6791033" lon="11.2116617"><ele>109.0</ele><time>2026-04-30T14:43:36.342Z</time></trkpt><trkpt lat="43.6792483" lon="11.211755"><ele>109.0</ele><time>2026-04-30T14:43:37.342Z</time></trkpt><trkpt lat="43.6794033" lon="11.2118367"><ele>109.0</ele><time>2026-04-30T14:43:38.343Z</time></trkpt><trkpt lat="43.6795517" lon="11.21191"><ele>109.0</ele><time>2026-04-30T14:43:39.343Z</time></trkpt><trkpt lat="43.67972" lon="11.2119817"><ele>105.66666666666667</ele><time>2026-04-30T14:43:40.343Z</time></trkpt><trkpt lat="43.6798733" lon="11.212045"><ele>102.33333333333334</ele><time>2026-04-30T14:43:41.343Z</time></trkpt><trkpt lat="43.68003" lon="11.2120883"><ele>99.0</ele><time>2026-04-30T14:43:42.343Z</time></trkpt><trkpt lat="43.6801917" lon="11.2121283"><ele>98.0</ele><time>2026-04-30T14:43:43.343Z</time></trkpt><trkpt lat="43.6803567" lon="11.2121717"><ele>97.0</ele><time>2026-04-30T14:43:44.343Z</time></trkpt><trkpt lat="43.6805217" lon="11.2122033"><ele>96.0</ele><time>2026-04-30T14:43:45.343Z</time></trkpt><trkpt lat="43.680695" lon="11.2122233"><ele>96.0</ele><time>2026-04-30T14:43:46.343Z</time></trkpt><trkpt lat="43.6808633" lon="11.2122367"><ele>96.0</ele><time>2026-04-30T14:43:47.343Z</time></trkpt><trkpt lat="43.68103" lon="11.2122417"><ele>96.0</ele><time>2026-04-30T14:43:48.342Z</time></trkpt><trkpt lat="43.6811983" lon="11.21223"><ele>96.0</ele><time>2026-04-30T14:43:49.343Z</time></trkpt><trkpt lat="43.6813633" lon="11.21221"><ele>96.0</ele><time>2026-04-30T14:43:50.343Z</time></trkpt><trkpt lat="43.6815467" lon="11.2121817"><ele>96.0</ele><time>2026-04-30T14:43:51.343Z</time></trkpt><trkpt lat="43.68173" lon="11.21215"><ele>96.0</ele><time>2026-04-30T14:43:52.343Z</time></trkpt><trkpt lat="43.681905" lon="11.2121133"><ele>96.0</ele><time>2026-04-30T14:43:53.342Z</time></trkpt><trkpt lat="43.68209" lon="11.21207"><ele>96.0</ele><time>2026-04-30T14:43:54.343Z</time></trkpt><trkpt lat="43.682285" lon="11.2120333"><ele>96.0</ele><time>2026-04-30T14:43:55.342Z</time></trkpt><trkpt lat="43.6824783" lon="11.2119917"><ele>96.0</ele><time>2026-04-30T14:43:56.343Z</time></trkpt><trkpt lat="43.6826767" lon="11.211955"><ele>96.0</ele><time>2026-04-30T14:43:57.342Z</time></trkpt><trkpt lat="43.6828667" lon="11.2119217"><ele>97.33333333333334</ele><time>2026-04-30T14:43:58.342Z</time></trkpt><trkpt lat="43.683065" lon="11.211885"><ele>98.66666666666667</ele><time>2026-04-30T14:43:59.342Z</time></trkpt><trkpt lat="43.68327" lon="11.2118383"><ele>100.0</ele><time>2026-04-30T14:44:00.343Z</time></trkpt><trkpt lat="43.683485" lon="11.211785"><ele>104.0</ele><time>2026-04-30T14:44:01.343Z</time></trkpt><trkpt lat="43.6837" lon="11.2117383"><ele>108.0</ele><time>2026-04-30T14:44:02.343Z</time></trkpt><trkpt lat="43.68393" lon="11.211705"><ele>112.0</ele><time>2026-04-30T14:44:03.342Z</time></trkpt><trkpt lat="43.6841467" lon="11.2116583"><ele>112.0</ele><time>2026-04-30T14:44:04.342Z</time></trkpt><trkpt lat="43.684375" lon="11.2116117"><ele>112.0</ele><time>2026-04-30T14:44:05.343Z</time></trkpt><trkpt lat="43.6846017" lon="11.211555"><ele>112.0</ele><time>2026-04-30T14:44:06.342Z</time></trkpt><trkpt lat="43.6848567" lon="11.2115133"><ele>112.0</ele><time>2026-04-30T14:44:07.343Z</time></trkpt><trkpt lat="43.6850983" lon="11.2114683"><ele>121.0</ele><time>2026-04-30T14:44:08.342Z</time></trkpt><trkpt lat="43.6853417" lon="11.2114217"><ele>130.0</ele><time>2026-04-30T14:44:09.342Z</time></trkpt><trkpt lat="43.6855817" lon="11.21138"><ele>130.0</ele><time>2026-04-30T14:44:10.343Z</time></trkpt><trkpt lat="43.685825" lon="11.211335"><ele>130.0</ele><time>2026-04-30T14:44:11.343Z</time></trkpt><trkpt lat="43.68606" lon="11.2112883"><ele>123.5</ele><time>2026-04-30T14:44:12.342Z</time></trkpt><trkpt lat="43.6863" lon="11.211245"><ele>117.0</ele><time>2026-04-30T14:44:13.343Z</time></trkpt><trkpt lat="43.686535" lon="11.2112017"><ele>117.0</ele><time>2026-04-30T14:44:14.343Z</time></trkpt><trkpt lat="43.6867583" lon="11.211155"><ele>117.0</ele><time>2026-04-30T14:44:15.342Z</time></trkpt><trkpt lat="43.6869783" lon="11.2111167"><ele>117.0</ele><time>2026-04-30T14:44:16.343Z</time></trkpt><trkpt lat="43.6872183" lon="11.2110817"><ele>112.5</ele><time>2026-04-30T14:44:17.342Z</time></trkpt><trkpt lat="43.6874467" lon="11.2110833"><ele>108.0</ele><time>2026-04-30T14:44:18.343Z</time></trkpt><trkpt lat="43.6876783" lon="11.2111167"><ele>101.5</ele><time>2026-04-30T14:44:19.343Z</time></trkpt><trkpt lat="43.6879083" lon="11.211155"><ele>95.0</ele><time>2026-04-30T14:44:20.343Z</time></trkpt><trkpt lat="43.6881383" lon="11.2112033"><ele>95.0</ele><time>2026-04-30T14:44:21.342Z</time></trkpt><trkpt lat="43.688365" lon="11.2112767"><ele>95.0</ele><time>2026-04-30T14:44:22.343Z</time></trkpt><trkpt lat="43.688585" lon="11.2113667"><ele>94.0</ele><time>2026-04-30T14:44:23.342Z</time></trkpt><trkpt lat="43.6888167" lon="11.2114867"><ele>93.0</ele><time>2026-04-30T14:44:24.343Z</time></trkpt><trkpt lat="43.689045" lon="11.2116367"><ele>93.0</ele><time>2026-04-30T14:44:25.343Z</time></trkpt><trkpt lat="43.6892667" lon="11.2117917"><ele>93.0</ele><time>2026-04-30T14:44:26.343Z</time></trkpt><trkpt lat="43.6894817" lon="11.2119483"><ele>92.5</ele><time>2026-04-30T14:44:27.343Z</time></trkpt><trkpt lat="43.6897017" lon="11.2121133"><ele>92.0</ele><time>2026-04-30T14:44:28.343Z</time></trkpt><trkpt lat="43.6899167" lon="11.2122783"><ele>93.0</ele><time>2026-04-30T14:44:29.342Z</time></trkpt><trkpt lat="43.6901333" lon="11.2124383"><ele>94.0</ele><time>2026-04-30T14:44:30.342Z</time></trkpt><trkpt lat="43.6903517" lon="11.2125867"><ele>94.0</ele><time>2026-04-30T14:44:31.343Z</time></trkpt><trkpt lat="43.6905717" lon="11.2127233"><ele>94.0</ele><time>2026-04-30T14:44:32.342Z</time></trkpt><trkpt lat="43.690795" lon="11.2128367"><ele>94.0</ele><time>2026-04-30T14:44:33.343Z</time></trkpt><trkpt lat="43.6910267" lon="11.21293"><ele>94.0</ele><time>2026-04-30T14:44:34.343Z</time></trkpt><trkpt lat="43.691265" lon="11.2130017"><ele>93.0</ele><time>2026-04-30T14:44:35.343Z</time></trkpt><trkpt lat="43.6915033" lon="11.2130517"><ele>92.0</ele><time>2026-04-30T14:44:36.343Z</time></trkpt><trkpt lat="43.6917417" lon="11.2130833"><ele>91.5</ele><time>2026-04-30T14:44:37.343Z</time></trkpt><trkpt lat="43.6919783" lon="11.2130917"><ele>91.0</ele><time>2026-04-30T14:44:38.343Z</time></trkpt><trkpt lat="43.6922183" lon="11.213085"><ele>91.0</ele><time>2026-04-30T14:44:39.343Z</time></trkpt><trkpt lat="43.6924683" lon="11.2130517"><ele>91.0</ele><time>2026-04-30T14:44:40.343Z</time></trkpt><trkpt lat="43.6927217" lon="11.213"><ele>94.0</ele><time>2026-04-30T14:44:41.343Z</time></trkpt><trkpt lat="43.6929733" lon="11.2129283"><ele>97.0</ele><time>2026-04-30T14:44:42.343Z</time></trkpt><trkpt lat="43.693225" lon="11.212835"><ele>97.0</ele><time>2026-04-30T14:44:43.343Z</time></trkpt><trkpt lat="43.693475" lon="11.2127283"><ele>97.0</ele><time>2026-04-30T14:44:44.343Z</time></trkpt><trkpt lat="43.6937167" lon="11.2126083"><ele>97.5</ele><time>2026-04-30T14:44:45.343Z</time></trkpt><trkpt lat="43.69396" lon="11.212485"><ele>98.0</ele><time>2026-04-30T14:44:46.343Z</time></trkpt><trkpt lat="43.6942117" lon="11.2123617"><ele>95.0</ele><time>2026-04-30T14:44:47.342Z</time></trkpt><trkpt lat="43.69447" lon="11.212245"><ele>92.0</ele><time>2026-04-30T14:44:48.343Z</time></trkpt><trkpt lat="43.6947233" lon="11.2121167"><ele>92.0</ele><time>2026-04-30T14:44:49.343Z</time></trkpt><trkpt lat="43.6949833" lon="11.2119933"><ele>92.0</ele><time>2026-04-30T14:44:50.343Z</time></trkpt><trkpt lat="43.695235" lon="11.2118717"><ele>95.5</ele><time>2026-04-30T14:44:51.343Z</time></trkpt><trkpt lat="43.6954817" lon="11.211775"><ele>99.0</ele><time>2026-04-30T14:44:52.343Z</time></trkpt><trkpt lat="43.69573" lon="11.2116833"><ele>99.0</ele><time>2026-04-30T14:44:53.343Z</time></trkpt><trkpt lat="43.6959767" lon="11.211615"><ele>99.0</ele><time>2026-04-30T14:44:54.343Z</time></trkpt><trkpt lat="43.6962317" lon="11.2115683"><ele>98.0</ele><time>2026-04-30T14:44:55.343Z</time></trkpt><trkpt lat="43.6964933" lon="11.2115567"><ele>97.0</ele><time>2026-04-30T14:44:56.342Z</time></trkpt><trkpt lat="43.6967533" lon="11.2115533"><ele>95.0</ele><time>2026-04-30T14:44:57.343Z</time></trkpt><trkpt lat="43.6970033" lon="11.211575"><ele>93.0</ele><time>2026-04-30T14:44:58.343Z</time></trkpt><trkpt lat="43.6972567" lon="11.2116233"><ele>93.0</ele><time>2026-04-30T14:44:59.343Z</time></trkpt><trkpt lat="43.69751" lon="11.2116933"><ele>93.0</ele><time>2026-04-30T14:45:00.342Z</time></trkpt><trkpt lat="43.69776" lon="11.2117833"><ele>91.0</ele><time>2026-04-30T14:45:01.343Z</time></trkpt><trkpt lat="43.6980033" lon="11.2118883"><ele>89.0</ele><time>2026-04-30T14:45:02.342Z</time></trkpt><trkpt lat="43.6982317" lon="11.2120183"><ele>89.0</ele><time>2026-04-30T14:45:03.343Z</time></trkpt><trkpt lat="43.6984717" lon="11.2121733"><ele>89.0</ele><time>2026-04-30T14:45:04.343Z</time></trkpt><trkpt lat="43.6987" lon="11.2123417"><ele>89.0</ele><time>2026-04-30T14:45:05.343Z</time></trkpt><trkpt lat="43.69892" lon="11.2125167"><ele>89.0</ele><time>2026-04-30T14:45:06.342Z</time></trkpt><trkpt lat="43.699145" lon="11.2127"><ele>89.0</ele><time>2026-04-30T14:45:07.343Z</time></trkpt><trkpt lat="43.6993667" lon="11.212885"><ele>89.0</ele><time>2026-04-30T14:45:08.343Z</time></trkpt><trkpt lat="43.6995983" lon="11.2130833"><ele>87.5</ele><time>2026-04-30T14:45:09.342Z</time></trkpt><trkpt lat="43.6998267" lon="11.2132683"><ele>86.0</ele><time>2026-04-30T14:45:10.343Z</time></trkpt><trkpt lat="43.7000667" lon="11.2134433"><ele>86.0</ele><time>2026-04-30T14:45:11.343Z</time></trkpt><trkpt lat="43.70031" lon="11.2135917"><ele>86.0</ele><time>2026-04-30T14:45:12.343Z</time></trkpt><trkpt lat="43.700555" lon="11.2137233"><ele>86.0</ele><time>2026-04-30T14:45:13.343Z</time></trkpt><trkpt lat="43.7008067" lon="11.2138433"><ele>86.0</ele><time>2026-04-30T14:45:14.343Z</time></trkpt><trkpt lat="43.7010633" lon="11.2139283"><ele>85.0</ele><time>2026-04-30T14:45:15.343Z</time></trkpt><trkpt lat="43.7013183" lon="11.2139933"><ele>84.0</ele><time>2026-04-30T14:45:16.343Z</time></trkpt><trkpt lat="43.7015817" lon="11.2140433"><ele>84.0</ele><time>2026-04-30T14:45:17.343Z</time></trkpt><trkpt lat="43.7018483" lon="11.21407"><ele>84.0</ele><time>2026-04-30T14:45:18.343Z</time></trkpt><trkpt lat="43.70212" lon="11.2140817"><ele>85.5</ele><time>2026-04-30T14:45:19.342Z</time></trkpt><trkpt lat="43.7023883" lon="11.214065"><ele>87.0</ele><time>2026-04-30T14:45:20.342Z</time></trkpt><trkpt lat="43.7026567" lon="11.214035"><ele>92.0</ele><time>2026-04-30T14:45:21.342Z</time></trkpt><trkpt lat="43.7029317" lon="11.214"><ele>97.0</ele><time>2026-04-30T14:45:22.343Z</time></trkpt><trkpt lat="43.7032067" lon="11.2139467"><ele>97.0</ele><time>2026-04-30T14:45:23.343Z</time></trkpt><trkpt lat="43.70348" lon="11.2138917"><ele>97.0</ele><time>2026-04-30T14:45:24.342Z</time></trkpt><trkpt lat="43.7037533" lon="11.2138533"><ele>123.0</ele><time>2026-04-30T14:45:25.343Z</time></trkpt><trkpt lat="43.7040267" lon="11.2138183"><ele>149.0</ele><time>2026-04-30T14:45:26.342Z</time></trkpt><trkpt lat="43.7043" lon="11.2137767"><ele>156.0</ele><time>2026-04-30T14:45:27.343Z</time></trkpt><trkpt lat="43.7045717" lon="11.2137367"><ele>163.0</ele><time>2026-04-30T14:45:28.342Z</time></trkpt><trkpt lat="43.7078167" lon="11.2131517"><ele>119.0</ele><time>2026-04-30T14:45:39.34Z</time></trkpt><trkpt lat="43.7080683" lon="11.213125"><ele>75.0</ele><time>2026-04-30T14:45:40.34Z</time></trkpt><trkpt lat="43.7083583" lon="11.2131133"><ele>74.5</ele><time>2026-04-30T14:45:41.339Z</time></trkpt><trkpt lat="43.7086433" lon="11.2131283"><ele>74.0</ele><time>2026-04-30T14:45:42.34Z</time></trkpt><trkpt lat="43.7089267" lon="11.2131633"><ele>73.5</ele><time>2026-04-30T14:45:43.339Z</time></trkpt><trkpt lat="43.7092217" lon="11.21323"><ele>73.0</ele><time>2026-04-30T14:45:44.34Z</time></trkpt><trkpt lat="43.7094933" lon="11.2133133"><ele>73.0</ele><time>2026-04-30T14:45:45.34Z</time></trkpt><trkpt lat="43.7097617" lon="11.2134217"><ele>73.0</ele><time>2026-04-30T14:45:46.34Z</time></trkpt><trkpt lat="43.7100383" lon="11.21355"><ele>72.5</ele><time>2026-04-30T14:45:47.339Z</time></trkpt><trkpt lat="43.7103167" lon="11.21371"><ele>72.0</ele><time>2026-04-30T14:45:48.34Z</time></trkpt><trkpt lat="43.71059" lon="11.2138717"><ele>72.0</ele><time>2026-04-30T14:45:49.34Z</time></trkpt><trkpt lat="43.710855" lon="11.2140283"><ele>72.0</ele><time>2026-04-30T14:45:50.34Z</time></trkpt><trkpt lat="43.7111183" lon="11.214185"><ele>73.5</ele><time>2026-04-30T14:45:51.34Z</time></trkpt><trkpt lat="43.7113767" lon="11.2143433"><ele>75.0</ele><time>2026-04-30T14:45:52.34Z</time></trkpt><trkpt lat="43.711635" lon="11.2145067"><ele>75.0</ele><time>2026-04-30T14:45:53.34Z</time></trkpt><trkpt lat="43.7118933" lon="11.214675"><ele>75.0</ele><time>2026-04-30T14:45:54.34Z</time></trkpt><trkpt lat="43.7121517" lon="11.21485"><ele>74.0</ele><time>2026-04-30T14:45:55.339Z</time></trkpt><trkpt lat="43.7124117" lon="11.2150333"><ele>73.0</ele><time>2026-04-30T14:45:56.339Z</time></trkpt><trkpt lat="43.712665" lon="11.215245"><ele>71.5</ele><time>2026-04-30T14:45:57.339Z</time></trkpt><trkpt lat="43.7129217" lon="11.2154767"><ele>70.0</ele><time>2026-04-30T14:45:58.34Z</time></trkpt><trkpt lat="43.713145" lon="11.2157233"><ele>70.0</ele><time>2026-04-30T14:45:59.339Z</time></trkpt><trkpt lat="43.7133567" lon="11.2159867"><ele>70.0</ele><time>2026-04-30T14:46:00.34Z</time></trkpt><trkpt lat="43.7135567" lon="11.2162533"><ele>72.5</ele><time>2026-04-30T14:46:01.34Z</time></trkpt><trkpt lat="43.7137233" lon="11.216515"><ele>75.0</ele><time>2026-04-30T14:46:02.34Z</time></trkpt><trkpt lat="43.71387" lon="11.2167783"><ele>75.0</ele><time>2026-04-30T14:46:03.34Z</time></trkpt><trkpt lat="43.7139983" lon="11.2170317"><ele>75.0</ele><time>2026-04-30T14:46:04.34Z</time></trkpt><trkpt lat="43.7141017" lon="11.2172733"><ele>75.0</ele><time>2026-04-30T14:46:05.34Z</time></trkpt><trkpt lat="43.7141933" lon="11.2175017"><ele>74.0</ele><time>2026-04-30T14:46:06.34Z</time></trkpt><trkpt lat="43.7142783" lon="11.2177133"><ele>73.0</ele><time>2026-04-30T14:46:07.34Z</time></trkpt><trkpt lat="43.7143517" lon="11.2179"><ele>72.0</ele><time>2026-04-30T14:46:08.339Z</time></trkpt><trkpt lat="43.71442" lon="11.2180733"><ele>74.75</ele><time>2026-04-30T14:46:09.34Z</time></trkpt><trkpt lat="43.7144883" lon="11.21824"><ele>77.5</ele><time>2026-04-30T14:46:10.339Z</time></trkpt><trkpt lat="43.7145567" lon="11.2183833"><ele>80.25</ele><time>2026-04-30T14:46:11.34Z</time></trkpt><trkpt lat="43.71463" lon="11.2185183"><ele>83.0</ele><time>2026-04-30T14:46:12.34Z</time></trkpt><trkpt lat="43.714725" lon="11.218645"><ele>83.0</ele><time>2026-04-30T14:46:13.34Z</time></trkpt><trkpt lat="43.7148133" lon="11.2187567"><ele>83.0</ele><time>2026-04-30T14:46:14.34Z</time></trkpt><trkpt lat="43.7148933" lon="11.2188783"><ele>83.0</ele><time>2026-04-30T14:46:15.34Z</time></trkpt><trkpt lat="43.71497" lon="11.2189817"><ele>83.0</ele><time>2026-04-30T14:46:16.339Z</time></trkpt><trkpt lat="43.7150433" lon="11.2190767"><ele>83.0</ele><time>2026-04-30T14:46:17.34Z</time></trkpt><trkpt lat="43.7151133" lon="11.21916"><ele>83.5</ele><time>2026-04-30T14:46:18.34Z</time></trkpt><trkpt lat="43.7151833" lon="11.2192283"><ele>84.0</ele><time>2026-04-30T14:46:19.34Z</time></trkpt><trkpt lat="43.7152533" lon="11.2193"><ele>84.5</ele><time>2026-04-30T14:46:20.34Z</time></trkpt><trkpt lat="43.715315" lon="11.21936"><ele>85.0</ele><time>2026-04-30T14:46:21.339Z</time></trkpt><trkpt lat="43.7153733" lon="11.2194183"><ele>85.5</ele><time>2026-04-30T14:46:22.34Z</time></trkpt><trkpt lat="43.71543" lon="11.2194717"><ele>86.0</ele><time>2026-04-30T14:46:23.34Z</time></trkpt><trkpt lat="43.7155333" lon="11.21956"><ele>86.0</ele><time>2026-04-30T14:46:25.34Z</time></trkpt><trkpt lat="43.7155983" lon="11.21962"><ele>86.0</ele><time>2026-04-30T14:46:26.34Z</time></trkpt><trkpt lat="43.71566" lon="11.2196833"><ele>86.0</ele><time>2026-04-30T14:46:27.34Z</time></trkpt><trkpt lat="43.7157433" lon="11.219755"><ele>86.0</ele><time>2026-04-30T14:46:28.34Z</time></trkpt><trkpt lat="43.7158267" lon="11.2198283"><ele>86.0</ele><time>2026-04-30T14:46:29.34Z</time></trkpt><trkpt lat="43.7159117" lon="11.2199067"><ele>85.0</ele><time>2026-04-30T14:46:30.339Z</time></trkpt><trkpt lat="43.7159967" lon="11.2199683"><ele>84.0</ele><time>2026-04-30T14:46:31.34Z</time></trkpt><trkpt lat="43.7160867" lon="11.2200233"><ele>83.0</ele><time>2026-04-30T14:46:32.34Z</time></trkpt><trkpt lat="43.716175" lon="11.2200783"><ele>82.0</ele><time>2026-04-30T14:46:33.34Z</time></trkpt><trkpt lat="43.716265" lon="11.22012"><ele>81.0</ele><time>2026-04-30T14:46:34.339Z</time></trkpt><trkpt lat="43.7163583" lon="11.2201617"><ele>81.0</ele><time>2026-04-30T14:46:35.34Z</time></trkpt><trkpt lat="43.716455" lon="11.22021"><ele>81.0</ele><time>2026-04-30T14:46:36.34Z</time></trkpt><trkpt lat="43.7165633" lon="11.22025"><ele>81.0</ele><time>2026-04-30T14:46:37.34Z</time></trkpt><trkpt lat="43.716685" lon="11.2202883"><ele>81.0</ele><time>2026-04-30T14:46:38.34Z</time></trkpt><trkpt lat="43.7168117" lon="11.22033"><ele>82.0</ele><time>2026-04-30T14:46:39.34Z</time></trkpt><trkpt lat="43.71695" lon="11.2203667"><ele>83.0</ele><time>2026-04-30T14:46:40.34Z</time></trkpt><trkpt lat="43.71709" lon="11.2203933"><ele>84.0</ele><time>2026-04-30T14:46:41.34Z</time></trkpt><trkpt lat="43.7172333" lon="11.220415"><ele>85.0</ele><time>2026-04-30T14:46:42.339Z</time></trkpt><trkpt lat="43.7173767" lon="11.22043"><ele>85.0</ele><time>2026-04-30T14:46:43.34Z</time></trkpt><trkpt lat="43.7175133" lon="11.22044"><ele>85.0</ele><time>2026-04-30T14:46:44.34Z</time></trkpt><trkpt lat="43.717645" lon="11.2204467"><ele>85.0</ele><time>2026-04-30T14:46:45.34Z</time></trkpt><trkpt lat="43.7177633" lon="11.220455"><ele>85.0</ele><time>2026-04-30T14:46:46.34Z</time></trkpt><trkpt lat="43.717875" lon="11.2204583"><ele>84.6</ele><time>2026-04-30T14:46:47.34Z</time></trkpt><trkpt lat="43.71798" lon="11.2204617"><ele>84.2</ele><time>2026-04-30T14:46:48.34Z</time></trkpt><trkpt lat="43.7180783" lon="11.2204633"><ele>83.80000000000001</ele><time>2026-04-30T14:46:49.34Z</time></trkpt><trkpt lat="43.7181833" lon="11.22047"><ele>83.4</ele><time>2026-04-30T14:46:50.34Z</time></trkpt><trkpt lat="43.71828" lon="11.2204833"><ele>83.0</ele><time>2026-04-30T14:46:51.339Z</time></trkpt><trkpt lat="43.7183717" lon="11.2204767"><ele>83.0</ele><time>2026-04-30T14:46:52.34Z</time></trkpt><trkpt lat="43.7184567" lon="11.220475"><ele>83.0</ele><time>2026-04-30T14:46:53.339Z</time></trkpt><trkpt lat="43.7185467" lon="11.2204717"><ele>83.0</ele><time>2026-04-30T14:46:54.34Z</time></trkpt><trkpt lat="43.7186433" lon="11.2204833"><ele>83.0</ele><time>2026-04-30T14:46:55.34Z</time></trkpt><trkpt lat="43.7187267" lon="11.2204867"><ele>83.0</ele><time>2026-04-30T14:46:56.34Z</time></trkpt><trkpt lat="43.71881" lon="11.2204833"><ele>83.0</ele><time>2026-04-30T14:46:57.34Z</time></trkpt><trkpt lat="43.7188883" lon="11.2204817"><ele>82.33333333333334</ele><time>2026-04-30T14:46:58.34Z</time></trkpt><trkpt lat="43.7189617" lon="11.2204883"><ele>81.66666666666667</ele><time>2026-04-30T14:46:59.34Z</time></trkpt><trkpt lat="43.7190317" lon="11.2204867"><ele>81.0</ele><time>2026-04-30T14:47:00.34Z</time></trkpt><trkpt lat="43.719105" lon="11.2204833"><ele>80.33333333333333</ele><time>2026-04-30T14:47:01.34Z</time></trkpt><trkpt lat="43.7191833" lon="11.2204867"><ele>79.66666666666666</ele><time>2026-04-30T14:47:02.34Z</time></trkpt><trkpt lat="43.71926" lon="11.2204933"><ele>79.0</ele><time>2026-04-30T14:47:03.34Z</time></trkpt><trkpt lat="43.7193417" lon="11.2205133"><ele>78.16666666666666</ele><time>2026-04-30T14:47:04.339Z</time></trkpt><trkpt lat="43.71942" lon="11.2205433"><ele>77.33333333333333</ele><time>2026-04-30T14:47:05.339Z</time></trkpt><trkpt lat="43.7194983" lon="11.220585"><ele>76.5</ele><time>2026-04-30T14:47:06.34Z</time></trkpt><trkpt lat="43.7195733" lon="11.22065"><ele>75.66666666666667</ele><time>2026-04-30T14:47:07.34Z</time></trkpt><trkpt lat="43.71965" lon="11.22072"><ele>74.83333333333334</ele><time>2026-04-30T14:47:08.34Z</time></trkpt><trkpt lat="43.719705" lon="11.220785"><ele>74.0</ele><time>2026-04-30T14:47:09.34Z</time></trkpt><trkpt lat="43.7197483" lon="11.220855"><ele>72.66666666666667</ele><time>2026-04-30T14:47:10.34Z</time></trkpt><trkpt lat="43.71979" lon="11.2209383"><ele>71.33333333333334</ele><time>2026-04-30T14:47:11.339Z</time></trkpt><trkpt lat="43.7198183" lon="11.2210317"><ele>70.0</ele><time>2026-04-30T14:47:12.34Z</time></trkpt><trkpt lat="43.7198333" lon="11.2211217"><ele>68.66666666666667</ele><time>2026-04-30T14:47:13.34Z</time></trkpt><trkpt lat="43.7198533" lon="11.2212467"><ele>67.33333333333333</ele><time>2026-04-30T14:47:15.34Z</time></trkpt><trkpt lat="43.7198717" lon="11.2213417"><ele>66.0</ele><time>2026-04-30T14:47:17.34Z</time></trkpt><trkpt lat="43.7198667" lon="11.221465"><ele>65.66666666666667</ele><time>2026-04-30T14:47:19.34Z</time></trkpt><trkpt lat="43.71987" lon="11.2215967"><ele>65.33333333333333</ele><time>2026-04-30T14:47:21.34Z</time></trkpt><trkpt lat="43.7198733" lon="11.2216883"><ele>65.0</ele><time>2026-04-30T14:47:22.34Z</time></trkpt><trkpt lat="43.7198717" lon="11.2217883"><ele>64.66666666666666</ele><time>2026-04-30T14:47:23.34Z</time></trkpt><trkpt lat="43.7198733" lon="11.2219083"><ele>64.33333333333333</ele><time>2026-04-30T14:47:24.34Z</time></trkpt><trkpt lat="43.7198683" lon="11.2220367"><ele>64.0</ele><time>2026-04-30T14:47:25.339Z</time></trkpt><trkpt lat="43.7198667" lon="11.222145"><ele>63.99999999999999</ele><time>2026-04-30T14:47:26.34Z</time></trkpt><trkpt lat="43.7198617" lon="11.2222583"><ele>64.0</ele><time>2026-04-30T14:47:27.34Z</time></trkpt><trkpt lat="43.71986" lon="11.22235"><ele>64.0</ele><time>2026-04-30T14:47:28.34Z</time></trkpt><trkpt lat="43.7198583" lon="11.2224967"><ele>64.0</ele><time>2026-04-30T14:47:30.34Z</time></trkpt><trkpt lat="43.7198667" lon="11.2226633"><ele>63.99999999999999</ele><time>2026-04-30T14:47:32.34Z</time></trkpt><trkpt lat="43.7198733" lon="11.22275"><ele>64.0</ele><time>2026-04-30T14:47:33.34Z</time></trkpt><trkpt lat="43.71987" lon="11.22293"><ele>64.0</ele><time>2026-04-30T14:47:35.34Z</time></trkpt><trkpt lat="43.71987" lon="11.2230317"><ele>63.99999999999999</ele><time>2026-04-30T14:47:36.34Z</time></trkpt><trkpt lat="43.719875" lon="11.2231383"><ele>64.0</ele><time>2026-04-30T14:47:37.34Z</time></trkpt><trkpt lat="43.71988" lon="11.2232417"><ele>64.0</ele><time>2026-04-30T14:47:38.34Z</time></trkpt><trkpt lat="43.719905" lon="11.2233433"><ele>63.99999999999999</ele><time>2026-04-30T14:47:39.34Z</time></trkpt><trkpt lat="43.719945" lon="11.2234183"><ele>64.0</ele><time>2026-04-30T14:47:40.34Z</time></trkpt><trkpt lat="43.7199983" lon="11.2234717"><ele>64.0</ele><time>2026-04-30T14:47:41.34Z</time></trkpt><trkpt lat="43.7200617" lon="11.223495"><ele>64.5</ele><time>2026-04-30T14:47:42.34Z</time></trkpt><trkpt lat="43.72013" lon="11.2234917"><ele>65.0</ele><time>2026-04-30T14:47:43.34Z</time></trkpt><trkpt lat="43.7201967" lon="11.2234633"><ele>65.5</ele><time>2026-04-30T14:47:44.34Z</time></trkpt><trkpt lat="43.7202633" lon="11.2234067"><ele>66.0</ele><time>2026-04-30T14:47:45.34Z</time></trkpt><trkpt lat="43.7203217" lon="11.22333"><ele>66.5</ele><time>2026-04-30T14:47:46.34Z</time></trkpt><trkpt lat="43.7203817" lon="11.2232533"><ele>67.0</ele><time>2026-04-30T14:47:47.34Z</time></trkpt><trkpt lat="43.7204483" lon="11.22317"><ele>66.8</ele><time>2026-04-30T14:47:48.34Z</time></trkpt><trkpt lat="43.7205283" lon="11.2231017"><ele>66.6</ele><time>2026-04-30T14:47:49.34Z</time></trkpt><trkpt lat="43.7206167" lon="11.2230583"><ele>66.39999999999999</ele><time>2026-04-30T14:47:50.34Z</time></trkpt><trkpt lat="43.7207167" lon="11.22304"><ele>66.2</ele><time>2026-04-30T14:47:51.339Z</time></trkpt><trkpt lat="43.7208217" lon="11.2230383"><ele>66.0</ele><time>2026-04-30T14:47:52.34Z</time></trkpt><trkpt lat="43.7209333" lon="11.223045"><ele>66.0</ele><time>2026-04-30T14:47:53.34Z</time></trkpt><trkpt lat="43.7210383" lon="11.223055"><ele>66.0</ele><time>2026-04-30T14:47:54.34Z</time></trkpt><trkpt lat="43.72114" lon="11.2230533"><ele>66.0</ele><time>2026-04-30T14:47:55.34Z</time></trkpt><trkpt lat="43.721235" lon="11.2230383"><ele>66.0</ele><time>2026-04-30T14:47:56.34Z</time></trkpt><trkpt lat="43.7213317" lon="11.2230033"><ele>66.0</ele><time>2026-04-30T14:47:57.34Z</time></trkpt><trkpt lat="43.7214267" lon="11.222965"><ele>66.0</ele><time>2026-04-30T14:47:58.34Z</time></trkpt><trkpt lat="43.7215217" lon="11.2229083"><ele>66.0</ele><time>2026-04-30T14:47:59.339Z</time></trkpt><trkpt lat="43.7216133" lon="11.2228317"><ele>66.0</ele><time>2026-04-30T14:48:00.34Z</time></trkpt><trkpt lat="43.7217017" lon="11.2227267"><ele>66.0</ele><time>2026-04-30T14:48:01.34Z</time></trkpt><trkpt lat="43.7217883" lon="11.2226067"><ele>66.0</ele><time>2026-04-30T14:48:02.34Z</time></trkpt><trkpt lat="43.72188" lon="11.222475"><ele>66.0</ele><time>2026-04-30T14:48:03.34Z</time></trkpt><trkpt lat="43.7219767" lon="11.2223417"><ele>66.0</ele><time>2026-04-30T14:48:04.34Z</time></trkpt><trkpt lat="43.722095" lon="11.2222367"><ele>66.0</ele><time>2026-04-30T14:48:05.34Z</time></trkpt><trkpt lat="43.7222233" lon="11.222145"><ele>66.5</ele><time>2026-04-30T14:48:06.34Z</time></trkpt><trkpt lat="43.7223633" lon="11.2220817"><ele>67.0</ele><time>2026-04-30T14:48:07.34Z</time></trkpt><trkpt lat="43.7224983" lon="11.2220217"><ele>67.5</ele><time>2026-04-30T14:48:08.34Z</time></trkpt><trkpt lat="43.7226333" lon="11.2219817"><ele>68.0</ele><time>2026-04-30T14:48:09.339Z</time></trkpt><trkpt lat="43.7227683" lon="11.2219517"><ele>69.75</ele><time>2026-04-30T14:48:10.339Z</time></trkpt><trkpt lat="43.7229" lon="11.2219367"><ele>71.5</ele><time>2026-04-30T14:48:11.34Z</time></trkpt><trkpt lat="43.7230233" lon="11.2219433"><ele>73.25</ele><time>2026-04-30T14:48:12.34Z</time></trkpt><trkpt lat="43.7231467" lon="11.2219533"><ele>75.0</ele><time>2026-04-30T14:48:13.339Z</time></trkpt><trkpt lat="43.723275" lon="11.22197"><ele>75.0</ele><time>2026-04-30T14:48:14.34Z</time></trkpt><trkpt lat="43.7234083" lon="11.221985"><ele>75.0</ele><time>2026-04-30T14:48:15.339Z</time></trkpt><trkpt lat="43.7235533" lon="11.2220033"><ele>75.0</ele><time>2026-04-30T14:48:16.34Z</time></trkpt><trkpt lat="43.723705" lon="11.2220167"><ele>75.0</ele><time>2026-04-30T14:48:17.34Z</time></trkpt><trkpt lat="43.7238433" lon="11.2220483"><ele>75.16666666666667</ele><time>2026-04-30T14:48:18.34Z</time></trkpt><trkpt lat="43.723955" lon="11.22208"><ele>75.33333333333333</ele><time>2026-04-30T14:48:19.34Z</time></trkpt><trkpt lat="43.724055" lon="11.2221317"><ele>75.5</ele><time>2026-04-30T14:48:20.34Z</time></trkpt><trkpt lat="43.72412" lon="11.2221633"><ele>75.66666666666666</ele><time>2026-04-30T14:48:21.34Z</time></trkpt><trkpt lat="43.7241867" lon="11.2222133"><ele>75.83333333333333</ele><time>2026-04-30T14:48:22.34Z</time></trkpt><trkpt lat="43.724245" lon="11.2222783"><ele>76.0</ele><time>2026-04-30T14:48:23.339Z</time></trkpt><trkpt lat="43.7242817" lon="11.2223717"><ele>75.0</ele><time>2026-04-30T14:48:24.34Z</time></trkpt><trkpt lat="43.724305" lon="11.22247"><ele>74.0</ele><time>2026-04-30T14:48:25.34Z</time></trkpt><trkpt lat="43.7243" lon="11.222575"><ele>73.0</ele><time>2026-04-30T14:48:26.34Z</time></trkpt><trkpt lat="43.7242817" lon="11.2226867"><ele>72.0</ele><time>2026-04-30T14:48:27.34Z</time></trkpt><trkpt lat="43.7242383" lon="11.2227817"><ele>71.0</ele><time>2026-04-30T14:48:28.34Z</time></trkpt><trkpt lat="43.7241833" lon="11.2228533"><ele>70.0</ele><time>2026-04-30T14:48:29.34Z</time></trkpt><trkpt lat="43.7241117" lon="11.2229133"><ele>70.0</ele><time>2026-04-30T14:48:30.34Z</time></trkpt><trkpt lat="43.72404" lon="11.2229367"><ele>70.0</ele><time>2026-04-30T14:48:31.339Z</time></trkpt><trkpt lat="43.72397" lon="11.222945"><ele>70.0</ele><time>2026-04-30T14:48:32.34Z</time></trkpt><trkpt lat="43.7238967" lon="11.2229167"><ele>70.0</ele><time>2026-04-30T14:48:33.34Z</time></trkpt><trkpt lat="43.723825" lon="11.2228517"><ele>70.0</ele><time>2026-04-30T14:48:34.34Z</time></trkpt><trkpt lat="43.7237617" lon="11.2227617"><ele>70.0</ele><time>2026-04-30T14:48:35.34Z</time></trkpt><trkpt lat="43.7237217" lon="11.2226367"><ele>70.0</ele><time>2026-04-30T14:48:36.339Z</time></trkpt><trkpt lat="43.7237083" lon="11.2225017"><ele>70.0</ele><time>2026-04-30T14:48:37.34Z</time></trkpt><trkpt lat="43.7237183" lon="11.222355"><ele>70.0</ele><time>2026-04-30T14:48:38.339Z</time></trkpt><trkpt lat="43.72374" lon="11.2222233"><ele>70.0</ele><time>2026-04-30T14:48:39.34Z</time></trkpt><trkpt lat="43.7237767" lon="11.2220983"><ele>70.0</ele><time>2026-04-30T14:48:40.34Z</time></trkpt><trkpt lat="43.7238183" lon="11.2219783"><ele>71.5</ele><time>2026-04-30T14:48:41.34Z</time></trkpt><trkpt lat="43.7238667" lon="11.2218367"><ele>73.0</ele><time>2026-04-30T14:48:42.34Z</time></trkpt><trkpt lat="43.7239217" lon="11.2216583"><ele>74.5</ele><time>2026-04-30T14:48:43.34Z</time></trkpt><trkpt lat="43.723995" lon="11.2214467"><ele>76.0</ele><time>2026-04-30T14:48:44.34Z</time></trkpt><trkpt lat="43.724085" lon="11.2212283"><ele>75.33333333333333</ele><time>2026-04-30T14:48:45.34Z</time></trkpt><trkpt lat="43.7241933" lon="11.2209983"><ele>74.66666666666667</ele><time>2026-04-30T14:48:46.34Z</time></trkpt><trkpt lat="43.7243217" lon="11.220765"><ele>74.0</ele><time>2026-04-30T14:48:47.34Z</time></trkpt><trkpt lat="43.72446" lon="11.2205367"><ele>74.0</ele><time>2026-04-30T14:48:48.34Z</time></trkpt><trkpt lat="43.7246033" lon="11.220305"><ele>74.0</ele><time>2026-04-30T14:48:49.34Z</time></trkpt><trkpt lat="43.7247617" lon="11.2200583"><ele>79.5</ele><time>2026-04-30T14:48:50.34Z</time></trkpt><trkpt lat="43.7249167" lon="11.219795"><ele>85.0</ele><time>2026-04-30T14:48:51.34Z</time></trkpt><trkpt lat="43.7250883" lon="11.21953"><ele>84.0</ele><time>2026-04-30T14:48:52.34Z</time></trkpt><trkpt lat="43.7252367" lon="11.2192667"><ele>83.0</ele><time>2026-04-30T14:48:53.34Z</time></trkpt><trkpt lat="43.7253767" lon="11.2189933"><ele>85.5</ele><time>2026-04-30T14:48:54.34Z</time></trkpt><trkpt lat="43.72553" lon="11.2187233"><ele>88.0</ele><time>2026-04-30T14:48:55.34Z</time></trkpt><trkpt lat="43.72568" lon="11.2184583"><ele>88.0</ele><time>2026-04-30T14:48:56.34Z</time></trkpt><trkpt lat="43.72584" lon="11.21818"><ele>88.0</ele><time>2026-04-30T14:48:57.34Z</time></trkpt><trkpt lat="43.726" lon="11.217895"><ele>84.0</ele><time>2026-04-30T14:48:58.34Z</time></trkpt><trkpt lat="43.726165" lon="11.2176233"><ele>80.0</ele><time>2026-04-30T14:48:59.34Z</time></trkpt><trkpt lat="43.7263267" lon="11.2173433"><ele>81.5</ele><time>2026-04-30T14:49:00.34Z</time></trkpt><trkpt lat="43.7264383" lon="11.216995"><ele>83.0</ele><time>2026-04-30T14:49:01.34Z</time></trkpt><trkpt lat="43.7265267" lon="11.2166467"><ele>86.0</ele><time>2026-04-30T14:49:02.339Z</time></trkpt><trkpt lat="43.7266067" lon="11.2162817"><ele>89.0</ele><time>2026-04-30T14:49:03.339Z</time></trkpt><trkpt lat="43.72667" lon="11.2159217"><ele>91.5</ele><time>2026-04-30T14:49:04.34Z</time></trkpt><trkpt lat="43.72672" lon="11.2155517"><ele>94.0</ele><time>2026-04-30T14:49:05.339Z</time></trkpt><trkpt lat="43.7267767" lon="11.2151867"><ele>94.5</ele><time>2026-04-30T14:49:06.34Z</time></trkpt><trkpt lat="43.72682" lon="11.2148117"><ele>95.0</ele><time>2026-04-30T14:49:07.34Z</time></trkpt><trkpt lat="43.7268533" lon="11.214435"><ele>95.0</ele><time>2026-04-30T14:49:08.339Z</time></trkpt><trkpt lat="43.7268783" lon="11.21404"><ele>95.0</ele><time>2026-04-30T14:49:09.34Z</time></trkpt><trkpt lat="43.7269033" lon="11.21365"><ele>106.5</ele><time>2026-04-30T14:49:10.34Z</time></trkpt><trkpt lat="43.726925" lon="11.213265"><ele>118.0</ele><time>2026-04-30T14:49:11.34Z</time></trkpt><trkpt lat="43.7269583" lon="11.2128717"><ele>118.5</ele><time>2026-04-30T14:49:12.34Z</time></trkpt><trkpt lat="43.72699" lon="11.212475"><ele>119.0</ele><time>2026-04-30T14:49:13.34Z</time></trkpt><trkpt lat="43.727015" lon="11.2120867"><ele>115.5</ele><time>2026-04-30T14:49:14.34Z</time></trkpt><trkpt lat="43.7270417" lon="11.211695"><ele>112.0</ele><time>2026-04-30T14:49:15.34Z</time></trkpt><trkpt lat="43.7270617" lon="11.2112983"><ele>111.0</ele><time>2026-04-30T14:49:16.34Z</time></trkpt><trkpt lat="43.7270883" lon="11.2109"><ele>110.0</ele><time>2026-04-30T14:49:17.34Z</time></trkpt><trkpt lat="43.7271117" lon="11.2105067"><ele>111.5</ele><time>2026-04-30T14:49:18.34Z</time></trkpt><trkpt lat="43.7271333" lon="11.210115"><ele>113.0</ele><time>2026-04-30T14:49:19.339Z</time></trkpt><trkpt lat="43.7271617" lon="11.2097183"><ele>113.0</ele><time>2026-04-30T14:49:20.34Z</time></trkpt><trkpt lat="43.7271867" lon="11.2093333"><ele>113.0</ele><time>2026-04-30T14:49:21.34Z</time></trkpt><trkpt lat="43.72721" lon="11.2089367"><ele>112.5</ele><time>2026-04-30T14:49:22.339Z</time></trkpt><trkpt lat="43.7272333" lon="11.2085467"><ele>112.0</ele><time>2026-04-30T14:49:23.339Z</time></trkpt><trkpt lat="43.7272517" lon="11.2081517"><ele>113.5</ele><time>2026-04-30T14:49:24.339Z</time></trkpt><trkpt lat="43.727275" lon="11.2077683"><ele>115.0</ele><time>2026-04-30T14:49:25.339Z</time></trkpt><trkpt lat="43.7272967" lon="11.2073933"><ele>117.0</ele><time>2026-04-30T14:49:26.339Z</time></trkpt><trkpt lat="43.7273217" lon="11.2070333"><ele>119.0</ele><time>2026-04-30T14:49:27.339Z</time></trkpt><trkpt lat="43.72736" lon="11.2066783"><ele>121.0</ele><time>2026-04-30T14:49:28.34Z</time></trkpt><trkpt lat="43.7274067" lon="11.2063333"><ele>123.0</ele><time>2026-04-30T14:49:29.34Z</time></trkpt><trkpt lat="43.7274633" lon="11.2060017"><ele>123.0</ele><time>2026-04-30T14:49:30.339Z</time></trkpt><trkpt lat="43.72753" lon="11.2056783"><ele>123.0</ele><time>2026-04-30T14:49:31.34Z</time></trkpt><trkpt lat="43.7275983" lon="11.2053567"><ele>128.5</ele><time>2026-04-30T14:49:32.339Z</time></trkpt><trkpt lat="43.7276667" lon="11.205035"><ele>134.0</ele><time>2026-04-30T14:49:33.34Z</time></trkpt><trkpt lat="43.7277367" lon="11.2047117"><ele>115.0</ele><time>2026-04-30T14:49:34.339Z</time></trkpt><trkpt lat="43.7308367" lon="11.19917"><ele>112.5</ele><time>2026-04-30T14:49:52.339Z</time></trkpt><trkpt lat="43.7309333" lon="11.198815"><ele>110.0</ele><time>2026-04-30T14:49:53.34Z</time></trkpt><trkpt lat="43.7310067" lon="11.1984367"><ele>108.5</ele><time>2026-04-30T14:49:54.34Z</time></trkpt><trkpt lat="43.731045" lon="11.1980583"><ele>107.0</ele><time>2026-04-30T14:49:55.34Z</time></trkpt><trkpt lat="43.7310683" lon="11.1976883"><ele>109.5</ele><time>2026-04-30T14:49:56.339Z</time></trkpt><trkpt lat="43.7310767" lon="11.1973033"><ele>112.0</ele><time>2026-04-30T14:49:57.34Z</time></trkpt><trkpt lat="43.7310683" lon="11.1969033"><ele>105.5</ele><time>2026-04-30T14:49:58.34Z</time></trkpt><trkpt lat="43.7310533" lon="11.1964983"><ele>99.0</ele><time>2026-04-30T14:49:59.34Z</time></trkpt><trkpt lat="43.7310483" lon="11.1961017"><ele>99.0</ele><time>2026-04-30T14:50:00.34Z</time></trkpt><trkpt lat="43.731035" lon="11.1956983"><ele>99.0</ele><time>2026-04-30T14:50:01.34Z</time></trkpt><trkpt lat="43.7310217" lon="11.1953017"><ele>97.0</ele><time>2026-04-30T14:50:02.339Z</time></trkpt><trkpt lat="43.7310117" lon="11.1949"><ele>95.0</ele><time>2026-04-30T14:50:03.34Z</time></trkpt><trkpt lat="43.731" lon="11.1944933"><ele>94.0</ele><time>2026-04-30T14:50:04.34Z</time></trkpt><trkpt lat="43.7309933" lon="11.1940817"><ele>93.0</ele><time>2026-04-30T14:50:05.339Z</time></trkpt><trkpt lat="43.7309883" lon="11.193675"><ele>92.0</ele><time>2026-04-30T14:50:06.34Z</time></trkpt><trkpt lat="43.7309917" lon="11.1932783"><ele>91.0</ele><time>2026-04-30T14:50:07.34Z</time></trkpt><trkpt lat="43.731" lon="11.1928917"><ele>89.5</ele><time>2026-04-30T14:50:08.34Z</time></trkpt><trkpt lat="43.7310267" lon="11.19252"><ele>88.0</ele><time>2026-04-30T14:50:09.34Z</time></trkpt><trkpt lat="43.731075" lon="11.1921383"><ele>94.0</ele><time>2026-04-30T14:50:10.34Z</time></trkpt><trkpt lat="43.73115" lon="11.19176"><ele>100.0</ele><time>2026-04-30T14:50:11.34Z</time></trkpt><trkpt lat="43.7312333" lon="11.1914"><ele>101.0</ele><time>2026-04-30T14:50:12.34Z</time></trkpt><trkpt lat="43.7313317" lon="11.191045"><ele>102.0</ele><time>2026-04-30T14:50:13.34Z</time></trkpt><trkpt lat="43.731445" lon="11.1906983"><ele>97.5</ele><time>2026-04-30T14:50:14.34Z</time></trkpt><trkpt lat="43.7315717" lon="11.190365"><ele>93.0</ele><time>2026-04-30T14:50:15.339Z</time></trkpt><trkpt lat="43.73172" lon="11.190035"><ele>93.5</ele><time>2026-04-30T14:50:16.34Z</time></trkpt><trkpt lat="43.731885" lon="11.189715"><ele>94.0</ele><time>2026-04-30T14:50:17.34Z</time></trkpt><trkpt lat="43.7320733" lon="11.18941"><ele>94.0</ele><time>2026-04-30T14:50:18.34Z</time></trkpt><trkpt lat="43.7322733" lon="11.1891167"><ele>94.0</ele><time>2026-04-30T14:50:19.34Z</time></trkpt><trkpt lat="43.7325" lon="11.18886"><ele>90.0</ele><time>2026-04-30T14:50:20.34Z</time></trkpt><trkpt lat="43.7327317" lon="11.188625"><ele>86.0</ele><time>2026-04-30T14:50:21.34Z</time></trkpt><trkpt lat="43.7329683" lon="11.1884067"><ele>86.0</ele><time>2026-04-30T14:50:22.34Z</time></trkpt><trkpt lat="43.73321" lon="11.1882167"><ele>86.0</ele><time>2026-04-30T14:50:23.34Z</time></trkpt><trkpt lat="43.73346" lon="11.1880517"><ele>81.5</ele><time>2026-04-30T14:50:24.34Z</time></trkpt><trkpt lat="43.73372" lon="11.1878917"><ele>77.0</ele><time>2026-04-30T14:50:25.34Z</time></trkpt><trkpt lat="43.73397" lon="11.1877483"><ele>77.0</ele><time>2026-04-30T14:50:26.34Z</time></trkpt><trkpt lat="43.7342267" lon="11.1876"><ele>77.0</ele><time>2026-04-30T14:50:27.339Z</time></trkpt><trkpt lat="43.73448" lon="11.1874617"><ele>81.5</ele><time>2026-04-30T14:50:28.34Z</time></trkpt><trkpt lat="43.734745" lon="11.1873183"><ele>86.0</ele><time>2026-04-30T14:50:29.34Z</time></trkpt><trkpt lat="43.735015" lon="11.187185"><ele>83.5</ele><time>2026-04-30T14:50:30.34Z</time></trkpt><trkpt lat="43.7352833" lon="11.187035"><ele>81.0</ele><time>2026-04-30T14:50:31.34Z</time></trkpt><trkpt lat="43.735565" lon="11.1868817"><ele>81.0</ele><time>2026-04-30T14:50:32.34Z</time></trkpt><trkpt lat="43.73584" lon="11.1867283"><ele>81.0</ele><time>2026-04-30T14:50:33.34Z</time></trkpt><trkpt lat="43.7361033" lon="11.18657"><ele>83.5</ele><time>2026-04-30T14:50:34.34Z</time></trkpt><trkpt lat="43.7363667" lon="11.1864117"><ele>86.0</ele><time>2026-04-30T14:50:35.34Z</time></trkpt><trkpt lat="43.7366383" lon="11.186245"><ele>80.5</ele><time>2026-04-30T14:50:36.34Z</time></trkpt><trkpt lat="43.7368883" lon="11.1860717"><ele>75.0</ele><time>2026-04-30T14:50:37.34Z</time></trkpt><trkpt lat="43.7371317" lon="11.185915"><ele>75.0</ele><time>2026-04-30T14:50:38.339Z</time></trkpt><trkpt lat="43.737375" lon="11.1857283"><ele>75.0</ele><time>2026-04-30T14:50:39.34Z</time></trkpt><trkpt lat="43.737615" lon="11.1855267"><ele>71.0</ele><time>2026-04-30T14:50:40.34Z</time></trkpt><trkpt lat="43.7378467" lon="11.185315"><ele>67.0</ele><time>2026-04-30T14:50:41.34Z</time></trkpt><trkpt lat="43.738075" lon="11.1850867"><ele>67.0</ele><time>2026-04-30T14:50:42.34Z</time></trkpt><trkpt lat="43.738305" lon="11.18487"><ele>67.0</ele><time>2026-04-30T14:50:43.339Z</time></trkpt><trkpt lat="43.7385417" lon="11.1846583"><ele>66.0</ele><time>2026-04-30T14:50:44.34Z</time></trkpt><trkpt lat="43.738775" lon="11.18444"><ele>65.0</ele><time>2026-04-30T14:50:45.339Z</time></trkpt><trkpt lat="43.7390133" lon="11.18423"><ele>64.0</ele><time>2026-04-30T14:50:46.34Z</time></trkpt><trkpt lat="43.7392433" lon="11.18401"><ele>63.0</ele><time>2026-04-30T14:50:47.339Z</time></trkpt><trkpt lat="43.7394717" lon="11.1837933"><ele>63.0</ele><time>2026-04-30T14:50:48.34Z</time></trkpt><trkpt lat="43.7396967" lon="11.1835717"><ele>63.0</ele><time>2026-04-30T14:50:49.34Z</time></trkpt><trkpt lat="43.7399233" lon="11.18336"><ele>63.0</ele><time>2026-04-30T14:50:50.339Z</time></trkpt><trkpt lat="43.74015" lon="11.1831483"><ele>63.0</ele><time>2026-04-30T14:50:51.34Z</time></trkpt><trkpt lat="43.7403767" lon="11.182935"><ele>63.0</ele><time>2026-04-30T14:50:52.34Z</time></trkpt><trkpt lat="43.740605" lon="11.1827283"><ele>63.0</ele><time>2026-04-30T14:50:53.34Z</time></trkpt><trkpt lat="43.7408333" lon="11.1825167"><ele>61.0</ele><time>2026-04-30T14:50:54.34Z</time></trkpt><trkpt lat="43.7410567" lon="11.182305"><ele>59.0</ele><time>2026-04-30T14:50:55.339Z</time></trkpt><trkpt lat="43.7412767" lon="11.18209"><ele>59.0</ele><time>2026-04-30T14:50:56.339Z</time></trkpt><trkpt lat="43.741495" lon="11.1818783"><ele>59.0</ele><time>2026-04-30T14:50:57.34Z</time></trkpt><trkpt lat="43.7417183" lon="11.1816667"><ele>58.0</ele><time>2026-04-30T14:50:58.339Z</time></trkpt><trkpt lat="43.7419433" lon="11.1814517"><ele>57.0</ele><time>2026-04-30T14:50:59.34Z</time></trkpt><trkpt lat="43.742165" lon="11.1812217"><ele>57.0</ele><time>2026-04-30T14:51:00.34Z</time></trkpt><trkpt lat="43.74239" lon="11.181015"><ele>57.0</ele><time>2026-04-30T14:51:01.34Z</time></trkpt><trkpt lat="43.74262" lon="11.18081"><ele>57.5</ele><time>2026-04-30T14:51:02.339Z</time></trkpt><trkpt lat="43.7428367" lon="11.1806017"><ele>58.0</ele><time>2026-04-30T14:51:03.34Z</time></trkpt><trkpt lat="43.74305" lon="11.180395"><ele>58.0</ele><time>2026-04-30T14:51:04.34Z</time></trkpt><trkpt lat="43.7432483" lon="11.180175"><ele>58.0</ele><time>2026-04-30T14:51:05.34Z</time></trkpt><trkpt lat="43.743435" lon="11.1799433"><ele>57.5</ele><time>2026-04-30T14:51:06.34Z</time></trkpt><trkpt lat="43.7436117" lon="11.1796917"><ele>57.0</ele><time>2026-04-30T14:51:07.34Z</time></trkpt><trkpt lat="43.743775" lon="11.179435"><ele>57.0</ele><time>2026-04-30T14:51:08.34Z</time></trkpt><trkpt lat="43.7439317" lon="11.1791567"><ele>57.0</ele><time>2026-04-30T14:51:09.34Z</time></trkpt><trkpt lat="43.7440667" lon="11.1788567"><ele>59.0</ele><time>2026-04-30T14:51:10.34Z</time></trkpt><trkpt lat="43.744195" lon="11.1785567"><ele>61.0</ele><time>2026-04-30T14:51:11.34Z</time></trkpt><trkpt lat="43.7443133" lon="11.1782417"><ele>59.5</ele><time>2026-04-30T14:51:12.34Z</time></trkpt><trkpt lat="43.7444133" lon="11.1779167"><ele>58.0</ele><time>2026-04-30T14:51:13.339Z</time></trkpt><trkpt lat="43.7445133" lon="11.1775883"><ele>58.5</ele><time>2026-04-30T14:51:14.34Z</time></trkpt><trkpt lat="43.7446233" lon="11.17725"><ele>59.0</ele><time>2026-04-30T14:51:15.34Z</time></trkpt><trkpt lat="43.74472" lon="11.1769233"><ele>59.0</ele><time>2026-04-30T14:51:16.34Z</time></trkpt><trkpt lat="43.7448117" lon="11.1765867"><ele>59.0</ele><time>2026-04-30T14:51:17.34Z</time></trkpt><trkpt lat="43.7449083" lon="11.1762567"><ele>56.5</ele><time>2026-04-30T14:51:18.34Z</time></trkpt><trkpt lat="43.745015" lon="11.17594"><ele>54.0</ele><time>2026-04-30T14:51:19.34Z</time></trkpt><trkpt lat="43.7451217" lon="11.1756217"><ele>53.0</ele><time>2026-04-30T14:51:20.34Z</time></trkpt><trkpt lat="43.74523" lon="11.1753083"><ele>52.0</ele><time>2026-04-30T14:51:21.34Z</time></trkpt><trkpt lat="43.7453517" lon="11.1749983"><ele>53.0</ele><time>2026-04-30T14:51:22.339Z</time></trkpt><trkpt lat="43.7454833" lon="11.1746983"><ele>54.0</ele><time>2026-04-30T14:51:23.339Z</time></trkpt><trkpt lat="43.74563" lon="11.17442"><ele>54.0</ele><time>2026-04-30T14:51:24.34Z</time></trkpt><trkpt lat="43.7457983" lon="11.174145"><ele>54.0</ele><time>2026-04-30T14:51:25.34Z</time></trkpt><trkpt lat="43.7459883" lon="11.1738933"><ele>53.0</ele><time>2026-04-30T14:51:26.34Z</time></trkpt><trkpt lat="43.7461867" lon="11.1736567"><ele>52.0</ele><time>2026-04-30T14:51:27.34Z</time></trkpt><trkpt lat="43.746375" lon="11.17341"><ele>52.0</ele><time>2026-04-30T14:51:28.34Z</time></trkpt><trkpt lat="43.7465867" lon="11.1731867"><ele>52.0</ele><time>2026-04-30T14:51:29.34Z</time></trkpt><trkpt lat="43.7468" lon="11.1729767"><ele>50.5</ele><time>2026-04-30T14:51:30.34Z</time></trkpt><trkpt lat="43.747035" lon="11.17279"><ele>49.0</ele><time>2026-04-30T14:51:31.34Z</time></trkpt><trkpt lat="43.7472817" lon="11.1726233"><ele>49.0</ele><time>2026-04-30T14:51:32.34Z</time></trkpt><trkpt lat="43.747535" lon="11.1724867"><ele>49.0</ele><time>2026-04-30T14:51:33.34Z</time></trkpt><trkpt lat="43.7477933" lon="11.1723633"><ele>49.0</ele><time>2026-04-30T14:51:34.34Z</time></trkpt><trkpt lat="43.7480733" lon="11.17226"><ele>49.0</ele><time>2026-04-30T14:51:35.34Z</time></trkpt><trkpt lat="43.7483517" lon="11.1721767"><ele>49.0</ele><time>2026-04-30T14:51:36.339Z</time></trkpt><trkpt lat="43.748645" lon="11.1721217"><ele>49.0</ele><time>2026-04-30T14:51:37.34Z</time></trkpt><trkpt lat="43.7489317" lon="11.1720583"><ele>49.0</ele><time>2026-04-30T14:51:38.339Z</time></trkpt><trkpt lat="43.7492233" lon="11.1720017"><ele>49.0</ele><time>2026-04-30T14:51:39.34Z</time></trkpt><trkpt lat="43.7495133" lon="11.1719467"><ele>48.0</ele><time>2026-04-30T14:51:40.339Z</time></trkpt><trkpt lat="43.7498033" lon="11.17191"><ele>47.0</ele><time>2026-04-30T14:51:41.34Z</time></trkpt><trkpt lat="43.7500833" lon="11.1718583"><ele>47.0</ele><time>2026-04-30T14:51:42.34Z</time></trkpt><trkpt lat="43.750375" lon="11.171805"><ele>47.0</ele><time>2026-04-30T14:51:43.34Z</time></trkpt><trkpt lat="43.7506667" lon="11.1717483"><ele>47.0</ele><time>2026-04-30T14:51:44.34Z</time></trkpt><trkpt lat="43.7509667" lon="11.1716967"><ele>47.0</ele><time>2026-04-30T14:51:45.34Z</time></trkpt><trkpt lat="43.751265" lon="11.17165"><ele>46.5</ele><time>2026-04-30T14:51:46.34Z</time></trkpt><trkpt lat="43.7515617" lon="11.1716117"><ele>46.0</ele><time>2026-04-30T14:51:47.34Z</time></trkpt><trkpt lat="43.7518383" lon="11.1715517"><ele>45.5</ele><time>2026-04-30T14:51:48.34Z</time></trkpt><trkpt lat="43.75211" lon="11.1714983"><ele>45.0</ele><time>2026-04-30T14:51:49.339Z</time></trkpt><trkpt lat="43.752395" lon="11.17145"><ele>45.0</ele><time>2026-04-30T14:51:50.34Z</time></trkpt><trkpt lat="43.75267" lon="11.1714067"><ele>45.0</ele><time>2026-04-30T14:51:51.34Z</time></trkpt><trkpt lat="43.7529433" lon="11.171355"><ele>45.5</ele><time>2026-04-30T14:51:52.34Z</time></trkpt><trkpt lat="43.7532133" lon="11.1713017"><ele>46.0</ele><time>2026-04-30T14:51:53.34Z</time></trkpt><trkpt lat="43.7534933" lon="11.171245"><ele>45.0</ele><time>2026-04-30T14:51:54.339Z</time></trkpt><trkpt lat="43.75377" lon="11.1712"><ele>44.0</ele><time>2026-04-30T14:51:55.34Z</time></trkpt><trkpt lat="43.754045" lon="11.17117"><ele>44.0</ele><time>2026-04-30T14:51:56.34Z</time></trkpt><trkpt lat="43.7543117" lon="11.1711333"><ele>44.0</ele><time>2026-04-30T14:51:57.34Z</time></trkpt><trkpt lat="43.7545967" lon="11.1710717"><ele>43.5</ele><time>2026-04-30T14:51:58.34Z</time></trkpt><trkpt lat="43.75488" lon="11.171015"><ele>43.0</ele><time>2026-04-30T14:51:59.34Z</time></trkpt><trkpt lat="43.7551683" lon="11.1709617"><ele>43.5</ele><time>2026-04-30T14:52:00.34Z</time></trkpt><trkpt lat="43.75544" lon="11.1709117"><ele>44.0</ele><time>2026-04-30T14:52:01.34Z</time></trkpt><trkpt lat="43.75572" lon="11.1708583"><ele>44.0</ele><time>2026-04-30T14:52:02.339Z</time></trkpt><trkpt lat="43.7559933" lon="11.17081"><ele>44.0</ele><time>2026-04-30T14:52:03.339Z</time></trkpt><trkpt lat="43.75627" lon="11.1707583"><ele>44.0</ele><time>2026-04-30T14:52:04.34Z</time></trkpt><trkpt lat="43.7565483" lon="11.170705"><ele>44.0</ele><time>2026-04-30T14:52:05.34Z</time></trkpt><trkpt lat="43.7568183" lon="11.1706533"><ele>42.5</ele><time>2026-04-30T14:52:06.34Z</time></trkpt><trkpt lat="43.7571083" lon="11.170595"><ele>41.0</ele><time>2026-04-30T14:52:07.339Z</time></trkpt><trkpt lat="43.757405" lon="11.1705367"><ele>41.0</ele><time>2026-04-30T14:52:08.34Z</time></trkpt><trkpt lat="43.7576967" lon="11.1704817"><ele>41.0</ele><time>2026-04-30T14:52:09.34Z</time></trkpt><trkpt lat="43.7579783" lon="11.17043"><ele>41.0</ele><time>2026-04-30T14:52:10.34Z</time></trkpt><trkpt lat="43.7582483" lon="11.17038"><ele>41.0</ele><time>2026-04-30T14:52:11.34Z</time></trkpt><trkpt lat="43.7585333" lon="11.170335"><ele>41.5</ele><time>2026-04-30T14:52:12.34Z</time></trkpt><trkpt lat="43.75881" lon="11.17028"><ele>42.0</ele><time>2026-04-30T14:52:13.34Z</time></trkpt><trkpt lat="43.7590933" lon="11.1702233"><ele>41.0</ele><time>2026-04-30T14:52:14.34Z</time></trkpt><trkpt lat="43.7593683" lon="11.1701733"><ele>40.0</ele><time>2026-04-30T14:52:15.339Z</time></trkpt><trkpt lat="43.7596433" lon="11.170115"><ele>40.0</ele><time>2026-04-30T14:52:16.34Z</time></trkpt><trkpt lat="43.75992" lon="11.1700683"><ele>40.0</ele><time>2026-04-30T14:52:17.34Z</time></trkpt><trkpt lat="43.7602033" lon="11.1700167"><ele>40.0</ele><time>2026-04-30T14:52:18.34Z</time></trkpt><trkpt lat="43.7604733" lon="11.1699517"><ele>40.0</ele><time>2026-04-30T14:52:19.34Z</time></trkpt><trkpt lat="43.7607367" lon="11.1698883"><ele>40.0</ele><time>2026-04-30T14:52:20.339Z</time></trkpt><trkpt lat="43.7610133" lon="11.169825"><ele>40.0</ele><time>2026-04-30T14:52:21.34Z</time></trkpt><trkpt lat="43.7612783" lon="11.16977"><ele>40.0</ele><time>2026-04-30T14:52:22.34Z</time></trkpt><trkpt lat="43.7615433" lon="11.1696983"><ele>40.0</ele><time>2026-04-30T14:52:23.339Z</time></trkpt><trkpt lat="43.761805" lon="11.1696133"><ele>41.0</ele><time>2026-04-30T14:52:24.34Z</time></trkpt><trkpt lat="43.7620733" lon="11.169525"><ele>42.0</ele><time>2026-04-30T14:52:25.339Z</time></trkpt><trkpt lat="43.76234" lon="11.1694267"><ele>42.0</ele><time>2026-04-30T14:52:26.339Z</time></trkpt><trkpt lat="43.7626033" lon="11.1693233"><ele>42.0</ele><time>2026-04-30T14:52:27.34Z</time></trkpt><trkpt lat="43.76286" lon="11.1692183"><ele>41.5</ele><time>2026-04-30T14:52:28.34Z</time></trkpt><trkpt lat="43.7631117" lon="11.169125"><ele>41.0</ele><time>2026-04-30T14:52:29.34Z</time></trkpt><trkpt lat="43.7633633" lon="11.169025"><ele>40.0</ele><time>2026-04-30T14:52:30.339Z</time></trkpt><trkpt lat="43.76361" lon="11.1689267"><ele>39.0</ele><time>2026-04-30T14:52:31.34Z</time></trkpt><trkpt lat="43.7638567" lon="11.16883"><ele>37.0</ele><time>2026-04-30T14:52:32.34Z</time></trkpt><trkpt lat="43.76761" lon="11.16603"><ele>37.5</ele><time>2026-04-30T14:52:52.339Z</time></trkpt><trkpt lat="43.7678367" lon="11.16586"><ele>38.0</ele><time>2026-04-30T14:52:53.338Z</time></trkpt><trkpt lat="43.7680717" lon="11.165685"><ele>38.0</ele><time>2026-04-30T14:52:54.339Z</time></trkpt><trkpt lat="43.7683167" lon="11.1655083"><ele>38.0</ele><time>2026-04-30T14:52:55.339Z</time></trkpt><trkpt lat="43.7685633" lon="11.1653317"><ele>39.0</ele><time>2026-04-30T14:52:56.339Z</time></trkpt><trkpt lat="43.76881" lon="11.1651533"><ele>40.0</ele><time>2026-04-30T14:52:57.339Z</time></trkpt><trkpt lat="43.76906" lon="11.164975"><ele>40.5</ele><time>2026-04-30T14:52:58.338Z</time></trkpt><trkpt lat="43.769315" lon="11.1647983"><ele>41.0</ele><time>2026-04-30T14:52:59.338Z</time></trkpt><trkpt lat="43.7695683" lon="11.164625"><ele>39.0</ele><time>2026-04-30T14:53:00.339Z</time></trkpt><trkpt lat="43.7698233" lon="11.16445"><ele>37.0</ele><time>2026-04-30T14:53:01.339Z</time></trkpt><trkpt lat="43.7700783" lon="11.1642733"><ele>37.0</ele><time>2026-04-30T14:53:02.339Z</time></trkpt><trkpt lat="43.770335" lon="11.164105"><ele>37.0</ele><time>2026-04-30T14:53:03.339Z</time></trkpt><trkpt lat="43.7705883" lon="11.1639367"><ele>36.5</ele><time>2026-04-30T14:53:04.338Z</time></trkpt><trkpt lat="43.770845" lon="11.1637783"><ele>36.0</ele><time>2026-04-30T14:53:05.339Z</time></trkpt><trkpt lat="43.771105" lon="11.16363"><ele>37.0</ele><time>2026-04-30T14:53:06.339Z</time></trkpt><trkpt lat="43.7713617" lon="11.1634833"><ele>38.0</ele><time>2026-04-30T14:53:07.339Z</time></trkpt><trkpt lat="43.77162" lon="11.163345"><ele>37.0</ele><time>2026-04-30T14:53:08.338Z</time></trkpt><trkpt lat="43.7718883" lon="11.1632067"><ele>36.0</ele><time>2026-04-30T14:53:09.339Z</time></trkpt><trkpt lat="43.77215" lon="11.163085"><ele>35.5</ele><time>2026-04-30T14:53:10.339Z</time></trkpt><trkpt lat="43.7724217" lon="11.1629783"><ele>35.0</ele><time>2026-04-30T14:53:11.338Z</time></trkpt><trkpt lat="43.77269" lon="11.16287"><ele>35.0</ele><time>2026-04-30T14:53:12.339Z</time></trkpt><trkpt lat="43.772955" lon="11.162755"><ele>35.0</ele><time>2026-04-30T14:53:13.338Z</time></trkpt><trkpt lat="43.7732183" lon="11.162665"><ele>35.0</ele><time>2026-04-30T14:53:14.339Z</time></trkpt><trkpt lat="43.7734933" lon="11.1625633"><ele>35.0</ele><time>2026-04-30T14:53:15.339Z</time></trkpt><trkpt lat="43.7737817" lon="11.1624683"><ele>35.0</ele><time>2026-04-30T14:53:16.338Z</time></trkpt><trkpt lat="43.7740733" lon="11.16238"><ele>35.0</ele><time>2026-04-30T14:53:17.338Z</time></trkpt><trkpt lat="43.7743683" lon="11.1622933"><ele>35.0</ele><time>2026-04-30T14:53:18.339Z</time></trkpt><trkpt lat="43.7746667" lon="11.1622117"><ele>35.0</ele><time>2026-04-30T14:53:19.339Z</time></trkpt><trkpt lat="43.77497" lon="11.1621267"><ele>34.5</ele><time>2026-04-30T14:53:20.339Z</time></trkpt><trkpt lat="43.7752767" lon="11.162035"><ele>34.0</ele><time>2026-04-30T14:53:21.339Z</time></trkpt><trkpt lat="43.7755867" lon="11.1619483"><ele>34.0</ele><time>2026-04-30T14:53:22.339Z</time></trkpt><trkpt lat="43.77589" lon="11.161875"><ele>34.0</ele><time>2026-04-30T14:53:23.339Z</time></trkpt><trkpt lat="43.7761933" lon="11.1617933"><ele>35.5</ele><time>2026-04-30T14:53:24.338Z</time></trkpt><trkpt lat="43.7764983" lon="11.16171"><ele>37.0</ele><time>2026-04-30T14:53:25.339Z</time></trkpt><trkpt lat="43.7768067" lon="11.161625"><ele>35.5</ele><time>2026-04-30T14:53:26.339Z</time></trkpt><trkpt lat="43.7771083" lon="11.16154"><ele>34.0</ele><time>2026-04-30T14:53:27.338Z</time></trkpt><trkpt lat="43.7774133" lon="11.161455"><ele>34.5</ele><time>2026-04-30T14:53:28.339Z</time></trkpt><trkpt lat="43.7777233" lon="11.1613717"><ele>35.0</ele><time>2026-04-30T14:53:29.338Z</time></trkpt><trkpt lat="43.7780283" lon="11.16129"><ele>35.0</ele><time>2026-04-30T14:53:30.338Z</time></trkpt><trkpt lat="43.7783333" lon="11.1612033"><ele>35.0</ele><time>2026-04-30T14:53:31.338Z</time></trkpt><trkpt lat="43.7786283" lon="11.1611217"><ele>36.0</ele><time>2026-04-30T14:53:32.339Z</time></trkpt><trkpt lat="43.7789233" lon="11.1610383"><ele>37.0</ele><time>2026-04-30T14:53:33.337Z</time></trkpt><trkpt lat="43.7792233" lon="11.1609717"><ele>36.5</ele><time>2026-04-30T14:53:34.338Z</time></trkpt><trkpt lat="43.7795133" lon="11.1608883"><ele>36.0</ele><time>2026-04-30T14:53:35.338Z</time></trkpt><trkpt lat="43.7798067" lon="11.1608117"><ele>36.0</ele><time>2026-04-30T14:53:36.338Z</time></trkpt><trkpt lat="43.7801033" lon="11.1607267"><ele>36.0</ele><time>2026-04-30T14:53:37.337Z</time></trkpt><trkpt lat="43.780405" lon="11.1606483"><ele>36.0</ele><time>2026-04-30T14:53:38.338Z</time></trkpt><trkpt lat="43.7806983" lon="11.16056"><ele>36.0</ele><time>2026-04-30T14:53:39.337Z</time></trkpt><trkpt lat="43.7810017" lon="11.16048"><ele>35.0</ele><time>2026-04-30T14:53:40.338Z</time></trkpt><trkpt lat="43.7813033" lon="11.1603867"><ele>34.0</ele><time>2026-04-30T14:53:41.338Z</time></trkpt><trkpt lat="43.78161" lon="11.1602967"><ele>34.5</ele><time>2026-04-30T14:53:42.338Z</time></trkpt><trkpt lat="43.781925" lon="11.160195"><ele>35.0</ele><time>2026-04-30T14:53:43.338Z</time></trkpt><trkpt lat="43.782255" lon="11.16009"><ele>35.0</ele><time>2026-04-30T14:53:44.338Z</time></trkpt><trkpt lat="43.7825983" lon="11.1599883"><ele>35.0</ele><time>2026-04-30T14:53:45.338Z</time></trkpt><trkpt lat="43.7829417" lon="11.1598883"><ele>36.0</ele><time>2026-04-30T14:53:46.338Z</time></trkpt><trkpt lat="43.7832617" lon="11.1597983"><ele>37.0</ele><time>2026-04-30T14:53:47.338Z</time></trkpt><trkpt lat="43.7835983" lon="11.1597083"><ele>37.0</ele><time>2026-04-30T14:53:48.338Z</time></trkpt><trkpt lat="43.7839267" lon="11.1596233"><ele>37.0</ele><time>2026-04-30T14:53:49.338Z</time></trkpt><trkpt lat="43.7842517" lon="11.1595433"><ele>37.5</ele><time>2026-04-30T14:53:50.338Z</time></trkpt><trkpt lat="43.78458" lon="11.1594583"><ele>38.0</ele><time>2026-04-30T14:53:51.338Z</time></trkpt><trkpt lat="43.7849017" lon="11.1593733"><ele>39.0</ele><time>2026-04-30T14:53:52.338Z</time></trkpt><trkpt lat="43.785215" lon="11.1592817"><ele>40.0</ele><time>2026-04-30T14:53:53.338Z</time></trkpt><trkpt lat="43.7855267" lon="11.1592"><ele>40.0</ele><time>2026-04-30T14:53:54.338Z</time></trkpt><trkpt lat="43.78583" lon="11.1591117"><ele>40.0</ele><time>2026-04-30T14:53:55.338Z</time></trkpt><trkpt lat="43.786125" lon="11.1590217"><ele>38.0</ele><time>2026-04-30T14:53:56.337Z</time></trkpt><trkpt lat="43.7864167" lon="11.1589333"><ele>36.0</ele><time>2026-04-30T14:53:57.338Z</time></trkpt><trkpt lat="43.7867017" lon="11.1588433"><ele>37.0</ele><time>2026-04-30T14:53:58.338Z</time></trkpt><trkpt lat="43.7869867" lon="11.1587617"><ele>38.0</ele><time>2026-04-30T14:53:59.337Z</time></trkpt><trkpt lat="43.7872717" lon="11.1586833"><ele>38.0</ele><time>2026-04-30T14:54:00.338Z</time></trkpt><trkpt lat="43.78756" lon="11.1586083"><ele>38.0</ele><time>2026-04-30T14:54:01.337Z</time></trkpt><trkpt lat="43.7878383" lon="11.1585267"><ele>38.5</ele><time>2026-04-30T14:54:02.338Z</time></trkpt><trkpt lat="43.7881233" lon="11.1584433"><ele>39.0</ele><time>2026-04-30T14:54:03.337Z</time></trkpt><trkpt lat="43.78841" lon="11.1583667"><ele>39.0</ele><time>2026-04-30T14:54:04.338Z</time></trkpt><trkpt lat="43.7886933" lon="11.1582867"><ele>39.0</ele><time>2026-04-30T14:54:05.338Z</time></trkpt><trkpt lat="43.7889833" lon="11.1582083"><ele>38.0</ele><time>2026-04-30T14:54:06.338Z</time></trkpt><trkpt lat="43.7892867" lon="11.1581267"><ele>37.0</ele><time>2026-04-30T14:54:07.338Z</time></trkpt><trkpt lat="43.78959" lon="11.15804"><ele>37.0</ele><time>2026-04-30T14:54:08.338Z</time></trkpt><trkpt lat="43.789895" lon="11.15796"><ele>37.0</ele><time>2026-04-30T14:54:09.338Z</time></trkpt><trkpt lat="43.7901933" lon="11.1578917"><ele>37.0</ele><time>2026-04-30T14:54:10.338Z</time></trkpt><trkpt lat="43.7904883" lon="11.157815"><ele>37.0</ele><time>2026-04-30T14:54:11.338Z</time></trkpt><trkpt lat="43.7907883" lon="11.15773"><ele>38.0</ele><time>2026-04-30T14:54:12.338Z</time></trkpt><trkpt lat="43.7910867" lon="11.15765"><ele>39.0</ele><time>2026-04-30T14:54:13.338Z</time></trkpt><trkpt lat="43.7913917" lon="11.157565"><ele>39.0</ele><time>2026-04-30T14:54:14.338Z</time></trkpt><trkpt lat="43.7916883" lon="11.1574767"><ele>39.0</ele><time>2026-04-30T14:54:15.338Z</time></trkpt><trkpt lat="43.7919967" lon="11.1574067"><ele>37.5</ele><time>2026-04-30T14:54:16.338Z</time></trkpt><trkpt lat="43.792305" lon="11.1573117"><ele>36.0</ele><time>2026-04-30T14:54:17.338Z</time></trkpt><trkpt lat="43.7926183" lon="11.1572183"><ele>37.5</ele><time>2026-04-30T14:54:18.338Z</time></trkpt><trkpt lat="43.7929317" lon="11.1571283"><ele>39.0</ele><time>2026-04-30T14:54:19.338Z</time></trkpt><trkpt lat="43.79324" lon="11.1570333"><ele>37.5</ele><time>2026-04-30T14:54:20.338Z</time></trkpt><trkpt lat="43.7935667" lon="11.156935"><ele>36.0</ele><time>2026-04-30T14:54:21.338Z</time></trkpt><trkpt lat="43.7939117" lon="11.156835"><ele>36.0</ele><time>2026-04-30T14:54:22.337Z</time></trkpt><trkpt lat="43.794255" lon="11.1567383"><ele>36.0</ele><time>2026-04-30T14:54:23.338Z</time></trkpt><trkpt lat="43.79459" lon="11.1566433"><ele>35.5</ele><time>2026-04-30T14:54:24.338Z</time></trkpt><trkpt lat="43.7948933" lon="11.156555"><ele>35.0</ele><time>2026-04-30T14:54:25.338Z</time></trkpt><trkpt lat="43.7952" lon="11.1564683"><ele>35.0</ele><time>2026-04-30T14:54:26.338Z</time></trkpt><trkpt lat="43.7955033" lon="11.1563817"><ele>35.0</ele><time>2026-04-30T14:54:27.337Z</time></trkpt><trkpt lat="43.7958017" lon="11.1563017"><ele>35.0</ele><time>2026-04-30T14:54:28.337Z</time></trkpt><trkpt lat="43.7961" lon="11.1562183"><ele>35.0</ele><time>2026-04-30T14:54:29.337Z</time></trkpt><trkpt lat="43.7963933" lon="11.156125"><ele>35.0</ele><time>2026-04-30T14:54:30.338Z</time></trkpt><trkpt lat="43.7966917" lon="11.156045"><ele>35.0</ele><time>2026-04-30T14:54:31.337Z</time></trkpt><trkpt lat="43.79699" lon="11.1559583"><ele>35.5</ele><time>2026-04-30T14:54:32.338Z</time></trkpt><trkpt lat="43.7972833" lon="11.1558733"><ele>36.0</ele><time>2026-04-30T14:54:33.338Z</time></trkpt><trkpt lat="43.7975833" lon="11.1557967"><ele>36.0</ele><time>2026-04-30T14:54:34.338Z</time></trkpt><trkpt lat="43.7978783" lon="11.155715"><ele>36.0</ele><time>2026-04-30T14:54:35.337Z</time></trkpt><trkpt lat="43.798175" lon="11.155635"><ele>36.0</ele><time>2026-04-30T14:54:36.338Z</time></trkpt><trkpt lat="43.7984683" lon="11.1555583"><ele>36.0</ele><time>2026-04-30T14:54:37.338Z</time></trkpt><trkpt lat="43.798765" lon="11.155475"><ele>36.0</ele><time>2026-04-30T14:54:38.338Z</time></trkpt><trkpt lat="43.7990617" lon="11.1553983"><ele>36.0</ele><time>2026-04-30T14:54:39.338Z</time></trkpt><trkpt lat="43.7993567" lon="11.1553183"><ele>36.0</ele><time>2026-04-30T14:54:40.337Z</time></trkpt><trkpt lat="43.7996433" lon="11.1552383"><ele>36.0</ele><time>2026-04-30T14:54:41.338Z</time></trkpt><trkpt lat="43.7999333" lon="11.1551617"><ele>35.5</ele><time>2026-04-30T14:54:42.338Z</time></trkpt><trkpt lat="43.80023" lon="11.1550833"><ele>35.0</ele><time>2026-04-30T14:54:43.338Z</time></trkpt><trkpt lat="43.8005267" lon="11.1550017"><ele>35.0</ele><time>2026-04-30T14:54:44.338Z</time></trkpt><trkpt lat="43.8008267" lon="11.1549317"><ele>35.0</ele><time>2026-04-30T14:54:45.338Z</time></trkpt><trkpt lat="43.8011217" lon="11.1548517"><ele>36.0</ele><time>2026-04-30T14:54:46.338Z</time></trkpt><trkpt lat="43.80141" lon="11.1547733"><ele>37.0</ele><time>2026-04-30T14:54:47.338Z</time></trkpt><trkpt lat="43.8016967" lon="11.1546967"><ele>36.5</ele><time>2026-04-30T14:54:48.338Z</time></trkpt><trkpt lat="43.8019867" lon="11.1546217"><ele>36.0</ele><time>2026-04-30T14:54:49.338Z</time></trkpt><trkpt lat="43.8022733" lon="11.1545383"><ele>36.0</ele><time>2026-04-30T14:54:50.337Z</time></trkpt><trkpt lat="43.8025683" lon="11.154455"><ele>36.0</ele><time>2026-04-30T14:54:51.337Z</time></trkpt><trkpt lat="43.8028533" lon="11.1543717"><ele>35.0</ele><time>2026-04-30T14:54:52.338Z</time></trkpt><trkpt lat="43.8031417" lon="11.154295"><ele>34.0</ele><time>2026-04-30T14:54:53.338Z</time></trkpt><trkpt lat="43.8034267" lon="11.154215"><ele>34.5</ele><time>2026-04-30T14:54:54.338Z</time></trkpt><trkpt lat="43.8037067" lon="11.1541383"><ele>35.0</ele><time>2026-04-30T14:54:55.337Z</time></trkpt><trkpt lat="43.8039717" lon="11.154065"><ele>35.0</ele><time>2026-04-30T14:54:56.338Z</time></trkpt><trkpt lat="43.8042383" lon="11.153995"><ele>35.0</ele><time>2026-04-30T14:54:57.337Z</time></trkpt><trkpt lat="43.8045" lon="11.1539233"><ele>36.0</ele><time>2026-04-30T14:54:58.338Z</time></trkpt><trkpt lat="43.8047667" lon="11.1538517"><ele>37.0</ele><time>2026-04-30T14:54:59.338Z</time></trkpt><trkpt lat="43.805025" lon="11.1537783"><ele>35.5</ele><time>2026-04-30T14:55:00.337Z</time></trkpt><trkpt lat="43.805275" lon="11.1536983"><ele>34.0</ele><time>2026-04-30T14:55:01.337Z</time></trkpt><trkpt lat="43.80553" lon="11.1536283"><ele>34.0</ele><time>2026-04-30T14:55:02.338Z</time></trkpt><trkpt lat="43.8057883" lon="11.153555"><ele>34.0</ele><time>2026-04-30T14:55:03.337Z</time></trkpt><trkpt lat="43.8060417" lon="11.1534883"><ele>33.5</ele><time>2026-04-30T14:55:04.338Z</time></trkpt><trkpt lat="43.8062867" lon="11.1534183"><ele>33.0</ele><time>2026-04-30T14:55:05.338Z</time></trkpt><trkpt lat="43.80653" lon="11.1533483"><ele>33.0</ele><time>2026-04-30T14:55:06.337Z</time></trkpt><trkpt lat="43.806775" lon="11.1532833"><ele>33.0</ele><time>2026-04-30T14:55:07.338Z</time></trkpt><trkpt lat="43.8070183" lon="11.1532133"><ele>33.5</ele><time>2026-04-30T14:55:08.338Z</time></trkpt><trkpt lat="43.8072567" lon="11.1531433"><ele>34.0</ele><time>2026-04-30T14:55:09.338Z</time></trkpt><trkpt lat="43.8075033" lon="11.15308"><ele>34.0</ele><time>2026-04-30T14:55:10.337Z</time></trkpt><trkpt lat="43.8077433" lon="11.1530133"><ele>34.0</ele><time>2026-04-30T14:55:11.337Z</time></trkpt><trkpt lat="43.8079933" lon="11.15294"><ele>34.0</ele><time>2026-04-30T14:55:12.338Z</time></trkpt><trkpt lat="43.8082417" lon="11.152865"><ele>34.0</ele><time>2026-04-30T14:55:13.338Z</time></trkpt><trkpt lat="43.8084983" lon="11.1527983"><ele>35.0</ele><time>2026-04-30T14:55:14.338Z</time></trkpt><trkpt lat="43.8087417" lon="11.1527317"><ele>36.0</ele><time>2026-04-30T14:55:15.338Z</time></trkpt><trkpt lat="43.8089933" lon="11.1526633"><ele>36.0</ele><time>2026-04-30T14:55:16.338Z</time></trkpt><trkpt lat="43.8092383" lon="11.1525933"><ele>36.0</ele><time>2026-04-30T14:55:17.337Z</time></trkpt><trkpt lat="43.8094867" lon="11.1525217"><ele>36.5</ele><time>2026-04-30T14:55:18.338Z</time></trkpt><trkpt lat="43.809735" lon="11.1524467"><ele>37.0</ele><time>2026-04-30T14:55:19.338Z</time></trkpt><trkpt lat="43.8099867" lon="11.1523767"><ele>35.5</ele><time>2026-04-30T14:55:20.338Z</time></trkpt><trkpt lat="43.8102317" lon="11.1523033"><ele>34.0</ele><time>2026-04-30T14:55:21.338Z</time></trkpt><trkpt lat="43.8104683" lon="11.1522367"><ele>34.0</ele><time>2026-04-30T14:55:22.338Z</time></trkpt><trkpt lat="43.810695" lon="11.1521733"><ele>34.0</ele><time>2026-04-30T14:55:23.337Z</time></trkpt><trkpt lat="43.8109267" lon="11.1521117"><ele>34.0</ele><time>2026-04-30T14:55:24.338Z</time></trkpt><trkpt lat="43.8111533" lon="11.1520433"><ele>34.0</ele><time>2026-04-30T14:55:25.338Z</time></trkpt><trkpt lat="43.81138" lon="11.1519817"><ele>34.0</ele><time>2026-04-30T14:55:26.337Z</time></trkpt><trkpt lat="43.8116017" lon="11.15192"><ele>34.0</ele><time>2026-04-30T14:55:27.337Z</time></trkpt><trkpt lat="43.81182" lon="11.1518567"><ele>34.0</ele><time>2026-04-30T14:55:28.338Z</time></trkpt><trkpt lat="43.81204" lon="11.1517967"><ele>34.333333333333336</ele><time>2026-04-30T14:55:29.337Z</time></trkpt><trkpt lat="43.8122617" lon="11.1517433"><ele>34.666666666666664</ele><time>2026-04-30T14:55:30.338Z</time></trkpt><trkpt lat="43.8124817" lon="11.151695"><ele>35.0</ele><time>2026-04-30T14:55:31.337Z</time></trkpt><trkpt lat="43.8127067" lon="11.1516583"><ele>35.0</ele><time>2026-04-30T14:55:32.337Z</time></trkpt><trkpt lat="43.8129383" lon="11.151625"><ele>35.0</ele><time>2026-04-30T14:55:33.338Z</time></trkpt><trkpt lat="43.8131733" lon="11.1516017"><ele>35.0</ele><time>2026-04-30T14:55:34.338Z</time></trkpt><trkpt lat="43.8134167" lon="11.1515767"><ele>35.0</ele><time>2026-04-30T14:55:35.337Z</time></trkpt><trkpt lat="43.81366" lon="11.1515583"><ele>34.5</ele><time>2026-04-30T14:55:36.337Z</time></trkpt><trkpt lat="43.8139083" lon="11.1515467"><ele>34.0</ele><time>2026-04-30T14:55:37.338Z</time></trkpt><trkpt lat="43.814155" lon="11.1515267"><ele>34.0</ele><time>2026-04-30T14:55:38.337Z</time></trkpt><trkpt lat="43.8143867" lon="11.1515117"><ele>34.0</ele><time>2026-04-30T14:55:39.337Z</time></trkpt><trkpt lat="43.8146267" lon="11.151505"><ele>34.0</ele><time>2026-04-30T14:55:40.337Z</time></trkpt><trkpt lat="43.8148583" lon="11.151505"><ele>34.0</ele><time>2026-04-30T14:55:41.337Z</time></trkpt><trkpt lat="43.8151083" lon="11.151515"><ele>34.0</ele><time>2026-04-30T14:55:42.338Z</time></trkpt><trkpt lat="43.8153517" lon="11.1515283"><ele>34.0</ele><time>2026-04-30T14:55:43.338Z</time></trkpt><trkpt lat="43.815595" lon="11.1515167"><ele>34.0</ele><time>2026-04-30T14:55:44.338Z</time></trkpt><trkpt lat="43.8158433" lon="11.1515217"><ele>34.0</ele><time>2026-04-30T14:55:45.337Z</time></trkpt><trkpt lat="43.8161017" lon="11.1515183"><ele>35.5</ele><time>2026-04-30T14:55:46.338Z</time></trkpt><trkpt lat="43.8163517" lon="11.151515"><ele>37.0</ele><time>2026-04-30T14:55:47.338Z</time></trkpt><trkpt lat="43.816615" lon="11.1515133"><ele>36.0</ele><time>2026-04-30T14:55:48.338Z</time></trkpt><trkpt lat="43.8168817" lon="11.15152"><ele>35.0</ele><time>2026-04-30T14:55:49.337Z</time></trkpt><trkpt lat="43.81715" lon="11.15153"><ele>35.0</ele><time>2026-04-30T14:55:50.338Z</time></trkpt><trkpt lat="43.8174117" lon="11.15154"><ele>35.0</ele><time>2026-04-30T14:55:51.338Z</time></trkpt><trkpt lat="43.8176883" lon="11.15155"><ele>35.0</ele><time>2026-04-30T14:55:52.337Z</time></trkpt><trkpt lat="43.8179617" lon="11.1515567"><ele>35.0</ele><time>2026-04-30T14:55:53.338Z</time></trkpt><trkpt lat="43.818225" lon="11.1515483"><ele>35.0</ele><time>2026-04-30T14:55:54.338Z</time></trkpt><trkpt lat="43.81851" lon="11.1515533"><ele>35.0</ele><time>2026-04-30T14:55:55.338Z</time></trkpt><trkpt lat="43.818775" lon="11.1515483"><ele>35.0</ele><time>2026-04-30T14:55:56.338Z</time></trkpt><trkpt lat="43.8190717" lon="11.15155"><ele>35.0</ele><time>2026-04-30T14:55:57.338Z</time></trkpt><trkpt lat="43.8193433" lon="11.151535"><ele>35.5</ele><time>2026-04-30T14:55:58.338Z</time></trkpt><trkpt lat="43.81962" lon="11.15154"><ele>36.0</ele><time>2026-04-30T14:55:59.338Z</time></trkpt><trkpt lat="43.8199117" lon="11.1515517"><ele>36.0</ele><time>2026-04-30T14:56:00.338Z</time></trkpt><trkpt lat="43.8201933" lon="11.15155"><ele>36.0</ele><time>2026-04-30T14:56:01.338Z</time></trkpt><trkpt lat="43.820465" lon="11.1515567"><ele>36.0</ele><time>2026-04-30T14:56:02.338Z</time></trkpt><trkpt lat="43.8207233" lon="11.1515683"><ele>36.0</ele><time>2026-04-30T14:56:03.337Z</time></trkpt><trkpt lat="43.821005" lon="11.1515933"><ele>35.0</ele><time>2026-04-30T14:56:04.337Z</time></trkpt><trkpt lat="43.8212767" lon="11.15161"><ele>34.0</ele><time>2026-04-30T14:56:05.338Z</time></trkpt><trkpt lat="43.821545" lon="11.151615"><ele>35.5</ele><time>2026-04-30T14:56:06.337Z</time></trkpt><trkpt lat="43.8218167" lon="11.1516183"><ele>37.0</ele><time>2026-04-30T14:56:07.338Z</time></trkpt><trkpt lat="43.822095" lon="11.15162"><ele>37.0</ele><time>2026-04-30T14:56:08.338Z</time></trkpt><trkpt lat="43.8223717" lon="11.1516233"><ele>37.0</ele><time>2026-04-30T14:56:09.338Z</time></trkpt><trkpt lat="43.82265" lon="11.1516433"><ele>37.5</ele><time>2026-04-30T14:56:10.338Z</time></trkpt><trkpt lat="43.82292" lon="11.151655"><ele>38.0</ele><time>2026-04-30T14:56:11.337Z</time></trkpt><trkpt lat="43.8231917" lon="11.1516583"><ele>38.0</ele><time>2026-04-30T14:56:12.338Z</time></trkpt><trkpt lat="43.82346" lon="11.151665"><ele>38.0</ele><time>2026-04-30T14:56:13.337Z</time></trkpt><trkpt lat="43.823725" lon="11.151665"><ele>37.0</ele><time>2026-04-30T14:56:14.338Z</time></trkpt><trkpt lat="43.8239983" lon="11.1516783"><ele>36.0</ele><time>2026-04-30T14:56:15.338Z</time></trkpt><trkpt lat="43.8242683" lon="11.1516817"><ele>36.0</ele><time>2026-04-30T14:56:16.338Z</time></trkpt><trkpt lat="43.8245383" lon="11.1516867"><ele>36.0</ele><time>2026-04-30T14:56:17.338Z</time></trkpt><trkpt lat="43.8248033" lon="11.1517167"><ele>36.0</ele><time>2026-04-30T14:56:18.337Z</time></trkpt><trkpt lat="43.82506" lon="11.1517583"><ele>36.0</ele><time>2026-04-30T14:56:19.338Z</time></trkpt><trkpt lat="43.8253117" lon="11.151805"><ele>37.0</ele><time>2026-04-30T14:56:20.338Z</time></trkpt><trkpt lat="43.8255667" lon="11.151865"><ele>38.0</ele><time>2026-04-30T14:56:21.338Z</time></trkpt><trkpt lat="43.82582" lon="11.1519383"><ele>37.5</ele><time>2026-04-30T14:56:22.338Z</time></trkpt><trkpt lat="43.8260567" lon="11.1520083"><ele>37.0</ele><time>2026-04-30T14:56:23.338Z</time></trkpt><trkpt lat="43.8262967" lon="11.1520983"><ele>37.0</ele><time>2026-04-30T14:56:24.337Z</time></trkpt><trkpt lat="43.826545" lon="11.1521933"><ele>37.0</ele><time>2026-04-30T14:56:25.338Z</time></trkpt><trkpt lat="43.8267883" lon="11.1523"><ele>37.5</ele><time>2026-04-30T14:56:26.338Z</time></trkpt><trkpt lat="43.8270217" lon="11.152425"><ele>38.0</ele><time>2026-04-30T14:56:27.338Z</time></trkpt><trkpt lat="43.8272533" lon="11.15255"><ele>38.0</ele><time>2026-04-30T14:56:28.338Z</time></trkpt><trkpt lat="43.8274767" lon="11.152675"><ele>38.0</ele><time>2026-04-30T14:56:29.337Z</time></trkpt><trkpt lat="43.827695" lon="11.1528117"><ele>38.0</ele><time>2026-04-30T14:56:30.338Z</time></trkpt><trkpt lat="43.827905" lon="11.152955"><ele>38.0</ele><time>2026-04-30T14:56:31.338Z</time></trkpt><trkpt lat="43.8281167" lon="11.153095"><ele>38.5</ele><time>2026-04-30T14:56:32.337Z</time></trkpt><trkpt lat="43.82832" lon="11.1532367"><ele>39.0</ele><time>2026-04-30T14:56:33.338Z</time></trkpt><trkpt lat="43.8285233" lon="11.1533817"><ele>39.333333333333336</ele><time>2026-04-30T14:56:34.338Z</time></trkpt><trkpt lat="43.8287133" lon="11.1535283"><ele>39.66666666666667</ele><time>2026-04-30T14:56:35.338Z</time></trkpt><trkpt lat="43.8289" lon="11.1536817"><ele>40.0</ele><time>2026-04-30T14:56:36.338Z</time></trkpt><trkpt lat="43.8290833" lon="11.1538383"><ele>40.0</ele><time>2026-04-30T14:56:37.338Z</time></trkpt><trkpt lat="43.8292717" lon="11.1539983"><ele>40.0</ele><time>2026-04-30T14:56:38.338Z</time></trkpt><trkpt lat="43.8294567" lon="11.1541617"><ele>40.0</ele><time>2026-04-30T14:56:39.337Z</time></trkpt><trkpt lat="43.829645" lon="11.15432"><ele>39.66666666666667</ele><time>2026-04-30T14:56:40.337Z</time></trkpt><trkpt lat="43.8298267" lon="11.1544767"><ele>39.333333333333336</ele><time>2026-04-30T14:56:41.338Z</time></trkpt><trkpt lat="43.8300017" lon="11.15463"><ele>39.0</ele><time>2026-04-30T14:56:42.337Z</time></trkpt><trkpt lat="43.8301767" lon="11.1547833"><ele>39.0</ele><time>2026-04-30T14:56:43.338Z</time></trkpt><trkpt lat="43.8303417" lon="11.1549283"><ele>39.0</ele><time>2026-04-30T14:56:44.337Z</time></trkpt><trkpt lat="43.830505" lon="11.15507"><ele>39.0</ele><time>2026-04-30T14:56:45.337Z</time></trkpt><trkpt lat="43.8306683" lon="11.1552167"><ele>39.0</ele><time>2026-04-30T14:56:46.338Z</time></trkpt><trkpt lat="43.830825" lon="11.15535"><ele>39.0</ele><time>2026-04-30T14:56:47.338Z</time></trkpt><trkpt lat="43.83098" lon="11.155475"><ele>39.0</ele><time>2026-04-30T14:56:48.337Z</time></trkpt><trkpt lat="43.8311267" lon="11.1556033"><ele>39.666666666666664</ele><time>2026-04-30T14:56:49.338Z</time></trkpt><trkpt lat="43.8312667" lon="11.155725"><ele>40.33333333333333</ele><time>2026-04-30T14:56:50.337Z</time></trkpt><trkpt lat="43.831405" lon="11.1558417"><ele>41.0</ele><time>2026-04-30T14:56:51.338Z</time></trkpt><trkpt lat="43.8315567" lon="11.1559733"><ele>41.0</ele><time>2026-04-30T14:56:52.338Z</time></trkpt><trkpt lat="43.8317133" lon="11.1561033"><ele>41.0</ele><time>2026-04-30T14:56:53.337Z</time></trkpt><trkpt lat="43.8318667" lon="11.15623"><ele>41.0</ele><time>2026-04-30T14:56:54.338Z</time></trkpt><trkpt lat="43.8320283" lon="11.1563683"><ele>41.0</ele><time>2026-04-30T14:56:55.338Z</time></trkpt><trkpt lat="43.8321867" lon="11.1564967"><ele>41.0</ele><time>2026-04-30T14:56:56.338Z</time></trkpt><trkpt lat="43.8323433" lon="11.1566383"><ele>41.0</ele><time>2026-04-30T14:56:57.338Z</time></trkpt><trkpt lat="43.8325017" lon="11.1567767"><ele>39.666666666666664</ele><time>2026-04-30T14:56:58.338Z</time></trkpt><trkpt lat="43.8326533" lon="11.15692"><ele>38.333333333333336</ele><time>2026-04-30T14:56:59.338Z</time></trkpt><trkpt lat="43.8328117" lon="11.1570567"><ele>37.0</ele><time>2026-04-30T14:57:00.337Z</time></trkpt><trkpt lat="43.8329717" lon="11.1571867"><ele>37.0</ele><time>2026-04-30T14:57:01.338Z</time></trkpt><trkpt lat="43.8331267" lon="11.1573167"><ele>37.0</ele><time>2026-04-30T14:57:02.338Z</time></trkpt><trkpt lat="43.8332817" lon="11.15745"><ele>37.0</ele><time>2026-04-30T14:57:03.338Z</time></trkpt><trkpt lat="43.833435" lon="11.1575867"><ele>37.66666666666667</ele><time>2026-04-30T14:57:04.338Z</time></trkpt><trkpt lat="43.833585" lon="11.15771"><ele>38.333333333333336</ele><time>2026-04-30T14:57:05.338Z</time></trkpt><trkpt lat="43.833755" lon="11.1578517"><ele>39.0</ele><time>2026-04-30T14:57:06.337Z</time></trkpt><trkpt lat="43.8339333" lon="11.158005"><ele>39.0</ele><time>2026-04-30T14:57:07.338Z</time></trkpt><trkpt lat="43.8341167" lon="11.1581683"><ele>39.0</ele><time>2026-04-30T14:57:08.338Z</time></trkpt><trkpt lat="43.8343067" lon="11.1583267"><ele>39.0</ele><time>2026-04-30T14:57:09.338Z</time></trkpt><trkpt lat="43.8345017" lon="11.15849"><ele>38.0</ele><time>2026-04-30T14:57:10.338Z</time></trkpt><trkpt lat="43.8346917" lon="11.1586567"><ele>37.0</ele><time>2026-04-30T14:57:11.337Z</time></trkpt><trkpt lat="43.8348883" lon="11.158825"><ele>37.0</ele><time>2026-04-30T14:57:12.337Z</time></trkpt><trkpt lat="43.8350917" lon="11.1589967"><ele>37.0</ele><time>2026-04-30T14:57:13.337Z</time></trkpt><trkpt lat="43.835285" lon="11.15917"><ele>37.0</ele><time>2026-04-30T14:57:14.338Z</time></trkpt><trkpt lat="43.8354833" lon="11.1593467"><ele>37.0</ele><time>2026-04-30T14:57:15.338Z</time></trkpt><trkpt lat="43.8356833" lon="11.1595217"><ele>37.0</ele><time>2026-04-30T14:57:16.338Z</time></trkpt><trkpt lat="43.8358867" lon="11.1597017"><ele>37.0</ele><time>2026-04-30T14:57:17.338Z</time></trkpt><trkpt lat="43.836085" lon="11.1598733"><ele>39.0</ele><time>2026-04-30T14:57:18.337Z</time></trkpt><trkpt lat="43.8362817" lon="11.16005"><ele>41.0</ele><time>2026-04-30T14:57:19.338Z</time></trkpt><trkpt lat="43.8364783" lon="11.1602117"><ele>41.0</ele><time>2026-04-30T14:57:20.338Z</time></trkpt><trkpt lat="43.8366733" lon="11.1603817"><ele>41.0</ele><time>2026-04-30T14:57:21.338Z</time></trkpt><trkpt lat="43.8368683" lon="11.1605433"><ele>41.5</ele><time>2026-04-30T14:57:22.338Z</time></trkpt><trkpt lat="43.83706" lon="11.16071"><ele>42.0</ele><time>2026-04-30T14:57:23.338Z</time></trkpt><trkpt lat="43.8372517" lon="11.1608717"><ele>42.0</ele><time>2026-04-30T14:57:24.338Z</time></trkpt><trkpt lat="43.8374383" lon="11.1610317"><ele>42.0</ele><time>2026-04-30T14:57:25.338Z</time></trkpt><trkpt lat="43.8376283" lon="11.1611967"><ele>42.0</ele><time>2026-04-30T14:57:26.338Z</time></trkpt><trkpt lat="43.8378267" lon="11.1613733"><ele>42.0</ele><time>2026-04-30T14:57:27.337Z</time></trkpt><trkpt lat="43.838025" lon="11.161545"><ele>42.0</ele><time>2026-04-30T14:57:28.338Z</time></trkpt><trkpt lat="43.8382217" lon="11.1617183"><ele>42.0</ele><time>2026-04-30T14:57:29.338Z</time></trkpt><trkpt lat="43.83842" lon="11.1618867"><ele>42.0</ele><time>2026-04-30T14:57:30.337Z</time></trkpt><trkpt lat="43.838615" lon="11.162065"><ele>42.0</ele><time>2026-04-30T14:57:31.338Z</time></trkpt><trkpt lat="43.8388183" lon="11.1622283"><ele>42.0</ele><time>2026-04-30T14:57:32.338Z</time></trkpt><trkpt lat="43.8390267" lon="11.1623983"><ele>41.5</ele><time>2026-04-30T14:57:33.338Z</time></trkpt><trkpt lat="43.83922" lon="11.1625633"><ele>41.0</ele><time>2026-04-30T14:57:34.338Z</time></trkpt><trkpt lat="43.8394167" lon="11.1627317"><ele>41.0</ele><time>2026-04-30T14:57:35.338Z</time></trkpt><trkpt lat="43.8396183" lon="11.1629017"><ele>41.0</ele><time>2026-04-30T14:57:36.337Z</time></trkpt><trkpt lat="43.8398217" lon="11.1630783"><ele>41.0</ele><time>2026-04-30T14:57:37.338Z</time></trkpt><trkpt lat="43.8400233" lon="11.1632433"><ele>41.0</ele><time>2026-04-30T14:57:38.338Z</time></trkpt><trkpt lat="43.8402233" lon="11.1634183"><ele>41.0</ele><time>2026-04-30T14:57:39.338Z</time></trkpt><trkpt lat="43.8404267" lon="11.16359"><ele>41.0</ele><time>2026-04-30T14:57:40.338Z</time></trkpt><trkpt lat="43.8406317" lon="11.1637583"><ele>41.0</ele><time>2026-04-30T14:57:41.338Z</time></trkpt><trkpt lat="43.8408317" lon="11.1639283"><ele>41.0</ele><time>2026-04-30T14:57:42.338Z</time></trkpt><trkpt lat="43.84103" lon="11.1641133"><ele>43.0</ele><time>2026-04-30T14:57:43.337Z</time></trkpt><trkpt lat="43.8412383" lon="11.1642967"><ele>45.0</ele><time>2026-04-30T14:57:44.338Z</time></trkpt><trkpt lat="43.841445" lon="11.1644767"><ele>45.0</ele><time>2026-04-30T14:57:45.338Z</time></trkpt><trkpt lat="43.8416617" lon="11.1646517"><ele>45.0</ele><time>2026-04-30T14:57:46.338Z</time></trkpt><trkpt lat="43.841875" lon="11.16483"><ele>45.0</ele><time>2026-04-30T14:57:47.338Z</time></trkpt><trkpt lat="43.8420833" lon="11.1650117"><ele>45.0</ele><time>2026-04-30T14:57:48.338Z</time></trkpt><trkpt lat="43.84229" lon="11.16519"><ele>45.0</ele><time>2026-04-30T14:57:49.338Z</time></trkpt><trkpt lat="43.8424933" lon="11.1653683"><ele>45.0</ele><time>2026-04-30T14:57:50.338Z</time></trkpt><trkpt lat="43.8426967" lon="11.165545"><ele>46.5</ele><time>2026-04-30T14:57:51.338Z</time></trkpt><trkpt lat="43.8429117" lon="11.1657233"><ele>48.0</ele><time>2026-04-30T14:57:52.338Z</time></trkpt><trkpt lat="43.8431217" lon="11.1658967"><ele>48.0</ele><time>2026-04-30T14:57:53.338Z</time></trkpt><trkpt lat="43.843335" lon="11.1660767"><ele>48.0</ele><time>2026-04-30T14:57:54.337Z</time></trkpt><trkpt lat="43.843545" lon="11.1662633"><ele>48.0</ele><time>2026-04-30T14:57:55.338Z</time></trkpt><trkpt lat="43.8437483" lon="11.166445"><ele>48.0</ele><time>2026-04-30T14:57:56.338Z</time></trkpt><trkpt lat="43.8439533" lon="11.1666217"><ele>48.5</ele><time>2026-04-30T14:57:57.338Z</time></trkpt><trkpt lat="43.8441567" lon="11.1667983"><ele>49.0</ele><time>2026-04-30T14:57:58.338Z</time></trkpt><trkpt lat="43.844365" lon="11.1669717"><ele>49.5</ele><time>2026-04-30T14:57:59.338Z</time></trkpt><trkpt lat="43.844575" lon="11.167145"><ele>50.0</ele><time>2026-04-30T14:58:00.338Z</time></trkpt><trkpt lat="43.8447817" lon="11.16733"><ele>50.5</ele><time>2026-04-30T14:58:01.338Z</time></trkpt><trkpt lat="43.8449817" lon="11.1675033"><ele>51.0</ele><time>2026-04-30T14:58:02.337Z</time></trkpt><trkpt lat="43.8451783" lon="11.16767"><ele>51.0</ele><time>2026-04-30T14:58:03.338Z</time></trkpt><trkpt lat="43.845385" lon="11.167855"><ele>51.0</ele><time>2026-04-30T14:58:04.338Z</time></trkpt><trkpt lat="43.8455933" lon="11.1680467"><ele>51.5</ele><time>2026-04-30T14:58:05.338Z</time></trkpt><trkpt lat="43.84579" lon="11.1682283"><ele>52.0</ele><time>2026-04-30T14:58:06.338Z</time></trkpt><trkpt lat="43.845995" lon="11.1684117"><ele>52.0</ele><time>2026-04-30T14:58:07.338Z</time></trkpt><trkpt lat="43.8461983" lon="11.16859"><ele>52.0</ele><time>2026-04-30T14:58:08.337Z</time></trkpt><trkpt lat="43.846395" lon="11.168765"><ele>52.0</ele><time>2026-04-30T14:58:09.338Z</time></trkpt><trkpt lat="43.8466" lon="11.1689433"><ele>52.0</ele><time>2026-04-30T14:58:10.338Z</time></trkpt><trkpt lat="43.8468017" lon="11.1691167"><ele>53.0</ele><time>2026-04-30T14:58:11.337Z</time></trkpt><trkpt lat="43.8470017" lon="11.1692917"><ele>54.0</ele><time>2026-04-30T14:58:12.337Z</time></trkpt><trkpt lat="43.8472083" lon="11.16946"><ele>54.0</ele><time>2026-04-30T14:58:13.337Z</time></trkpt><trkpt lat="43.8474083" lon="11.16963"><ele>54.0</ele><time>2026-04-30T14:58:14.338Z</time></trkpt><trkpt lat="43.8475983" lon="11.1698"><ele>55.33333333333333</ele><time>2026-04-30T14:58:15.338Z</time></trkpt><trkpt lat="43.8477883" lon="11.1699633"><ele>56.666666666666664</ele><time>2026-04-30T14:58:16.337Z</time></trkpt><trkpt lat="43.8479733" lon="11.1701283"><ele>58.0</ele><time>2026-04-30T14:58:17.338Z</time></trkpt><trkpt lat="43.8481683" lon="11.1702817"><ele>58.0</ele><time>2026-04-30T14:58:18.338Z</time></trkpt><trkpt lat="43.84835" lon="11.1704433"><ele>58.0</ele><time>2026-04-30T14:58:19.338Z</time></trkpt><trkpt lat="43.8485267" lon="11.1706033"><ele>58.0</ele><time>2026-04-30T14:58:20.337Z</time></trkpt><trkpt lat="43.848705" lon="11.1707733"><ele>57.666666666666664</ele><time>2026-04-30T14:58:21.337Z</time></trkpt><trkpt lat="43.8488817" lon="11.1709417"><ele>57.33333333333333</ele><time>2026-04-30T14:58:22.338Z</time></trkpt><trkpt lat="43.8490567" lon="11.1710933"><ele>57.0</ele><time>2026-04-30T14:58:23.338Z</time></trkpt><trkpt lat="43.8492167" lon="11.1712417"><ele>57.0</ele><time>2026-04-30T14:58:24.337Z</time></trkpt><trkpt lat="43.8493683" lon="11.1713817"><ele>57.0</ele><time>2026-04-30T14:58:25.337Z</time></trkpt><trkpt lat="43.8495183" lon="11.171515"><ele>57.0</ele><time>2026-04-30T14:58:26.338Z</time></trkpt><trkpt lat="43.8496533" lon="11.171635"><ele>57.0</ele><time>2026-04-30T14:58:27.338Z</time></trkpt><trkpt lat="43.8497983" lon="11.1717567"><ele>57.0</ele><time>2026-04-30T14:58:28.338Z</time></trkpt><trkpt lat="43.8499433" lon="11.17188"><ele>57.0</ele><time>2026-04-30T14:58:29.337Z</time></trkpt><trkpt lat="43.8500833" lon="11.1720117"><ele>57.33333333333333</ele><time>2026-04-30T14:58:30.338Z</time></trkpt><trkpt lat="43.8502283" lon="11.1721417"><ele>57.666666666666664</ele><time>2026-04-30T14:58:31.338Z</time></trkpt><trkpt lat="43.850365" lon="11.1722767"><ele>58.0</ele><time>2026-04-30T14:58:32.337Z</time></trkpt><trkpt lat="43.8504917" lon="11.17242"><ele>58.0</ele><time>2026-04-30T14:58:33.338Z</time></trkpt><trkpt lat="43.8506" lon="11.1725883"><ele>58.0</ele><time>2026-04-30T14:58:34.338Z</time></trkpt><trkpt lat="43.850685" lon="11.172775"><ele>58.0</ele><time>2026-04-30T14:58:35.337Z</time></trkpt><trkpt lat="43.8507433" lon="11.1729783"><ele>58.0</ele><time>2026-04-30T14:58:36.337Z</time></trkpt><trkpt lat="43.8507817" lon="11.1731883"><ele>58.0</ele><time>2026-04-30T14:58:37.338Z</time></trkpt><trkpt lat="43.8507917" lon="11.1733933"><ele>58.0</ele><time>2026-04-30T14:58:38.338Z</time></trkpt><trkpt lat="43.8507783" lon="11.1735833"><ele>58.0</ele><time>2026-04-30T14:58:39.337Z</time></trkpt><trkpt lat="43.8507583" lon="11.1737667"><ele>58.25</ele><time>2026-04-30T14:58:40.338Z</time></trkpt><trkpt lat="43.85074" lon="11.173955"><ele>58.5</ele><time>2026-04-30T14:58:41.338Z</time></trkpt><trkpt lat="43.850735" lon="11.174155"><ele>58.75</ele><time>2026-04-30T14:58:42.338Z</time></trkpt><trkpt lat="43.8507567" lon="11.1743417"><ele>59.0</ele><time>2026-04-30T14:58:43.338Z</time></trkpt><trkpt lat="43.8508167" lon="11.17451"><ele>59.5</ele><time>2026-04-30T14:58:44.338Z</time></trkpt><trkpt lat="43.8508933" lon="11.1746617"><ele>60.0</ele><time>2026-04-30T14:58:45.338Z</time></trkpt><trkpt lat="43.8509933" lon="11.1747733"><ele>60.5</ele><time>2026-04-30T14:58:46.338Z</time></trkpt><trkpt lat="43.8511267" lon="11.1748317"><ele>61.0</ele><time>2026-04-30T14:58:47.337Z</time></trkpt><trkpt lat="43.8512717" lon="11.1748433"><ele>61.5</ele><time>2026-04-30T14:58:48.338Z</time></trkpt><trkpt lat="43.8514067" lon="11.1748"><ele>62.0</ele><time>2026-04-30T14:58:49.338Z</time></trkpt><trkpt lat="43.8515183" lon="11.1747283"><ele>62.5</ele><time>2026-04-30T14:58:50.337Z</time></trkpt><trkpt lat="43.851615" lon="11.1746"><ele>63.0</ele><time>2026-04-30T14:58:51.338Z</time></trkpt><trkpt lat="43.8517" lon="11.1744483"><ele>63.25</ele><time>2026-04-30T14:58:52.338Z</time></trkpt><trkpt lat="43.8517933" lon="11.1742917"><ele>63.5</ele><time>2026-04-30T14:58:53.337Z</time></trkpt><trkpt lat="43.8518533" lon="11.1741233"><ele>63.75</ele><time>2026-04-30T14:58:54.337Z</time></trkpt><trkpt lat="43.8519217" lon="11.1739617"><ele>64.0</ele><time>2026-04-30T14:58:55.338Z</time></trkpt><trkpt lat="43.8519883" lon="11.1737917"><ele>64.0</ele><time>2026-04-30T14:58:56.338Z</time></trkpt><trkpt lat="43.8520517" lon="11.1736367"><ele>64.0</ele><time>2026-04-30T14:58:57.337Z</time></trkpt><trkpt lat="43.8521183" lon="11.1734917"><ele>64.0</ele><time>2026-04-30T14:58:58.338Z</time></trkpt><trkpt lat="43.8521783" lon="11.1733517"><ele>64.0</ele><time>2026-04-30T14:58:59.338Z</time></trkpt><trkpt lat="43.85224" lon="11.1732083"><ele>64.0</ele><time>2026-04-30T14:59:00.338Z</time></trkpt><trkpt lat="43.8523" lon="11.1730617"><ele>64.0</ele><time>2026-04-30T14:59:01.337Z</time></trkpt><trkpt lat="43.8523617" lon="11.17292"><ele>64.0</ele><time>2026-04-30T14:59:02.338Z</time></trkpt><trkpt lat="43.852425" lon="11.1727767"><ele>64.0</ele><time>2026-04-30T14:59:03.338Z</time></trkpt><trkpt lat="43.852475" lon="11.1726383"><ele>64.0</ele><time>2026-04-30T14:59:04.338Z</time></trkpt><trkpt lat="43.8525167" lon="11.1724867"><ele>64.0</ele><time>2026-04-30T14:59:05.338Z</time></trkpt><trkpt lat="43.8525533" lon="11.1723217"><ele>64.0</ele><time>2026-04-30T14:59:06.338Z</time></trkpt><trkpt lat="43.8525783" lon="11.172145"><ele>64.0</ele><time>2026-04-30T14:59:07.338Z</time></trkpt><trkpt lat="43.8525883" lon="11.1719667"><ele>63.5</ele><time>2026-04-30T14:59:08.338Z</time></trkpt><trkpt lat="43.852585" lon="11.1717933"><ele>63.0</ele><time>2026-04-30T14:59:09.338Z</time></trkpt><trkpt lat="43.8525833" lon="11.1716117"><ele>62.5</ele><time>2026-04-30T14:59:10.338Z</time></trkpt><trkpt lat="43.8525617" lon="11.171425"><ele>62.0</ele><time>2026-04-30T14:59:11.338Z</time></trkpt><trkpt lat="43.8525383" lon="11.171235"><ele>61.5</ele><time>2026-04-30T14:59:12.338Z</time></trkpt><trkpt lat="43.852515" lon="11.1710533"><ele>61.0</ele><time>2026-04-30T14:59:13.338Z</time></trkpt><trkpt lat="43.8524933" lon="11.17088"><ele>60.5</ele><time>2026-04-30T14:59:14.338Z</time></trkpt><trkpt lat="43.8524733" lon="11.1706967"><ele>60.0</ele><time>2026-04-30T14:59:15.338Z</time></trkpt><trkpt lat="43.85246" lon="11.1705217"><ele>59.5</ele><time>2026-04-30T14:59:16.338Z</time></trkpt><trkpt lat="43.85245" lon="11.1703467"><ele>59.0</ele><time>2026-04-30T14:59:17.337Z</time></trkpt><trkpt lat="43.85245" lon="11.17018"><ele>58.5</ele><time>2026-04-30T14:59:18.338Z</time></trkpt><trkpt lat="43.8524433" lon="11.1700083"><ele>58.0</ele><time>2026-04-30T14:59:19.338Z</time></trkpt><trkpt lat="43.85243" lon="11.1698333"><ele>58.0</ele><time>2026-04-30T14:59:20.338Z</time></trkpt><trkpt lat="43.8524167" lon="11.1696767"><ele>58.0</ele><time>2026-04-30T14:59:21.338Z</time></trkpt><trkpt lat="43.8524017" lon="11.16952"><ele>58.0</ele><time>2026-04-30T14:59:22.338Z</time></trkpt><trkpt lat="43.8523867" lon="11.1693683"><ele>58.0</ele><time>2026-04-30T14:59:23.338Z</time></trkpt><trkpt lat="43.85236" lon="11.16923"><ele>58.0</ele><time>2026-04-30T14:59:24.338Z</time></trkpt><trkpt lat="43.85234" lon="11.1691067"><ele>57.8</ele><time>2026-04-30T14:59:25.338Z</time></trkpt><trkpt lat="43.85232" lon="11.1689917"><ele>57.599999999999994</ele><time>2026-04-30T14:59:26.337Z</time></trkpt><trkpt lat="43.8522883" lon="11.1688783"><ele>57.400000000000006</ele><time>2026-04-30T14:59:27.338Z</time></trkpt><trkpt lat="43.8522517" lon="11.1687533"><ele>57.2</ele><time>2026-04-30T14:59:28.338Z</time></trkpt><trkpt lat="43.85221" lon="11.16861"><ele>57.0</ele><time>2026-04-30T14:59:29.338Z</time></trkpt><trkpt lat="43.8521633" lon="11.16848"><ele>57.0</ele><time>2026-04-30T14:59:30.337Z</time></trkpt><trkpt lat="43.852115" lon="11.168335"><ele>57.0</ele><time>2026-04-30T14:59:31.338Z</time></trkpt><trkpt lat="43.8520717" lon="11.168195"><ele>57.0</ele><time>2026-04-30T14:59:32.338Z</time></trkpt><trkpt lat="43.8520317" lon="11.16805"><ele>57.0</ele><time>2026-04-30T14:59:33.338Z</time></trkpt><trkpt lat="43.851995" lon="11.167895"><ele>57.0</ele><time>2026-04-30T14:59:34.338Z</time></trkpt><trkpt lat="43.8519483" lon="11.1677417"><ele>57.0</ele><time>2026-04-30T14:59:35.337Z</time></trkpt><trkpt lat="43.8519133" lon="11.1675783"><ele>57.0</ele><time>2026-04-30T14:59:36.338Z</time></trkpt><trkpt lat="43.851875" lon="11.1674083"><ele>57.0</ele><time>2026-04-30T14:59:37.337Z</time></trkpt><trkpt lat="43.8518333" lon="11.16725"><ele>57.0</ele><time>2026-04-30T14:59:38.338Z</time></trkpt><trkpt lat="43.851795" lon="11.16709"><ele>57.0</ele><time>2026-04-30T14:59:39.337Z</time></trkpt><trkpt lat="43.85175" lon="11.1669033"><ele>57.0</ele><time>2026-04-30T14:59:40.338Z</time></trkpt><trkpt lat="43.8517183" lon="11.1667433"><ele>57.0</ele><time>2026-04-30T14:59:41.338Z</time></trkpt><trkpt lat="43.8516833" lon="11.1665867"><ele>56.6</ele><time>2026-04-30T14:59:42.338Z</time></trkpt><trkpt lat="43.8516417" lon="11.1664467"><ele>56.2</ele><time>2026-04-30T14:59:43.338Z</time></trkpt><trkpt lat="43.85161" lon="11.16631"><ele>55.8</ele><time>2026-04-30T14:59:44.338Z</time></trkpt><trkpt lat="43.8515883" lon="11.1661833"><ele>55.4</ele><time>2026-04-30T14:59:45.338Z</time></trkpt><trkpt lat="43.851585" lon="11.1660683"><ele>55.0</ele><time>2026-04-30T14:59:46.338Z</time></trkpt><trkpt lat="43.851585" lon="11.16597"><ele>54.99999999999999</ele><time>2026-04-30T14:59:47.337Z</time></trkpt><trkpt lat="43.8516017" lon="11.1658833"><ele>55.0</ele><time>2026-04-30T14:59:48.338Z</time></trkpt><trkpt lat="43.8516233" lon="11.1657783"><ele>55.0</ele><time>2026-04-30T14:59:49.338Z</time></trkpt><trkpt lat="43.8516567" lon="11.1656633"><ele>55.0</ele><time>2026-04-30T14:59:50.338Z</time></trkpt><trkpt lat="43.85169" lon="11.165545"><ele>54.99999999999999</ele><time>2026-04-30T14:59:51.337Z</time></trkpt><trkpt lat="43.8517317" lon="11.16543"><ele>55.0</ele><time>2026-04-30T14:59:52.338Z</time></trkpt><trkpt lat="43.8517817" lon="11.1653333"><ele>54.83333333333333</ele><time>2026-04-30T14:59:53.337Z</time></trkpt><trkpt lat="43.8518333" lon="11.1652567"><ele>54.666666666666664</ele><time>2026-04-30T14:59:54.338Z</time></trkpt><trkpt lat="43.8518933" lon="11.1652083"><ele>54.5</ele><time>2026-04-30T14:59:55.338Z</time></trkpt><trkpt lat="43.8519683" lon="11.1652067"><ele>54.33333333333333</ele><time>2026-04-30T14:59:56.338Z</time></trkpt><trkpt lat="43.8520467" lon="11.1652417"><ele>54.166666666666664</ele><time>2026-04-30T14:59:57.338Z</time></trkpt><trkpt lat="43.85212" lon="11.165325"><ele>54.0</ele><time>2026-04-30T14:59:58.338Z</time></trkpt><trkpt lat="43.8522033" lon="11.1654233"><ele>54.0</ele><time>2026-04-30T14:59:59.337Z</time></trkpt><trkpt lat="43.8522917" lon="11.1655117"><ele>54.00000000000001</ele><time>2026-04-30T15:00:00.337Z</time></trkpt><trkpt lat="43.852375" lon="11.1655983"><ele>54.00000000000001</ele><time>2026-04-30T15:00:01.337Z</time></trkpt><trkpt lat="43.8524667" lon="11.1656733"><ele>54.0</ele><time>2026-04-30T15:00:02.338Z</time></trkpt><trkpt lat="43.8525583" lon="11.16575"><ele>54.0</ele><time>2026-04-30T15:00:03.338Z</time></trkpt><trkpt lat="43.8526567" lon="11.1658283"><ele>54.25</ele><time>2026-04-30T15:00:04.338Z</time></trkpt><trkpt lat="43.852755" lon="11.1659067"><ele>54.5</ele><time>2026-04-30T15:00:05.338Z</time></trkpt><trkpt lat="43.85285" lon="11.165995"><ele>54.75</ele><time>2026-04-30T15:00:06.338Z</time></trkpt><trkpt lat="43.8529483" lon="11.1660767"><ele>55.0</ele><time>2026-04-30T15:00:07.337Z</time></trkpt><trkpt lat="43.8530517" lon="11.1661667"><ele>55.0</ele><time>2026-04-30T15:00:08.338Z</time></trkpt><trkpt lat="43.8531517" lon="11.166275"><ele>55.0</ele><time>2026-04-30T15:00:09.338Z</time></trkpt><trkpt lat="43.8532517" lon="11.16637"><ele>55.0</ele><time>2026-04-30T15:00:10.338Z</time></trkpt><trkpt lat="43.8533533" lon="11.16646"><ele>55.0</ele><time>2026-04-30T15:00:11.338Z</time></trkpt><trkpt lat="43.853455" lon="11.166555"><ele>55.5</ele><time>2026-04-30T15:00:12.337Z</time></trkpt><trkpt lat="43.853565" lon="11.16665"><ele>56.0</ele><time>2026-04-30T15:00:13.338Z</time></trkpt><trkpt lat="43.853675" lon="11.1667433"><ele>56.5</ele><time>2026-04-30T15:00:14.337Z</time></trkpt><trkpt lat="43.853785" lon="11.1668317"><ele>57.0</ele><time>2026-04-30T15:00:15.338Z</time></trkpt><trkpt lat="43.8538817" lon="11.1669183"><ele>57.0</ele><time>2026-04-30T15:00:16.337Z</time></trkpt><trkpt lat="43.8539633" lon="11.1669833"><ele>57.0</ele><time>2026-04-30T15:00:17.338Z</time></trkpt><trkpt lat="43.85404" lon="11.1670517"><ele>57.0</ele><time>2026-04-30T15:00:18.338Z</time></trkpt><trkpt lat="43.8541133" lon="11.16713"><ele>57.0</ele><time>2026-04-30T15:00:19.338Z</time></trkpt><trkpt lat="43.8541833" lon="11.1671967"><ele>57.0</ele><time>2026-04-30T15:00:20.337Z</time></trkpt><trkpt lat="43.8542417" lon="11.1672733"><ele>57.0</ele><time>2026-04-30T15:00:21.338Z</time></trkpt><trkpt lat="43.8542883" lon="11.1673333"><ele>57.400000000000006</ele><time>2026-04-30T15:00:22.338Z</time></trkpt><trkpt lat="43.8542933" lon="11.1674683"><ele>57.800000000000004</ele><time>2026-04-30T15:00:24.338Z</time></trkpt><trkpt lat="43.8542267" lon="11.1676267"><ele>58.2</ele><time>2026-04-30T15:00:26.338Z</time></trkpt><trkpt lat="43.8541867" lon="11.1677417"><ele>58.6</ele><time>2026-04-30T15:00:27.338Z</time></trkpt><trkpt lat="43.8541267" lon="11.1678817"><ele>59.0</ele><time>2026-04-30T15:00:28.338Z</time></trkpt><trkpt lat="43.8540383" lon="11.1680267"><ele>59.0</ele><time>2026-04-30T15:00:29.338Z</time></trkpt><trkpt lat="43.853945" lon="11.168185"><ele>59.0</ele><time>2026-04-30T15:00:30.337Z</time></trkpt><trkpt lat="43.8538567" lon="11.1683483"><ele>59.0</ele><time>2026-04-30T15:00:31.338Z</time></trkpt><trkpt lat="43.8537867" lon="11.16849"><ele>59.0</ele><time>2026-04-30T15:00:32.337Z</time></trkpt><trkpt lat="43.8537117" lon="11.1686333"><ele>59.5</ele><time>2026-04-30T15:00:33.338Z</time></trkpt><trkpt lat="43.853635" lon="11.168785"><ele>60.0</ele><time>2026-04-30T15:00:34.337Z</time></trkpt><trkpt lat="43.8535617" lon="11.1689417"><ele>60.5</ele><time>2026-04-30T15:00:35.338Z</time></trkpt><trkpt lat="43.8534967" lon="11.1690917"><ele>61.0</ele><time>2026-04-30T15:00:36.338Z</time></trkpt><trkpt lat="43.8534367" lon="11.1692417"><ele>61.0</ele><time>2026-04-30T15:00:37.338Z</time></trkpt><trkpt lat="43.8533683" lon="11.1693867"><ele>60.99999999999999</ele><time>2026-04-30T15:00:38.338Z</time></trkpt><trkpt lat="43.8533067" lon="11.169525"><ele>60.99999999999999</ele><time>2026-04-30T15:00:39.338Z</time></trkpt><trkpt lat="43.8532533" lon="11.1696433"><ele>61.0</ele><time>2026-04-30T15:00:40.337Z</time></trkpt><trkpt lat="43.8531983" lon="11.1697383"><ele>61.0</ele><time>2026-04-30T15:00:41.338Z</time></trkpt><trkpt lat="43.8531667" lon="11.169835"><ele>60.8</ele><time>2026-04-30T15:00:42.338Z</time></trkpt><trkpt lat="43.853125" lon="11.16995"><ele>60.599999999999994</ele><time>2026-04-30T15:00:43.338Z</time></trkpt><trkpt lat="43.85309" lon="11.1700683"><ele>60.4</ele><time>2026-04-30T15:00:44.338Z</time></trkpt><trkpt lat="43.8530717" lon="11.1701933"><ele>60.2</ele><time>2026-04-30T15:00:45.337Z</time></trkpt><trkpt lat="43.85307" lon="11.17033"><ele>60.0</ele><time>2026-04-30T15:00:46.338Z</time></trkpt><trkpt lat="43.8530817" lon="11.1704717"><ele>60.0</ele><time>2026-04-30T15:00:47.337Z</time></trkpt><trkpt lat="43.8531033" lon="11.1706017"><ele>60.0</ele><time>2026-04-30T15:00:48.337Z</time></trkpt><trkpt lat="43.85313" lon="11.1707183"><ele>60.0</ele><time>2026-04-30T15:00:49.338Z</time></trkpt><trkpt lat="43.8531467" lon="11.1708167"><ele>60.0</ele><time>2026-04-30T15:00:50.338Z</time></trkpt><trkpt lat="43.85317" lon="11.1709033"><ele>60.0</ele><time>2026-04-30T15:00:51.337Z</time></trkpt><trkpt lat="43.8532033" lon="11.1709883"><ele>60.0</ele><time>2026-04-30T15:00:52.338Z</time></trkpt><trkpt lat="43.853245" lon="11.17107"><ele>60.142857142857146</ele><time>2026-04-30T15:00:53.338Z</time></trkpt><trkpt lat="43.853295" lon="11.1711483"><ele>60.28571428571428</ele><time>2026-04-30T15:00:54.338Z</time></trkpt><trkpt lat="43.8533467" lon="11.1712217"><ele>60.42857142857142</ele><time>2026-04-30T15:00:55.338Z</time></trkpt><trkpt lat="43.85341" lon="11.1712833"><ele>60.57142857142857</ele><time>2026-04-30T15:00:56.338Z</time></trkpt><trkpt lat="43.853465" lon="11.1713433"><ele>60.71428571428571</ele><time>2026-04-30T15:00:57.338Z</time></trkpt><trkpt lat="43.8535133" lon="11.171415"><ele>60.85714285714285</ele><time>2026-04-30T15:00:58.338Z</time></trkpt><trkpt lat="43.8535633" lon="11.1714867"><ele>60.99999999999999</ele><time>2026-04-30T15:00:59.338Z</time></trkpt><trkpt lat="43.853605" lon="11.171565"><ele>61.199999999999996</ele><time>2026-04-30T15:01:00.338Z</time></trkpt><trkpt lat="43.853665" lon="11.171645"><ele>61.39999999999999</ele><time>2026-04-30T15:01:01.337Z</time></trkpt><trkpt lat="43.8537417" lon="11.1716917"><ele>61.6</ele><time>2026-04-30T15:01:02.338Z</time></trkpt><trkpt lat="43.8538333" lon="11.1717233"><ele>61.8</ele><time>2026-04-30T15:01:03.337Z</time></trkpt><trkpt lat="43.853935" lon="11.1717483"><ele>62.0</ele><time>2026-04-30T15:01:04.338Z</time></trkpt><trkpt lat="43.854045" lon="11.1717833"><ele>62.0</ele><time>2026-04-30T15:01:05.338Z</time></trkpt><trkpt lat="43.85417" lon="11.1718283"><ele>62.0</ele><time>2026-04-30T15:01:06.338Z</time></trkpt><trkpt lat="43.854295" lon="11.1718783"><ele>62.0</ele><time>2026-04-30T15:01:07.338Z</time></trkpt><trkpt lat="43.85442" lon="11.1719217"><ele>62.0</ele><time>2026-04-30T15:01:08.338Z</time></trkpt><trkpt lat="43.8545367" lon="11.1719667"><ele>62.5</ele><time>2026-04-30T15:01:09.338Z</time></trkpt><trkpt lat="43.8546433" lon="11.172035"><ele>63.0</ele><time>2026-04-30T15:01:10.338Z</time></trkpt><trkpt lat="43.8547617" lon="11.1721183"><ele>63.5</ele><time>2026-04-30T15:01:11.337Z</time></trkpt><trkpt lat="43.8548783" lon="11.1722133"><ele>64.0</ele><time>2026-04-30T15:01:12.338Z</time></trkpt><trkpt lat="43.855005" lon="11.1723317"><ele>64.33333333333333</ele><time>2026-04-30T15:01:13.337Z</time></trkpt><trkpt lat="43.855135" lon="11.17246"><ele>64.66666666666667</ele><time>2026-04-30T15:01:14.338Z</time></trkpt><trkpt lat="43.8552617" lon="11.1726167"><ele>65.0</ele><time>2026-04-30T15:01:15.337Z</time></trkpt><trkpt lat="43.8553967" lon="11.172785"><ele>65.0</ele><time>2026-04-30T15:01:16.337Z</time></trkpt><trkpt lat="43.8555217" lon="11.1729483"><ele>65.0</ele><time>2026-04-30T15:01:17.338Z</time></trkpt><trkpt lat="43.8556467" lon="11.17311"><ele>65.0</ele><time>2026-04-30T15:01:18.337Z</time></trkpt><trkpt lat="43.8557783" lon="11.1732667"><ele>65.66666666666667</ele><time>2026-04-30T15:01:19.338Z</time></trkpt><trkpt lat="43.8559183" lon="11.1734267"><ele>66.33333333333333</ele><time>2026-04-30T15:01:20.338Z</time></trkpt><trkpt lat="43.856065" lon="11.1735867"><ele>67.0</ele><time>2026-04-30T15:01:21.338Z</time></trkpt><trkpt lat="43.8562133" lon="11.173745"><ele>67.33333333333333</ele><time>2026-04-30T15:01:22.338Z</time></trkpt><trkpt lat="43.8563617" lon="11.1739"><ele>67.66666666666667</ele><time>2026-04-30T15:01:23.338Z</time></trkpt><trkpt lat="43.8565017" lon="11.1740617"><ele>68.0</ele><time>2026-04-30T15:01:24.338Z</time></trkpt><trkpt lat="43.8566383" lon="11.1742167"><ele>68.0</ele><time>2026-04-30T15:01:25.336Z</time></trkpt><trkpt lat="43.8567767" lon="11.174365"><ele>68.0</ele><time>2026-04-30T15:01:26.337Z</time></trkpt><trkpt lat="43.8569083" lon="11.1745083"><ele>68.0</ele><time>2026-04-30T15:01:27.337Z</time></trkpt><trkpt lat="43.857045" lon="11.1746317"><ele>68.66666666666667</ele><time>2026-04-30T15:01:28.337Z</time></trkpt><trkpt lat="43.8571933" lon="11.174745"><ele>69.33333333333333</ele><time>2026-04-30T15:01:29.337Z</time></trkpt><trkpt lat="43.857335" lon="11.1748217"><ele>70.0</ele><time>2026-04-30T15:01:30.337Z</time></trkpt><trkpt lat="43.8574967" lon="11.1748817"><ele>71.0</ele><time>2026-04-30T15:01:31.337Z</time></trkpt><trkpt lat="43.857655" lon="11.1749467"><ele>72.0</ele><time>2026-04-30T15:01:32.337Z</time></trkpt><trkpt lat="43.857805" lon="11.175025"><ele>73.0</ele><time>2026-04-30T15:01:33.337Z</time></trkpt><trkpt lat="43.85794" lon="11.1751233"><ele>73.0</ele><time>2026-04-30T15:01:34.337Z</time></trkpt><trkpt lat="43.85806" lon="11.1752267"><ele>73.0</ele><time>2026-04-30T15:01:35.337Z</time></trkpt><trkpt lat="43.858155" lon="11.1753333"><ele>73.0</ele><time>2026-04-30T15:01:36.337Z</time></trkpt><trkpt lat="43.8582517" lon="11.1754333"><ele>73.0</ele><time>2026-04-30T15:01:37.337Z</time></trkpt><trkpt lat="43.8583317" lon="11.1755233"><ele>73.0</ele><time>2026-04-30T15:01:38.337Z</time></trkpt><trkpt lat="43.858415" lon="11.175605"><ele>73.0</ele><time>2026-04-30T15:01:39.337Z</time></trkpt><trkpt lat="43.8584883" lon="11.1756833"><ele>73.0</ele><time>2026-04-30T15:01:40.337Z</time></trkpt><trkpt lat="43.8585483" lon="11.1757483"><ele>73.0</ele><time>2026-04-30T15:01:41.337Z</time></trkpt><trkpt lat="43.85863" lon="11.1758583"><ele>73.0</ele><time>2026-04-30T15:01:43.337Z</time></trkpt><trkpt lat="43.8587217" lon="11.1759617"><ele>74.0</ele><time>2026-04-30T15:01:45.336Z</time></trkpt><trkpt lat="43.8588533" lon="11.1759717"><ele>75.0</ele><time>2026-04-30T15:01:47.337Z</time></trkpt><trkpt lat="43.858945" lon="11.1759633"><ele>76.0</ele><time>2026-04-30T15:01:48.337Z</time></trkpt><trkpt lat="43.8590617" lon="11.1759633"><ele>77.0</ele><time>2026-04-30T15:01:49.337Z</time></trkpt><trkpt lat="43.8591817" lon="11.1759683"><ele>77.5</ele><time>2026-04-30T15:01:50.337Z</time></trkpt><trkpt lat="43.8593133" lon="11.1759883"><ele>78.0</ele><time>2026-04-30T15:01:51.337Z</time></trkpt><trkpt lat="43.8594567" lon="11.1760067"><ele>78.5</ele><time>2026-04-30T15:01:52.337Z</time></trkpt><trkpt lat="43.8596067" lon="11.1760183"><ele>79.0</ele><time>2026-04-30T15:01:53.337Z</time></trkpt><trkpt lat="43.8597583" lon="11.1760367"><ele>79.0</ele><time>2026-04-30T15:01:54.337Z</time></trkpt><trkpt lat="43.8599133" lon="11.1760183"><ele>79.0</ele><time>2026-04-30T15:01:55.337Z</time></trkpt><trkpt lat="43.8600567" lon="11.1760017"><ele>79.0</ele><time>2026-04-30T15:01:56.336Z</time></trkpt><trkpt lat="43.860205" lon="11.1759783"><ele>79.0</ele><time>2026-04-30T15:01:57.336Z</time></trkpt><trkpt lat="43.8603367" lon="11.175945"><ele>78.75</ele><time>2026-04-30T15:01:58.337Z</time></trkpt><trkpt lat="43.860455" lon="11.1759183"><ele>78.5</ele><time>2026-04-30T15:01:59.337Z</time></trkpt><trkpt lat="43.8605717" lon="11.1758967"><ele>78.25</ele><time>2026-04-30T15:02:00.336Z</time></trkpt><trkpt lat="43.860695" lon="11.17588"><ele>78.0</ele><time>2026-04-30T15:02:01.337Z</time></trkpt><trkpt lat="43.8608133" lon="11.175865"><ele>78.0</ele><time>2026-04-30T15:02:02.336Z</time></trkpt><trkpt lat="43.8609333" lon="11.1758533"><ele>78.0</ele><time>2026-04-30T15:02:03.337Z</time></trkpt><trkpt lat="43.8610583" lon="11.175835"><ele>78.0</ele><time>2026-04-30T15:02:04.336Z</time></trkpt><trkpt lat="43.8611833" lon="11.1758317"><ele>78.0</ele><time>2026-04-30T15:02:05.337Z</time></trkpt><trkpt lat="43.861305" lon="11.1758133"><ele>77.75</ele><time>2026-04-30T15:02:06.336Z</time></trkpt><trkpt lat="43.8614217" lon="11.1757917"><ele>77.5</ele><time>2026-04-30T15:02:07.337Z</time></trkpt><trkpt lat="43.8615383" lon="11.1757667"><ele>77.25</ele><time>2026-04-30T15:02:08.337Z</time></trkpt><trkpt lat="43.8616517" lon="11.1757067"><ele>77.0</ele><time>2026-04-30T15:02:09.337Z</time></trkpt><trkpt lat="43.8617417" lon="11.1756383"><ele>76.8</ele><time>2026-04-30T15:02:10.337Z</time></trkpt><trkpt lat="43.8618083" lon="11.175555"><ele>76.6</ele><time>2026-04-30T15:02:11.336Z</time></trkpt><trkpt lat="43.8618583" lon="11.175475"><ele>76.39999999999999</ele><time>2026-04-30T15:02:12.337Z</time></trkpt><trkpt lat="43.8619483" lon="11.1753983"><ele>76.2</ele><time>2026-04-30T15:02:14.337Z</time></trkpt><trkpt lat="43.862045" lon="11.1754433"><ele>76.0</ele><time>2026-04-30T15:02:16.337Z</time></trkpt><trkpt lat="43.86211" lon="11.1755083"><ele>76.0</ele><time>2026-04-30T15:02:17.337Z</time></trkpt><trkpt lat="43.8621983" lon="11.1756017"><ele>76.0</ele><time>2026-04-30T15:02:18.337Z</time></trkpt><trkpt lat="43.862315" lon="11.175715"><ele>76.0</ele><time>2026-04-30T15:02:19.336Z</time></trkpt><trkpt lat="43.8624267" lon="11.17582"><ele>76.0</ele><time>2026-04-30T15:02:20.336Z</time></trkpt><trkpt lat="43.8625267" lon="11.1759067"><ele>76.33333333333333</ele><time>2026-04-30T15:02:21.337Z</time></trkpt><trkpt lat="43.8626117" lon="11.17597"><ele>76.66666666666666</ele><time>2026-04-30T15:02:22.337Z</time></trkpt><trkpt lat="43.8626883" lon="11.1760417"><ele>77.0</ele><time>2026-04-30T15:02:23.336Z</time></trkpt><trkpt lat="43.8627517" lon="11.1761133"><ele>77.33333333333333</ele><time>2026-04-30T15:02:24.337Z</time></trkpt><trkpt lat="43.8628033" lon="11.1761983"><ele>77.66666666666667</ele><time>2026-04-30T15:02:25.337Z</time></trkpt><trkpt lat="43.862865" lon="11.1762717"><ele>78.0</ele><time>2026-04-30T15:02:26.336Z</time></trkpt><trkpt lat="43.8629383" lon="11.1763267"><ele>78.25</ele><time>2026-04-30T15:02:27.337Z</time></trkpt><trkpt lat="43.8630317" lon="11.1763433"><ele>78.5</ele><time>2026-04-30T15:02:28.337Z</time></trkpt><trkpt lat="43.86314" lon="11.176325"><ele>78.75</ele><time>2026-04-30T15:02:29.337Z</time></trkpt><trkpt lat="43.863265" lon="11.1762867"><ele>79.0</ele><time>2026-04-30T15:02:30.337Z</time></trkpt><trkpt lat="43.8634133" lon="11.1762433"><ele>80.0</ele><time>2026-04-30T15:02:31.337Z</time></trkpt><trkpt lat="43.8635667" lon="11.1762017"><ele>81.0</ele><time>2026-04-30T15:02:32.337Z</time></trkpt><trkpt lat="43.8637317" lon="11.1761483"><ele>82.0</ele><time>2026-04-30T15:02:33.337Z</time></trkpt><trkpt lat="43.8639067" lon="11.1760783"><ele>82.0</ele><time>2026-04-30T15:02:34.337Z</time></trkpt><trkpt lat="43.86409" lon="11.1759967"><ele>82.0</ele><time>2026-04-30T15:02:35.336Z</time></trkpt><trkpt lat="43.8642767" lon="11.17592"><ele>82.0</ele><time>2026-04-30T15:02:36.337Z</time></trkpt><trkpt lat="43.8644467" lon="11.1758367"><ele>81.66666666666666</ele><time>2026-04-30T15:02:37.337Z</time></trkpt><trkpt lat="43.8646217" lon="11.17575"><ele>81.33333333333333</ele><time>2026-04-30T15:02:38.337Z</time></trkpt><trkpt lat="43.8647883" lon="11.1756683"><ele>81.0</ele><time>2026-04-30T15:02:39.337Z</time></trkpt><trkpt lat="43.8649483" lon="11.1755833"><ele>82.0</ele><time>2026-04-30T15:02:40.337Z</time></trkpt><trkpt lat="43.8651133" lon="11.1755283"><ele>83.0</ele><time>2026-04-30T15:02:41.337Z</time></trkpt><trkpt lat="43.865285" lon="11.1754433"><ele>84.0</ele><time>2026-04-30T15:02:42.337Z</time></trkpt><trkpt lat="43.865465" lon="11.17536"><ele>84.0</ele><time>2026-04-30T15:02:43.337Z</time></trkpt><trkpt lat="43.8656483" lon="11.1752667"><ele>84.0</ele><time>2026-04-30T15:02:44.336Z</time></trkpt><trkpt lat="43.8658217" lon="11.17518"><ele>84.0</ele><time>2026-04-30T15:02:45.337Z</time></trkpt><trkpt lat="43.8659933" lon="11.1751"><ele>86.33333333333333</ele><time>2026-04-30T15:02:46.336Z</time></trkpt><trkpt lat="43.8661667" lon="11.1750267"><ele>88.66666666666666</ele><time>2026-04-30T15:02:47.336Z</time></trkpt><trkpt lat="43.86635" lon="11.1749467"><ele>91.0</ele><time>2026-04-30T15:02:48.337Z</time></trkpt><trkpt lat="43.86654" lon="11.174875"><ele>87.0</ele><time>2026-04-30T15:02:49.337Z</time></trkpt><trkpt lat="43.8708967" lon="11.1718617"><ele>84.0</ele><time>2026-04-30T15:03:10.342Z</time></trkpt><trkpt lat="43.8710517" lon="11.17157"><ele>81.0</ele><time>2026-04-30T15:03:11.343Z</time></trkpt><trkpt lat="43.8711933" lon="11.1713267"><ele>80.33333333333333</ele><time>2026-04-30T15:03:12.343Z</time></trkpt><trkpt lat="43.8713217" lon="11.1710917"><ele>79.66666666666666</ele><time>2026-04-30T15:03:13.343Z</time></trkpt><trkpt lat="43.8714233" lon="11.17088"><ele>79.0</ele><time>2026-04-30T15:03:14.343Z</time></trkpt><trkpt lat="43.8715183" lon="11.1706733"><ele>79.0</ele><time>2026-04-30T15:03:15.343Z</time></trkpt><trkpt lat="43.8715933" lon="11.1704933"><ele>79.0</ele><time>2026-04-30T15:03:16.343Z</time></trkpt><trkpt lat="43.8716667" lon="11.1703633"><ele>79.0</ele><time>2026-04-30T15:03:17.343Z</time></trkpt><trkpt lat="43.8717283" lon="11.17026"><ele>79.0</ele><time>2026-04-30T15:03:18.343Z</time></trkpt><trkpt lat="43.8717767" lon="11.1701933"><ele>79.0</ele><time>2026-04-30T15:03:19.342Z</time></trkpt><trkpt lat="43.87184" lon="11.170145"><ele>77.8</ele><time>2026-04-30T15:03:21.343Z</time></trkpt><trkpt lat="43.871935" lon="11.170135"><ele>76.60000000000001</ele><time>2026-04-30T15:03:23.343Z</time></trkpt><trkpt lat="43.87206" lon="11.170195"><ele>75.4</ele><time>2026-04-30T15:03:25.343Z</time></trkpt><trkpt lat="43.8721283" lon="11.170265"><ele>74.2</ele><time>2026-04-30T15:03:26.343Z</time></trkpt><trkpt lat="43.8722" lon="11.1703583"><ele>73.0</ele><time>2026-04-30T15:03:27.342Z</time></trkpt><trkpt lat="43.872285" lon="11.1704767"><ele>73.0</ele><time>2026-04-30T15:03:28.342Z</time></trkpt><trkpt lat="43.8723917" lon="11.17064"><ele>73.0</ele><time>2026-04-30T15:03:29.343Z</time></trkpt><trkpt lat="43.8725183" lon="11.17083"><ele>73.0</ele><time>2026-04-30T15:03:30.342Z</time></trkpt><trkpt lat="43.8726467" lon="11.171045"><ele>73.5</ele><time>2026-04-30T15:03:31.343Z</time></trkpt><trkpt lat="43.8727833" lon="11.1712933"><ele>74.0</ele><time>2026-04-30T15:03:32.342Z</time></trkpt><trkpt lat="43.8729217" lon="11.1715433"><ele>74.5</ele><time>2026-04-30T15:03:33.343Z</time></trkpt><trkpt lat="43.8730717" lon="11.17179"><ele>75.0</ele><time>2026-04-30T15:03:34.342Z</time></trkpt><trkpt lat="43.873225" lon="11.1720333"><ele>75.0</ele><time>2026-04-30T15:03:35.342Z</time></trkpt><trkpt lat="43.8733917" lon="11.17226"><ele>75.0</ele><time>2026-04-30T15:03:36.343Z</time></trkpt><trkpt lat="43.8735583" lon="11.1724567"><ele>76.33333333333333</ele><time>2026-04-30T15:03:37.342Z</time></trkpt><trkpt lat="43.8737317" lon="11.17263"><ele>77.66666666666666</ele><time>2026-04-30T15:03:38.343Z</time></trkpt><trkpt lat="43.8739067" lon="11.1727833"><ele>79.0</ele><time>2026-04-30T15:03:39.343Z</time></trkpt><trkpt lat="43.8740783" lon="11.172905"><ele>79.0</ele><time>2026-04-30T15:03:40.343Z</time></trkpt><trkpt lat="43.8742567" lon="11.1730133"><ele>79.0</ele><time>2026-04-30T15:03:41.343Z</time></trkpt><trkpt lat="43.8744167" lon="11.1731217"><ele>79.0</ele><time>2026-04-30T15:03:42.343Z</time></trkpt><trkpt lat="43.8745817" lon="11.1732433"><ele>80.33333333333333</ele><time>2026-04-30T15:03:43.343Z</time></trkpt><trkpt lat="43.8747467" lon="11.1733717"><ele>81.66666666666667</ele><time>2026-04-30T15:03:44.343Z</time></trkpt><trkpt lat="43.8749083" lon="11.1734983"><ele>83.0</ele><time>2026-04-30T15:03:45.343Z</time></trkpt><trkpt lat="43.875075" lon="11.1736433"><ele>82.33333333333334</ele><time>2026-04-30T15:03:46.342Z</time></trkpt><trkpt lat="43.8752367" lon="11.17379"><ele>81.66666666666667</ele><time>2026-04-30T15:03:47.343Z</time></trkpt><trkpt lat="43.875395" lon="11.1739417"><ele>81.0</ele><time>2026-04-30T15:03:48.343Z</time></trkpt><trkpt lat="43.8755517" lon="11.1740933"><ele>81.0</ele><time>2026-04-30T15:03:49.342Z</time></trkpt><trkpt lat="43.8756983" lon="11.1742383"><ele>81.0</ele><time>2026-04-30T15:03:50.343Z</time></trkpt><trkpt lat="43.8758433" lon="11.17438"><ele>81.0</ele><time>2026-04-30T15:03:51.342Z</time></trkpt><trkpt lat="43.8759917" lon="11.1745233"><ele>80.66666666666667</ele><time>2026-04-30T15:03:52.342Z</time></trkpt><trkpt lat="43.8761367" lon="11.1746583"><ele>80.33333333333334</ele><time>2026-04-30T15:03:53.342Z</time></trkpt><trkpt lat="43.8762767" lon="11.17478"><ele>80.0</ele><time>2026-04-30T15:03:54.342Z</time></trkpt><trkpt lat="43.8764183" lon="11.1749083"><ele>80.33333333333334</ele><time>2026-04-30T15:03:55.343Z</time></trkpt><trkpt lat="43.8765517" lon="11.17503"><ele>80.66666666666667</ele><time>2026-04-30T15:03:56.343Z</time></trkpt><trkpt lat="43.8766817" lon="11.1751283"><ele>81.0</ele><time>2026-04-30T15:03:57.343Z</time></trkpt><trkpt lat="43.8768033" lon="11.17523"><ele>81.0</ele><time>2026-04-30T15:03:58.343Z</time></trkpt><trkpt lat="43.8769133" lon="11.1753283"><ele>81.0</ele><time>2026-04-30T15:03:59.342Z</time></trkpt><trkpt lat="43.8770183" lon="11.175425"><ele>81.0</ele><time>2026-04-30T15:04:00.343Z</time></trkpt><trkpt lat="43.8771183" lon="11.1755217"><ele>81.0</ele><time>2026-04-30T15:04:01.343Z</time></trkpt><trkpt lat="43.877225" lon="11.1756133"><ele>81.25</ele><time>2026-04-30T15:04:02.342Z</time></trkpt><trkpt lat="43.8773383" lon="11.1757083"><ele>81.5</ele><time>2026-04-30T15:04:03.343Z</time></trkpt><trkpt lat="43.8774417" lon="11.175805"><ele>81.75</ele><time>2026-04-30T15:04:04.342Z</time></trkpt><trkpt lat="43.8775483" lon="11.1758967"><ele>82.0</ele><time>2026-04-30T15:04:05.343Z</time></trkpt><trkpt lat="43.8776533" lon="11.175995"><ele>82.0</ele><time>2026-04-30T15:04:06.343Z</time></trkpt><trkpt lat="43.877755" lon="11.1760883"><ele>82.0</ele><time>2026-04-30T15:04:07.342Z</time></trkpt><trkpt lat="43.87787" lon="11.176185"><ele>82.0</ele><time>2026-04-30T15:04:08.342Z</time></trkpt><trkpt lat="43.877975" lon="11.176285"><ele>82.0</ele><time>2026-04-30T15:04:09.343Z</time></trkpt><trkpt lat="43.87808" lon="11.1763917"><ele>82.0</ele><time>2026-04-30T15:04:10.343Z</time></trkpt><trkpt lat="43.8781767" lon="11.1765067"><ele>82.0</ele><time>2026-04-30T15:04:11.343Z</time></trkpt><trkpt lat="43.87827" lon="11.1766233"><ele>82.0</ele><time>2026-04-30T15:04:12.342Z</time></trkpt><trkpt lat="43.878365" lon="11.1767433"><ele>82.0</ele><time>2026-04-30T15:04:13.342Z</time></trkpt><trkpt lat="43.87846" lon="11.1768633"><ele>81.5</ele><time>2026-04-30T15:04:14.342Z</time></trkpt><trkpt lat="43.8785433" lon="11.1769883"><ele>81.0</ele><time>2026-04-30T15:04:15.342Z</time></trkpt><trkpt lat="43.8786233" lon="11.1771117"><ele>80.5</ele><time>2026-04-30T15:04:16.343Z</time></trkpt><trkpt lat="43.8787083" lon="11.17723"><ele>80.0</ele><time>2026-04-30T15:04:17.343Z</time></trkpt><trkpt lat="43.8787917" lon="11.1773567"><ele>81.0</ele><time>2026-04-30T15:04:18.343Z</time></trkpt><trkpt lat="43.8788733" lon="11.1774867"><ele>82.0</ele><time>2026-04-30T15:04:19.342Z</time></trkpt><trkpt lat="43.8789567" lon="11.1776233"><ele>83.0</ele><time>2026-04-30T15:04:20.343Z</time></trkpt><trkpt lat="43.879045" lon="11.1777567"><ele>84.0</ele><time>2026-04-30T15:04:21.343Z</time></trkpt><trkpt lat="43.8791217" lon="11.1779"><ele>84.0</ele><time>2026-04-30T15:04:22.342Z</time></trkpt><trkpt lat="43.8792017" lon="11.178045"><ele>84.0</ele><time>2026-04-30T15:04:23.343Z</time></trkpt><trkpt lat="43.87928" lon="11.178195"><ele>84.0</ele><time>2026-04-30T15:04:24.342Z</time></trkpt><trkpt lat="43.879355" lon="11.178345"><ele>84.0</ele><time>2026-04-30T15:04:25.343Z</time></trkpt><trkpt lat="43.8794317" lon="11.1785017"><ele>83.5</ele><time>2026-04-30T15:04:26.342Z</time></trkpt><trkpt lat="43.879515" lon="11.17866"><ele>83.0</ele><time>2026-04-30T15:04:27.342Z</time></trkpt><trkpt lat="43.8796033" lon="11.1788067"><ele>82.5</ele><time>2026-04-30T15:04:28.343Z</time></trkpt><trkpt lat="43.879675" lon="11.1789517"><ele>82.0</ele><time>2026-04-30T15:04:29.343Z</time></trkpt><trkpt lat="43.8797333" lon="11.1791067"><ele>83.25</ele><time>2026-04-30T15:04:30.343Z</time></trkpt><trkpt lat="43.8798033" lon="11.1792667"><ele>84.5</ele><time>2026-04-30T15:04:31.342Z</time></trkpt><trkpt lat="43.8798733" lon="11.17943"><ele>85.75</ele><time>2026-04-30T15:04:32.343Z</time></trkpt><trkpt lat="43.8799517" lon="11.17959"><ele>87.0</ele><time>2026-04-30T15:04:33.343Z</time></trkpt><trkpt lat="43.880045" lon="11.17974"><ele>87.0</ele><time>2026-04-30T15:04:34.343Z</time></trkpt><trkpt lat="43.8801367" lon="11.1798833"><ele>87.0</ele><time>2026-04-30T15:04:35.343Z</time></trkpt><trkpt lat="43.8802333" lon="11.18001"><ele>87.0</ele><time>2026-04-30T15:04:36.343Z</time></trkpt><trkpt lat="43.880335" lon="11.180125"><ele>87.0</ele><time>2026-04-30T15:04:37.343Z</time></trkpt><trkpt lat="43.8804433" lon="11.1802217"><ele>87.0</ele><time>2026-04-30T15:04:38.343Z</time></trkpt><trkpt lat="43.8805567" lon="11.180305"><ele>87.0</ele><time>2026-04-30T15:04:39.343Z</time></trkpt><trkpt lat="43.880665" lon="11.1803683"><ele>87.0</ele><time>2026-04-30T15:04:40.342Z</time></trkpt><trkpt lat="43.88077" lon="11.180425"><ele>87.0</ele><time>2026-04-30T15:04:41.343Z</time></trkpt><trkpt lat="43.880865" lon="11.1804633"><ele>87.19999999999999</ele><time>2026-04-30T15:04:42.342Z</time></trkpt><trkpt lat="43.8809617" lon="11.1804933"><ele>87.4</ele><time>2026-04-30T15:04:43.343Z</time></trkpt><trkpt lat="43.88107" lon="11.1805083"><ele>87.6</ele><time>2026-04-30T15:04:44.342Z</time></trkpt><trkpt lat="43.88117" lon="11.180525"><ele>87.80000000000001</ele><time>2026-04-30T15:04:45.343Z</time></trkpt><trkpt lat="43.8812617" lon="11.180525"><ele>88.0</ele><time>2026-04-30T15:04:46.343Z</time></trkpt><trkpt lat="43.881335" lon="11.1805183"><ele>88.0</ele><time>2026-04-30T15:04:47.343Z</time></trkpt><trkpt lat="43.88144" lon="11.1804767"><ele>88.0</ele><time>2026-04-30T15:04:49.342Z</time></trkpt><trkpt lat="43.88153" lon="11.180445"><ele>88.0</ele><time>2026-04-30T15:04:51.343Z</time></trkpt><trkpt lat="43.8816183" lon="11.1804317"><ele>88.0</ele><time>2026-04-30T15:04:53.343Z</time></trkpt><trkpt lat="43.8817033" lon="11.180445"><ele>88.0</ele><time>2026-04-30T15:04:55.343Z</time></trkpt><trkpt lat="43.8817967" lon="11.1804533"><ele>88.5</ele><time>2026-04-30T15:04:57.343Z</time></trkpt><trkpt lat="43.8818817" lon="11.1804033"><ele>89.0</ele><time>2026-04-30T15:04:59.342Z</time></trkpt><trkpt lat="43.8819633" lon="11.1803317"><ele>89.5</ele><time>2026-04-30T15:05:01.342Z</time></trkpt><trkpt lat="43.8820783" lon="11.1802967"><ele>90.0</ele><time>2026-04-30T15:05:03.343Z</time></trkpt><trkpt lat="43.882155" lon="11.1803017"><ele>90.5</ele><time>2026-04-30T15:05:04.343Z</time></trkpt><trkpt lat="43.8822183" lon="11.1803183"><ele>91.0</ele><time>2026-04-30T15:05:05.343Z</time></trkpt><trkpt lat="43.8822817" lon="11.1803333"><ele>91.0</ele><time>2026-04-30T15:05:06.343Z</time></trkpt><trkpt lat="43.8824083" lon="11.1803717"><ele>91.0</ele><time>2026-04-30T15:05:08.342Z</time></trkpt><trkpt lat="43.882525" lon="11.180415"><ele>91.0</ele><time>2026-04-30T15:05:10.343Z</time></trkpt><trkpt lat="43.8826333" lon="11.1804717"><ele>91.0</ele><time>2026-04-30T15:05:12.343Z</time></trkpt><trkpt lat="43.882735" lon="11.1805183"><ele>91.0</ele><time>2026-04-30T15:05:14.343Z</time></trkpt><trkpt lat="43.8828467" lon="11.1805617"><ele>91.0</ele><time>2026-04-30T15:05:16.343Z</time></trkpt><trkpt lat="43.8829767" lon="11.18062"><ele>91.0</ele><time>2026-04-30T15:05:18.343Z</time></trkpt><trkpt lat="43.8830433" lon="11.1806517"><ele>91.0</ele><time>2026-04-30T15:05:19.342Z</time></trkpt><trkpt lat="43.88311" lon="11.1806767"><ele>91.0</ele><time>2026-04-30T15:05:20.343Z</time></trkpt><trkpt lat="43.8831733" lon="11.1807017"><ele>91.0</ele><time>2026-04-30T15:05:21.343Z</time></trkpt><trkpt lat="43.883235" lon="11.1807383"><ele>91.0</ele><time>2026-04-30T15:05:22.343Z</time></trkpt><trkpt lat="43.8832967" lon="11.1807833"><ele>91.0</ele><time>2026-04-30T15:05:23.343Z</time></trkpt><trkpt lat="43.8833517" lon="11.1808317"><ele>91.0</ele><time>2026-04-30T15:05:24.343Z</time></trkpt><trkpt lat="43.8834317" lon="11.18093"><ele>91.0</ele><time>2026-04-30T15:05:26.342Z</time></trkpt><trkpt lat="43.8835033" lon="11.18101"><ele>91.0</ele><time>2026-04-30T15:05:28.342Z</time></trkpt><trkpt lat="43.8836067" lon="11.1810183"><ele>91.0</ele><time>2026-04-30T15:05:30.343Z</time></trkpt><trkpt lat="43.8837133" lon="11.18095"><ele>91.0</ele><time>2026-04-30T15:05:32.343Z</time></trkpt><trkpt lat="43.8837817" lon="11.1809233"><ele>91.0</ele><time>2026-04-30T15:05:33.342Z</time></trkpt><trkpt lat="43.8838633" lon="11.1809133"><ele>91.0</ele><time>2026-04-30T15:05:34.343Z</time></trkpt><trkpt lat="43.8839433" lon="11.1809083"><ele>91.0</ele><time>2026-04-30T15:05:35.342Z</time></trkpt><trkpt lat="43.8840283" lon="11.1809217"><ele>91.0</ele><time>2026-04-30T15:05:36.343Z</time></trkpt><trkpt lat="43.8841067" lon="11.1809267"><ele>91.0</ele><time>2026-04-30T15:05:37.343Z</time></trkpt><trkpt lat="43.8841767" lon="11.1809333"><ele>91.0</ele><time>2026-04-30T15:05:38.343Z</time></trkpt><trkpt lat="43.88425" lon="11.1809333"><ele>91.0</ele><time>2026-04-30T15:05:39.343Z</time></trkpt><trkpt lat="43.884315" lon="11.1809433"><ele>91.0</ele><time>2026-04-30T15:05:40.342Z</time></trkpt><trkpt lat="43.8843817" lon="11.18095"><ele>91.0</ele><time>2026-04-30T15:05:41.342Z</time></trkpt><trkpt lat="43.88445" lon="11.1809583"><ele>91.0</ele><time>2026-04-30T15:05:42.342Z</time></trkpt><trkpt lat="43.8845217" lon="11.1809633"><ele>91.0</ele><time>2026-04-30T15:05:43.343Z</time></trkpt><trkpt lat="43.8845967" lon="11.1809717"><ele>91.0</ele><time>2026-04-30T15:05:44.343Z</time></trkpt><trkpt lat="43.884685" lon="11.18098"><ele>91.0</ele><time>2026-04-30T15:05:45.343Z</time></trkpt><trkpt lat="43.8847817" lon="11.18099"><ele>91.0</ele><time>2026-04-30T15:05:46.343Z</time></trkpt><trkpt lat="43.8848867" lon="11.1810067"><ele>91.0</ele><time>2026-04-30T15:05:47.342Z</time></trkpt><trkpt lat="43.8849967" lon="11.1810233"><ele>91.0</ele><time>2026-04-30T15:05:48.343Z</time></trkpt><trkpt lat="43.8851067" lon="11.181055"><ele>91.0</ele><time>2026-04-30T15:05:49.343Z</time></trkpt><trkpt lat="43.8852083" lon="11.181085"><ele>91.0</ele><time>2026-04-30T15:05:50.342Z</time></trkpt><trkpt lat="43.8853183" lon="11.1811133"><ele>91.0</ele><time>2026-04-30T15:05:51.342Z</time></trkpt><trkpt lat="43.885425" lon="11.1811567"><ele>91.0</ele><time>2026-04-30T15:05:52.343Z</time></trkpt><trkpt lat="43.8855367" lon="11.1812017"><ele>91.0</ele><time>2026-04-30T15:05:53.343Z</time></trkpt><trkpt lat="43.8856433" lon="11.1812517"><ele>91.0</ele><time>2026-04-30T15:05:54.342Z</time></trkpt><trkpt lat="43.8857533" lon="11.18131"><ele>91.0</ele><time>2026-04-30T15:05:55.343Z</time></trkpt><trkpt lat="43.8858617" lon="11.181375"><ele>91.0</ele><time>2026-04-30T15:05:56.343Z</time></trkpt><trkpt lat="43.88597" lon="11.1814417"><ele>91.0</ele><time>2026-04-30T15:05:57.343Z</time></trkpt><trkpt lat="43.8860817" lon="11.1815233"><ele>91.75</ele><time>2026-04-30T15:05:58.343Z</time></trkpt><trkpt lat="43.8862" lon="11.1816"><ele>92.5</ele><time>2026-04-30T15:05:59.342Z</time></trkpt><trkpt lat="43.8863133" lon="11.1816767"><ele>93.25</ele><time>2026-04-30T15:06:00.343Z</time></trkpt><trkpt lat="43.886425" lon="11.1817567"><ele>94.0</ele><time>2026-04-30T15:06:01.343Z</time></trkpt><trkpt lat="43.8865417" lon="11.1818417"><ele>94.0</ele><time>2026-04-30T15:06:02.343Z</time></trkpt><trkpt lat="43.8866533" lon="11.1819133"><ele>94.0</ele><time>2026-04-30T15:06:03.343Z</time></trkpt><trkpt lat="43.8867633" lon="11.1819833"><ele>94.0</ele><time>2026-04-30T15:06:04.343Z</time></trkpt><trkpt lat="43.8868733" lon="11.1820367"><ele>94.0</ele><time>2026-04-30T15:06:05.343Z</time></trkpt><trkpt lat="43.8869867" lon="11.18208"><ele>94.0</ele><time>2026-04-30T15:06:06.343Z</time></trkpt><trkpt lat="43.8871" lon="11.18211"><ele>94.0</ele><time>2026-04-30T15:06:07.343Z</time></trkpt><trkpt lat="43.8872183" lon="11.1821317"><ele>94.0</ele><time>2026-04-30T15:06:08.342Z</time></trkpt><trkpt lat="43.8873367" lon="11.1821567"><ele>94.0</ele><time>2026-04-30T15:06:09.343Z</time></trkpt><trkpt lat="43.88746" lon="11.1821833"><ele>94.0</ele><time>2026-04-30T15:06:10.343Z</time></trkpt><trkpt lat="43.8875817" lon="11.1822083"><ele>94.0</ele><time>2026-04-30T15:06:11.343Z</time></trkpt><trkpt lat="43.8877033" lon="11.182245"><ele>94.0</ele><time>2026-04-30T15:06:12.342Z</time></trkpt><trkpt lat="43.8878217" lon="11.1822733"><ele>94.0</ele><time>2026-04-30T15:06:13.342Z</time></trkpt><trkpt lat="43.88794" lon="11.1822983"><ele>94.0</ele><time>2026-04-30T15:06:14.343Z</time></trkpt></trkseg></trk></gpx>